<?xml version="1.0" encoding="UTF-8" standalone="no" ?>
<gpx xmlns="http://www.topografix.com/GPX/1/1" xmlns:xsi="http://www.w3.org/2001/XMLSchema-instance" xsi:schemaLocation="http://www.topografix.com/GPX/1/1 http://www.topografix.com/GPX/1/1/gpx.xsd" version="1.1" creator="VisuGPX - https://www.visugpx.com">
  <metadata>
    <name>Boucle noir 2021</name>
  </metadata>
  <trk>
    <name><![CDATA[Boucle noir 2021]]></name>
    <extensions>
      <line xmlns="http://www.topografix.com/GPX/gpx_style/0/2">
        <width>4</width>
      </line>
    </extensions>
    <trkseg>
      <trkpt lat="46.54029" lon="0.33135">
        <ele>78.8</ele>
        <time>2021-01-24T08:08:59.165Z</time>
      </trkpt>
      <trkpt lat="46.54036" lon="0.33119">
        <ele>78.8</ele>
        <time>2021-01-24T08:09:05.000Z</time>
      </trkpt>
      <trkpt lat="46.54034" lon="0.33122">
        <ele>78.8</ele>
        <time>2021-01-24T08:09:06.000Z</time>
      </trkpt>
      <trkpt lat="46.54033" lon="0.33125">
        <ele>78.8</ele>
        <time>2021-01-24T08:09:07.000Z</time>
      </trkpt>
      <trkpt lat="46.54031" lon="0.33128">
        <ele>78.8</ele>
        <time>2021-01-24T08:09:08.000Z</time>
      </trkpt>
      <trkpt lat="46.5403" lon="0.33131">
        <ele>78.8</ele>
        <time>2021-01-24T08:09:09.000Z</time>
      </trkpt>
      <trkpt lat="46.54029" lon="0.33135">
        <ele>78.8</ele>
        <time>2021-01-24T08:09:11.000Z</time>
      </trkpt>
      <trkpt lat="46.54027" lon="0.33138">
        <ele>78.8</ele>
        <time>2021-01-24T08:09:12.000Z</time>
      </trkpt>
      <trkpt lat="46.54027" lon="0.33141">
        <ele>78.8</ele>
        <time>2021-01-24T08:09:13.000Z</time>
      </trkpt>
      <trkpt lat="46.54026" lon="0.33146">
        <ele>78.8</ele>
        <time>2021-01-24T08:09:14.000Z</time>
      </trkpt>
      <trkpt lat="46.54026" lon="0.33151">
        <ele>79</ele>
        <time>2021-01-24T08:09:15.000Z</time>
      </trkpt>
      <trkpt lat="46.54026" lon="0.33157">
        <ele>79</ele>
        <time>2021-01-24T08:09:16.000Z</time>
      </trkpt>
      <trkpt lat="46.54027" lon="0.33162">
        <ele>79</ele>
        <time>2021-01-24T08:09:17.000Z</time>
      </trkpt>
      <trkpt lat="46.54027" lon="0.33168">
        <ele>79.2</ele>
        <time>2021-01-24T08:09:18.000Z</time>
      </trkpt>
      <trkpt lat="46.54028" lon="0.33174">
        <ele>79.2</ele>
        <time>2021-01-24T08:09:19.000Z</time>
      </trkpt>
      <trkpt lat="46.54028" lon="0.33181">
        <ele>79.4</ele>
        <time>2021-01-24T08:09:20.000Z</time>
      </trkpt>
      <trkpt lat="46.54027" lon="0.33188">
        <ele>79.4</ele>
        <time>2021-01-24T08:09:21.000Z</time>
      </trkpt>
      <trkpt lat="46.54027" lon="0.33195">
        <ele>79.6</ele>
        <time>2021-01-24T08:09:22.000Z</time>
      </trkpt>
      <trkpt lat="46.54027" lon="0.33202">
        <ele>79.6</ele>
        <time>2021-01-24T08:09:23.000Z</time>
      </trkpt>
      <trkpt lat="46.54026" lon="0.33209">
        <ele>79.6</ele>
        <time>2021-01-24T08:09:24.000Z</time>
      </trkpt>
      <trkpt lat="46.54026" lon="0.33216">
        <ele>79.8</ele>
        <time>2021-01-24T08:09:25.000Z</time>
      </trkpt>
      <trkpt lat="46.54026" lon="0.33222">
        <ele>79.8</ele>
        <time>2021-01-24T08:09:26.000Z</time>
      </trkpt>
      <trkpt lat="46.54026" lon="0.33232">
        <ele>79.8</ele>
        <time>2021-01-24T08:09:27.000Z</time>
      </trkpt>
      <trkpt lat="46.54027" lon="0.33235">
        <ele>80</ele>
        <time>2021-01-24T08:09:28.000Z</time>
      </trkpt>
      <trkpt lat="46.54027" lon="0.33241">
        <ele>80.2</ele>
        <time>2021-01-24T08:09:29.000Z</time>
      </trkpt>
      <trkpt lat="46.54028" lon="0.33247">
        <ele>80.2</ele>
        <time>2021-01-24T08:09:30.000Z</time>
      </trkpt>
      <trkpt lat="46.54029" lon="0.33253">
        <ele>80.2</ele>
        <time>2021-01-24T08:09:31.000Z</time>
      </trkpt>
      <trkpt lat="46.54029" lon="0.33259">
        <ele>80.4</ele>
        <time>2021-01-24T08:09:32.000Z</time>
      </trkpt>
      <trkpt lat="46.5403" lon="0.33265">
        <ele>80.6</ele>
        <time>2021-01-24T08:09:33.000Z</time>
      </trkpt>
      <trkpt lat="46.54031" lon="0.33271">
        <ele>80.6</ele>
        <time>2021-01-24T08:09:34.000Z</time>
      </trkpt>
      <trkpt lat="46.54031" lon="0.33276">
        <ele>80.6</ele>
        <time>2021-01-24T08:09:35.000Z</time>
      </trkpt>
      <trkpt lat="46.54032" lon="0.33282">
        <ele>80.8</ele>
        <time>2021-01-24T08:09:36.000Z</time>
      </trkpt>
      <trkpt lat="46.54034" lon="0.33288">
        <ele>80.8</ele>
        <time>2021-01-24T08:09:37.000Z</time>
      </trkpt>
      <trkpt lat="46.54035" lon="0.33294">
        <ele>81</ele>
        <time>2021-01-24T08:09:38.000Z</time>
      </trkpt>
      <trkpt lat="46.54037" lon="0.33299">
        <ele>81</ele>
        <time>2021-01-24T08:09:39.000Z</time>
      </trkpt>
      <trkpt lat="46.54037" lon="0.33305">
        <ele>81.2</ele>
        <time>2021-01-24T08:09:40.000Z</time>
      </trkpt>
      <trkpt lat="46.54039" lon="0.33311">
        <ele>81.2</ele>
        <time>2021-01-24T08:09:41.000Z</time>
      </trkpt>
      <trkpt lat="46.54039" lon="0.33318">
        <ele>81.4</ele>
        <time>2021-01-24T08:09:42.000Z</time>
      </trkpt>
      <trkpt lat="46.5404" lon="0.33324">
        <ele>81.4</ele>
        <time>2021-01-24T08:09:43.000Z</time>
      </trkpt>
      <trkpt lat="46.5404" lon="0.33331">
        <ele>81.6</ele>
        <time>2021-01-24T08:09:44.000Z</time>
      </trkpt>
      <trkpt lat="46.54041" lon="0.33338">
        <ele>81.6</ele>
        <time>2021-01-24T08:09:45.000Z</time>
      </trkpt>
      <trkpt lat="46.54041" lon="0.33344">
        <ele>81.6</ele>
        <time>2021-01-24T08:09:46.000Z</time>
      </trkpt>
      <trkpt lat="46.54042" lon="0.33352">
        <ele>81.8</ele>
        <time>2021-01-24T08:09:47.000Z</time>
      </trkpt>
      <trkpt lat="46.54042" lon="0.33359">
        <ele>81.8</ele>
        <time>2021-01-24T08:09:48.000Z</time>
      </trkpt>
      <trkpt lat="46.54042" lon="0.33366">
        <ele>81.8</ele>
        <time>2021-01-24T08:09:49.000Z</time>
      </trkpt>
      <trkpt lat="46.54043" lon="0.33373">
        <ele>82</ele>
        <time>2021-01-24T08:09:50.000Z</time>
      </trkpt>
      <trkpt lat="46.54043" lon="0.3338">
        <ele>82</ele>
        <time>2021-01-24T08:09:51.000Z</time>
      </trkpt>
      <trkpt lat="46.54044" lon="0.33388">
        <ele>82.2</ele>
        <time>2021-01-24T08:09:52.000Z</time>
      </trkpt>
      <trkpt lat="46.54045" lon="0.33395">
        <ele>82.2</ele>
        <time>2021-01-24T08:09:53.000Z</time>
      </trkpt>
      <trkpt lat="46.54045" lon="0.33402">
        <ele>82.4</ele>
        <time>2021-01-24T08:09:54.000Z</time>
      </trkpt>
      <trkpt lat="46.54047" lon="0.33409">
        <ele>82.6</ele>
        <time>2021-01-24T08:09:55.000Z</time>
      </trkpt>
      <trkpt lat="46.54049" lon="0.33415">
        <ele>82.8</ele>
        <time>2021-01-24T08:09:56.000Z</time>
      </trkpt>
      <trkpt lat="46.54051" lon="0.33422">
        <ele>83</ele>
        <time>2021-01-24T08:09:57.000Z</time>
      </trkpt>
      <trkpt lat="46.54053" lon="0.33428">
        <ele>83.2</ele>
        <time>2021-01-24T08:09:58.000Z</time>
      </trkpt>
      <trkpt lat="46.54055" lon="0.33434">
        <ele>83.2</ele>
        <time>2021-01-24T08:09:59.000Z</time>
      </trkpt>
      <trkpt lat="46.54057" lon="0.3344">
        <ele>83.4</ele>
        <time>2021-01-24T08:10:00.000Z</time>
      </trkpt>
      <trkpt lat="46.54059" lon="0.33445">
        <ele>83.6</ele>
        <time>2021-01-24T08:10:01.000Z</time>
      </trkpt>
      <trkpt lat="46.54062" lon="0.3345">
        <ele>83.8</ele>
        <time>2021-01-24T08:10:02.000Z</time>
      </trkpt>
      <trkpt lat="46.54064" lon="0.33455">
        <ele>83.8</ele>
        <time>2021-01-24T08:10:03.000Z</time>
      </trkpt>
      <trkpt lat="46.54067" lon="0.33459">
        <ele>84</ele>
        <time>2021-01-24T08:10:04.000Z</time>
      </trkpt>
      <trkpt lat="46.54069" lon="0.33464">
        <ele>84</ele>
        <time>2021-01-24T08:10:05.000Z</time>
      </trkpt>
      <trkpt lat="46.54073" lon="0.33468">
        <ele>84.2</ele>
        <time>2021-01-24T08:10:06.000Z</time>
      </trkpt>
      <trkpt lat="46.54075" lon="0.33472">
        <ele>84.2</ele>
        <time>2021-01-24T08:10:07.000Z</time>
      </trkpt>
      <trkpt lat="46.54078" lon="0.33477">
        <ele>84.4</ele>
        <time>2021-01-24T08:10:08.000Z</time>
      </trkpt>
      <trkpt lat="46.54081" lon="0.33481">
        <ele>84.6</ele>
        <time>2021-01-24T08:10:09.000Z</time>
      </trkpt>
      <trkpt lat="46.54083" lon="0.33485">
        <ele>84.6</ele>
        <time>2021-01-24T08:10:10.000Z</time>
      </trkpt>
      <trkpt lat="46.54086" lon="0.33489">
        <ele>84.8</ele>
        <time>2021-01-24T08:10:11.000Z</time>
      </trkpt>
      <trkpt lat="46.54089" lon="0.33493">
        <ele>84.8</ele>
        <time>2021-01-24T08:10:12.000Z</time>
      </trkpt>
      <trkpt lat="46.54091" lon="0.33497">
        <ele>85</ele>
        <time>2021-01-24T08:10:13.000Z</time>
      </trkpt>
      <trkpt lat="46.54093" lon="0.33501">
        <ele>85.2</ele>
        <time>2021-01-24T08:10:14.000Z</time>
      </trkpt>
      <trkpt lat="46.54095" lon="0.33505">
        <ele>85.2</ele>
        <time>2021-01-24T08:10:15.000Z</time>
      </trkpt>
      <trkpt lat="46.54097" lon="0.33509">
        <ele>85.2</ele>
        <time>2021-01-24T08:10:16.000Z</time>
      </trkpt>
      <trkpt lat="46.54099" lon="0.33514">
        <ele>85.4</ele>
        <time>2021-01-24T08:10:17.000Z</time>
      </trkpt>
      <trkpt lat="46.54101" lon="0.33518">
        <ele>85.4</ele>
        <time>2021-01-24T08:10:18.000Z</time>
      </trkpt>
      <trkpt lat="46.54102" lon="0.33522">
        <ele>85.6</ele>
        <time>2021-01-24T08:10:19.000Z</time>
      </trkpt>
      <trkpt lat="46.54103" lon="0.33527">
        <ele>85.6</ele>
        <time>2021-01-24T08:10:20.000Z</time>
      </trkpt>
      <trkpt lat="46.54105" lon="0.33531">
        <ele>85.8</ele>
        <time>2021-01-24T08:10:21.000Z</time>
      </trkpt>
      <trkpt lat="46.54107" lon="0.33535">
        <ele>85.8</ele>
        <time>2021-01-24T08:10:22.000Z</time>
      </trkpt>
      <trkpt lat="46.54109" lon="0.33539">
        <ele>86</ele>
        <time>2021-01-24T08:10:23.000Z</time>
      </trkpt>
      <trkpt lat="46.5411" lon="0.33543">
        <ele>86.2</ele>
        <time>2021-01-24T08:10:24.000Z</time>
      </trkpt>
      <trkpt lat="46.54111" lon="0.33547">
        <ele>86.2</ele>
        <time>2021-01-24T08:10:25.000Z</time>
      </trkpt>
      <trkpt lat="46.54112" lon="0.33551">
        <ele>86.4</ele>
        <time>2021-01-24T08:10:26.000Z</time>
      </trkpt>
      <trkpt lat="46.54113" lon="0.33556">
        <ele>86.6</ele>
        <time>2021-01-24T08:10:27.000Z</time>
      </trkpt>
      <trkpt lat="46.54114" lon="0.3356">
        <ele>86.8</ele>
        <time>2021-01-24T08:10:28.000Z</time>
      </trkpt>
      <trkpt lat="46.54115" lon="0.33564">
        <ele>87</ele>
        <time>2021-01-24T08:10:29.000Z</time>
      </trkpt>
      <trkpt lat="46.54117" lon="0.33568">
        <ele>87.2</ele>
        <time>2021-01-24T08:10:30.000Z</time>
      </trkpt>
      <trkpt lat="46.54118" lon="0.33571">
        <ele>87.4</ele>
        <time>2021-01-24T08:10:31.000Z</time>
      </trkpt>
      <trkpt lat="46.54119" lon="0.33575">
        <ele>87.6</ele>
        <time>2021-01-24T08:10:32.000Z</time>
      </trkpt>
      <trkpt lat="46.54121" lon="0.33579">
        <ele>87.8</ele>
        <time>2021-01-24T08:10:33.000Z</time>
      </trkpt>
      <trkpt lat="46.54122" lon="0.33583">
        <ele>87.8</ele>
        <time>2021-01-24T08:10:34.000Z</time>
      </trkpt>
      <trkpt lat="46.54123" lon="0.33587">
        <ele>88</ele>
        <time>2021-01-24T08:10:35.000Z</time>
      </trkpt>
      <trkpt lat="46.54124" lon="0.33591">
        <ele>88.2</ele>
        <time>2021-01-24T08:10:36.000Z</time>
      </trkpt>
      <trkpt lat="46.54125" lon="0.33595">
        <ele>88.4</ele>
        <time>2021-01-24T08:10:37.000Z</time>
      </trkpt>
      <trkpt lat="46.54126" lon="0.33598">
        <ele>88.6</ele>
        <time>2021-01-24T08:10:38.000Z</time>
      </trkpt>
      <trkpt lat="46.54128" lon="0.33602">
        <ele>88.8</ele>
        <time>2021-01-24T08:10:39.000Z</time>
      </trkpt>
      <trkpt lat="46.54129" lon="0.33606">
        <ele>88.8</ele>
        <time>2021-01-24T08:10:40.000Z</time>
      </trkpt>
      <trkpt lat="46.5413" lon="0.3361">
        <ele>89</ele>
        <time>2021-01-24T08:10:41.000Z</time>
      </trkpt>
      <trkpt lat="46.54131" lon="0.33614">
        <ele>89.2</ele>
        <time>2021-01-24T08:10:42.000Z</time>
      </trkpt>
      <trkpt lat="46.54133" lon="0.33618">
        <ele>89.4</ele>
        <time>2021-01-24T08:10:43.000Z</time>
      </trkpt>
      <trkpt lat="46.54134" lon="0.33622">
        <ele>89.6</ele>
        <time>2021-01-24T08:10:44.000Z</time>
      </trkpt>
      <trkpt lat="46.54135" lon="0.33626">
        <ele>89.8</ele>
        <time>2021-01-24T08:10:45.000Z</time>
      </trkpt>
      <trkpt lat="46.54135" lon="0.3363">
        <ele>89.8</ele>
        <time>2021-01-24T08:10:46.000Z</time>
      </trkpt>
      <trkpt lat="46.54137" lon="0.33634">
        <ele>90</ele>
        <time>2021-01-24T08:10:47.000Z</time>
      </trkpt>
      <trkpt lat="46.54138" lon="0.33638">
        <ele>90.2</ele>
        <time>2021-01-24T08:10:48.000Z</time>
      </trkpt>
      <trkpt lat="46.54139" lon="0.33642">
        <ele>90.4</ele>
        <time>2021-01-24T08:10:49.000Z</time>
      </trkpt>
      <trkpt lat="46.5414" lon="0.33646">
        <ele>90.4</ele>
        <time>2021-01-24T08:10:50.000Z</time>
      </trkpt>
      <trkpt lat="46.54141" lon="0.3365">
        <ele>90.6</ele>
        <time>2021-01-24T08:10:51.000Z</time>
      </trkpt>
      <trkpt lat="46.54142" lon="0.33654">
        <ele>90.6</ele>
        <time>2021-01-24T08:10:52.000Z</time>
      </trkpt>
      <trkpt lat="46.54144" lon="0.33658">
        <ele>90.8</ele>
        <time>2021-01-24T08:10:53.000Z</time>
      </trkpt>
      <trkpt lat="46.54145" lon="0.33662">
        <ele>90.8</ele>
        <time>2021-01-24T08:10:54.000Z</time>
      </trkpt>
      <trkpt lat="46.54146" lon="0.33666">
        <ele>91</ele>
        <time>2021-01-24T08:10:55.000Z</time>
      </trkpt>
      <trkpt lat="46.54147" lon="0.3367">
        <ele>91.2</ele>
        <time>2021-01-24T08:10:56.000Z</time>
      </trkpt>
      <trkpt lat="46.54148" lon="0.33673">
        <ele>91.2</ele>
        <time>2021-01-24T08:10:57.000Z</time>
      </trkpt>
      <trkpt lat="46.54149" lon="0.33677">
        <ele>91.6</ele>
        <time>2021-01-24T08:10:58.000Z</time>
      </trkpt>
      <trkpt lat="46.5415" lon="0.33681">
        <ele>91.6</ele>
        <time>2021-01-24T08:10:59.000Z</time>
      </trkpt>
      <trkpt lat="46.54152" lon="0.33685">
        <ele>92</ele>
        <time>2021-01-24T08:11:00.000Z</time>
      </trkpt>
      <trkpt lat="46.54153" lon="0.33688">
        <ele>92</ele>
        <time>2021-01-24T08:11:01.000Z</time>
      </trkpt>
      <trkpt lat="46.54154" lon="0.33692">
        <ele>92.2</ele>
        <time>2021-01-24T08:11:02.000Z</time>
      </trkpt>
      <trkpt lat="46.54155" lon="0.33695">
        <ele>92.4</ele>
        <time>2021-01-24T08:11:03.000Z</time>
      </trkpt>
      <trkpt lat="46.54155" lon="0.33699">
        <ele>92.6</ele>
        <time>2021-01-24T08:11:04.000Z</time>
      </trkpt>
      <trkpt lat="46.54157" lon="0.33703">
        <ele>92.8</ele>
        <time>2021-01-24T08:11:05.000Z</time>
      </trkpt>
      <trkpt lat="46.54158" lon="0.33706">
        <ele>93</ele>
        <time>2021-01-24T08:11:06.000Z</time>
      </trkpt>
      <trkpt lat="46.54158" lon="0.3371">
        <ele>93</ele>
        <time>2021-01-24T08:11:07.000Z</time>
      </trkpt>
      <trkpt lat="46.54159" lon="0.33714">
        <ele>93.2</ele>
        <time>2021-01-24T08:11:08.000Z</time>
      </trkpt>
      <trkpt lat="46.5416" lon="0.33718">
        <ele>93.4</ele>
        <time>2021-01-24T08:11:09.000Z</time>
      </trkpt>
      <trkpt lat="46.54161" lon="0.33721">
        <ele>93.4</ele>
        <time>2021-01-24T08:11:10.000Z</time>
      </trkpt>
      <trkpt lat="46.54162" lon="0.33725">
        <ele>93.6</ele>
        <time>2021-01-24T08:11:11.000Z</time>
      </trkpt>
      <trkpt lat="46.54163" lon="0.33729">
        <ele>93.8</ele>
        <time>2021-01-24T08:11:12.000Z</time>
      </trkpt>
      <trkpt lat="46.54164" lon="0.33733">
        <ele>94</ele>
        <time>2021-01-24T08:11:13.000Z</time>
      </trkpt>
      <trkpt lat="46.54165" lon="0.33736">
        <ele>94.2</ele>
        <time>2021-01-24T08:11:14.000Z</time>
      </trkpt>
      <trkpt lat="46.54165" lon="0.33741">
        <ele>94.4</ele>
        <time>2021-01-24T08:11:15.000Z</time>
      </trkpt>
      <trkpt lat="46.54166" lon="0.33744">
        <ele>94.6</ele>
        <time>2021-01-24T08:11:16.000Z</time>
      </trkpt>
      <trkpt lat="46.54166" lon="0.33748">
        <ele>94.8</ele>
        <time>2021-01-24T08:11:17.000Z</time>
      </trkpt>
      <trkpt lat="46.54167" lon="0.33752">
        <ele>95</ele>
        <time>2021-01-24T08:11:18.000Z</time>
      </trkpt>
      <trkpt lat="46.54168" lon="0.33756">
        <ele>95.2</ele>
        <time>2021-01-24T08:11:19.000Z</time>
      </trkpt>
      <trkpt lat="46.54168" lon="0.33759">
        <ele>95.4</ele>
        <time>2021-01-24T08:11:20.000Z</time>
      </trkpt>
      <trkpt lat="46.54169" lon="0.33763">
        <ele>95.6</ele>
        <time>2021-01-24T08:11:21.000Z</time>
      </trkpt>
      <trkpt lat="46.5417" lon="0.33767">
        <ele>95.8</ele>
        <time>2021-01-24T08:11:22.000Z</time>
      </trkpt>
      <trkpt lat="46.5417" lon="0.3377">
        <ele>96.2</ele>
        <time>2021-01-24T08:11:23.000Z</time>
      </trkpt>
      <trkpt lat="46.54171" lon="0.33774">
        <ele>96.4</ele>
        <time>2021-01-24T08:11:24.000Z</time>
      </trkpt>
      <trkpt lat="46.54171" lon="0.33778">
        <ele>96.6</ele>
        <time>2021-01-24T08:11:25.000Z</time>
      </trkpt>
      <trkpt lat="46.54172" lon="0.33782">
        <ele>96.8</ele>
        <time>2021-01-24T08:11:26.000Z</time>
      </trkpt>
      <trkpt lat="46.54172" lon="0.33786">
        <ele>97</ele>
        <time>2021-01-24T08:11:27.000Z</time>
      </trkpt>
      <trkpt lat="46.54173" lon="0.33789">
        <ele>97.2</ele>
        <time>2021-01-24T08:11:28.000Z</time>
      </trkpt>
      <trkpt lat="46.54173" lon="0.33793">
        <ele>97.4</ele>
        <time>2021-01-24T08:11:29.000Z</time>
      </trkpt>
      <trkpt lat="46.54173" lon="0.33797">
        <ele>97.6</ele>
        <time>2021-01-24T08:11:30.000Z</time>
      </trkpt>
      <trkpt lat="46.54174" lon="0.338">
        <ele>97.8</ele>
        <time>2021-01-24T08:11:31.000Z</time>
      </trkpt>
      <trkpt lat="46.54174" lon="0.33803">
        <ele>98</ele>
        <time>2021-01-24T08:11:32.000Z</time>
      </trkpt>
      <trkpt lat="46.54175" lon="0.33808">
        <ele>98.2</ele>
        <time>2021-01-24T08:11:33.000Z</time>
      </trkpt>
      <trkpt lat="46.54176" lon="0.33811">
        <ele>98.4</ele>
        <time>2021-01-24T08:11:34.000Z</time>
      </trkpt>
      <trkpt lat="46.54176" lon="0.33815">
        <ele>98.6</ele>
        <time>2021-01-24T08:11:35.000Z</time>
      </trkpt>
      <trkpt lat="46.54177" lon="0.33819">
        <ele>98.6</ele>
        <time>2021-01-24T08:11:36.000Z</time>
      </trkpt>
      <trkpt lat="46.54178" lon="0.33822">
        <ele>98.8</ele>
        <time>2021-01-24T08:11:37.000Z</time>
      </trkpt>
      <trkpt lat="46.54179" lon="0.33826">
        <ele>99</ele>
        <time>2021-01-24T08:11:38.000Z</time>
      </trkpt>
      <trkpt lat="46.54179" lon="0.3383">
        <ele>99.2</ele>
        <time>2021-01-24T08:11:39.000Z</time>
      </trkpt>
      <trkpt lat="46.5418" lon="0.33834">
        <ele>99.4</ele>
        <time>2021-01-24T08:11:40.000Z</time>
      </trkpt>
      <trkpt lat="46.5418" lon="0.33838">
        <ele>99.6</ele>
        <time>2021-01-24T08:11:41.000Z</time>
      </trkpt>
      <trkpt lat="46.54181" lon="0.33841">
        <ele>99.8</ele>
        <time>2021-01-24T08:11:42.000Z</time>
      </trkpt>
      <trkpt lat="46.54182" lon="0.33845">
        <ele>100</ele>
        <time>2021-01-24T08:11:43.000Z</time>
      </trkpt>
      <trkpt lat="46.54182" lon="0.33849">
        <ele>100.2</ele>
        <time>2021-01-24T08:11:44.000Z</time>
      </trkpt>
      <trkpt lat="46.54183" lon="0.33852">
        <ele>100.4</ele>
        <time>2021-01-24T08:11:45.000Z</time>
      </trkpt>
      <trkpt lat="46.54184" lon="0.33856">
        <ele>100.6</ele>
        <time>2021-01-24T08:11:46.000Z</time>
      </trkpt>
      <trkpt lat="46.54185" lon="0.33859">
        <ele>100.8</ele>
        <time>2021-01-24T08:11:47.000Z</time>
      </trkpt>
      <trkpt lat="46.54186" lon="0.33863">
        <ele>101</ele>
        <time>2021-01-24T08:11:48.000Z</time>
      </trkpt>
      <trkpt lat="46.54186" lon="0.33866">
        <ele>101.2</ele>
        <time>2021-01-24T08:11:49.000Z</time>
      </trkpt>
      <trkpt lat="46.54186" lon="0.3387">
        <ele>101.4</ele>
        <time>2021-01-24T08:11:50.000Z</time>
      </trkpt>
      <trkpt lat="46.54187" lon="0.33874">
        <ele>101.6</ele>
        <time>2021-01-24T08:11:51.000Z</time>
      </trkpt>
      <trkpt lat="46.54187" lon="0.33878">
        <ele>101.8</ele>
        <time>2021-01-24T08:11:52.000Z</time>
      </trkpt>
      <trkpt lat="46.54187" lon="0.33881">
        <ele>102</ele>
        <time>2021-01-24T08:11:53.000Z</time>
      </trkpt>
      <trkpt lat="46.54187" lon="0.33885">
        <ele>102.2</ele>
        <time>2021-01-24T08:11:54.000Z</time>
      </trkpt>
      <trkpt lat="46.54188" lon="0.33889">
        <ele>102.4</ele>
        <time>2021-01-24T08:11:55.000Z</time>
      </trkpt>
      <trkpt lat="46.54188" lon="0.33893">
        <ele>102.6</ele>
        <time>2021-01-24T08:11:56.000Z</time>
      </trkpt>
      <trkpt lat="46.54189" lon="0.33896">
        <ele>102.8</ele>
        <time>2021-01-24T08:11:57.000Z</time>
      </trkpt>
      <trkpt lat="46.54189" lon="0.339">
        <ele>103</ele>
        <time>2021-01-24T08:11:58.000Z</time>
      </trkpt>
      <trkpt lat="46.5419" lon="0.33904">
        <ele>103</ele>
        <time>2021-01-24T08:11:59.000Z</time>
      </trkpt>
      <trkpt lat="46.5419" lon="0.33908">
        <ele>103.2</ele>
        <time>2021-01-24T08:12:00.000Z</time>
      </trkpt>
      <trkpt lat="46.54191" lon="0.33912">
        <ele>103.4</ele>
        <time>2021-01-24T08:12:01.000Z</time>
      </trkpt>
      <trkpt lat="46.54192" lon="0.33916">
        <ele>103.6</ele>
        <time>2021-01-24T08:12:02.000Z</time>
      </trkpt>
      <trkpt lat="46.54192" lon="0.3392">
        <ele>103.8</ele>
        <time>2021-01-24T08:12:03.000Z</time>
      </trkpt>
      <trkpt lat="46.54193" lon="0.33924">
        <ele>104.2</ele>
        <time>2021-01-24T08:12:04.000Z</time>
      </trkpt>
      <trkpt lat="46.54194" lon="0.33928">
        <ele>104.4</ele>
        <time>2021-01-24T08:12:05.000Z</time>
      </trkpt>
      <trkpt lat="46.54194" lon="0.33932">
        <ele>104.6</ele>
        <time>2021-01-24T08:12:06.000Z</time>
      </trkpt>
      <trkpt lat="46.54195" lon="0.33936">
        <ele>104.8</ele>
        <time>2021-01-24T08:12:07.000Z</time>
      </trkpt>
      <trkpt lat="46.54196" lon="0.3394">
        <ele>104.8</ele>
        <time>2021-01-24T08:12:08.000Z</time>
      </trkpt>
      <trkpt lat="46.54197" lon="0.33944">
        <ele>105</ele>
        <time>2021-01-24T08:12:09.000Z</time>
      </trkpt>
      <trkpt lat="46.54198" lon="0.33948">
        <ele>105.2</ele>
        <time>2021-01-24T08:12:10.000Z</time>
      </trkpt>
      <trkpt lat="46.54198" lon="0.33953">
        <ele>105.2</ele>
        <time>2021-01-24T08:12:11.000Z</time>
      </trkpt>
      <trkpt lat="46.54198" lon="0.33957">
        <ele>105.4</ele>
        <time>2021-01-24T08:12:12.000Z</time>
      </trkpt>
      <trkpt lat="46.54197" lon="0.33961">
        <ele>105.4</ele>
        <time>2021-01-24T08:12:13.000Z</time>
      </trkpt>
      <trkpt lat="46.54195" lon="0.33965">
        <ele>105.6</ele>
        <time>2021-01-24T08:12:14.000Z</time>
      </trkpt>
      <trkpt lat="46.54194" lon="0.33968">
        <ele>105.8</ele>
        <time>2021-01-24T08:12:15.000Z</time>
      </trkpt>
      <trkpt lat="46.54192" lon="0.33972">
        <ele>106</ele>
        <time>2021-01-24T08:12:16.000Z</time>
      </trkpt>
      <trkpt lat="46.5419" lon="0.33978">
        <ele>106.2</ele>
        <time>2021-01-24T08:12:17.000Z</time>
      </trkpt>
      <trkpt lat="46.54188" lon="0.33983">
        <ele>106.4</ele>
        <time>2021-01-24T08:12:18.000Z</time>
      </trkpt>
      <trkpt lat="46.54186" lon="0.33988">
        <ele>106.6</ele>
        <time>2021-01-24T08:12:19.000Z</time>
      </trkpt>
      <trkpt lat="46.54186" lon="0.33993">
        <ele>106.8</ele>
        <time>2021-01-24T08:12:20.000Z</time>
      </trkpt>
      <trkpt lat="46.54186" lon="0.33999">
        <ele>107</ele>
        <time>2021-01-24T08:12:21.000Z</time>
      </trkpt>
      <trkpt lat="46.54187" lon="0.34003">
        <ele>107</ele>
        <time>2021-01-24T08:12:22.000Z</time>
      </trkpt>
      <trkpt lat="46.54189" lon="0.34007">
        <ele>107.2</ele>
        <time>2021-01-24T08:12:23.000Z</time>
      </trkpt>
      <trkpt lat="46.5419" lon="0.34011">
        <ele>107.4</ele>
        <time>2021-01-24T08:12:24.000Z</time>
      </trkpt>
      <trkpt lat="46.54192" lon="0.34015">
        <ele>107.6</ele>
        <time>2021-01-24T08:12:25.000Z</time>
      </trkpt>
      <trkpt lat="46.54193" lon="0.3402">
        <ele>107.8</ele>
        <time>2021-01-24T08:12:26.000Z</time>
      </trkpt>
      <trkpt lat="46.54195" lon="0.34024">
        <ele>107.8</ele>
        <time>2021-01-24T08:12:27.000Z</time>
      </trkpt>
      <trkpt lat="46.54196" lon="0.34028">
        <ele>108</ele>
        <time>2021-01-24T08:12:28.000Z</time>
      </trkpt>
      <trkpt lat="46.54196" lon="0.34031">
        <ele>108.2</ele>
        <time>2021-01-24T08:12:29.000Z</time>
      </trkpt>
      <trkpt lat="46.54195" lon="0.34033">
        <ele>108.4</ele>
        <time>2021-01-24T08:12:30.000Z</time>
      </trkpt>
      <trkpt lat="46.54193" lon="0.34035">
        <ele>108.6</ele>
        <time>2021-01-24T08:12:31.000Z</time>
      </trkpt>
      <trkpt lat="46.54192" lon="0.34038">
        <ele>108.6</ele>
        <time>2021-01-24T08:12:32.000Z</time>
      </trkpt>
      <trkpt lat="46.54192" lon="0.34041">
        <ele>108.8</ele>
        <time>2021-01-24T08:12:33.000Z</time>
      </trkpt>
      <trkpt lat="46.54192" lon="0.34044">
        <ele>109</ele>
        <time>2021-01-24T08:12:34.000Z</time>
      </trkpt>
      <trkpt lat="46.54191" lon="0.34049">
        <ele>109</ele>
        <time>2021-01-24T08:12:35.000Z</time>
      </trkpt>
      <trkpt lat="46.5419" lon="0.34053">
        <ele>109.2</ele>
        <time>2021-01-24T08:12:36.000Z</time>
      </trkpt>
      <trkpt lat="46.54188" lon="0.34057">
        <ele>109.4</ele>
        <time>2021-01-24T08:12:37.000Z</time>
      </trkpt>
      <trkpt lat="46.54187" lon="0.34062">
        <ele>109.4</ele>
        <time>2021-01-24T08:12:38.000Z</time>
      </trkpt>
      <trkpt lat="46.54186" lon="0.34066">
        <ele>109.6</ele>
        <time>2021-01-24T08:12:39.000Z</time>
      </trkpt>
      <trkpt lat="46.54186" lon="0.3407">
        <ele>109.8</ele>
        <time>2021-01-24T08:12:40.000Z</time>
      </trkpt>
      <trkpt lat="46.54185" lon="0.34073">
        <ele>109.8</ele>
        <time>2021-01-24T08:12:41.000Z</time>
      </trkpt>
      <trkpt lat="46.54184" lon="0.34077">
        <ele>110</ele>
        <time>2021-01-24T08:12:42.000Z</time>
      </trkpt>
      <trkpt lat="46.54183" lon="0.3408">
        <ele>110</ele>
        <time>2021-01-24T08:12:43.000Z</time>
      </trkpt>
      <trkpt lat="46.54182" lon="0.34083">
        <ele>110</ele>
        <time>2021-01-24T08:12:44.000Z</time>
      </trkpt>
      <trkpt lat="46.5418" lon="0.34085">
        <ele>110.2</ele>
        <time>2021-01-24T08:12:45.000Z</time>
      </trkpt>
      <trkpt lat="46.54179" lon="0.34088">
        <ele>110.2</ele>
        <time>2021-01-24T08:12:46.000Z</time>
      </trkpt>
      <trkpt lat="46.54179" lon="0.34092">
        <ele>110.2</ele>
        <time>2021-01-24T08:12:47.000Z</time>
      </trkpt>
      <trkpt lat="46.54178" lon="0.34095">
        <ele>110.2</ele>
        <time>2021-01-24T08:12:48.000Z</time>
      </trkpt>
      <trkpt lat="46.54176" lon="0.34098">
        <ele>110.4</ele>
        <time>2021-01-24T08:12:49.000Z</time>
      </trkpt>
      <trkpt lat="46.54176" lon="0.34101">
        <ele>110.4</ele>
        <time>2021-01-24T08:12:50.000Z</time>
      </trkpt>
      <trkpt lat="46.54174" lon="0.34104">
        <ele>110.4</ele>
        <time>2021-01-24T08:12:51.000Z</time>
      </trkpt>
      <trkpt lat="46.54173" lon="0.34106">
        <ele>110.6</ele>
        <time>2021-01-24T08:12:52.000Z</time>
      </trkpt>
      <trkpt lat="46.54171" lon="0.3411">
        <ele>110.6</ele>
        <time>2021-01-24T08:12:53.000Z</time>
      </trkpt>
      <trkpt lat="46.5417" lon="0.34113">
        <ele>110.8</ele>
        <time>2021-01-24T08:12:54.000Z</time>
      </trkpt>
      <trkpt lat="46.54168" lon="0.34116">
        <ele>110.8</ele>
        <time>2021-01-24T08:12:55.000Z</time>
      </trkpt>
      <trkpt lat="46.54165" lon="0.3412">
        <ele>110.8</ele>
        <time>2021-01-24T08:12:56.000Z</time>
      </trkpt>
      <trkpt lat="46.54163" lon="0.34123">
        <ele>111</ele>
        <time>2021-01-24T08:12:57.000Z</time>
      </trkpt>
      <trkpt lat="46.54161" lon="0.34126">
        <ele>111</ele>
        <time>2021-01-24T08:12:58.000Z</time>
      </trkpt>
      <trkpt lat="46.54159" lon="0.34128">
        <ele>111</ele>
        <time>2021-01-24T08:12:59.000Z</time>
      </trkpt>
      <trkpt lat="46.54157" lon="0.34131">
        <ele>111.2</ele>
        <time>2021-01-24T08:13:00.000Z</time>
      </trkpt>
      <trkpt lat="46.54155" lon="0.34135">
        <ele>111.2</ele>
        <time>2021-01-24T08:13:01.000Z</time>
      </trkpt>
      <trkpt lat="46.54154" lon="0.34138">
        <ele>111.4</ele>
        <time>2021-01-24T08:13:02.000Z</time>
      </trkpt>
      <trkpt lat="46.54152" lon="0.34141">
        <ele>111.4</ele>
        <time>2021-01-24T08:13:03.000Z</time>
      </trkpt>
      <trkpt lat="46.54151" lon="0.34147">
        <ele>111.6</ele>
        <time>2021-01-24T08:13:04.000Z</time>
      </trkpt>
      <trkpt lat="46.54149" lon="0.34151">
        <ele>111.6</ele>
        <time>2021-01-24T08:13:05.000Z</time>
      </trkpt>
      <trkpt lat="46.54147" lon="0.34156">
        <ele>111.6</ele>
        <time>2021-01-24T08:13:06.000Z</time>
      </trkpt>
      <trkpt lat="46.54145" lon="0.3416">
        <ele>111.8</ele>
        <time>2021-01-24T08:13:07.000Z</time>
      </trkpt>
      <trkpt lat="46.54145" lon="0.34164">
        <ele>111.8</ele>
        <time>2021-01-24T08:13:08.000Z</time>
      </trkpt>
      <trkpt lat="46.54145" lon="0.34168">
        <ele>111.8</ele>
        <time>2021-01-24T08:13:09.000Z</time>
      </trkpt>
      <trkpt lat="46.54144" lon="0.34173">
        <ele>111.8</ele>
        <time>2021-01-24T08:13:10.000Z</time>
      </trkpt>
      <trkpt lat="46.54144" lon="0.34178">
        <ele>112</ele>
        <time>2021-01-24T08:13:11.000Z</time>
      </trkpt>
      <trkpt lat="46.54143" lon="0.34183">
        <ele>112</ele>
        <time>2021-01-24T08:13:12.000Z</time>
      </trkpt>
      <trkpt lat="46.54142" lon="0.34189">
        <ele>112</ele>
        <time>2021-01-24T08:13:13.000Z</time>
      </trkpt>
      <trkpt lat="46.54141" lon="0.34194">
        <ele>112</ele>
        <time>2021-01-24T08:13:14.000Z</time>
      </trkpt>
      <trkpt lat="46.54139" lon="0.34198">
        <ele>112</ele>
        <time>2021-01-24T08:13:15.000Z</time>
      </trkpt>
      <trkpt lat="46.54138" lon="0.34202">
        <ele>112.2</ele>
        <time>2021-01-24T08:13:16.000Z</time>
      </trkpt>
      <trkpt lat="46.54136" lon="0.34206">
        <ele>112.2</ele>
        <time>2021-01-24T08:13:17.000Z</time>
      </trkpt>
      <trkpt lat="46.54135" lon="0.3421">
        <ele>112.2</ele>
        <time>2021-01-24T08:13:18.000Z</time>
      </trkpt>
      <trkpt lat="46.54133" lon="0.34214">
        <ele>112.2</ele>
        <time>2021-01-24T08:13:19.000Z</time>
      </trkpt>
      <trkpt lat="46.54132" lon="0.34217">
        <ele>112.2</ele>
        <time>2021-01-24T08:13:20.000Z</time>
      </trkpt>
      <trkpt lat="46.5413" lon="0.34221">
        <ele>112.2</ele>
        <time>2021-01-24T08:13:21.000Z</time>
      </trkpt>
      <trkpt lat="46.54128" lon="0.34224">
        <ele>112.2</ele>
        <time>2021-01-24T08:13:22.000Z</time>
      </trkpt>
      <trkpt lat="46.54126" lon="0.34227">
        <ele>112.2</ele>
        <time>2021-01-24T08:13:23.000Z</time>
      </trkpt>
      <trkpt lat="46.54125" lon="0.3423">
        <ele>112.4</ele>
        <time>2021-01-24T08:13:24.000Z</time>
      </trkpt>
      <trkpt lat="46.54124" lon="0.34233">
        <ele>112.4</ele>
        <time>2021-01-24T08:13:25.000Z</time>
      </trkpt>
      <trkpt lat="46.54122" lon="0.34236">
        <ele>112.4</ele>
        <time>2021-01-24T08:13:26.000Z</time>
      </trkpt>
      <trkpt lat="46.5412" lon="0.3424">
        <ele>112.4</ele>
        <time>2021-01-24T08:13:27.000Z</time>
      </trkpt>
      <trkpt lat="46.54118" lon="0.34244">
        <ele>112.6</ele>
        <time>2021-01-24T08:13:28.000Z</time>
      </trkpt>
      <trkpt lat="46.54117" lon="0.34248">
        <ele>112.6</ele>
        <time>2021-01-24T08:13:29.000Z</time>
      </trkpt>
      <trkpt lat="46.54114" lon="0.34253">
        <ele>112.6</ele>
        <time>2021-01-24T08:13:30.000Z</time>
      </trkpt>
      <trkpt lat="46.54111" lon="0.34257">
        <ele>112.6</ele>
        <time>2021-01-24T08:13:31.000Z</time>
      </trkpt>
      <trkpt lat="46.54109" lon="0.3426">
        <ele>112.6</ele>
        <time>2021-01-24T08:13:32.000Z</time>
      </trkpt>
      <trkpt lat="46.54106" lon="0.34263">
        <ele>112.6</ele>
        <time>2021-01-24T08:13:33.000Z</time>
      </trkpt>
      <trkpt lat="46.54101" lon="0.34266">
        <ele>112.6</ele>
        <time>2021-01-24T08:13:34.000Z</time>
      </trkpt>
      <trkpt lat="46.541" lon="0.34271">
        <ele>112.6</ele>
        <time>2021-01-24T08:13:35.000Z</time>
      </trkpt>
      <trkpt lat="46.54099" lon="0.34275">
        <ele>112.6</ele>
        <time>2021-01-24T08:13:36.000Z</time>
      </trkpt>
      <trkpt lat="46.54099" lon="0.34279">
        <ele>112.6</ele>
        <time>2021-01-24T08:13:37.000Z</time>
      </trkpt>
      <trkpt lat="46.54098" lon="0.34283">
        <ele>112.8</ele>
        <time>2021-01-24T08:13:38.000Z</time>
      </trkpt>
      <trkpt lat="46.54097" lon="0.34287">
        <ele>112.8</ele>
        <time>2021-01-24T08:13:39.000Z</time>
      </trkpt>
      <trkpt lat="46.54095" lon="0.3429">
        <ele>112.8</ele>
        <time>2021-01-24T08:13:40.000Z</time>
      </trkpt>
      <trkpt lat="46.54093" lon="0.34293">
        <ele>112.8</ele>
        <time>2021-01-24T08:13:41.000Z</time>
      </trkpt>
      <trkpt lat="46.54092" lon="0.34296">
        <ele>112.8</ele>
        <time>2021-01-24T08:13:42.000Z</time>
      </trkpt>
      <trkpt lat="46.5409" lon="0.34299">
        <ele>112.6</ele>
        <time>2021-01-24T08:13:43.000Z</time>
      </trkpt>
      <trkpt lat="46.5409" lon="0.34299">
        <ele>112.6</ele>
        <time>2021-01-24T08:13:44.000Z</time>
      </trkpt>
      <trkpt lat="46.54088" lon="0.34303">
        <ele>112.6</ele>
        <time>2021-01-24T08:13:45.000Z</time>
      </trkpt>
      <trkpt lat="46.54088" lon="0.34303">
        <ele>112.6</ele>
        <time>2021-01-24T08:13:46.000Z</time>
      </trkpt>
      <trkpt lat="46.54089" lon="0.34308">
        <ele>112.6</ele>
        <time>2021-01-24T08:13:47.000Z</time>
      </trkpt>
      <trkpt lat="46.54091" lon="0.3431">
        <ele>112.6</ele>
        <time>2021-01-24T08:13:48.000Z</time>
      </trkpt>
      <trkpt lat="46.54091" lon="0.3431">
        <ele>112.6</ele>
        <time>2021-01-24T08:13:49.000Z</time>
      </trkpt>
      <trkpt lat="46.54091" lon="0.34314">
        <ele>112.6</ele>
        <time>2021-01-24T08:13:50.000Z</time>
      </trkpt>
      <trkpt lat="46.54092" lon="0.34316">
        <ele>112.6</ele>
        <time>2021-01-24T08:13:51.000Z</time>
      </trkpt>
      <trkpt lat="46.54092" lon="0.34316">
        <ele>112.6</ele>
        <time>2021-01-24T08:13:52.000Z</time>
      </trkpt>
      <trkpt lat="46.54093" lon="0.3432">
        <ele>112.6</ele>
        <time>2021-01-24T08:13:53.000Z</time>
      </trkpt>
      <trkpt lat="46.54093" lon="0.34323">
        <ele>112.6</ele>
        <time>2021-01-24T08:13:54.000Z</time>
      </trkpt>
      <trkpt lat="46.54093" lon="0.34327">
        <ele>112.8</ele>
        <time>2021-01-24T08:13:55.000Z</time>
      </trkpt>
      <trkpt lat="46.54093" lon="0.34331">
        <ele>112.8</ele>
        <time>2021-01-24T08:13:56.000Z</time>
      </trkpt>
      <trkpt lat="46.54093" lon="0.34335">
        <ele>112.8</ele>
        <time>2021-01-24T08:13:57.000Z</time>
      </trkpt>
      <trkpt lat="46.54093" lon="0.34339">
        <ele>112.8</ele>
        <time>2021-01-24T08:13:58.000Z</time>
      </trkpt>
      <trkpt lat="46.54091" lon="0.34342">
        <ele>112.6</ele>
        <time>2021-01-24T08:13:59.000Z</time>
      </trkpt>
      <trkpt lat="46.54088" lon="0.34343">
        <ele>112.6</ele>
        <time>2021-01-24T08:14:00.000Z</time>
      </trkpt>
      <trkpt lat="46.54088" lon="0.34343">
        <ele>112.6</ele>
        <time>2021-01-24T08:14:01.000Z</time>
      </trkpt>
      <trkpt lat="46.54086" lon="0.34345">
        <ele>112.6</ele>
        <time>2021-01-24T08:14:02.000Z</time>
      </trkpt>
      <trkpt lat="46.54086" lon="0.34345">
        <ele>112.6</ele>
        <time>2021-01-24T08:14:03.000Z</time>
      </trkpt>
      <trkpt lat="46.54082" lon="0.34346">
        <ele>112.6</ele>
        <time>2021-01-24T08:14:04.000Z</time>
      </trkpt>
      <trkpt lat="46.54082" lon="0.34346">
        <ele>112.6</ele>
        <time>2021-01-24T08:14:05.000Z</time>
      </trkpt>
      <trkpt lat="46.5408" lon="0.34347">
        <ele>112.4</ele>
        <time>2021-01-24T08:14:06.000Z</time>
      </trkpt>
      <trkpt lat="46.5408" lon="0.34347">
        <ele>112.4</ele>
        <time>2021-01-24T08:14:07.000Z</time>
      </trkpt>
      <trkpt lat="46.5408" lon="0.34347">
        <ele>112.4</ele>
        <time>2021-01-24T08:14:08.000Z</time>
      </trkpt>
      <trkpt lat="46.5408" lon="0.34347">
        <ele>112.2</ele>
        <time>2021-01-24T08:14:09.000Z</time>
      </trkpt>
      <trkpt lat="46.5408" lon="0.34347">
        <ele>112.2</ele>
        <time>2021-01-24T08:14:10.000Z</time>
      </trkpt>
      <trkpt lat="46.5408" lon="0.34347">
        <ele>112</ele>
        <time>2021-01-24T08:14:11.000Z</time>
      </trkpt>
      <trkpt lat="46.5408" lon="0.34347">
        <ele>112</ele>
        <time>2021-01-24T08:14:12.000Z</time>
      </trkpt>
      <trkpt lat="46.54078" lon="0.34349">
        <ele>111.8</ele>
        <time>2021-01-24T08:14:13.000Z</time>
      </trkpt>
      <trkpt lat="46.54078" lon="0.34349">
        <ele>111.8</ele>
        <time>2021-01-24T08:14:14.000Z</time>
      </trkpt>
      <trkpt lat="46.54078" lon="0.34349">
        <ele>111.6</ele>
        <time>2021-01-24T08:14:15.000Z</time>
      </trkpt>
      <trkpt lat="46.54078" lon="0.34349">
        <ele>111.6</ele>
        <time>2021-01-24T08:14:16.000Z</time>
      </trkpt>
      <trkpt lat="46.54078" lon="0.34349">
        <ele>111.6</ele>
        <time>2021-01-24T08:14:17.000Z</time>
      </trkpt>
      <trkpt lat="46.54078" lon="0.34349">
        <ele>111.6</ele>
        <time>2021-01-24T08:14:18.000Z</time>
      </trkpt>
      <trkpt lat="46.54078" lon="0.34349">
        <ele>111.6</ele>
        <time>2021-01-24T08:14:19.000Z</time>
      </trkpt>
      <trkpt lat="46.54078" lon="0.34349">
        <ele>111.4</ele>
        <time>2021-01-24T08:14:20.000Z</time>
      </trkpt>
      <trkpt lat="46.54078" lon="0.34349">
        <ele>111.4</ele>
        <time>2021-01-24T08:14:21.000Z</time>
      </trkpt>
      <trkpt lat="46.54078" lon="0.34349">
        <ele>111.4</ele>
        <time>2021-01-24T08:14:22.000Z</time>
      </trkpt>
      <trkpt lat="46.54078" lon="0.34349">
        <ele>111.4</ele>
        <time>2021-01-24T08:14:23.000Z</time>
      </trkpt>
      <trkpt lat="46.54078" lon="0.34349">
        <ele>111.4</ele>
        <time>2021-01-24T08:14:24.000Z</time>
      </trkpt>
      <trkpt lat="46.54078" lon="0.34349">
        <ele>111.4</ele>
        <time>2021-01-24T08:14:25.000Z</time>
      </trkpt>
      <trkpt lat="46.54078" lon="0.34349">
        <ele>111.4</ele>
        <time>2021-01-24T08:14:26.000Z</time>
      </trkpt>
      <trkpt lat="46.54078" lon="0.34349">
        <ele>111.4</ele>
        <time>2021-01-24T08:14:27.000Z</time>
      </trkpt>
      <trkpt lat="46.54078" lon="0.34349">
        <ele>111.2</ele>
        <time>2021-01-24T08:14:28.000Z</time>
      </trkpt>
      <trkpt lat="46.54078" lon="0.34349">
        <ele>111.2</ele>
        <time>2021-01-24T08:14:29.000Z</time>
      </trkpt>
      <trkpt lat="46.54078" lon="0.34349">
        <ele>111.2</ele>
        <time>2021-01-24T08:14:30.000Z</time>
      </trkpt>
      <trkpt lat="46.54078" lon="0.34349">
        <ele>111</ele>
        <time>2021-01-24T08:14:31.000Z</time>
      </trkpt>
      <trkpt lat="46.54078" lon="0.34349">
        <ele>111</ele>
        <time>2021-01-24T08:14:32.000Z</time>
      </trkpt>
      <trkpt lat="46.54078" lon="0.34349">
        <ele>111</ele>
        <time>2021-01-24T08:14:33.000Z</time>
      </trkpt>
      <trkpt lat="46.54078" lon="0.34349">
        <ele>110.8</ele>
        <time>2021-01-24T08:14:34.000Z</time>
      </trkpt>
      <trkpt lat="46.54078" lon="0.34349">
        <ele>110.8</ele>
        <time>2021-01-24T08:14:35.000Z</time>
      </trkpt>
      <trkpt lat="46.54078" lon="0.34349">
        <ele>110.8</ele>
        <time>2021-01-24T08:14:36.000Z</time>
      </trkpt>
      <trkpt lat="46.54078" lon="0.34349">
        <ele>110.8</ele>
        <time>2021-01-24T08:14:37.000Z</time>
      </trkpt>
      <trkpt lat="46.54078" lon="0.34349">
        <ele>110.6</ele>
        <time>2021-01-24T08:14:38.000Z</time>
      </trkpt>
      <trkpt lat="46.54078" lon="0.34349">
        <ele>110.6</ele>
        <time>2021-01-24T08:14:39.000Z</time>
      </trkpt>
      <trkpt lat="46.54078" lon="0.34349">
        <ele>110.6</ele>
        <time>2021-01-24T08:14:40.000Z</time>
      </trkpt>
      <trkpt lat="46.54078" lon="0.34349">
        <ele>110.4</ele>
        <time>2021-01-24T08:14:41.000Z</time>
      </trkpt>
      <trkpt lat="46.54078" lon="0.34349">
        <ele>110.4</ele>
        <time>2021-01-24T08:14:42.000Z</time>
      </trkpt>
      <trkpt lat="46.54078" lon="0.34349">
        <ele>110.4</ele>
        <time>2021-01-24T08:14:43.000Z</time>
      </trkpt>
      <trkpt lat="46.54078" lon="0.34349">
        <ele>110.4</ele>
        <time>2021-01-24T08:14:44.000Z</time>
      </trkpt>
      <trkpt lat="46.54078" lon="0.34349">
        <ele>110.2</ele>
        <time>2021-01-24T08:14:45.000Z</time>
      </trkpt>
      <trkpt lat="46.54078" lon="0.34349">
        <ele>110.2</ele>
        <time>2021-01-24T08:14:46.000Z</time>
      </trkpt>
      <trkpt lat="46.54078" lon="0.34349">
        <ele>110.2</ele>
        <time>2021-01-24T08:14:47.000Z</time>
      </trkpt>
      <trkpt lat="46.54078" lon="0.34349">
        <ele>110.2</ele>
        <time>2021-01-24T08:14:48.000Z</time>
      </trkpt>
      <trkpt lat="46.54078" lon="0.34349">
        <ele>110</ele>
        <time>2021-01-24T08:14:49.000Z</time>
      </trkpt>
      <trkpt lat="46.54078" lon="0.34349">
        <ele>110</ele>
        <time>2021-01-24T08:14:50.000Z</time>
      </trkpt>
      <trkpt lat="46.54078" lon="0.34349">
        <ele>110</ele>
        <time>2021-01-24T08:14:51.000Z</time>
      </trkpt>
      <trkpt lat="46.54078" lon="0.34349">
        <ele>109.8</ele>
        <time>2021-01-24T08:14:52.000Z</time>
      </trkpt>
      <trkpt lat="46.54078" lon="0.34349">
        <ele>109.8</ele>
        <time>2021-01-24T08:14:53.000Z</time>
      </trkpt>
      <trkpt lat="46.54078" lon="0.34349">
        <ele>109.8</ele>
        <time>2021-01-24T08:14:54.000Z</time>
      </trkpt>
      <trkpt lat="46.54078" lon="0.34349">
        <ele>109.6</ele>
        <time>2021-01-24T08:14:55.000Z</time>
      </trkpt>
      <trkpt lat="46.54078" lon="0.34349">
        <ele>109.6</ele>
        <time>2021-01-24T08:14:56.000Z</time>
      </trkpt>
      <trkpt lat="46.54078" lon="0.34349">
        <ele>109.6</ele>
        <time>2021-01-24T08:14:57.000Z</time>
      </trkpt>
      <trkpt lat="46.54078" lon="0.34349">
        <ele>109.6</ele>
        <time>2021-01-24T08:14:58.000Z</time>
      </trkpt>
      <trkpt lat="46.54078" lon="0.34349">
        <ele>109.4</ele>
        <time>2021-01-24T08:14:59.000Z</time>
      </trkpt>
      <trkpt lat="46.54078" lon="0.34349">
        <ele>109.4</ele>
        <time>2021-01-24T08:15:00.000Z</time>
      </trkpt>
      <trkpt lat="46.54078" lon="0.34349">
        <ele>109.4</ele>
        <time>2021-01-24T08:15:01.000Z</time>
      </trkpt>
      <trkpt lat="46.54078" lon="0.34349">
        <ele>109.4</ele>
        <time>2021-01-24T08:15:02.000Z</time>
      </trkpt>
      <trkpt lat="46.54078" lon="0.34349">
        <ele>109.2</ele>
        <time>2021-01-24T08:15:03.000Z</time>
      </trkpt>
      <trkpt lat="46.54078" lon="0.34349">
        <ele>109.2</ele>
        <time>2021-01-24T08:15:04.000Z</time>
      </trkpt>
      <trkpt lat="46.54078" lon="0.34349">
        <ele>109.2</ele>
        <time>2021-01-24T08:15:05.000Z</time>
      </trkpt>
      <trkpt lat="46.54075" lon="0.34348">
        <ele>109.2</ele>
        <time>2021-01-24T08:15:06.000Z</time>
      </trkpt>
      <trkpt lat="46.54072" lon="0.34346">
        <ele>109</ele>
        <time>2021-01-24T08:15:07.000Z</time>
      </trkpt>
      <trkpt lat="46.54069" lon="0.34347">
        <ele>109</ele>
        <time>2021-01-24T08:15:08.000Z</time>
      </trkpt>
      <trkpt lat="46.54068" lon="0.34347">
        <ele>109</ele>
        <time>2021-01-24T08:15:09.000Z</time>
      </trkpt>
      <trkpt lat="46.54065" lon="0.34349">
        <ele>108.8</ele>
        <time>2021-01-24T08:15:10.000Z</time>
      </trkpt>
      <trkpt lat="46.54062" lon="0.34354">
        <ele>108.8</ele>
        <time>2021-01-24T08:15:11.000Z</time>
      </trkpt>
      <trkpt lat="46.5406" lon="0.34357">
        <ele>108.8</ele>
        <time>2021-01-24T08:15:12.000Z</time>
      </trkpt>
      <trkpt lat="46.54057" lon="0.34361">
        <ele>108.8</ele>
        <time>2021-01-24T08:15:13.000Z</time>
      </trkpt>
      <trkpt lat="46.54056" lon="0.34364">
        <ele>108.6</ele>
        <time>2021-01-24T08:15:14.000Z</time>
      </trkpt>
      <trkpt lat="46.54055" lon="0.34367">
        <ele>108.6</ele>
        <time>2021-01-24T08:15:15.000Z</time>
      </trkpt>
      <trkpt lat="46.54055" lon="0.34367">
        <ele>108.6</ele>
        <time>2021-01-24T08:15:16.000Z</time>
      </trkpt>
      <trkpt lat="46.54054" lon="0.34371">
        <ele>108.4</ele>
        <time>2021-01-24T08:15:17.000Z</time>
      </trkpt>
      <trkpt lat="46.54053" lon="0.34373">
        <ele>108.4</ele>
        <time>2021-01-24T08:15:18.000Z</time>
      </trkpt>
      <trkpt lat="46.54053" lon="0.34373">
        <ele>108.4</ele>
        <time>2021-01-24T08:15:19.000Z</time>
      </trkpt>
      <trkpt lat="46.54052" lon="0.34375">
        <ele>108.4</ele>
        <time>2021-01-24T08:15:20.000Z</time>
      </trkpt>
      <trkpt lat="46.54052" lon="0.34375">
        <ele>108.4</ele>
        <time>2021-01-24T08:15:21.000Z</time>
      </trkpt>
      <trkpt lat="46.5405" lon="0.34379">
        <ele>108.4</ele>
        <time>2021-01-24T08:15:22.000Z</time>
      </trkpt>
      <trkpt lat="46.54049" lon="0.34381">
        <ele>108.4</ele>
        <time>2021-01-24T08:15:23.000Z</time>
      </trkpt>
      <trkpt lat="46.54048" lon="0.34384">
        <ele>108.2</ele>
        <time>2021-01-24T08:15:24.000Z</time>
      </trkpt>
      <trkpt lat="46.54048" lon="0.34384">
        <ele>108.2</ele>
        <time>2021-01-24T08:15:25.000Z</time>
      </trkpt>
      <trkpt lat="46.54046" lon="0.34388">
        <ele>108.2</ele>
        <time>2021-01-24T08:15:26.000Z</time>
      </trkpt>
      <trkpt lat="46.54045" lon="0.3439">
        <ele>108</ele>
        <time>2021-01-24T08:15:27.000Z</time>
      </trkpt>
      <trkpt lat="46.54043" lon="0.34392">
        <ele>108</ele>
        <time>2021-01-24T08:15:28.000Z</time>
      </trkpt>
      <trkpt lat="46.54043" lon="0.34392">
        <ele>107.8</ele>
        <time>2021-01-24T08:15:29.000Z</time>
      </trkpt>
      <trkpt lat="46.5404" lon="0.34394">
        <ele>107.8</ele>
        <time>2021-01-24T08:15:30.000Z</time>
      </trkpt>
      <trkpt lat="46.54038" lon="0.34396">
        <ele>107.6</ele>
        <time>2021-01-24T08:15:31.000Z</time>
      </trkpt>
      <trkpt lat="46.54038" lon="0.34396">
        <ele>107.6</ele>
        <time>2021-01-24T08:15:32.000Z</time>
      </trkpt>
      <trkpt lat="46.54034" lon="0.34396">
        <ele>107.4</ele>
        <time>2021-01-24T08:15:33.000Z</time>
      </trkpt>
      <trkpt lat="46.54034" lon="0.34396">
        <ele>107.4</ele>
        <time>2021-01-24T08:15:34.000Z</time>
      </trkpt>
      <trkpt lat="46.54031" lon="0.34396">
        <ele>107.4</ele>
        <time>2021-01-24T08:15:35.000Z</time>
      </trkpt>
      <trkpt lat="46.54029" lon="0.34395">
        <ele>107.4</ele>
        <time>2021-01-24T08:15:36.000Z</time>
      </trkpt>
      <trkpt lat="46.54029" lon="0.34395">
        <ele>107.4</ele>
        <time>2021-01-24T08:15:37.000Z</time>
      </trkpt>
      <trkpt lat="46.54027" lon="0.34394">
        <ele>107.4</ele>
        <time>2021-01-24T08:15:38.000Z</time>
      </trkpt>
      <trkpt lat="46.54027" lon="0.34394">
        <ele>107.6</ele>
        <time>2021-01-24T08:15:39.000Z</time>
      </trkpt>
      <trkpt lat="46.54025" lon="0.34393">
        <ele>107.6</ele>
        <time>2021-01-24T08:15:40.000Z</time>
      </trkpt>
      <trkpt lat="46.54025" lon="0.34393">
        <ele>107.6</ele>
        <time>2021-01-24T08:15:41.000Z</time>
      </trkpt>
      <trkpt lat="46.54025" lon="0.34393">
        <ele>107.8</ele>
        <time>2021-01-24T08:15:42.000Z</time>
      </trkpt>
      <trkpt lat="46.54024" lon="0.34393">
        <ele>108</ele>
        <time>2021-01-24T08:15:43.000Z</time>
      </trkpt>
      <trkpt lat="46.54024" lon="0.34393">
        <ele>108.2</ele>
        <time>2021-01-24T08:15:44.000Z</time>
      </trkpt>
      <trkpt lat="46.54024" lon="0.34393">
        <ele>108.4</ele>
        <time>2021-01-24T08:15:45.000Z</time>
      </trkpt>
      <trkpt lat="46.54024" lon="0.34393">
        <ele>108.6</ele>
        <time>2021-01-24T08:15:46.000Z</time>
      </trkpt>
      <trkpt lat="46.54024" lon="0.34393">
        <ele>108.8</ele>
        <time>2021-01-24T08:15:47.000Z</time>
      </trkpt>
      <trkpt lat="46.54024" lon="0.34393">
        <ele>109</ele>
        <time>2021-01-24T08:15:48.000Z</time>
      </trkpt>
      <trkpt lat="46.54024" lon="0.34393">
        <ele>109.2</ele>
        <time>2021-01-24T08:15:49.000Z</time>
      </trkpt>
      <trkpt lat="46.54024" lon="0.34392">
        <ele>109.4</ele>
        <time>2021-01-24T08:15:50.000Z</time>
      </trkpt>
      <trkpt lat="46.54023" lon="0.34392">
        <ele>109.4</ele>
        <time>2021-01-24T08:15:51.000Z</time>
      </trkpt>
      <trkpt lat="46.54023" lon="0.34392">
        <ele>109.4</ele>
        <time>2021-01-24T08:15:52.000Z</time>
      </trkpt>
      <trkpt lat="46.54023" lon="0.34392">
        <ele>109.6</ele>
        <time>2021-01-24T08:15:53.000Z</time>
      </trkpt>
      <trkpt lat="46.54023" lon="0.34392">
        <ele>109.6</ele>
        <time>2021-01-24T08:15:54.000Z</time>
      </trkpt>
      <trkpt lat="46.54023" lon="0.34392">
        <ele>109.4</ele>
        <time>2021-01-24T08:15:55.000Z</time>
      </trkpt>
      <trkpt lat="46.54023" lon="0.34392">
        <ele>109.4</ele>
        <time>2021-01-24T08:15:56.000Z</time>
      </trkpt>
      <trkpt lat="46.54023" lon="0.34392">
        <ele>109.4</ele>
        <time>2021-01-24T08:15:57.000Z</time>
      </trkpt>
      <trkpt lat="46.54023" lon="0.34392">
        <ele>109.4</ele>
        <time>2021-01-24T08:15:58.000Z</time>
      </trkpt>
      <trkpt lat="46.54023" lon="0.34392">
        <ele>109.4</ele>
        <time>2021-01-24T08:15:59.000Z</time>
      </trkpt>
      <trkpt lat="46.54022" lon="0.34392">
        <ele>109.2</ele>
        <time>2021-01-24T08:16:00.000Z</time>
      </trkpt>
      <trkpt lat="46.54022" lon="0.34392">
        <ele>109.2</ele>
        <time>2021-01-24T08:16:01.000Z</time>
      </trkpt>
      <trkpt lat="46.54022" lon="0.34392">
        <ele>109.2</ele>
        <time>2021-01-24T08:16:02.000Z</time>
      </trkpt>
      <trkpt lat="46.54022" lon="0.34392">
        <ele>109.2</ele>
        <time>2021-01-24T08:16:03.000Z</time>
      </trkpt>
      <trkpt lat="46.54022" lon="0.34392">
        <ele>109.2</ele>
        <time>2021-01-24T08:16:04.000Z</time>
      </trkpt>
      <trkpt lat="46.54022" lon="0.34392">
        <ele>109</ele>
        <time>2021-01-24T08:16:05.000Z</time>
      </trkpt>
      <trkpt lat="46.54022" lon="0.34392">
        <ele>109</ele>
        <time>2021-01-24T08:16:06.000Z</time>
      </trkpt>
      <trkpt lat="46.54022" lon="0.34392">
        <ele>109</ele>
        <time>2021-01-24T08:16:07.000Z</time>
      </trkpt>
      <trkpt lat="46.54021" lon="0.34392">
        <ele>109</ele>
        <time>2021-01-24T08:16:08.000Z</time>
      </trkpt>
      <trkpt lat="46.54021" lon="0.34392">
        <ele>108.8</ele>
        <time>2021-01-24T08:16:09.000Z</time>
      </trkpt>
      <trkpt lat="46.54021" lon="0.34392">
        <ele>108.8</ele>
        <time>2021-01-24T08:16:10.000Z</time>
      </trkpt>
      <trkpt lat="46.54021" lon="0.34392">
        <ele>108.8</ele>
        <time>2021-01-24T08:16:11.000Z</time>
      </trkpt>
      <trkpt lat="46.54021" lon="0.34392">
        <ele>108.8</ele>
        <time>2021-01-24T08:16:12.000Z</time>
      </trkpt>
      <trkpt lat="46.54021" lon="0.34392">
        <ele>108.8</ele>
        <time>2021-01-24T08:16:13.000Z</time>
      </trkpt>
      <trkpt lat="46.54021" lon="0.34392">
        <ele>108.6</ele>
        <time>2021-01-24T08:16:14.000Z</time>
      </trkpt>
      <trkpt lat="46.54021" lon="0.34392">
        <ele>108.6</ele>
        <time>2021-01-24T08:16:15.000Z</time>
      </trkpt>
      <trkpt lat="46.54021" lon="0.34392">
        <ele>108.6</ele>
        <time>2021-01-24T08:16:16.000Z</time>
      </trkpt>
      <trkpt lat="46.5402" lon="0.34392">
        <ele>108.6</ele>
        <time>2021-01-24T08:16:17.000Z</time>
      </trkpt>
      <trkpt lat="46.5402" lon="0.34392">
        <ele>108.6</ele>
        <time>2021-01-24T08:16:18.000Z</time>
      </trkpt>
      <trkpt lat="46.5402" lon="0.34392">
        <ele>108.4</ele>
        <time>2021-01-24T08:16:19.000Z</time>
      </trkpt>
      <trkpt lat="46.5402" lon="0.34392">
        <ele>108.4</ele>
        <time>2021-01-24T08:16:20.000Z</time>
      </trkpt>
      <trkpt lat="46.5402" lon="0.34392">
        <ele>108.4</ele>
        <time>2021-01-24T08:16:21.000Z</time>
      </trkpt>
      <trkpt lat="46.5402" lon="0.34391">
        <ele>108.4</ele>
        <time>2021-01-24T08:16:22.000Z</time>
      </trkpt>
      <trkpt lat="46.5402" lon="0.34391">
        <ele>108.4</ele>
        <time>2021-01-24T08:16:23.000Z</time>
      </trkpt>
      <trkpt lat="46.5402" lon="0.34391">
        <ele>108.2</ele>
        <time>2021-01-24T08:16:24.000Z</time>
      </trkpt>
      <trkpt lat="46.54019" lon="0.34391">
        <ele>108.2</ele>
        <time>2021-01-24T08:16:25.000Z</time>
      </trkpt>
      <trkpt lat="46.54019" lon="0.34391">
        <ele>108.2</ele>
        <time>2021-01-24T08:16:26.000Z</time>
      </trkpt>
      <trkpt lat="46.54019" lon="0.34391">
        <ele>108.2</ele>
        <time>2021-01-24T08:16:27.000Z</time>
      </trkpt>
      <trkpt lat="46.54019" lon="0.34391">
        <ele>108.2</ele>
        <time>2021-01-24T08:16:28.000Z</time>
      </trkpt>
      <trkpt lat="46.54019" lon="0.34391">
        <ele>108</ele>
        <time>2021-01-24T08:16:29.000Z</time>
      </trkpt>
      <trkpt lat="46.54019" lon="0.34391">
        <ele>108</ele>
        <time>2021-01-24T08:16:30.000Z</time>
      </trkpt>
      <trkpt lat="46.54019" lon="0.34391">
        <ele>108</ele>
        <time>2021-01-24T08:16:31.000Z</time>
      </trkpt>
      <trkpt lat="46.54019" lon="0.34391">
        <ele>108</ele>
        <time>2021-01-24T08:16:32.000Z</time>
      </trkpt>
      <trkpt lat="46.54019" lon="0.34391">
        <ele>108</ele>
        <time>2021-01-24T08:16:33.000Z</time>
      </trkpt>
      <trkpt lat="46.54018" lon="0.34391">
        <ele>108</ele>
        <time>2021-01-24T08:16:34.000Z</time>
      </trkpt>
      <trkpt lat="46.54018" lon="0.34391">
        <ele>107.8</ele>
        <time>2021-01-24T08:16:35.000Z</time>
      </trkpt>
      <trkpt lat="46.54018" lon="0.34391">
        <ele>107.8</ele>
        <time>2021-01-24T08:16:36.000Z</time>
      </trkpt>
      <trkpt lat="46.54018" lon="0.34391">
        <ele>107.8</ele>
        <time>2021-01-24T08:16:37.000Z</time>
      </trkpt>
      <trkpt lat="46.54018" lon="0.34391">
        <ele>107.8</ele>
        <time>2021-01-24T08:16:38.000Z</time>
      </trkpt>
      <trkpt lat="46.54018" lon="0.34391">
        <ele>107.8</ele>
        <time>2021-01-24T08:16:39.000Z</time>
      </trkpt>
      <trkpt lat="46.54018" lon="0.34391">
        <ele>107.8</ele>
        <time>2021-01-24T08:16:40.000Z</time>
      </trkpt>
      <trkpt lat="46.54018" lon="0.34391">
        <ele>107.6</ele>
        <time>2021-01-24T08:16:41.000Z</time>
      </trkpt>
      <trkpt lat="46.54017" lon="0.34391">
        <ele>107.6</ele>
        <time>2021-01-24T08:16:42.000Z</time>
      </trkpt>
      <trkpt lat="46.54017" lon="0.34391">
        <ele>107.6</ele>
        <time>2021-01-24T08:16:43.000Z</time>
      </trkpt>
      <trkpt lat="46.54017" lon="0.34391">
        <ele>107.6</ele>
        <time>2021-01-24T08:16:44.000Z</time>
      </trkpt>
      <trkpt lat="46.54017" lon="0.34391">
        <ele>107.6</ele>
        <time>2021-01-24T08:16:45.000Z</time>
      </trkpt>
      <trkpt lat="46.54017" lon="0.34391">
        <ele>107.6</ele>
        <time>2021-01-24T08:16:46.000Z</time>
      </trkpt>
      <trkpt lat="46.54017" lon="0.34391">
        <ele>107.6</ele>
        <time>2021-01-24T08:16:47.000Z</time>
      </trkpt>
      <trkpt lat="46.54017" lon="0.34391">
        <ele>107.4</ele>
        <time>2021-01-24T08:16:48.000Z</time>
      </trkpt>
      <trkpt lat="46.54017" lon="0.34391">
        <ele>107.4</ele>
        <time>2021-01-24T08:16:49.000Z</time>
      </trkpt>
      <trkpt lat="46.54017" lon="0.34391">
        <ele>107.4</ele>
        <time>2021-01-24T08:16:50.000Z</time>
      </trkpt>
      <trkpt lat="46.54016" lon="0.34391">
        <ele>107.4</ele>
        <time>2021-01-24T08:16:51.000Z</time>
      </trkpt>
      <trkpt lat="46.54016" lon="0.34391">
        <ele>107.4</ele>
        <time>2021-01-24T08:16:52.000Z</time>
      </trkpt>
      <trkpt lat="46.54016" lon="0.34391">
        <ele>107.4</ele>
        <time>2021-01-24T08:16:53.000Z</time>
      </trkpt>
      <trkpt lat="46.54016" lon="0.34391">
        <ele>107.4</ele>
        <time>2021-01-24T08:16:54.000Z</time>
      </trkpt>
      <trkpt lat="46.54016" lon="0.3439">
        <ele>107.2</ele>
        <time>2021-01-24T08:16:55.000Z</time>
      </trkpt>
      <trkpt lat="46.54016" lon="0.3439">
        <ele>107.2</ele>
        <time>2021-01-24T08:16:56.000Z</time>
      </trkpt>
      <trkpt lat="46.54016" lon="0.3439">
        <ele>107.2</ele>
        <time>2021-01-24T08:16:57.000Z</time>
      </trkpt>
      <trkpt lat="46.54016" lon="0.3439">
        <ele>107.2</ele>
        <time>2021-01-24T08:16:58.000Z</time>
      </trkpt>
      <trkpt lat="46.54015" lon="0.3439">
        <ele>107.2</ele>
        <time>2021-01-24T08:16:59.000Z</time>
      </trkpt>
      <trkpt lat="46.54015" lon="0.3439">
        <ele>107.2</ele>
        <time>2021-01-24T08:17:00.000Z</time>
      </trkpt>
      <trkpt lat="46.54013" lon="0.3439">
        <ele>107.2</ele>
        <time>2021-01-24T08:17:01.000Z</time>
      </trkpt>
      <trkpt lat="46.54013" lon="0.3439">
        <ele>107.2</ele>
        <time>2021-01-24T08:17:02.000Z</time>
      </trkpt>
      <trkpt lat="46.54012" lon="0.34387">
        <ele>107</ele>
        <time>2021-01-24T08:17:03.000Z</time>
      </trkpt>
      <trkpt lat="46.54012" lon="0.34387">
        <ele>107</ele>
        <time>2021-01-24T08:17:04.000Z</time>
      </trkpt>
      <trkpt lat="46.54012" lon="0.34382">
        <ele>107</ele>
        <time>2021-01-24T08:17:05.000Z</time>
      </trkpt>
      <trkpt lat="46.54012" lon="0.34382">
        <ele>106.8</ele>
        <time>2021-01-24T08:17:06.000Z</time>
      </trkpt>
      <trkpt lat="46.54011" lon="0.34378">
        <ele>106.8</ele>
        <time>2021-01-24T08:17:07.000Z</time>
      </trkpt>
      <trkpt lat="46.54011" lon="0.34378">
        <ele>106.8</ele>
        <time>2021-01-24T08:17:08.000Z</time>
      </trkpt>
      <trkpt lat="46.54009" lon="0.34375">
        <ele>106.8</ele>
        <time>2021-01-24T08:17:09.000Z</time>
      </trkpt>
      <trkpt lat="46.54007" lon="0.34373">
        <ele>106.6</ele>
        <time>2021-01-24T08:17:10.000Z</time>
      </trkpt>
      <trkpt lat="46.54005" lon="0.34372">
        <ele>106.4</ele>
        <time>2021-01-24T08:17:11.000Z</time>
      </trkpt>
      <trkpt lat="46.54004" lon="0.3437">
        <ele>106.4</ele>
        <time>2021-01-24T08:17:12.000Z</time>
      </trkpt>
      <trkpt lat="46.54002" lon="0.34369">
        <ele>106.2</ele>
        <time>2021-01-24T08:17:13.000Z</time>
      </trkpt>
      <trkpt lat="46.54002" lon="0.34369">
        <ele>106</ele>
        <time>2021-01-24T08:17:14.000Z</time>
      </trkpt>
      <trkpt lat="46.53997" lon="0.34367">
        <ele>105.8</ele>
        <time>2021-01-24T08:17:15.000Z</time>
      </trkpt>
      <trkpt lat="46.53996" lon="0.34367">
        <ele>105.6</ele>
        <time>2021-01-24T08:17:16.000Z</time>
      </trkpt>
      <trkpt lat="46.53994" lon="0.34367">
        <ele>105.4</ele>
        <time>2021-01-24T08:17:17.000Z</time>
      </trkpt>
      <trkpt lat="46.53994" lon="0.34367">
        <ele>105.2</ele>
        <time>2021-01-24T08:17:18.000Z</time>
      </trkpt>
      <trkpt lat="46.53992" lon="0.34369">
        <ele>105.2</ele>
        <time>2021-01-24T08:17:19.000Z</time>
      </trkpt>
      <trkpt lat="46.53992" lon="0.34369">
        <ele>105</ele>
        <time>2021-01-24T08:17:20.000Z</time>
      </trkpt>
      <trkpt lat="46.53992" lon="0.34369">
        <ele>104.8</ele>
        <time>2021-01-24T08:17:21.000Z</time>
      </trkpt>
      <trkpt lat="46.53992" lon="0.34369">
        <ele>104.8</ele>
        <time>2021-01-24T08:17:22.000Z</time>
      </trkpt>
      <trkpt lat="46.53992" lon="0.34372">
        <ele>104.6</ele>
        <time>2021-01-24T08:17:23.000Z</time>
      </trkpt>
      <trkpt lat="46.53992" lon="0.34372">
        <ele>104.6</ele>
        <time>2021-01-24T08:17:24.000Z</time>
      </trkpt>
      <trkpt lat="46.53992" lon="0.34372">
        <ele>104.6</ele>
        <time>2021-01-24T08:17:25.000Z</time>
      </trkpt>
      <trkpt lat="46.5399" lon="0.34375">
        <ele>104.4</ele>
        <time>2021-01-24T08:17:26.000Z</time>
      </trkpt>
      <trkpt lat="46.5399" lon="0.34375">
        <ele>104.4</ele>
        <time>2021-01-24T08:17:27.000Z</time>
      </trkpt>
      <trkpt lat="46.53988" lon="0.34377">
        <ele>104.2</ele>
        <time>2021-01-24T08:17:28.000Z</time>
      </trkpt>
      <trkpt lat="46.53988" lon="0.34377">
        <ele>104</ele>
        <time>2021-01-24T08:17:29.000Z</time>
      </trkpt>
      <trkpt lat="46.53988" lon="0.34377">
        <ele>104</ele>
        <time>2021-01-24T08:17:30.000Z</time>
      </trkpt>
      <trkpt lat="46.53985" lon="0.34379">
        <ele>103.8</ele>
        <time>2021-01-24T08:17:31.000Z</time>
      </trkpt>
      <trkpt lat="46.53985" lon="0.34379">
        <ele>103.6</ele>
        <time>2021-01-24T08:17:32.000Z</time>
      </trkpt>
      <trkpt lat="46.53982" lon="0.34382">
        <ele>103.6</ele>
        <time>2021-01-24T08:17:33.000Z</time>
      </trkpt>
      <trkpt lat="46.53982" lon="0.34382">
        <ele>103.4</ele>
        <time>2021-01-24T08:17:34.000Z</time>
      </trkpt>
      <trkpt lat="46.53982" lon="0.34382">
        <ele>103.4</ele>
        <time>2021-01-24T08:17:35.000Z</time>
      </trkpt>
      <trkpt lat="46.53981" lon="0.34383">
        <ele>103.2</ele>
        <time>2021-01-24T08:17:36.000Z</time>
      </trkpt>
      <trkpt lat="46.53981" lon="0.34383">
        <ele>103</ele>
        <time>2021-01-24T08:17:37.000Z</time>
      </trkpt>
      <trkpt lat="46.53981" lon="0.34383">
        <ele>102.8</ele>
        <time>2021-01-24T08:17:38.000Z</time>
      </trkpt>
      <trkpt lat="46.53981" lon="0.34383">
        <ele>102.6</ele>
        <time>2021-01-24T08:17:39.000Z</time>
      </trkpt>
      <trkpt lat="46.5398" lon="0.34386">
        <ele>102.4</ele>
        <time>2021-01-24T08:17:40.000Z</time>
      </trkpt>
      <trkpt lat="46.5398" lon="0.34386">
        <ele>102.2</ele>
        <time>2021-01-24T08:17:41.000Z</time>
      </trkpt>
      <trkpt lat="46.5398" lon="0.34386">
        <ele>102.2</ele>
        <time>2021-01-24T08:17:42.000Z</time>
      </trkpt>
      <trkpt lat="46.53978" lon="0.34389">
        <ele>102</ele>
        <time>2021-01-24T08:17:43.000Z</time>
      </trkpt>
      <trkpt lat="46.53978" lon="0.34389">
        <ele>101.8</ele>
        <time>2021-01-24T08:17:44.000Z</time>
      </trkpt>
      <trkpt lat="46.53978" lon="0.34389">
        <ele>101.8</ele>
        <time>2021-01-24T08:17:45.000Z</time>
      </trkpt>
      <trkpt lat="46.53978" lon="0.34389">
        <ele>101.6</ele>
        <time>2021-01-24T08:17:46.000Z</time>
      </trkpt>
      <trkpt lat="46.53978" lon="0.34389">
        <ele>101.4</ele>
        <time>2021-01-24T08:17:47.000Z</time>
      </trkpt>
      <trkpt lat="46.53977" lon="0.34392">
        <ele>101.4</ele>
        <time>2021-01-24T08:17:48.000Z</time>
      </trkpt>
      <trkpt lat="46.53977" lon="0.34392">
        <ele>101.2</ele>
        <time>2021-01-24T08:17:49.000Z</time>
      </trkpt>
      <trkpt lat="46.53977" lon="0.34392">
        <ele>101.2</ele>
        <time>2021-01-24T08:17:50.000Z</time>
      </trkpt>
      <trkpt lat="46.53977" lon="0.34392">
        <ele>101</ele>
        <time>2021-01-24T08:17:51.000Z</time>
      </trkpt>
      <trkpt lat="46.53977" lon="0.34392">
        <ele>101</ele>
        <time>2021-01-24T08:17:52.000Z</time>
      </trkpt>
      <trkpt lat="46.53977" lon="0.34392">
        <ele>101</ele>
        <time>2021-01-24T08:17:53.000Z</time>
      </trkpt>
      <trkpt lat="46.53977" lon="0.34392">
        <ele>100.8</ele>
        <time>2021-01-24T08:17:54.000Z</time>
      </trkpt>
      <trkpt lat="46.53977" lon="0.34392">
        <ele>100.8</ele>
        <time>2021-01-24T08:17:55.000Z</time>
      </trkpt>
      <trkpt lat="46.53977" lon="0.34392">
        <ele>100.8</ele>
        <time>2021-01-24T08:17:56.000Z</time>
      </trkpt>
      <trkpt lat="46.53974" lon="0.34394">
        <ele>100.6</ele>
        <time>2021-01-24T08:17:57.000Z</time>
      </trkpt>
      <trkpt lat="46.53974" lon="0.34394">
        <ele>100.6</ele>
        <time>2021-01-24T08:17:58.000Z</time>
      </trkpt>
      <trkpt lat="46.53972" lon="0.34395">
        <ele>100.6</ele>
        <time>2021-01-24T08:17:59.000Z</time>
      </trkpt>
      <trkpt lat="46.53972" lon="0.34395">
        <ele>100.6</ele>
        <time>2021-01-24T08:18:00.000Z</time>
      </trkpt>
      <trkpt lat="46.53968" lon="0.34396">
        <ele>100.6</ele>
        <time>2021-01-24T08:18:01.000Z</time>
      </trkpt>
      <trkpt lat="46.53968" lon="0.34396">
        <ele>100.4</ele>
        <time>2021-01-24T08:18:02.000Z</time>
      </trkpt>
      <trkpt lat="46.53964" lon="0.34399">
        <ele>100.4</ele>
        <time>2021-01-24T08:18:03.000Z</time>
      </trkpt>
      <trkpt lat="46.53962" lon="0.34401">
        <ele>100.4</ele>
        <time>2021-01-24T08:18:04.000Z</time>
      </trkpt>
      <trkpt lat="46.53962" lon="0.34401">
        <ele>100.4</ele>
        <time>2021-01-24T08:18:05.000Z</time>
      </trkpt>
      <trkpt lat="46.5396" lon="0.34403">
        <ele>100.4</ele>
        <time>2021-01-24T08:18:06.000Z</time>
      </trkpt>
      <trkpt lat="46.5396" lon="0.34403">
        <ele>100.2</ele>
        <time>2021-01-24T08:18:07.000Z</time>
      </trkpt>
      <trkpt lat="46.5396" lon="0.34403">
        <ele>100.2</ele>
        <time>2021-01-24T08:18:08.000Z</time>
      </trkpt>
      <trkpt lat="46.5396" lon="0.34403">
        <ele>100</ele>
        <time>2021-01-24T08:18:09.000Z</time>
      </trkpt>
      <trkpt lat="46.5396" lon="0.34403">
        <ele>99.8</ele>
        <time>2021-01-24T08:18:10.000Z</time>
      </trkpt>
      <trkpt lat="46.5396" lon="0.34403">
        <ele>99.8</ele>
        <time>2021-01-24T08:18:11.000Z</time>
      </trkpt>
      <trkpt lat="46.5396" lon="0.34403">
        <ele>99.8</ele>
        <time>2021-01-24T08:18:12.000Z</time>
      </trkpt>
      <trkpt lat="46.5396" lon="0.34403">
        <ele>99.8</ele>
        <time>2021-01-24T08:18:13.000Z</time>
      </trkpt>
      <trkpt lat="46.5396" lon="0.34403">
        <ele>100</ele>
        <time>2021-01-24T08:18:14.000Z</time>
      </trkpt>
      <trkpt lat="46.5396" lon="0.34403">
        <ele>100</ele>
        <time>2021-01-24T08:18:15.000Z</time>
      </trkpt>
      <trkpt lat="46.5396" lon="0.34403">
        <ele>100.2</ele>
        <time>2021-01-24T08:18:16.000Z</time>
      </trkpt>
      <trkpt lat="46.5396" lon="0.34403">
        <ele>100.2</ele>
        <time>2021-01-24T08:18:17.000Z</time>
      </trkpt>
      <trkpt lat="46.5396" lon="0.34403">
        <ele>100.4</ele>
        <time>2021-01-24T08:18:18.000Z</time>
      </trkpt>
      <trkpt lat="46.5396" lon="0.34403">
        <ele>100.4</ele>
        <time>2021-01-24T08:18:19.000Z</time>
      </trkpt>
      <trkpt lat="46.53958" lon="0.34404">
        <ele>100.6</ele>
        <time>2021-01-24T08:18:20.000Z</time>
      </trkpt>
      <trkpt lat="46.53958" lon="0.34404">
        <ele>100.8</ele>
        <time>2021-01-24T08:18:21.000Z</time>
      </trkpt>
      <trkpt lat="46.53958" lon="0.34404">
        <ele>100.8</ele>
        <time>2021-01-24T08:18:22.000Z</time>
      </trkpt>
      <trkpt lat="46.53958" lon="0.34404">
        <ele>101</ele>
        <time>2021-01-24T08:18:23.000Z</time>
      </trkpt>
      <trkpt lat="46.53958" lon="0.34404">
        <ele>101</ele>
        <time>2021-01-24T08:18:24.000Z</time>
      </trkpt>
      <trkpt lat="46.53958" lon="0.34404">
        <ele>101.2</ele>
        <time>2021-01-24T08:18:25.000Z</time>
      </trkpt>
      <trkpt lat="46.53958" lon="0.34404">
        <ele>101.2</ele>
        <time>2021-01-24T08:18:26.000Z</time>
      </trkpt>
      <trkpt lat="46.53958" lon="0.34404">
        <ele>101.2</ele>
        <time>2021-01-24T08:18:27.000Z</time>
      </trkpt>
      <trkpt lat="46.53958" lon="0.34404">
        <ele>101.2</ele>
        <time>2021-01-24T08:18:28.000Z</time>
      </trkpt>
      <trkpt lat="46.53958" lon="0.34404">
        <ele>101.2</ele>
        <time>2021-01-24T08:18:29.000Z</time>
      </trkpt>
      <trkpt lat="46.53958" lon="0.34404">
        <ele>101.4</ele>
        <time>2021-01-24T08:18:30.000Z</time>
      </trkpt>
      <trkpt lat="46.53958" lon="0.34404">
        <ele>101.4</ele>
        <time>2021-01-24T08:18:31.000Z</time>
      </trkpt>
      <trkpt lat="46.53958" lon="0.34404">
        <ele>101.4</ele>
        <time>2021-01-24T08:18:32.000Z</time>
      </trkpt>
      <trkpt lat="46.53958" lon="0.34404">
        <ele>101.4</ele>
        <time>2021-01-24T08:18:33.000Z</time>
      </trkpt>
      <trkpt lat="46.53958" lon="0.34404">
        <ele>101.6</ele>
        <time>2021-01-24T08:18:34.000Z</time>
      </trkpt>
      <trkpt lat="46.53958" lon="0.34404">
        <ele>101.6</ele>
        <time>2021-01-24T08:18:35.000Z</time>
      </trkpt>
      <trkpt lat="46.53958" lon="0.34404">
        <ele>101.6</ele>
        <time>2021-01-24T08:18:36.000Z</time>
      </trkpt>
      <trkpt lat="46.53958" lon="0.34404">
        <ele>101.6</ele>
        <time>2021-01-24T08:18:37.000Z</time>
      </trkpt>
      <trkpt lat="46.53958" lon="0.34404">
        <ele>101.8</ele>
        <time>2021-01-24T08:18:38.000Z</time>
      </trkpt>
      <trkpt lat="46.53958" lon="0.34404">
        <ele>101.8</ele>
        <time>2021-01-24T08:18:39.000Z</time>
      </trkpt>
      <trkpt lat="46.53958" lon="0.34404">
        <ele>101.8</ele>
        <time>2021-01-24T08:18:40.000Z</time>
      </trkpt>
      <trkpt lat="46.53958" lon="0.34404">
        <ele>101.8</ele>
        <time>2021-01-24T08:18:41.000Z</time>
      </trkpt>
      <trkpt lat="46.53958" lon="0.34404">
        <ele>101.8</ele>
        <time>2021-01-24T08:18:42.000Z</time>
      </trkpt>
      <trkpt lat="46.53958" lon="0.34404">
        <ele>101.8</ele>
        <time>2021-01-24T08:18:43.000Z</time>
      </trkpt>
      <trkpt lat="46.53958" lon="0.34404">
        <ele>102</ele>
        <time>2021-01-24T08:18:44.000Z</time>
      </trkpt>
      <trkpt lat="46.53958" lon="0.34404">
        <ele>102</ele>
        <time>2021-01-24T08:18:45.000Z</time>
      </trkpt>
      <trkpt lat="46.53958" lon="0.34404">
        <ele>102</ele>
        <time>2021-01-24T08:18:46.000Z</time>
      </trkpt>
      <trkpt lat="46.53958" lon="0.34404">
        <ele>102</ele>
        <time>2021-01-24T08:18:47.000Z</time>
      </trkpt>
      <trkpt lat="46.53958" lon="0.34404">
        <ele>102</ele>
        <time>2021-01-24T08:18:48.000Z</time>
      </trkpt>
      <trkpt lat="46.53958" lon="0.34404">
        <ele>102</ele>
        <time>2021-01-24T08:18:49.000Z</time>
      </trkpt>
      <trkpt lat="46.53956" lon="0.34407">
        <ele>102</ele>
        <time>2021-01-24T08:18:50.000Z</time>
      </trkpt>
      <trkpt lat="46.53956" lon="0.34407">
        <ele>102</ele>
        <time>2021-01-24T08:18:51.000Z</time>
      </trkpt>
      <trkpt lat="46.53956" lon="0.34407">
        <ele>102</ele>
        <time>2021-01-24T08:18:52.000Z</time>
      </trkpt>
      <trkpt lat="46.53954" lon="0.3441">
        <ele>102.2</ele>
        <time>2021-01-24T08:18:53.000Z</time>
      </trkpt>
      <trkpt lat="46.53954" lon="0.3441">
        <ele>102.2</ele>
        <time>2021-01-24T08:18:54.000Z</time>
      </trkpt>
      <trkpt lat="46.53954" lon="0.3441">
        <ele>102.2</ele>
        <time>2021-01-24T08:18:55.000Z</time>
      </trkpt>
      <trkpt lat="46.53954" lon="0.3441">
        <ele>102</ele>
        <time>2021-01-24T08:18:56.000Z</time>
      </trkpt>
      <trkpt lat="46.53953" lon="0.34412">
        <ele>102</ele>
        <time>2021-01-24T08:18:57.000Z</time>
      </trkpt>
      <trkpt lat="46.53953" lon="0.34412">
        <ele>102</ele>
        <time>2021-01-24T08:18:58.000Z</time>
      </trkpt>
      <trkpt lat="46.53953" lon="0.34412">
        <ele>102</ele>
        <time>2021-01-24T08:18:59.000Z</time>
      </trkpt>
      <trkpt lat="46.53953" lon="0.34412">
        <ele>102</ele>
        <time>2021-01-24T08:19:00.000Z</time>
      </trkpt>
      <trkpt lat="46.53953" lon="0.34412">
        <ele>101.8</ele>
        <time>2021-01-24T08:19:01.000Z</time>
      </trkpt>
      <trkpt lat="46.53952" lon="0.34414">
        <ele>101.8</ele>
        <time>2021-01-24T08:19:02.000Z</time>
      </trkpt>
      <trkpt lat="46.53952" lon="0.34414">
        <ele>101.6</ele>
        <time>2021-01-24T08:19:03.000Z</time>
      </trkpt>
      <trkpt lat="46.53952" lon="0.34414">
        <ele>101.6</ele>
        <time>2021-01-24T08:19:04.000Z</time>
      </trkpt>
      <trkpt lat="46.5395" lon="0.34413">
        <ele>101.6</ele>
        <time>2021-01-24T08:19:05.000Z</time>
      </trkpt>
      <trkpt lat="46.5395" lon="0.34413">
        <ele>101.4</ele>
        <time>2021-01-24T08:19:06.000Z</time>
      </trkpt>
      <trkpt lat="46.5395" lon="0.34413">
        <ele>101.4</ele>
        <time>2021-01-24T08:19:07.000Z</time>
      </trkpt>
      <trkpt lat="46.5395" lon="0.34413">
        <ele>101.2</ele>
        <time>2021-01-24T08:19:08.000Z</time>
      </trkpt>
      <trkpt lat="46.5395" lon="0.34413">
        <ele>101.2</ele>
        <time>2021-01-24T08:19:09.000Z</time>
      </trkpt>
      <trkpt lat="46.53948" lon="0.34413">
        <ele>101</ele>
        <time>2021-01-24T08:19:10.000Z</time>
      </trkpt>
      <trkpt lat="46.53948" lon="0.34413">
        <ele>101</ele>
        <time>2021-01-24T08:19:11.000Z</time>
      </trkpt>
      <trkpt lat="46.53945" lon="0.34414">
        <ele>101</ele>
        <time>2021-01-24T08:19:12.000Z</time>
      </trkpt>
      <trkpt lat="46.53945" lon="0.34414">
        <ele>100.8</ele>
        <time>2021-01-24T08:19:13.000Z</time>
      </trkpt>
      <trkpt lat="46.53942" lon="0.34416">
        <ele>100.8</ele>
        <time>2021-01-24T08:19:14.000Z</time>
      </trkpt>
      <trkpt lat="46.53942" lon="0.34416">
        <ele>100.6</ele>
        <time>2021-01-24T08:19:15.000Z</time>
      </trkpt>
      <trkpt lat="46.5394" lon="0.34415">
        <ele>100.6</ele>
        <time>2021-01-24T08:19:16.000Z</time>
      </trkpt>
      <trkpt lat="46.53938" lon="0.34415">
        <ele>100.4</ele>
        <time>2021-01-24T08:19:17.000Z</time>
      </trkpt>
      <trkpt lat="46.53938" lon="0.34415">
        <ele>100.2</ele>
        <time>2021-01-24T08:19:18.000Z</time>
      </trkpt>
      <trkpt lat="46.53936" lon="0.34414">
        <ele>100.2</ele>
        <time>2021-01-24T08:19:19.000Z</time>
      </trkpt>
      <trkpt lat="46.53936" lon="0.34414">
        <ele>100</ele>
        <time>2021-01-24T08:19:20.000Z</time>
      </trkpt>
      <trkpt lat="46.53936" lon="0.34414">
        <ele>99.8</ele>
        <time>2021-01-24T08:19:21.000Z</time>
      </trkpt>
      <trkpt lat="46.53933" lon="0.34415">
        <ele>99.6</ele>
        <time>2021-01-24T08:19:22.000Z</time>
      </trkpt>
      <trkpt lat="46.53933" lon="0.34415">
        <ele>99.4</ele>
        <time>2021-01-24T08:19:23.000Z</time>
      </trkpt>
      <trkpt lat="46.5393" lon="0.34416">
        <ele>99.2</ele>
        <time>2021-01-24T08:19:24.000Z</time>
      </trkpt>
      <trkpt lat="46.5393" lon="0.34416">
        <ele>99</ele>
        <time>2021-01-24T08:19:25.000Z</time>
      </trkpt>
      <trkpt lat="46.5393" lon="0.34416">
        <ele>98.8</ele>
        <time>2021-01-24T08:19:26.000Z</time>
      </trkpt>
      <trkpt lat="46.5393" lon="0.34416">
        <ele>98.8</ele>
        <time>2021-01-24T08:19:27.000Z</time>
      </trkpt>
      <trkpt lat="46.5393" lon="0.34416">
        <ele>98.6</ele>
        <time>2021-01-24T08:19:28.000Z</time>
      </trkpt>
      <trkpt lat="46.5393" lon="0.34416">
        <ele>98.4</ele>
        <time>2021-01-24T08:19:29.000Z</time>
      </trkpt>
      <trkpt lat="46.5393" lon="0.34416">
        <ele>98.2</ele>
        <time>2021-01-24T08:19:30.000Z</time>
      </trkpt>
      <trkpt lat="46.5393" lon="0.34416">
        <ele>98.2</ele>
        <time>2021-01-24T08:19:31.000Z</time>
      </trkpt>
      <trkpt lat="46.5393" lon="0.34416">
        <ele>98</ele>
        <time>2021-01-24T08:19:32.000Z</time>
      </trkpt>
      <trkpt lat="46.5393" lon="0.34416">
        <ele>98</ele>
        <time>2021-01-24T08:19:33.000Z</time>
      </trkpt>
      <trkpt lat="46.5393" lon="0.34416">
        <ele>97.8</ele>
        <time>2021-01-24T08:19:34.000Z</time>
      </trkpt>
      <trkpt lat="46.5393" lon="0.34416">
        <ele>97.6</ele>
        <time>2021-01-24T08:19:35.000Z</time>
      </trkpt>
      <trkpt lat="46.5393" lon="0.34416">
        <ele>97.4</ele>
        <time>2021-01-24T08:19:36.000Z</time>
      </trkpt>
      <trkpt lat="46.5393" lon="0.34416">
        <ele>97.4</ele>
        <time>2021-01-24T08:19:37.000Z</time>
      </trkpt>
      <trkpt lat="46.5393" lon="0.34416">
        <ele>97.2</ele>
        <time>2021-01-24T08:19:38.000Z</time>
      </trkpt>
      <trkpt lat="46.5393" lon="0.34416">
        <ele>97</ele>
        <time>2021-01-24T08:19:39.000Z</time>
      </trkpt>
      <trkpt lat="46.5393" lon="0.34416">
        <ele>96.8</ele>
        <time>2021-01-24T08:19:40.000Z</time>
      </trkpt>
      <trkpt lat="46.5393" lon="0.34416">
        <ele>96.6</ele>
        <time>2021-01-24T08:19:41.000Z</time>
      </trkpt>
      <trkpt lat="46.5393" lon="0.34416">
        <ele>96.4</ele>
        <time>2021-01-24T08:19:42.000Z</time>
      </trkpt>
      <trkpt lat="46.5393" lon="0.34416">
        <ele>96.4</ele>
        <time>2021-01-24T08:19:43.000Z</time>
      </trkpt>
      <trkpt lat="46.5393" lon="0.34416">
        <ele>96.2</ele>
        <time>2021-01-24T08:19:44.000Z</time>
      </trkpt>
      <trkpt lat="46.5393" lon="0.34416">
        <ele>96</ele>
        <time>2021-01-24T08:19:45.000Z</time>
      </trkpt>
      <trkpt lat="46.5393" lon="0.34416">
        <ele>95.8</ele>
        <time>2021-01-24T08:19:46.000Z</time>
      </trkpt>
      <trkpt lat="46.5393" lon="0.34416">
        <ele>95.6</ele>
        <time>2021-01-24T08:19:47.000Z</time>
      </trkpt>
      <trkpt lat="46.5393" lon="0.34416">
        <ele>95.6</ele>
        <time>2021-01-24T08:19:48.000Z</time>
      </trkpt>
      <trkpt lat="46.5393" lon="0.34416">
        <ele>95.4</ele>
        <time>2021-01-24T08:19:49.000Z</time>
      </trkpt>
      <trkpt lat="46.5393" lon="0.34416">
        <ele>95.2</ele>
        <time>2021-01-24T08:19:50.000Z</time>
      </trkpt>
      <trkpt lat="46.5393" lon="0.34416">
        <ele>95</ele>
        <time>2021-01-24T08:19:51.000Z</time>
      </trkpt>
      <trkpt lat="46.5393" lon="0.34416">
        <ele>94.8</ele>
        <time>2021-01-24T08:19:52.000Z</time>
      </trkpt>
      <trkpt lat="46.5393" lon="0.34416">
        <ele>94.6</ele>
        <time>2021-01-24T08:19:53.000Z</time>
      </trkpt>
      <trkpt lat="46.5393" lon="0.34416">
        <ele>94.6</ele>
        <time>2021-01-24T08:19:54.000Z</time>
      </trkpt>
      <trkpt lat="46.5393" lon="0.34416">
        <ele>94.4</ele>
        <time>2021-01-24T08:19:55.000Z</time>
      </trkpt>
      <trkpt lat="46.5393" lon="0.34416">
        <ele>94.2</ele>
        <time>2021-01-24T08:19:56.000Z</time>
      </trkpt>
      <trkpt lat="46.5393" lon="0.34416">
        <ele>94</ele>
        <time>2021-01-24T08:19:57.000Z</time>
      </trkpt>
      <trkpt lat="46.53928" lon="0.34415">
        <ele>93.8</ele>
        <time>2021-01-24T08:19:58.000Z</time>
      </trkpt>
      <trkpt lat="46.53927" lon="0.34413">
        <ele>93.8</ele>
        <time>2021-01-24T08:19:59.000Z</time>
      </trkpt>
      <trkpt lat="46.53927" lon="0.34413">
        <ele>93.6</ele>
        <time>2021-01-24T08:20:00.000Z</time>
      </trkpt>
      <trkpt lat="46.53926" lon="0.34409">
        <ele>93.4</ele>
        <time>2021-01-24T08:20:01.000Z</time>
      </trkpt>
      <trkpt lat="46.53926" lon="0.34409">
        <ele>93.2</ele>
        <time>2021-01-24T08:20:02.000Z</time>
      </trkpt>
      <trkpt lat="46.53926" lon="0.34409">
        <ele>93</ele>
        <time>2021-01-24T08:20:03.000Z</time>
      </trkpt>
      <trkpt lat="46.53925" lon="0.34406">
        <ele>92.8</ele>
        <time>2021-01-24T08:20:04.000Z</time>
      </trkpt>
      <trkpt lat="46.53925" lon="0.34406">
        <ele>92.6</ele>
        <time>2021-01-24T08:20:05.000Z</time>
      </trkpt>
      <trkpt lat="46.53925" lon="0.34406">
        <ele>92.6</ele>
        <time>2021-01-24T08:20:06.000Z</time>
      </trkpt>
      <trkpt lat="46.53925" lon="0.34406">
        <ele>92.4</ele>
        <time>2021-01-24T08:20:07.000Z</time>
      </trkpt>
      <trkpt lat="46.53925" lon="0.34406">
        <ele>92.2</ele>
        <time>2021-01-24T08:20:08.000Z</time>
      </trkpt>
      <trkpt lat="46.53923" lon="0.34408">
        <ele>92</ele>
        <time>2021-01-24T08:20:09.000Z</time>
      </trkpt>
      <trkpt lat="46.53923" lon="0.34408">
        <ele>91.8</ele>
        <time>2021-01-24T08:20:10.000Z</time>
      </trkpt>
      <trkpt lat="46.53923" lon="0.34408">
        <ele>91.6</ele>
        <time>2021-01-24T08:20:11.000Z</time>
      </trkpt>
      <trkpt lat="46.53923" lon="0.34408">
        <ele>91.4</ele>
        <time>2021-01-24T08:20:12.000Z</time>
      </trkpt>
      <trkpt lat="46.53923" lon="0.34408">
        <ele>91.2</ele>
        <time>2021-01-24T08:20:13.000Z</time>
      </trkpt>
      <trkpt lat="46.53923" lon="0.34408">
        <ele>91</ele>
        <time>2021-01-24T08:20:14.000Z</time>
      </trkpt>
      <trkpt lat="46.53923" lon="0.34408">
        <ele>90.6</ele>
        <time>2021-01-24T08:20:15.000Z</time>
      </trkpt>
      <trkpt lat="46.53923" lon="0.34408">
        <ele>90.4</ele>
        <time>2021-01-24T08:20:16.000Z</time>
      </trkpt>
      <trkpt lat="46.53923" lon="0.34408">
        <ele>90.4</ele>
        <time>2021-01-24T08:20:17.000Z</time>
      </trkpt>
      <trkpt lat="46.53923" lon="0.34408">
        <ele>90.2</ele>
        <time>2021-01-24T08:20:18.000Z</time>
      </trkpt>
      <trkpt lat="46.53923" lon="0.34408">
        <ele>90</ele>
        <time>2021-01-24T08:20:19.000Z</time>
      </trkpt>
      <trkpt lat="46.53923" lon="0.34408">
        <ele>90</ele>
        <time>2021-01-24T08:20:20.000Z</time>
      </trkpt>
      <trkpt lat="46.53923" lon="0.34408">
        <ele>89.8</ele>
        <time>2021-01-24T08:20:21.000Z</time>
      </trkpt>
      <trkpt lat="46.53923" lon="0.34408">
        <ele>89.6</ele>
        <time>2021-01-24T08:20:22.000Z</time>
      </trkpt>
      <trkpt lat="46.53923" lon="0.34408">
        <ele>89.6</ele>
        <time>2021-01-24T08:20:23.000Z</time>
      </trkpt>
      <trkpt lat="46.53923" lon="0.34408">
        <ele>89.4</ele>
        <time>2021-01-24T08:20:24.000Z</time>
      </trkpt>
      <trkpt lat="46.53923" lon="0.34408">
        <ele>89.4</ele>
        <time>2021-01-24T08:20:25.000Z</time>
      </trkpt>
      <trkpt lat="46.53923" lon="0.34408">
        <ele>89.2</ele>
        <time>2021-01-24T08:20:26.000Z</time>
      </trkpt>
      <trkpt lat="46.53923" lon="0.34408">
        <ele>89</ele>
        <time>2021-01-24T08:20:27.000Z</time>
      </trkpt>
      <trkpt lat="46.53923" lon="0.34408">
        <ele>89</ele>
        <time>2021-01-24T08:20:28.000Z</time>
      </trkpt>
      <trkpt lat="46.53923" lon="0.34408">
        <ele>88.8</ele>
        <time>2021-01-24T08:20:29.000Z</time>
      </trkpt>
      <trkpt lat="46.53922" lon="0.3441">
        <ele>88.6</ele>
        <time>2021-01-24T08:20:30.000Z</time>
      </trkpt>
      <trkpt lat="46.53922" lon="0.3441">
        <ele>88.4</ele>
        <time>2021-01-24T08:20:31.000Z</time>
      </trkpt>
      <trkpt lat="46.5392" lon="0.34415">
        <ele>88.4</ele>
        <time>2021-01-24T08:20:32.000Z</time>
      </trkpt>
      <trkpt lat="46.5392" lon="0.34418">
        <ele>88.2</ele>
        <time>2021-01-24T08:20:33.000Z</time>
      </trkpt>
      <trkpt lat="46.5392" lon="0.34422">
        <ele>88</ele>
        <time>2021-01-24T08:20:34.000Z</time>
      </trkpt>
      <trkpt lat="46.5392" lon="0.34426">
        <ele>87.8</ele>
        <time>2021-01-24T08:20:35.000Z</time>
      </trkpt>
      <trkpt lat="46.5392" lon="0.3443">
        <ele>87.8</ele>
        <time>2021-01-24T08:20:36.000Z</time>
      </trkpt>
      <trkpt lat="46.5392" lon="0.34435">
        <ele>87.6</ele>
        <time>2021-01-24T08:20:37.000Z</time>
      </trkpt>
      <trkpt lat="46.53921" lon="0.34439">
        <ele>87.6</ele>
        <time>2021-01-24T08:20:38.000Z</time>
      </trkpt>
      <trkpt lat="46.53921" lon="0.34443">
        <ele>87.4</ele>
        <time>2021-01-24T08:20:39.000Z</time>
      </trkpt>
      <trkpt lat="46.53922" lon="0.34445">
        <ele>87.4</ele>
        <time>2021-01-24T08:20:40.000Z</time>
      </trkpt>
      <trkpt lat="46.53922" lon="0.34445">
        <ele>87.2</ele>
        <time>2021-01-24T08:20:41.000Z</time>
      </trkpt>
      <trkpt lat="46.53923" lon="0.3445">
        <ele>87.2</ele>
        <time>2021-01-24T08:20:42.000Z</time>
      </trkpt>
      <trkpt lat="46.53924" lon="0.34453">
        <ele>87</ele>
        <time>2021-01-24T08:20:43.000Z</time>
      </trkpt>
      <trkpt lat="46.53924" lon="0.34456">
        <ele>86.8</ele>
        <time>2021-01-24T08:20:44.000Z</time>
      </trkpt>
      <trkpt lat="46.53925" lon="0.34458">
        <ele>86.8</ele>
        <time>2021-01-24T08:20:45.000Z</time>
      </trkpt>
      <trkpt lat="46.53926" lon="0.3446">
        <ele>86.8</ele>
        <time>2021-01-24T08:20:46.000Z</time>
      </trkpt>
      <trkpt lat="46.53926" lon="0.3446">
        <ele>86.6</ele>
        <time>2021-01-24T08:20:47.000Z</time>
      </trkpt>
      <trkpt lat="46.53927" lon="0.34465">
        <ele>86.6</ele>
        <time>2021-01-24T08:20:48.000Z</time>
      </trkpt>
      <trkpt lat="46.53927" lon="0.34465">
        <ele>86.6</ele>
        <time>2021-01-24T08:20:49.000Z</time>
      </trkpt>
      <trkpt lat="46.5393" lon="0.34473">
        <ele>86.6</ele>
        <time>2021-01-24T08:20:50.000Z</time>
      </trkpt>
      <trkpt lat="46.5393" lon="0.34475">
        <ele>86.4</ele>
        <time>2021-01-24T08:20:51.000Z</time>
      </trkpt>
      <trkpt lat="46.53929" lon="0.34479">
        <ele>86.4</ele>
        <time>2021-01-24T08:20:52.000Z</time>
      </trkpt>
      <trkpt lat="46.53928" lon="0.34484">
        <ele>86.4</ele>
        <time>2021-01-24T08:20:53.000Z</time>
      </trkpt>
      <trkpt lat="46.53926" lon="0.34488">
        <ele>86.4</ele>
        <time>2021-01-24T08:20:54.000Z</time>
      </trkpt>
      <trkpt lat="46.53923" lon="0.34491">
        <ele>86.4</ele>
        <time>2021-01-24T08:20:55.000Z</time>
      </trkpt>
      <trkpt lat="46.5392" lon="0.34493">
        <ele>86.4</ele>
        <time>2021-01-24T08:20:56.000Z</time>
      </trkpt>
      <trkpt lat="46.53917" lon="0.34495">
        <ele>86.4</ele>
        <time>2021-01-24T08:20:57.000Z</time>
      </trkpt>
      <trkpt lat="46.53914" lon="0.34496">
        <ele>86.4</ele>
        <time>2021-01-24T08:20:58.000Z</time>
      </trkpt>
      <trkpt lat="46.53911" lon="0.34497">
        <ele>86.4</ele>
        <time>2021-01-24T08:20:59.000Z</time>
      </trkpt>
      <trkpt lat="46.53908" lon="0.34498">
        <ele>86.4</ele>
        <time>2021-01-24T08:21:00.000Z</time>
      </trkpt>
      <trkpt lat="46.53904" lon="0.34499">
        <ele>86.4</ele>
        <time>2021-01-24T08:21:01.000Z</time>
      </trkpt>
      <trkpt lat="46.53901" lon="0.345">
        <ele>86.4</ele>
        <time>2021-01-24T08:21:02.000Z</time>
      </trkpt>
      <trkpt lat="46.53898" lon="0.34501">
        <ele>86.4</ele>
        <time>2021-01-24T08:21:03.000Z</time>
      </trkpt>
      <trkpt lat="46.53894" lon="0.34502">
        <ele>86.4</ele>
        <time>2021-01-24T08:21:04.000Z</time>
      </trkpt>
      <trkpt lat="46.5389" lon="0.34503">
        <ele>86.4</ele>
        <time>2021-01-24T08:21:05.000Z</time>
      </trkpt>
      <trkpt lat="46.53887" lon="0.34504">
        <ele>86.4</ele>
        <time>2021-01-24T08:21:06.000Z</time>
      </trkpt>
      <trkpt lat="46.53885" lon="0.34504">
        <ele>86.4</ele>
        <time>2021-01-24T08:21:07.000Z</time>
      </trkpt>
      <trkpt lat="46.53881" lon="0.34504">
        <ele>86.6</ele>
        <time>2021-01-24T08:21:08.000Z</time>
      </trkpt>
      <trkpt lat="46.53878" lon="0.34505">
        <ele>86.6</ele>
        <time>2021-01-24T08:21:09.000Z</time>
      </trkpt>
      <trkpt lat="46.53875" lon="0.34505">
        <ele>86.6</ele>
        <time>2021-01-24T08:21:10.000Z</time>
      </trkpt>
      <trkpt lat="46.53871" lon="0.34505">
        <ele>86.4</ele>
        <time>2021-01-24T08:21:11.000Z</time>
      </trkpt>
      <trkpt lat="46.53868" lon="0.34505">
        <ele>86.4</ele>
        <time>2021-01-24T08:21:12.000Z</time>
      </trkpt>
      <trkpt lat="46.53864" lon="0.34505">
        <ele>86.6</ele>
        <time>2021-01-24T08:21:13.000Z</time>
      </trkpt>
      <trkpt lat="46.53861" lon="0.34505">
        <ele>86.4</ele>
        <time>2021-01-24T08:21:14.000Z</time>
      </trkpt>
      <trkpt lat="46.53858" lon="0.34505">
        <ele>86.4</ele>
        <time>2021-01-24T08:21:15.000Z</time>
      </trkpt>
      <trkpt lat="46.53855" lon="0.34505">
        <ele>86.4</ele>
        <time>2021-01-24T08:21:16.000Z</time>
      </trkpt>
      <trkpt lat="46.53852" lon="0.34505">
        <ele>86.4</ele>
        <time>2021-01-24T08:21:17.000Z</time>
      </trkpt>
      <trkpt lat="46.53849" lon="0.34504">
        <ele>86.4</ele>
        <time>2021-01-24T08:21:18.000Z</time>
      </trkpt>
      <trkpt lat="46.53845" lon="0.34502">
        <ele>86.4</ele>
        <time>2021-01-24T08:21:19.000Z</time>
      </trkpt>
      <trkpt lat="46.53842" lon="0.34501">
        <ele>86.4</ele>
        <time>2021-01-24T08:21:20.000Z</time>
      </trkpt>
      <trkpt lat="46.53838" lon="0.34499">
        <ele>86.4</ele>
        <time>2021-01-24T08:21:21.000Z</time>
      </trkpt>
      <trkpt lat="46.53834" lon="0.34498">
        <ele>86.2</ele>
        <time>2021-01-24T08:21:22.000Z</time>
      </trkpt>
      <trkpt lat="46.5383" lon="0.34496">
        <ele>86.2</ele>
        <time>2021-01-24T08:21:23.000Z</time>
      </trkpt>
      <trkpt lat="46.53826" lon="0.34494">
        <ele>86.2</ele>
        <time>2021-01-24T08:21:24.000Z</time>
      </trkpt>
      <trkpt lat="46.53822" lon="0.34493">
        <ele>86.2</ele>
        <time>2021-01-24T08:21:25.000Z</time>
      </trkpt>
      <trkpt lat="46.53819" lon="0.34491">
        <ele>86.2</ele>
        <time>2021-01-24T08:21:26.000Z</time>
      </trkpt>
      <trkpt lat="46.53814" lon="0.3449">
        <ele>86.2</ele>
        <time>2021-01-24T08:21:27.000Z</time>
      </trkpt>
      <trkpt lat="46.5381" lon="0.34488">
        <ele>86.2</ele>
        <time>2021-01-24T08:21:28.000Z</time>
      </trkpt>
      <trkpt lat="46.53806" lon="0.34487">
        <ele>86.2</ele>
        <time>2021-01-24T08:21:29.000Z</time>
      </trkpt>
      <trkpt lat="46.53802" lon="0.34486">
        <ele>86.2</ele>
        <time>2021-01-24T08:21:30.000Z</time>
      </trkpt>
      <trkpt lat="46.53798" lon="0.34485">
        <ele>86.2</ele>
        <time>2021-01-24T08:21:31.000Z</time>
      </trkpt>
      <trkpt lat="46.53794" lon="0.34484">
        <ele>86.2</ele>
        <time>2021-01-24T08:21:32.000Z</time>
      </trkpt>
      <trkpt lat="46.5379" lon="0.34482">
        <ele>86.2</ele>
        <time>2021-01-24T08:21:33.000Z</time>
      </trkpt>
      <trkpt lat="46.53786" lon="0.34481">
        <ele>86.2</ele>
        <time>2021-01-24T08:21:34.000Z</time>
      </trkpt>
      <trkpt lat="46.53782" lon="0.3448">
        <ele>86.4</ele>
        <time>2021-01-24T08:21:35.000Z</time>
      </trkpt>
      <trkpt lat="46.53778" lon="0.34478">
        <ele>86.4</ele>
        <time>2021-01-24T08:21:36.000Z</time>
      </trkpt>
      <trkpt lat="46.53773" lon="0.34477">
        <ele>86.4</ele>
        <time>2021-01-24T08:21:37.000Z</time>
      </trkpt>
      <trkpt lat="46.53769" lon="0.34475">
        <ele>86.4</ele>
        <time>2021-01-24T08:21:38.000Z</time>
      </trkpt>
      <trkpt lat="46.53765" lon="0.34474">
        <ele>86.6</ele>
        <time>2021-01-24T08:21:39.000Z</time>
      </trkpt>
      <trkpt lat="46.5376" lon="0.34472">
        <ele>86.6</ele>
        <time>2021-01-24T08:21:40.000Z</time>
      </trkpt>
      <trkpt lat="46.53757" lon="0.34471">
        <ele>86.6</ele>
        <time>2021-01-24T08:21:41.000Z</time>
      </trkpt>
      <trkpt lat="46.53752" lon="0.3447">
        <ele>86.4</ele>
        <time>2021-01-24T08:21:42.000Z</time>
      </trkpt>
      <trkpt lat="46.53747" lon="0.34468">
        <ele>86.4</ele>
        <time>2021-01-24T08:21:43.000Z</time>
      </trkpt>
      <trkpt lat="46.53743" lon="0.34466">
        <ele>86.4</ele>
        <time>2021-01-24T08:21:44.000Z</time>
      </trkpt>
      <trkpt lat="46.53739" lon="0.34465">
        <ele>86.4</ele>
        <time>2021-01-24T08:21:45.000Z</time>
      </trkpt>
      <trkpt lat="46.53734" lon="0.34463">
        <ele>86.2</ele>
        <time>2021-01-24T08:21:46.000Z</time>
      </trkpt>
      <trkpt lat="46.5373" lon="0.34462">
        <ele>86.2</ele>
        <time>2021-01-24T08:21:47.000Z</time>
      </trkpt>
      <trkpt lat="46.53726" lon="0.3446">
        <ele>86.2</ele>
        <time>2021-01-24T08:21:48.000Z</time>
      </trkpt>
      <trkpt lat="46.53722" lon="0.34458">
        <ele>86.2</ele>
        <time>2021-01-24T08:21:49.000Z</time>
      </trkpt>
      <trkpt lat="46.53717" lon="0.34455">
        <ele>86</ele>
        <time>2021-01-24T08:21:50.000Z</time>
      </trkpt>
      <trkpt lat="46.53712" lon="0.34452">
        <ele>86</ele>
        <time>2021-01-24T08:21:51.000Z</time>
      </trkpt>
      <trkpt lat="46.53708" lon="0.34449">
        <ele>86</ele>
        <time>2021-01-24T08:21:52.000Z</time>
      </trkpt>
      <trkpt lat="46.53702" lon="0.34447">
        <ele>85.8</ele>
        <time>2021-01-24T08:21:53.000Z</time>
      </trkpt>
      <trkpt lat="46.53698" lon="0.34444">
        <ele>85.8</ele>
        <time>2021-01-24T08:21:54.000Z</time>
      </trkpt>
      <trkpt lat="46.53693" lon="0.34441">
        <ele>85.8</ele>
        <time>2021-01-24T08:21:55.000Z</time>
      </trkpt>
      <trkpt lat="46.53688" lon="0.34438">
        <ele>85.8</ele>
        <time>2021-01-24T08:21:56.000Z</time>
      </trkpt>
      <trkpt lat="46.53683" lon="0.34436">
        <ele>85.6</ele>
        <time>2021-01-24T08:21:57.000Z</time>
      </trkpt>
      <trkpt lat="46.53678" lon="0.34433">
        <ele>85.6</ele>
        <time>2021-01-24T08:21:58.000Z</time>
      </trkpt>
      <trkpt lat="46.53673" lon="0.34431">
        <ele>85.6</ele>
        <time>2021-01-24T08:21:59.000Z</time>
      </trkpt>
      <trkpt lat="46.53669" lon="0.34429">
        <ele>85.6</ele>
        <time>2021-01-24T08:22:00.000Z</time>
      </trkpt>
      <trkpt lat="46.53664" lon="0.34427">
        <ele>85.6</ele>
        <time>2021-01-24T08:22:01.000Z</time>
      </trkpt>
      <trkpt lat="46.53658" lon="0.34424">
        <ele>85.4</ele>
        <time>2021-01-24T08:22:02.000Z</time>
      </trkpt>
      <trkpt lat="46.53653" lon="0.34422">
        <ele>85.4</ele>
        <time>2021-01-24T08:22:03.000Z</time>
      </trkpt>
      <trkpt lat="46.53648" lon="0.3442">
        <ele>85.4</ele>
        <time>2021-01-24T08:22:04.000Z</time>
      </trkpt>
      <trkpt lat="46.53643" lon="0.34418">
        <ele>85.2</ele>
        <time>2021-01-24T08:22:05.000Z</time>
      </trkpt>
      <trkpt lat="46.53638" lon="0.34416">
        <ele>85.2</ele>
        <time>2021-01-24T08:22:06.000Z</time>
      </trkpt>
      <trkpt lat="46.53633" lon="0.34415">
        <ele>85.2</ele>
        <time>2021-01-24T08:22:07.000Z</time>
      </trkpt>
      <trkpt lat="46.53627" lon="0.34413">
        <ele>85.2</ele>
        <time>2021-01-24T08:22:08.000Z</time>
      </trkpt>
      <trkpt lat="46.53622" lon="0.34412">
        <ele>85</ele>
        <time>2021-01-24T08:22:09.000Z</time>
      </trkpt>
      <trkpt lat="46.53616" lon="0.34411">
        <ele>85</ele>
        <time>2021-01-24T08:22:10.000Z</time>
      </trkpt>
      <trkpt lat="46.5361" lon="0.34411">
        <ele>84.8</ele>
        <time>2021-01-24T08:22:11.000Z</time>
      </trkpt>
      <trkpt lat="46.53605" lon="0.34411">
        <ele>84.8</ele>
        <time>2021-01-24T08:22:12.000Z</time>
      </trkpt>
      <trkpt lat="46.53599" lon="0.34411">
        <ele>84.6</ele>
        <time>2021-01-24T08:22:13.000Z</time>
      </trkpt>
      <trkpt lat="46.53594" lon="0.34412">
        <ele>84.6</ele>
        <time>2021-01-24T08:22:14.000Z</time>
      </trkpt>
      <trkpt lat="46.53588" lon="0.34412">
        <ele>84.6</ele>
        <time>2021-01-24T08:22:15.000Z</time>
      </trkpt>
      <trkpt lat="46.53583" lon="0.34411">
        <ele>84.4</ele>
        <time>2021-01-24T08:22:16.000Z</time>
      </trkpt>
      <trkpt lat="46.53577" lon="0.3441">
        <ele>84.4</ele>
        <time>2021-01-24T08:22:17.000Z</time>
      </trkpt>
      <trkpt lat="46.53573" lon="0.34408">
        <ele>84.4</ele>
        <time>2021-01-24T08:22:18.000Z</time>
      </trkpt>
      <trkpt lat="46.53568" lon="0.34405">
        <ele>84.2</ele>
        <time>2021-01-24T08:22:19.000Z</time>
      </trkpt>
      <trkpt lat="46.53564" lon="0.34402">
        <ele>84</ele>
        <time>2021-01-24T08:22:20.000Z</time>
      </trkpt>
      <trkpt lat="46.53559" lon="0.34398">
        <ele>84</ele>
        <time>2021-01-24T08:22:21.000Z</time>
      </trkpt>
      <trkpt lat="46.53555" lon="0.34394">
        <ele>84</ele>
        <time>2021-01-24T08:22:22.000Z</time>
      </trkpt>
      <trkpt lat="46.53551" lon="0.34391">
        <ele>84</ele>
        <time>2021-01-24T08:22:23.000Z</time>
      </trkpt>
      <trkpt lat="46.53547" lon="0.34387">
        <ele>84</ele>
        <time>2021-01-24T08:22:24.000Z</time>
      </trkpt>
      <trkpt lat="46.53543" lon="0.34383">
        <ele>84</ele>
        <time>2021-01-24T08:22:25.000Z</time>
      </trkpt>
      <trkpt lat="46.53539" lon="0.3438">
        <ele>83.8</ele>
        <time>2021-01-24T08:22:26.000Z</time>
      </trkpt>
      <trkpt lat="46.53534" lon="0.34377">
        <ele>83.8</ele>
        <time>2021-01-24T08:22:27.000Z</time>
      </trkpt>
      <trkpt lat="46.5353" lon="0.34374">
        <ele>83.8</ele>
        <time>2021-01-24T08:22:28.000Z</time>
      </trkpt>
      <trkpt lat="46.53525" lon="0.34372">
        <ele>83.8</ele>
        <time>2021-01-24T08:22:29.000Z</time>
      </trkpt>
      <trkpt lat="46.53521" lon="0.3437">
        <ele>83.8</ele>
        <time>2021-01-24T08:22:30.000Z</time>
      </trkpt>
      <trkpt lat="46.53517" lon="0.34368">
        <ele>83.6</ele>
        <time>2021-01-24T08:22:31.000Z</time>
      </trkpt>
      <trkpt lat="46.53512" lon="0.34366">
        <ele>83.6</ele>
        <time>2021-01-24T08:22:32.000Z</time>
      </trkpt>
      <trkpt lat="46.53508" lon="0.34365">
        <ele>83.6</ele>
        <time>2021-01-24T08:22:33.000Z</time>
      </trkpt>
      <trkpt lat="46.53503" lon="0.34363">
        <ele>83.6</ele>
        <time>2021-01-24T08:22:34.000Z</time>
      </trkpt>
      <trkpt lat="46.53499" lon="0.34362">
        <ele>83.6</ele>
        <time>2021-01-24T08:22:35.000Z</time>
      </trkpt>
      <trkpt lat="46.53494" lon="0.3436">
        <ele>83.6</ele>
        <time>2021-01-24T08:22:36.000Z</time>
      </trkpt>
      <trkpt lat="46.5349" lon="0.34358">
        <ele>83.6</ele>
        <time>2021-01-24T08:22:37.000Z</time>
      </trkpt>
      <trkpt lat="46.53485" lon="0.34356">
        <ele>83.6</ele>
        <time>2021-01-24T08:22:38.000Z</time>
      </trkpt>
      <trkpt lat="46.53481" lon="0.34354">
        <ele>83.6</ele>
        <time>2021-01-24T08:22:39.000Z</time>
      </trkpt>
      <trkpt lat="46.53477" lon="0.34353">
        <ele>83.6</ele>
        <time>2021-01-24T08:22:40.000Z</time>
      </trkpt>
      <trkpt lat="46.53471" lon="0.34352">
        <ele>83.6</ele>
        <time>2021-01-24T08:22:41.000Z</time>
      </trkpt>
      <trkpt lat="46.53467" lon="0.3435">
        <ele>83.6</ele>
        <time>2021-01-24T08:22:42.000Z</time>
      </trkpt>
      <trkpt lat="46.53463" lon="0.34349">
        <ele>83.6</ele>
        <time>2021-01-24T08:22:43.000Z</time>
      </trkpt>
      <trkpt lat="46.53459" lon="0.34347">
        <ele>83.6</ele>
        <time>2021-01-24T08:22:44.000Z</time>
      </trkpt>
      <trkpt lat="46.53454" lon="0.34346">
        <ele>83.6</ele>
        <time>2021-01-24T08:22:45.000Z</time>
      </trkpt>
      <trkpt lat="46.5345" lon="0.34345">
        <ele>83.6</ele>
        <time>2021-01-24T08:22:46.000Z</time>
      </trkpt>
      <trkpt lat="46.53445" lon="0.34344">
        <ele>83.8</ele>
        <time>2021-01-24T08:22:47.000Z</time>
      </trkpt>
      <trkpt lat="46.5344" lon="0.34343">
        <ele>83.8</ele>
        <time>2021-01-24T08:22:48.000Z</time>
      </trkpt>
      <trkpt lat="46.53436" lon="0.34344">
        <ele>83.8</ele>
        <time>2021-01-24T08:22:49.000Z</time>
      </trkpt>
      <trkpt lat="46.53431" lon="0.34345">
        <ele>83.8</ele>
        <time>2021-01-24T08:22:50.000Z</time>
      </trkpt>
      <trkpt lat="46.53426" lon="0.34345">
        <ele>84</ele>
        <time>2021-01-24T08:22:51.000Z</time>
      </trkpt>
      <trkpt lat="46.53421" lon="0.34345">
        <ele>84</ele>
        <time>2021-01-24T08:22:52.000Z</time>
      </trkpt>
      <trkpt lat="46.53417" lon="0.34346">
        <ele>84</ele>
        <time>2021-01-24T08:22:53.000Z</time>
      </trkpt>
      <trkpt lat="46.53412" lon="0.34345">
        <ele>84.2</ele>
        <time>2021-01-24T08:22:54.000Z</time>
      </trkpt>
      <trkpt lat="46.53407" lon="0.34344">
        <ele>84.2</ele>
        <time>2021-01-24T08:22:55.000Z</time>
      </trkpt>
      <trkpt lat="46.53402" lon="0.34342">
        <ele>84.4</ele>
        <time>2021-01-24T08:22:56.000Z</time>
      </trkpt>
      <trkpt lat="46.53397" lon="0.3434">
        <ele>84.4</ele>
        <time>2021-01-24T08:22:57.000Z</time>
      </trkpt>
      <trkpt lat="46.53391" lon="0.34338">
        <ele>84.4</ele>
        <time>2021-01-24T08:22:58.000Z</time>
      </trkpt>
      <trkpt lat="46.53386" lon="0.34336">
        <ele>84.4</ele>
        <time>2021-01-24T08:22:59.000Z</time>
      </trkpt>
      <trkpt lat="46.53382" lon="0.34335">
        <ele>84.6</ele>
        <time>2021-01-24T08:23:00.000Z</time>
      </trkpt>
      <trkpt lat="46.53379" lon="0.34336">
        <ele>84.6</ele>
        <time>2021-01-24T08:23:01.000Z</time>
      </trkpt>
      <trkpt lat="46.53376" lon="0.34337">
        <ele>84.6</ele>
        <time>2021-01-24T08:23:02.000Z</time>
      </trkpt>
      <trkpt lat="46.53374" lon="0.3434">
        <ele>84.8</ele>
        <time>2021-01-24T08:23:03.000Z</time>
      </trkpt>
      <trkpt lat="46.53372" lon="0.34343">
        <ele>84.8</ele>
        <time>2021-01-24T08:23:04.000Z</time>
      </trkpt>
      <trkpt lat="46.53369" lon="0.34347">
        <ele>84.8</ele>
        <time>2021-01-24T08:23:05.000Z</time>
      </trkpt>
      <trkpt lat="46.53366" lon="0.34351">
        <ele>85</ele>
        <time>2021-01-24T08:23:06.000Z</time>
      </trkpt>
      <trkpt lat="46.53364" lon="0.34355">
        <ele>85</ele>
        <time>2021-01-24T08:23:07.000Z</time>
      </trkpt>
      <trkpt lat="46.53361" lon="0.34358">
        <ele>85</ele>
        <time>2021-01-24T08:23:08.000Z</time>
      </trkpt>
      <trkpt lat="46.53358" lon="0.34362">
        <ele>85</ele>
        <time>2021-01-24T08:23:09.000Z</time>
      </trkpt>
      <trkpt lat="46.53355" lon="0.34366">
        <ele>85.2</ele>
        <time>2021-01-24T08:23:10.000Z</time>
      </trkpt>
      <trkpt lat="46.53352" lon="0.34369">
        <ele>85.2</ele>
        <time>2021-01-24T08:23:11.000Z</time>
      </trkpt>
      <trkpt lat="46.53348" lon="0.34371">
        <ele>85.2</ele>
        <time>2021-01-24T08:23:12.000Z</time>
      </trkpt>
      <trkpt lat="46.53344" lon="0.34373">
        <ele>85.2</ele>
        <time>2021-01-24T08:23:13.000Z</time>
      </trkpt>
      <trkpt lat="46.53341" lon="0.34374">
        <ele>85.4</ele>
        <time>2021-01-24T08:23:14.000Z</time>
      </trkpt>
      <trkpt lat="46.53337" lon="0.34375">
        <ele>85.4</ele>
        <time>2021-01-24T08:23:15.000Z</time>
      </trkpt>
      <trkpt lat="46.53334" lon="0.34377">
        <ele>85.4</ele>
        <time>2021-01-24T08:23:16.000Z</time>
      </trkpt>
      <trkpt lat="46.5333" lon="0.34378">
        <ele>85.2</ele>
        <time>2021-01-24T08:23:17.000Z</time>
      </trkpt>
      <trkpt lat="46.53326" lon="0.34379">
        <ele>85.2</ele>
        <time>2021-01-24T08:23:18.000Z</time>
      </trkpt>
      <trkpt lat="46.53323" lon="0.3438">
        <ele>85.2</ele>
        <time>2021-01-24T08:23:19.000Z</time>
      </trkpt>
      <trkpt lat="46.5332" lon="0.34382">
        <ele>85.2</ele>
        <time>2021-01-24T08:23:20.000Z</time>
      </trkpt>
      <trkpt lat="46.53316" lon="0.34383">
        <ele>85.2</ele>
        <time>2021-01-24T08:23:21.000Z</time>
      </trkpt>
      <trkpt lat="46.53313" lon="0.34384">
        <ele>85.2</ele>
        <time>2021-01-24T08:23:22.000Z</time>
      </trkpt>
      <trkpt lat="46.53309" lon="0.34385">
        <ele>85.4</ele>
        <time>2021-01-24T08:23:23.000Z</time>
      </trkpt>
      <trkpt lat="46.53305" lon="0.34386">
        <ele>85.4</ele>
        <time>2021-01-24T08:23:24.000Z</time>
      </trkpt>
      <trkpt lat="46.53302" lon="0.34387">
        <ele>85.4</ele>
        <time>2021-01-24T08:23:25.000Z</time>
      </trkpt>
      <trkpt lat="46.53298" lon="0.34387">
        <ele>85.6</ele>
        <time>2021-01-24T08:23:26.000Z</time>
      </trkpt>
      <trkpt lat="46.53294" lon="0.34387">
        <ele>85.6</ele>
        <time>2021-01-24T08:23:27.000Z</time>
      </trkpt>
      <trkpt lat="46.53291" lon="0.34388">
        <ele>85.6</ele>
        <time>2021-01-24T08:23:28.000Z</time>
      </trkpt>
      <trkpt lat="46.53288" lon="0.34389">
        <ele>85.6</ele>
        <time>2021-01-24T08:23:29.000Z</time>
      </trkpt>
      <trkpt lat="46.53285" lon="0.3439">
        <ele>85.8</ele>
        <time>2021-01-24T08:23:30.000Z</time>
      </trkpt>
      <trkpt lat="46.53281" lon="0.3439">
        <ele>85.8</ele>
        <time>2021-01-24T08:23:31.000Z</time>
      </trkpt>
      <trkpt lat="46.53278" lon="0.34391">
        <ele>86</ele>
        <time>2021-01-24T08:23:32.000Z</time>
      </trkpt>
      <trkpt lat="46.53275" lon="0.34391">
        <ele>86</ele>
        <time>2021-01-24T08:23:33.000Z</time>
      </trkpt>
      <trkpt lat="46.53271" lon="0.34391">
        <ele>86</ele>
        <time>2021-01-24T08:23:34.000Z</time>
      </trkpt>
      <trkpt lat="46.53267" lon="0.34391">
        <ele>86</ele>
        <time>2021-01-24T08:23:35.000Z</time>
      </trkpt>
      <trkpt lat="46.53264" lon="0.34391">
        <ele>86</ele>
        <time>2021-01-24T08:23:36.000Z</time>
      </trkpt>
      <trkpt lat="46.53261" lon="0.34391">
        <ele>86</ele>
        <time>2021-01-24T08:23:37.000Z</time>
      </trkpt>
      <trkpt lat="46.53258" lon="0.34391">
        <ele>86</ele>
        <time>2021-01-24T08:23:38.000Z</time>
      </trkpt>
      <trkpt lat="46.53255" lon="0.34391">
        <ele>86</ele>
        <time>2021-01-24T08:23:39.000Z</time>
      </trkpt>
      <trkpt lat="46.53252" lon="0.34391">
        <ele>86.2</ele>
        <time>2021-01-24T08:23:40.000Z</time>
      </trkpt>
      <trkpt lat="46.53249" lon="0.34391">
        <ele>86.2</ele>
        <time>2021-01-24T08:23:41.000Z</time>
      </trkpt>
      <trkpt lat="46.53246" lon="0.3439">
        <ele>86.4</ele>
        <time>2021-01-24T08:23:42.000Z</time>
      </trkpt>
      <trkpt lat="46.53244" lon="0.34389">
        <ele>86.4</ele>
        <time>2021-01-24T08:23:43.000Z</time>
      </trkpt>
      <trkpt lat="46.53241" lon="0.34389">
        <ele>86.6</ele>
        <time>2021-01-24T08:23:44.000Z</time>
      </trkpt>
      <trkpt lat="46.53238" lon="0.34388">
        <ele>86.6</ele>
        <time>2021-01-24T08:23:45.000Z</time>
      </trkpt>
      <trkpt lat="46.53235" lon="0.34387">
        <ele>86.8</ele>
        <time>2021-01-24T08:23:46.000Z</time>
      </trkpt>
      <trkpt lat="46.53233" lon="0.34386">
        <ele>86.8</ele>
        <time>2021-01-24T08:23:47.000Z</time>
      </trkpt>
      <trkpt lat="46.5323" lon="0.34385">
        <ele>86.8</ele>
        <time>2021-01-24T08:23:48.000Z</time>
      </trkpt>
      <trkpt lat="46.53228" lon="0.34383">
        <ele>87</ele>
        <time>2021-01-24T08:23:49.000Z</time>
      </trkpt>
      <trkpt lat="46.53225" lon="0.34382">
        <ele>87.2</ele>
        <time>2021-01-24T08:23:50.000Z</time>
      </trkpt>
      <trkpt lat="46.53221" lon="0.34381">
        <ele>87.2</ele>
        <time>2021-01-24T08:23:51.000Z</time>
      </trkpt>
      <trkpt lat="46.53219" lon="0.3438">
        <ele>87.4</ele>
        <time>2021-01-24T08:23:52.000Z</time>
      </trkpt>
      <trkpt lat="46.53217" lon="0.34379">
        <ele>87.6</ele>
        <time>2021-01-24T08:23:53.000Z</time>
      </trkpt>
      <trkpt lat="46.53213" lon="0.34377">
        <ele>87.6</ele>
        <time>2021-01-24T08:23:54.000Z</time>
      </trkpt>
      <trkpt lat="46.53211" lon="0.34376">
        <ele>87.8</ele>
        <time>2021-01-24T08:23:55.000Z</time>
      </trkpt>
      <trkpt lat="46.53208" lon="0.34375">
        <ele>87.8</ele>
        <time>2021-01-24T08:23:56.000Z</time>
      </trkpt>
      <trkpt lat="46.53205" lon="0.34374">
        <ele>87.8</ele>
        <time>2021-01-24T08:23:57.000Z</time>
      </trkpt>
      <trkpt lat="46.53202" lon="0.34373">
        <ele>88</ele>
        <time>2021-01-24T08:23:58.000Z</time>
      </trkpt>
      <trkpt lat="46.53199" lon="0.34371">
        <ele>88</ele>
        <time>2021-01-24T08:23:59.000Z</time>
      </trkpt>
      <trkpt lat="46.53196" lon="0.3437">
        <ele>88.2</ele>
        <time>2021-01-24T08:24:00.000Z</time>
      </trkpt>
      <trkpt lat="46.53193" lon="0.34368">
        <ele>88.2</ele>
        <time>2021-01-24T08:24:01.000Z</time>
      </trkpt>
      <trkpt lat="46.5319" lon="0.34367">
        <ele>88.2</ele>
        <time>2021-01-24T08:24:02.000Z</time>
      </trkpt>
      <trkpt lat="46.53187" lon="0.34365">
        <ele>88.4</ele>
        <time>2021-01-24T08:24:03.000Z</time>
      </trkpt>
      <trkpt lat="46.53185" lon="0.34365">
        <ele>88.4</ele>
        <time>2021-01-24T08:24:04.000Z</time>
      </trkpt>
      <trkpt lat="46.53182" lon="0.34364">
        <ele>88.4</ele>
        <time>2021-01-24T08:24:05.000Z</time>
      </trkpt>
      <trkpt lat="46.5318" lon="0.34362">
        <ele>88.6</ele>
        <time>2021-01-24T08:24:06.000Z</time>
      </trkpt>
      <trkpt lat="46.53177" lon="0.3436">
        <ele>88.6</ele>
        <time>2021-01-24T08:24:07.000Z</time>
      </trkpt>
      <trkpt lat="46.53174" lon="0.34358">
        <ele>88.6</ele>
        <time>2021-01-24T08:24:08.000Z</time>
      </trkpt>
      <trkpt lat="46.53172" lon="0.34356">
        <ele>88.6</ele>
        <time>2021-01-24T08:24:09.000Z</time>
      </trkpt>
      <trkpt lat="46.53169" lon="0.34354">
        <ele>88.6</ele>
        <time>2021-01-24T08:24:10.000Z</time>
      </trkpt>
      <trkpt lat="46.53165" lon="0.34352">
        <ele>88.8</ele>
        <time>2021-01-24T08:24:11.000Z</time>
      </trkpt>
      <trkpt lat="46.53162" lon="0.3435">
        <ele>88.8</ele>
        <time>2021-01-24T08:24:12.000Z</time>
      </trkpt>
      <trkpt lat="46.53159" lon="0.34348">
        <ele>88.8</ele>
        <time>2021-01-24T08:24:13.000Z</time>
      </trkpt>
      <trkpt lat="46.53156" lon="0.34347">
        <ele>88.8</ele>
        <time>2021-01-24T08:24:14.000Z</time>
      </trkpt>
      <trkpt lat="46.53152" lon="0.34345">
        <ele>88.8</ele>
        <time>2021-01-24T08:24:15.000Z</time>
      </trkpt>
      <trkpt lat="46.53149" lon="0.34343">
        <ele>88.8</ele>
        <time>2021-01-24T08:24:16.000Z</time>
      </trkpt>
      <trkpt lat="46.53146" lon="0.34342">
        <ele>88.8</ele>
        <time>2021-01-24T08:24:17.000Z</time>
      </trkpt>
      <trkpt lat="46.53142" lon="0.3434">
        <ele>88.8</ele>
        <time>2021-01-24T08:24:18.000Z</time>
      </trkpt>
      <trkpt lat="46.53139" lon="0.34338">
        <ele>89</ele>
        <time>2021-01-24T08:24:19.000Z</time>
      </trkpt>
      <trkpt lat="46.53136" lon="0.34337">
        <ele>89</ele>
        <time>2021-01-24T08:24:20.000Z</time>
      </trkpt>
      <trkpt lat="46.53132" lon="0.34336">
        <ele>88.8</ele>
        <time>2021-01-24T08:24:21.000Z</time>
      </trkpt>
      <trkpt lat="46.53129" lon="0.34336">
        <ele>88.8</ele>
        <time>2021-01-24T08:24:22.000Z</time>
      </trkpt>
      <trkpt lat="46.53125" lon="0.34335">
        <ele>88.8</ele>
        <time>2021-01-24T08:24:23.000Z</time>
      </trkpt>
      <trkpt lat="46.53122" lon="0.34335">
        <ele>88.8</ele>
        <time>2021-01-24T08:24:24.000Z</time>
      </trkpt>
      <trkpt lat="46.53118" lon="0.34336">
        <ele>88.8</ele>
        <time>2021-01-24T08:24:25.000Z</time>
      </trkpt>
      <trkpt lat="46.53115" lon="0.34336">
        <ele>88.8</ele>
        <time>2021-01-24T08:24:26.000Z</time>
      </trkpt>
      <trkpt lat="46.53112" lon="0.34337">
        <ele>88.8</ele>
        <time>2021-01-24T08:24:27.000Z</time>
      </trkpt>
      <trkpt lat="46.53109" lon="0.34338">
        <ele>88.8</ele>
        <time>2021-01-24T08:24:28.000Z</time>
      </trkpt>
      <trkpt lat="46.53106" lon="0.34339">
        <ele>88.8</ele>
        <time>2021-01-24T08:24:29.000Z</time>
      </trkpt>
      <trkpt lat="46.53102" lon="0.3434">
        <ele>88.6</ele>
        <time>2021-01-24T08:24:30.000Z</time>
      </trkpt>
      <trkpt lat="46.53099" lon="0.34341">
        <ele>88.8</ele>
        <time>2021-01-24T08:24:31.000Z</time>
      </trkpt>
      <trkpt lat="46.53096" lon="0.34342">
        <ele>88.8</ele>
        <time>2021-01-24T08:24:32.000Z</time>
      </trkpt>
      <trkpt lat="46.53092" lon="0.34343">
        <ele>88.8</ele>
        <time>2021-01-24T08:24:33.000Z</time>
      </trkpt>
      <trkpt lat="46.53089" lon="0.34344">
        <ele>88.8</ele>
        <time>2021-01-24T08:24:34.000Z</time>
      </trkpt>
      <trkpt lat="46.53086" lon="0.34345">
        <ele>88.8</ele>
        <time>2021-01-24T08:24:35.000Z</time>
      </trkpt>
      <trkpt lat="46.53083" lon="0.34346">
        <ele>89</ele>
        <time>2021-01-24T08:24:36.000Z</time>
      </trkpt>
      <trkpt lat="46.53079" lon="0.34346">
        <ele>89</ele>
        <time>2021-01-24T08:24:37.000Z</time>
      </trkpt>
      <trkpt lat="46.53076" lon="0.34347">
        <ele>89</ele>
        <time>2021-01-24T08:24:38.000Z</time>
      </trkpt>
      <trkpt lat="46.53072" lon="0.34347">
        <ele>89.2</ele>
        <time>2021-01-24T08:24:39.000Z</time>
      </trkpt>
      <trkpt lat="46.53069" lon="0.34348">
        <ele>89.2</ele>
        <time>2021-01-24T08:24:40.000Z</time>
      </trkpt>
      <trkpt lat="46.53065" lon="0.34348">
        <ele>89.2</ele>
        <time>2021-01-24T08:24:41.000Z</time>
      </trkpt>
      <trkpt lat="46.53061" lon="0.34347">
        <ele>89.2</ele>
        <time>2021-01-24T08:24:42.000Z</time>
      </trkpt>
      <trkpt lat="46.53058" lon="0.34347">
        <ele>89.2</ele>
        <time>2021-01-24T08:24:43.000Z</time>
      </trkpt>
      <trkpt lat="46.53053" lon="0.34346">
        <ele>89.4</ele>
        <time>2021-01-24T08:24:44.000Z</time>
      </trkpt>
      <trkpt lat="46.5305" lon="0.34345">
        <ele>89.4</ele>
        <time>2021-01-24T08:24:45.000Z</time>
      </trkpt>
      <trkpt lat="46.53046" lon="0.34343">
        <ele>89.4</ele>
        <time>2021-01-24T08:24:46.000Z</time>
      </trkpt>
      <trkpt lat="46.53042" lon="0.34342">
        <ele>89.4</ele>
        <time>2021-01-24T08:24:47.000Z</time>
      </trkpt>
      <trkpt lat="46.53038" lon="0.34341">
        <ele>89.4</ele>
        <time>2021-01-24T08:24:48.000Z</time>
      </trkpt>
      <trkpt lat="46.53035" lon="0.3434">
        <ele>89.4</ele>
        <time>2021-01-24T08:24:49.000Z</time>
      </trkpt>
      <trkpt lat="46.53031" lon="0.3434">
        <ele>89.4</ele>
        <time>2021-01-24T08:24:50.000Z</time>
      </trkpt>
      <trkpt lat="46.53027" lon="0.34339">
        <ele>89.4</ele>
        <time>2021-01-24T08:24:51.000Z</time>
      </trkpt>
      <trkpt lat="46.53024" lon="0.34338">
        <ele>89.4</ele>
        <time>2021-01-24T08:24:52.000Z</time>
      </trkpt>
      <trkpt lat="46.5302" lon="0.34338">
        <ele>89.4</ele>
        <time>2021-01-24T08:24:53.000Z</time>
      </trkpt>
      <trkpt lat="46.53016" lon="0.34338">
        <ele>89.4</ele>
        <time>2021-01-24T08:24:54.000Z</time>
      </trkpt>
      <trkpt lat="46.53012" lon="0.34338">
        <ele>89.6</ele>
        <time>2021-01-24T08:24:55.000Z</time>
      </trkpt>
      <trkpt lat="46.53008" lon="0.34337">
        <ele>89.6</ele>
        <time>2021-01-24T08:24:56.000Z</time>
      </trkpt>
      <trkpt lat="46.53004" lon="0.34337">
        <ele>89.6</ele>
        <time>2021-01-24T08:24:57.000Z</time>
      </trkpt>
      <trkpt lat="46.53" lon="0.34337">
        <ele>89.6</ele>
        <time>2021-01-24T08:24:58.000Z</time>
      </trkpt>
      <trkpt lat="46.52997" lon="0.34337">
        <ele>89.8</ele>
        <time>2021-01-24T08:24:59.000Z</time>
      </trkpt>
      <trkpt lat="46.52994" lon="0.34337">
        <ele>89.8</ele>
        <time>2021-01-24T08:25:00.000Z</time>
      </trkpt>
      <trkpt lat="46.52994" lon="0.34337">
        <ele>89.8</ele>
        <time>2021-01-24T08:25:01.000Z</time>
      </trkpt>
      <trkpt lat="46.52992" lon="0.34338">
        <ele>89.6</ele>
        <time>2021-01-24T08:25:02.000Z</time>
      </trkpt>
      <trkpt lat="46.52992" lon="0.34338">
        <ele>89.6</ele>
        <time>2021-01-24T08:25:03.000Z</time>
      </trkpt>
      <trkpt lat="46.52992" lon="0.34338">
        <ele>89.6</ele>
        <time>2021-01-24T08:25:04.000Z</time>
      </trkpt>
      <trkpt lat="46.52992" lon="0.34338">
        <ele>89.4</ele>
        <time>2021-01-24T08:25:05.000Z</time>
      </trkpt>
      <trkpt lat="46.52992" lon="0.34338">
        <ele>89.4</ele>
        <time>2021-01-24T08:25:06.000Z</time>
      </trkpt>
      <trkpt lat="46.52992" lon="0.34338">
        <ele>89.4</ele>
        <time>2021-01-24T08:25:07.000Z</time>
      </trkpt>
      <trkpt lat="46.52992" lon="0.34338">
        <ele>89.4</ele>
        <time>2021-01-24T08:25:08.000Z</time>
      </trkpt>
      <trkpt lat="46.52992" lon="0.34338">
        <ele>89.4</ele>
        <time>2021-01-24T08:25:09.000Z</time>
      </trkpt>
      <trkpt lat="46.52992" lon="0.34338">
        <ele>89.4</ele>
        <time>2021-01-24T08:25:10.000Z</time>
      </trkpt>
      <trkpt lat="46.52992" lon="0.34338">
        <ele>89.4</ele>
        <time>2021-01-24T08:25:11.000Z</time>
      </trkpt>
      <trkpt lat="46.52992" lon="0.34338">
        <ele>89.4</ele>
        <time>2021-01-24T08:25:12.000Z</time>
      </trkpt>
      <trkpt lat="46.52992" lon="0.34338">
        <ele>89.4</ele>
        <time>2021-01-24T08:25:13.000Z</time>
      </trkpt>
      <trkpt lat="46.52992" lon="0.34338">
        <ele>89.2</ele>
        <time>2021-01-24T08:25:14.000Z</time>
      </trkpt>
      <trkpt lat="46.52992" lon="0.34338">
        <ele>89.2</ele>
        <time>2021-01-24T08:25:15.000Z</time>
      </trkpt>
      <trkpt lat="46.52992" lon="0.34338">
        <ele>89.2</ele>
        <time>2021-01-24T08:25:16.000Z</time>
      </trkpt>
      <trkpt lat="46.52992" lon="0.34338">
        <ele>89.4</ele>
        <time>2021-01-24T08:25:17.000Z</time>
      </trkpt>
      <trkpt lat="46.52992" lon="0.34338">
        <ele>89.4</ele>
        <time>2021-01-24T08:25:18.000Z</time>
      </trkpt>
      <trkpt lat="46.52992" lon="0.34338">
        <ele>89.4</ele>
        <time>2021-01-24T08:25:19.000Z</time>
      </trkpt>
      <trkpt lat="46.52992" lon="0.34338">
        <ele>89.2</ele>
        <time>2021-01-24T08:25:20.000Z</time>
      </trkpt>
      <trkpt lat="46.52992" lon="0.34338">
        <ele>89.2</ele>
        <time>2021-01-24T08:25:21.000Z</time>
      </trkpt>
      <trkpt lat="46.52992" lon="0.34338">
        <ele>89.2</ele>
        <time>2021-01-24T08:25:22.000Z</time>
      </trkpt>
      <trkpt lat="46.52992" lon="0.34338">
        <ele>89.2</ele>
        <time>2021-01-24T08:25:23.000Z</time>
      </trkpt>
      <trkpt lat="46.52992" lon="0.34338">
        <ele>89.2</ele>
        <time>2021-01-24T08:25:24.000Z</time>
      </trkpt>
      <trkpt lat="46.52992" lon="0.34338">
        <ele>89.2</ele>
        <time>2021-01-24T08:25:25.000Z</time>
      </trkpt>
      <trkpt lat="46.52992" lon="0.34338">
        <ele>89.2</ele>
        <time>2021-01-24T08:25:26.000Z</time>
      </trkpt>
      <trkpt lat="46.5299" lon="0.34336">
        <ele>89.2</ele>
        <time>2021-01-24T08:25:27.000Z</time>
      </trkpt>
      <trkpt lat="46.52989" lon="0.34333">
        <ele>89.2</ele>
        <time>2021-01-24T08:25:28.000Z</time>
      </trkpt>
      <trkpt lat="46.52988" lon="0.3433">
        <ele>89.2</ele>
        <time>2021-01-24T08:25:29.000Z</time>
      </trkpt>
      <trkpt lat="46.52986" lon="0.34327">
        <ele>89.2</ele>
        <time>2021-01-24T08:25:30.000Z</time>
      </trkpt>
      <trkpt lat="46.52985" lon="0.34322">
        <ele>89.2</ele>
        <time>2021-01-24T08:25:31.000Z</time>
      </trkpt>
      <trkpt lat="46.52984" lon="0.34318">
        <ele>89.2</ele>
        <time>2021-01-24T08:25:32.000Z</time>
      </trkpt>
      <trkpt lat="46.52982" lon="0.34313">
        <ele>89.2</ele>
        <time>2021-01-24T08:25:33.000Z</time>
      </trkpt>
      <trkpt lat="46.52981" lon="0.34309">
        <ele>89.2</ele>
        <time>2021-01-24T08:25:34.000Z</time>
      </trkpt>
      <trkpt lat="46.52978" lon="0.34305">
        <ele>89.2</ele>
        <time>2021-01-24T08:25:35.000Z</time>
      </trkpt>
      <trkpt lat="46.52976" lon="0.34301">
        <ele>89.2</ele>
        <time>2021-01-24T08:25:36.000Z</time>
      </trkpt>
      <trkpt lat="46.52974" lon="0.34298">
        <ele>89</ele>
        <time>2021-01-24T08:25:37.000Z</time>
      </trkpt>
      <trkpt lat="46.52972" lon="0.34294">
        <ele>89</ele>
        <time>2021-01-24T08:25:38.000Z</time>
      </trkpt>
      <trkpt lat="46.52969" lon="0.3429">
        <ele>89</ele>
        <time>2021-01-24T08:25:39.000Z</time>
      </trkpt>
      <trkpt lat="46.52966" lon="0.34285">
        <ele>88.8</ele>
        <time>2021-01-24T08:25:40.000Z</time>
      </trkpt>
      <trkpt lat="46.52964" lon="0.34281">
        <ele>88.8</ele>
        <time>2021-01-24T08:25:41.000Z</time>
      </trkpt>
      <trkpt lat="46.52961" lon="0.34277">
        <ele>88.6</ele>
        <time>2021-01-24T08:25:42.000Z</time>
      </trkpt>
      <trkpt lat="46.52958" lon="0.34272">
        <ele>88.8</ele>
        <time>2021-01-24T08:25:43.000Z</time>
      </trkpt>
      <trkpt lat="46.52956" lon="0.34267">
        <ele>88.6</ele>
        <time>2021-01-24T08:25:44.000Z</time>
      </trkpt>
      <trkpt lat="46.52955" lon="0.34262">
        <ele>88.8</ele>
        <time>2021-01-24T08:25:45.000Z</time>
      </trkpt>
      <trkpt lat="46.52953" lon="0.34256">
        <ele>88.8</ele>
        <time>2021-01-24T08:25:46.000Z</time>
      </trkpt>
      <trkpt lat="46.52953" lon="0.3425">
        <ele>88.8</ele>
        <time>2021-01-24T08:25:47.000Z</time>
      </trkpt>
      <trkpt lat="46.52953" lon="0.34244">
        <ele>88.8</ele>
        <time>2021-01-24T08:25:48.000Z</time>
      </trkpt>
      <trkpt lat="46.52954" lon="0.34238">
        <ele>88.8</ele>
        <time>2021-01-24T08:25:49.000Z</time>
      </trkpt>
      <trkpt lat="46.52955" lon="0.34232">
        <ele>88.8</ele>
        <time>2021-01-24T08:25:50.000Z</time>
      </trkpt>
      <trkpt lat="46.52957" lon="0.34226">
        <ele>88.8</ele>
        <time>2021-01-24T08:25:51.000Z</time>
      </trkpt>
      <trkpt lat="46.52959" lon="0.3422">
        <ele>88.8</ele>
        <time>2021-01-24T08:25:52.000Z</time>
      </trkpt>
      <trkpt lat="46.52961" lon="0.34213">
        <ele>88.8</ele>
        <time>2021-01-24T08:25:53.000Z</time>
      </trkpt>
      <trkpt lat="46.52963" lon="0.34206">
        <ele>88.6</ele>
        <time>2021-01-24T08:25:54.000Z</time>
      </trkpt>
      <trkpt lat="46.52965" lon="0.342">
        <ele>88.6</ele>
        <time>2021-01-24T08:25:55.000Z</time>
      </trkpt>
      <trkpt lat="46.52967" lon="0.34193">
        <ele>88.4</ele>
        <time>2021-01-24T08:25:56.000Z</time>
      </trkpt>
      <trkpt lat="46.52969" lon="0.34186">
        <ele>88.2</ele>
        <time>2021-01-24T08:25:57.000Z</time>
      </trkpt>
      <trkpt lat="46.52971" lon="0.34178">
        <ele>88.2</ele>
        <time>2021-01-24T08:25:58.000Z</time>
      </trkpt>
      <trkpt lat="46.52973" lon="0.34171">
        <ele>88.2</ele>
        <time>2021-01-24T08:25:59.000Z</time>
      </trkpt>
      <trkpt lat="46.52975" lon="0.34163">
        <ele>88</ele>
        <time>2021-01-24T08:26:00.000Z</time>
      </trkpt>
      <trkpt lat="46.52977" lon="0.34155">
        <ele>88</ele>
        <time>2021-01-24T08:26:01.000Z</time>
      </trkpt>
      <trkpt lat="46.52978" lon="0.34147">
        <ele>88</ele>
        <time>2021-01-24T08:26:02.000Z</time>
      </trkpt>
      <trkpt lat="46.5298" lon="0.34138">
        <ele>88</ele>
        <time>2021-01-24T08:26:03.000Z</time>
      </trkpt>
      <trkpt lat="46.52981" lon="0.34129">
        <ele>88</ele>
        <time>2021-01-24T08:26:04.000Z</time>
      </trkpt>
      <trkpt lat="46.52984" lon="0.34121">
        <ele>88</ele>
        <time>2021-01-24T08:26:05.000Z</time>
      </trkpt>
      <trkpt lat="46.52985" lon="0.34112">
        <ele>88</ele>
        <time>2021-01-24T08:26:06.000Z</time>
      </trkpt>
      <trkpt lat="46.52987" lon="0.34103">
        <ele>88</ele>
        <time>2021-01-24T08:26:07.000Z</time>
      </trkpt>
      <trkpt lat="46.52988" lon="0.34094">
        <ele>88</ele>
        <time>2021-01-24T08:26:08.000Z</time>
      </trkpt>
      <trkpt lat="46.52989" lon="0.34086">
        <ele>88</ele>
        <time>2021-01-24T08:26:09.000Z</time>
      </trkpt>
      <trkpt lat="46.52989" lon="0.34077">
        <ele>87.8</ele>
        <time>2021-01-24T08:26:10.000Z</time>
      </trkpt>
      <trkpt lat="46.52989" lon="0.34069">
        <ele>87.6</ele>
        <time>2021-01-24T08:26:11.000Z</time>
      </trkpt>
      <trkpt lat="46.52986" lon="0.34062">
        <ele>87.6</ele>
        <time>2021-01-24T08:26:12.000Z</time>
      </trkpt>
      <trkpt lat="46.52981" lon="0.34057">
        <ele>87.4</ele>
        <time>2021-01-24T08:26:13.000Z</time>
      </trkpt>
      <trkpt lat="46.52976" lon="0.34053">
        <ele>87.4</ele>
        <time>2021-01-24T08:26:14.000Z</time>
      </trkpt>
      <trkpt lat="46.5297" lon="0.3405">
        <ele>87.2</ele>
        <time>2021-01-24T08:26:15.000Z</time>
      </trkpt>
      <trkpt lat="46.52964" lon="0.34047">
        <ele>87.2</ele>
        <time>2021-01-24T08:26:16.000Z</time>
      </trkpt>
      <trkpt lat="46.52959" lon="0.34043">
        <ele>87</ele>
        <time>2021-01-24T08:26:17.000Z</time>
      </trkpt>
      <trkpt lat="46.52955" lon="0.34036">
        <ele>86.6</ele>
        <time>2021-01-24T08:26:18.000Z</time>
      </trkpt>
      <trkpt lat="46.52951" lon="0.34029">
        <ele>86.4</ele>
        <time>2021-01-24T08:26:19.000Z</time>
      </trkpt>
      <trkpt lat="46.5295" lon="0.3402">
        <ele>86.2</ele>
        <time>2021-01-24T08:26:20.000Z</time>
      </trkpt>
      <trkpt lat="46.52949" lon="0.34011">
        <ele>86</ele>
        <time>2021-01-24T08:26:21.000Z</time>
      </trkpt>
      <trkpt lat="46.52947" lon="0.34001">
        <ele>85.8</ele>
        <time>2021-01-24T08:26:22.000Z</time>
      </trkpt>
      <trkpt lat="46.52947" lon="0.33991">
        <ele>85.8</ele>
        <time>2021-01-24T08:26:23.000Z</time>
      </trkpt>
      <trkpt lat="46.52946" lon="0.33981">
        <ele>85.6</ele>
        <time>2021-01-24T08:26:24.000Z</time>
      </trkpt>
      <trkpt lat="46.52945" lon="0.33972">
        <ele>85.4</ele>
        <time>2021-01-24T08:26:25.000Z</time>
      </trkpt>
      <trkpt lat="46.52944" lon="0.33963">
        <ele>85.2</ele>
        <time>2021-01-24T08:26:26.000Z</time>
      </trkpt>
      <trkpt lat="46.52943" lon="0.33954">
        <ele>85</ele>
        <time>2021-01-24T08:26:27.000Z</time>
      </trkpt>
      <trkpt lat="46.52941" lon="0.33946">
        <ele>84.8</ele>
        <time>2021-01-24T08:26:28.000Z</time>
      </trkpt>
      <trkpt lat="46.52939" lon="0.33937">
        <ele>84.6</ele>
        <time>2021-01-24T08:26:29.000Z</time>
      </trkpt>
      <trkpt lat="46.52937" lon="0.33929">
        <ele>84.4</ele>
        <time>2021-01-24T08:26:30.000Z</time>
      </trkpt>
      <trkpt lat="46.52933" lon="0.33922">
        <ele>84.4</ele>
        <time>2021-01-24T08:26:31.000Z</time>
      </trkpt>
      <trkpt lat="46.52929" lon="0.33915">
        <ele>84.2</ele>
        <time>2021-01-24T08:26:32.000Z</time>
      </trkpt>
      <trkpt lat="46.52925" lon="0.3391">
        <ele>84</ele>
        <time>2021-01-24T08:26:33.000Z</time>
      </trkpt>
      <trkpt lat="46.5292" lon="0.33906">
        <ele>83.8</ele>
        <time>2021-01-24T08:26:34.000Z</time>
      </trkpt>
      <trkpt lat="46.52915" lon="0.33903">
        <ele>83.6</ele>
        <time>2021-01-24T08:26:35.000Z</time>
      </trkpt>
      <trkpt lat="46.52909" lon="0.33902">
        <ele>83.4</ele>
        <time>2021-01-24T08:26:36.000Z</time>
      </trkpt>
      <trkpt lat="46.52903" lon="0.33902">
        <ele>83.2</ele>
        <time>2021-01-24T08:26:37.000Z</time>
      </trkpt>
      <trkpt lat="46.52897" lon="0.33903">
        <ele>83</ele>
        <time>2021-01-24T08:26:38.000Z</time>
      </trkpt>
      <trkpt lat="46.52891" lon="0.33904">
        <ele>83</ele>
        <time>2021-01-24T08:26:39.000Z</time>
      </trkpt>
      <trkpt lat="46.52886" lon="0.33905">
        <ele>82.8</ele>
        <time>2021-01-24T08:26:40.000Z</time>
      </trkpt>
      <trkpt lat="46.5288" lon="0.33906">
        <ele>82.8</ele>
        <time>2021-01-24T08:26:41.000Z</time>
      </trkpt>
      <trkpt lat="46.52875" lon="0.33906">
        <ele>82.6</ele>
        <time>2021-01-24T08:26:42.000Z</time>
      </trkpt>
      <trkpt lat="46.5287" lon="0.33906">
        <ele>82.4</ele>
        <time>2021-01-24T08:26:43.000Z</time>
      </trkpt>
      <trkpt lat="46.52864" lon="0.33906">
        <ele>82.4</ele>
        <time>2021-01-24T08:26:44.000Z</time>
      </trkpt>
      <trkpt lat="46.52859" lon="0.33906">
        <ele>82.2</ele>
        <time>2021-01-24T08:26:45.000Z</time>
      </trkpt>
      <trkpt lat="46.52854" lon="0.33907">
        <ele>82</ele>
        <time>2021-01-24T08:26:46.000Z</time>
      </trkpt>
      <trkpt lat="46.52849" lon="0.33908">
        <ele>82</ele>
        <time>2021-01-24T08:26:47.000Z</time>
      </trkpt>
      <trkpt lat="46.52844" lon="0.33908">
        <ele>81.8</ele>
        <time>2021-01-24T08:26:48.000Z</time>
      </trkpt>
      <trkpt lat="46.5284" lon="0.3391">
        <ele>81.6</ele>
        <time>2021-01-24T08:26:49.000Z</time>
      </trkpt>
      <trkpt lat="46.52835" lon="0.33911">
        <ele>81.6</ele>
        <time>2021-01-24T08:26:50.000Z</time>
      </trkpt>
      <trkpt lat="46.5283" lon="0.33912">
        <ele>81.4</ele>
        <time>2021-01-24T08:26:51.000Z</time>
      </trkpt>
      <trkpt lat="46.52824" lon="0.33914">
        <ele>81.2</ele>
        <time>2021-01-24T08:26:52.000Z</time>
      </trkpt>
      <trkpt lat="46.52819" lon="0.33915">
        <ele>80.8</ele>
        <time>2021-01-24T08:26:53.000Z</time>
      </trkpt>
      <trkpt lat="46.52814" lon="0.33916">
        <ele>80.6</ele>
        <time>2021-01-24T08:26:54.000Z</time>
      </trkpt>
      <trkpt lat="46.52809" lon="0.33917">
        <ele>80.6</ele>
        <time>2021-01-24T08:26:55.000Z</time>
      </trkpt>
      <trkpt lat="46.52805" lon="0.33918">
        <ele>80.4</ele>
        <time>2021-01-24T08:26:56.000Z</time>
      </trkpt>
      <trkpt lat="46.528" lon="0.33919">
        <ele>80.2</ele>
        <time>2021-01-24T08:26:57.000Z</time>
      </trkpt>
      <trkpt lat="46.52795" lon="0.3392">
        <ele>80</ele>
        <time>2021-01-24T08:26:58.000Z</time>
      </trkpt>
      <trkpt lat="46.52791" lon="0.33922">
        <ele>79.8</ele>
        <time>2021-01-24T08:26:59.000Z</time>
      </trkpt>
      <trkpt lat="46.52787" lon="0.33925">
        <ele>79.8</ele>
        <time>2021-01-24T08:27:00.000Z</time>
      </trkpt>
      <trkpt lat="46.52784" lon="0.3393">
        <ele>79.6</ele>
        <time>2021-01-24T08:27:01.000Z</time>
      </trkpt>
      <trkpt lat="46.52782" lon="0.33936">
        <ele>79.4</ele>
        <time>2021-01-24T08:27:02.000Z</time>
      </trkpt>
      <trkpt lat="46.52781" lon="0.33942">
        <ele>79.4</ele>
        <time>2021-01-24T08:27:03.000Z</time>
      </trkpt>
      <trkpt lat="46.5278" lon="0.33949">
        <ele>79.4</ele>
        <time>2021-01-24T08:27:04.000Z</time>
      </trkpt>
      <trkpt lat="46.52779" lon="0.33955">
        <ele>79.2</ele>
        <time>2021-01-24T08:27:05.000Z</time>
      </trkpt>
      <trkpt lat="46.52778" lon="0.33962">
        <ele>79.2</ele>
        <time>2021-01-24T08:27:06.000Z</time>
      </trkpt>
      <trkpt lat="46.52777" lon="0.33968">
        <ele>79.2</ele>
        <time>2021-01-24T08:27:07.000Z</time>
      </trkpt>
      <trkpt lat="46.52776" lon="0.33974">
        <ele>79</ele>
        <time>2021-01-24T08:27:08.000Z</time>
      </trkpt>
      <trkpt lat="46.52774" lon="0.3398">
        <ele>79</ele>
        <time>2021-01-24T08:27:09.000Z</time>
      </trkpt>
      <trkpt lat="46.52774" lon="0.33985">
        <ele>79</ele>
        <time>2021-01-24T08:27:10.000Z</time>
      </trkpt>
      <trkpt lat="46.52773" lon="0.3399">
        <ele>79</ele>
        <time>2021-01-24T08:27:11.000Z</time>
      </trkpt>
      <trkpt lat="46.52772" lon="0.33996">
        <ele>79</ele>
        <time>2021-01-24T08:27:12.000Z</time>
      </trkpt>
      <trkpt lat="46.52771" lon="0.34">
        <ele>78.8</ele>
        <time>2021-01-24T08:27:13.000Z</time>
      </trkpt>
      <trkpt lat="46.5277" lon="0.34005">
        <ele>78.8</ele>
        <time>2021-01-24T08:27:14.000Z</time>
      </trkpt>
      <trkpt lat="46.52768" lon="0.3401">
        <ele>78.8</ele>
        <time>2021-01-24T08:27:15.000Z</time>
      </trkpt>
      <trkpt lat="46.52767" lon="0.34015">
        <ele>78.8</ele>
        <time>2021-01-24T08:27:16.000Z</time>
      </trkpt>
      <trkpt lat="46.52765" lon="0.34018">
        <ele>78.8</ele>
        <time>2021-01-24T08:27:17.000Z</time>
      </trkpt>
      <trkpt lat="46.52764" lon="0.34022">
        <ele>78.8</ele>
        <time>2021-01-24T08:27:18.000Z</time>
      </trkpt>
      <trkpt lat="46.52761" lon="0.34025">
        <ele>78.8</ele>
        <time>2021-01-24T08:27:19.000Z</time>
      </trkpt>
      <trkpt lat="46.52759" lon="0.34027">
        <ele>78.8</ele>
        <time>2021-01-24T08:27:20.000Z</time>
      </trkpt>
      <trkpt lat="46.52757" lon="0.34028">
        <ele>78.8</ele>
        <time>2021-01-24T08:27:21.000Z</time>
      </trkpt>
      <trkpt lat="46.52754" lon="0.34029">
        <ele>78.8</ele>
        <time>2021-01-24T08:27:22.000Z</time>
      </trkpt>
      <trkpt lat="46.52752" lon="0.3403">
        <ele>79</ele>
        <time>2021-01-24T08:27:23.000Z</time>
      </trkpt>
      <trkpt lat="46.52749" lon="0.34031">
        <ele>79</ele>
        <time>2021-01-24T08:27:24.000Z</time>
      </trkpt>
      <trkpt lat="46.52745" lon="0.34032">
        <ele>79</ele>
        <time>2021-01-24T08:27:25.000Z</time>
      </trkpt>
      <trkpt lat="46.52742" lon="0.34033">
        <ele>79.2</ele>
        <time>2021-01-24T08:27:26.000Z</time>
      </trkpt>
      <trkpt lat="46.52739" lon="0.34034">
        <ele>79.2</ele>
        <time>2021-01-24T08:27:27.000Z</time>
      </trkpt>
      <trkpt lat="46.52736" lon="0.34036">
        <ele>79.2</ele>
        <time>2021-01-24T08:27:28.000Z</time>
      </trkpt>
      <trkpt lat="46.52733" lon="0.34036">
        <ele>79.4</ele>
        <time>2021-01-24T08:27:29.000Z</time>
      </trkpt>
      <trkpt lat="46.5273" lon="0.34037">
        <ele>79.4</ele>
        <time>2021-01-24T08:27:30.000Z</time>
      </trkpt>
      <trkpt lat="46.52727" lon="0.34038">
        <ele>79.4</ele>
        <time>2021-01-24T08:27:31.000Z</time>
      </trkpt>
      <trkpt lat="46.52723" lon="0.34039">
        <ele>79.4</ele>
        <time>2021-01-24T08:27:32.000Z</time>
      </trkpt>
      <trkpt lat="46.5272" lon="0.34039">
        <ele>79.4</ele>
        <time>2021-01-24T08:27:33.000Z</time>
      </trkpt>
      <trkpt lat="46.52717" lon="0.3404">
        <ele>79.4</ele>
        <time>2021-01-24T08:27:34.000Z</time>
      </trkpt>
      <trkpt lat="46.52714" lon="0.34042">
        <ele>79.6</ele>
        <time>2021-01-24T08:27:35.000Z</time>
      </trkpt>
      <trkpt lat="46.52711" lon="0.34042">
        <ele>79.6</ele>
        <time>2021-01-24T08:27:36.000Z</time>
      </trkpt>
      <trkpt lat="46.52707" lon="0.34043">
        <ele>79.6</ele>
        <time>2021-01-24T08:27:37.000Z</time>
      </trkpt>
      <trkpt lat="46.52703" lon="0.34043">
        <ele>79.8</ele>
        <time>2021-01-24T08:27:38.000Z</time>
      </trkpt>
      <trkpt lat="46.527" lon="0.34044">
        <ele>79.8</ele>
        <time>2021-01-24T08:27:39.000Z</time>
      </trkpt>
      <trkpt lat="46.52696" lon="0.34044">
        <ele>79.8</ele>
        <time>2021-01-24T08:27:40.000Z</time>
      </trkpt>
      <trkpt lat="46.52693" lon="0.34043">
        <ele>79.8</ele>
        <time>2021-01-24T08:27:41.000Z</time>
      </trkpt>
      <trkpt lat="46.52689" lon="0.34043">
        <ele>80</ele>
        <time>2021-01-24T08:27:42.000Z</time>
      </trkpt>
      <trkpt lat="46.52685" lon="0.34043">
        <ele>80</ele>
        <time>2021-01-24T08:27:43.000Z</time>
      </trkpt>
      <trkpt lat="46.52682" lon="0.34043">
        <ele>80</ele>
        <time>2021-01-24T08:27:44.000Z</time>
      </trkpt>
      <trkpt lat="46.52679" lon="0.34043">
        <ele>80.2</ele>
        <time>2021-01-24T08:27:45.000Z</time>
      </trkpt>
      <trkpt lat="46.52675" lon="0.34042">
        <ele>80.2</ele>
        <time>2021-01-24T08:27:46.000Z</time>
      </trkpt>
      <trkpt lat="46.52671" lon="0.34042">
        <ele>80.2</ele>
        <time>2021-01-24T08:27:47.000Z</time>
      </trkpt>
      <trkpt lat="46.52667" lon="0.34041">
        <ele>80.4</ele>
        <time>2021-01-24T08:27:48.000Z</time>
      </trkpt>
      <trkpt lat="46.52663" lon="0.34041">
        <ele>80.4</ele>
        <time>2021-01-24T08:27:49.000Z</time>
      </trkpt>
      <trkpt lat="46.5266" lon="0.3404">
        <ele>80.6</ele>
        <time>2021-01-24T08:27:50.000Z</time>
      </trkpt>
      <trkpt lat="46.52656" lon="0.3404">
        <ele>80.6</ele>
        <time>2021-01-24T08:27:51.000Z</time>
      </trkpt>
      <trkpt lat="46.52653" lon="0.3404">
        <ele>80.8</ele>
        <time>2021-01-24T08:27:52.000Z</time>
      </trkpt>
      <trkpt lat="46.5265" lon="0.34039">
        <ele>80.8</ele>
        <time>2021-01-24T08:27:53.000Z</time>
      </trkpt>
      <trkpt lat="46.52647" lon="0.34038">
        <ele>81</ele>
        <time>2021-01-24T08:27:54.000Z</time>
      </trkpt>
      <trkpt lat="46.52644" lon="0.34038">
        <ele>81</ele>
        <time>2021-01-24T08:27:55.000Z</time>
      </trkpt>
      <trkpt lat="46.52641" lon="0.34037">
        <ele>81</ele>
        <time>2021-01-24T08:27:56.000Z</time>
      </trkpt>
      <trkpt lat="46.52637" lon="0.34037">
        <ele>81</ele>
        <time>2021-01-24T08:27:57.000Z</time>
      </trkpt>
      <trkpt lat="46.52635" lon="0.34037">
        <ele>81.2</ele>
        <time>2021-01-24T08:27:58.000Z</time>
      </trkpt>
      <trkpt lat="46.52631" lon="0.34037">
        <ele>81.2</ele>
        <time>2021-01-24T08:27:59.000Z</time>
      </trkpt>
      <trkpt lat="46.52627" lon="0.34036">
        <ele>81.4</ele>
        <time>2021-01-24T08:28:00.000Z</time>
      </trkpt>
      <trkpt lat="46.52623" lon="0.34036">
        <ele>81.4</ele>
        <time>2021-01-24T08:28:01.000Z</time>
      </trkpt>
      <trkpt lat="46.52619" lon="0.34036">
        <ele>81.6</ele>
        <time>2021-01-24T08:28:02.000Z</time>
      </trkpt>
      <trkpt lat="46.52616" lon="0.34036">
        <ele>81.6</ele>
        <time>2021-01-24T08:28:03.000Z</time>
      </trkpt>
      <trkpt lat="46.52612" lon="0.34037">
        <ele>81.8</ele>
        <time>2021-01-24T08:28:04.000Z</time>
      </trkpt>
      <trkpt lat="46.52609" lon="0.34037">
        <ele>81.8</ele>
        <time>2021-01-24T08:28:05.000Z</time>
      </trkpt>
      <trkpt lat="46.52605" lon="0.34038">
        <ele>82</ele>
        <time>2021-01-24T08:28:06.000Z</time>
      </trkpt>
      <trkpt lat="46.52602" lon="0.34038">
        <ele>82.2</ele>
        <time>2021-01-24T08:28:07.000Z</time>
      </trkpt>
      <trkpt lat="46.52599" lon="0.34038">
        <ele>82.4</ele>
        <time>2021-01-24T08:28:08.000Z</time>
      </trkpt>
      <trkpt lat="46.52595" lon="0.34038">
        <ele>82.6</ele>
        <time>2021-01-24T08:28:09.000Z</time>
      </trkpt>
      <trkpt lat="46.52592" lon="0.34038">
        <ele>82.8</ele>
        <time>2021-01-24T08:28:10.000Z</time>
      </trkpt>
      <trkpt lat="46.52588" lon="0.34038">
        <ele>82.8</ele>
        <time>2021-01-24T08:28:11.000Z</time>
      </trkpt>
      <trkpt lat="46.52585" lon="0.34039">
        <ele>83</ele>
        <time>2021-01-24T08:28:12.000Z</time>
      </trkpt>
      <trkpt lat="46.52582" lon="0.34039">
        <ele>83.2</ele>
        <time>2021-01-24T08:28:13.000Z</time>
      </trkpt>
      <trkpt lat="46.52579" lon="0.34039">
        <ele>83.4</ele>
        <time>2021-01-24T08:28:14.000Z</time>
      </trkpt>
      <trkpt lat="46.52576" lon="0.34039">
        <ele>83.4</ele>
        <time>2021-01-24T08:28:15.000Z</time>
      </trkpt>
      <trkpt lat="46.52574" lon="0.34039">
        <ele>83.6</ele>
        <time>2021-01-24T08:28:16.000Z</time>
      </trkpt>
      <trkpt lat="46.52571" lon="0.3404">
        <ele>83.6</ele>
        <time>2021-01-24T08:28:17.000Z</time>
      </trkpt>
      <trkpt lat="46.52568" lon="0.34041">
        <ele>83.8</ele>
        <time>2021-01-24T08:28:18.000Z</time>
      </trkpt>
      <trkpt lat="46.52566" lon="0.34042">
        <ele>83.8</ele>
        <time>2021-01-24T08:28:19.000Z</time>
      </trkpt>
      <trkpt lat="46.52564" lon="0.34043">
        <ele>84</ele>
        <time>2021-01-24T08:28:20.000Z</time>
      </trkpt>
      <trkpt lat="46.52561" lon="0.34044">
        <ele>84</ele>
        <time>2021-01-24T08:28:21.000Z</time>
      </trkpt>
      <trkpt lat="46.52558" lon="0.34045">
        <ele>84.2</ele>
        <time>2021-01-24T08:28:22.000Z</time>
      </trkpt>
      <trkpt lat="46.52555" lon="0.34046">
        <ele>84.4</ele>
        <time>2021-01-24T08:28:23.000Z</time>
      </trkpt>
      <trkpt lat="46.52552" lon="0.34047">
        <ele>84.6</ele>
        <time>2021-01-24T08:28:24.000Z</time>
      </trkpt>
      <trkpt lat="46.52549" lon="0.34048">
        <ele>84.8</ele>
        <time>2021-01-24T08:28:25.000Z</time>
      </trkpt>
      <trkpt lat="46.52547" lon="0.34049">
        <ele>84.8</ele>
        <time>2021-01-24T08:28:26.000Z</time>
      </trkpt>
      <trkpt lat="46.52544" lon="0.3405">
        <ele>85</ele>
        <time>2021-01-24T08:28:27.000Z</time>
      </trkpt>
      <trkpt lat="46.52541" lon="0.34051">
        <ele>85.2</ele>
        <time>2021-01-24T08:28:28.000Z</time>
      </trkpt>
      <trkpt lat="46.52538" lon="0.34051">
        <ele>85.4</ele>
        <time>2021-01-24T08:28:29.000Z</time>
      </trkpt>
      <trkpt lat="46.52536" lon="0.34052">
        <ele>85.6</ele>
        <time>2021-01-24T08:28:30.000Z</time>
      </trkpt>
      <trkpt lat="46.52533" lon="0.34053">
        <ele>85.6</ele>
        <time>2021-01-24T08:28:31.000Z</time>
      </trkpt>
      <trkpt lat="46.5253" lon="0.34053">
        <ele>85.8</ele>
        <time>2021-01-24T08:28:32.000Z</time>
      </trkpt>
      <trkpt lat="46.52528" lon="0.34054">
        <ele>86</ele>
        <time>2021-01-24T08:28:33.000Z</time>
      </trkpt>
      <trkpt lat="46.52526" lon="0.34056">
        <ele>86.2</ele>
        <time>2021-01-24T08:28:34.000Z</time>
      </trkpt>
      <trkpt lat="46.52524" lon="0.34057">
        <ele>86.4</ele>
        <time>2021-01-24T08:28:35.000Z</time>
      </trkpt>
      <trkpt lat="46.52522" lon="0.34059">
        <ele>86.6</ele>
        <time>2021-01-24T08:28:36.000Z</time>
      </trkpt>
      <trkpt lat="46.5252" lon="0.3406">
        <ele>86.8</ele>
        <time>2021-01-24T08:28:37.000Z</time>
      </trkpt>
      <trkpt lat="46.52518" lon="0.34061">
        <ele>86.8</ele>
        <time>2021-01-24T08:28:38.000Z</time>
      </trkpt>
      <trkpt lat="46.52516" lon="0.34063">
        <ele>87</ele>
        <time>2021-01-24T08:28:39.000Z</time>
      </trkpt>
      <trkpt lat="46.52514" lon="0.34064">
        <ele>87.2</ele>
        <time>2021-01-24T08:28:40.000Z</time>
      </trkpt>
      <trkpt lat="46.52512" lon="0.34066">
        <ele>87.4</ele>
        <time>2021-01-24T08:28:41.000Z</time>
      </trkpt>
      <trkpt lat="46.5251" lon="0.34067">
        <ele>87.6</ele>
        <time>2021-01-24T08:28:42.000Z</time>
      </trkpt>
      <trkpt lat="46.52509" lon="0.34069">
        <ele>87.8</ele>
        <time>2021-01-24T08:28:43.000Z</time>
      </trkpt>
      <trkpt lat="46.52509" lon="0.34069">
        <ele>88</ele>
        <time>2021-01-24T08:28:44.000Z</time>
      </trkpt>
      <trkpt lat="46.52507" lon="0.34072">
        <ele>88.2</ele>
        <time>2021-01-24T08:28:45.000Z</time>
      </trkpt>
      <trkpt lat="46.52507" lon="0.34072">
        <ele>88.4</ele>
        <time>2021-01-24T08:28:46.000Z</time>
      </trkpt>
      <trkpt lat="46.52505" lon="0.34077">
        <ele>88.6</ele>
        <time>2021-01-24T08:28:47.000Z</time>
      </trkpt>
      <trkpt lat="46.52504" lon="0.34079">
        <ele>88.8</ele>
        <time>2021-01-24T08:28:48.000Z</time>
      </trkpt>
      <trkpt lat="46.52503" lon="0.34082">
        <ele>89</ele>
        <time>2021-01-24T08:28:49.000Z</time>
      </trkpt>
      <trkpt lat="46.52502" lon="0.34084">
        <ele>89.2</ele>
        <time>2021-01-24T08:28:50.000Z</time>
      </trkpt>
      <trkpt lat="46.52501" lon="0.34086">
        <ele>89.4</ele>
        <time>2021-01-24T08:28:51.000Z</time>
      </trkpt>
      <trkpt lat="46.52501" lon="0.34086">
        <ele>89.6</ele>
        <time>2021-01-24T08:28:52.000Z</time>
      </trkpt>
      <trkpt lat="46.52499" lon="0.34091">
        <ele>89.8</ele>
        <time>2021-01-24T08:28:53.000Z</time>
      </trkpt>
      <trkpt lat="46.52498" lon="0.34093">
        <ele>90</ele>
        <time>2021-01-24T08:28:54.000Z</time>
      </trkpt>
      <trkpt lat="46.52497" lon="0.34096">
        <ele>90.2</ele>
        <time>2021-01-24T08:28:55.000Z</time>
      </trkpt>
      <trkpt lat="46.52497" lon="0.34096">
        <ele>90.4</ele>
        <time>2021-01-24T08:28:56.000Z</time>
      </trkpt>
      <trkpt lat="46.52495" lon="0.341">
        <ele>90.4</ele>
        <time>2021-01-24T08:28:57.000Z</time>
      </trkpt>
      <trkpt lat="46.52495" lon="0.341">
        <ele>90.6</ele>
        <time>2021-01-24T08:28:58.000Z</time>
      </trkpt>
      <trkpt lat="46.52494" lon="0.34104">
        <ele>90.8</ele>
        <time>2021-01-24T08:28:59.000Z</time>
      </trkpt>
      <trkpt lat="46.52493" lon="0.34107">
        <ele>91</ele>
        <time>2021-01-24T08:29:00.000Z</time>
      </trkpt>
      <trkpt lat="46.52493" lon="0.34107">
        <ele>91.2</ele>
        <time>2021-01-24T08:29:01.000Z</time>
      </trkpt>
      <trkpt lat="46.52491" lon="0.34111">
        <ele>91.4</ele>
        <time>2021-01-24T08:29:02.000Z</time>
      </trkpt>
      <trkpt lat="46.52491" lon="0.34111">
        <ele>91.6</ele>
        <time>2021-01-24T08:29:03.000Z</time>
      </trkpt>
      <trkpt lat="46.52489" lon="0.34115">
        <ele>91.8</ele>
        <time>2021-01-24T08:29:04.000Z</time>
      </trkpt>
      <trkpt lat="46.52489" lon="0.34115">
        <ele>92</ele>
        <time>2021-01-24T08:29:05.000Z</time>
      </trkpt>
      <trkpt lat="46.52487" lon="0.3412">
        <ele>92</ele>
        <time>2021-01-24T08:29:06.000Z</time>
      </trkpt>
      <trkpt lat="46.52487" lon="0.3412">
        <ele>92.4</ele>
        <time>2021-01-24T08:29:07.000Z</time>
      </trkpt>
      <trkpt lat="46.52485" lon="0.34124">
        <ele>92.6</ele>
        <time>2021-01-24T08:29:08.000Z</time>
      </trkpt>
      <trkpt lat="46.52484" lon="0.34127">
        <ele>92.8</ele>
        <time>2021-01-24T08:29:09.000Z</time>
      </trkpt>
      <trkpt lat="46.52482" lon="0.34129">
        <ele>93</ele>
        <time>2021-01-24T08:29:10.000Z</time>
      </trkpt>
      <trkpt lat="46.52482" lon="0.34129">
        <ele>93.2</ele>
        <time>2021-01-24T08:29:11.000Z</time>
      </trkpt>
      <trkpt lat="46.5248" lon="0.34133">
        <ele>93.4</ele>
        <time>2021-01-24T08:29:12.000Z</time>
      </trkpt>
      <trkpt lat="46.5248" lon="0.34133">
        <ele>93.6</ele>
        <time>2021-01-24T08:29:13.000Z</time>
      </trkpt>
      <trkpt lat="46.52478" lon="0.34137">
        <ele>93.8</ele>
        <time>2021-01-24T08:29:14.000Z</time>
      </trkpt>
      <trkpt lat="46.52478" lon="0.34137">
        <ele>94</ele>
        <time>2021-01-24T08:29:15.000Z</time>
      </trkpt>
      <trkpt lat="46.52477" lon="0.34141">
        <ele>94.2</ele>
        <time>2021-01-24T08:29:16.000Z</time>
      </trkpt>
      <trkpt lat="46.52475" lon="0.34143">
        <ele>94.4</ele>
        <time>2021-01-24T08:29:17.000Z</time>
      </trkpt>
      <trkpt lat="46.52474" lon="0.34146">
        <ele>94.6</ele>
        <time>2021-01-24T08:29:18.000Z</time>
      </trkpt>
      <trkpt lat="46.52473" lon="0.34148">
        <ele>94.8</ele>
        <time>2021-01-24T08:29:19.000Z</time>
      </trkpt>
      <trkpt lat="46.52473" lon="0.34148">
        <ele>95.2</ele>
        <time>2021-01-24T08:29:20.000Z</time>
      </trkpt>
      <trkpt lat="46.5247" lon="0.34154">
        <ele>95.2</ele>
        <time>2021-01-24T08:29:21.000Z</time>
      </trkpt>
      <trkpt lat="46.5247" lon="0.34155">
        <ele>95.4</ele>
        <time>2021-01-24T08:29:22.000Z</time>
      </trkpt>
      <trkpt lat="46.52469" lon="0.34157">
        <ele>95.6</ele>
        <time>2021-01-24T08:29:23.000Z</time>
      </trkpt>
      <trkpt lat="46.52469" lon="0.34157">
        <ele>95.6</ele>
        <time>2021-01-24T08:29:24.000Z</time>
      </trkpt>
      <trkpt lat="46.52467" lon="0.34161">
        <ele>95.8</ele>
        <time>2021-01-24T08:29:25.000Z</time>
      </trkpt>
      <trkpt lat="46.52467" lon="0.34161">
        <ele>96</ele>
        <time>2021-01-24T08:29:26.000Z</time>
      </trkpt>
      <trkpt lat="46.52464" lon="0.34165">
        <ele>96</ele>
        <time>2021-01-24T08:29:27.000Z</time>
      </trkpt>
      <trkpt lat="46.52462" lon="0.34166">
        <ele>96.4</ele>
        <time>2021-01-24T08:29:28.000Z</time>
      </trkpt>
      <trkpt lat="46.52461" lon="0.34169">
        <ele>96.6</ele>
        <time>2021-01-24T08:29:29.000Z</time>
      </trkpt>
      <trkpt lat="46.5246" lon="0.34171">
        <ele>96.8</ele>
        <time>2021-01-24T08:29:30.000Z</time>
      </trkpt>
      <trkpt lat="46.52458" lon="0.34173">
        <ele>96.8</ele>
        <time>2021-01-24T08:29:31.000Z</time>
      </trkpt>
      <trkpt lat="46.52457" lon="0.34175">
        <ele>97</ele>
        <time>2021-01-24T08:29:32.000Z</time>
      </trkpt>
      <trkpt lat="46.52457" lon="0.34175">
        <ele>97.2</ele>
        <time>2021-01-24T08:29:33.000Z</time>
      </trkpt>
      <trkpt lat="46.52454" lon="0.34179">
        <ele>97.4</ele>
        <time>2021-01-24T08:29:34.000Z</time>
      </trkpt>
      <trkpt lat="46.52454" lon="0.34179">
        <ele>97.6</ele>
        <time>2021-01-24T08:29:35.000Z</time>
      </trkpt>
      <trkpt lat="46.52451" lon="0.34183">
        <ele>97.8</ele>
        <time>2021-01-24T08:29:36.000Z</time>
      </trkpt>
      <trkpt lat="46.5245" lon="0.34185">
        <ele>98</ele>
        <time>2021-01-24T08:29:37.000Z</time>
      </trkpt>
      <trkpt lat="46.52449" lon="0.34188">
        <ele>98.2</ele>
        <time>2021-01-24T08:29:38.000Z</time>
      </trkpt>
      <trkpt lat="46.52448" lon="0.34191">
        <ele>98.4</ele>
        <time>2021-01-24T08:29:39.000Z</time>
      </trkpt>
      <trkpt lat="46.52447" lon="0.34193">
        <ele>98.6</ele>
        <time>2021-01-24T08:29:40.000Z</time>
      </trkpt>
      <trkpt lat="46.52446" lon="0.34196">
        <ele>98.8</ele>
        <time>2021-01-24T08:29:41.000Z</time>
      </trkpt>
      <trkpt lat="46.52446" lon="0.34199">
        <ele>99</ele>
        <time>2021-01-24T08:29:42.000Z</time>
      </trkpt>
      <trkpt lat="46.52446" lon="0.34199">
        <ele>99.2</ele>
        <time>2021-01-24T08:29:43.000Z</time>
      </trkpt>
      <trkpt lat="46.52444" lon="0.34204">
        <ele>99.2</ele>
        <time>2021-01-24T08:29:44.000Z</time>
      </trkpt>
      <trkpt lat="46.52443" lon="0.34207">
        <ele>99.4</ele>
        <time>2021-01-24T08:29:45.000Z</time>
      </trkpt>
      <trkpt lat="46.52443" lon="0.3421">
        <ele>99.6</ele>
        <time>2021-01-24T08:29:46.000Z</time>
      </trkpt>
      <trkpt lat="46.52442" lon="0.34213">
        <ele>99.8</ele>
        <time>2021-01-24T08:29:47.000Z</time>
      </trkpt>
      <trkpt lat="46.52441" lon="0.34215">
        <ele>100</ele>
        <time>2021-01-24T08:29:48.000Z</time>
      </trkpt>
      <trkpt lat="46.52439" lon="0.34218">
        <ele>100.2</ele>
        <time>2021-01-24T08:29:49.000Z</time>
      </trkpt>
      <trkpt lat="46.52439" lon="0.3422">
        <ele>100.4</ele>
        <time>2021-01-24T08:29:50.000Z</time>
      </trkpt>
      <trkpt lat="46.52438" lon="0.34224">
        <ele>100.4</ele>
        <time>2021-01-24T08:29:51.000Z</time>
      </trkpt>
      <trkpt lat="46.52438" lon="0.34224">
        <ele>100.6</ele>
        <time>2021-01-24T08:29:52.000Z</time>
      </trkpt>
      <trkpt lat="46.52437" lon="0.34228">
        <ele>100.8</ele>
        <time>2021-01-24T08:29:53.000Z</time>
      </trkpt>
      <trkpt lat="46.52437" lon="0.34231">
        <ele>101</ele>
        <time>2021-01-24T08:29:54.000Z</time>
      </trkpt>
      <trkpt lat="46.52436" lon="0.34234">
        <ele>101.2</ele>
        <time>2021-01-24T08:29:55.000Z</time>
      </trkpt>
      <trkpt lat="46.52435" lon="0.34236">
        <ele>101.2</ele>
        <time>2021-01-24T08:29:56.000Z</time>
      </trkpt>
      <trkpt lat="46.52435" lon="0.34236">
        <ele>101.4</ele>
        <time>2021-01-24T08:29:57.000Z</time>
      </trkpt>
      <trkpt lat="46.52434" lon="0.34242">
        <ele>101.6</ele>
        <time>2021-01-24T08:29:58.000Z</time>
      </trkpt>
      <trkpt lat="46.52433" lon="0.34245">
        <ele>101.6</ele>
        <time>2021-01-24T08:29:59.000Z</time>
      </trkpt>
      <trkpt lat="46.52433" lon="0.34247">
        <ele>101.8</ele>
        <time>2021-01-24T08:30:00.000Z</time>
      </trkpt>
      <trkpt lat="46.52433" lon="0.34247">
        <ele>102</ele>
        <time>2021-01-24T08:30:01.000Z</time>
      </trkpt>
      <trkpt lat="46.52431" lon="0.34252">
        <ele>102</ele>
        <time>2021-01-24T08:30:02.000Z</time>
      </trkpt>
      <trkpt lat="46.52431" lon="0.34254">
        <ele>102.2</ele>
        <time>2021-01-24T08:30:03.000Z</time>
      </trkpt>
      <trkpt lat="46.52431" lon="0.34254">
        <ele>102.4</ele>
        <time>2021-01-24T08:30:04.000Z</time>
      </trkpt>
      <trkpt lat="46.5243" lon="0.34258">
        <ele>102.4</ele>
        <time>2021-01-24T08:30:05.000Z</time>
      </trkpt>
      <trkpt lat="46.5243" lon="0.34258">
        <ele>102.6</ele>
        <time>2021-01-24T08:30:06.000Z</time>
      </trkpt>
      <trkpt lat="46.52429" lon="0.34261">
        <ele>102.8</ele>
        <time>2021-01-24T08:30:07.000Z</time>
      </trkpt>
      <trkpt lat="46.52429" lon="0.34261">
        <ele>102.8</ele>
        <time>2021-01-24T08:30:08.000Z</time>
      </trkpt>
      <trkpt lat="46.52428" lon="0.34263">
        <ele>103</ele>
        <time>2021-01-24T08:30:09.000Z</time>
      </trkpt>
      <trkpt lat="46.52428" lon="0.34263">
        <ele>103.2</ele>
        <time>2021-01-24T08:30:10.000Z</time>
      </trkpt>
      <trkpt lat="46.52427" lon="0.34263">
        <ele>103.2</ele>
        <time>2021-01-24T08:30:11.000Z</time>
      </trkpt>
      <trkpt lat="46.52427" lon="0.34263">
        <ele>103.4</ele>
        <time>2021-01-24T08:30:12.000Z</time>
      </trkpt>
      <trkpt lat="46.52427" lon="0.34263">
        <ele>103.6</ele>
        <time>2021-01-24T08:30:13.000Z</time>
      </trkpt>
      <trkpt lat="46.52427" lon="0.34263">
        <ele>103.8</ele>
        <time>2021-01-24T08:30:14.000Z</time>
      </trkpt>
      <trkpt lat="46.52427" lon="0.34263">
        <ele>103.8</ele>
        <time>2021-01-24T08:30:15.000Z</time>
      </trkpt>
      <trkpt lat="46.52427" lon="0.34263">
        <ele>103.8</ele>
        <time>2021-01-24T08:30:16.000Z</time>
      </trkpt>
      <trkpt lat="46.52427" lon="0.34263">
        <ele>104</ele>
        <time>2021-01-24T08:30:17.000Z</time>
      </trkpt>
      <trkpt lat="46.52427" lon="0.34264">
        <ele>104.2</ele>
        <time>2021-01-24T08:30:18.000Z</time>
      </trkpt>
      <trkpt lat="46.52427" lon="0.34264">
        <ele>104.2</ele>
        <time>2021-01-24T08:30:19.000Z</time>
      </trkpt>
      <trkpt lat="46.52427" lon="0.34264">
        <ele>104.4</ele>
        <time>2021-01-24T08:30:20.000Z</time>
      </trkpt>
      <trkpt lat="46.52426" lon="0.34264">
        <ele>104.4</ele>
        <time>2021-01-24T08:30:21.000Z</time>
      </trkpt>
      <trkpt lat="46.52426" lon="0.34264">
        <ele>104.6</ele>
        <time>2021-01-24T08:30:22.000Z</time>
      </trkpt>
      <trkpt lat="46.52426" lon="0.34264">
        <ele>104.6</ele>
        <time>2021-01-24T08:30:23.000Z</time>
      </trkpt>
      <trkpt lat="46.52426" lon="0.34264">
        <ele>104.8</ele>
        <time>2021-01-24T08:30:24.000Z</time>
      </trkpt>
      <trkpt lat="46.52426" lon="0.34264">
        <ele>104.8</ele>
        <time>2021-01-24T08:30:25.000Z</time>
      </trkpt>
      <trkpt lat="46.52426" lon="0.34264">
        <ele>105</ele>
        <time>2021-01-24T08:30:26.000Z</time>
      </trkpt>
      <trkpt lat="46.52426" lon="0.34264">
        <ele>105</ele>
        <time>2021-01-24T08:30:27.000Z</time>
      </trkpt>
      <trkpt lat="46.52426" lon="0.34264">
        <ele>105.2</ele>
        <time>2021-01-24T08:30:28.000Z</time>
      </trkpt>
      <trkpt lat="46.52426" lon="0.34264">
        <ele>105.2</ele>
        <time>2021-01-24T08:30:29.000Z</time>
      </trkpt>
      <trkpt lat="46.52426" lon="0.34264">
        <ele>105.2</ele>
        <time>2021-01-24T08:30:30.000Z</time>
      </trkpt>
      <trkpt lat="46.52426" lon="0.34264">
        <ele>105.4</ele>
        <time>2021-01-24T08:30:31.000Z</time>
      </trkpt>
      <trkpt lat="46.52425" lon="0.34264">
        <ele>105.4</ele>
        <time>2021-01-24T08:30:32.000Z</time>
      </trkpt>
      <trkpt lat="46.52425" lon="0.34264">
        <ele>105.6</ele>
        <time>2021-01-24T08:30:33.000Z</time>
      </trkpt>
      <trkpt lat="46.52425" lon="0.34264">
        <ele>105.6</ele>
        <time>2021-01-24T08:30:34.000Z</time>
      </trkpt>
      <trkpt lat="46.52425" lon="0.34264">
        <ele>105.6</ele>
        <time>2021-01-24T08:30:35.000Z</time>
      </trkpt>
      <trkpt lat="46.52425" lon="0.34264">
        <ele>105.8</ele>
        <time>2021-01-24T08:30:36.000Z</time>
      </trkpt>
      <trkpt lat="46.52425" lon="0.34264">
        <ele>105.8</ele>
        <time>2021-01-24T08:30:37.000Z</time>
      </trkpt>
      <trkpt lat="46.52425" lon="0.34264">
        <ele>105.8</ele>
        <time>2021-01-24T08:30:38.000Z</time>
      </trkpt>
      <trkpt lat="46.52425" lon="0.34264">
        <ele>106</ele>
        <time>2021-01-24T08:30:39.000Z</time>
      </trkpt>
      <trkpt lat="46.52425" lon="0.34264">
        <ele>106</ele>
        <time>2021-01-24T08:30:40.000Z</time>
      </trkpt>
      <trkpt lat="46.52425" lon="0.34264">
        <ele>106</ele>
        <time>2021-01-24T08:30:41.000Z</time>
      </trkpt>
      <trkpt lat="46.52424" lon="0.34264">
        <ele>106.2</ele>
        <time>2021-01-24T08:30:42.000Z</time>
      </trkpt>
      <trkpt lat="46.52424" lon="0.34264">
        <ele>106.2</ele>
        <time>2021-01-24T08:30:43.000Z</time>
      </trkpt>
      <trkpt lat="46.52424" lon="0.34264">
        <ele>106.2</ele>
        <time>2021-01-24T08:30:44.000Z</time>
      </trkpt>
      <trkpt lat="46.52424" lon="0.34264">
        <ele>106.4</ele>
        <time>2021-01-24T08:30:45.000Z</time>
      </trkpt>
      <trkpt lat="46.52424" lon="0.34264">
        <ele>106.4</ele>
        <time>2021-01-24T08:30:46.000Z</time>
      </trkpt>
      <trkpt lat="46.52424" lon="0.34265">
        <ele>106.4</ele>
        <time>2021-01-24T08:30:47.000Z</time>
      </trkpt>
      <trkpt lat="46.52424" lon="0.34265">
        <ele>106.6</ele>
        <time>2021-01-24T08:30:48.000Z</time>
      </trkpt>
      <trkpt lat="46.52424" lon="0.34265">
        <ele>106.6</ele>
        <time>2021-01-24T08:30:49.000Z</time>
      </trkpt>
      <trkpt lat="46.52424" lon="0.34265">
        <ele>106.6</ele>
        <time>2021-01-24T08:30:50.000Z</time>
      </trkpt>
      <trkpt lat="46.52424" lon="0.34265">
        <ele>106.6</ele>
        <time>2021-01-24T08:30:51.000Z</time>
      </trkpt>
      <trkpt lat="46.52424" lon="0.34265">
        <ele>106.8</ele>
        <time>2021-01-24T08:30:52.000Z</time>
      </trkpt>
      <trkpt lat="46.52423" lon="0.34265">
        <ele>106.8</ele>
        <time>2021-01-24T08:30:53.000Z</time>
      </trkpt>
      <trkpt lat="46.52423" lon="0.34265">
        <ele>106.8</ele>
        <time>2021-01-24T08:30:54.000Z</time>
      </trkpt>
      <trkpt lat="46.52423" lon="0.34265">
        <ele>107</ele>
        <time>2021-01-24T08:30:55.000Z</time>
      </trkpt>
      <trkpt lat="46.52423" lon="0.34265">
        <ele>107</ele>
        <time>2021-01-24T08:30:56.000Z</time>
      </trkpt>
      <trkpt lat="46.52423" lon="0.34265">
        <ele>107</ele>
        <time>2021-01-24T08:30:57.000Z</time>
      </trkpt>
      <trkpt lat="46.52423" lon="0.34265">
        <ele>107.2</ele>
        <time>2021-01-24T08:30:58.000Z</time>
      </trkpt>
      <trkpt lat="46.52423" lon="0.34265">
        <ele>107.2</ele>
        <time>2021-01-24T08:30:59.000Z</time>
      </trkpt>
      <trkpt lat="46.52423" lon="0.34265">
        <ele>107.2</ele>
        <time>2021-01-24T08:31:00.000Z</time>
      </trkpt>
      <trkpt lat="46.52423" lon="0.34265">
        <ele>107.2</ele>
        <time>2021-01-24T08:31:01.000Z</time>
      </trkpt>
      <trkpt lat="46.52423" lon="0.34265">
        <ele>107.4</ele>
        <time>2021-01-24T08:31:02.000Z</time>
      </trkpt>
      <trkpt lat="46.52422" lon="0.34265">
        <ele>107.4</ele>
        <time>2021-01-24T08:31:03.000Z</time>
      </trkpt>
      <trkpt lat="46.52422" lon="0.34265">
        <ele>107.4</ele>
        <time>2021-01-24T08:31:04.000Z</time>
      </trkpt>
      <trkpt lat="46.52422" lon="0.34265">
        <ele>107.4</ele>
        <time>2021-01-24T08:31:05.000Z</time>
      </trkpt>
      <trkpt lat="46.52422" lon="0.34265">
        <ele>107.4</ele>
        <time>2021-01-24T08:31:06.000Z</time>
      </trkpt>
      <trkpt lat="46.52422" lon="0.34265">
        <ele>107.6</ele>
        <time>2021-01-24T08:31:07.000Z</time>
      </trkpt>
      <trkpt lat="46.52422" lon="0.34265">
        <ele>107.6</ele>
        <time>2021-01-24T08:31:08.000Z</time>
      </trkpt>
      <trkpt lat="46.52422" lon="0.34265">
        <ele>107.6</ele>
        <time>2021-01-24T08:31:09.000Z</time>
      </trkpt>
      <trkpt lat="46.52422" lon="0.34265">
        <ele>107.8</ele>
        <time>2021-01-24T08:31:10.000Z</time>
      </trkpt>
      <trkpt lat="46.52422" lon="0.34265">
        <ele>107.8</ele>
        <time>2021-01-24T08:31:11.000Z</time>
      </trkpt>
      <trkpt lat="46.52422" lon="0.34265">
        <ele>107.8</ele>
        <time>2021-01-24T08:31:12.000Z</time>
      </trkpt>
      <trkpt lat="46.52421" lon="0.34265">
        <ele>107.8</ele>
        <time>2021-01-24T08:31:13.000Z</time>
      </trkpt>
      <trkpt lat="46.52421" lon="0.34265">
        <ele>108</ele>
        <time>2021-01-24T08:31:14.000Z</time>
      </trkpt>
      <trkpt lat="46.52421" lon="0.34265">
        <ele>108</ele>
        <time>2021-01-24T08:31:15.000Z</time>
      </trkpt>
      <trkpt lat="46.52421" lon="0.34265">
        <ele>108</ele>
        <time>2021-01-24T08:31:16.000Z</time>
      </trkpt>
      <trkpt lat="46.52421" lon="0.34266">
        <ele>108</ele>
        <time>2021-01-24T08:31:17.000Z</time>
      </trkpt>
      <trkpt lat="46.52421" lon="0.34266">
        <ele>108.2</ele>
        <time>2021-01-24T08:31:18.000Z</time>
      </trkpt>
      <trkpt lat="46.52421" lon="0.34266">
        <ele>108.2</ele>
        <time>2021-01-24T08:31:19.000Z</time>
      </trkpt>
      <trkpt lat="46.52421" lon="0.34266">
        <ele>108.2</ele>
        <time>2021-01-24T08:31:20.000Z</time>
      </trkpt>
      <trkpt lat="46.52421" lon="0.34266">
        <ele>108.2</ele>
        <time>2021-01-24T08:31:21.000Z</time>
      </trkpt>
      <trkpt lat="46.52421" lon="0.34266">
        <ele>108.2</ele>
        <time>2021-01-24T08:31:22.000Z</time>
      </trkpt>
      <trkpt lat="46.52421" lon="0.34266">
        <ele>108.4</ele>
        <time>2021-01-24T08:31:23.000Z</time>
      </trkpt>
      <trkpt lat="46.5242" lon="0.34266">
        <ele>108.4</ele>
        <time>2021-01-24T08:31:24.000Z</time>
      </trkpt>
      <trkpt lat="46.5242" lon="0.34266">
        <ele>108.4</ele>
        <time>2021-01-24T08:31:25.000Z</time>
      </trkpt>
      <trkpt lat="46.5242" lon="0.34266">
        <ele>108.4</ele>
        <time>2021-01-24T08:31:26.000Z</time>
      </trkpt>
      <trkpt lat="46.5242" lon="0.34266">
        <ele>108.4</ele>
        <time>2021-01-24T08:31:27.000Z</time>
      </trkpt>
      <trkpt lat="46.5242" lon="0.34266">
        <ele>108.4</ele>
        <time>2021-01-24T08:31:28.000Z</time>
      </trkpt>
      <trkpt lat="46.5242" lon="0.34266">
        <ele>108.6</ele>
        <time>2021-01-24T08:31:29.000Z</time>
      </trkpt>
      <trkpt lat="46.5242" lon="0.34266">
        <ele>108.6</ele>
        <time>2021-01-24T08:31:30.000Z</time>
      </trkpt>
      <trkpt lat="46.5242" lon="0.34266">
        <ele>108.6</ele>
        <time>2021-01-24T08:31:31.000Z</time>
      </trkpt>
      <trkpt lat="46.5242" lon="0.34266">
        <ele>108.6</ele>
        <time>2021-01-24T08:31:32.000Z</time>
      </trkpt>
      <trkpt lat="46.5242" lon="0.34266">
        <ele>108.6</ele>
        <time>2021-01-24T08:31:33.000Z</time>
      </trkpt>
      <trkpt lat="46.52419" lon="0.34266">
        <ele>108.6</ele>
        <time>2021-01-24T08:31:34.000Z</time>
      </trkpt>
      <trkpt lat="46.52419" lon="0.34266">
        <ele>108.8</ele>
        <time>2021-01-24T08:31:35.000Z</time>
      </trkpt>
      <trkpt lat="46.52419" lon="0.34266">
        <ele>108.8</ele>
        <time>2021-01-24T08:31:36.000Z</time>
      </trkpt>
      <trkpt lat="46.52419" lon="0.34266">
        <ele>108.8</ele>
        <time>2021-01-24T08:31:37.000Z</time>
      </trkpt>
      <trkpt lat="46.52419" lon="0.34266">
        <ele>108.8</ele>
        <time>2021-01-24T08:31:38.000Z</time>
      </trkpt>
      <trkpt lat="46.52419" lon="0.34266">
        <ele>108.8</ele>
        <time>2021-01-24T08:31:39.000Z</time>
      </trkpt>
      <trkpt lat="46.52419" lon="0.34266">
        <ele>108.8</ele>
        <time>2021-01-24T08:31:40.000Z</time>
      </trkpt>
      <trkpt lat="46.52419" lon="0.34266">
        <ele>108.8</ele>
        <time>2021-01-24T08:31:41.000Z</time>
      </trkpt>
      <trkpt lat="46.52419" lon="0.34266">
        <ele>109</ele>
        <time>2021-01-24T08:31:42.000Z</time>
      </trkpt>
      <trkpt lat="46.52419" lon="0.34266">
        <ele>109</ele>
        <time>2021-01-24T08:31:43.000Z</time>
      </trkpt>
      <trkpt lat="46.52419" lon="0.34266">
        <ele>109</ele>
        <time>2021-01-24T08:31:44.000Z</time>
      </trkpt>
      <trkpt lat="46.52418" lon="0.34266">
        <ele>109</ele>
        <time>2021-01-24T08:31:45.000Z</time>
      </trkpt>
      <trkpt lat="46.52418" lon="0.34267">
        <ele>109</ele>
        <time>2021-01-24T08:31:46.000Z</time>
      </trkpt>
      <trkpt lat="46.52418" lon="0.34267">
        <ele>109</ele>
        <time>2021-01-24T08:31:47.000Z</time>
      </trkpt>
      <trkpt lat="46.52418" lon="0.34267">
        <ele>109</ele>
        <time>2021-01-24T08:31:48.000Z</time>
      </trkpt>
      <trkpt lat="46.52418" lon="0.34267">
        <ele>109</ele>
        <time>2021-01-24T08:31:49.000Z</time>
      </trkpt>
      <trkpt lat="46.52418" lon="0.34267">
        <ele>109</ele>
        <time>2021-01-24T08:31:50.000Z</time>
      </trkpt>
      <trkpt lat="46.52418" lon="0.34267">
        <ele>109.2</ele>
        <time>2021-01-24T08:31:51.000Z</time>
      </trkpt>
      <trkpt lat="46.52418" lon="0.34267">
        <ele>109.2</ele>
        <time>2021-01-24T08:31:52.000Z</time>
      </trkpt>
      <trkpt lat="46.52418" lon="0.34267">
        <ele>109.2</ele>
        <time>2021-01-24T08:31:53.000Z</time>
      </trkpt>
      <trkpt lat="46.52414" lon="0.34268">
        <ele>109.2</ele>
        <time>2021-01-24T08:31:54.000Z</time>
      </trkpt>
      <trkpt lat="46.52409" lon="0.34271">
        <ele>109.2</ele>
        <time>2021-01-24T08:31:55.000Z</time>
      </trkpt>
      <trkpt lat="46.52403" lon="0.34274">
        <ele>109.2</ele>
        <time>2021-01-24T08:31:56.000Z</time>
      </trkpt>
      <trkpt lat="46.52397" lon="0.34277">
        <ele>109.2</ele>
        <time>2021-01-24T08:31:57.000Z</time>
      </trkpt>
      <trkpt lat="46.52389" lon="0.34281">
        <ele>109.2</ele>
        <time>2021-01-24T08:31:58.000Z</time>
      </trkpt>
      <trkpt lat="46.52383" lon="0.34283">
        <ele>109</ele>
        <time>2021-01-24T08:31:59.000Z</time>
      </trkpt>
      <trkpt lat="46.52377" lon="0.34288">
        <ele>109</ele>
        <time>2021-01-24T08:32:00.000Z</time>
      </trkpt>
      <trkpt lat="46.52371" lon="0.34291">
        <ele>109</ele>
        <time>2021-01-24T08:32:01.000Z</time>
      </trkpt>
      <trkpt lat="46.52363" lon="0.34295">
        <ele>108.8</ele>
        <time>2021-01-24T08:32:02.000Z</time>
      </trkpt>
      <trkpt lat="46.52357" lon="0.34297">
        <ele>108.8</ele>
        <time>2021-01-24T08:32:03.000Z</time>
      </trkpt>
      <trkpt lat="46.52351" lon="0.34299">
        <ele>108.6</ele>
        <time>2021-01-24T08:32:04.000Z</time>
      </trkpt>
      <trkpt lat="46.52344" lon="0.34301">
        <ele>108.6</ele>
        <time>2021-01-24T08:32:05.000Z</time>
      </trkpt>
      <trkpt lat="46.52337" lon="0.34301">
        <ele>108.4</ele>
        <time>2021-01-24T08:32:06.000Z</time>
      </trkpt>
      <trkpt lat="46.5233" lon="0.34301">
        <ele>108.2</ele>
        <time>2021-01-24T08:32:07.000Z</time>
      </trkpt>
      <trkpt lat="46.52323" lon="0.34299">
        <ele>108</ele>
        <time>2021-01-24T08:32:08.000Z</time>
      </trkpt>
      <trkpt lat="46.52318" lon="0.34299">
        <ele>108</ele>
        <time>2021-01-24T08:32:09.000Z</time>
      </trkpt>
      <trkpt lat="46.52313" lon="0.343">
        <ele>107.8</ele>
        <time>2021-01-24T08:32:10.000Z</time>
      </trkpt>
      <trkpt lat="46.52308" lon="0.34304">
        <ele>107.6</ele>
        <time>2021-01-24T08:32:11.000Z</time>
      </trkpt>
      <trkpt lat="46.52303" lon="0.34309">
        <ele>107.2</ele>
        <time>2021-01-24T08:32:12.000Z</time>
      </trkpt>
      <trkpt lat="46.52297" lon="0.34314">
        <ele>107</ele>
        <time>2021-01-24T08:32:13.000Z</time>
      </trkpt>
      <trkpt lat="46.5229" lon="0.3432">
        <ele>106.6</ele>
        <time>2021-01-24T08:32:14.000Z</time>
      </trkpt>
      <trkpt lat="46.52283" lon="0.34326">
        <ele>106.4</ele>
        <time>2021-01-24T08:32:15.000Z</time>
      </trkpt>
      <trkpt lat="46.52275" lon="0.34332">
        <ele>106</ele>
        <time>2021-01-24T08:32:16.000Z</time>
      </trkpt>
      <trkpt lat="46.52268" lon="0.34336">
        <ele>105.8</ele>
        <time>2021-01-24T08:32:17.000Z</time>
      </trkpt>
      <trkpt lat="46.52261" lon="0.34339">
        <ele>105.4</ele>
        <time>2021-01-24T08:32:18.000Z</time>
      </trkpt>
      <trkpt lat="46.52253" lon="0.34341">
        <ele>105.2</ele>
        <time>2021-01-24T08:32:19.000Z</time>
      </trkpt>
      <trkpt lat="46.52246" lon="0.34342">
        <ele>105</ele>
        <time>2021-01-24T08:32:20.000Z</time>
      </trkpt>
      <trkpt lat="46.5224" lon="0.34345">
        <ele>104.6</ele>
        <time>2021-01-24T08:32:21.000Z</time>
      </trkpt>
      <trkpt lat="46.52234" lon="0.34346">
        <ele>104.4</ele>
        <time>2021-01-24T08:32:22.000Z</time>
      </trkpt>
      <trkpt lat="46.52226" lon="0.34344">
        <ele>104.2</ele>
        <time>2021-01-24T08:32:23.000Z</time>
      </trkpt>
      <trkpt lat="46.52219" lon="0.34341">
        <ele>104</ele>
        <time>2021-01-24T08:32:24.000Z</time>
      </trkpt>
      <trkpt lat="46.52213" lon="0.34337">
        <ele>103.6</ele>
        <time>2021-01-24T08:32:25.000Z</time>
      </trkpt>
      <trkpt lat="46.52206" lon="0.34336">
        <ele>103.4</ele>
        <time>2021-01-24T08:32:26.000Z</time>
      </trkpt>
      <trkpt lat="46.522" lon="0.34335">
        <ele>103.2</ele>
        <time>2021-01-24T08:32:27.000Z</time>
      </trkpt>
      <trkpt lat="46.52194" lon="0.34333">
        <ele>103</ele>
        <time>2021-01-24T08:32:28.000Z</time>
      </trkpt>
      <trkpt lat="46.52189" lon="0.34332">
        <ele>102.6</ele>
        <time>2021-01-24T08:32:29.000Z</time>
      </trkpt>
      <trkpt lat="46.52182" lon="0.3433">
        <ele>102.4</ele>
        <time>2021-01-24T08:32:30.000Z</time>
      </trkpt>
      <trkpt lat="46.52176" lon="0.34326">
        <ele>102</ele>
        <time>2021-01-24T08:32:31.000Z</time>
      </trkpt>
      <trkpt lat="46.52169" lon="0.34322">
        <ele>101.8</ele>
        <time>2021-01-24T08:32:32.000Z</time>
      </trkpt>
      <trkpt lat="46.52161" lon="0.34318">
        <ele>101.6</ele>
        <time>2021-01-24T08:32:33.000Z</time>
      </trkpt>
      <trkpt lat="46.52155" lon="0.34314">
        <ele>101.4</ele>
        <time>2021-01-24T08:32:34.000Z</time>
      </trkpt>
      <trkpt lat="46.52147" lon="0.3431">
        <ele>101.2</ele>
        <time>2021-01-24T08:32:35.000Z</time>
      </trkpt>
      <trkpt lat="46.52141" lon="0.34307">
        <ele>100.8</ele>
        <time>2021-01-24T08:32:36.000Z</time>
      </trkpt>
      <trkpt lat="46.52136" lon="0.34307">
        <ele>100.6</ele>
        <time>2021-01-24T08:32:37.000Z</time>
      </trkpt>
      <trkpt lat="46.52133" lon="0.34308">
        <ele>100.4</ele>
        <time>2021-01-24T08:32:38.000Z</time>
      </trkpt>
      <trkpt lat="46.5213" lon="0.3431">
        <ele>100.2</ele>
        <time>2021-01-24T08:32:39.000Z</time>
      </trkpt>
      <trkpt lat="46.52127" lon="0.34311">
        <ele>100</ele>
        <time>2021-01-24T08:32:40.000Z</time>
      </trkpt>
      <trkpt lat="46.52124" lon="0.34312">
        <ele>99.8</ele>
        <time>2021-01-24T08:32:41.000Z</time>
      </trkpt>
      <trkpt lat="46.52122" lon="0.34312">
        <ele>99.6</ele>
        <time>2021-01-24T08:32:42.000Z</time>
      </trkpt>
      <trkpt lat="46.52118" lon="0.34312">
        <ele>99.4</ele>
        <time>2021-01-24T08:32:43.000Z</time>
      </trkpt>
      <trkpt lat="46.52114" lon="0.34312">
        <ele>99.4</ele>
        <time>2021-01-24T08:32:44.000Z</time>
      </trkpt>
      <trkpt lat="46.52111" lon="0.34311">
        <ele>99.2</ele>
        <time>2021-01-24T08:32:45.000Z</time>
      </trkpt>
      <trkpt lat="46.52108" lon="0.34311">
        <ele>99</ele>
        <time>2021-01-24T08:32:46.000Z</time>
      </trkpt>
      <trkpt lat="46.52105" lon="0.34311">
        <ele>98.8</ele>
        <time>2021-01-24T08:32:47.000Z</time>
      </trkpt>
      <trkpt lat="46.52102" lon="0.34311">
        <ele>98.6</ele>
        <time>2021-01-24T08:32:48.000Z</time>
      </trkpt>
      <trkpt lat="46.521" lon="0.34311">
        <ele>98.4</ele>
        <time>2021-01-24T08:32:49.000Z</time>
      </trkpt>
      <trkpt lat="46.52097" lon="0.34313">
        <ele>98.2</ele>
        <time>2021-01-24T08:32:50.000Z</time>
      </trkpt>
      <trkpt lat="46.52096" lon="0.34314">
        <ele>98</ele>
        <time>2021-01-24T08:32:51.000Z</time>
      </trkpt>
      <trkpt lat="46.52093" lon="0.34315">
        <ele>97.8</ele>
        <time>2021-01-24T08:32:52.000Z</time>
      </trkpt>
      <trkpt lat="46.52093" lon="0.34315">
        <ele>97.6</ele>
        <time>2021-01-24T08:32:53.000Z</time>
      </trkpt>
      <trkpt lat="46.52092" lon="0.34317">
        <ele>97.6</ele>
        <time>2021-01-24T08:32:54.000Z</time>
      </trkpt>
      <trkpt lat="46.52092" lon="0.34317">
        <ele>97.4</ele>
        <time>2021-01-24T08:32:55.000Z</time>
      </trkpt>
      <trkpt lat="46.52092" lon="0.34317">
        <ele>97.2</ele>
        <time>2021-01-24T08:32:56.000Z</time>
      </trkpt>
      <trkpt lat="46.52091" lon="0.34317">
        <ele>97</ele>
        <time>2021-01-24T08:32:57.000Z</time>
      </trkpt>
      <trkpt lat="46.52091" lon="0.34317">
        <ele>96.8</ele>
        <time>2021-01-24T08:32:58.000Z</time>
      </trkpt>
      <trkpt lat="46.52091" lon="0.34317">
        <ele>96.6</ele>
        <time>2021-01-24T08:32:59.000Z</time>
      </trkpt>
      <trkpt lat="46.5209" lon="0.34317">
        <ele>96.4</ele>
        <time>2021-01-24T08:33:00.000Z</time>
      </trkpt>
      <trkpt lat="46.5209" lon="0.34318">
        <ele>96.2</ele>
        <time>2021-01-24T08:33:01.000Z</time>
      </trkpt>
      <trkpt lat="46.5209" lon="0.34318">
        <ele>96</ele>
        <time>2021-01-24T08:33:02.000Z</time>
      </trkpt>
      <trkpt lat="46.52089" lon="0.34318">
        <ele>95.8</ele>
        <time>2021-01-24T08:33:03.000Z</time>
      </trkpt>
      <trkpt lat="46.52089" lon="0.34318">
        <ele>95.6</ele>
        <time>2021-01-24T08:33:04.000Z</time>
      </trkpt>
      <trkpt lat="46.52089" lon="0.34318">
        <ele>95.6</ele>
        <time>2021-01-24T08:33:05.000Z</time>
      </trkpt>
      <trkpt lat="46.52088" lon="0.34318">
        <ele>95.4</ele>
        <time>2021-01-24T08:33:06.000Z</time>
      </trkpt>
      <trkpt lat="46.52088" lon="0.34318">
        <ele>95.2</ele>
        <time>2021-01-24T08:33:07.000Z</time>
      </trkpt>
      <trkpt lat="46.52088" lon="0.34318">
        <ele>95.2</ele>
        <time>2021-01-24T08:33:08.000Z</time>
      </trkpt>
      <trkpt lat="46.52087" lon="0.34318">
        <ele>95</ele>
        <time>2021-01-24T08:33:09.000Z</time>
      </trkpt>
      <trkpt lat="46.52087" lon="0.34318">
        <ele>94.8</ele>
        <time>2021-01-24T08:33:10.000Z</time>
      </trkpt>
      <trkpt lat="46.52087" lon="0.34318">
        <ele>94.6</ele>
        <time>2021-01-24T08:33:11.000Z</time>
      </trkpt>
      <trkpt lat="46.52086" lon="0.34319">
        <ele>94.6</ele>
        <time>2021-01-24T08:33:12.000Z</time>
      </trkpt>
      <trkpt lat="46.52086" lon="0.34319">
        <ele>94.4</ele>
        <time>2021-01-24T08:33:13.000Z</time>
      </trkpt>
      <trkpt lat="46.52086" lon="0.34319">
        <ele>94.4</ele>
        <time>2021-01-24T08:33:14.000Z</time>
      </trkpt>
      <trkpt lat="46.52085" lon="0.34319">
        <ele>94.2</ele>
        <time>2021-01-24T08:33:15.000Z</time>
      </trkpt>
      <trkpt lat="46.52085" lon="0.34319">
        <ele>94.2</ele>
        <time>2021-01-24T08:33:16.000Z</time>
      </trkpt>
      <trkpt lat="46.52085" lon="0.34319">
        <ele>94</ele>
        <time>2021-01-24T08:33:17.000Z</time>
      </trkpt>
      <trkpt lat="46.52085" lon="0.34319">
        <ele>94</ele>
        <time>2021-01-24T08:33:18.000Z</time>
      </trkpt>
      <trkpt lat="46.52084" lon="0.34319">
        <ele>93.8</ele>
        <time>2021-01-24T08:33:19.000Z</time>
      </trkpt>
      <trkpt lat="46.52084" lon="0.34319">
        <ele>93.8</ele>
        <time>2021-01-24T08:33:20.000Z</time>
      </trkpt>
      <trkpt lat="46.52084" lon="0.34319">
        <ele>93.6</ele>
        <time>2021-01-24T08:33:21.000Z</time>
      </trkpt>
      <trkpt lat="46.52079" lon="0.3432">
        <ele>93.6</ele>
        <time>2021-01-24T08:33:22.000Z</time>
      </trkpt>
      <trkpt lat="46.52075" lon="0.34321">
        <ele>93.6</ele>
        <time>2021-01-24T08:33:23.000Z</time>
      </trkpt>
      <trkpt lat="46.52069" lon="0.34322">
        <ele>93.4</ele>
        <time>2021-01-24T08:33:24.000Z</time>
      </trkpt>
      <trkpt lat="46.52065" lon="0.34323">
        <ele>93.4</ele>
        <time>2021-01-24T08:33:25.000Z</time>
      </trkpt>
      <trkpt lat="46.5206" lon="0.34324">
        <ele>93.4</ele>
        <time>2021-01-24T08:33:26.000Z</time>
      </trkpt>
      <trkpt lat="46.52056" lon="0.34325">
        <ele>93.4</ele>
        <time>2021-01-24T08:33:27.000Z</time>
      </trkpt>
      <trkpt lat="46.52052" lon="0.34326">
        <ele>93.2</ele>
        <time>2021-01-24T08:33:28.000Z</time>
      </trkpt>
      <trkpt lat="46.52048" lon="0.34327">
        <ele>93.2</ele>
        <time>2021-01-24T08:33:29.000Z</time>
      </trkpt>
      <trkpt lat="46.52044" lon="0.34329">
        <ele>93</ele>
        <time>2021-01-24T08:33:30.000Z</time>
      </trkpt>
      <trkpt lat="46.5204" lon="0.3433">
        <ele>92.8</ele>
        <time>2021-01-24T08:33:31.000Z</time>
      </trkpt>
      <trkpt lat="46.52036" lon="0.34331">
        <ele>92.8</ele>
        <time>2021-01-24T08:33:32.000Z</time>
      </trkpt>
      <trkpt lat="46.52032" lon="0.34332">
        <ele>92.6</ele>
        <time>2021-01-24T08:33:33.000Z</time>
      </trkpt>
      <trkpt lat="46.52028" lon="0.34333">
        <ele>92.6</ele>
        <time>2021-01-24T08:33:34.000Z</time>
      </trkpt>
      <trkpt lat="46.52024" lon="0.34335">
        <ele>92.4</ele>
        <time>2021-01-24T08:33:35.000Z</time>
      </trkpt>
      <trkpt lat="46.52021" lon="0.34339">
        <ele>92.4</ele>
        <time>2021-01-24T08:33:36.000Z</time>
      </trkpt>
      <trkpt lat="46.52018" lon="0.34343">
        <ele>92.4</ele>
        <time>2021-01-24T08:33:37.000Z</time>
      </trkpt>
      <trkpt lat="46.52016" lon="0.34348">
        <ele>92.4</ele>
        <time>2021-01-24T08:33:38.000Z</time>
      </trkpt>
      <trkpt lat="46.52013" lon="0.34352">
        <ele>92.4</ele>
        <time>2021-01-24T08:33:39.000Z</time>
      </trkpt>
      <trkpt lat="46.52012" lon="0.34357">
        <ele>92.4</ele>
        <time>2021-01-24T08:33:40.000Z</time>
      </trkpt>
      <trkpt lat="46.5201" lon="0.34361">
        <ele>92.2</ele>
        <time>2021-01-24T08:33:41.000Z</time>
      </trkpt>
      <trkpt lat="46.52009" lon="0.34367">
        <ele>92.2</ele>
        <time>2021-01-24T08:33:42.000Z</time>
      </trkpt>
      <trkpt lat="46.52009" lon="0.34372">
        <ele>92</ele>
        <time>2021-01-24T08:33:43.000Z</time>
      </trkpt>
      <trkpt lat="46.5201" lon="0.34377">
        <ele>92</ele>
        <time>2021-01-24T08:33:44.000Z</time>
      </trkpt>
      <trkpt lat="46.52009" lon="0.34383">
        <ele>92</ele>
        <time>2021-01-24T08:33:45.000Z</time>
      </trkpt>
      <trkpt lat="46.52009" lon="0.34389">
        <ele>91.8</ele>
        <time>2021-01-24T08:33:46.000Z</time>
      </trkpt>
      <trkpt lat="46.5201" lon="0.34394">
        <ele>91.8</ele>
        <time>2021-01-24T08:33:47.000Z</time>
      </trkpt>
      <trkpt lat="46.52011" lon="0.34398">
        <ele>91.8</ele>
        <time>2021-01-24T08:33:48.000Z</time>
      </trkpt>
      <trkpt lat="46.52013" lon="0.34402">
        <ele>91.8</ele>
        <time>2021-01-24T08:33:49.000Z</time>
      </trkpt>
      <trkpt lat="46.52015" lon="0.34405">
        <ele>91.8</ele>
        <time>2021-01-24T08:33:50.000Z</time>
      </trkpt>
      <trkpt lat="46.52018" lon="0.34407">
        <ele>91.8</ele>
        <time>2021-01-24T08:33:51.000Z</time>
      </trkpt>
      <trkpt lat="46.52022" lon="0.34408">
        <ele>91.8</ele>
        <time>2021-01-24T08:33:52.000Z</time>
      </trkpt>
      <trkpt lat="46.52025" lon="0.34409">
        <ele>92</ele>
        <time>2021-01-24T08:33:53.000Z</time>
      </trkpt>
      <trkpt lat="46.52028" lon="0.34409">
        <ele>92</ele>
        <time>2021-01-24T08:33:54.000Z</time>
      </trkpt>
      <trkpt lat="46.52031" lon="0.34411">
        <ele>92</ele>
        <time>2021-01-24T08:33:55.000Z</time>
      </trkpt>
      <trkpt lat="46.52033" lon="0.34412">
        <ele>92.2</ele>
        <time>2021-01-24T08:33:56.000Z</time>
      </trkpt>
      <trkpt lat="46.52036" lon="0.34417">
        <ele>92.4</ele>
        <time>2021-01-24T08:33:57.000Z</time>
      </trkpt>
      <trkpt lat="46.52037" lon="0.34422">
        <ele>92.4</ele>
        <time>2021-01-24T08:33:58.000Z</time>
      </trkpt>
      <trkpt lat="46.52038" lon="0.34427">
        <ele>92.4</ele>
        <time>2021-01-24T08:33:59.000Z</time>
      </trkpt>
      <trkpt lat="46.52039" lon="0.34432">
        <ele>92.4</ele>
        <time>2021-01-24T08:34:00.000Z</time>
      </trkpt>
      <trkpt lat="46.52039" lon="0.34438">
        <ele>92.4</ele>
        <time>2021-01-24T08:34:01.000Z</time>
      </trkpt>
      <trkpt lat="46.52041" lon="0.34444">
        <ele>92.4</ele>
        <time>2021-01-24T08:34:02.000Z</time>
      </trkpt>
      <trkpt lat="46.52042" lon="0.34449">
        <ele>92.6</ele>
        <time>2021-01-24T08:34:03.000Z</time>
      </trkpt>
      <trkpt lat="46.52042" lon="0.34453">
        <ele>92.6</ele>
        <time>2021-01-24T08:34:04.000Z</time>
      </trkpt>
      <trkpt lat="46.52042" lon="0.34458">
        <ele>92.6</ele>
        <time>2021-01-24T08:34:05.000Z</time>
      </trkpt>
      <trkpt lat="46.52043" lon="0.34463">
        <ele>92.6</ele>
        <time>2021-01-24T08:34:06.000Z</time>
      </trkpt>
      <trkpt lat="46.52043" lon="0.34468">
        <ele>92.6</ele>
        <time>2021-01-24T08:34:07.000Z</time>
      </trkpt>
      <trkpt lat="46.52044" lon="0.34473">
        <ele>92.8</ele>
        <time>2021-01-24T08:34:08.000Z</time>
      </trkpt>
      <trkpt lat="46.52045" lon="0.34478">
        <ele>92.8</ele>
        <time>2021-01-24T08:34:09.000Z</time>
      </trkpt>
      <trkpt lat="46.52046" lon="0.34482">
        <ele>92.8</ele>
        <time>2021-01-24T08:34:10.000Z</time>
      </trkpt>
      <trkpt lat="46.52046" lon="0.34487">
        <ele>92.8</ele>
        <time>2021-01-24T08:34:11.000Z</time>
      </trkpt>
      <trkpt lat="46.52045" lon="0.34491">
        <ele>92.8</ele>
        <time>2021-01-24T08:34:12.000Z</time>
      </trkpt>
      <trkpt lat="46.52045" lon="0.34495">
        <ele>92.8</ele>
        <time>2021-01-24T08:34:13.000Z</time>
      </trkpt>
      <trkpt lat="46.52045" lon="0.345">
        <ele>92.8</ele>
        <time>2021-01-24T08:34:14.000Z</time>
      </trkpt>
      <trkpt lat="46.52045" lon="0.34505">
        <ele>92.8</ele>
        <time>2021-01-24T08:34:15.000Z</time>
      </trkpt>
      <trkpt lat="46.52045" lon="0.34509">
        <ele>92.8</ele>
        <time>2021-01-24T08:34:16.000Z</time>
      </trkpt>
      <trkpt lat="46.52044" lon="0.34513">
        <ele>92.8</ele>
        <time>2021-01-24T08:34:17.000Z</time>
      </trkpt>
      <trkpt lat="46.52044" lon="0.34517">
        <ele>92.8</ele>
        <time>2021-01-24T08:34:18.000Z</time>
      </trkpt>
      <trkpt lat="46.52044" lon="0.34521">
        <ele>93</ele>
        <time>2021-01-24T08:34:19.000Z</time>
      </trkpt>
      <trkpt lat="46.52044" lon="0.34525">
        <ele>93</ele>
        <time>2021-01-24T08:34:20.000Z</time>
      </trkpt>
      <trkpt lat="46.52043" lon="0.34529">
        <ele>93</ele>
        <time>2021-01-24T08:34:21.000Z</time>
      </trkpt>
      <trkpt lat="46.52043" lon="0.34533">
        <ele>93</ele>
        <time>2021-01-24T08:34:22.000Z</time>
      </trkpt>
      <trkpt lat="46.52043" lon="0.34536">
        <ele>93</ele>
        <time>2021-01-24T08:34:23.000Z</time>
      </trkpt>
      <trkpt lat="46.52043" lon="0.3454">
        <ele>93.2</ele>
        <time>2021-01-24T08:34:24.000Z</time>
      </trkpt>
      <trkpt lat="46.52043" lon="0.34543">
        <ele>93.2</ele>
        <time>2021-01-24T08:34:25.000Z</time>
      </trkpt>
      <trkpt lat="46.52043" lon="0.34546">
        <ele>93.2</ele>
        <time>2021-01-24T08:34:26.000Z</time>
      </trkpt>
      <trkpt lat="46.52042" lon="0.34549">
        <ele>93.2</ele>
        <time>2021-01-24T08:34:27.000Z</time>
      </trkpt>
      <trkpt lat="46.52042" lon="0.34553">
        <ele>93.4</ele>
        <time>2021-01-24T08:34:28.000Z</time>
      </trkpt>
      <trkpt lat="46.52042" lon="0.34556">
        <ele>93.4</ele>
        <time>2021-01-24T08:34:29.000Z</time>
      </trkpt>
      <trkpt lat="46.52042" lon="0.34561">
        <ele>93.4</ele>
        <time>2021-01-24T08:34:30.000Z</time>
      </trkpt>
      <trkpt lat="46.52042" lon="0.34564">
        <ele>93.6</ele>
        <time>2021-01-24T08:34:31.000Z</time>
      </trkpt>
      <trkpt lat="46.52042" lon="0.34568">
        <ele>93.6</ele>
        <time>2021-01-24T08:34:32.000Z</time>
      </trkpt>
      <trkpt lat="46.52042" lon="0.34573">
        <ele>93.6</ele>
        <time>2021-01-24T08:34:33.000Z</time>
      </trkpt>
      <trkpt lat="46.52042" lon="0.34577">
        <ele>93.8</ele>
        <time>2021-01-24T08:34:34.000Z</time>
      </trkpt>
      <trkpt lat="46.52042" lon="0.34581">
        <ele>93.8</ele>
        <time>2021-01-24T08:34:35.000Z</time>
      </trkpt>
      <trkpt lat="46.52042" lon="0.34586">
        <ele>94</ele>
        <time>2021-01-24T08:34:36.000Z</time>
      </trkpt>
      <trkpt lat="46.52042" lon="0.34591">
        <ele>94</ele>
        <time>2021-01-24T08:34:37.000Z</time>
      </trkpt>
      <trkpt lat="46.52042" lon="0.34596">
        <ele>94</ele>
        <time>2021-01-24T08:34:38.000Z</time>
      </trkpt>
      <trkpt lat="46.52042" lon="0.346">
        <ele>94.2</ele>
        <time>2021-01-24T08:34:39.000Z</time>
      </trkpt>
      <trkpt lat="46.52042" lon="0.34604">
        <ele>94.2</ele>
        <time>2021-01-24T08:34:40.000Z</time>
      </trkpt>
      <trkpt lat="46.52042" lon="0.34609">
        <ele>94.4</ele>
        <time>2021-01-24T08:34:41.000Z</time>
      </trkpt>
      <trkpt lat="46.52042" lon="0.34613">
        <ele>94.4</ele>
        <time>2021-01-24T08:34:42.000Z</time>
      </trkpt>
      <trkpt lat="46.52042" lon="0.34617">
        <ele>94.6</ele>
        <time>2021-01-24T08:34:43.000Z</time>
      </trkpt>
      <trkpt lat="46.52042" lon="0.34622">
        <ele>94.6</ele>
        <time>2021-01-24T08:34:44.000Z</time>
      </trkpt>
      <trkpt lat="46.52042" lon="0.34626">
        <ele>94.6</ele>
        <time>2021-01-24T08:34:45.000Z</time>
      </trkpt>
      <trkpt lat="46.52042" lon="0.3463">
        <ele>94.8</ele>
        <time>2021-01-24T08:34:46.000Z</time>
      </trkpt>
      <trkpt lat="46.52042" lon="0.34635">
        <ele>94.8</ele>
        <time>2021-01-24T08:34:47.000Z</time>
      </trkpt>
      <trkpt lat="46.52042" lon="0.34639">
        <ele>95</ele>
        <time>2021-01-24T08:34:48.000Z</time>
      </trkpt>
      <trkpt lat="46.52042" lon="0.34643">
        <ele>95</ele>
        <time>2021-01-24T08:34:49.000Z</time>
      </trkpt>
      <trkpt lat="46.52042" lon="0.34647">
        <ele>95.2</ele>
        <time>2021-01-24T08:34:50.000Z</time>
      </trkpt>
      <trkpt lat="46.52042" lon="0.34652">
        <ele>95.2</ele>
        <time>2021-01-24T08:34:51.000Z</time>
      </trkpt>
      <trkpt lat="46.52043" lon="0.34656">
        <ele>95.4</ele>
        <time>2021-01-24T08:34:52.000Z</time>
      </trkpt>
      <trkpt lat="46.52042" lon="0.3466">
        <ele>95.4</ele>
        <time>2021-01-24T08:34:53.000Z</time>
      </trkpt>
      <trkpt lat="46.52043" lon="0.34665">
        <ele>95.4</ele>
        <time>2021-01-24T08:34:54.000Z</time>
      </trkpt>
      <trkpt lat="46.52042" lon="0.34669">
        <ele>95.6</ele>
        <time>2021-01-24T08:34:55.000Z</time>
      </trkpt>
      <trkpt lat="46.52043" lon="0.34673">
        <ele>95.6</ele>
        <time>2021-01-24T08:34:56.000Z</time>
      </trkpt>
      <trkpt lat="46.52043" lon="0.34678">
        <ele>95.6</ele>
        <time>2021-01-24T08:34:57.000Z</time>
      </trkpt>
      <trkpt lat="46.52043" lon="0.34682">
        <ele>95.8</ele>
        <time>2021-01-24T08:34:58.000Z</time>
      </trkpt>
      <trkpt lat="46.52044" lon="0.34686">
        <ele>95.8</ele>
        <time>2021-01-24T08:34:59.000Z</time>
      </trkpt>
      <trkpt lat="46.52044" lon="0.3469">
        <ele>96</ele>
        <time>2021-01-24T08:35:00.000Z</time>
      </trkpt>
      <trkpt lat="46.52045" lon="0.34695">
        <ele>96</ele>
        <time>2021-01-24T08:35:01.000Z</time>
      </trkpt>
      <trkpt lat="46.52046" lon="0.34699">
        <ele>96.2</ele>
        <time>2021-01-24T08:35:02.000Z</time>
      </trkpt>
      <trkpt lat="46.52047" lon="0.34703">
        <ele>96.4</ele>
        <time>2021-01-24T08:35:03.000Z</time>
      </trkpt>
      <trkpt lat="46.52048" lon="0.34708">
        <ele>96.4</ele>
        <time>2021-01-24T08:35:04.000Z</time>
      </trkpt>
      <trkpt lat="46.52048" lon="0.34712">
        <ele>96.6</ele>
        <time>2021-01-24T08:35:05.000Z</time>
      </trkpt>
      <trkpt lat="46.52047" lon="0.34716">
        <ele>96.6</ele>
        <time>2021-01-24T08:35:06.000Z</time>
      </trkpt>
      <trkpt lat="46.52047" lon="0.34719">
        <ele>96.8</ele>
        <time>2021-01-24T08:35:07.000Z</time>
      </trkpt>
      <trkpt lat="46.52046" lon="0.34724">
        <ele>96.8</ele>
        <time>2021-01-24T08:35:08.000Z</time>
      </trkpt>
      <trkpt lat="46.52045" lon="0.34728">
        <ele>97</ele>
        <time>2021-01-24T08:35:09.000Z</time>
      </trkpt>
      <trkpt lat="46.52044" lon="0.34731">
        <ele>97</ele>
        <time>2021-01-24T08:35:10.000Z</time>
      </trkpt>
      <trkpt lat="46.52043" lon="0.34735">
        <ele>97</ele>
        <time>2021-01-24T08:35:11.000Z</time>
      </trkpt>
      <trkpt lat="46.52043" lon="0.34739">
        <ele>97.2</ele>
        <time>2021-01-24T08:35:12.000Z</time>
      </trkpt>
      <trkpt lat="46.52042" lon="0.34744">
        <ele>97.2</ele>
        <time>2021-01-24T08:35:13.000Z</time>
      </trkpt>
      <trkpt lat="46.52042" lon="0.34749">
        <ele>97.2</ele>
        <time>2021-01-24T08:35:14.000Z</time>
      </trkpt>
      <trkpt lat="46.52041" lon="0.34752">
        <ele>97.4</ele>
        <time>2021-01-24T08:35:15.000Z</time>
      </trkpt>
      <trkpt lat="46.52041" lon="0.34756">
        <ele>97.4</ele>
        <time>2021-01-24T08:35:16.000Z</time>
      </trkpt>
      <trkpt lat="46.52041" lon="0.34761">
        <ele>97.4</ele>
        <time>2021-01-24T08:35:17.000Z</time>
      </trkpt>
      <trkpt lat="46.52041" lon="0.34765">
        <ele>97.6</ele>
        <time>2021-01-24T08:35:18.000Z</time>
      </trkpt>
      <trkpt lat="46.52041" lon="0.34769">
        <ele>97.6</ele>
        <time>2021-01-24T08:35:19.000Z</time>
      </trkpt>
      <trkpt lat="46.52041" lon="0.34774">
        <ele>97.8</ele>
        <time>2021-01-24T08:35:20.000Z</time>
      </trkpt>
      <trkpt lat="46.5204" lon="0.34778">
        <ele>98</ele>
        <time>2021-01-24T08:35:21.000Z</time>
      </trkpt>
      <trkpt lat="46.52041" lon="0.34782">
        <ele>98.2</ele>
        <time>2021-01-24T08:35:22.000Z</time>
      </trkpt>
      <trkpt lat="46.52041" lon="0.34786">
        <ele>98.2</ele>
        <time>2021-01-24T08:35:23.000Z</time>
      </trkpt>
      <trkpt lat="46.52041" lon="0.34791">
        <ele>98.4</ele>
        <time>2021-01-24T08:35:24.000Z</time>
      </trkpt>
      <trkpt lat="46.52041" lon="0.34795">
        <ele>98.6</ele>
        <time>2021-01-24T08:35:25.000Z</time>
      </trkpt>
      <trkpt lat="46.52042" lon="0.34801">
        <ele>98.8</ele>
        <time>2021-01-24T08:35:26.000Z</time>
      </trkpt>
      <trkpt lat="46.52042" lon="0.34805">
        <ele>98.8</ele>
        <time>2021-01-24T08:35:27.000Z</time>
      </trkpt>
      <trkpt lat="46.52043" lon="0.3481">
        <ele>99</ele>
        <time>2021-01-24T08:35:28.000Z</time>
      </trkpt>
      <trkpt lat="46.52044" lon="0.34814">
        <ele>99.2</ele>
        <time>2021-01-24T08:35:29.000Z</time>
      </trkpt>
      <trkpt lat="46.52045" lon="0.34819">
        <ele>99.4</ele>
        <time>2021-01-24T08:35:30.000Z</time>
      </trkpt>
      <trkpt lat="46.52045" lon="0.34823">
        <ele>99.6</ele>
        <time>2021-01-24T08:35:31.000Z</time>
      </trkpt>
      <trkpt lat="46.52047" lon="0.34827">
        <ele>99.8</ele>
        <time>2021-01-24T08:35:32.000Z</time>
      </trkpt>
      <trkpt lat="46.52048" lon="0.34831">
        <ele>100</ele>
        <time>2021-01-24T08:35:33.000Z</time>
      </trkpt>
      <trkpt lat="46.52049" lon="0.34836">
        <ele>100.2</ele>
        <time>2021-01-24T08:35:34.000Z</time>
      </trkpt>
      <trkpt lat="46.5205" lon="0.34839">
        <ele>100.4</ele>
        <time>2021-01-24T08:35:35.000Z</time>
      </trkpt>
      <trkpt lat="46.52051" lon="0.34843">
        <ele>100.6</ele>
        <time>2021-01-24T08:35:36.000Z</time>
      </trkpt>
      <trkpt lat="46.52052" lon="0.34847">
        <ele>100.6</ele>
        <time>2021-01-24T08:35:37.000Z</time>
      </trkpt>
      <trkpt lat="46.52053" lon="0.3485">
        <ele>100.8</ele>
        <time>2021-01-24T08:35:38.000Z</time>
      </trkpt>
      <trkpt lat="46.52055" lon="0.34854">
        <ele>101</ele>
        <time>2021-01-24T08:35:39.000Z</time>
      </trkpt>
      <trkpt lat="46.52056" lon="0.34858">
        <ele>101</ele>
        <time>2021-01-24T08:35:40.000Z</time>
      </trkpt>
      <trkpt lat="46.52058" lon="0.34862">
        <ele>101.2</ele>
        <time>2021-01-24T08:35:41.000Z</time>
      </trkpt>
      <trkpt lat="46.52059" lon="0.34866">
        <ele>101.4</ele>
        <time>2021-01-24T08:35:42.000Z</time>
      </trkpt>
      <trkpt lat="46.5206" lon="0.3487">
        <ele>101.4</ele>
        <time>2021-01-24T08:35:43.000Z</time>
      </trkpt>
      <trkpt lat="46.52062" lon="0.34875">
        <ele>101.6</ele>
        <time>2021-01-24T08:35:44.000Z</time>
      </trkpt>
      <trkpt lat="46.52063" lon="0.34879">
        <ele>101.8</ele>
        <time>2021-01-24T08:35:45.000Z</time>
      </trkpt>
      <trkpt lat="46.52065" lon="0.34882">
        <ele>101.8</ele>
        <time>2021-01-24T08:35:46.000Z</time>
      </trkpt>
      <trkpt lat="46.52066" lon="0.34885">
        <ele>101.8</ele>
        <time>2021-01-24T08:35:47.000Z</time>
      </trkpt>
      <trkpt lat="46.52067" lon="0.34889">
        <ele>102</ele>
        <time>2021-01-24T08:35:48.000Z</time>
      </trkpt>
      <trkpt lat="46.52068" lon="0.34893">
        <ele>102</ele>
        <time>2021-01-24T08:35:49.000Z</time>
      </trkpt>
      <trkpt lat="46.52069" lon="0.34897">
        <ele>102.2</ele>
        <time>2021-01-24T08:35:50.000Z</time>
      </trkpt>
      <trkpt lat="46.52069" lon="0.34901">
        <ele>102.4</ele>
        <time>2021-01-24T08:35:51.000Z</time>
      </trkpt>
      <trkpt lat="46.5207" lon="0.34905">
        <ele>102.4</ele>
        <time>2021-01-24T08:35:52.000Z</time>
      </trkpt>
      <trkpt lat="46.5207" lon="0.34909">
        <ele>102.6</ele>
        <time>2021-01-24T08:35:53.000Z</time>
      </trkpt>
      <trkpt lat="46.5207" lon="0.34913">
        <ele>102.8</ele>
        <time>2021-01-24T08:35:54.000Z</time>
      </trkpt>
      <trkpt lat="46.52071" lon="0.34916">
        <ele>103</ele>
        <time>2021-01-24T08:35:55.000Z</time>
      </trkpt>
      <trkpt lat="46.52071" lon="0.3492">
        <ele>103</ele>
        <time>2021-01-24T08:35:56.000Z</time>
      </trkpt>
      <trkpt lat="46.52071" lon="0.34923">
        <ele>103.2</ele>
        <time>2021-01-24T08:35:57.000Z</time>
      </trkpt>
      <trkpt lat="46.52071" lon="0.34927">
        <ele>103.4</ele>
        <time>2021-01-24T08:35:58.000Z</time>
      </trkpt>
      <trkpt lat="46.52072" lon="0.34931">
        <ele>103.6</ele>
        <time>2021-01-24T08:35:59.000Z</time>
      </trkpt>
      <trkpt lat="46.52072" lon="0.34934">
        <ele>103.6</ele>
        <time>2021-01-24T08:36:00.000Z</time>
      </trkpt>
      <trkpt lat="46.52072" lon="0.34939">
        <ele>103.8</ele>
        <time>2021-01-24T08:36:01.000Z</time>
      </trkpt>
      <trkpt lat="46.52072" lon="0.34942">
        <ele>104</ele>
        <time>2021-01-24T08:36:02.000Z</time>
      </trkpt>
      <trkpt lat="46.52072" lon="0.34946">
        <ele>104.2</ele>
        <time>2021-01-24T08:36:03.000Z</time>
      </trkpt>
      <trkpt lat="46.52072" lon="0.34949">
        <ele>104.4</ele>
        <time>2021-01-24T08:36:04.000Z</time>
      </trkpt>
      <trkpt lat="46.52072" lon="0.34952">
        <ele>104.6</ele>
        <time>2021-01-24T08:36:05.000Z</time>
      </trkpt>
      <trkpt lat="46.52072" lon="0.34955">
        <ele>104.8</ele>
        <time>2021-01-24T08:36:06.000Z</time>
      </trkpt>
      <trkpt lat="46.52072" lon="0.34957">
        <ele>104.8</ele>
        <time>2021-01-24T08:36:07.000Z</time>
      </trkpt>
      <trkpt lat="46.52072" lon="0.34957">
        <ele>105</ele>
        <time>2021-01-24T08:36:08.000Z</time>
      </trkpt>
      <trkpt lat="46.5207" lon="0.34962">
        <ele>105.2</ele>
        <time>2021-01-24T08:36:09.000Z</time>
      </trkpt>
      <trkpt lat="46.52069" lon="0.34964">
        <ele>105.4</ele>
        <time>2021-01-24T08:36:10.000Z</time>
      </trkpt>
      <trkpt lat="46.52067" lon="0.34966">
        <ele>105.4</ele>
        <time>2021-01-24T08:36:11.000Z</time>
      </trkpt>
      <trkpt lat="46.52065" lon="0.34967">
        <ele>105.6</ele>
        <time>2021-01-24T08:36:12.000Z</time>
      </trkpt>
      <trkpt lat="46.52063" lon="0.34968">
        <ele>105.8</ele>
        <time>2021-01-24T08:36:13.000Z</time>
      </trkpt>
      <trkpt lat="46.52061" lon="0.34969">
        <ele>106</ele>
        <time>2021-01-24T08:36:14.000Z</time>
      </trkpt>
      <trkpt lat="46.52059" lon="0.3497">
        <ele>106.2</ele>
        <time>2021-01-24T08:36:15.000Z</time>
      </trkpt>
      <trkpt lat="46.52057" lon="0.34971">
        <ele>106.2</ele>
        <time>2021-01-24T08:36:16.000Z</time>
      </trkpt>
      <trkpt lat="46.52055" lon="0.34971">
        <ele>106.4</ele>
        <time>2021-01-24T08:36:17.000Z</time>
      </trkpt>
      <trkpt lat="46.52055" lon="0.34971">
        <ele>106.6</ele>
        <time>2021-01-24T08:36:18.000Z</time>
      </trkpt>
      <trkpt lat="46.5205" lon="0.34971">
        <ele>106.8</ele>
        <time>2021-01-24T08:36:19.000Z</time>
      </trkpt>
      <trkpt lat="46.5205" lon="0.34971">
        <ele>107</ele>
        <time>2021-01-24T08:36:20.000Z</time>
      </trkpt>
      <trkpt lat="46.52046" lon="0.34971">
        <ele>107</ele>
        <time>2021-01-24T08:36:21.000Z</time>
      </trkpt>
      <trkpt lat="46.52046" lon="0.34971">
        <ele>107.2</ele>
        <time>2021-01-24T08:36:22.000Z</time>
      </trkpt>
      <trkpt lat="46.52042" lon="0.34971">
        <ele>107.4</ele>
        <time>2021-01-24T08:36:23.000Z</time>
      </trkpt>
      <trkpt lat="46.5204" lon="0.34971">
        <ele>107.4</ele>
        <time>2021-01-24T08:36:24.000Z</time>
      </trkpt>
      <trkpt lat="46.52038" lon="0.34971">
        <ele>107.6</ele>
        <time>2021-01-24T08:36:25.000Z</time>
      </trkpt>
      <trkpt lat="46.52036" lon="0.34971">
        <ele>107.8</ele>
        <time>2021-01-24T08:36:26.000Z</time>
      </trkpt>
      <trkpt lat="46.52034" lon="0.34971">
        <ele>108</ele>
        <time>2021-01-24T08:36:27.000Z</time>
      </trkpt>
      <trkpt lat="46.52032" lon="0.34971">
        <ele>108.2</ele>
        <time>2021-01-24T08:36:28.000Z</time>
      </trkpt>
      <trkpt lat="46.52032" lon="0.34971">
        <ele>108.4</ele>
        <time>2021-01-24T08:36:29.000Z</time>
      </trkpt>
      <trkpt lat="46.52028" lon="0.34971">
        <ele>108.6</ele>
        <time>2021-01-24T08:36:30.000Z</time>
      </trkpt>
      <trkpt lat="46.52028" lon="0.34971">
        <ele>108.8</ele>
        <time>2021-01-24T08:36:31.000Z</time>
      </trkpt>
      <trkpt lat="46.52025" lon="0.34972">
        <ele>109</ele>
        <time>2021-01-24T08:36:32.000Z</time>
      </trkpt>
      <trkpt lat="46.52025" lon="0.34972">
        <ele>109</ele>
        <time>2021-01-24T08:36:33.000Z</time>
      </trkpt>
      <trkpt lat="46.52022" lon="0.34971">
        <ele>109.2</ele>
        <time>2021-01-24T08:36:34.000Z</time>
      </trkpt>
      <trkpt lat="46.52022" lon="0.34971">
        <ele>109.4</ele>
        <time>2021-01-24T08:36:35.000Z</time>
      </trkpt>
      <trkpt lat="46.5202" lon="0.34972">
        <ele>109.4</ele>
        <time>2021-01-24T08:36:36.000Z</time>
      </trkpt>
      <trkpt lat="46.5202" lon="0.34972">
        <ele>109.6</ele>
        <time>2021-01-24T08:36:37.000Z</time>
      </trkpt>
      <trkpt lat="46.52017" lon="0.34973">
        <ele>109.8</ele>
        <time>2021-01-24T08:36:38.000Z</time>
      </trkpt>
      <trkpt lat="46.52017" lon="0.34973">
        <ele>109.8</ele>
        <time>2021-01-24T08:36:39.000Z</time>
      </trkpt>
      <trkpt lat="46.52013" lon="0.34973">
        <ele>110</ele>
        <time>2021-01-24T08:36:40.000Z</time>
      </trkpt>
      <trkpt lat="46.52012" lon="0.34973">
        <ele>110.2</ele>
        <time>2021-01-24T08:36:41.000Z</time>
      </trkpt>
      <trkpt lat="46.5201" lon="0.34973">
        <ele>110.4</ele>
        <time>2021-01-24T08:36:42.000Z</time>
      </trkpt>
      <trkpt lat="46.5201" lon="0.34973">
        <ele>110.6</ele>
        <time>2021-01-24T08:36:43.000Z</time>
      </trkpt>
      <trkpt lat="46.52006" lon="0.34973">
        <ele>110.8</ele>
        <time>2021-01-24T08:36:44.000Z</time>
      </trkpt>
      <trkpt lat="46.52006" lon="0.34973">
        <ele>110.8</ele>
        <time>2021-01-24T08:36:45.000Z</time>
      </trkpt>
      <trkpt lat="46.52003" lon="0.34973">
        <ele>111</ele>
        <time>2021-01-24T08:36:46.000Z</time>
      </trkpt>
      <trkpt lat="46.52003" lon="0.34973">
        <ele>111.2</ele>
        <time>2021-01-24T08:36:47.000Z</time>
      </trkpt>
      <trkpt lat="46.52" lon="0.34971">
        <ele>111.4</ele>
        <time>2021-01-24T08:36:48.000Z</time>
      </trkpt>
      <trkpt lat="46.52" lon="0.34971">
        <ele>111.4</ele>
        <time>2021-01-24T08:36:49.000Z</time>
      </trkpt>
      <trkpt lat="46.51998" lon="0.3497">
        <ele>111.6</ele>
        <time>2021-01-24T08:36:50.000Z</time>
      </trkpt>
      <trkpt lat="46.51998" lon="0.3497">
        <ele>111.8</ele>
        <time>2021-01-24T08:36:51.000Z</time>
      </trkpt>
      <trkpt lat="46.51997" lon="0.34967">
        <ele>112</ele>
        <time>2021-01-24T08:36:52.000Z</time>
      </trkpt>
      <trkpt lat="46.51997" lon="0.34967">
        <ele>112.2</ele>
        <time>2021-01-24T08:36:53.000Z</time>
      </trkpt>
      <trkpt lat="46.51994" lon="0.34964">
        <ele>112.2</ele>
        <time>2021-01-24T08:36:54.000Z</time>
      </trkpt>
      <trkpt lat="46.51994" lon="0.34964">
        <ele>112.4</ele>
        <time>2021-01-24T08:36:55.000Z</time>
      </trkpt>
      <trkpt lat="46.51992" lon="0.34959">
        <ele>112.6</ele>
        <time>2021-01-24T08:36:56.000Z</time>
      </trkpt>
      <trkpt lat="46.51992" lon="0.34955">
        <ele>112.8</ele>
        <time>2021-01-24T08:36:57.000Z</time>
      </trkpt>
      <trkpt lat="46.51992" lon="0.34952">
        <ele>113</ele>
        <time>2021-01-24T08:36:58.000Z</time>
      </trkpt>
      <trkpt lat="46.51992" lon="0.34948">
        <ele>113</ele>
        <time>2021-01-24T08:36:59.000Z</time>
      </trkpt>
      <trkpt lat="46.51991" lon="0.34943">
        <ele>113.2</ele>
        <time>2021-01-24T08:37:00.000Z</time>
      </trkpt>
      <trkpt lat="46.5199" lon="0.34939">
        <ele>113.4</ele>
        <time>2021-01-24T08:37:01.000Z</time>
      </trkpt>
      <trkpt lat="46.5199" lon="0.34935">
        <ele>113.6</ele>
        <time>2021-01-24T08:37:02.000Z</time>
      </trkpt>
      <trkpt lat="46.51989" lon="0.34929">
        <ele>113.8</ele>
        <time>2021-01-24T08:37:03.000Z</time>
      </trkpt>
      <trkpt lat="46.51988" lon="0.34925">
        <ele>114</ele>
        <time>2021-01-24T08:37:04.000Z</time>
      </trkpt>
      <trkpt lat="46.51986" lon="0.3492">
        <ele>114.2</ele>
        <time>2021-01-24T08:37:05.000Z</time>
      </trkpt>
      <trkpt lat="46.51984" lon="0.34915">
        <ele>114.2</ele>
        <time>2021-01-24T08:37:06.000Z</time>
      </trkpt>
      <trkpt lat="46.51983" lon="0.34911">
        <ele>114.4</ele>
        <time>2021-01-24T08:37:07.000Z</time>
      </trkpt>
      <trkpt lat="46.51982" lon="0.34907">
        <ele>114.4</ele>
        <time>2021-01-24T08:37:08.000Z</time>
      </trkpt>
      <trkpt lat="46.5198" lon="0.34903">
        <ele>114.6</ele>
        <time>2021-01-24T08:37:09.000Z</time>
      </trkpt>
      <trkpt lat="46.51978" lon="0.349">
        <ele>114.6</ele>
        <time>2021-01-24T08:37:10.000Z</time>
      </trkpt>
      <trkpt lat="46.51976" lon="0.34898">
        <ele>114.8</ele>
        <time>2021-01-24T08:37:11.000Z</time>
      </trkpt>
      <trkpt lat="46.51973" lon="0.34897">
        <ele>114.8</ele>
        <time>2021-01-24T08:37:12.000Z</time>
      </trkpt>
      <trkpt lat="46.51971" lon="0.34897">
        <ele>114.8</ele>
        <time>2021-01-24T08:37:13.000Z</time>
      </trkpt>
      <trkpt lat="46.51967" lon="0.34897">
        <ele>115</ele>
        <time>2021-01-24T08:37:14.000Z</time>
      </trkpt>
      <trkpt lat="46.51964" lon="0.34898">
        <ele>115</ele>
        <time>2021-01-24T08:37:15.000Z</time>
      </trkpt>
      <trkpt lat="46.51962" lon="0.34898">
        <ele>115.2</ele>
        <time>2021-01-24T08:37:16.000Z</time>
      </trkpt>
      <trkpt lat="46.51959" lon="0.34899">
        <ele>115.4</ele>
        <time>2021-01-24T08:37:17.000Z</time>
      </trkpt>
      <trkpt lat="46.51956" lon="0.349">
        <ele>115.4</ele>
        <time>2021-01-24T08:37:18.000Z</time>
      </trkpt>
      <trkpt lat="46.51953" lon="0.34901">
        <ele>115.4</ele>
        <time>2021-01-24T08:37:19.000Z</time>
      </trkpt>
      <trkpt lat="46.5195" lon="0.34902">
        <ele>115.6</ele>
        <time>2021-01-24T08:37:20.000Z</time>
      </trkpt>
      <trkpt lat="46.51948" lon="0.34902">
        <ele>115.6</ele>
        <time>2021-01-24T08:37:21.000Z</time>
      </trkpt>
      <trkpt lat="46.51945" lon="0.34903">
        <ele>115.8</ele>
        <time>2021-01-24T08:37:22.000Z</time>
      </trkpt>
      <trkpt lat="46.51942" lon="0.34903">
        <ele>115.8</ele>
        <time>2021-01-24T08:37:23.000Z</time>
      </trkpt>
      <trkpt lat="46.5194" lon="0.34904">
        <ele>115.8</ele>
        <time>2021-01-24T08:37:24.000Z</time>
      </trkpt>
      <trkpt lat="46.51938" lon="0.34905">
        <ele>116</ele>
        <time>2021-01-24T08:37:25.000Z</time>
      </trkpt>
      <trkpt lat="46.51935" lon="0.34906">
        <ele>116.2</ele>
        <time>2021-01-24T08:37:26.000Z</time>
      </trkpt>
      <trkpt lat="46.51933" lon="0.34907">
        <ele>116.4</ele>
        <time>2021-01-24T08:37:27.000Z</time>
      </trkpt>
      <trkpt lat="46.5193" lon="0.34908">
        <ele>116.4</ele>
        <time>2021-01-24T08:37:28.000Z</time>
      </trkpt>
      <trkpt lat="46.51927" lon="0.34909">
        <ele>116.6</ele>
        <time>2021-01-24T08:37:29.000Z</time>
      </trkpt>
      <trkpt lat="46.51925" lon="0.34911">
        <ele>116.6</ele>
        <time>2021-01-24T08:37:30.000Z</time>
      </trkpt>
      <trkpt lat="46.51922" lon="0.34912">
        <ele>116.8</ele>
        <time>2021-01-24T08:37:31.000Z</time>
      </trkpt>
      <trkpt lat="46.5192" lon="0.34912">
        <ele>117</ele>
        <time>2021-01-24T08:37:32.000Z</time>
      </trkpt>
      <trkpt lat="46.51917" lon="0.34913">
        <ele>117.2</ele>
        <time>2021-01-24T08:37:33.000Z</time>
      </trkpt>
      <trkpt lat="46.51914" lon="0.34913">
        <ele>117.2</ele>
        <time>2021-01-24T08:37:34.000Z</time>
      </trkpt>
      <trkpt lat="46.51911" lon="0.34914">
        <ele>117.4</ele>
        <time>2021-01-24T08:37:35.000Z</time>
      </trkpt>
      <trkpt lat="46.51909" lon="0.34914">
        <ele>117.6</ele>
        <time>2021-01-24T08:37:36.000Z</time>
      </trkpt>
      <trkpt lat="46.51906" lon="0.34913">
        <ele>117.6</ele>
        <time>2021-01-24T08:37:37.000Z</time>
      </trkpt>
      <trkpt lat="46.51903" lon="0.34913">
        <ele>117.8</ele>
        <time>2021-01-24T08:37:38.000Z</time>
      </trkpt>
      <trkpt lat="46.519" lon="0.34913">
        <ele>118</ele>
        <time>2021-01-24T08:37:39.000Z</time>
      </trkpt>
      <trkpt lat="46.51897" lon="0.34914">
        <ele>118</ele>
        <time>2021-01-24T08:37:40.000Z</time>
      </trkpt>
      <trkpt lat="46.51894" lon="0.34915">
        <ele>118.2</ele>
        <time>2021-01-24T08:37:41.000Z</time>
      </trkpt>
      <trkpt lat="46.51892" lon="0.34916">
        <ele>118.4</ele>
        <time>2021-01-24T08:37:42.000Z</time>
      </trkpt>
      <trkpt lat="46.51889" lon="0.34917">
        <ele>118.6</ele>
        <time>2021-01-24T08:37:43.000Z</time>
      </trkpt>
      <trkpt lat="46.51889" lon="0.34917">
        <ele>118.8</ele>
        <time>2021-01-24T08:37:44.000Z</time>
      </trkpt>
      <trkpt lat="46.51884" lon="0.34921">
        <ele>118.8</ele>
        <time>2021-01-24T08:37:45.000Z</time>
      </trkpt>
      <trkpt lat="46.51883" lon="0.34922">
        <ele>119</ele>
        <time>2021-01-24T08:37:46.000Z</time>
      </trkpt>
      <trkpt lat="46.51881" lon="0.34925">
        <ele>119</ele>
        <time>2021-01-24T08:37:47.000Z</time>
      </trkpt>
      <trkpt lat="46.5188" lon="0.34928">
        <ele>119.2</ele>
        <time>2021-01-24T08:37:48.000Z</time>
      </trkpt>
      <trkpt lat="46.51879" lon="0.34931">
        <ele>119.2</ele>
        <time>2021-01-24T08:37:49.000Z</time>
      </trkpt>
      <trkpt lat="46.51878" lon="0.34935">
        <ele>119.4</ele>
        <time>2021-01-24T08:37:50.000Z</time>
      </trkpt>
      <trkpt lat="46.51877" lon="0.34938">
        <ele>119.4</ele>
        <time>2021-01-24T08:37:51.000Z</time>
      </trkpt>
      <trkpt lat="46.51876" lon="0.34942">
        <ele>119.6</ele>
        <time>2021-01-24T08:37:52.000Z</time>
      </trkpt>
      <trkpt lat="46.51875" lon="0.34946">
        <ele>119.8</ele>
        <time>2021-01-24T08:37:53.000Z</time>
      </trkpt>
      <trkpt lat="46.51875" lon="0.3495">
        <ele>119.8</ele>
        <time>2021-01-24T08:37:54.000Z</time>
      </trkpt>
      <trkpt lat="46.51874" lon="0.34954">
        <ele>120</ele>
        <time>2021-01-24T08:37:55.000Z</time>
      </trkpt>
      <trkpt lat="46.51873" lon="0.34958">
        <ele>120.2</ele>
        <time>2021-01-24T08:37:56.000Z</time>
      </trkpt>
      <trkpt lat="46.51872" lon="0.34962">
        <ele>120.4</ele>
        <time>2021-01-24T08:37:57.000Z</time>
      </trkpt>
      <trkpt lat="46.51871" lon="0.34966">
        <ele>120.4</ele>
        <time>2021-01-24T08:37:58.000Z</time>
      </trkpt>
      <trkpt lat="46.5187" lon="0.3497">
        <ele>120.6</ele>
        <time>2021-01-24T08:37:59.000Z</time>
      </trkpt>
      <trkpt lat="46.51869" lon="0.34974">
        <ele>120.6</ele>
        <time>2021-01-24T08:38:00.000Z</time>
      </trkpt>
      <trkpt lat="46.51869" lon="0.34978">
        <ele>120.8</ele>
        <time>2021-01-24T08:38:01.000Z</time>
      </trkpt>
      <trkpt lat="46.51867" lon="0.34981">
        <ele>121</ele>
        <time>2021-01-24T08:38:02.000Z</time>
      </trkpt>
      <trkpt lat="46.51864" lon="0.34984">
        <ele>121.2</ele>
        <time>2021-01-24T08:38:03.000Z</time>
      </trkpt>
      <trkpt lat="46.51862" lon="0.34986">
        <ele>121.2</ele>
        <time>2021-01-24T08:38:04.000Z</time>
      </trkpt>
      <trkpt lat="46.51859" lon="0.34988">
        <ele>121.4</ele>
        <time>2021-01-24T08:38:05.000Z</time>
      </trkpt>
      <trkpt lat="46.51857" lon="0.34989">
        <ele>121.6</ele>
        <time>2021-01-24T08:38:06.000Z</time>
      </trkpt>
      <trkpt lat="46.51854" lon="0.3499">
        <ele>121.6</ele>
        <time>2021-01-24T08:38:07.000Z</time>
      </trkpt>
      <trkpt lat="46.51851" lon="0.34992">
        <ele>121.8</ele>
        <time>2021-01-24T08:38:08.000Z</time>
      </trkpt>
      <trkpt lat="46.51848" lon="0.34993">
        <ele>122</ele>
        <time>2021-01-24T08:38:09.000Z</time>
      </trkpt>
      <trkpt lat="46.51845" lon="0.34995">
        <ele>122</ele>
        <time>2021-01-24T08:38:10.000Z</time>
      </trkpt>
      <trkpt lat="46.51842" lon="0.34997">
        <ele>122.2</ele>
        <time>2021-01-24T08:38:11.000Z</time>
      </trkpt>
      <trkpt lat="46.51839" lon="0.34998">
        <ele>122.4</ele>
        <time>2021-01-24T08:38:12.000Z</time>
      </trkpt>
      <trkpt lat="46.51835" lon="0.34999">
        <ele>122.6</ele>
        <time>2021-01-24T08:38:13.000Z</time>
      </trkpt>
      <trkpt lat="46.51832" lon="0.35001">
        <ele>122.8</ele>
        <time>2021-01-24T08:38:14.000Z</time>
      </trkpt>
      <trkpt lat="46.51829" lon="0.35003">
        <ele>123</ele>
        <time>2021-01-24T08:38:15.000Z</time>
      </trkpt>
      <trkpt lat="46.51827" lon="0.35004">
        <ele>123.2</ele>
        <time>2021-01-24T08:38:16.000Z</time>
      </trkpt>
      <trkpt lat="46.51823" lon="0.35006">
        <ele>123.2</ele>
        <time>2021-01-24T08:38:17.000Z</time>
      </trkpt>
      <trkpt lat="46.51821" lon="0.35007">
        <ele>123.4</ele>
        <time>2021-01-24T08:38:18.000Z</time>
      </trkpt>
      <trkpt lat="46.51817" lon="0.35009">
        <ele>123.4</ele>
        <time>2021-01-24T08:38:19.000Z</time>
      </trkpt>
      <trkpt lat="46.51815" lon="0.35011">
        <ele>123.6</ele>
        <time>2021-01-24T08:38:20.000Z</time>
      </trkpt>
      <trkpt lat="46.51813" lon="0.35014">
        <ele>123.8</ele>
        <time>2021-01-24T08:38:21.000Z</time>
      </trkpt>
      <trkpt lat="46.51812" lon="0.35017">
        <ele>123.8</ele>
        <time>2021-01-24T08:38:22.000Z</time>
      </trkpt>
      <trkpt lat="46.51811" lon="0.35021">
        <ele>124</ele>
        <time>2021-01-24T08:38:23.000Z</time>
      </trkpt>
      <trkpt lat="46.51811" lon="0.35026">
        <ele>124</ele>
        <time>2021-01-24T08:38:24.000Z</time>
      </trkpt>
      <trkpt lat="46.51813" lon="0.35032">
        <ele>131</ele>
        <time>2021-01-24T08:43:13.000Z</time>
      </trkpt>
      <trkpt lat="46.51816" lon="0.35037">
        <ele>131</ele>
        <time>2021-01-24T08:43:14.000Z</time>
      </trkpt>
      <trkpt lat="46.51817" lon="0.35043">
        <ele>131</ele>
        <time>2021-01-24T08:43:15.000Z</time>
      </trkpt>
      <trkpt lat="46.51818" lon="0.35049">
        <ele>131</ele>
        <time>2021-01-24T08:43:16.000Z</time>
      </trkpt>
      <trkpt lat="46.51819" lon="0.35056">
        <ele>131</ele>
        <time>2021-01-24T08:43:17.000Z</time>
      </trkpt>
      <trkpt lat="46.5182" lon="0.35063">
        <ele>131</ele>
        <time>2021-01-24T08:43:18.000Z</time>
      </trkpt>
      <trkpt lat="46.5182" lon="0.35071">
        <ele>131.2</ele>
        <time>2021-01-24T08:43:19.000Z</time>
      </trkpt>
      <trkpt lat="46.5182" lon="0.35079">
        <ele>131.2</ele>
        <time>2021-01-24T08:43:20.000Z</time>
      </trkpt>
      <trkpt lat="46.5182" lon="0.35086">
        <ele>131.2</ele>
        <time>2021-01-24T08:43:21.000Z</time>
      </trkpt>
      <trkpt lat="46.5182" lon="0.35094">
        <ele>131.2</ele>
        <time>2021-01-24T08:43:22.000Z</time>
      </trkpt>
      <trkpt lat="46.5182" lon="0.35102">
        <ele>131.2</ele>
        <time>2021-01-24T08:43:23.000Z</time>
      </trkpt>
      <trkpt lat="46.5182" lon="0.3511">
        <ele>131.2</ele>
        <time>2021-01-24T08:43:24.000Z</time>
      </trkpt>
      <trkpt lat="46.51819" lon="0.35116">
        <ele>131.2</ele>
        <time>2021-01-24T08:43:25.000Z</time>
      </trkpt>
      <trkpt lat="46.51819" lon="0.35125">
        <ele>131.2</ele>
        <time>2021-01-24T08:43:26.000Z</time>
      </trkpt>
      <trkpt lat="46.51819" lon="0.35133">
        <ele>131.2</ele>
        <time>2021-01-24T08:43:27.000Z</time>
      </trkpt>
      <trkpt lat="46.51819" lon="0.3514">
        <ele>131.2</ele>
        <time>2021-01-24T08:43:28.000Z</time>
      </trkpt>
      <trkpt lat="46.51819" lon="0.35148">
        <ele>131.2</ele>
        <time>2021-01-24T08:43:29.000Z</time>
      </trkpt>
      <trkpt lat="46.51819" lon="0.35155">
        <ele>131</ele>
        <time>2021-01-24T08:43:30.000Z</time>
      </trkpt>
      <trkpt lat="46.51819" lon="0.35163">
        <ele>131</ele>
        <time>2021-01-24T08:43:31.000Z</time>
      </trkpt>
      <trkpt lat="46.51819" lon="0.35171">
        <ele>131</ele>
        <time>2021-01-24T08:43:32.000Z</time>
      </trkpt>
      <trkpt lat="46.51819" lon="0.35178">
        <ele>131</ele>
        <time>2021-01-24T08:43:33.000Z</time>
      </trkpt>
      <trkpt lat="46.51819" lon="0.35186">
        <ele>131</ele>
        <time>2021-01-24T08:43:34.000Z</time>
      </trkpt>
      <trkpt lat="46.51819" lon="0.35194">
        <ele>131</ele>
        <time>2021-01-24T08:43:35.000Z</time>
      </trkpt>
      <trkpt lat="46.51819" lon="0.35201">
        <ele>131</ele>
        <time>2021-01-24T08:43:36.000Z</time>
      </trkpt>
      <trkpt lat="46.51819" lon="0.35209">
        <ele>131</ele>
        <time>2021-01-24T08:43:37.000Z</time>
      </trkpt>
      <trkpt lat="46.51819" lon="0.35216">
        <ele>131</ele>
        <time>2021-01-24T08:43:38.000Z</time>
      </trkpt>
      <trkpt lat="46.51818" lon="0.35223">
        <ele>131</ele>
        <time>2021-01-24T08:43:39.000Z</time>
      </trkpt>
      <trkpt lat="46.51818" lon="0.35232">
        <ele>131</ele>
        <time>2021-01-24T08:43:40.000Z</time>
      </trkpt>
      <trkpt lat="46.51818" lon="0.3524">
        <ele>131</ele>
        <time>2021-01-24T08:43:41.000Z</time>
      </trkpt>
      <trkpt lat="46.51817" lon="0.35248">
        <ele>131</ele>
        <time>2021-01-24T08:43:42.000Z</time>
      </trkpt>
      <trkpt lat="46.51817" lon="0.35255">
        <ele>131</ele>
        <time>2021-01-24T08:43:43.000Z</time>
      </trkpt>
      <trkpt lat="46.51817" lon="0.35263">
        <ele>131</ele>
        <time>2021-01-24T08:43:44.000Z</time>
      </trkpt>
      <trkpt lat="46.51817" lon="0.3527">
        <ele>131</ele>
        <time>2021-01-24T08:43:45.000Z</time>
      </trkpt>
      <trkpt lat="46.51817" lon="0.35277">
        <ele>131</ele>
        <time>2021-01-24T08:43:46.000Z</time>
      </trkpt>
      <trkpt lat="46.51816" lon="0.35283">
        <ele>131</ele>
        <time>2021-01-24T08:43:47.000Z</time>
      </trkpt>
      <trkpt lat="46.51816" lon="0.35292">
        <ele>131</ele>
        <time>2021-01-24T08:43:48.000Z</time>
      </trkpt>
      <trkpt lat="46.51816" lon="0.353">
        <ele>131.2</ele>
        <time>2021-01-24T08:43:49.000Z</time>
      </trkpt>
      <trkpt lat="46.51815" lon="0.35307">
        <ele>131.2</ele>
        <time>2021-01-24T08:43:50.000Z</time>
      </trkpt>
      <trkpt lat="46.51815" lon="0.35314">
        <ele>131.2</ele>
        <time>2021-01-24T08:43:51.000Z</time>
      </trkpt>
      <trkpt lat="46.51815" lon="0.35321">
        <ele>131.2</ele>
        <time>2021-01-24T08:43:52.000Z</time>
      </trkpt>
      <trkpt lat="46.51815" lon="0.35328">
        <ele>131.2</ele>
        <time>2021-01-24T08:43:53.000Z</time>
      </trkpt>
      <trkpt lat="46.51814" lon="0.35335">
        <ele>131.2</ele>
        <time>2021-01-24T08:43:54.000Z</time>
      </trkpt>
      <trkpt lat="46.51814" lon="0.35343">
        <ele>131.2</ele>
        <time>2021-01-24T08:43:55.000Z</time>
      </trkpt>
      <trkpt lat="46.51814" lon="0.3535">
        <ele>131.2</ele>
        <time>2021-01-24T08:43:56.000Z</time>
      </trkpt>
      <trkpt lat="46.51813" lon="0.35356">
        <ele>131.2</ele>
        <time>2021-01-24T08:43:57.000Z</time>
      </trkpt>
      <trkpt lat="46.51813" lon="0.35364">
        <ele>131.2</ele>
        <time>2021-01-24T08:43:58.000Z</time>
      </trkpt>
      <trkpt lat="46.51813" lon="0.35371">
        <ele>131.2</ele>
        <time>2021-01-24T08:43:59.000Z</time>
      </trkpt>
      <trkpt lat="46.51812" lon="0.35378">
        <ele>131.2</ele>
        <time>2021-01-24T08:44:00.000Z</time>
      </trkpt>
      <trkpt lat="46.51811" lon="0.35384">
        <ele>131.2</ele>
        <time>2021-01-24T08:44:01.000Z</time>
      </trkpt>
      <trkpt lat="46.5181" lon="0.3539">
        <ele>131</ele>
        <time>2021-01-24T08:44:02.000Z</time>
      </trkpt>
      <trkpt lat="46.51814" lon="0.35437">
        <ele>130.8</ele>
        <time>2021-01-24T08:44:08.000Z</time>
      </trkpt>
      <trkpt lat="46.51814" lon="0.35626">
        <ele>131.5</ele>
        <time>2021-01-24T08:44:10.000Z</time>
      </trkpt>
      <trkpt lat="46.51563" lon="0.35759">
        <ele>131.9</ele>
        <time>2021-01-24T08:44:12.000Z</time>
      </trkpt>
      <trkpt lat="46.51181" lon="0.35918">
        <ele>132</ele>
        <time>2021-01-24T08:48:44.000Z</time>
      </trkpt>
      <trkpt lat="46.51135" lon="0.35937">
        <ele>132.6</ele>
        <time>2021-01-24T08:48:45.000Z</time>
      </trkpt>
      <trkpt lat="46.51027" lon="0.3588">
        <ele>133.2</ele>
        <time>2021-01-24T08:49:19.000Z</time>
      </trkpt>
      <trkpt lat="46.51027" lon="0.35883">
        <ele>133.4</ele>
        <time>2021-01-24T08:49:21.000Z</time>
      </trkpt>
      <trkpt lat="46.51026" lon="0.35886">
        <ele>133.4</ele>
        <time>2021-01-24T08:49:22.000Z</time>
      </trkpt>
      <trkpt lat="46.51026" lon="0.35886">
        <ele>133.4</ele>
        <time>2021-01-24T08:49:23.000Z</time>
      </trkpt>
      <trkpt lat="46.51023" lon="0.35886">
        <ele>133.6</ele>
        <time>2021-01-24T08:49:24.000Z</time>
      </trkpt>
      <trkpt lat="46.51021" lon="0.35885">
        <ele>133.6</ele>
        <time>2021-01-24T08:49:25.000Z</time>
      </trkpt>
      <trkpt lat="46.51019" lon="0.35882">
        <ele>133.6</ele>
        <time>2021-01-24T08:49:26.000Z</time>
      </trkpt>
      <trkpt lat="46.51016" lon="0.3588">
        <ele>133.6</ele>
        <time>2021-01-24T08:49:27.000Z</time>
      </trkpt>
      <trkpt lat="46.51013" lon="0.35876">
        <ele>133.6</ele>
        <time>2021-01-24T08:49:28.000Z</time>
      </trkpt>
      <trkpt lat="46.51009" lon="0.35873">
        <ele>133.8</ele>
        <time>2021-01-24T08:49:29.000Z</time>
      </trkpt>
      <trkpt lat="46.51005" lon="0.35869">
        <ele>133.8</ele>
        <time>2021-01-24T08:49:30.000Z</time>
      </trkpt>
      <trkpt lat="46.51001" lon="0.35866">
        <ele>133.8</ele>
        <time>2021-01-24T08:49:31.000Z</time>
      </trkpt>
      <trkpt lat="46.50997" lon="0.35863">
        <ele>133.8</ele>
        <time>2021-01-24T08:49:32.000Z</time>
      </trkpt>
      <trkpt lat="46.50994" lon="0.3586">
        <ele>133.8</ele>
        <time>2021-01-24T08:49:33.000Z</time>
      </trkpt>
      <trkpt lat="46.50991" lon="0.35857">
        <ele>133.8</ele>
        <time>2021-01-24T08:49:34.000Z</time>
      </trkpt>
      <trkpt lat="46.50987" lon="0.35854">
        <ele>133.8</ele>
        <time>2021-01-24T08:49:35.000Z</time>
      </trkpt>
      <trkpt lat="46.50984" lon="0.35851">
        <ele>133.8</ele>
        <time>2021-01-24T08:49:36.000Z</time>
      </trkpt>
      <trkpt lat="46.5098" lon="0.35849">
        <ele>133.8</ele>
        <time>2021-01-24T08:49:37.000Z</time>
      </trkpt>
      <trkpt lat="46.50976" lon="0.35846">
        <ele>133.8</ele>
        <time>2021-01-24T08:49:38.000Z</time>
      </trkpt>
      <trkpt lat="46.50973" lon="0.35844">
        <ele>133.8</ele>
        <time>2021-01-24T08:49:39.000Z</time>
      </trkpt>
      <trkpt lat="46.50968" lon="0.35842">
        <ele>133.8</ele>
        <time>2021-01-24T08:49:40.000Z</time>
      </trkpt>
      <trkpt lat="46.50965" lon="0.3584">
        <ele>133.8</ele>
        <time>2021-01-24T08:49:41.000Z</time>
      </trkpt>
      <trkpt lat="46.5096" lon="0.35838">
        <ele>134</ele>
        <time>2021-01-24T08:49:42.000Z</time>
      </trkpt>
      <trkpt lat="46.50956" lon="0.35835">
        <ele>134</ele>
        <time>2021-01-24T08:49:43.000Z</time>
      </trkpt>
      <trkpt lat="46.50952" lon="0.35833">
        <ele>134.2</ele>
        <time>2021-01-24T08:49:44.000Z</time>
      </trkpt>
      <trkpt lat="46.50948" lon="0.3583">
        <ele>134.2</ele>
        <time>2021-01-24T08:49:45.000Z</time>
      </trkpt>
      <trkpt lat="46.50943" lon="0.35827">
        <ele>134.2</ele>
        <time>2021-01-24T08:49:46.000Z</time>
      </trkpt>
      <trkpt lat="46.50939" lon="0.35825">
        <ele>134.4</ele>
        <time>2021-01-24T08:49:47.000Z</time>
      </trkpt>
      <trkpt lat="46.50935" lon="0.35822">
        <ele>134.4</ele>
        <time>2021-01-24T08:49:48.000Z</time>
      </trkpt>
      <trkpt lat="46.50931" lon="0.3582">
        <ele>134.6</ele>
        <time>2021-01-24T08:49:49.000Z</time>
      </trkpt>
      <trkpt lat="46.50926" lon="0.35817">
        <ele>134.6</ele>
        <time>2021-01-24T08:49:50.000Z</time>
      </trkpt>
      <trkpt lat="46.50922" lon="0.35814">
        <ele>134.6</ele>
        <time>2021-01-24T08:49:51.000Z</time>
      </trkpt>
      <trkpt lat="46.50918" lon="0.35812">
        <ele>134.6</ele>
        <time>2021-01-24T08:49:52.000Z</time>
      </trkpt>
      <trkpt lat="46.50913" lon="0.3581">
        <ele>134.6</ele>
        <time>2021-01-24T08:49:53.000Z</time>
      </trkpt>
      <trkpt lat="46.50909" lon="0.35807">
        <ele>134.6</ele>
        <time>2021-01-24T08:49:54.000Z</time>
      </trkpt>
      <trkpt lat="46.50904" lon="0.35805">
        <ele>134.8</ele>
        <time>2021-01-24T08:49:55.000Z</time>
      </trkpt>
      <trkpt lat="46.509" lon="0.35805">
        <ele>134.8</ele>
        <time>2021-01-24T08:49:56.000Z</time>
      </trkpt>
      <trkpt lat="46.50895" lon="0.35806">
        <ele>134.8</ele>
        <time>2021-01-24T08:49:57.000Z</time>
      </trkpt>
      <trkpt lat="46.5089" lon="0.35809">
        <ele>134.8</ele>
        <time>2021-01-24T08:49:58.000Z</time>
      </trkpt>
      <trkpt lat="46.50886" lon="0.35813">
        <ele>134.8</ele>
        <time>2021-01-24T08:49:59.000Z</time>
      </trkpt>
      <trkpt lat="46.50883" lon="0.35817">
        <ele>134.8</ele>
        <time>2021-01-24T08:50:00.000Z</time>
      </trkpt>
      <trkpt lat="46.5088" lon="0.35823">
        <ele>134.8</ele>
        <time>2021-01-24T08:50:01.000Z</time>
      </trkpt>
      <trkpt lat="46.50878" lon="0.35827">
        <ele>134.8</ele>
        <time>2021-01-24T08:50:02.000Z</time>
      </trkpt>
      <trkpt lat="46.50875" lon="0.35834">
        <ele>134.8</ele>
        <time>2021-01-24T08:50:03.000Z</time>
      </trkpt>
      <trkpt lat="46.50873" lon="0.35841">
        <ele>134.8</ele>
        <time>2021-01-24T08:50:04.000Z</time>
      </trkpt>
      <trkpt lat="46.5087" lon="0.35847">
        <ele>134.8</ele>
        <time>2021-01-24T08:50:05.000Z</time>
      </trkpt>
      <trkpt lat="46.50868" lon="0.35854">
        <ele>134.8</ele>
        <time>2021-01-24T08:50:06.000Z</time>
      </trkpt>
      <trkpt lat="46.50866" lon="0.3586">
        <ele>134.8</ele>
        <time>2021-01-24T08:50:07.000Z</time>
      </trkpt>
      <trkpt lat="46.50863" lon="0.35865">
        <ele>134.8</ele>
        <time>2021-01-24T08:50:08.000Z</time>
      </trkpt>
      <trkpt lat="46.50861" lon="0.3587">
        <ele>134.8</ele>
        <time>2021-01-24T08:50:09.000Z</time>
      </trkpt>
      <trkpt lat="46.50858" lon="0.35876">
        <ele>134.8</ele>
        <time>2021-01-24T08:50:10.000Z</time>
      </trkpt>
      <trkpt lat="46.50855" lon="0.3588">
        <ele>135</ele>
        <time>2021-01-24T08:50:11.000Z</time>
      </trkpt>
      <trkpt lat="46.50852" lon="0.35885">
        <ele>135</ele>
        <time>2021-01-24T08:50:12.000Z</time>
      </trkpt>
      <trkpt lat="46.50849" lon="0.35889">
        <ele>135</ele>
        <time>2021-01-24T08:50:13.000Z</time>
      </trkpt>
      <trkpt lat="46.50846" lon="0.35894">
        <ele>135</ele>
        <time>2021-01-24T08:50:14.000Z</time>
      </trkpt>
      <trkpt lat="46.50844" lon="0.35899">
        <ele>135</ele>
        <time>2021-01-24T08:50:15.000Z</time>
      </trkpt>
      <trkpt lat="46.50844" lon="0.35904">
        <ele>135</ele>
        <time>2021-01-24T08:50:16.000Z</time>
      </trkpt>
      <trkpt lat="46.50844" lon="0.3591">
        <ele>135</ele>
        <time>2021-01-24T08:50:17.000Z</time>
      </trkpt>
      <trkpt lat="46.50845" lon="0.35917">
        <ele>135</ele>
        <time>2021-01-24T08:50:18.000Z</time>
      </trkpt>
      <trkpt lat="46.50846" lon="0.35924">
        <ele>135</ele>
        <time>2021-01-24T08:50:19.000Z</time>
      </trkpt>
      <trkpt lat="46.50848" lon="0.35932">
        <ele>135</ele>
        <time>2021-01-24T08:50:20.000Z</time>
      </trkpt>
      <trkpt lat="46.5085" lon="0.35939">
        <ele>135</ele>
        <time>2021-01-24T08:50:21.000Z</time>
      </trkpt>
      <trkpt lat="46.50851" lon="0.35947">
        <ele>134.8</ele>
        <time>2021-01-24T08:50:22.000Z</time>
      </trkpt>
      <trkpt lat="46.50853" lon="0.35956">
        <ele>134.8</ele>
        <time>2021-01-24T08:50:23.000Z</time>
      </trkpt>
      <trkpt lat="46.50853" lon="0.35963">
        <ele>134.8</ele>
        <time>2021-01-24T08:50:24.000Z</time>
      </trkpt>
      <trkpt lat="46.50854" lon="0.35969">
        <ele>134.6</ele>
        <time>2021-01-24T08:50:25.000Z</time>
      </trkpt>
      <trkpt lat="46.50852" lon="0.35975">
        <ele>134.6</ele>
        <time>2021-01-24T08:50:26.000Z</time>
      </trkpt>
      <trkpt lat="46.50849" lon="0.35979">
        <ele>134.4</ele>
        <time>2021-01-24T08:50:27.000Z</time>
      </trkpt>
      <trkpt lat="46.50844" lon="0.35982">
        <ele>134.2</ele>
        <time>2021-01-24T08:50:28.000Z</time>
      </trkpt>
      <trkpt lat="46.5084" lon="0.35985">
        <ele>134.2</ele>
        <time>2021-01-24T08:50:29.000Z</time>
      </trkpt>
      <trkpt lat="46.50837" lon="0.3599">
        <ele>134.2</ele>
        <time>2021-01-24T08:50:30.000Z</time>
      </trkpt>
      <trkpt lat="46.50836" lon="0.35996">
        <ele>134.2</ele>
        <time>2021-01-24T08:50:31.000Z</time>
      </trkpt>
      <trkpt lat="46.50836" lon="0.36002">
        <ele>134.2</ele>
        <time>2021-01-24T08:50:32.000Z</time>
      </trkpt>
      <trkpt lat="46.50837" lon="0.36009">
        <ele>134.2</ele>
        <time>2021-01-24T08:50:33.000Z</time>
      </trkpt>
      <trkpt lat="46.50838" lon="0.36016">
        <ele>134.2</ele>
        <time>2021-01-24T08:50:34.000Z</time>
      </trkpt>
      <trkpt lat="46.50838" lon="0.36023">
        <ele>134.2</ele>
        <time>2021-01-24T08:50:35.000Z</time>
      </trkpt>
      <trkpt lat="46.50838" lon="0.3603">
        <ele>134.2</ele>
        <time>2021-01-24T08:50:36.000Z</time>
      </trkpt>
      <trkpt lat="46.50836" lon="0.36035">
        <ele>134.2</ele>
        <time>2021-01-24T08:50:37.000Z</time>
      </trkpt>
      <trkpt lat="46.50833" lon="0.36038">
        <ele>134</ele>
        <time>2021-01-24T08:50:38.000Z</time>
      </trkpt>
      <trkpt lat="46.50829" lon="0.3604">
        <ele>134</ele>
        <time>2021-01-24T08:50:39.000Z</time>
      </trkpt>
      <trkpt lat="46.50826" lon="0.36042">
        <ele>134</ele>
        <time>2021-01-24T08:50:40.000Z</time>
      </trkpt>
      <trkpt lat="46.50822" lon="0.36044">
        <ele>134</ele>
        <time>2021-01-24T08:50:41.000Z</time>
      </trkpt>
      <trkpt lat="46.50818" lon="0.36045">
        <ele>134</ele>
        <time>2021-01-24T08:50:42.000Z</time>
      </trkpt>
      <trkpt lat="46.50815" lon="0.36047">
        <ele>133.8</ele>
        <time>2021-01-24T08:50:43.000Z</time>
      </trkpt>
      <trkpt lat="46.50811" lon="0.36048">
        <ele>133.8</ele>
        <time>2021-01-24T08:50:44.000Z</time>
      </trkpt>
      <trkpt lat="46.50807" lon="0.36049">
        <ele>133.8</ele>
        <time>2021-01-24T08:50:45.000Z</time>
      </trkpt>
      <trkpt lat="46.50805" lon="0.36049">
        <ele>133.6</ele>
        <time>2021-01-24T08:50:46.000Z</time>
      </trkpt>
      <trkpt lat="46.50801" lon="0.36051">
        <ele>133.6</ele>
        <time>2021-01-24T08:50:47.000Z</time>
      </trkpt>
      <trkpt lat="46.50798" lon="0.36051">
        <ele>133.4</ele>
        <time>2021-01-24T08:50:48.000Z</time>
      </trkpt>
      <trkpt lat="46.50794" lon="0.36053">
        <ele>133.4</ele>
        <time>2021-01-24T08:50:49.000Z</time>
      </trkpt>
      <trkpt lat="46.5079" lon="0.36054">
        <ele>133.4</ele>
        <time>2021-01-24T08:50:50.000Z</time>
      </trkpt>
      <trkpt lat="46.50787" lon="0.36055">
        <ele>133.2</ele>
        <time>2021-01-24T08:50:51.000Z</time>
      </trkpt>
      <trkpt lat="46.50784" lon="0.36056">
        <ele>133.2</ele>
        <time>2021-01-24T08:50:52.000Z</time>
      </trkpt>
      <trkpt lat="46.50781" lon="0.36058">
        <ele>133.2</ele>
        <time>2021-01-24T08:50:53.000Z</time>
      </trkpt>
      <trkpt lat="46.50778" lon="0.36061">
        <ele>133</ele>
        <time>2021-01-24T08:50:54.000Z</time>
      </trkpt>
      <trkpt lat="46.50776" lon="0.36063">
        <ele>133</ele>
        <time>2021-01-24T08:50:55.000Z</time>
      </trkpt>
      <trkpt lat="46.50776" lon="0.36063">
        <ele>133</ele>
        <time>2021-01-24T08:50:56.000Z</time>
      </trkpt>
      <trkpt lat="46.50777" lon="0.36069">
        <ele>133</ele>
        <time>2021-01-24T08:50:57.000Z</time>
      </trkpt>
      <trkpt lat="46.50777" lon="0.36075">
        <ele>133</ele>
        <time>2021-01-24T08:50:58.000Z</time>
      </trkpt>
      <trkpt lat="46.50777" lon="0.3608">
        <ele>133</ele>
        <time>2021-01-24T08:50:59.000Z</time>
      </trkpt>
      <trkpt lat="46.50777" lon="0.36086">
        <ele>133</ele>
        <time>2021-01-24T08:51:00.000Z</time>
      </trkpt>
      <trkpt lat="46.50777" lon="0.36092">
        <ele>133</ele>
        <time>2021-01-24T08:51:01.000Z</time>
      </trkpt>
      <trkpt lat="46.50777" lon="0.36098">
        <ele>133</ele>
        <time>2021-01-24T08:51:02.000Z</time>
      </trkpt>
      <trkpt lat="46.50778" lon="0.36103">
        <ele>132.8</ele>
        <time>2021-01-24T08:51:03.000Z</time>
      </trkpt>
      <trkpt lat="46.50778" lon="0.36109">
        <ele>132.8</ele>
        <time>2021-01-24T08:51:04.000Z</time>
      </trkpt>
      <trkpt lat="46.50776" lon="0.36112">
        <ele>132.6</ele>
        <time>2021-01-24T08:51:05.000Z</time>
      </trkpt>
      <trkpt lat="46.50775" lon="0.36115">
        <ele>132.6</ele>
        <time>2021-01-24T08:51:06.000Z</time>
      </trkpt>
      <trkpt lat="46.50773" lon="0.36117">
        <ele>132.6</ele>
        <time>2021-01-24T08:51:07.000Z</time>
      </trkpt>
      <trkpt lat="46.50771" lon="0.36119">
        <ele>132.4</ele>
        <time>2021-01-24T08:51:08.000Z</time>
      </trkpt>
      <trkpt lat="46.50769" lon="0.36121">
        <ele>132.4</ele>
        <time>2021-01-24T08:51:09.000Z</time>
      </trkpt>
      <trkpt lat="46.50767" lon="0.36124">
        <ele>132.2</ele>
        <time>2021-01-24T08:51:10.000Z</time>
      </trkpt>
      <trkpt lat="46.50766" lon="0.36127">
        <ele>132.2</ele>
        <time>2021-01-24T08:51:11.000Z</time>
      </trkpt>
      <trkpt lat="46.50765" lon="0.36129">
        <ele>132</ele>
        <time>2021-01-24T08:51:12.000Z</time>
      </trkpt>
      <trkpt lat="46.50763" lon="0.36131">
        <ele>132</ele>
        <time>2021-01-24T08:51:13.000Z</time>
      </trkpt>
      <trkpt lat="46.50761" lon="0.36134">
        <ele>131.8</ele>
        <time>2021-01-24T08:51:14.000Z</time>
      </trkpt>
      <trkpt lat="46.50759" lon="0.36137">
        <ele>131.8</ele>
        <time>2021-01-24T08:51:15.000Z</time>
      </trkpt>
      <trkpt lat="46.50758" lon="0.3614">
        <ele>131.8</ele>
        <time>2021-01-24T08:51:16.000Z</time>
      </trkpt>
      <trkpt lat="46.50757" lon="0.36143">
        <ele>131.8</ele>
        <time>2021-01-24T08:51:17.000Z</time>
      </trkpt>
      <trkpt lat="46.50756" lon="0.36146">
        <ele>131.6</ele>
        <time>2021-01-24T08:51:18.000Z</time>
      </trkpt>
      <trkpt lat="46.50755" lon="0.36149">
        <ele>131.6</ele>
        <time>2021-01-24T08:51:19.000Z</time>
      </trkpt>
      <trkpt lat="46.50755" lon="0.36153">
        <ele>131.6</ele>
        <time>2021-01-24T08:51:20.000Z</time>
      </trkpt>
      <trkpt lat="46.50754" lon="0.36156">
        <ele>131.6</ele>
        <time>2021-01-24T08:51:21.000Z</time>
      </trkpt>
      <trkpt lat="46.50754" lon="0.36159">
        <ele>131.4</ele>
        <time>2021-01-24T08:51:22.000Z</time>
      </trkpt>
      <trkpt lat="46.50753" lon="0.36162">
        <ele>131.4</ele>
        <time>2021-01-24T08:51:23.000Z</time>
      </trkpt>
      <trkpt lat="46.50752" lon="0.36165">
        <ele>131.4</ele>
        <time>2021-01-24T08:51:24.000Z</time>
      </trkpt>
      <trkpt lat="46.50751" lon="0.36169">
        <ele>131.2</ele>
        <time>2021-01-24T08:51:25.000Z</time>
      </trkpt>
      <trkpt lat="46.5075" lon="0.36172">
        <ele>131.2</ele>
        <time>2021-01-24T08:51:26.000Z</time>
      </trkpt>
      <trkpt lat="46.50749" lon="0.36175">
        <ele>131</ele>
        <time>2021-01-24T08:51:27.000Z</time>
      </trkpt>
      <trkpt lat="46.50749" lon="0.36178">
        <ele>131</ele>
        <time>2021-01-24T08:51:28.000Z</time>
      </trkpt>
      <trkpt lat="46.50748" lon="0.36182">
        <ele>131</ele>
        <time>2021-01-24T08:51:29.000Z</time>
      </trkpt>
      <trkpt lat="46.50748" lon="0.36185">
        <ele>130.8</ele>
        <time>2021-01-24T08:51:30.000Z</time>
      </trkpt>
      <trkpt lat="46.50747" lon="0.36189">
        <ele>130.8</ele>
        <time>2021-01-24T08:51:31.000Z</time>
      </trkpt>
      <trkpt lat="46.50746" lon="0.36192">
        <ele>130.8</ele>
        <time>2021-01-24T08:51:32.000Z</time>
      </trkpt>
      <trkpt lat="46.50746" lon="0.36196">
        <ele>130.6</ele>
        <time>2021-01-24T08:51:33.000Z</time>
      </trkpt>
      <trkpt lat="46.50745" lon="0.36201">
        <ele>130.6</ele>
        <time>2021-01-24T08:51:34.000Z</time>
      </trkpt>
      <trkpt lat="46.50745" lon="0.36204">
        <ele>130.6</ele>
        <time>2021-01-24T08:51:35.000Z</time>
      </trkpt>
      <trkpt lat="46.50744" lon="0.36207">
        <ele>130.6</ele>
        <time>2021-01-24T08:51:36.000Z</time>
      </trkpt>
      <trkpt lat="46.50743" lon="0.3621">
        <ele>130.6</ele>
        <time>2021-01-24T08:51:37.000Z</time>
      </trkpt>
      <trkpt lat="46.50743" lon="0.3621">
        <ele>130.6</ele>
        <time>2021-01-24T08:51:38.000Z</time>
      </trkpt>
      <trkpt lat="46.50743" lon="0.36216">
        <ele>130.6</ele>
        <time>2021-01-24T08:51:39.000Z</time>
      </trkpt>
      <trkpt lat="46.50743" lon="0.36219">
        <ele>130.6</ele>
        <time>2021-01-24T08:51:40.000Z</time>
      </trkpt>
      <trkpt lat="46.50742" lon="0.36222">
        <ele>130.6</ele>
        <time>2021-01-24T08:51:41.000Z</time>
      </trkpt>
      <trkpt lat="46.50742" lon="0.36224">
        <ele>130.4</ele>
        <time>2021-01-24T08:51:42.000Z</time>
      </trkpt>
      <trkpt lat="46.50742" lon="0.36227">
        <ele>130.4</ele>
        <time>2021-01-24T08:51:43.000Z</time>
      </trkpt>
      <trkpt lat="46.50741" lon="0.36231">
        <ele>130.2</ele>
        <time>2021-01-24T08:51:44.000Z</time>
      </trkpt>
      <trkpt lat="46.50741" lon="0.36235">
        <ele>130.2</ele>
        <time>2021-01-24T08:51:45.000Z</time>
      </trkpt>
      <trkpt lat="46.5074" lon="0.36239">
        <ele>130.2</ele>
        <time>2021-01-24T08:51:46.000Z</time>
      </trkpt>
      <trkpt lat="46.50739" lon="0.36243">
        <ele>130.2</ele>
        <time>2021-01-24T08:51:47.000Z</time>
      </trkpt>
      <trkpt lat="46.50739" lon="0.36248">
        <ele>130.2</ele>
        <time>2021-01-24T08:51:48.000Z</time>
      </trkpt>
      <trkpt lat="46.50738" lon="0.36252">
        <ele>130.2</ele>
        <time>2021-01-24T08:51:49.000Z</time>
      </trkpt>
      <trkpt lat="46.50737" lon="0.36257">
        <ele>130.2</ele>
        <time>2021-01-24T08:51:50.000Z</time>
      </trkpt>
      <trkpt lat="46.50737" lon="0.36261">
        <ele>130</ele>
        <time>2021-01-24T08:51:51.000Z</time>
      </trkpt>
      <trkpt lat="46.50736" lon="0.36266">
        <ele>130</ele>
        <time>2021-01-24T08:51:52.000Z</time>
      </trkpt>
      <trkpt lat="46.50735" lon="0.36271">
        <ele>130</ele>
        <time>2021-01-24T08:51:53.000Z</time>
      </trkpt>
      <trkpt lat="46.50734" lon="0.36275">
        <ele>129.8</ele>
        <time>2021-01-24T08:51:54.000Z</time>
      </trkpt>
      <trkpt lat="46.50733" lon="0.3628">
        <ele>129.8</ele>
        <time>2021-01-24T08:51:55.000Z</time>
      </trkpt>
      <trkpt lat="46.50733" lon="0.36285">
        <ele>129.8</ele>
        <time>2021-01-24T08:51:56.000Z</time>
      </trkpt>
      <trkpt lat="46.50733" lon="0.36289">
        <ele>129.6</ele>
        <time>2021-01-24T08:51:57.000Z</time>
      </trkpt>
      <trkpt lat="46.50732" lon="0.36294">
        <ele>129.6</ele>
        <time>2021-01-24T08:51:58.000Z</time>
      </trkpt>
      <trkpt lat="46.50732" lon="0.36298">
        <ele>129.4</ele>
        <time>2021-01-24T08:51:59.000Z</time>
      </trkpt>
      <trkpt lat="46.50731" lon="0.36303">
        <ele>129.4</ele>
        <time>2021-01-24T08:52:00.000Z</time>
      </trkpt>
      <trkpt lat="46.50731" lon="0.36309">
        <ele>129.4</ele>
        <time>2021-01-24T08:52:01.000Z</time>
      </trkpt>
      <trkpt lat="46.5073" lon="0.36314">
        <ele>129.2</ele>
        <time>2021-01-24T08:52:02.000Z</time>
      </trkpt>
      <trkpt lat="46.50729" lon="0.36319">
        <ele>129.2</ele>
        <time>2021-01-24T08:52:03.000Z</time>
      </trkpt>
      <trkpt lat="46.50728" lon="0.36324">
        <ele>129</ele>
        <time>2021-01-24T08:52:04.000Z</time>
      </trkpt>
      <trkpt lat="46.50727" lon="0.36329">
        <ele>129</ele>
        <time>2021-01-24T08:52:05.000Z</time>
      </trkpt>
      <trkpt lat="46.50726" lon="0.36334">
        <ele>128.8</ele>
        <time>2021-01-24T08:52:06.000Z</time>
      </trkpt>
      <trkpt lat="46.50725" lon="0.3634">
        <ele>128.8</ele>
        <time>2021-01-24T08:52:07.000Z</time>
      </trkpt>
      <trkpt lat="46.50725" lon="0.36345">
        <ele>128.8</ele>
        <time>2021-01-24T08:52:08.000Z</time>
      </trkpt>
      <trkpt lat="46.50724" lon="0.3635">
        <ele>128.6</ele>
        <time>2021-01-24T08:52:09.000Z</time>
      </trkpt>
      <trkpt lat="46.50723" lon="0.36355">
        <ele>128.6</ele>
        <time>2021-01-24T08:52:10.000Z</time>
      </trkpt>
      <trkpt lat="46.50722" lon="0.36361">
        <ele>128.6</ele>
        <time>2021-01-24T08:52:11.000Z</time>
      </trkpt>
      <trkpt lat="46.50721" lon="0.36367">
        <ele>128.4</ele>
        <time>2021-01-24T08:52:12.000Z</time>
      </trkpt>
      <trkpt lat="46.5072" lon="0.36373">
        <ele>128.4</ele>
        <time>2021-01-24T08:52:13.000Z</time>
      </trkpt>
      <trkpt lat="46.50719" lon="0.36379">
        <ele>128.4</ele>
        <time>2021-01-24T08:52:14.000Z</time>
      </trkpt>
      <trkpt lat="46.50718" lon="0.36385">
        <ele>128.4</ele>
        <time>2021-01-24T08:52:15.000Z</time>
      </trkpt>
      <trkpt lat="46.50717" lon="0.36391">
        <ele>128.2</ele>
        <time>2021-01-24T08:52:16.000Z</time>
      </trkpt>
      <trkpt lat="46.50717" lon="0.36396">
        <ele>128</ele>
        <time>2021-01-24T08:52:17.000Z</time>
      </trkpt>
      <trkpt lat="46.50716" lon="0.36404">
        <ele>128</ele>
        <time>2021-01-24T08:52:18.000Z</time>
      </trkpt>
      <trkpt lat="46.50715" lon="0.3641">
        <ele>127.8</ele>
        <time>2021-01-24T08:52:19.000Z</time>
      </trkpt>
      <trkpt lat="46.50714" lon="0.36417">
        <ele>127.6</ele>
        <time>2021-01-24T08:52:20.000Z</time>
      </trkpt>
      <trkpt lat="46.50713" lon="0.36424">
        <ele>127.6</ele>
        <time>2021-01-24T08:52:21.000Z</time>
      </trkpt>
      <trkpt lat="46.50712" lon="0.36431">
        <ele>127.6</ele>
        <time>2021-01-24T08:52:22.000Z</time>
      </trkpt>
      <trkpt lat="46.50711" lon="0.36438">
        <ele>127.4</ele>
        <time>2021-01-24T08:52:23.000Z</time>
      </trkpt>
      <trkpt lat="46.50711" lon="0.36445">
        <ele>127.4</ele>
        <time>2021-01-24T08:52:24.000Z</time>
      </trkpt>
      <trkpt lat="46.50709" lon="0.36453">
        <ele>127.2</ele>
        <time>2021-01-24T08:52:25.000Z</time>
      </trkpt>
      <trkpt lat="46.50708" lon="0.3646">
        <ele>127.2</ele>
        <time>2021-01-24T08:52:26.000Z</time>
      </trkpt>
      <trkpt lat="46.50707" lon="0.36468">
        <ele>127.2</ele>
        <time>2021-01-24T08:52:27.000Z</time>
      </trkpt>
      <trkpt lat="46.50706" lon="0.36475">
        <ele>127.2</ele>
        <time>2021-01-24T08:52:28.000Z</time>
      </trkpt>
      <trkpt lat="46.50705" lon="0.36483">
        <ele>127.2</ele>
        <time>2021-01-24T08:52:29.000Z</time>
      </trkpt>
      <trkpt lat="46.50704" lon="0.36491">
        <ele>127</ele>
        <time>2021-01-24T08:52:30.000Z</time>
      </trkpt>
      <trkpt lat="46.50703" lon="0.36498">
        <ele>127</ele>
        <time>2021-01-24T08:52:31.000Z</time>
      </trkpt>
      <trkpt lat="46.50702" lon="0.36505">
        <ele>127</ele>
        <time>2021-01-24T08:52:32.000Z</time>
      </trkpt>
      <trkpt lat="46.50701" lon="0.36512">
        <ele>127</ele>
        <time>2021-01-24T08:52:33.000Z</time>
      </trkpt>
      <trkpt lat="46.507" lon="0.36519">
        <ele>126.8</ele>
        <time>2021-01-24T08:52:34.000Z</time>
      </trkpt>
      <trkpt lat="46.50699" lon="0.36527">
        <ele>126.8</ele>
        <time>2021-01-24T08:52:35.000Z</time>
      </trkpt>
      <trkpt lat="46.50699" lon="0.36534">
        <ele>126.6</ele>
        <time>2021-01-24T08:52:36.000Z</time>
      </trkpt>
      <trkpt lat="46.50698" lon="0.36541">
        <ele>126.4</ele>
        <time>2021-01-24T08:52:37.000Z</time>
      </trkpt>
      <trkpt lat="46.50697" lon="0.36548">
        <ele>126.2</ele>
        <time>2021-01-24T08:52:38.000Z</time>
      </trkpt>
      <trkpt lat="46.50696" lon="0.36555">
        <ele>126.2</ele>
        <time>2021-01-24T08:52:39.000Z</time>
      </trkpt>
      <trkpt lat="46.50695" lon="0.36562">
        <ele>126</ele>
        <time>2021-01-24T08:52:40.000Z</time>
      </trkpt>
      <trkpt lat="46.50693" lon="0.36568">
        <ele>125.8</ele>
        <time>2021-01-24T08:52:41.000Z</time>
      </trkpt>
      <trkpt lat="46.50692" lon="0.36574">
        <ele>125.8</ele>
        <time>2021-01-24T08:52:42.000Z</time>
      </trkpt>
      <trkpt lat="46.5069" lon="0.3658">
        <ele>125.6</ele>
        <time>2021-01-24T08:52:43.000Z</time>
      </trkpt>
      <trkpt lat="46.50688" lon="0.36586">
        <ele>125.6</ele>
        <time>2021-01-24T08:52:44.000Z</time>
      </trkpt>
      <trkpt lat="46.50685" lon="0.36592">
        <ele>125.4</ele>
        <time>2021-01-24T08:52:45.000Z</time>
      </trkpt>
      <trkpt lat="46.50682" lon="0.36597">
        <ele>125.4</ele>
        <time>2021-01-24T08:52:46.000Z</time>
      </trkpt>
      <trkpt lat="46.50677" lon="0.366">
        <ele>125.2</ele>
        <time>2021-01-24T08:52:47.000Z</time>
      </trkpt>
      <trkpt lat="46.50674" lon="0.36604">
        <ele>125.2</ele>
        <time>2021-01-24T08:52:48.000Z</time>
      </trkpt>
      <trkpt lat="46.5067" lon="0.36607">
        <ele>125</ele>
        <time>2021-01-24T08:52:49.000Z</time>
      </trkpt>
      <trkpt lat="46.50667" lon="0.3661">
        <ele>125</ele>
        <time>2021-01-24T08:52:50.000Z</time>
      </trkpt>
      <trkpt lat="46.50663" lon="0.36613">
        <ele>124.8</ele>
        <time>2021-01-24T08:52:51.000Z</time>
      </trkpt>
      <trkpt lat="46.5066" lon="0.36617">
        <ele>124.8</ele>
        <time>2021-01-24T08:52:52.000Z</time>
      </trkpt>
      <trkpt lat="46.50657" lon="0.36621">
        <ele>124.6</ele>
        <time>2021-01-24T08:52:53.000Z</time>
      </trkpt>
      <trkpt lat="46.50653" lon="0.36624">
        <ele>124.6</ele>
        <time>2021-01-24T08:52:54.000Z</time>
      </trkpt>
      <trkpt lat="46.50651" lon="0.36628">
        <ele>124.4</ele>
        <time>2021-01-24T08:52:55.000Z</time>
      </trkpt>
      <trkpt lat="46.50649" lon="0.36633">
        <ele>124.4</ele>
        <time>2021-01-24T08:52:56.000Z</time>
      </trkpt>
      <trkpt lat="46.50647" lon="0.36638">
        <ele>124.4</ele>
        <time>2021-01-24T08:52:57.000Z</time>
      </trkpt>
      <trkpt lat="46.50646" lon="0.36644">
        <ele>124.2</ele>
        <time>2021-01-24T08:52:58.000Z</time>
      </trkpt>
      <trkpt lat="46.50645" lon="0.3665">
        <ele>124.2</ele>
        <time>2021-01-24T08:52:59.000Z</time>
      </trkpt>
      <trkpt lat="46.50644" lon="0.36656">
        <ele>124.2</ele>
        <time>2021-01-24T08:53:00.000Z</time>
      </trkpt>
      <trkpt lat="46.50644" lon="0.36661">
        <ele>124.2</ele>
        <time>2021-01-24T08:53:01.000Z</time>
      </trkpt>
      <trkpt lat="46.50643" lon="0.36667">
        <ele>124.2</ele>
        <time>2021-01-24T08:53:02.000Z</time>
      </trkpt>
      <trkpt lat="46.50643" lon="0.36672">
        <ele>124.4</ele>
        <time>2021-01-24T08:53:03.000Z</time>
      </trkpt>
      <trkpt lat="46.50642" lon="0.36678">
        <ele>124.4</ele>
        <time>2021-01-24T08:53:04.000Z</time>
      </trkpt>
      <trkpt lat="46.50641" lon="0.36683">
        <ele>124.4</ele>
        <time>2021-01-24T08:53:05.000Z</time>
      </trkpt>
      <trkpt lat="46.50641" lon="0.36689">
        <ele>124.4</ele>
        <time>2021-01-24T08:53:06.000Z</time>
      </trkpt>
      <trkpt lat="46.5064" lon="0.36694">
        <ele>124.4</ele>
        <time>2021-01-24T08:53:07.000Z</time>
      </trkpt>
      <trkpt lat="46.5064" lon="0.36699">
        <ele>124.6</ele>
        <time>2021-01-24T08:53:08.000Z</time>
      </trkpt>
      <trkpt lat="46.50639" lon="0.36703">
        <ele>124.6</ele>
        <time>2021-01-24T08:53:09.000Z</time>
      </trkpt>
      <trkpt lat="46.50639" lon="0.36709">
        <ele>124.6</ele>
        <time>2021-01-24T08:53:10.000Z</time>
      </trkpt>
      <trkpt lat="46.50639" lon="0.36714">
        <ele>124.6</ele>
        <time>2021-01-24T08:53:11.000Z</time>
      </trkpt>
      <trkpt lat="46.50638" lon="0.36718">
        <ele>124.6</ele>
        <time>2021-01-24T08:53:12.000Z</time>
      </trkpt>
      <trkpt lat="46.50638" lon="0.36722">
        <ele>124.8</ele>
        <time>2021-01-24T08:53:13.000Z</time>
      </trkpt>
      <trkpt lat="46.50637" lon="0.36725">
        <ele>124.8</ele>
        <time>2021-01-24T08:53:14.000Z</time>
      </trkpt>
      <trkpt lat="46.50637" lon="0.36728">
        <ele>124.8</ele>
        <time>2021-01-24T08:53:15.000Z</time>
      </trkpt>
      <trkpt lat="46.50636" lon="0.36732">
        <ele>124.8</ele>
        <time>2021-01-24T08:53:16.000Z</time>
      </trkpt>
      <trkpt lat="46.50636" lon="0.36735">
        <ele>124.8</ele>
        <time>2021-01-24T08:53:17.000Z</time>
      </trkpt>
      <trkpt lat="46.50635" lon="0.36738">
        <ele>125</ele>
        <time>2021-01-24T08:53:18.000Z</time>
      </trkpt>
      <trkpt lat="46.50635" lon="0.36742">
        <ele>125.2</ele>
        <time>2021-01-24T08:53:19.000Z</time>
      </trkpt>
      <trkpt lat="46.50634" lon="0.36746">
        <ele>125.2</ele>
        <time>2021-01-24T08:53:20.000Z</time>
      </trkpt>
      <trkpt lat="46.50634" lon="0.36749">
        <ele>125.4</ele>
        <time>2021-01-24T08:53:21.000Z</time>
      </trkpt>
      <trkpt lat="46.50633" lon="0.36752">
        <ele>125.6</ele>
        <time>2021-01-24T08:53:22.000Z</time>
      </trkpt>
      <trkpt lat="46.50633" lon="0.36752">
        <ele>125.8</ele>
        <time>2021-01-24T08:53:23.000Z</time>
      </trkpt>
      <trkpt lat="46.50634" lon="0.36755">
        <ele>125.8</ele>
        <time>2021-01-24T08:53:24.000Z</time>
      </trkpt>
      <trkpt lat="46.50636" lon="0.36755">
        <ele>126</ele>
        <time>2021-01-24T08:53:25.000Z</time>
      </trkpt>
      <trkpt lat="46.50639" lon="0.36755">
        <ele>126</ele>
        <time>2021-01-24T08:53:26.000Z</time>
      </trkpt>
      <trkpt lat="46.50641" lon="0.36756">
        <ele>126.2</ele>
        <time>2021-01-24T08:53:27.000Z</time>
      </trkpt>
      <trkpt lat="46.50643" lon="0.36759">
        <ele>126.4</ele>
        <time>2021-01-24T08:53:28.000Z</time>
      </trkpt>
      <trkpt lat="46.50644" lon="0.36763">
        <ele>126.6</ele>
        <time>2021-01-24T08:53:29.000Z</time>
      </trkpt>
      <trkpt lat="46.50644" lon="0.36767">
        <ele>126.8</ele>
        <time>2021-01-24T08:53:30.000Z</time>
      </trkpt>
      <trkpt lat="46.50645" lon="0.3677">
        <ele>127</ele>
        <time>2021-01-24T08:53:31.000Z</time>
      </trkpt>
      <trkpt lat="46.50645" lon="0.36775">
        <ele>127.2</ele>
        <time>2021-01-24T08:53:32.000Z</time>
      </trkpt>
      <trkpt lat="46.50645" lon="0.36779">
        <ele>127.2</ele>
        <time>2021-01-24T08:53:33.000Z</time>
      </trkpt>
      <trkpt lat="46.50645" lon="0.36784">
        <ele>127.4</ele>
        <time>2021-01-24T08:53:34.000Z</time>
      </trkpt>
      <trkpt lat="46.50645" lon="0.36796">
        <ele>127.8</ele>
        <time>2021-01-24T08:53:37.000Z</time>
      </trkpt>
      <trkpt lat="46.50645" lon="0.36801">
        <ele>127.8</ele>
        <time>2021-01-24T08:53:38.000Z</time>
      </trkpt>
      <trkpt lat="46.50644" lon="0.36805">
        <ele>128</ele>
        <time>2021-01-24T08:53:39.000Z</time>
      </trkpt>
      <trkpt lat="46.50644" lon="0.36808">
        <ele>128.2</ele>
        <time>2021-01-24T08:53:40.000Z</time>
      </trkpt>
      <trkpt lat="46.50643" lon="0.3681">
        <ele>128.4</ele>
        <time>2021-01-24T08:53:41.000Z</time>
      </trkpt>
      <trkpt lat="46.50643" lon="0.3681">
        <ele>128.4</ele>
        <time>2021-01-24T08:53:42.000Z</time>
      </trkpt>
      <trkpt lat="46.50641" lon="0.36814">
        <ele>128.6</ele>
        <time>2021-01-24T08:53:43.000Z</time>
      </trkpt>
      <trkpt lat="46.50641" lon="0.36814">
        <ele>128.6</ele>
        <time>2021-01-24T08:53:44.000Z</time>
      </trkpt>
      <trkpt lat="46.50639" lon="0.36816">
        <ele>128.8</ele>
        <time>2021-01-24T08:53:45.000Z</time>
      </trkpt>
      <trkpt lat="46.50639" lon="0.36816">
        <ele>128.8</ele>
        <time>2021-01-24T08:53:46.000Z</time>
      </trkpt>
      <trkpt lat="46.50639" lon="0.36816">
        <ele>129</ele>
        <time>2021-01-24T08:53:47.000Z</time>
      </trkpt>
      <trkpt lat="46.50639" lon="0.36816">
        <ele>129.2</ele>
        <time>2021-01-24T08:53:48.000Z</time>
      </trkpt>
      <trkpt lat="46.50639" lon="0.36816">
        <ele>129.6</ele>
        <time>2021-01-24T08:53:49.000Z</time>
      </trkpt>
      <trkpt lat="46.50639" lon="0.36816">
        <ele>129.8</ele>
        <time>2021-01-24T08:53:50.000Z</time>
      </trkpt>
      <trkpt lat="46.50639" lon="0.36816">
        <ele>130</ele>
        <time>2021-01-24T08:53:51.000Z</time>
      </trkpt>
      <trkpt lat="46.50639" lon="0.36816">
        <ele>130.4</ele>
        <time>2021-01-24T08:53:52.000Z</time>
      </trkpt>
      <trkpt lat="46.50639" lon="0.36816">
        <ele>130.6</ele>
        <time>2021-01-24T08:53:53.000Z</time>
      </trkpt>
      <trkpt lat="46.50639" lon="0.36816">
        <ele>130.8</ele>
        <time>2021-01-24T08:53:54.000Z</time>
      </trkpt>
      <trkpt lat="46.50639" lon="0.36816">
        <ele>131</ele>
        <time>2021-01-24T08:53:55.000Z</time>
      </trkpt>
      <trkpt lat="46.50639" lon="0.36816">
        <ele>131</ele>
        <time>2021-01-24T08:53:56.000Z</time>
      </trkpt>
      <trkpt lat="46.50639" lon="0.36816">
        <ele>131</ele>
        <time>2021-01-24T08:53:57.000Z</time>
      </trkpt>
      <trkpt lat="46.50639" lon="0.36816">
        <ele>131.2</ele>
        <time>2021-01-24T08:53:58.000Z</time>
      </trkpt>
      <trkpt lat="46.50639" lon="0.36816">
        <ele>131.4</ele>
        <time>2021-01-24T08:53:59.000Z</time>
      </trkpt>
      <trkpt lat="46.50638" lon="0.36818">
        <ele>131.4</ele>
        <time>2021-01-24T08:54:00.000Z</time>
      </trkpt>
      <trkpt lat="46.50638" lon="0.36818">
        <ele>131.6</ele>
        <time>2021-01-24T08:54:01.000Z</time>
      </trkpt>
      <trkpt lat="46.50638" lon="0.36818">
        <ele>131.8</ele>
        <time>2021-01-24T08:54:02.000Z</time>
      </trkpt>
      <trkpt lat="46.50638" lon="0.36818">
        <ele>132</ele>
        <time>2021-01-24T08:54:03.000Z</time>
      </trkpt>
      <trkpt lat="46.50638" lon="0.36818">
        <ele>132</ele>
        <time>2021-01-24T08:54:04.000Z</time>
      </trkpt>
      <trkpt lat="46.50638" lon="0.36818">
        <ele>132.2</ele>
        <time>2021-01-24T08:54:05.000Z</time>
      </trkpt>
      <trkpt lat="46.50638" lon="0.36818">
        <ele>132.2</ele>
        <time>2021-01-24T08:54:06.000Z</time>
      </trkpt>
      <trkpt lat="46.50638" lon="0.36818">
        <ele>132.2</ele>
        <time>2021-01-24T08:54:07.000Z</time>
      </trkpt>
      <trkpt lat="46.50636" lon="0.3682">
        <ele>132.2</ele>
        <time>2021-01-24T08:54:08.000Z</time>
      </trkpt>
      <trkpt lat="46.50634" lon="0.36822">
        <ele>132.2</ele>
        <time>2021-01-24T08:54:09.000Z</time>
      </trkpt>
      <trkpt lat="46.50631" lon="0.36823">
        <ele>132.2</ele>
        <time>2021-01-24T08:54:10.000Z</time>
      </trkpt>
      <trkpt lat="46.50628" lon="0.36824">
        <ele>132.2</ele>
        <time>2021-01-24T08:54:11.000Z</time>
      </trkpt>
      <trkpt lat="46.50625" lon="0.36824">
        <ele>132.4</ele>
        <time>2021-01-24T08:54:12.000Z</time>
      </trkpt>
      <trkpt lat="46.50622" lon="0.36823">
        <ele>132.4</ele>
        <time>2021-01-24T08:54:13.000Z</time>
      </trkpt>
      <trkpt lat="46.5062" lon="0.36822">
        <ele>132.4</ele>
        <time>2021-01-24T08:54:14.000Z</time>
      </trkpt>
      <trkpt lat="46.50618" lon="0.36822">
        <ele>132.4</ele>
        <time>2021-01-24T08:54:15.000Z</time>
      </trkpt>
      <trkpt lat="46.50615" lon="0.3682">
        <ele>132.4</ele>
        <time>2021-01-24T08:54:16.000Z</time>
      </trkpt>
      <trkpt lat="46.50612" lon="0.36818">
        <ele>132.6</ele>
        <time>2021-01-24T08:54:17.000Z</time>
      </trkpt>
      <trkpt lat="46.50608" lon="0.36815">
        <ele>132.4</ele>
        <time>2021-01-24T08:54:18.000Z</time>
      </trkpt>
      <trkpt lat="46.50605" lon="0.36812">
        <ele>132.4</ele>
        <time>2021-01-24T08:54:19.000Z</time>
      </trkpt>
      <trkpt lat="46.50601" lon="0.3681">
        <ele>132.6</ele>
        <time>2021-01-24T08:54:20.000Z</time>
      </trkpt>
      <trkpt lat="46.50597" lon="0.36809">
        <ele>132.6</ele>
        <time>2021-01-24T08:54:21.000Z</time>
      </trkpt>
      <trkpt lat="46.50593" lon="0.36809">
        <ele>132.6</ele>
        <time>2021-01-24T08:54:22.000Z</time>
      </trkpt>
      <trkpt lat="46.5059" lon="0.36809">
        <ele>132.8</ele>
        <time>2021-01-24T08:54:23.000Z</time>
      </trkpt>
      <trkpt lat="46.50587" lon="0.36808">
        <ele>132.8</ele>
        <time>2021-01-24T08:54:24.000Z</time>
      </trkpt>
      <trkpt lat="46.50583" lon="0.36805">
        <ele>132.8</ele>
        <time>2021-01-24T08:54:25.000Z</time>
      </trkpt>
      <trkpt lat="46.5058" lon="0.36802">
        <ele>132.8</ele>
        <time>2021-01-24T08:54:26.000Z</time>
      </trkpt>
      <trkpt lat="46.50576" lon="0.36798">
        <ele>132.8</ele>
        <time>2021-01-24T08:54:27.000Z</time>
      </trkpt>
      <trkpt lat="46.50573" lon="0.36793">
        <ele>132.8</ele>
        <time>2021-01-24T08:54:28.000Z</time>
      </trkpt>
      <trkpt lat="46.50569" lon="0.36789">
        <ele>132.8</ele>
        <time>2021-01-24T08:54:29.000Z</time>
      </trkpt>
      <trkpt lat="46.50565" lon="0.36785">
        <ele>133</ele>
        <time>2021-01-24T08:54:30.000Z</time>
      </trkpt>
      <trkpt lat="46.50562" lon="0.36782">
        <ele>133</ele>
        <time>2021-01-24T08:54:31.000Z</time>
      </trkpt>
      <trkpt lat="46.50559" lon="0.3678">
        <ele>133</ele>
        <time>2021-01-24T08:54:32.000Z</time>
      </trkpt>
      <trkpt lat="46.50556" lon="0.36776">
        <ele>133</ele>
        <time>2021-01-24T08:54:33.000Z</time>
      </trkpt>
      <trkpt lat="46.50552" lon="0.36773">
        <ele>133</ele>
        <time>2021-01-24T08:54:34.000Z</time>
      </trkpt>
      <trkpt lat="46.50548" lon="0.3677">
        <ele>133.2</ele>
        <time>2021-01-24T08:54:35.000Z</time>
      </trkpt>
      <trkpt lat="46.50544" lon="0.36769">
        <ele>133.2</ele>
        <time>2021-01-24T08:54:36.000Z</time>
      </trkpt>
      <trkpt lat="46.50538" lon="0.36769">
        <ele>133.4</ele>
        <time>2021-01-24T08:54:37.000Z</time>
      </trkpt>
      <trkpt lat="46.50533" lon="0.36768">
        <ele>133.4</ele>
        <time>2021-01-24T08:54:38.000Z</time>
      </trkpt>
      <trkpt lat="46.50527" lon="0.36766">
        <ele>133.6</ele>
        <time>2021-01-24T08:54:39.000Z</time>
      </trkpt>
      <trkpt lat="46.50523" lon="0.36763">
        <ele>133.6</ele>
        <time>2021-01-24T08:54:40.000Z</time>
      </trkpt>
      <trkpt lat="46.50518" lon="0.36761">
        <ele>133.8</ele>
        <time>2021-01-24T08:54:41.000Z</time>
      </trkpt>
      <trkpt lat="46.50514" lon="0.36759">
        <ele>133.8</ele>
        <time>2021-01-24T08:54:42.000Z</time>
      </trkpt>
      <trkpt lat="46.5051" lon="0.36756">
        <ele>134</ele>
        <time>2021-01-24T08:54:43.000Z</time>
      </trkpt>
      <trkpt lat="46.50507" lon="0.36754">
        <ele>134</ele>
        <time>2021-01-24T08:54:44.000Z</time>
      </trkpt>
      <trkpt lat="46.50503" lon="0.36752">
        <ele>134.2</ele>
        <time>2021-01-24T08:54:45.000Z</time>
      </trkpt>
      <trkpt lat="46.50502" lon="0.3675">
        <ele>134.2</ele>
        <time>2021-01-24T08:54:46.000Z</time>
      </trkpt>
      <trkpt lat="46.505" lon="0.36747">
        <ele>134.4</ele>
        <time>2021-01-24T08:54:47.000Z</time>
      </trkpt>
      <trkpt lat="46.50498" lon="0.36744">
        <ele>134.4</ele>
        <time>2021-01-24T08:54:48.000Z</time>
      </trkpt>
      <trkpt lat="46.50495" lon="0.3674">
        <ele>134.4</ele>
        <time>2021-01-24T08:54:49.000Z</time>
      </trkpt>
      <trkpt lat="46.50491" lon="0.36737">
        <ele>134.6</ele>
        <time>2021-01-24T08:54:50.000Z</time>
      </trkpt>
      <trkpt lat="46.50487" lon="0.36733">
        <ele>134.6</ele>
        <time>2021-01-24T08:54:51.000Z</time>
      </trkpt>
      <trkpt lat="46.50483" lon="0.36731">
        <ele>134.6</ele>
        <time>2021-01-24T08:54:52.000Z</time>
      </trkpt>
      <trkpt lat="46.50478" lon="0.36728">
        <ele>134.6</ele>
        <time>2021-01-24T08:54:53.000Z</time>
      </trkpt>
      <trkpt lat="46.50474" lon="0.36726">
        <ele>134.8</ele>
        <time>2021-01-24T08:54:54.000Z</time>
      </trkpt>
      <trkpt lat="46.5047" lon="0.36724">
        <ele>134.8</ele>
        <time>2021-01-24T08:54:55.000Z</time>
      </trkpt>
      <trkpt lat="46.50466" lon="0.36723">
        <ele>134.8</ele>
        <time>2021-01-24T08:54:56.000Z</time>
      </trkpt>
      <trkpt lat="46.50461" lon="0.36721">
        <ele>135</ele>
        <time>2021-01-24T08:54:57.000Z</time>
      </trkpt>
      <trkpt lat="46.50457" lon="0.3672">
        <ele>135</ele>
        <time>2021-01-24T08:54:58.000Z</time>
      </trkpt>
      <trkpt lat="46.50453" lon="0.36719">
        <ele>135.2</ele>
        <time>2021-01-24T08:54:59.000Z</time>
      </trkpt>
      <trkpt lat="46.50447" lon="0.36719">
        <ele>135.2</ele>
        <time>2021-01-24T08:55:00.000Z</time>
      </trkpt>
      <trkpt lat="46.50443" lon="0.36718">
        <ele>135.4</ele>
        <time>2021-01-24T08:55:01.000Z</time>
      </trkpt>
      <trkpt lat="46.50437" lon="0.36719">
        <ele>135.4</ele>
        <time>2021-01-24T08:55:02.000Z</time>
      </trkpt>
      <trkpt lat="46.50433" lon="0.3672">
        <ele>135.4</ele>
        <time>2021-01-24T08:55:03.000Z</time>
      </trkpt>
      <trkpt lat="46.50429" lon="0.3672">
        <ele>135.6</ele>
        <time>2021-01-24T08:55:04.000Z</time>
      </trkpt>
      <trkpt lat="46.50424" lon="0.3672">
        <ele>135.6</ele>
        <time>2021-01-24T08:55:05.000Z</time>
      </trkpt>
      <trkpt lat="46.5042" lon="0.3672">
        <ele>135.6</ele>
        <time>2021-01-24T08:55:06.000Z</time>
      </trkpt>
      <trkpt lat="46.50415" lon="0.3672">
        <ele>135.6</ele>
        <time>2021-01-24T08:55:07.000Z</time>
      </trkpt>
      <trkpt lat="46.50411" lon="0.3672">
        <ele>135.8</ele>
        <time>2021-01-24T08:55:08.000Z</time>
      </trkpt>
      <trkpt lat="46.50407" lon="0.3672">
        <ele>135.8</ele>
        <time>2021-01-24T08:55:09.000Z</time>
      </trkpt>
      <trkpt lat="46.50404" lon="0.36719">
        <ele>135.8</ele>
        <time>2021-01-24T08:55:10.000Z</time>
      </trkpt>
      <trkpt lat="46.504" lon="0.36718">
        <ele>135.8</ele>
        <time>2021-01-24T08:55:11.000Z</time>
      </trkpt>
      <trkpt lat="46.50396" lon="0.36716">
        <ele>135.8</ele>
        <time>2021-01-24T08:55:12.000Z</time>
      </trkpt>
      <trkpt lat="46.50392" lon="0.36714">
        <ele>135.8</ele>
        <time>2021-01-24T08:55:13.000Z</time>
      </trkpt>
      <trkpt lat="46.50387" lon="0.36712">
        <ele>135.8</ele>
        <time>2021-01-24T08:55:14.000Z</time>
      </trkpt>
      <trkpt lat="46.50383" lon="0.3671">
        <ele>135.8</ele>
        <time>2021-01-24T08:55:15.000Z</time>
      </trkpt>
      <trkpt lat="46.50379" lon="0.36707">
        <ele>135.8</ele>
        <time>2021-01-24T08:55:16.000Z</time>
      </trkpt>
      <trkpt lat="46.50375" lon="0.36704">
        <ele>135.8</ele>
        <time>2021-01-24T08:55:17.000Z</time>
      </trkpt>
      <trkpt lat="46.50372" lon="0.36701">
        <ele>135.8</ele>
        <time>2021-01-24T08:55:18.000Z</time>
      </trkpt>
      <trkpt lat="46.50369" lon="0.36699">
        <ele>135.8</ele>
        <time>2021-01-24T08:55:19.000Z</time>
      </trkpt>
      <trkpt lat="46.50365" lon="0.36698">
        <ele>135.8</ele>
        <time>2021-01-24T08:55:20.000Z</time>
      </trkpt>
      <trkpt lat="46.50362" lon="0.36698">
        <ele>135.8</ele>
        <time>2021-01-24T08:55:21.000Z</time>
      </trkpt>
      <trkpt lat="46.50356" lon="0.36696">
        <ele>136</ele>
        <time>2021-01-24T08:55:22.000Z</time>
      </trkpt>
      <trkpt lat="46.50352" lon="0.36695">
        <ele>136</ele>
        <time>2021-01-24T08:55:23.000Z</time>
      </trkpt>
      <trkpt lat="46.50351" lon="0.3669">
        <ele>136</ele>
        <time>2021-01-24T08:55:24.000Z</time>
      </trkpt>
      <trkpt lat="46.50349" lon="0.36685">
        <ele>136</ele>
        <time>2021-01-24T08:55:25.000Z</time>
      </trkpt>
      <trkpt lat="46.50349" lon="0.36679">
        <ele>136</ele>
        <time>2021-01-24T08:55:26.000Z</time>
      </trkpt>
      <trkpt lat="46.50349" lon="0.36671">
        <ele>135.8</ele>
        <time>2021-01-24T08:55:27.000Z</time>
      </trkpt>
      <trkpt lat="46.50349" lon="0.36665">
        <ele>135.8</ele>
        <time>2021-01-24T08:55:28.000Z</time>
      </trkpt>
      <trkpt lat="46.50347" lon="0.36659">
        <ele>135.8</ele>
        <time>2021-01-24T08:55:29.000Z</time>
      </trkpt>
      <trkpt lat="46.50345" lon="0.36654">
        <ele>135.8</ele>
        <time>2021-01-24T08:55:30.000Z</time>
      </trkpt>
      <trkpt lat="46.50342" lon="0.3665">
        <ele>135.6</ele>
        <time>2021-01-24T08:55:31.000Z</time>
      </trkpt>
      <trkpt lat="46.5034" lon="0.36648">
        <ele>135.6</ele>
        <time>2021-01-24T08:55:32.000Z</time>
      </trkpt>
      <trkpt lat="46.50338" lon="0.36648">
        <ele>135.6</ele>
        <time>2021-01-24T08:55:33.000Z</time>
      </trkpt>
      <trkpt lat="46.50335" lon="0.36649">
        <ele>135.6</ele>
        <time>2021-01-24T08:55:34.000Z</time>
      </trkpt>
      <trkpt lat="46.50332" lon="0.36649">
        <ele>135.6</ele>
        <time>2021-01-24T08:55:35.000Z</time>
      </trkpt>
      <trkpt lat="46.5033" lon="0.3665">
        <ele>135.6</ele>
        <time>2021-01-24T08:55:36.000Z</time>
      </trkpt>
      <trkpt lat="46.5033" lon="0.3665">
        <ele>135.6</ele>
        <time>2021-01-24T08:55:37.000Z</time>
      </trkpt>
      <trkpt lat="46.50329" lon="0.36654">
        <ele>135.6</ele>
        <time>2021-01-24T08:55:38.000Z</time>
      </trkpt>
      <trkpt lat="46.50329" lon="0.36658">
        <ele>135.6</ele>
        <time>2021-01-24T08:55:39.000Z</time>
      </trkpt>
      <trkpt lat="46.50328" lon="0.36661">
        <ele>135.6</ele>
        <time>2021-01-24T08:55:40.000Z</time>
      </trkpt>
      <trkpt lat="46.50327" lon="0.36664">
        <ele>135.6</ele>
        <time>2021-01-24T08:55:41.000Z</time>
      </trkpt>
      <trkpt lat="46.50325" lon="0.36666">
        <ele>135.4</ele>
        <time>2021-01-24T08:55:42.000Z</time>
      </trkpt>
      <trkpt lat="46.50322" lon="0.36668">
        <ele>135.4</ele>
        <time>2021-01-24T08:55:43.000Z</time>
      </trkpt>
      <trkpt lat="46.5032" lon="0.3667">
        <ele>135.4</ele>
        <time>2021-01-24T08:55:44.000Z</time>
      </trkpt>
      <trkpt lat="46.50317" lon="0.36671">
        <ele>135.4</ele>
        <time>2021-01-24T08:55:45.000Z</time>
      </trkpt>
      <trkpt lat="46.50315" lon="0.36672">
        <ele>135.4</ele>
        <time>2021-01-24T08:55:46.000Z</time>
      </trkpt>
      <trkpt lat="46.50313" lon="0.36671">
        <ele>135.4</ele>
        <time>2021-01-24T08:55:47.000Z</time>
      </trkpt>
      <trkpt lat="46.50312" lon="0.36669">
        <ele>135.4</ele>
        <time>2021-01-24T08:55:48.000Z</time>
      </trkpt>
      <trkpt lat="46.5031" lon="0.36668">
        <ele>135.4</ele>
        <time>2021-01-24T08:55:49.000Z</time>
      </trkpt>
      <trkpt lat="46.5031" lon="0.36668">
        <ele>135.4</ele>
        <time>2021-01-24T08:55:50.000Z</time>
      </trkpt>
      <trkpt lat="46.50306" lon="0.36665">
        <ele>135.4</ele>
        <time>2021-01-24T08:55:51.000Z</time>
      </trkpt>
      <trkpt lat="46.50306" lon="0.36663">
        <ele>135.4</ele>
        <time>2021-01-24T08:55:52.000Z</time>
      </trkpt>
      <trkpt lat="46.50304" lon="0.3666">
        <ele>135.4</ele>
        <time>2021-01-24T08:55:53.000Z</time>
      </trkpt>
      <trkpt lat="46.50304" lon="0.36657">
        <ele>135.4</ele>
        <time>2021-01-24T08:55:54.000Z</time>
      </trkpt>
      <trkpt lat="46.50302" lon="0.36655">
        <ele>135.4</ele>
        <time>2021-01-24T08:55:55.000Z</time>
      </trkpt>
      <trkpt lat="46.503" lon="0.36653">
        <ele>135.4</ele>
        <time>2021-01-24T08:55:56.000Z</time>
      </trkpt>
      <trkpt lat="46.50298" lon="0.36651">
        <ele>135.2</ele>
        <time>2021-01-24T08:55:57.000Z</time>
      </trkpt>
      <trkpt lat="46.50296" lon="0.36649">
        <ele>135.2</ele>
        <time>2021-01-24T08:55:58.000Z</time>
      </trkpt>
      <trkpt lat="46.50294" lon="0.36647">
        <ele>135.2</ele>
        <time>2021-01-24T08:55:59.000Z</time>
      </trkpt>
      <trkpt lat="46.50293" lon="0.36646">
        <ele>135.2</ele>
        <time>2021-01-24T08:56:00.000Z</time>
      </trkpt>
      <trkpt lat="46.50293" lon="0.36646">
        <ele>135.2</ele>
        <time>2021-01-24T08:56:01.000Z</time>
      </trkpt>
      <trkpt lat="46.5029" lon="0.36643">
        <ele>135</ele>
        <time>2021-01-24T08:56:02.000Z</time>
      </trkpt>
      <trkpt lat="46.5029" lon="0.36643">
        <ele>135</ele>
        <time>2021-01-24T08:56:03.000Z</time>
      </trkpt>
      <trkpt lat="46.50287" lon="0.36641">
        <ele>135</ele>
        <time>2021-01-24T08:56:04.000Z</time>
      </trkpt>
      <trkpt lat="46.50287" lon="0.36641">
        <ele>135</ele>
        <time>2021-01-24T08:56:05.000Z</time>
      </trkpt>
      <trkpt lat="46.50285" lon="0.36641">
        <ele>135</ele>
        <time>2021-01-24T08:56:06.000Z</time>
      </trkpt>
      <trkpt lat="46.50283" lon="0.36643">
        <ele>134.8</ele>
        <time>2021-01-24T08:56:07.000Z</time>
      </trkpt>
      <trkpt lat="46.50283" lon="0.36643">
        <ele>134.8</ele>
        <time>2021-01-24T08:56:08.000Z</time>
      </trkpt>
      <trkpt lat="46.50279" lon="0.36644">
        <ele>134.8</ele>
        <time>2021-01-24T08:56:09.000Z</time>
      </trkpt>
      <trkpt lat="46.50279" lon="0.36644">
        <ele>134.8</ele>
        <time>2021-01-24T08:56:10.000Z</time>
      </trkpt>
      <trkpt lat="46.50277" lon="0.36647">
        <ele>134.6</ele>
        <time>2021-01-24T08:56:11.000Z</time>
      </trkpt>
      <trkpt lat="46.50277" lon="0.36647">
        <ele>134.6</ele>
        <time>2021-01-24T08:56:12.000Z</time>
      </trkpt>
      <trkpt lat="46.50274" lon="0.36651">
        <ele>134.6</ele>
        <time>2021-01-24T08:56:13.000Z</time>
      </trkpt>
      <trkpt lat="46.50273" lon="0.36652">
        <ele>134.6</ele>
        <time>2021-01-24T08:56:14.000Z</time>
      </trkpt>
      <trkpt lat="46.5027" lon="0.36655">
        <ele>134.6</ele>
        <time>2021-01-24T08:56:15.000Z</time>
      </trkpt>
      <trkpt lat="46.50269" lon="0.36657">
        <ele>134.4</ele>
        <time>2021-01-24T08:56:16.000Z</time>
      </trkpt>
      <trkpt lat="46.50267" lon="0.3666">
        <ele>134.4</ele>
        <time>2021-01-24T08:56:17.000Z</time>
      </trkpt>
      <trkpt lat="46.50265" lon="0.36663">
        <ele>134.4</ele>
        <time>2021-01-24T08:56:18.000Z</time>
      </trkpt>
      <trkpt lat="46.50263" lon="0.36665">
        <ele>134.4</ele>
        <time>2021-01-24T08:56:19.000Z</time>
      </trkpt>
      <trkpt lat="46.50262" lon="0.36667">
        <ele>134.2</ele>
        <time>2021-01-24T08:56:20.000Z</time>
      </trkpt>
      <trkpt lat="46.5026" lon="0.3667">
        <ele>134.2</ele>
        <time>2021-01-24T08:56:21.000Z</time>
      </trkpt>
      <trkpt lat="46.5026" lon="0.3667">
        <ele>134.2</ele>
        <time>2021-01-24T08:56:22.000Z</time>
      </trkpt>
      <trkpt lat="46.50258" lon="0.36671">
        <ele>134.2</ele>
        <time>2021-01-24T08:56:23.000Z</time>
      </trkpt>
      <trkpt lat="46.50258" lon="0.36671">
        <ele>134.2</ele>
        <time>2021-01-24T08:56:24.000Z</time>
      </trkpt>
      <trkpt lat="46.50258" lon="0.36671">
        <ele>134.2</ele>
        <time>2021-01-24T08:56:25.000Z</time>
      </trkpt>
      <trkpt lat="46.50258" lon="0.36671">
        <ele>134.2</ele>
        <time>2021-01-24T08:56:26.000Z</time>
      </trkpt>
      <trkpt lat="46.50258" lon="0.36671">
        <ele>134.2</ele>
        <time>2021-01-24T08:56:27.000Z</time>
      </trkpt>
      <trkpt lat="46.50258" lon="0.36671">
        <ele>134.4</ele>
        <time>2021-01-24T08:56:28.000Z</time>
      </trkpt>
      <trkpt lat="46.50258" lon="0.36671">
        <ele>134.4</ele>
        <time>2021-01-24T08:56:29.000Z</time>
      </trkpt>
      <trkpt lat="46.50258" lon="0.36671">
        <ele>134.4</ele>
        <time>2021-01-24T08:56:30.000Z</time>
      </trkpt>
      <trkpt lat="46.50258" lon="0.36671">
        <ele>134.4</ele>
        <time>2021-01-24T08:56:31.000Z</time>
      </trkpt>
      <trkpt lat="46.50258" lon="0.36671">
        <ele>134.6</ele>
        <time>2021-01-24T08:56:32.000Z</time>
      </trkpt>
      <trkpt lat="46.50258" lon="0.36671">
        <ele>134.6</ele>
        <time>2021-01-24T08:56:33.000Z</time>
      </trkpt>
      <trkpt lat="46.50258" lon="0.36671">
        <ele>134.8</ele>
        <time>2021-01-24T08:56:34.000Z</time>
      </trkpt>
      <trkpt lat="46.50258" lon="0.36671">
        <ele>135</ele>
        <time>2021-01-24T08:56:35.000Z</time>
      </trkpt>
      <trkpt lat="46.50258" lon="0.36671">
        <ele>135.2</ele>
        <time>2021-01-24T08:56:36.000Z</time>
      </trkpt>
      <trkpt lat="46.50258" lon="0.36671">
        <ele>135.4</ele>
        <time>2021-01-24T08:56:37.000Z</time>
      </trkpt>
      <trkpt lat="46.50258" lon="0.36671">
        <ele>135.6</ele>
        <time>2021-01-24T08:56:38.000Z</time>
      </trkpt>
      <trkpt lat="46.50258" lon="0.36671">
        <ele>135.8</ele>
        <time>2021-01-24T08:56:39.000Z</time>
      </trkpt>
      <trkpt lat="46.50258" lon="0.36671">
        <ele>136</ele>
        <time>2021-01-24T08:56:40.000Z</time>
      </trkpt>
      <trkpt lat="46.50258" lon="0.36671">
        <ele>136.2</ele>
        <time>2021-01-24T08:56:41.000Z</time>
      </trkpt>
      <trkpt lat="46.50258" lon="0.36671">
        <ele>136.4</ele>
        <time>2021-01-24T08:56:42.000Z</time>
      </trkpt>
      <trkpt lat="46.50256" lon="0.36676">
        <ele>136.6</ele>
        <time>2021-01-24T08:56:43.000Z</time>
      </trkpt>
      <trkpt lat="46.50254" lon="0.36679">
        <ele>136.6</ele>
        <time>2021-01-24T08:56:44.000Z</time>
      </trkpt>
      <trkpt lat="46.50253" lon="0.36682">
        <ele>136.8</ele>
        <time>2021-01-24T08:56:45.000Z</time>
      </trkpt>
      <trkpt lat="46.50251" lon="0.36684">
        <ele>137</ele>
        <time>2021-01-24T08:56:46.000Z</time>
      </trkpt>
      <trkpt lat="46.50249" lon="0.36687">
        <ele>137</ele>
        <time>2021-01-24T08:56:47.000Z</time>
      </trkpt>
      <trkpt lat="46.50249" lon="0.36687">
        <ele>137.2</ele>
        <time>2021-01-24T08:56:48.000Z</time>
      </trkpt>
      <trkpt lat="46.50246" lon="0.36688">
        <ele>137.2</ele>
        <time>2021-01-24T08:56:49.000Z</time>
      </trkpt>
      <trkpt lat="46.50246" lon="0.36688">
        <ele>137.2</ele>
        <time>2021-01-24T08:56:50.000Z</time>
      </trkpt>
      <trkpt lat="46.50243" lon="0.36688">
        <ele>137.4</ele>
        <time>2021-01-24T08:56:51.000Z</time>
      </trkpt>
      <trkpt lat="46.5024" lon="0.36686">
        <ele>137.4</ele>
        <time>2021-01-24T08:56:52.000Z</time>
      </trkpt>
      <trkpt lat="46.50238" lon="0.36683">
        <ele>137.4</ele>
        <time>2021-01-24T08:56:53.000Z</time>
      </trkpt>
      <trkpt lat="46.50235" lon="0.3668">
        <ele>137.4</ele>
        <time>2021-01-24T08:56:54.000Z</time>
      </trkpt>
      <trkpt lat="46.50232" lon="0.36678">
        <ele>137.4</ele>
        <time>2021-01-24T08:56:55.000Z</time>
      </trkpt>
      <trkpt lat="46.50229" lon="0.36678">
        <ele>137.4</ele>
        <time>2021-01-24T08:56:56.000Z</time>
      </trkpt>
      <trkpt lat="46.50226" lon="0.36677">
        <ele>137.4</ele>
        <time>2021-01-24T08:56:57.000Z</time>
      </trkpt>
      <trkpt lat="46.50224" lon="0.36675">
        <ele>137.4</ele>
        <time>2021-01-24T08:56:58.000Z</time>
      </trkpt>
      <trkpt lat="46.50222" lon="0.36673">
        <ele>137.4</ele>
        <time>2021-01-24T08:56:59.000Z</time>
      </trkpt>
      <trkpt lat="46.5022" lon="0.3667">
        <ele>137.4</ele>
        <time>2021-01-24T08:57:00.000Z</time>
      </trkpt>
      <trkpt lat="46.50218" lon="0.36667">
        <ele>137.4</ele>
        <time>2021-01-24T08:57:01.000Z</time>
      </trkpt>
      <trkpt lat="46.50216" lon="0.36663">
        <ele>137.4</ele>
        <time>2021-01-24T08:57:02.000Z</time>
      </trkpt>
      <trkpt lat="46.50214" lon="0.36659">
        <ele>137.4</ele>
        <time>2021-01-24T08:57:03.000Z</time>
      </trkpt>
      <trkpt lat="46.50213" lon="0.36657">
        <ele>137.6</ele>
        <time>2021-01-24T08:57:04.000Z</time>
      </trkpt>
      <trkpt lat="46.50211" lon="0.36655">
        <ele>137.6</ele>
        <time>2021-01-24T08:57:05.000Z</time>
      </trkpt>
      <trkpt lat="46.50209" lon="0.36653">
        <ele>137.6</ele>
        <time>2021-01-24T08:57:06.000Z</time>
      </trkpt>
      <trkpt lat="46.50206" lon="0.36651">
        <ele>137.6</ele>
        <time>2021-01-24T08:57:07.000Z</time>
      </trkpt>
      <trkpt lat="46.50203" lon="0.36648">
        <ele>137.6</ele>
        <time>2021-01-24T08:57:08.000Z</time>
      </trkpt>
      <trkpt lat="46.50201" lon="0.36643">
        <ele>137.6</ele>
        <time>2021-01-24T08:57:09.000Z</time>
      </trkpt>
      <trkpt lat="46.50199" lon="0.3664">
        <ele>137.6</ele>
        <time>2021-01-24T08:57:10.000Z</time>
      </trkpt>
      <trkpt lat="46.50196" lon="0.36637">
        <ele>137.8</ele>
        <time>2021-01-24T08:57:11.000Z</time>
      </trkpt>
      <trkpt lat="46.50193" lon="0.36634">
        <ele>137.8</ele>
        <time>2021-01-24T08:57:12.000Z</time>
      </trkpt>
      <trkpt lat="46.5019" lon="0.36632">
        <ele>137.8</ele>
        <time>2021-01-24T08:57:13.000Z</time>
      </trkpt>
      <trkpt lat="46.50188" lon="0.3663">
        <ele>137.8</ele>
        <time>2021-01-24T08:57:14.000Z</time>
      </trkpt>
      <trkpt lat="46.50186" lon="0.36626">
        <ele>138</ele>
        <time>2021-01-24T08:57:15.000Z</time>
      </trkpt>
      <trkpt lat="46.50183" lon="0.36623">
        <ele>138</ele>
        <time>2021-01-24T08:57:16.000Z</time>
      </trkpt>
      <trkpt lat="46.50181" lon="0.36621">
        <ele>138</ele>
        <time>2021-01-24T08:57:17.000Z</time>
      </trkpt>
      <trkpt lat="46.50176" lon="0.3662">
        <ele>138</ele>
        <time>2021-01-24T08:57:18.000Z</time>
      </trkpt>
      <trkpt lat="46.50173" lon="0.36619">
        <ele>138.2</ele>
        <time>2021-01-24T08:57:19.000Z</time>
      </trkpt>
      <trkpt lat="46.5017" lon="0.36618">
        <ele>138.2</ele>
        <time>2021-01-24T08:57:20.000Z</time>
      </trkpt>
      <trkpt lat="46.50167" lon="0.36617">
        <ele>138.2</ele>
        <time>2021-01-24T08:57:21.000Z</time>
      </trkpt>
      <trkpt lat="46.50165" lon="0.36616">
        <ele>138.4</ele>
        <time>2021-01-24T08:57:22.000Z</time>
      </trkpt>
      <trkpt lat="46.50162" lon="0.36616">
        <ele>138.4</ele>
        <time>2021-01-24T08:57:23.000Z</time>
      </trkpt>
      <trkpt lat="46.50159" lon="0.36614">
        <ele>138.4</ele>
        <time>2021-01-24T08:57:24.000Z</time>
      </trkpt>
      <trkpt lat="46.50157" lon="0.36612">
        <ele>138.4</ele>
        <time>2021-01-24T08:57:25.000Z</time>
      </trkpt>
      <trkpt lat="46.50153" lon="0.3661">
        <ele>138.4</ele>
        <time>2021-01-24T08:57:26.000Z</time>
      </trkpt>
      <trkpt lat="46.50151" lon="0.36609">
        <ele>138.4</ele>
        <time>2021-01-24T08:57:27.000Z</time>
      </trkpt>
      <trkpt lat="46.50149" lon="0.36607">
        <ele>138.4</ele>
        <time>2021-01-24T08:57:28.000Z</time>
      </trkpt>
      <trkpt lat="46.50146" lon="0.36604">
        <ele>138.4</ele>
        <time>2021-01-24T08:57:29.000Z</time>
      </trkpt>
      <trkpt lat="46.50145" lon="0.366">
        <ele>138.4</ele>
        <time>2021-01-24T08:57:30.000Z</time>
      </trkpt>
      <trkpt lat="46.50142" lon="0.36597">
        <ele>138.4</ele>
        <time>2021-01-24T08:57:31.000Z</time>
      </trkpt>
      <trkpt lat="46.5014" lon="0.36594">
        <ele>138.4</ele>
        <time>2021-01-24T08:57:32.000Z</time>
      </trkpt>
      <trkpt lat="46.50138" lon="0.3659">
        <ele>138.4</ele>
        <time>2021-01-24T08:57:33.000Z</time>
      </trkpt>
      <trkpt lat="46.50135" lon="0.36586">
        <ele>138.4</ele>
        <time>2021-01-24T08:57:34.000Z</time>
      </trkpt>
      <trkpt lat="46.50132" lon="0.36584">
        <ele>138.2</ele>
        <time>2021-01-24T08:57:35.000Z</time>
      </trkpt>
      <trkpt lat="46.50128" lon="0.36582">
        <ele>138.2</ele>
        <time>2021-01-24T08:57:36.000Z</time>
      </trkpt>
      <trkpt lat="46.50123" lon="0.36578">
        <ele>138.2</ele>
        <time>2021-01-24T08:57:37.000Z</time>
      </trkpt>
      <trkpt lat="46.50118" lon="0.36576">
        <ele>138.2</ele>
        <time>2021-01-24T08:57:38.000Z</time>
      </trkpt>
      <trkpt lat="46.50115" lon="0.36575">
        <ele>138</ele>
        <time>2021-01-24T08:57:39.000Z</time>
      </trkpt>
      <trkpt lat="46.50112" lon="0.36574">
        <ele>138</ele>
        <time>2021-01-24T08:57:40.000Z</time>
      </trkpt>
      <trkpt lat="46.50112" lon="0.36574">
        <ele>138</ele>
        <time>2021-01-24T08:57:41.000Z</time>
      </trkpt>
      <trkpt lat="46.50112" lon="0.36574">
        <ele>137.8</ele>
        <time>2021-01-24T08:57:42.000Z</time>
      </trkpt>
      <trkpt lat="46.50112" lon="0.36574">
        <ele>137.8</ele>
        <time>2021-01-24T08:57:43.000Z</time>
      </trkpt>
      <trkpt lat="46.50112" lon="0.36574">
        <ele>137.8</ele>
        <time>2021-01-24T08:57:44.000Z</time>
      </trkpt>
      <trkpt lat="46.50112" lon="0.36574">
        <ele>137.8</ele>
        <time>2021-01-24T08:57:45.000Z</time>
      </trkpt>
      <trkpt lat="46.50112" lon="0.36574">
        <ele>137.8</ele>
        <time>2021-01-24T08:57:46.000Z</time>
      </trkpt>
      <trkpt lat="46.50114" lon="0.36571">
        <ele>137.8</ele>
        <time>2021-01-24T08:57:47.000Z</time>
      </trkpt>
      <trkpt lat="46.50114" lon="0.36571">
        <ele>137.6</ele>
        <time>2021-01-24T08:57:48.000Z</time>
      </trkpt>
      <trkpt lat="46.50117" lon="0.3657">
        <ele>137.6</ele>
        <time>2021-01-24T08:57:49.000Z</time>
      </trkpt>
      <trkpt lat="46.50117" lon="0.3657">
        <ele>137.6</ele>
        <time>2021-01-24T08:57:50.000Z</time>
      </trkpt>
      <trkpt lat="46.50118" lon="0.36567">
        <ele>137.6</ele>
        <time>2021-01-24T08:57:51.000Z</time>
      </trkpt>
      <trkpt lat="46.50118" lon="0.36567">
        <ele>137.6</ele>
        <time>2021-01-24T08:57:52.000Z</time>
      </trkpt>
      <trkpt lat="46.50117" lon="0.36565">
        <ele>137.6</ele>
        <time>2021-01-24T08:57:53.000Z</time>
      </trkpt>
      <trkpt lat="46.50117" lon="0.36565">
        <ele>137.4</ele>
        <time>2021-01-24T08:57:54.000Z</time>
      </trkpt>
      <trkpt lat="46.50117" lon="0.36565">
        <ele>137.4</ele>
        <time>2021-01-24T08:57:55.000Z</time>
      </trkpt>
      <trkpt lat="46.50115" lon="0.36564">
        <ele>137.4</ele>
        <time>2021-01-24T08:57:56.000Z</time>
      </trkpt>
      <trkpt lat="46.50115" lon="0.36564">
        <ele>137.4</ele>
        <time>2021-01-24T08:57:57.000Z</time>
      </trkpt>
      <trkpt lat="46.50113" lon="0.36562">
        <ele>137.2</ele>
        <time>2021-01-24T08:57:58.000Z</time>
      </trkpt>
      <trkpt lat="46.50113" lon="0.36562">
        <ele>137.2</ele>
        <time>2021-01-24T08:57:59.000Z</time>
      </trkpt>
      <trkpt lat="46.50111" lon="0.36559">
        <ele>137.2</ele>
        <time>2021-01-24T08:58:00.000Z</time>
      </trkpt>
      <trkpt lat="46.50111" lon="0.36559">
        <ele>137.2</ele>
        <time>2021-01-24T08:58:01.000Z</time>
      </trkpt>
      <trkpt lat="46.50109" lon="0.36558">
        <ele>137.2</ele>
        <time>2021-01-24T08:58:02.000Z</time>
      </trkpt>
      <trkpt lat="46.50109" lon="0.36558">
        <ele>137</ele>
        <time>2021-01-24T08:58:03.000Z</time>
      </trkpt>
      <trkpt lat="46.50109" lon="0.36558">
        <ele>137</ele>
        <time>2021-01-24T08:58:04.000Z</time>
      </trkpt>
      <trkpt lat="46.50109" lon="0.36558">
        <ele>137</ele>
        <time>2021-01-24T08:58:05.000Z</time>
      </trkpt>
      <trkpt lat="46.50109" lon="0.36558">
        <ele>137</ele>
        <time>2021-01-24T08:58:06.000Z</time>
      </trkpt>
      <trkpt lat="46.50109" lon="0.36558">
        <ele>137</ele>
        <time>2021-01-24T08:58:07.000Z</time>
      </trkpt>
      <trkpt lat="46.50109" lon="0.36558">
        <ele>137</ele>
        <time>2021-01-24T08:58:08.000Z</time>
      </trkpt>
      <trkpt lat="46.50109" lon="0.36558">
        <ele>137</ele>
        <time>2021-01-24T08:58:09.000Z</time>
      </trkpt>
      <trkpt lat="46.50109" lon="0.36558">
        <ele>137</ele>
        <time>2021-01-24T08:58:10.000Z</time>
      </trkpt>
      <trkpt lat="46.50109" lon="0.36558">
        <ele>137</ele>
        <time>2021-01-24T08:58:11.000Z</time>
      </trkpt>
      <trkpt lat="46.50108" lon="0.36557">
        <ele>136.8</ele>
        <time>2021-01-24T08:58:12.000Z</time>
      </trkpt>
      <trkpt lat="46.50108" lon="0.36557">
        <ele>136.8</ele>
        <time>2021-01-24T08:58:13.000Z</time>
      </trkpt>
      <trkpt lat="46.50106" lon="0.36554">
        <ele>136.8</ele>
        <time>2021-01-24T08:58:14.000Z</time>
      </trkpt>
      <trkpt lat="46.50106" lon="0.36554">
        <ele>136.8</ele>
        <time>2021-01-24T08:58:15.000Z</time>
      </trkpt>
      <trkpt lat="46.50104" lon="0.36551">
        <ele>136.8</ele>
        <time>2021-01-24T08:58:16.000Z</time>
      </trkpt>
      <trkpt lat="46.50104" lon="0.36551">
        <ele>136.6</ele>
        <time>2021-01-24T08:58:17.000Z</time>
      </trkpt>
      <trkpt lat="46.50104" lon="0.36551">
        <ele>136.8</ele>
        <time>2021-01-24T08:58:18.000Z</time>
      </trkpt>
      <trkpt lat="46.50102" lon="0.3655">
        <ele>136.8</ele>
        <time>2021-01-24T08:58:19.000Z</time>
      </trkpt>
      <trkpt lat="46.50102" lon="0.3655">
        <ele>136.8</ele>
        <time>2021-01-24T08:58:20.000Z</time>
      </trkpt>
      <trkpt lat="46.50102" lon="0.3655">
        <ele>136.8</ele>
        <time>2021-01-24T08:58:21.000Z</time>
      </trkpt>
      <trkpt lat="46.50102" lon="0.3655">
        <ele>136.8</ele>
        <time>2021-01-24T08:58:22.000Z</time>
      </trkpt>
      <trkpt lat="46.50102" lon="0.3655">
        <ele>136.8</ele>
        <time>2021-01-24T08:58:23.000Z</time>
      </trkpt>
      <trkpt lat="46.50102" lon="0.3655">
        <ele>136.8</ele>
        <time>2021-01-24T08:58:24.000Z</time>
      </trkpt>
      <trkpt lat="46.50102" lon="0.3655">
        <ele>136.8</ele>
        <time>2021-01-24T08:58:25.000Z</time>
      </trkpt>
      <trkpt lat="46.50102" lon="0.3655">
        <ele>136.8</ele>
        <time>2021-01-24T08:58:26.000Z</time>
      </trkpt>
      <trkpt lat="46.50102" lon="0.3655">
        <ele>136.8</ele>
        <time>2021-01-24T08:58:27.000Z</time>
      </trkpt>
      <trkpt lat="46.50102" lon="0.3655">
        <ele>136.6</ele>
        <time>2021-01-24T08:58:28.000Z</time>
      </trkpt>
      <trkpt lat="46.50102" lon="0.3655">
        <ele>136.6</ele>
        <time>2021-01-24T08:58:29.000Z</time>
      </trkpt>
      <trkpt lat="46.50102" lon="0.3655">
        <ele>136.6</ele>
        <time>2021-01-24T08:58:30.000Z</time>
      </trkpt>
      <trkpt lat="46.50102" lon="0.3655">
        <ele>136.6</ele>
        <time>2021-01-24T08:58:31.000Z</time>
      </trkpt>
      <trkpt lat="46.50102" lon="0.3655">
        <ele>136.6</ele>
        <time>2021-01-24T08:58:32.000Z</time>
      </trkpt>
      <trkpt lat="46.50102" lon="0.3655">
        <ele>136.6</ele>
        <time>2021-01-24T08:58:33.000Z</time>
      </trkpt>
      <trkpt lat="46.50102" lon="0.3655">
        <ele>136.6</ele>
        <time>2021-01-24T08:58:34.000Z</time>
      </trkpt>
      <trkpt lat="46.50102" lon="0.3655">
        <ele>136.6</ele>
        <time>2021-01-24T08:58:35.000Z</time>
      </trkpt>
      <trkpt lat="46.50102" lon="0.3655">
        <ele>136.6</ele>
        <time>2021-01-24T08:58:36.000Z</time>
      </trkpt>
      <trkpt lat="46.50102" lon="0.3655">
        <ele>136.6</ele>
        <time>2021-01-24T08:58:37.000Z</time>
      </trkpt>
      <trkpt lat="46.50102" lon="0.3655">
        <ele>136.6</ele>
        <time>2021-01-24T08:58:38.000Z</time>
      </trkpt>
      <trkpt lat="46.50102" lon="0.3655">
        <ele>136.6</ele>
        <time>2021-01-24T08:58:39.000Z</time>
      </trkpt>
      <trkpt lat="46.50102" lon="0.3655">
        <ele>136.6</ele>
        <time>2021-01-24T08:58:40.000Z</time>
      </trkpt>
      <trkpt lat="46.50102" lon="0.3655">
        <ele>136.6</ele>
        <time>2021-01-24T08:58:41.000Z</time>
      </trkpt>
      <trkpt lat="46.50102" lon="0.3655">
        <ele>136.6</ele>
        <time>2021-01-24T08:58:42.000Z</time>
      </trkpt>
      <trkpt lat="46.50102" lon="0.3655">
        <ele>136.6</ele>
        <time>2021-01-24T08:58:43.000Z</time>
      </trkpt>
      <trkpt lat="46.50102" lon="0.3655">
        <ele>136.6</ele>
        <time>2021-01-24T08:58:44.000Z</time>
      </trkpt>
      <trkpt lat="46.50102" lon="0.3655">
        <ele>136.8</ele>
        <time>2021-01-24T08:58:45.000Z</time>
      </trkpt>
      <trkpt lat="46.50102" lon="0.3655">
        <ele>136.8</ele>
        <time>2021-01-24T08:58:46.000Z</time>
      </trkpt>
      <trkpt lat="46.50102" lon="0.3655">
        <ele>136.8</ele>
        <time>2021-01-24T08:58:47.000Z</time>
      </trkpt>
      <trkpt lat="46.50102" lon="0.3655">
        <ele>136.8</ele>
        <time>2021-01-24T08:58:48.000Z</time>
      </trkpt>
      <trkpt lat="46.50102" lon="0.3655">
        <ele>136.8</ele>
        <time>2021-01-24T08:58:49.000Z</time>
      </trkpt>
      <trkpt lat="46.50102" lon="0.3655">
        <ele>136.8</ele>
        <time>2021-01-24T08:58:50.000Z</time>
      </trkpt>
      <trkpt lat="46.50102" lon="0.3655">
        <ele>136.8</ele>
        <time>2021-01-24T08:58:51.000Z</time>
      </trkpt>
      <trkpt lat="46.50102" lon="0.3655">
        <ele>136.8</ele>
        <time>2021-01-24T08:58:52.000Z</time>
      </trkpt>
      <trkpt lat="46.50102" lon="0.3655">
        <ele>136.8</ele>
        <time>2021-01-24T08:58:53.000Z</time>
      </trkpt>
      <trkpt lat="46.50102" lon="0.3655">
        <ele>136.8</ele>
        <time>2021-01-24T08:58:54.000Z</time>
      </trkpt>
      <trkpt lat="46.50102" lon="0.3655">
        <ele>136.8</ele>
        <time>2021-01-24T08:58:55.000Z</time>
      </trkpt>
      <trkpt lat="46.50102" lon="0.3655">
        <ele>136.8</ele>
        <time>2021-01-24T08:58:56.000Z</time>
      </trkpt>
      <trkpt lat="46.50102" lon="0.3655">
        <ele>136.8</ele>
        <time>2021-01-24T08:58:57.000Z</time>
      </trkpt>
      <trkpt lat="46.50102" lon="0.3655">
        <ele>136.8</ele>
        <time>2021-01-24T08:58:58.000Z</time>
      </trkpt>
      <trkpt lat="46.50102" lon="0.3655">
        <ele>136.8</ele>
        <time>2021-01-24T08:58:59.000Z</time>
      </trkpt>
      <trkpt lat="46.50102" lon="0.3655">
        <ele>136.8</ele>
        <time>2021-01-24T08:59:00.000Z</time>
      </trkpt>
      <trkpt lat="46.50102" lon="0.3655">
        <ele>136.8</ele>
        <time>2021-01-24T08:59:01.000Z</time>
      </trkpt>
      <trkpt lat="46.50102" lon="0.3655">
        <ele>136.8</ele>
        <time>2021-01-24T08:59:02.000Z</time>
      </trkpt>
      <trkpt lat="46.50102" lon="0.3655">
        <ele>136.8</ele>
        <time>2021-01-24T08:59:03.000Z</time>
      </trkpt>
      <trkpt lat="46.50102" lon="0.3655">
        <ele>136.8</ele>
        <time>2021-01-24T08:59:04.000Z</time>
      </trkpt>
      <trkpt lat="46.50102" lon="0.3655">
        <ele>136.8</ele>
        <time>2021-01-24T08:59:05.000Z</time>
      </trkpt>
      <trkpt lat="46.50102" lon="0.3655">
        <ele>136.8</ele>
        <time>2021-01-24T08:59:07.000Z</time>
      </trkpt>
      <trkpt lat="46.50102" lon="0.3655">
        <ele>136.8</ele>
        <time>2021-01-24T08:59:08.000Z</time>
      </trkpt>
      <trkpt lat="46.50102" lon="0.3655">
        <ele>136.8</ele>
        <time>2021-01-24T08:59:09.000Z</time>
      </trkpt>
      <trkpt lat="46.50102" lon="0.3655">
        <ele>136.8</ele>
        <time>2021-01-24T08:59:10.000Z</time>
      </trkpt>
      <trkpt lat="46.50102" lon="0.3655">
        <ele>136.8</ele>
        <time>2021-01-24T08:59:11.000Z</time>
      </trkpt>
      <trkpt lat="46.50102" lon="0.3655">
        <ele>136.8</ele>
        <time>2021-01-24T08:59:12.000Z</time>
      </trkpt>
      <trkpt lat="46.50102" lon="0.3655">
        <ele>136.8</ele>
        <time>2021-01-24T08:59:13.000Z</time>
      </trkpt>
      <trkpt lat="46.50102" lon="0.3655">
        <ele>136.8</ele>
        <time>2021-01-24T08:59:14.000Z</time>
      </trkpt>
      <trkpt lat="46.50102" lon="0.3655">
        <ele>136.8</ele>
        <time>2021-01-24T08:59:15.000Z</time>
      </trkpt>
      <trkpt lat="46.50102" lon="0.3655">
        <ele>136.8</ele>
        <time>2021-01-24T08:59:16.000Z</time>
      </trkpt>
      <trkpt lat="46.50102" lon="0.3655">
        <ele>136.8</ele>
        <time>2021-01-24T08:59:17.000Z</time>
      </trkpt>
      <trkpt lat="46.50102" lon="0.3655">
        <ele>136.8</ele>
        <time>2021-01-24T08:59:18.000Z</time>
      </trkpt>
      <trkpt lat="46.50102" lon="0.3655">
        <ele>136.8</ele>
        <time>2021-01-24T08:59:19.000Z</time>
      </trkpt>
      <trkpt lat="46.50102" lon="0.3655">
        <ele>136.8</ele>
        <time>2021-01-24T08:59:20.000Z</time>
      </trkpt>
      <trkpt lat="46.50102" lon="0.3655">
        <ele>136.8</ele>
        <time>2021-01-24T08:59:21.000Z</time>
      </trkpt>
      <trkpt lat="46.50102" lon="0.3655">
        <ele>136.8</ele>
        <time>2021-01-24T08:59:22.000Z</time>
      </trkpt>
      <trkpt lat="46.50102" lon="0.3655">
        <ele>136.8</ele>
        <time>2021-01-24T08:59:23.000Z</time>
      </trkpt>
      <trkpt lat="46.50102" lon="0.3655">
        <ele>136.8</ele>
        <time>2021-01-24T08:59:24.000Z</time>
      </trkpt>
      <trkpt lat="46.50102" lon="0.3655">
        <ele>136.8</ele>
        <time>2021-01-24T08:59:25.000Z</time>
      </trkpt>
      <trkpt lat="46.50102" lon="0.3655">
        <ele>136.8</ele>
        <time>2021-01-24T08:59:26.000Z</time>
      </trkpt>
      <trkpt lat="46.50102" lon="0.3655">
        <ele>136.8</ele>
        <time>2021-01-24T08:59:27.000Z</time>
      </trkpt>
      <trkpt lat="46.50102" lon="0.3655">
        <ele>136.8</ele>
        <time>2021-01-24T08:59:28.000Z</time>
      </trkpt>
      <trkpt lat="46.50102" lon="0.3655">
        <ele>136.8</ele>
        <time>2021-01-24T08:59:29.000Z</time>
      </trkpt>
      <trkpt lat="46.50102" lon="0.3655">
        <ele>136.8</ele>
        <time>2021-01-24T08:59:30.000Z</time>
      </trkpt>
      <trkpt lat="46.50102" lon="0.3655">
        <ele>136.8</ele>
        <time>2021-01-24T08:59:31.000Z</time>
      </trkpt>
      <trkpt lat="46.50102" lon="0.3655">
        <ele>136.8</ele>
        <time>2021-01-24T08:59:32.000Z</time>
      </trkpt>
      <trkpt lat="46.50102" lon="0.3655">
        <ele>136.8</ele>
        <time>2021-01-24T08:59:33.000Z</time>
      </trkpt>
      <trkpt lat="46.50102" lon="0.3655">
        <ele>136.8</ele>
        <time>2021-01-24T08:59:34.000Z</time>
      </trkpt>
      <trkpt lat="46.50102" lon="0.3655">
        <ele>136.8</ele>
        <time>2021-01-24T08:59:35.000Z</time>
      </trkpt>
      <trkpt lat="46.50102" lon="0.3655">
        <ele>136.8</ele>
        <time>2021-01-24T08:59:36.000Z</time>
      </trkpt>
      <trkpt lat="46.50102" lon="0.3655">
        <ele>136.6</ele>
        <time>2021-01-24T08:59:37.000Z</time>
      </trkpt>
      <trkpt lat="46.50102" lon="0.3655">
        <ele>136.6</ele>
        <time>2021-01-24T08:59:38.000Z</time>
      </trkpt>
      <trkpt lat="46.50102" lon="0.3655">
        <ele>136.6</ele>
        <time>2021-01-24T08:59:40.000Z</time>
      </trkpt>
      <trkpt lat="46.50102" lon="0.3655">
        <ele>136.6</ele>
        <time>2021-01-24T08:59:41.000Z</time>
      </trkpt>
      <trkpt lat="46.50102" lon="0.3655">
        <ele>136.6</ele>
        <time>2021-01-24T08:59:42.000Z</time>
      </trkpt>
      <trkpt lat="46.50102" lon="0.3655">
        <ele>136.6</ele>
        <time>2021-01-24T08:59:43.000Z</time>
      </trkpt>
      <trkpt lat="46.50102" lon="0.3655">
        <ele>136.6</ele>
        <time>2021-01-24T08:59:44.000Z</time>
      </trkpt>
      <trkpt lat="46.50102" lon="0.3655">
        <ele>136.6</ele>
        <time>2021-01-24T08:59:45.000Z</time>
      </trkpt>
      <trkpt lat="46.50102" lon="0.3655">
        <ele>136.6</ele>
        <time>2021-01-24T08:59:46.000Z</time>
      </trkpt>
      <trkpt lat="46.50102" lon="0.3655">
        <ele>136.6</ele>
        <time>2021-01-24T08:59:47.000Z</time>
      </trkpt>
      <trkpt lat="46.50102" lon="0.3655">
        <ele>136.6</ele>
        <time>2021-01-24T08:59:48.000Z</time>
      </trkpt>
      <trkpt lat="46.50102" lon="0.3655">
        <ele>136.6</ele>
        <time>2021-01-24T08:59:49.000Z</time>
      </trkpt>
      <trkpt lat="46.50102" lon="0.3655">
        <ele>136.6</ele>
        <time>2021-01-24T08:59:50.000Z</time>
      </trkpt>
      <trkpt lat="46.50102" lon="0.3655">
        <ele>136.6</ele>
        <time>2021-01-24T08:59:51.000Z</time>
      </trkpt>
      <trkpt lat="46.50102" lon="0.3655">
        <ele>136.6</ele>
        <time>2021-01-24T08:59:52.000Z</time>
      </trkpt>
      <trkpt lat="46.50102" lon="0.3655">
        <ele>136.6</ele>
        <time>2021-01-24T08:59:53.000Z</time>
      </trkpt>
      <trkpt lat="46.50102" lon="0.3655">
        <ele>136.6</ele>
        <time>2021-01-24T08:59:54.000Z</time>
      </trkpt>
      <trkpt lat="46.50102" lon="0.3655">
        <ele>136.6</ele>
        <time>2021-01-24T08:59:55.000Z</time>
      </trkpt>
      <trkpt lat="46.50102" lon="0.3655">
        <ele>136.6</ele>
        <time>2021-01-24T08:59:56.000Z</time>
      </trkpt>
      <trkpt lat="46.50102" lon="0.3655">
        <ele>136.6</ele>
        <time>2021-01-24T08:59:57.000Z</time>
      </trkpt>
      <trkpt lat="46.50102" lon="0.3655">
        <ele>136.6</ele>
        <time>2021-01-24T08:59:58.000Z</time>
      </trkpt>
      <trkpt lat="46.50102" lon="0.3655">
        <ele>136.6</ele>
        <time>2021-01-24T08:59:59.000Z</time>
      </trkpt>
      <trkpt lat="46.50102" lon="0.3655">
        <ele>136.6</ele>
        <time>2021-01-24T09:00:00.000Z</time>
      </trkpt>
      <trkpt lat="46.50102" lon="0.3655">
        <ele>136.6</ele>
        <time>2021-01-24T09:00:01.000Z</time>
      </trkpt>
      <trkpt lat="46.50102" lon="0.3655">
        <ele>136.6</ele>
        <time>2021-01-24T09:00:02.000Z</time>
      </trkpt>
      <trkpt lat="46.50102" lon="0.3655">
        <ele>136.6</ele>
        <time>2021-01-24T09:00:03.000Z</time>
      </trkpt>
      <trkpt lat="46.50102" lon="0.3655">
        <ele>136.6</ele>
        <time>2021-01-24T09:00:04.000Z</time>
      </trkpt>
      <trkpt lat="46.50102" lon="0.3655">
        <ele>136.6</ele>
        <time>2021-01-24T09:00:05.000Z</time>
      </trkpt>
      <trkpt lat="46.50102" lon="0.3655">
        <ele>136.6</ele>
        <time>2021-01-24T09:00:06.000Z</time>
      </trkpt>
      <trkpt lat="46.50102" lon="0.3655">
        <ele>136.6</ele>
        <time>2021-01-24T09:00:07.000Z</time>
      </trkpt>
      <trkpt lat="46.50102" lon="0.3655">
        <ele>136.6</ele>
        <time>2021-01-24T09:00:08.000Z</time>
      </trkpt>
      <trkpt lat="46.50102" lon="0.3655">
        <ele>136.6</ele>
        <time>2021-01-24T09:00:09.000Z</time>
      </trkpt>
      <trkpt lat="46.50102" lon="0.3655">
        <ele>136.6</ele>
        <time>2021-01-24T09:00:10.000Z</time>
      </trkpt>
      <trkpt lat="46.50102" lon="0.3655">
        <ele>136.6</ele>
        <time>2021-01-24T09:00:11.000Z</time>
      </trkpt>
      <trkpt lat="46.50102" lon="0.3655">
        <ele>136.6</ele>
        <time>2021-01-24T09:00:12.000Z</time>
      </trkpt>
      <trkpt lat="46.50102" lon="0.3655">
        <ele>136.6</ele>
        <time>2021-01-24T09:00:13.000Z</time>
      </trkpt>
      <trkpt lat="46.50102" lon="0.3655">
        <ele>136.6</ele>
        <time>2021-01-24T09:00:14.000Z</time>
      </trkpt>
      <trkpt lat="46.50102" lon="0.3655">
        <ele>136.6</ele>
        <time>2021-01-24T09:00:15.000Z</time>
      </trkpt>
      <trkpt lat="46.50102" lon="0.3655">
        <ele>136.6</ele>
        <time>2021-01-24T09:00:16.000Z</time>
      </trkpt>
      <trkpt lat="46.50102" lon="0.3655">
        <ele>136.6</ele>
        <time>2021-01-24T09:00:17.000Z</time>
      </trkpt>
      <trkpt lat="46.50102" lon="0.3655">
        <ele>136.6</ele>
        <time>2021-01-24T09:00:18.000Z</time>
      </trkpt>
      <trkpt lat="46.50102" lon="0.3655">
        <ele>136.6</ele>
        <time>2021-01-24T09:00:19.000Z</time>
      </trkpt>
      <trkpt lat="46.50102" lon="0.3655">
        <ele>136.6</ele>
        <time>2021-01-24T09:00:20.000Z</time>
      </trkpt>
      <trkpt lat="46.50102" lon="0.3655">
        <ele>136.6</ele>
        <time>2021-01-24T09:00:21.000Z</time>
      </trkpt>
      <trkpt lat="46.50102" lon="0.3655">
        <ele>136.6</ele>
        <time>2021-01-24T09:00:22.000Z</time>
      </trkpt>
      <trkpt lat="46.50102" lon="0.3655">
        <ele>136.6</ele>
        <time>2021-01-24T09:00:23.000Z</time>
      </trkpt>
      <trkpt lat="46.50102" lon="0.3655">
        <ele>136.6</ele>
        <time>2021-01-24T09:00:24.000Z</time>
      </trkpt>
      <trkpt lat="46.50102" lon="0.3655">
        <ele>136.6</ele>
        <time>2021-01-24T09:00:25.000Z</time>
      </trkpt>
      <trkpt lat="46.50102" lon="0.3655">
        <ele>136.6</ele>
        <time>2021-01-24T09:00:26.000Z</time>
      </trkpt>
      <trkpt lat="46.50102" lon="0.3655">
        <ele>136.6</ele>
        <time>2021-01-24T09:00:27.000Z</time>
      </trkpt>
      <trkpt lat="46.50102" lon="0.3655">
        <ele>136.6</ele>
        <time>2021-01-24T09:00:28.000Z</time>
      </trkpt>
      <trkpt lat="46.50102" lon="0.3655">
        <ele>136.6</ele>
        <time>2021-01-24T09:00:29.000Z</time>
      </trkpt>
      <trkpt lat="46.50102" lon="0.3655">
        <ele>136.6</ele>
        <time>2021-01-24T09:00:30.000Z</time>
      </trkpt>
      <trkpt lat="46.50102" lon="0.3655">
        <ele>136.6</ele>
        <time>2021-01-24T09:00:31.000Z</time>
      </trkpt>
      <trkpt lat="46.50102" lon="0.3655">
        <ele>136.6</ele>
        <time>2021-01-24T09:00:32.000Z</time>
      </trkpt>
      <trkpt lat="46.50102" lon="0.3655">
        <ele>136.6</ele>
        <time>2021-01-24T09:00:33.000Z</time>
      </trkpt>
      <trkpt lat="46.50102" lon="0.3655">
        <ele>136.6</ele>
        <time>2021-01-24T09:00:34.000Z</time>
      </trkpt>
      <trkpt lat="46.50102" lon="0.3655">
        <ele>136.6</ele>
        <time>2021-01-24T09:00:35.000Z</time>
      </trkpt>
      <trkpt lat="46.50102" lon="0.3655">
        <ele>136.6</ele>
        <time>2021-01-24T09:00:36.000Z</time>
      </trkpt>
      <trkpt lat="46.50102" lon="0.3655">
        <ele>136.6</ele>
        <time>2021-01-24T09:00:37.000Z</time>
      </trkpt>
      <trkpt lat="46.50102" lon="0.3655">
        <ele>136.6</ele>
        <time>2021-01-24T09:00:38.000Z</time>
      </trkpt>
      <trkpt lat="46.50102" lon="0.3655">
        <ele>136.6</ele>
        <time>2021-01-24T09:00:39.000Z</time>
      </trkpt>
      <trkpt lat="46.50102" lon="0.3655">
        <ele>136.6</ele>
        <time>2021-01-24T09:00:40.000Z</time>
      </trkpt>
      <trkpt lat="46.50102" lon="0.3655">
        <ele>136.6</ele>
        <time>2021-01-24T09:00:41.000Z</time>
      </trkpt>
      <trkpt lat="46.50102" lon="0.3655">
        <ele>136.6</ele>
        <time>2021-01-24T09:00:42.000Z</time>
      </trkpt>
      <trkpt lat="46.50102" lon="0.3655">
        <ele>136.6</ele>
        <time>2021-01-24T09:00:43.000Z</time>
      </trkpt>
      <trkpt lat="46.50102" lon="0.3655">
        <ele>136.6</ele>
        <time>2021-01-24T09:00:44.000Z</time>
      </trkpt>
      <trkpt lat="46.50102" lon="0.3655">
        <ele>136.6</ele>
        <time>2021-01-24T09:00:45.000Z</time>
      </trkpt>
      <trkpt lat="46.50102" lon="0.3655">
        <ele>136.6</ele>
        <time>2021-01-24T09:00:46.000Z</time>
      </trkpt>
      <trkpt lat="46.50102" lon="0.3655">
        <ele>136.6</ele>
        <time>2021-01-24T09:00:47.000Z</time>
      </trkpt>
      <trkpt lat="46.50102" lon="0.3655">
        <ele>136.6</ele>
        <time>2021-01-24T09:00:48.000Z</time>
      </trkpt>
      <trkpt lat="46.50102" lon="0.3655">
        <ele>136.6</ele>
        <time>2021-01-24T09:00:49.000Z</time>
      </trkpt>
      <trkpt lat="46.50102" lon="0.3655">
        <ele>136.6</ele>
        <time>2021-01-24T09:00:50.000Z</time>
      </trkpt>
      <trkpt lat="46.50102" lon="0.3655">
        <ele>136.6</ele>
        <time>2021-01-24T09:00:51.000Z</time>
      </trkpt>
      <trkpt lat="46.50102" lon="0.3655">
        <ele>136.6</ele>
        <time>2021-01-24T09:00:52.000Z</time>
      </trkpt>
      <trkpt lat="46.50102" lon="0.3655">
        <ele>136.6</ele>
        <time>2021-01-24T09:00:53.000Z</time>
      </trkpt>
      <trkpt lat="46.50102" lon="0.3655">
        <ele>136.6</ele>
        <time>2021-01-24T09:00:54.000Z</time>
      </trkpt>
      <trkpt lat="46.50102" lon="0.3655">
        <ele>136.6</ele>
        <time>2021-01-24T09:00:55.000Z</time>
      </trkpt>
      <trkpt lat="46.50102" lon="0.3655">
        <ele>136.6</ele>
        <time>2021-01-24T09:00:56.000Z</time>
      </trkpt>
      <trkpt lat="46.50102" lon="0.3655">
        <ele>136.6</ele>
        <time>2021-01-24T09:00:57.000Z</time>
      </trkpt>
      <trkpt lat="46.50102" lon="0.3655">
        <ele>136.6</ele>
        <time>2021-01-24T09:00:58.000Z</time>
      </trkpt>
      <trkpt lat="46.50102" lon="0.3655">
        <ele>136.6</ele>
        <time>2021-01-24T09:00:59.000Z</time>
      </trkpt>
      <trkpt lat="46.50102" lon="0.3655">
        <ele>136.6</ele>
        <time>2021-01-24T09:01:00.000Z</time>
      </trkpt>
      <trkpt lat="46.50102" lon="0.3655">
        <ele>136.6</ele>
        <time>2021-01-24T09:01:01.000Z</time>
      </trkpt>
      <trkpt lat="46.50102" lon="0.3655">
        <ele>136.6</ele>
        <time>2021-01-24T09:01:02.000Z</time>
      </trkpt>
      <trkpt lat="46.50102" lon="0.3655">
        <ele>136.6</ele>
        <time>2021-01-24T09:01:03.000Z</time>
      </trkpt>
      <trkpt lat="46.50102" lon="0.3655">
        <ele>136.6</ele>
        <time>2021-01-24T09:01:04.000Z</time>
      </trkpt>
      <trkpt lat="46.50102" lon="0.3655">
        <ele>136.6</ele>
        <time>2021-01-24T09:01:05.000Z</time>
      </trkpt>
      <trkpt lat="46.50102" lon="0.3655">
        <ele>136.6</ele>
        <time>2021-01-24T09:01:06.000Z</time>
      </trkpt>
      <trkpt lat="46.50102" lon="0.3655">
        <ele>136.6</ele>
        <time>2021-01-24T09:01:07.000Z</time>
      </trkpt>
      <trkpt lat="46.50102" lon="0.3655">
        <ele>136.6</ele>
        <time>2021-01-24T09:01:08.000Z</time>
      </trkpt>
      <trkpt lat="46.50102" lon="0.3655">
        <ele>136.8</ele>
        <time>2021-01-24T09:01:09.000Z</time>
      </trkpt>
      <trkpt lat="46.50102" lon="0.3655">
        <ele>136.8</ele>
        <time>2021-01-24T09:01:10.000Z</time>
      </trkpt>
      <trkpt lat="46.50102" lon="0.3655">
        <ele>136.8</ele>
        <time>2021-01-24T09:01:11.000Z</time>
      </trkpt>
      <trkpt lat="46.50102" lon="0.3655">
        <ele>136.8</ele>
        <time>2021-01-24T09:01:12.000Z</time>
      </trkpt>
      <trkpt lat="46.50105" lon="0.36546">
        <ele>136.8</ele>
        <time>2021-01-24T09:01:13.000Z</time>
      </trkpt>
      <trkpt lat="46.50105" lon="0.36546">
        <ele>136.8</ele>
        <time>2021-01-24T09:01:14.000Z</time>
      </trkpt>
      <trkpt lat="46.50106" lon="0.36543">
        <ele>136.8</ele>
        <time>2021-01-24T09:01:15.000Z</time>
      </trkpt>
      <trkpt lat="46.50106" lon="0.36543">
        <ele>136.8</ele>
        <time>2021-01-24T09:01:16.000Z</time>
      </trkpt>
      <trkpt lat="46.50107" lon="0.36541">
        <ele>136.8</ele>
        <time>2021-01-24T09:01:17.000Z</time>
      </trkpt>
      <trkpt lat="46.50107" lon="0.36541">
        <ele>136.8</ele>
        <time>2021-01-24T09:01:18.000Z</time>
      </trkpt>
      <trkpt lat="46.50107" lon="0.36541">
        <ele>136.8</ele>
        <time>2021-01-24T09:01:19.000Z</time>
      </trkpt>
      <trkpt lat="46.50107" lon="0.36541">
        <ele>136.8</ele>
        <time>2021-01-24T09:01:20.000Z</time>
      </trkpt>
      <trkpt lat="46.50107" lon="0.36541">
        <ele>136.8</ele>
        <time>2021-01-24T09:01:21.000Z</time>
      </trkpt>
      <trkpt lat="46.50107" lon="0.36541">
        <ele>136.8</ele>
        <time>2021-01-24T09:01:22.000Z</time>
      </trkpt>
      <trkpt lat="46.50107" lon="0.36541">
        <ele>136.8</ele>
        <time>2021-01-24T09:01:23.000Z</time>
      </trkpt>
      <trkpt lat="46.50107" lon="0.36541">
        <ele>136.8</ele>
        <time>2021-01-24T09:01:24.000Z</time>
      </trkpt>
      <trkpt lat="46.50107" lon="0.36541">
        <ele>136.6</ele>
        <time>2021-01-24T09:01:25.000Z</time>
      </trkpt>
      <trkpt lat="46.50107" lon="0.36541">
        <ele>136.6</ele>
        <time>2021-01-24T09:01:26.000Z</time>
      </trkpt>
      <trkpt lat="46.50107" lon="0.36541">
        <ele>136.4</ele>
        <time>2021-01-24T09:01:27.000Z</time>
      </trkpt>
      <trkpt lat="46.50107" lon="0.36541">
        <ele>136.4</ele>
        <time>2021-01-24T09:01:28.000Z</time>
      </trkpt>
      <trkpt lat="46.50107" lon="0.36541">
        <ele>136.2</ele>
        <time>2021-01-24T09:01:29.000Z</time>
      </trkpt>
      <trkpt lat="46.50107" lon="0.36541">
        <ele>136.2</ele>
        <time>2021-01-24T09:01:30.000Z</time>
      </trkpt>
      <trkpt lat="46.50107" lon="0.36541">
        <ele>136.2</ele>
        <time>2021-01-24T09:01:31.000Z</time>
      </trkpt>
      <trkpt lat="46.50105" lon="0.36543">
        <ele>136.2</ele>
        <time>2021-01-24T09:01:32.000Z</time>
      </trkpt>
      <trkpt lat="46.50105" lon="0.36543">
        <ele>136.2</ele>
        <time>2021-01-24T09:01:33.000Z</time>
      </trkpt>
      <trkpt lat="46.50105" lon="0.36542">
        <ele>136.2</ele>
        <time>2021-01-24T09:01:34.000Z</time>
      </trkpt>
      <trkpt lat="46.50106" lon="0.36541">
        <ele>136.2</ele>
        <time>2021-01-24T09:01:35.000Z</time>
      </trkpt>
      <trkpt lat="46.50106" lon="0.36541">
        <ele>136.2</ele>
        <time>2021-01-24T09:01:36.000Z</time>
      </trkpt>
      <trkpt lat="46.50106" lon="0.3654">
        <ele>136.2</ele>
        <time>2021-01-24T09:01:37.000Z</time>
      </trkpt>
      <trkpt lat="46.50107" lon="0.36539">
        <ele>136.2</ele>
        <time>2021-01-24T09:01:38.000Z</time>
      </trkpt>
      <trkpt lat="46.50107" lon="0.36539">
        <ele>136.4</ele>
        <time>2021-01-24T09:01:39.000Z</time>
      </trkpt>
      <trkpt lat="46.50108" lon="0.36538">
        <ele>136.4</ele>
        <time>2021-01-24T09:01:40.000Z</time>
      </trkpt>
      <trkpt lat="46.50108" lon="0.36537">
        <ele>136.4</ele>
        <time>2021-01-24T09:01:41.000Z</time>
      </trkpt>
      <trkpt lat="46.50108" lon="0.36537">
        <ele>136.4</ele>
        <time>2021-01-24T09:01:42.000Z</time>
      </trkpt>
      <trkpt lat="46.50109" lon="0.36536">
        <ele>136.4</ele>
        <time>2021-01-24T09:01:43.000Z</time>
      </trkpt>
      <trkpt lat="46.50109" lon="0.36535">
        <ele>136.2</ele>
        <time>2021-01-24T09:01:44.000Z</time>
      </trkpt>
      <trkpt lat="46.50109" lon="0.36535">
        <ele>136.2</ele>
        <time>2021-01-24T09:01:45.000Z</time>
      </trkpt>
      <trkpt lat="46.5011" lon="0.36534">
        <ele>136.2</ele>
        <time>2021-01-24T09:01:46.000Z</time>
      </trkpt>
      <trkpt lat="46.5011" lon="0.36534">
        <ele>136.2</ele>
        <time>2021-01-24T09:01:47.000Z</time>
      </trkpt>
      <trkpt lat="46.5011" lon="0.36533">
        <ele>136.2</ele>
        <time>2021-01-24T09:01:48.000Z</time>
      </trkpt>
      <trkpt lat="46.50111" lon="0.36532">
        <ele>136.2</ele>
        <time>2021-01-24T09:01:49.000Z</time>
      </trkpt>
      <trkpt lat="46.50113" lon="0.36528">
        <ele>136</ele>
        <time>2021-01-24T09:01:50.000Z</time>
      </trkpt>
      <trkpt lat="46.50115" lon="0.36523">
        <ele>136</ele>
        <time>2021-01-24T09:01:51.000Z</time>
      </trkpt>
      <trkpt lat="46.50117" lon="0.36519">
        <ele>136</ele>
        <time>2021-01-24T09:01:52.000Z</time>
      </trkpt>
      <trkpt lat="46.50119" lon="0.36513">
        <ele>136</ele>
        <time>2021-01-24T09:01:53.000Z</time>
      </trkpt>
      <trkpt lat="46.50122" lon="0.36509">
        <ele>136</ele>
        <time>2021-01-24T09:01:54.000Z</time>
      </trkpt>
      <trkpt lat="46.50124" lon="0.36505">
        <ele>136</ele>
        <time>2021-01-24T09:01:55.000Z</time>
      </trkpt>
      <trkpt lat="46.50126" lon="0.36499">
        <ele>136</ele>
        <time>2021-01-24T09:01:56.000Z</time>
      </trkpt>
      <trkpt lat="46.50128" lon="0.36496">
        <ele>136</ele>
        <time>2021-01-24T09:01:57.000Z</time>
      </trkpt>
      <trkpt lat="46.5013" lon="0.36491">
        <ele>136</ele>
        <time>2021-01-24T09:01:58.000Z</time>
      </trkpt>
      <trkpt lat="46.50133" lon="0.36485">
        <ele>135.8</ele>
        <time>2021-01-24T09:01:59.000Z</time>
      </trkpt>
      <trkpt lat="46.50134" lon="0.36481">
        <ele>135.8</ele>
        <time>2021-01-24T09:02:00.000Z</time>
      </trkpt>
      <trkpt lat="46.50136" lon="0.36476">
        <ele>135.8</ele>
        <time>2021-01-24T09:02:01.000Z</time>
      </trkpt>
      <trkpt lat="46.50138" lon="0.3647">
        <ele>135.6</ele>
        <time>2021-01-24T09:02:02.000Z</time>
      </trkpt>
      <trkpt lat="46.5014" lon="0.36465">
        <ele>135.6</ele>
        <time>2021-01-24T09:02:03.000Z</time>
      </trkpt>
      <trkpt lat="46.50141" lon="0.36461">
        <ele>135.6</ele>
        <time>2021-01-24T09:02:04.000Z</time>
      </trkpt>
      <trkpt lat="46.50143" lon="0.36456">
        <ele>135.6</ele>
        <time>2021-01-24T09:02:05.000Z</time>
      </trkpt>
      <trkpt lat="46.50145" lon="0.36451">
        <ele>135.4</ele>
        <time>2021-01-24T09:02:06.000Z</time>
      </trkpt>
      <trkpt lat="46.50146" lon="0.36447">
        <ele>135.4</ele>
        <time>2021-01-24T09:02:07.000Z</time>
      </trkpt>
      <trkpt lat="46.50148" lon="0.36442">
        <ele>135.4</ele>
        <time>2021-01-24T09:02:08.000Z</time>
      </trkpt>
      <trkpt lat="46.50149" lon="0.36437">
        <ele>135.4</ele>
        <time>2021-01-24T09:02:09.000Z</time>
      </trkpt>
      <trkpt lat="46.50152" lon="0.36432">
        <ele>135.6</ele>
        <time>2021-01-24T09:02:10.000Z</time>
      </trkpt>
      <trkpt lat="46.50153" lon="0.36427">
        <ele>135.6</ele>
        <time>2021-01-24T09:02:11.000Z</time>
      </trkpt>
      <trkpt lat="46.50155" lon="0.36421">
        <ele>135.8</ele>
        <time>2021-01-24T09:02:12.000Z</time>
      </trkpt>
      <trkpt lat="46.50156" lon="0.36416">
        <ele>135.8</ele>
        <time>2021-01-24T09:02:13.000Z</time>
      </trkpt>
      <trkpt lat="46.50157" lon="0.36412">
        <ele>136</ele>
        <time>2021-01-24T09:02:14.000Z</time>
      </trkpt>
      <trkpt lat="46.50157" lon="0.36405">
        <ele>136</ele>
        <time>2021-01-24T09:02:15.000Z</time>
      </trkpt>
      <trkpt lat="46.50158" lon="0.36401">
        <ele>136</ele>
        <time>2021-01-24T09:02:16.000Z</time>
      </trkpt>
      <trkpt lat="46.50159" lon="0.36395">
        <ele>136</ele>
        <time>2021-01-24T09:02:17.000Z</time>
      </trkpt>
      <trkpt lat="46.50159" lon="0.36388">
        <ele>136</ele>
        <time>2021-01-24T09:02:18.000Z</time>
      </trkpt>
      <trkpt lat="46.50159" lon="0.36384">
        <ele>136</ele>
        <time>2021-01-24T09:02:19.000Z</time>
      </trkpt>
      <trkpt lat="46.50159" lon="0.36377">
        <ele>136</ele>
        <time>2021-01-24T09:02:20.000Z</time>
      </trkpt>
      <trkpt lat="46.50159" lon="0.36372">
        <ele>136</ele>
        <time>2021-01-24T09:02:21.000Z</time>
      </trkpt>
      <trkpt lat="46.50159" lon="0.36367">
        <ele>136</ele>
        <time>2021-01-24T09:02:22.000Z</time>
      </trkpt>
      <trkpt lat="46.50158" lon="0.36362">
        <ele>136</ele>
        <time>2021-01-24T09:02:23.000Z</time>
      </trkpt>
      <trkpt lat="46.50158" lon="0.36356">
        <ele>136</ele>
        <time>2021-01-24T09:02:24.000Z</time>
      </trkpt>
      <trkpt lat="46.50157" lon="0.36351">
        <ele>135.8</ele>
        <time>2021-01-24T09:02:25.000Z</time>
      </trkpt>
      <trkpt lat="46.50157" lon="0.36346">
        <ele>135.8</ele>
        <time>2021-01-24T09:02:26.000Z</time>
      </trkpt>
      <trkpt lat="46.50157" lon="0.36341">
        <ele>135.8</ele>
        <time>2021-01-24T09:02:27.000Z</time>
      </trkpt>
      <trkpt lat="46.50157" lon="0.36338">
        <ele>135.6</ele>
        <time>2021-01-24T09:02:28.000Z</time>
      </trkpt>
      <trkpt lat="46.50157" lon="0.36335">
        <ele>135.6</ele>
        <time>2021-01-24T09:02:29.000Z</time>
      </trkpt>
      <trkpt lat="46.50157" lon="0.36335">
        <ele>135.6</ele>
        <time>2021-01-24T09:02:30.000Z</time>
      </trkpt>
      <trkpt lat="46.50157" lon="0.36335">
        <ele>135.6</ele>
        <time>2021-01-24T09:02:31.000Z</time>
      </trkpt>
      <trkpt lat="46.50157" lon="0.36335">
        <ele>135.6</ele>
        <time>2021-01-24T09:02:32.000Z</time>
      </trkpt>
      <trkpt lat="46.50157" lon="0.36335">
        <ele>135.4</ele>
        <time>2021-01-24T09:02:33.000Z</time>
      </trkpt>
      <trkpt lat="46.50157" lon="0.36335">
        <ele>135.4</ele>
        <time>2021-01-24T09:02:34.000Z</time>
      </trkpt>
      <trkpt lat="46.50157" lon="0.36335">
        <ele>135.4</ele>
        <time>2021-01-24T09:02:35.000Z</time>
      </trkpt>
      <trkpt lat="46.50157" lon="0.36335">
        <ele>135.4</ele>
        <time>2021-01-24T09:02:36.000Z</time>
      </trkpt>
      <trkpt lat="46.50157" lon="0.36331">
        <ele>135.4</ele>
        <time>2021-01-24T09:02:37.000Z</time>
      </trkpt>
      <trkpt lat="46.50157" lon="0.36331">
        <ele>135.4</ele>
        <time>2021-01-24T09:02:38.000Z</time>
      </trkpt>
      <trkpt lat="46.50155" lon="0.36327">
        <ele>135.2</ele>
        <time>2021-01-24T09:02:39.000Z</time>
      </trkpt>
      <trkpt lat="46.50155" lon="0.36324">
        <ele>135.2</ele>
        <time>2021-01-24T09:02:40.000Z</time>
      </trkpt>
      <trkpt lat="46.50154" lon="0.3632">
        <ele>135.2</ele>
        <time>2021-01-24T09:02:41.000Z</time>
      </trkpt>
      <trkpt lat="46.50153" lon="0.36316">
        <ele>135</ele>
        <time>2021-01-24T09:02:42.000Z</time>
      </trkpt>
      <trkpt lat="46.50152" lon="0.36312">
        <ele>135</ele>
        <time>2021-01-24T09:02:43.000Z</time>
      </trkpt>
      <trkpt lat="46.50151" lon="0.36307">
        <ele>134.8</ele>
        <time>2021-01-24T09:02:44.000Z</time>
      </trkpt>
      <trkpt lat="46.50151" lon="0.36303">
        <ele>134.8</ele>
        <time>2021-01-24T09:02:45.000Z</time>
      </trkpt>
      <trkpt lat="46.50151" lon="0.363">
        <ele>134.8</ele>
        <time>2021-01-24T09:02:46.000Z</time>
      </trkpt>
      <trkpt lat="46.5015" lon="0.36296">
        <ele>134.6</ele>
        <time>2021-01-24T09:02:47.000Z</time>
      </trkpt>
      <trkpt lat="46.5015" lon="0.36293">
        <ele>134.6</ele>
        <time>2021-01-24T09:02:48.000Z</time>
      </trkpt>
      <trkpt lat="46.50151" lon="0.36287">
        <ele>134.4</ele>
        <time>2021-01-24T09:02:49.000Z</time>
      </trkpt>
      <trkpt lat="46.50151" lon="0.36283">
        <ele>134.2</ele>
        <time>2021-01-24T09:02:50.000Z</time>
      </trkpt>
      <trkpt lat="46.50151" lon="0.36278">
        <ele>134.2</ele>
        <time>2021-01-24T09:02:51.000Z</time>
      </trkpt>
      <trkpt lat="46.50151" lon="0.36274">
        <ele>134</ele>
        <time>2021-01-24T09:02:52.000Z</time>
      </trkpt>
      <trkpt lat="46.50152" lon="0.36268">
        <ele>133.8</ele>
        <time>2021-01-24T09:02:53.000Z</time>
      </trkpt>
      <trkpt lat="46.50153" lon="0.36264">
        <ele>133.8</ele>
        <time>2021-01-24T09:02:54.000Z</time>
      </trkpt>
      <trkpt lat="46.50153" lon="0.36259">
        <ele>133.8</ele>
        <time>2021-01-24T09:02:55.000Z</time>
      </trkpt>
      <trkpt lat="46.50153" lon="0.36255">
        <ele>133.8</ele>
        <time>2021-01-24T09:02:56.000Z</time>
      </trkpt>
      <trkpt lat="46.50153" lon="0.3625">
        <ele>133.8</ele>
        <time>2021-01-24T09:02:57.000Z</time>
      </trkpt>
      <trkpt lat="46.50153" lon="0.36246">
        <ele>133.8</ele>
        <time>2021-01-24T09:02:58.000Z</time>
      </trkpt>
      <trkpt lat="46.50153" lon="0.36241">
        <ele>133.8</ele>
        <time>2021-01-24T09:02:59.000Z</time>
      </trkpt>
      <trkpt lat="46.50153" lon="0.36236">
        <ele>133.8</ele>
        <time>2021-01-24T09:03:00.000Z</time>
      </trkpt>
      <trkpt lat="46.50152" lon="0.36231">
        <ele>133.8</ele>
        <time>2021-01-24T09:03:01.000Z</time>
      </trkpt>
      <trkpt lat="46.50153" lon="0.36226">
        <ele>133.8</ele>
        <time>2021-01-24T09:03:02.000Z</time>
      </trkpt>
      <trkpt lat="46.50153" lon="0.36221">
        <ele>133.8</ele>
        <time>2021-01-24T09:03:03.000Z</time>
      </trkpt>
      <trkpt lat="46.50153" lon="0.36215">
        <ele>133.8</ele>
        <time>2021-01-24T09:03:04.000Z</time>
      </trkpt>
      <trkpt lat="46.50153" lon="0.3621">
        <ele>133.8</ele>
        <time>2021-01-24T09:03:05.000Z</time>
      </trkpt>
      <trkpt lat="46.50153" lon="0.36204">
        <ele>133.6</ele>
        <time>2021-01-24T09:03:06.000Z</time>
      </trkpt>
      <trkpt lat="46.50153" lon="0.36198">
        <ele>133.6</ele>
        <time>2021-01-24T09:03:07.000Z</time>
      </trkpt>
      <trkpt lat="46.50153" lon="0.36192">
        <ele>133.6</ele>
        <time>2021-01-24T09:03:08.000Z</time>
      </trkpt>
      <trkpt lat="46.50153" lon="0.36186">
        <ele>133.6</ele>
        <time>2021-01-24T09:03:09.000Z</time>
      </trkpt>
      <trkpt lat="46.50153" lon="0.36181">
        <ele>133.6</ele>
        <time>2021-01-24T09:03:10.000Z</time>
      </trkpt>
      <trkpt lat="46.50152" lon="0.36177">
        <ele>133.6</ele>
        <time>2021-01-24T09:03:11.000Z</time>
      </trkpt>
      <trkpt lat="46.50153" lon="0.36172">
        <ele>133.6</ele>
        <time>2021-01-24T09:03:12.000Z</time>
      </trkpt>
      <trkpt lat="46.50152" lon="0.36167">
        <ele>133.6</ele>
        <time>2021-01-24T09:03:13.000Z</time>
      </trkpt>
      <trkpt lat="46.50152" lon="0.3616">
        <ele>133.6</ele>
        <time>2021-01-24T09:03:14.000Z</time>
      </trkpt>
      <trkpt lat="46.50151" lon="0.36154">
        <ele>133.6</ele>
        <time>2021-01-24T09:03:15.000Z</time>
      </trkpt>
      <trkpt lat="46.50152" lon="0.36149">
        <ele>133.6</ele>
        <time>2021-01-24T09:03:16.000Z</time>
      </trkpt>
      <trkpt lat="46.50152" lon="0.36143">
        <ele>133.4</ele>
        <time>2021-01-24T09:03:17.000Z</time>
      </trkpt>
      <trkpt lat="46.50152" lon="0.36138">
        <ele>133.4</ele>
        <time>2021-01-24T09:03:18.000Z</time>
      </trkpt>
      <trkpt lat="46.50152" lon="0.36133">
        <ele>133.4</ele>
        <time>2021-01-24T09:03:19.000Z</time>
      </trkpt>
      <trkpt lat="46.50152" lon="0.36127">
        <ele>133.4</ele>
        <time>2021-01-24T09:03:20.000Z</time>
      </trkpt>
      <trkpt lat="46.50152" lon="0.36122">
        <ele>133.2</ele>
        <time>2021-01-24T09:03:21.000Z</time>
      </trkpt>
      <trkpt lat="46.50152" lon="0.36116">
        <ele>133.2</ele>
        <time>2021-01-24T09:03:22.000Z</time>
      </trkpt>
      <trkpt lat="46.50152" lon="0.36111">
        <ele>133.2</ele>
        <time>2021-01-24T09:03:23.000Z</time>
      </trkpt>
      <trkpt lat="46.50152" lon="0.36105">
        <ele>133.2</ele>
        <time>2021-01-24T09:03:24.000Z</time>
      </trkpt>
      <trkpt lat="46.50152" lon="0.36099">
        <ele>133.2</ele>
        <time>2021-01-24T09:03:25.000Z</time>
      </trkpt>
      <trkpt lat="46.50152" lon="0.36094">
        <ele>133.2</ele>
        <time>2021-01-24T09:03:26.000Z</time>
      </trkpt>
      <trkpt lat="46.50152" lon="0.36088">
        <ele>133.2</ele>
        <time>2021-01-24T09:03:27.000Z</time>
      </trkpt>
      <trkpt lat="46.50152" lon="0.36083">
        <ele>133.2</ele>
        <time>2021-01-24T09:03:28.000Z</time>
      </trkpt>
      <trkpt lat="46.50152" lon="0.36077">
        <ele>133</ele>
        <time>2021-01-24T09:03:29.000Z</time>
      </trkpt>
      <trkpt lat="46.50151" lon="0.36071">
        <ele>133</ele>
        <time>2021-01-24T09:03:30.000Z</time>
      </trkpt>
      <trkpt lat="46.50151" lon="0.36065">
        <ele>133</ele>
        <time>2021-01-24T09:03:31.000Z</time>
      </trkpt>
      <trkpt lat="46.50151" lon="0.36059">
        <ele>133</ele>
        <time>2021-01-24T09:03:32.000Z</time>
      </trkpt>
      <trkpt lat="46.50151" lon="0.36054">
        <ele>133</ele>
        <time>2021-01-24T09:03:33.000Z</time>
      </trkpt>
      <trkpt lat="46.50151" lon="0.36048">
        <ele>133</ele>
        <time>2021-01-24T09:03:34.000Z</time>
      </trkpt>
      <trkpt lat="46.50151" lon="0.36042">
        <ele>133</ele>
        <time>2021-01-24T09:03:35.000Z</time>
      </trkpt>
      <trkpt lat="46.50151" lon="0.36037">
        <ele>133</ele>
        <time>2021-01-24T09:03:36.000Z</time>
      </trkpt>
      <trkpt lat="46.50151" lon="0.36031">
        <ele>133</ele>
        <time>2021-01-24T09:03:37.000Z</time>
      </trkpt>
      <trkpt lat="46.50151" lon="0.36025">
        <ele>133</ele>
        <time>2021-01-24T09:03:38.000Z</time>
      </trkpt>
      <trkpt lat="46.5015" lon="0.3602">
        <ele>133.2</ele>
        <time>2021-01-24T09:03:39.000Z</time>
      </trkpt>
      <trkpt lat="46.5015" lon="0.36014">
        <ele>133.2</ele>
        <time>2021-01-24T09:03:40.000Z</time>
      </trkpt>
      <trkpt lat="46.5015" lon="0.36008">
        <ele>133.2</ele>
        <time>2021-01-24T09:03:41.000Z</time>
      </trkpt>
      <trkpt lat="46.5015" lon="0.36002">
        <ele>133.2</ele>
        <time>2021-01-24T09:03:42.000Z</time>
      </trkpt>
      <trkpt lat="46.5015" lon="0.35997">
        <ele>133.2</ele>
        <time>2021-01-24T09:03:43.000Z</time>
      </trkpt>
      <trkpt lat="46.50149" lon="0.35991">
        <ele>133.2</ele>
        <time>2021-01-24T09:03:44.000Z</time>
      </trkpt>
      <trkpt lat="46.50149" lon="0.35985">
        <ele>133.2</ele>
        <time>2021-01-24T09:03:45.000Z</time>
      </trkpt>
      <trkpt lat="46.50149" lon="0.35979">
        <ele>133.2</ele>
        <time>2021-01-24T09:03:46.000Z</time>
      </trkpt>
      <trkpt lat="46.50149" lon="0.35973">
        <ele>133.4</ele>
        <time>2021-01-24T09:03:47.000Z</time>
      </trkpt>
      <trkpt lat="46.50149" lon="0.35968">
        <ele>133.4</ele>
        <time>2021-01-24T09:03:48.000Z</time>
      </trkpt>
      <trkpt lat="46.50149" lon="0.35962">
        <ele>133.2</ele>
        <time>2021-01-24T09:03:49.000Z</time>
      </trkpt>
      <trkpt lat="46.50149" lon="0.35956">
        <ele>133.2</ele>
        <time>2021-01-24T09:03:50.000Z</time>
      </trkpt>
      <trkpt lat="46.50149" lon="0.3595">
        <ele>133.2</ele>
        <time>2021-01-24T09:03:51.000Z</time>
      </trkpt>
      <trkpt lat="46.50149" lon="0.35944">
        <ele>133.2</ele>
        <time>2021-01-24T09:03:52.000Z</time>
      </trkpt>
      <trkpt lat="46.50149" lon="0.35939">
        <ele>133.2</ele>
        <time>2021-01-24T09:03:53.000Z</time>
      </trkpt>
      <trkpt lat="46.50149" lon="0.35933">
        <ele>133.2</ele>
        <time>2021-01-24T09:03:54.000Z</time>
      </trkpt>
      <trkpt lat="46.50149" lon="0.35927">
        <ele>133.2</ele>
        <time>2021-01-24T09:03:55.000Z</time>
      </trkpt>
      <trkpt lat="46.50149" lon="0.35921">
        <ele>133.2</ele>
        <time>2021-01-24T09:03:56.000Z</time>
      </trkpt>
      <trkpt lat="46.50149" lon="0.35915">
        <ele>133.2</ele>
        <time>2021-01-24T09:03:57.000Z</time>
      </trkpt>
      <trkpt lat="46.50149" lon="0.35909">
        <ele>133.4</ele>
        <time>2021-01-24T09:03:58.000Z</time>
      </trkpt>
      <trkpt lat="46.5015" lon="0.35903">
        <ele>133.4</ele>
        <time>2021-01-24T09:03:59.000Z</time>
      </trkpt>
      <trkpt lat="46.50151" lon="0.35897">
        <ele>133.4</ele>
        <time>2021-01-24T09:04:00.000Z</time>
      </trkpt>
      <trkpt lat="46.50151" lon="0.35891">
        <ele>133.2</ele>
        <time>2021-01-24T09:04:01.000Z</time>
      </trkpt>
      <trkpt lat="46.50152" lon="0.35885">
        <ele>133.2</ele>
        <time>2021-01-24T09:04:02.000Z</time>
      </trkpt>
      <trkpt lat="46.50152" lon="0.35879">
        <ele>133.2</ele>
        <time>2021-01-24T09:04:03.000Z</time>
      </trkpt>
      <trkpt lat="46.50153" lon="0.35873">
        <ele>133.4</ele>
        <time>2021-01-24T09:04:04.000Z</time>
      </trkpt>
      <trkpt lat="46.50153" lon="0.35867">
        <ele>133.4</ele>
        <time>2021-01-24T09:04:05.000Z</time>
      </trkpt>
      <trkpt lat="46.50154" lon="0.35861">
        <ele>133.4</ele>
        <time>2021-01-24T09:04:06.000Z</time>
      </trkpt>
      <trkpt lat="46.50155" lon="0.35856">
        <ele>133.4</ele>
        <time>2021-01-24T09:04:07.000Z</time>
      </trkpt>
      <trkpt lat="46.50156" lon="0.3585">
        <ele>133.6</ele>
        <time>2021-01-24T09:04:08.000Z</time>
      </trkpt>
      <trkpt lat="46.50157" lon="0.35844">
        <ele>133.6</ele>
        <time>2021-01-24T09:04:09.000Z</time>
      </trkpt>
      <trkpt lat="46.50157" lon="0.35839">
        <ele>133.6</ele>
        <time>2021-01-24T09:04:10.000Z</time>
      </trkpt>
      <trkpt lat="46.50158" lon="0.35833">
        <ele>133.8</ele>
        <time>2021-01-24T09:04:11.000Z</time>
      </trkpt>
      <trkpt lat="46.50159" lon="0.35827">
        <ele>133.8</ele>
        <time>2021-01-24T09:04:12.000Z</time>
      </trkpt>
      <trkpt lat="46.5016" lon="0.35821">
        <ele>134</ele>
        <time>2021-01-24T09:04:13.000Z</time>
      </trkpt>
      <trkpt lat="46.50161" lon="0.35816">
        <ele>134</ele>
        <time>2021-01-24T09:04:14.000Z</time>
      </trkpt>
      <trkpt lat="46.50163" lon="0.3581">
        <ele>134.2</ele>
        <time>2021-01-24T09:04:15.000Z</time>
      </trkpt>
      <trkpt lat="46.50163" lon="0.35804">
        <ele>134.2</ele>
        <time>2021-01-24T09:04:16.000Z</time>
      </trkpt>
      <trkpt lat="46.50165" lon="0.35798">
        <ele>134.2</ele>
        <time>2021-01-24T09:04:17.000Z</time>
      </trkpt>
      <trkpt lat="46.50166" lon="0.35792">
        <ele>134.2</ele>
        <time>2021-01-24T09:04:18.000Z</time>
      </trkpt>
      <trkpt lat="46.50167" lon="0.35786">
        <ele>134.4</ele>
        <time>2021-01-24T09:04:19.000Z</time>
      </trkpt>
      <trkpt lat="46.50168" lon="0.35781">
        <ele>134.4</ele>
        <time>2021-01-24T09:04:20.000Z</time>
      </trkpt>
      <trkpt lat="46.5017" lon="0.35775">
        <ele>134.4</ele>
        <time>2021-01-24T09:04:21.000Z</time>
      </trkpt>
      <trkpt lat="46.50171" lon="0.35769">
        <ele>134.6</ele>
        <time>2021-01-24T09:04:22.000Z</time>
      </trkpt>
      <trkpt lat="46.50173" lon="0.35764">
        <ele>134.6</ele>
        <time>2021-01-24T09:04:23.000Z</time>
      </trkpt>
      <trkpt lat="46.50174" lon="0.35758">
        <ele>134.6</ele>
        <time>2021-01-24T09:04:24.000Z</time>
      </trkpt>
      <trkpt lat="46.50175" lon="0.35753">
        <ele>134.6</ele>
        <time>2021-01-24T09:04:25.000Z</time>
      </trkpt>
      <trkpt lat="46.50177" lon="0.35747">
        <ele>134.6</ele>
        <time>2021-01-24T09:04:26.000Z</time>
      </trkpt>
      <trkpt lat="46.50178" lon="0.35742">
        <ele>134.8</ele>
        <time>2021-01-24T09:04:27.000Z</time>
      </trkpt>
      <trkpt lat="46.5018" lon="0.35737">
        <ele>134.8</ele>
        <time>2021-01-24T09:04:28.000Z</time>
      </trkpt>
      <trkpt lat="46.50181" lon="0.35731">
        <ele>134.8</ele>
        <time>2021-01-24T09:04:29.000Z</time>
      </trkpt>
      <trkpt lat="46.50183" lon="0.35726">
        <ele>135</ele>
        <time>2021-01-24T09:04:30.000Z</time>
      </trkpt>
      <trkpt lat="46.50185" lon="0.35721">
        <ele>135</ele>
        <time>2021-01-24T09:04:31.000Z</time>
      </trkpt>
      <trkpt lat="46.50187" lon="0.35715">
        <ele>135.2</ele>
        <time>2021-01-24T09:04:32.000Z</time>
      </trkpt>
      <trkpt lat="46.50189" lon="0.3571">
        <ele>135.2</ele>
        <time>2021-01-24T09:04:33.000Z</time>
      </trkpt>
      <trkpt lat="46.5019" lon="0.35705">
        <ele>135.4</ele>
        <time>2021-01-24T09:04:34.000Z</time>
      </trkpt>
      <trkpt lat="46.50192" lon="0.357">
        <ele>135.4</ele>
        <time>2021-01-24T09:04:35.000Z</time>
      </trkpt>
      <trkpt lat="46.50194" lon="0.35695">
        <ele>135.6</ele>
        <time>2021-01-24T09:04:36.000Z</time>
      </trkpt>
      <trkpt lat="46.50196" lon="0.3569">
        <ele>135.8</ele>
        <time>2021-01-24T09:04:37.000Z</time>
      </trkpt>
      <trkpt lat="46.50198" lon="0.35684">
        <ele>135.8</ele>
        <time>2021-01-24T09:04:38.000Z</time>
      </trkpt>
      <trkpt lat="46.502" lon="0.35679">
        <ele>136</ele>
        <time>2021-01-24T09:04:39.000Z</time>
      </trkpt>
      <trkpt lat="46.50202" lon="0.35674">
        <ele>136</ele>
        <time>2021-01-24T09:04:40.000Z</time>
      </trkpt>
      <trkpt lat="46.50205" lon="0.35668">
        <ele>136</ele>
        <time>2021-01-24T09:04:41.000Z</time>
      </trkpt>
      <trkpt lat="46.50206" lon="0.35663">
        <ele>136.2</ele>
        <time>2021-01-24T09:04:42.000Z</time>
      </trkpt>
      <trkpt lat="46.50208" lon="0.35657">
        <ele>136.2</ele>
        <time>2021-01-24T09:04:43.000Z</time>
      </trkpt>
      <trkpt lat="46.5021" lon="0.35652">
        <ele>136.2</ele>
        <time>2021-01-24T09:04:44.000Z</time>
      </trkpt>
      <trkpt lat="46.50213" lon="0.35646">
        <ele>136</ele>
        <time>2021-01-24T09:04:45.000Z</time>
      </trkpt>
      <trkpt lat="46.50214" lon="0.35641">
        <ele>136</ele>
        <time>2021-01-24T09:04:46.000Z</time>
      </trkpt>
      <trkpt lat="46.50216" lon="0.35635">
        <ele>136</ele>
        <time>2021-01-24T09:04:47.000Z</time>
      </trkpt>
      <trkpt lat="46.50218" lon="0.35629">
        <ele>136.2</ele>
        <time>2021-01-24T09:04:48.000Z</time>
      </trkpt>
      <trkpt lat="46.5022" lon="0.35624">
        <ele>136.2</ele>
        <time>2021-01-24T09:04:49.000Z</time>
      </trkpt>
      <trkpt lat="46.50222" lon="0.35619">
        <ele>136.2</ele>
        <time>2021-01-24T09:04:50.000Z</time>
      </trkpt>
      <trkpt lat="46.50223" lon="0.35614">
        <ele>136.2</ele>
        <time>2021-01-24T09:04:51.000Z</time>
      </trkpt>
      <trkpt lat="46.50225" lon="0.35608">
        <ele>136.4</ele>
        <time>2021-01-24T09:04:52.000Z</time>
      </trkpt>
      <trkpt lat="46.50227" lon="0.35602">
        <ele>136.4</ele>
        <time>2021-01-24T09:04:53.000Z</time>
      </trkpt>
      <trkpt lat="46.50228" lon="0.35596">
        <ele>136.4</ele>
        <time>2021-01-24T09:04:54.000Z</time>
      </trkpt>
      <trkpt lat="46.5023" lon="0.3559">
        <ele>136.6</ele>
        <time>2021-01-24T09:04:55.000Z</time>
      </trkpt>
      <trkpt lat="46.50232" lon="0.35584">
        <ele>136.6</ele>
        <time>2021-01-24T09:04:56.000Z</time>
      </trkpt>
      <trkpt lat="46.50234" lon="0.35578">
        <ele>136.6</ele>
        <time>2021-01-24T09:04:57.000Z</time>
      </trkpt>
      <trkpt lat="46.50235" lon="0.35574">
        <ele>136.6</ele>
        <time>2021-01-24T09:04:58.000Z</time>
      </trkpt>
      <trkpt lat="46.50237" lon="0.35568">
        <ele>136.6</ele>
        <time>2021-01-24T09:04:59.000Z</time>
      </trkpt>
      <trkpt lat="46.50238" lon="0.35562">
        <ele>136.6</ele>
        <time>2021-01-24T09:05:00.000Z</time>
      </trkpt>
      <trkpt lat="46.5024" lon="0.35556">
        <ele>136.6</ele>
        <time>2021-01-24T09:05:01.000Z</time>
      </trkpt>
      <trkpt lat="46.50242" lon="0.3555">
        <ele>136.6</ele>
        <time>2021-01-24T09:05:02.000Z</time>
      </trkpt>
      <trkpt lat="46.50243" lon="0.35543">
        <ele>136.6</ele>
        <time>2021-01-24T09:05:03.000Z</time>
      </trkpt>
      <trkpt lat="46.50245" lon="0.35537">
        <ele>136.6</ele>
        <time>2021-01-24T09:05:04.000Z</time>
      </trkpt>
      <trkpt lat="46.50247" lon="0.35531">
        <ele>136.8</ele>
        <time>2021-01-24T09:05:05.000Z</time>
      </trkpt>
      <trkpt lat="46.50249" lon="0.35524">
        <ele>136.6</ele>
        <time>2021-01-24T09:05:06.000Z</time>
      </trkpt>
      <trkpt lat="46.5025" lon="0.35518">
        <ele>136.6</ele>
        <time>2021-01-24T09:05:07.000Z</time>
      </trkpt>
      <trkpt lat="46.50252" lon="0.35512">
        <ele>136.6</ele>
        <time>2021-01-24T09:05:08.000Z</time>
      </trkpt>
      <trkpt lat="46.50252" lon="0.35506">
        <ele>136.6</ele>
        <time>2021-01-24T09:05:09.000Z</time>
      </trkpt>
      <trkpt lat="46.50253" lon="0.35499">
        <ele>136.6</ele>
        <time>2021-01-24T09:05:10.000Z</time>
      </trkpt>
      <trkpt lat="46.50254" lon="0.35492">
        <ele>136.6</ele>
        <time>2021-01-24T09:05:11.000Z</time>
      </trkpt>
      <trkpt lat="46.50254" lon="0.35485">
        <ele>136.6</ele>
        <time>2021-01-24T09:05:12.000Z</time>
      </trkpt>
      <trkpt lat="46.50256" lon="0.35478">
        <ele>136.6</ele>
        <time>2021-01-24T09:05:13.000Z</time>
      </trkpt>
      <trkpt lat="46.50257" lon="0.35472">
        <ele>136.8</ele>
        <time>2021-01-24T09:05:14.000Z</time>
      </trkpt>
      <trkpt lat="46.50258" lon="0.35464">
        <ele>136.8</ele>
        <time>2021-01-24T09:05:15.000Z</time>
      </trkpt>
      <trkpt lat="46.5026" lon="0.35458">
        <ele>136.8</ele>
        <time>2021-01-24T09:05:16.000Z</time>
      </trkpt>
      <trkpt lat="46.50261" lon="0.35451">
        <ele>137</ele>
        <time>2021-01-24T09:05:17.000Z</time>
      </trkpt>
      <trkpt lat="46.50263" lon="0.35444">
        <ele>137</ele>
        <time>2021-01-24T09:05:18.000Z</time>
      </trkpt>
      <trkpt lat="46.50264" lon="0.35438">
        <ele>137</ele>
        <time>2021-01-24T09:05:19.000Z</time>
      </trkpt>
      <trkpt lat="46.50266" lon="0.35432">
        <ele>137</ele>
        <time>2021-01-24T09:05:20.000Z</time>
      </trkpt>
      <trkpt lat="46.50268" lon="0.35425">
        <ele>137.2</ele>
        <time>2021-01-24T09:05:21.000Z</time>
      </trkpt>
      <trkpt lat="46.50269" lon="0.35418">
        <ele>137.2</ele>
        <time>2021-01-24T09:05:22.000Z</time>
      </trkpt>
      <trkpt lat="46.50271" lon="0.35412">
        <ele>137.2</ele>
        <time>2021-01-24T09:05:23.000Z</time>
      </trkpt>
      <trkpt lat="46.50272" lon="0.35405">
        <ele>137.4</ele>
        <time>2021-01-24T09:05:24.000Z</time>
      </trkpt>
      <trkpt lat="46.50274" lon="0.35399">
        <ele>137.4</ele>
        <time>2021-01-24T09:05:25.000Z</time>
      </trkpt>
      <trkpt lat="46.50276" lon="0.35392">
        <ele>137.4</ele>
        <time>2021-01-24T09:05:26.000Z</time>
      </trkpt>
      <trkpt lat="46.50277" lon="0.35386">
        <ele>137.4</ele>
        <time>2021-01-24T09:05:27.000Z</time>
      </trkpt>
      <trkpt lat="46.50279" lon="0.35379">
        <ele>137.6</ele>
        <time>2021-01-24T09:05:28.000Z</time>
      </trkpt>
      <trkpt lat="46.50281" lon="0.35373">
        <ele>137.6</ele>
        <time>2021-01-24T09:05:29.000Z</time>
      </trkpt>
      <trkpt lat="46.50282" lon="0.35366">
        <ele>137.6</ele>
        <time>2021-01-24T09:05:30.000Z</time>
      </trkpt>
      <trkpt lat="46.50284" lon="0.3536">
        <ele>137.6</ele>
        <time>2021-01-24T09:05:31.000Z</time>
      </trkpt>
      <trkpt lat="46.50285" lon="0.35353">
        <ele>137.8</ele>
        <time>2021-01-24T09:05:32.000Z</time>
      </trkpt>
      <trkpt lat="46.50286" lon="0.35347">
        <ele>137.8</ele>
        <time>2021-01-24T09:05:33.000Z</time>
      </trkpt>
      <trkpt lat="46.50287" lon="0.3534">
        <ele>137.8</ele>
        <time>2021-01-24T09:05:34.000Z</time>
      </trkpt>
      <trkpt lat="46.50287" lon="0.35333">
        <ele>137.8</ele>
        <time>2021-01-24T09:05:35.000Z</time>
      </trkpt>
      <trkpt lat="46.50287" lon="0.35327">
        <ele>137.8</ele>
        <time>2021-01-24T09:05:36.000Z</time>
      </trkpt>
      <trkpt lat="46.50286" lon="0.3532">
        <ele>137.8</ele>
        <time>2021-01-24T09:05:37.000Z</time>
      </trkpt>
      <trkpt lat="46.50285" lon="0.35314">
        <ele>137.8</ele>
        <time>2021-01-24T09:05:38.000Z</time>
      </trkpt>
      <trkpt lat="46.50284" lon="0.35307">
        <ele>138</ele>
        <time>2021-01-24T09:05:39.000Z</time>
      </trkpt>
      <trkpt lat="46.50282" lon="0.353">
        <ele>137.8</ele>
        <time>2021-01-24T09:05:40.000Z</time>
      </trkpt>
      <trkpt lat="46.5028" lon="0.35294">
        <ele>137.8</ele>
        <time>2021-01-24T09:05:41.000Z</time>
      </trkpt>
      <trkpt lat="46.50278" lon="0.35287">
        <ele>137.8</ele>
        <time>2021-01-24T09:05:42.000Z</time>
      </trkpt>
      <trkpt lat="46.50276" lon="0.35281">
        <ele>137.8</ele>
        <time>2021-01-24T09:05:43.000Z</time>
      </trkpt>
      <trkpt lat="46.50274" lon="0.35275">
        <ele>137.8</ele>
        <time>2021-01-24T09:05:44.000Z</time>
      </trkpt>
      <trkpt lat="46.50272" lon="0.3527">
        <ele>137.6</ele>
        <time>2021-01-24T09:05:45.000Z</time>
      </trkpt>
      <trkpt lat="46.5027" lon="0.35263">
        <ele>137.6</ele>
        <time>2021-01-24T09:05:46.000Z</time>
      </trkpt>
      <trkpt lat="46.50268" lon="0.35257">
        <ele>137.6</ele>
        <time>2021-01-24T09:05:47.000Z</time>
      </trkpt>
      <trkpt lat="46.50266" lon="0.35251">
        <ele>137.8</ele>
        <time>2021-01-24T09:05:48.000Z</time>
      </trkpt>
      <trkpt lat="46.50264" lon="0.35243">
        <ele>137.6</ele>
        <time>2021-01-24T09:05:49.000Z</time>
      </trkpt>
      <trkpt lat="46.50261" lon="0.35237">
        <ele>137.6</ele>
        <time>2021-01-24T09:05:50.000Z</time>
      </trkpt>
      <trkpt lat="46.5026" lon="0.35231">
        <ele>137.6</ele>
        <time>2021-01-24T09:05:51.000Z</time>
      </trkpt>
      <trkpt lat="46.50258" lon="0.35224">
        <ele>137.8</ele>
        <time>2021-01-24T09:05:52.000Z</time>
      </trkpt>
      <trkpt lat="46.50255" lon="0.35218">
        <ele>137.6</ele>
        <time>2021-01-24T09:05:53.000Z</time>
      </trkpt>
      <trkpt lat="46.50253" lon="0.3521">
        <ele>137.6</ele>
        <time>2021-01-24T09:05:54.000Z</time>
      </trkpt>
      <trkpt lat="46.50251" lon="0.35205">
        <ele>137.6</ele>
        <time>2021-01-24T09:05:55.000Z</time>
      </trkpt>
      <trkpt lat="46.50249" lon="0.35198">
        <ele>137.6</ele>
        <time>2021-01-24T09:05:56.000Z</time>
      </trkpt>
      <trkpt lat="46.50247" lon="0.35192">
        <ele>137.6</ele>
        <time>2021-01-24T09:05:57.000Z</time>
      </trkpt>
      <trkpt lat="46.50245" lon="0.35185">
        <ele>137.6</ele>
        <time>2021-01-24T09:05:58.000Z</time>
      </trkpt>
      <trkpt lat="46.50243" lon="0.35178">
        <ele>137.6</ele>
        <time>2021-01-24T09:05:59.000Z</time>
      </trkpt>
      <trkpt lat="46.5024" lon="0.35172">
        <ele>137.6</ele>
        <time>2021-01-24T09:06:00.000Z</time>
      </trkpt>
      <trkpt lat="46.50238" lon="0.35165">
        <ele>137.8</ele>
        <time>2021-01-24T09:06:01.000Z</time>
      </trkpt>
      <trkpt lat="46.50237" lon="0.35158">
        <ele>137.8</ele>
        <time>2021-01-24T09:06:02.000Z</time>
      </trkpt>
      <trkpt lat="46.50235" lon="0.35151">
        <ele>137.8</ele>
        <time>2021-01-24T09:06:03.000Z</time>
      </trkpt>
      <trkpt lat="46.50233" lon="0.35144">
        <ele>137.8</ele>
        <time>2021-01-24T09:06:04.000Z</time>
      </trkpt>
      <trkpt lat="46.50232" lon="0.35136">
        <ele>138</ele>
        <time>2021-01-24T09:06:05.000Z</time>
      </trkpt>
      <trkpt lat="46.50231" lon="0.35126">
        <ele>138</ele>
        <time>2021-01-24T09:06:06.000Z</time>
      </trkpt>
      <trkpt lat="46.5023" lon="0.3512">
        <ele>138</ele>
        <time>2021-01-24T09:06:07.000Z</time>
      </trkpt>
      <trkpt lat="46.5023" lon="0.35111">
        <ele>138.2</ele>
        <time>2021-01-24T09:06:08.000Z</time>
      </trkpt>
      <trkpt lat="46.5023" lon="0.35101">
        <ele>138.2</ele>
        <time>2021-01-24T09:06:09.000Z</time>
      </trkpt>
      <trkpt lat="46.5023" lon="0.3509">
        <ele>138.2</ele>
        <time>2021-01-24T09:06:10.000Z</time>
      </trkpt>
      <trkpt lat="46.50229" lon="0.35079">
        <ele>138.4</ele>
        <time>2021-01-24T09:06:11.000Z</time>
      </trkpt>
      <trkpt lat="46.50229" lon="0.35065">
        <ele>138.4</ele>
        <time>2021-01-24T09:06:12.000Z</time>
      </trkpt>
      <trkpt lat="46.50229" lon="0.35056">
        <ele>138.4</ele>
        <time>2021-01-24T09:06:13.000Z</time>
      </trkpt>
      <trkpt lat="46.50229" lon="0.35044">
        <ele>138.4</ele>
        <time>2021-01-24T09:06:14.000Z</time>
      </trkpt>
      <trkpt lat="46.50229" lon="0.35029">
        <ele>138.4</ele>
        <time>2021-01-24T09:06:15.000Z</time>
      </trkpt>
      <trkpt lat="46.50229" lon="0.35017">
        <ele>138.4</ele>
        <time>2021-01-24T09:06:16.000Z</time>
      </trkpt>
      <trkpt lat="46.50229" lon="0.35004">
        <ele>138.4</ele>
        <time>2021-01-24T09:06:17.000Z</time>
      </trkpt>
      <trkpt lat="46.50229" lon="0.34991">
        <ele>138.4</ele>
        <time>2021-01-24T09:06:18.000Z</time>
      </trkpt>
      <trkpt lat="46.50228" lon="0.34979">
        <ele>138.6</ele>
        <time>2021-01-24T09:06:19.000Z</time>
      </trkpt>
      <trkpt lat="46.50228" lon="0.34967">
        <ele>138.6</ele>
        <time>2021-01-24T09:06:20.000Z</time>
      </trkpt>
      <trkpt lat="46.50227" lon="0.34955">
        <ele>138.6</ele>
        <time>2021-01-24T09:06:21.000Z</time>
      </trkpt>
      <trkpt lat="46.50227" lon="0.34945">
        <ele>138.6</ele>
        <time>2021-01-24T09:06:22.000Z</time>
      </trkpt>
      <trkpt lat="46.50227" lon="0.34932">
        <ele>138.8</ele>
        <time>2021-01-24T09:06:23.000Z</time>
      </trkpt>
      <trkpt lat="46.50227" lon="0.34921">
        <ele>138.8</ele>
        <time>2021-01-24T09:06:24.000Z</time>
      </trkpt>
      <trkpt lat="46.50227" lon="0.34912">
        <ele>138.8</ele>
        <time>2021-01-24T09:06:25.000Z</time>
      </trkpt>
      <trkpt lat="46.50226" lon="0.34902">
        <ele>138.8</ele>
        <time>2021-01-24T09:06:26.000Z</time>
      </trkpt>
      <trkpt lat="46.50224" lon="0.34893">
        <ele>138.8</ele>
        <time>2021-01-24T09:06:27.000Z</time>
      </trkpt>
      <trkpt lat="46.50221" lon="0.34885">
        <ele>139</ele>
        <time>2021-01-24T09:06:28.000Z</time>
      </trkpt>
      <trkpt lat="46.50217" lon="0.34879">
        <ele>139</ele>
        <time>2021-01-24T09:06:29.000Z</time>
      </trkpt>
      <trkpt lat="46.50212" lon="0.34874">
        <ele>139</ele>
        <time>2021-01-24T09:06:30.000Z</time>
      </trkpt>
      <trkpt lat="46.50207" lon="0.3487">
        <ele>139</ele>
        <time>2021-01-24T09:06:31.000Z</time>
      </trkpt>
      <trkpt lat="46.502" lon="0.34866">
        <ele>139.2</ele>
        <time>2021-01-24T09:06:32.000Z</time>
      </trkpt>
      <trkpt lat="46.50196" lon="0.34864">
        <ele>139.2</ele>
        <time>2021-01-24T09:06:33.000Z</time>
      </trkpt>
      <trkpt lat="46.5019" lon="0.34862">
        <ele>139.2</ele>
        <time>2021-01-24T09:06:34.000Z</time>
      </trkpt>
      <trkpt lat="46.50189" lon="0.34861">
        <ele>139</ele>
        <time>2021-01-24T09:06:35.000Z</time>
      </trkpt>
      <trkpt lat="46.50187" lon="0.34861">
        <ele>139</ele>
        <time>2021-01-24T09:06:36.000Z</time>
      </trkpt>
      <trkpt lat="46.50187" lon="0.34861">
        <ele>139</ele>
        <time>2021-01-24T09:06:37.000Z</time>
      </trkpt>
      <trkpt lat="46.50184" lon="0.34861">
        <ele>139</ele>
        <time>2021-01-24T09:06:38.000Z</time>
      </trkpt>
      <trkpt lat="46.50184" lon="0.34861">
        <ele>139</ele>
        <time>2021-01-24T09:06:39.000Z</time>
      </trkpt>
      <trkpt lat="46.50183" lon="0.34862">
        <ele>139</ele>
        <time>2021-01-24T09:06:40.000Z</time>
      </trkpt>
      <trkpt lat="46.50183" lon="0.34862">
        <ele>139</ele>
        <time>2021-01-24T09:06:41.000Z</time>
      </trkpt>
      <trkpt lat="46.50183" lon="0.34862">
        <ele>139</ele>
        <time>2021-01-24T09:06:42.000Z</time>
      </trkpt>
      <trkpt lat="46.50184" lon="0.34864">
        <ele>139</ele>
        <time>2021-01-24T09:06:43.000Z</time>
      </trkpt>
      <trkpt lat="46.50184" lon="0.34864">
        <ele>138.8</ele>
        <time>2021-01-24T09:06:44.000Z</time>
      </trkpt>
      <trkpt lat="46.50184" lon="0.34864">
        <ele>138.8</ele>
        <time>2021-01-24T09:06:45.000Z</time>
      </trkpt>
      <trkpt lat="46.50184" lon="0.34864">
        <ele>138.8</ele>
        <time>2021-01-24T09:06:46.000Z</time>
      </trkpt>
      <trkpt lat="46.50184" lon="0.34864">
        <ele>138.6</ele>
        <time>2021-01-24T09:06:47.000Z</time>
      </trkpt>
      <trkpt lat="46.50184" lon="0.34864">
        <ele>138.6</ele>
        <time>2021-01-24T09:06:48.000Z</time>
      </trkpt>
      <trkpt lat="46.50184" lon="0.34864">
        <ele>138.4</ele>
        <time>2021-01-24T09:06:49.000Z</time>
      </trkpt>
      <trkpt lat="46.50184" lon="0.34864">
        <ele>138.4</ele>
        <time>2021-01-24T09:06:50.000Z</time>
      </trkpt>
      <trkpt lat="46.50184" lon="0.34864">
        <ele>138.4</ele>
        <time>2021-01-24T09:06:51.000Z</time>
      </trkpt>
      <trkpt lat="46.50184" lon="0.34864">
        <ele>138.4</ele>
        <time>2021-01-24T09:06:52.000Z</time>
      </trkpt>
      <trkpt lat="46.50184" lon="0.34864">
        <ele>138.2</ele>
        <time>2021-01-24T09:06:53.000Z</time>
      </trkpt>
      <trkpt lat="46.50184" lon="0.34864">
        <ele>138.2</ele>
        <time>2021-01-24T09:06:54.000Z</time>
      </trkpt>
      <trkpt lat="46.50184" lon="0.34864">
        <ele>138.2</ele>
        <time>2021-01-24T09:06:55.000Z</time>
      </trkpt>
      <trkpt lat="46.50184" lon="0.34864">
        <ele>138.2</ele>
        <time>2021-01-24T09:06:56.000Z</time>
      </trkpt>
      <trkpt lat="46.50184" lon="0.34864">
        <ele>138</ele>
        <time>2021-01-24T09:06:57.000Z</time>
      </trkpt>
      <trkpt lat="46.50184" lon="0.34864">
        <ele>138</ele>
        <time>2021-01-24T09:06:58.000Z</time>
      </trkpt>
      <trkpt lat="46.50184" lon="0.34864">
        <ele>138</ele>
        <time>2021-01-24T09:06:59.000Z</time>
      </trkpt>
      <trkpt lat="46.50184" lon="0.34864">
        <ele>138</ele>
        <time>2021-01-24T09:07:00.000Z</time>
      </trkpt>
      <trkpt lat="46.50184" lon="0.34864">
        <ele>137.8</ele>
        <time>2021-01-24T09:07:01.000Z</time>
      </trkpt>
      <trkpt lat="46.50184" lon="0.34864">
        <ele>137.8</ele>
        <time>2021-01-24T09:07:02.000Z</time>
      </trkpt>
      <trkpt lat="46.50184" lon="0.34864">
        <ele>137.8</ele>
        <time>2021-01-24T09:07:03.000Z</time>
      </trkpt>
      <trkpt lat="46.50184" lon="0.34864">
        <ele>137.8</ele>
        <time>2021-01-24T09:07:04.000Z</time>
      </trkpt>
      <trkpt lat="46.50184" lon="0.34864">
        <ele>137.6</ele>
        <time>2021-01-24T09:07:05.000Z</time>
      </trkpt>
      <trkpt lat="46.50184" lon="0.34864">
        <ele>137.6</ele>
        <time>2021-01-24T09:07:06.000Z</time>
      </trkpt>
      <trkpt lat="46.50184" lon="0.34864">
        <ele>137.6</ele>
        <time>2021-01-24T09:07:07.000Z</time>
      </trkpt>
      <trkpt lat="46.50184" lon="0.34864">
        <ele>137.6</ele>
        <time>2021-01-24T09:07:08.000Z</time>
      </trkpt>
      <trkpt lat="46.50184" lon="0.34864">
        <ele>137.4</ele>
        <time>2021-01-24T09:07:09.000Z</time>
      </trkpt>
      <trkpt lat="46.50184" lon="0.34864">
        <ele>137.4</ele>
        <time>2021-01-24T09:07:10.000Z</time>
      </trkpt>
      <trkpt lat="46.50184" lon="0.34864">
        <ele>137.4</ele>
        <time>2021-01-24T09:07:11.000Z</time>
      </trkpt>
      <trkpt lat="46.50184" lon="0.34864">
        <ele>137.4</ele>
        <time>2021-01-24T09:07:12.000Z</time>
      </trkpt>
      <trkpt lat="46.50184" lon="0.34864">
        <ele>137.4</ele>
        <time>2021-01-24T09:07:13.000Z</time>
      </trkpt>
      <trkpt lat="46.50184" lon="0.34864">
        <ele>137.2</ele>
        <time>2021-01-24T09:07:14.000Z</time>
      </trkpt>
      <trkpt lat="46.50184" lon="0.34864">
        <ele>137.2</ele>
        <time>2021-01-24T09:07:15.000Z</time>
      </trkpt>
      <trkpt lat="46.50184" lon="0.34864">
        <ele>137.2</ele>
        <time>2021-01-24T09:07:16.000Z</time>
      </trkpt>
      <trkpt lat="46.50184" lon="0.34864">
        <ele>137.2</ele>
        <time>2021-01-24T09:07:17.000Z</time>
      </trkpt>
      <trkpt lat="46.50184" lon="0.34864">
        <ele>137.2</ele>
        <time>2021-01-24T09:07:18.000Z</time>
      </trkpt>
      <trkpt lat="46.50184" lon="0.34864">
        <ele>137</ele>
        <time>2021-01-24T09:07:19.000Z</time>
      </trkpt>
      <trkpt lat="46.50184" lon="0.34864">
        <ele>137</ele>
        <time>2021-01-24T09:07:20.000Z</time>
      </trkpt>
      <trkpt lat="46.50184" lon="0.34864">
        <ele>137</ele>
        <time>2021-01-24T09:07:21.000Z</time>
      </trkpt>
      <trkpt lat="46.50184" lon="0.34864">
        <ele>137</ele>
        <time>2021-01-24T09:07:22.000Z</time>
      </trkpt>
      <trkpt lat="46.50184" lon="0.34864">
        <ele>137</ele>
        <time>2021-01-24T09:07:23.000Z</time>
      </trkpt>
      <trkpt lat="46.50184" lon="0.34864">
        <ele>136.8</ele>
        <time>2021-01-24T09:07:24.000Z</time>
      </trkpt>
      <trkpt lat="46.50184" lon="0.34864">
        <ele>136.8</ele>
        <time>2021-01-24T09:07:25.000Z</time>
      </trkpt>
      <trkpt lat="46.50184" lon="0.34864">
        <ele>136.8</ele>
        <time>2021-01-24T09:07:26.000Z</time>
      </trkpt>
      <trkpt lat="46.50184" lon="0.34864">
        <ele>136.8</ele>
        <time>2021-01-24T09:07:27.000Z</time>
      </trkpt>
      <trkpt lat="46.50184" lon="0.34864">
        <ele>136.8</ele>
        <time>2021-01-24T09:07:28.000Z</time>
      </trkpt>
      <trkpt lat="46.50184" lon="0.34864">
        <ele>136.8</ele>
        <time>2021-01-24T09:07:29.000Z</time>
      </trkpt>
      <trkpt lat="46.50184" lon="0.34864">
        <ele>136.6</ele>
        <time>2021-01-24T09:07:30.000Z</time>
      </trkpt>
      <trkpt lat="46.50184" lon="0.34864">
        <ele>136.6</ele>
        <time>2021-01-24T09:07:31.000Z</time>
      </trkpt>
      <trkpt lat="46.50184" lon="0.34864">
        <ele>136.6</ele>
        <time>2021-01-24T09:07:32.000Z</time>
      </trkpt>
      <trkpt lat="46.50184" lon="0.34864">
        <ele>136.6</ele>
        <time>2021-01-24T09:07:33.000Z</time>
      </trkpt>
      <trkpt lat="46.50184" lon="0.34864">
        <ele>136.6</ele>
        <time>2021-01-24T09:07:34.000Z</time>
      </trkpt>
      <trkpt lat="46.50184" lon="0.34864">
        <ele>136.6</ele>
        <time>2021-01-24T09:07:35.000Z</time>
      </trkpt>
      <trkpt lat="46.50184" lon="0.34864">
        <ele>136.6</ele>
        <time>2021-01-24T09:07:36.000Z</time>
      </trkpt>
      <trkpt lat="46.50184" lon="0.34864">
        <ele>136.4</ele>
        <time>2021-01-24T09:07:37.000Z</time>
      </trkpt>
      <trkpt lat="46.50184" lon="0.34864">
        <ele>136.4</ele>
        <time>2021-01-24T09:07:38.000Z</time>
      </trkpt>
      <trkpt lat="46.50184" lon="0.34864">
        <ele>136.4</ele>
        <time>2021-01-24T09:07:39.000Z</time>
      </trkpt>
      <trkpt lat="46.50184" lon="0.34864">
        <ele>136.4</ele>
        <time>2021-01-24T09:07:40.000Z</time>
      </trkpt>
      <trkpt lat="46.50184" lon="0.34864">
        <ele>136.4</ele>
        <time>2021-01-24T09:07:41.000Z</time>
      </trkpt>
      <trkpt lat="46.50184" lon="0.34864">
        <ele>136.4</ele>
        <time>2021-01-24T09:07:42.000Z</time>
      </trkpt>
      <trkpt lat="46.50184" lon="0.34864">
        <ele>136.4</ele>
        <time>2021-01-24T09:07:43.000Z</time>
      </trkpt>
      <trkpt lat="46.50184" lon="0.34864">
        <ele>136.4</ele>
        <time>2021-01-24T09:07:44.000Z</time>
      </trkpt>
      <trkpt lat="46.50184" lon="0.34864">
        <ele>136.2</ele>
        <time>2021-01-24T09:07:45.000Z</time>
      </trkpt>
      <trkpt lat="46.50184" lon="0.34864">
        <ele>136.2</ele>
        <time>2021-01-24T09:07:46.000Z</time>
      </trkpt>
      <trkpt lat="46.50184" lon="0.34864">
        <ele>136.2</ele>
        <time>2021-01-24T09:07:47.000Z</time>
      </trkpt>
      <trkpt lat="46.50184" lon="0.34864">
        <ele>136.2</ele>
        <time>2021-01-24T09:07:48.000Z</time>
      </trkpt>
      <trkpt lat="46.50184" lon="0.34864">
        <ele>136.2</ele>
        <time>2021-01-24T09:07:49.000Z</time>
      </trkpt>
      <trkpt lat="46.50184" lon="0.34864">
        <ele>136.2</ele>
        <time>2021-01-24T09:07:50.000Z</time>
      </trkpt>
      <trkpt lat="46.50184" lon="0.34864">
        <ele>136.2</ele>
        <time>2021-01-24T09:07:51.000Z</time>
      </trkpt>
      <trkpt lat="46.50184" lon="0.34864">
        <ele>136.2</ele>
        <time>2021-01-24T09:07:52.000Z</time>
      </trkpt>
      <trkpt lat="46.50184" lon="0.34864">
        <ele>136.2</ele>
        <time>2021-01-24T09:07:53.000Z</time>
      </trkpt>
      <trkpt lat="46.50184" lon="0.34864">
        <ele>136.2</ele>
        <time>2021-01-24T09:07:54.000Z</time>
      </trkpt>
      <trkpt lat="46.50184" lon="0.34864">
        <ele>136.2</ele>
        <time>2021-01-24T09:07:55.000Z</time>
      </trkpt>
      <trkpt lat="46.50184" lon="0.34864">
        <ele>136</ele>
        <time>2021-01-24T09:07:56.000Z</time>
      </trkpt>
      <trkpt lat="46.50184" lon="0.34864">
        <ele>136</ele>
        <time>2021-01-24T09:07:57.000Z</time>
      </trkpt>
      <trkpt lat="46.50184" lon="0.34864">
        <ele>136</ele>
        <time>2021-01-24T09:07:58.000Z</time>
      </trkpt>
      <trkpt lat="46.50184" lon="0.34864">
        <ele>136</ele>
        <time>2021-01-24T09:07:59.000Z</time>
      </trkpt>
      <trkpt lat="46.50184" lon="0.34864">
        <ele>136</ele>
        <time>2021-01-24T09:08:00.000Z</time>
      </trkpt>
      <trkpt lat="46.50184" lon="0.34864">
        <ele>136</ele>
        <time>2021-01-24T09:08:01.000Z</time>
      </trkpt>
      <trkpt lat="46.50184" lon="0.34864">
        <ele>136</ele>
        <time>2021-01-24T09:08:02.000Z</time>
      </trkpt>
      <trkpt lat="46.50184" lon="0.34864">
        <ele>136</ele>
        <time>2021-01-24T09:08:03.000Z</time>
      </trkpt>
      <trkpt lat="46.50184" lon="0.34864">
        <ele>136</ele>
        <time>2021-01-24T09:08:04.000Z</time>
      </trkpt>
      <trkpt lat="46.50184" lon="0.34864">
        <ele>136</ele>
        <time>2021-01-24T09:08:05.000Z</time>
      </trkpt>
      <trkpt lat="46.50184" lon="0.34864">
        <ele>136</ele>
        <time>2021-01-24T09:08:06.000Z</time>
      </trkpt>
      <trkpt lat="46.50184" lon="0.34864">
        <ele>136</ele>
        <time>2021-01-24T09:08:07.000Z</time>
      </trkpt>
      <trkpt lat="46.50184" lon="0.34864">
        <ele>136</ele>
        <time>2021-01-24T09:08:08.000Z</time>
      </trkpt>
      <trkpt lat="46.50184" lon="0.34864">
        <ele>136</ele>
        <time>2021-01-24T09:08:09.000Z</time>
      </trkpt>
      <trkpt lat="46.50184" lon="0.34864">
        <ele>136</ele>
        <time>2021-01-24T09:08:10.000Z</time>
      </trkpt>
      <trkpt lat="46.50184" lon="0.34864">
        <ele>136</ele>
        <time>2021-01-24T09:08:11.000Z</time>
      </trkpt>
      <trkpt lat="46.50184" lon="0.34864">
        <ele>136</ele>
        <time>2021-01-24T09:08:12.000Z</time>
      </trkpt>
      <trkpt lat="46.50184" lon="0.34864">
        <ele>136</ele>
        <time>2021-01-24T09:08:13.000Z</time>
      </trkpt>
      <trkpt lat="46.50184" lon="0.34864">
        <ele>136</ele>
        <time>2021-01-24T09:08:14.000Z</time>
      </trkpt>
      <trkpt lat="46.50184" lon="0.34864">
        <ele>136</ele>
        <time>2021-01-24T09:08:15.000Z</time>
      </trkpt>
      <trkpt lat="46.50184" lon="0.34864">
        <ele>136</ele>
        <time>2021-01-24T09:08:16.000Z</time>
      </trkpt>
      <trkpt lat="46.50184" lon="0.34864">
        <ele>135.8</ele>
        <time>2021-01-24T09:08:17.000Z</time>
      </trkpt>
      <trkpt lat="46.50184" lon="0.34864">
        <ele>135.8</ele>
        <time>2021-01-24T09:08:18.000Z</time>
      </trkpt>
      <trkpt lat="46.50184" lon="0.34864">
        <ele>135.8</ele>
        <time>2021-01-24T09:08:19.000Z</time>
      </trkpt>
      <trkpt lat="46.50184" lon="0.34864">
        <ele>135.8</ele>
        <time>2021-01-24T09:08:20.000Z</time>
      </trkpt>
      <trkpt lat="46.50184" lon="0.34864">
        <ele>135.8</ele>
        <time>2021-01-24T09:08:21.000Z</time>
      </trkpt>
      <trkpt lat="46.50184" lon="0.34864">
        <ele>135.8</ele>
        <time>2021-01-24T09:08:22.000Z</time>
      </trkpt>
      <trkpt lat="46.50184" lon="0.34864">
        <ele>135.8</ele>
        <time>2021-01-24T09:08:23.000Z</time>
      </trkpt>
      <trkpt lat="46.50184" lon="0.34864">
        <ele>135.8</ele>
        <time>2021-01-24T09:08:24.000Z</time>
      </trkpt>
      <trkpt lat="46.50184" lon="0.34864">
        <ele>135.8</ele>
        <time>2021-01-24T09:08:25.000Z</time>
      </trkpt>
      <trkpt lat="46.50184" lon="0.34864">
        <ele>135.8</ele>
        <time>2021-01-24T09:08:26.000Z</time>
      </trkpt>
      <trkpt lat="46.50184" lon="0.34864">
        <ele>135.8</ele>
        <time>2021-01-24T09:08:27.000Z</time>
      </trkpt>
      <trkpt lat="46.50184" lon="0.34864">
        <ele>135.8</ele>
        <time>2021-01-24T09:08:28.000Z</time>
      </trkpt>
      <trkpt lat="46.50184" lon="0.34864">
        <ele>135.8</ele>
        <time>2021-01-24T09:08:29.000Z</time>
      </trkpt>
      <trkpt lat="46.50184" lon="0.34864">
        <ele>135.8</ele>
        <time>2021-01-24T09:08:30.000Z</time>
      </trkpt>
      <trkpt lat="46.50184" lon="0.34864">
        <ele>135.8</ele>
        <time>2021-01-24T09:08:31.000Z</time>
      </trkpt>
      <trkpt lat="46.50184" lon="0.34864">
        <ele>135.8</ele>
        <time>2021-01-24T09:08:32.000Z</time>
      </trkpt>
      <trkpt lat="46.50184" lon="0.34864">
        <ele>135.8</ele>
        <time>2021-01-24T09:08:33.000Z</time>
      </trkpt>
      <trkpt lat="46.50184" lon="0.34864">
        <ele>135.8</ele>
        <time>2021-01-24T09:08:34.000Z</time>
      </trkpt>
      <trkpt lat="46.50184" lon="0.34864">
        <ele>135.8</ele>
        <time>2021-01-24T09:08:35.000Z</time>
      </trkpt>
      <trkpt lat="46.50184" lon="0.34864">
        <ele>135.8</ele>
        <time>2021-01-24T09:08:36.000Z</time>
      </trkpt>
      <trkpt lat="46.50184" lon="0.34864">
        <ele>135.8</ele>
        <time>2021-01-24T09:08:37.000Z</time>
      </trkpt>
      <trkpt lat="46.50184" lon="0.34864">
        <ele>135.8</ele>
        <time>2021-01-24T09:08:38.000Z</time>
      </trkpt>
      <trkpt lat="46.50184" lon="0.34864">
        <ele>135.8</ele>
        <time>2021-01-24T09:08:39.000Z</time>
      </trkpt>
      <trkpt lat="46.50184" lon="0.34864">
        <ele>135.6</ele>
        <time>2021-01-24T09:08:40.000Z</time>
      </trkpt>
      <trkpt lat="46.50184" lon="0.34864">
        <ele>135.6</ele>
        <time>2021-01-24T09:08:41.000Z</time>
      </trkpt>
      <trkpt lat="46.50184" lon="0.34864">
        <ele>135.6</ele>
        <time>2021-01-24T09:08:42.000Z</time>
      </trkpt>
      <trkpt lat="46.50184" lon="0.34864">
        <ele>135.6</ele>
        <time>2021-01-24T09:08:43.000Z</time>
      </trkpt>
      <trkpt lat="46.50184" lon="0.34864">
        <ele>135.6</ele>
        <time>2021-01-24T09:08:44.000Z</time>
      </trkpt>
      <trkpt lat="46.50184" lon="0.34864">
        <ele>135.6</ele>
        <time>2021-01-24T09:08:45.000Z</time>
      </trkpt>
      <trkpt lat="46.50184" lon="0.34864">
        <ele>135.6</ele>
        <time>2021-01-24T09:08:46.000Z</time>
      </trkpt>
      <trkpt lat="46.50184" lon="0.34864">
        <ele>135.6</ele>
        <time>2021-01-24T09:08:47.000Z</time>
      </trkpt>
      <trkpt lat="46.50184" lon="0.34864">
        <ele>135.6</ele>
        <time>2021-01-24T09:08:48.000Z</time>
      </trkpt>
      <trkpt lat="46.50184" lon="0.34864">
        <ele>135.6</ele>
        <time>2021-01-24T09:08:49.000Z</time>
      </trkpt>
      <trkpt lat="46.50184" lon="0.34864">
        <ele>135.6</ele>
        <time>2021-01-24T09:08:50.000Z</time>
      </trkpt>
      <trkpt lat="46.50184" lon="0.34864">
        <ele>135.6</ele>
        <time>2021-01-24T09:08:51.000Z</time>
      </trkpt>
      <trkpt lat="46.50184" lon="0.34864">
        <ele>135.6</ele>
        <time>2021-01-24T09:08:52.000Z</time>
      </trkpt>
      <trkpt lat="46.50184" lon="0.34864">
        <ele>135.6</ele>
        <time>2021-01-24T09:08:53.000Z</time>
      </trkpt>
      <trkpt lat="46.50184" lon="0.34864">
        <ele>135.6</ele>
        <time>2021-01-24T09:08:54.000Z</time>
      </trkpt>
      <trkpt lat="46.50184" lon="0.34864">
        <ele>135.6</ele>
        <time>2021-01-24T09:08:55.000Z</time>
      </trkpt>
      <trkpt lat="46.50184" lon="0.34864">
        <ele>135.6</ele>
        <time>2021-01-24T09:08:56.000Z</time>
      </trkpt>
      <trkpt lat="46.50184" lon="0.34864">
        <ele>135.6</ele>
        <time>2021-01-24T09:08:57.000Z</time>
      </trkpt>
      <trkpt lat="46.50184" lon="0.34864">
        <ele>135.6</ele>
        <time>2021-01-24T09:08:58.000Z</time>
      </trkpt>
      <trkpt lat="46.50184" lon="0.34864">
        <ele>135.6</ele>
        <time>2021-01-24T09:08:59.000Z</time>
      </trkpt>
      <trkpt lat="46.50184" lon="0.34864">
        <ele>135.6</ele>
        <time>2021-01-24T09:09:00.000Z</time>
      </trkpt>
      <trkpt lat="46.50184" lon="0.34864">
        <ele>135.6</ele>
        <time>2021-01-24T09:09:01.000Z</time>
      </trkpt>
      <trkpt lat="46.50184" lon="0.34864">
        <ele>135.6</ele>
        <time>2021-01-24T09:09:02.000Z</time>
      </trkpt>
      <trkpt lat="46.50184" lon="0.34864">
        <ele>135.6</ele>
        <time>2021-01-24T09:09:03.000Z</time>
      </trkpt>
      <trkpt lat="46.50184" lon="0.34864">
        <ele>135.6</ele>
        <time>2021-01-24T09:09:04.000Z</time>
      </trkpt>
      <trkpt lat="46.50184" lon="0.34864">
        <ele>135.6</ele>
        <time>2021-01-24T09:09:05.000Z</time>
      </trkpt>
      <trkpt lat="46.50184" lon="0.34864">
        <ele>135.6</ele>
        <time>2021-01-24T09:09:07.000Z</time>
      </trkpt>
      <trkpt lat="46.50184" lon="0.34864">
        <ele>135.6</ele>
        <time>2021-01-24T09:09:08.000Z</time>
      </trkpt>
      <trkpt lat="46.50184" lon="0.34864">
        <ele>135.6</ele>
        <time>2021-01-24T09:09:09.000Z</time>
      </trkpt>
      <trkpt lat="46.50184" lon="0.34864">
        <ele>135.6</ele>
        <time>2021-01-24T09:09:10.000Z</time>
      </trkpt>
      <trkpt lat="46.50184" lon="0.34864">
        <ele>135.6</ele>
        <time>2021-01-24T09:09:11.000Z</time>
      </trkpt>
      <trkpt lat="46.50184" lon="0.34864">
        <ele>135.6</ele>
        <time>2021-01-24T09:09:12.000Z</time>
      </trkpt>
      <trkpt lat="46.50184" lon="0.34864">
        <ele>135.6</ele>
        <time>2021-01-24T09:09:13.000Z</time>
      </trkpt>
      <trkpt lat="46.50184" lon="0.34864">
        <ele>135.6</ele>
        <time>2021-01-24T09:09:14.000Z</time>
      </trkpt>
      <trkpt lat="46.50184" lon="0.34864">
        <ele>135.6</ele>
        <time>2021-01-24T09:09:15.000Z</time>
      </trkpt>
      <trkpt lat="46.50186" lon="0.34866">
        <ele>135.6</ele>
        <time>2021-01-24T09:09:16.000Z</time>
      </trkpt>
      <trkpt lat="46.50184" lon="0.34865">
        <ele>135.6</ele>
        <time>2021-01-24T09:09:17.000Z</time>
      </trkpt>
      <trkpt lat="46.50182" lon="0.34864">
        <ele>135.6</ele>
        <time>2021-01-24T09:09:18.000Z</time>
      </trkpt>
      <trkpt lat="46.5018" lon="0.34864">
        <ele>135.6</ele>
        <time>2021-01-24T09:09:19.000Z</time>
      </trkpt>
      <trkpt lat="46.50177" lon="0.34863">
        <ele>135.6</ele>
        <time>2021-01-24T09:09:20.000Z</time>
      </trkpt>
      <trkpt lat="46.50174" lon="0.34862">
        <ele>135.6</ele>
        <time>2021-01-24T09:09:21.000Z</time>
      </trkpt>
      <trkpt lat="46.50172" lon="0.34861">
        <ele>135.6</ele>
        <time>2021-01-24T09:09:22.000Z</time>
      </trkpt>
      <trkpt lat="46.50169" lon="0.34861">
        <ele>135.6</ele>
        <time>2021-01-24T09:09:23.000Z</time>
      </trkpt>
      <trkpt lat="46.50167" lon="0.3486">
        <ele>135.4</ele>
        <time>2021-01-24T09:09:24.000Z</time>
      </trkpt>
      <trkpt lat="46.50165" lon="0.34859">
        <ele>135.4</ele>
        <time>2021-01-24T09:09:25.000Z</time>
      </trkpt>
      <trkpt lat="46.50161" lon="0.34858">
        <ele>135.4</ele>
        <time>2021-01-24T09:09:26.000Z</time>
      </trkpt>
      <trkpt lat="46.50159" lon="0.34857">
        <ele>135.2</ele>
        <time>2021-01-24T09:09:27.000Z</time>
      </trkpt>
      <trkpt lat="46.50155" lon="0.34855">
        <ele>135.2</ele>
        <time>2021-01-24T09:09:28.000Z</time>
      </trkpt>
      <trkpt lat="46.50152" lon="0.34854">
        <ele>135.2</ele>
        <time>2021-01-24T09:09:29.000Z</time>
      </trkpt>
      <trkpt lat="46.50148" lon="0.34852">
        <ele>135.2</ele>
        <time>2021-01-24T09:09:30.000Z</time>
      </trkpt>
      <trkpt lat="46.50143" lon="0.34851">
        <ele>135</ele>
        <time>2021-01-24T09:09:31.000Z</time>
      </trkpt>
      <trkpt lat="46.50141" lon="0.34849">
        <ele>135.2</ele>
        <time>2021-01-24T09:09:32.000Z</time>
      </trkpt>
      <trkpt lat="46.50137" lon="0.34848">
        <ele>135.2</ele>
        <time>2021-01-24T09:09:33.000Z</time>
      </trkpt>
      <trkpt lat="46.50133" lon="0.34846">
        <ele>135.2</ele>
        <time>2021-01-24T09:09:34.000Z</time>
      </trkpt>
      <trkpt lat="46.50129" lon="0.34845">
        <ele>135.2</ele>
        <time>2021-01-24T09:09:35.000Z</time>
      </trkpt>
      <trkpt lat="46.50125" lon="0.34842">
        <ele>135.4</ele>
        <time>2021-01-24T09:09:36.000Z</time>
      </trkpt>
      <trkpt lat="46.50119" lon="0.3484">
        <ele>135.4</ele>
        <time>2021-01-24T09:09:37.000Z</time>
      </trkpt>
      <trkpt lat="46.50115" lon="0.34838">
        <ele>135.4</ele>
        <time>2021-01-24T09:09:38.000Z</time>
      </trkpt>
      <trkpt lat="46.50111" lon="0.34837">
        <ele>135.6</ele>
        <time>2021-01-24T09:09:39.000Z</time>
      </trkpt>
      <trkpt lat="46.50105" lon="0.34835">
        <ele>135.6</ele>
        <time>2021-01-24T09:09:40.000Z</time>
      </trkpt>
      <trkpt lat="46.50102" lon="0.34833">
        <ele>135.6</ele>
        <time>2021-01-24T09:09:41.000Z</time>
      </trkpt>
      <trkpt lat="46.50097" lon="0.34831">
        <ele>135.8</ele>
        <time>2021-01-24T09:09:42.000Z</time>
      </trkpt>
      <trkpt lat="46.50092" lon="0.3483">
        <ele>135.8</ele>
        <time>2021-01-24T09:09:43.000Z</time>
      </trkpt>
      <trkpt lat="46.50088" lon="0.34828">
        <ele>135.6</ele>
        <time>2021-01-24T09:09:44.000Z</time>
      </trkpt>
      <trkpt lat="46.50082" lon="0.34826">
        <ele>135.6</ele>
        <time>2021-01-24T09:09:45.000Z</time>
      </trkpt>
      <trkpt lat="46.50077" lon="0.34825">
        <ele>135.6</ele>
        <time>2021-01-24T09:09:46.000Z</time>
      </trkpt>
      <trkpt lat="46.50072" lon="0.34823">
        <ele>135.6</ele>
        <time>2021-01-24T09:09:47.000Z</time>
      </trkpt>
      <trkpt lat="46.50066" lon="0.34821">
        <ele>135.6</ele>
        <time>2021-01-24T09:09:48.000Z</time>
      </trkpt>
      <trkpt lat="46.50061" lon="0.3482">
        <ele>135.6</ele>
        <time>2021-01-24T09:09:49.000Z</time>
      </trkpt>
      <trkpt lat="46.50056" lon="0.34818">
        <ele>135.6</ele>
        <time>2021-01-24T09:09:50.000Z</time>
      </trkpt>
      <trkpt lat="46.50049" lon="0.34816">
        <ele>135.6</ele>
        <time>2021-01-24T09:09:51.000Z</time>
      </trkpt>
      <trkpt lat="46.50046" lon="0.34815">
        <ele>135.6</ele>
        <time>2021-01-24T09:09:52.000Z</time>
      </trkpt>
      <trkpt lat="46.5004" lon="0.34813">
        <ele>135.6</ele>
        <time>2021-01-24T09:09:53.000Z</time>
      </trkpt>
      <trkpt lat="46.50034" lon="0.34811">
        <ele>135.6</ele>
        <time>2021-01-24T09:09:54.000Z</time>
      </trkpt>
      <trkpt lat="46.50028" lon="0.34809">
        <ele>135.6</ele>
        <time>2021-01-24T09:09:55.000Z</time>
      </trkpt>
      <trkpt lat="46.50021" lon="0.34807">
        <ele>135.6</ele>
        <time>2021-01-24T09:09:56.000Z</time>
      </trkpt>
      <trkpt lat="46.50014" lon="0.34806">
        <ele>135.6</ele>
        <time>2021-01-24T09:09:57.000Z</time>
      </trkpt>
      <trkpt lat="46.50006" lon="0.34806">
        <ele>135.6</ele>
        <time>2021-01-24T09:09:58.000Z</time>
      </trkpt>
      <trkpt lat="46.49999" lon="0.34807">
        <ele>135.6</ele>
        <time>2021-01-24T09:09:59.000Z</time>
      </trkpt>
      <trkpt lat="46.49992" lon="0.34808">
        <ele>135.4</ele>
        <time>2021-01-24T09:10:00.000Z</time>
      </trkpt>
      <trkpt lat="46.49983" lon="0.34808">
        <ele>135.4</ele>
        <time>2021-01-24T09:10:01.000Z</time>
      </trkpt>
      <trkpt lat="46.49977" lon="0.34806">
        <ele>135.4</ele>
        <time>2021-01-24T09:10:02.000Z</time>
      </trkpt>
      <trkpt lat="46.49968" lon="0.34804">
        <ele>135.4</ele>
        <time>2021-01-24T09:10:03.000Z</time>
      </trkpt>
      <trkpt lat="46.4996" lon="0.34802">
        <ele>135.6</ele>
        <time>2021-01-24T09:10:04.000Z</time>
      </trkpt>
      <trkpt lat="46.49953" lon="0.34801">
        <ele>135.4</ele>
        <time>2021-01-24T09:10:05.000Z</time>
      </trkpt>
      <trkpt lat="46.49946" lon="0.34801">
        <ele>135.4</ele>
        <time>2021-01-24T09:10:06.000Z</time>
      </trkpt>
      <trkpt lat="46.49937" lon="0.34802">
        <ele>135.4</ele>
        <time>2021-01-24T09:10:07.000Z</time>
      </trkpt>
      <trkpt lat="46.49929" lon="0.34803">
        <ele>135.4</ele>
        <time>2021-01-24T09:10:08.000Z</time>
      </trkpt>
      <trkpt lat="46.49923" lon="0.34804">
        <ele>135.2</ele>
        <time>2021-01-24T09:10:09.000Z</time>
      </trkpt>
      <trkpt lat="46.49914" lon="0.34807">
        <ele>135</ele>
        <time>2021-01-24T09:10:10.000Z</time>
      </trkpt>
      <trkpt lat="46.49907" lon="0.3481">
        <ele>135</ele>
        <time>2021-01-24T09:10:11.000Z</time>
      </trkpt>
      <trkpt lat="46.49899" lon="0.34813">
        <ele>134.8</ele>
        <time>2021-01-24T09:10:12.000Z</time>
      </trkpt>
      <trkpt lat="46.49893" lon="0.34815">
        <ele>134.6</ele>
        <time>2021-01-24T09:10:13.000Z</time>
      </trkpt>
      <trkpt lat="46.49882" lon="0.34818">
        <ele>134.4</ele>
        <time>2021-01-24T09:10:14.000Z</time>
      </trkpt>
      <trkpt lat="46.49875" lon="0.3482">
        <ele>134.4</ele>
        <time>2021-01-24T09:10:15.000Z</time>
      </trkpt>
      <trkpt lat="46.49865" lon="0.34823">
        <ele>134.2</ele>
        <time>2021-01-24T09:10:16.000Z</time>
      </trkpt>
      <trkpt lat="46.49858" lon="0.34825">
        <ele>134</ele>
        <time>2021-01-24T09:10:17.000Z</time>
      </trkpt>
      <trkpt lat="46.49851" lon="0.34827">
        <ele>134</ele>
        <time>2021-01-24T09:10:18.000Z</time>
      </trkpt>
      <trkpt lat="46.49843" lon="0.34829">
        <ele>133.8</ele>
        <time>2021-01-24T09:10:19.000Z</time>
      </trkpt>
      <trkpt lat="46.49835" lon="0.34832">
        <ele>133.6</ele>
        <time>2021-01-24T09:10:20.000Z</time>
      </trkpt>
      <trkpt lat="46.49827" lon="0.34835">
        <ele>133.4</ele>
        <time>2021-01-24T09:10:21.000Z</time>
      </trkpt>
      <trkpt lat="46.49818" lon="0.34838">
        <ele>133.2</ele>
        <time>2021-01-24T09:10:22.000Z</time>
      </trkpt>
      <trkpt lat="46.49811" lon="0.34841">
        <ele>133</ele>
        <time>2021-01-24T09:10:23.000Z</time>
      </trkpt>
      <trkpt lat="46.49804" lon="0.34843">
        <ele>132.8</ele>
        <time>2021-01-24T09:10:24.000Z</time>
      </trkpt>
      <trkpt lat="46.49797" lon="0.34845">
        <ele>132.6</ele>
        <time>2021-01-24T09:10:25.000Z</time>
      </trkpt>
      <trkpt lat="46.49792" lon="0.34847">
        <ele>132.4</ele>
        <time>2021-01-24T09:10:26.000Z</time>
      </trkpt>
      <trkpt lat="46.49785" lon="0.3485">
        <ele>132.2</ele>
        <time>2021-01-24T09:10:27.000Z</time>
      </trkpt>
      <trkpt lat="46.4978" lon="0.34852">
        <ele>132.2</ele>
        <time>2021-01-24T09:10:28.000Z</time>
      </trkpt>
      <trkpt lat="46.49776" lon="0.34853">
        <ele>132</ele>
        <time>2021-01-24T09:10:29.000Z</time>
      </trkpt>
      <trkpt lat="46.49772" lon="0.34853">
        <ele>131.8</ele>
        <time>2021-01-24T09:10:30.000Z</time>
      </trkpt>
      <trkpt lat="46.49766" lon="0.34854">
        <ele>131.8</ele>
        <time>2021-01-24T09:10:31.000Z</time>
      </trkpt>
      <trkpt lat="46.49764" lon="0.34854">
        <ele>131.6</ele>
        <time>2021-01-24T09:10:32.000Z</time>
      </trkpt>
      <trkpt lat="46.49758" lon="0.34855">
        <ele>131.4</ele>
        <time>2021-01-24T09:10:33.000Z</time>
      </trkpt>
      <trkpt lat="46.49756" lon="0.34856">
        <ele>131.4</ele>
        <time>2021-01-24T09:10:34.000Z</time>
      </trkpt>
      <trkpt lat="46.49751" lon="0.34857">
        <ele>131.4</ele>
        <time>2021-01-24T09:10:35.000Z</time>
      </trkpt>
      <trkpt lat="46.49746" lon="0.34857">
        <ele>131.4</ele>
        <time>2021-01-24T09:10:36.000Z</time>
      </trkpt>
      <trkpt lat="46.49743" lon="0.34858">
        <ele>131.4</ele>
        <time>2021-01-24T09:10:37.000Z</time>
      </trkpt>
      <trkpt lat="46.4974" lon="0.34859">
        <ele>131.4</ele>
        <time>2021-01-24T09:10:38.000Z</time>
      </trkpt>
      <trkpt lat="46.49736" lon="0.34859">
        <ele>131.6</ele>
        <time>2021-01-24T09:10:39.000Z</time>
      </trkpt>
      <trkpt lat="46.49732" lon="0.34859">
        <ele>131.6</ele>
        <time>2021-01-24T09:10:40.000Z</time>
      </trkpt>
      <trkpt lat="46.49729" lon="0.34858">
        <ele>131.6</ele>
        <time>2021-01-24T09:10:41.000Z</time>
      </trkpt>
      <trkpt lat="46.49726" lon="0.34859">
        <ele>131.6</ele>
        <time>2021-01-24T09:10:42.000Z</time>
      </trkpt>
      <trkpt lat="46.49722" lon="0.34859">
        <ele>131.8</ele>
        <time>2021-01-24T09:10:43.000Z</time>
      </trkpt>
      <trkpt lat="46.49718" lon="0.3486">
        <ele>131.8</ele>
        <time>2021-01-24T09:10:44.000Z</time>
      </trkpt>
      <trkpt lat="46.49715" lon="0.34861">
        <ele>131.8</ele>
        <time>2021-01-24T09:10:45.000Z</time>
      </trkpt>
      <trkpt lat="46.4971" lon="0.3486">
        <ele>131.8</ele>
        <time>2021-01-24T09:10:46.000Z</time>
      </trkpt>
      <trkpt lat="46.49706" lon="0.34859">
        <ele>132</ele>
        <time>2021-01-24T09:10:47.000Z</time>
      </trkpt>
      <trkpt lat="46.49702" lon="0.34857">
        <ele>132</ele>
        <time>2021-01-24T09:10:48.000Z</time>
      </trkpt>
      <trkpt lat="46.49699" lon="0.34855">
        <ele>132</ele>
        <time>2021-01-24T09:10:49.000Z</time>
      </trkpt>
      <trkpt lat="46.49694" lon="0.34852">
        <ele>132</ele>
        <time>2021-01-24T09:10:50.000Z</time>
      </trkpt>
      <trkpt lat="46.49689" lon="0.34849">
        <ele>132</ele>
        <time>2021-01-24T09:10:51.000Z</time>
      </trkpt>
      <trkpt lat="46.49684" lon="0.34847">
        <ele>132</ele>
        <time>2021-01-24T09:10:52.000Z</time>
      </trkpt>
      <trkpt lat="46.4968" lon="0.34846">
        <ele>132</ele>
        <time>2021-01-24T09:10:53.000Z</time>
      </trkpt>
      <trkpt lat="46.49674" lon="0.34845">
        <ele>132</ele>
        <time>2021-01-24T09:10:54.000Z</time>
      </trkpt>
      <trkpt lat="46.49669" lon="0.34844">
        <ele>131.8</ele>
        <time>2021-01-24T09:10:55.000Z</time>
      </trkpt>
      <trkpt lat="46.49663" lon="0.34844">
        <ele>131.8</ele>
        <time>2021-01-24T09:10:56.000Z</time>
      </trkpt>
      <trkpt lat="46.4966" lon="0.34843">
        <ele>131.8</ele>
        <time>2021-01-24T09:10:57.000Z</time>
      </trkpt>
      <trkpt lat="46.49656" lon="0.34843">
        <ele>131.6</ele>
        <time>2021-01-24T09:10:58.000Z</time>
      </trkpt>
      <trkpt lat="46.49653" lon="0.34843">
        <ele>131.6</ele>
        <time>2021-01-24T09:10:59.000Z</time>
      </trkpt>
      <trkpt lat="46.49649" lon="0.34843">
        <ele>131.4</ele>
        <time>2021-01-24T09:11:00.000Z</time>
      </trkpt>
      <trkpt lat="46.49646" lon="0.34842">
        <ele>131.4</ele>
        <time>2021-01-24T09:11:01.000Z</time>
      </trkpt>
      <trkpt lat="46.49642" lon="0.34841">
        <ele>131.4</ele>
        <time>2021-01-24T09:11:02.000Z</time>
      </trkpt>
      <trkpt lat="46.49638" lon="0.3484">
        <ele>131.4</ele>
        <time>2021-01-24T09:11:03.000Z</time>
      </trkpt>
      <trkpt lat="46.49634" lon="0.3484">
        <ele>131.2</ele>
        <time>2021-01-24T09:11:04.000Z</time>
      </trkpt>
      <trkpt lat="46.49629" lon="0.3484">
        <ele>131.2</ele>
        <time>2021-01-24T09:11:05.000Z</time>
      </trkpt>
      <trkpt lat="46.49626" lon="0.3484">
        <ele>131.2</ele>
        <time>2021-01-24T09:11:06.000Z</time>
      </trkpt>
      <trkpt lat="46.49622" lon="0.34839">
        <ele>131.2</ele>
        <time>2021-01-24T09:11:07.000Z</time>
      </trkpt>
      <trkpt lat="46.49619" lon="0.3484">
        <ele>131.2</ele>
        <time>2021-01-24T09:11:08.000Z</time>
      </trkpt>
      <trkpt lat="46.49615" lon="0.3484">
        <ele>131.2</ele>
        <time>2021-01-24T09:11:09.000Z</time>
      </trkpt>
      <trkpt lat="46.49612" lon="0.3484">
        <ele>131.2</ele>
        <time>2021-01-24T09:11:10.000Z</time>
      </trkpt>
      <trkpt lat="46.49608" lon="0.34841">
        <ele>131</ele>
        <time>2021-01-24T09:11:11.000Z</time>
      </trkpt>
      <trkpt lat="46.49605" lon="0.34841">
        <ele>131</ele>
        <time>2021-01-24T09:11:12.000Z</time>
      </trkpt>
      <trkpt lat="46.49601" lon="0.34841">
        <ele>131</ele>
        <time>2021-01-24T09:11:13.000Z</time>
      </trkpt>
      <trkpt lat="46.49597" lon="0.34842">
        <ele>131</ele>
        <time>2021-01-24T09:11:14.000Z</time>
      </trkpt>
      <trkpt lat="46.49593" lon="0.34842">
        <ele>131</ele>
        <time>2021-01-24T09:11:15.000Z</time>
      </trkpt>
      <trkpt lat="46.49589" lon="0.34841">
        <ele>131</ele>
        <time>2021-01-24T09:11:16.000Z</time>
      </trkpt>
      <trkpt lat="46.49587" lon="0.34841">
        <ele>131.2</ele>
        <time>2021-01-24T09:11:17.000Z</time>
      </trkpt>
      <trkpt lat="46.49583" lon="0.3484">
        <ele>131.2</ele>
        <time>2021-01-24T09:11:18.000Z</time>
      </trkpt>
      <trkpt lat="46.49579" lon="0.3484">
        <ele>131.2</ele>
        <time>2021-01-24T09:11:19.000Z</time>
      </trkpt>
      <trkpt lat="46.49575" lon="0.3484">
        <ele>131.2</ele>
        <time>2021-01-24T09:11:20.000Z</time>
      </trkpt>
      <trkpt lat="46.4957" lon="0.3484">
        <ele>131.2</ele>
        <time>2021-01-24T09:11:21.000Z</time>
      </trkpt>
      <trkpt lat="46.49565" lon="0.34841">
        <ele>131.2</ele>
        <time>2021-01-24T09:11:22.000Z</time>
      </trkpt>
      <trkpt lat="46.49561" lon="0.3484">
        <ele>131.4</ele>
        <time>2021-01-24T09:11:23.000Z</time>
      </trkpt>
      <trkpt lat="46.49557" lon="0.3484">
        <ele>131.4</ele>
        <time>2021-01-24T09:11:24.000Z</time>
      </trkpt>
      <trkpt lat="46.49552" lon="0.3484">
        <ele>131.4</ele>
        <time>2021-01-24T09:11:25.000Z</time>
      </trkpt>
      <trkpt lat="46.49548" lon="0.3484">
        <ele>131.4</ele>
        <time>2021-01-24T09:11:26.000Z</time>
      </trkpt>
      <trkpt lat="46.49542" lon="0.3484">
        <ele>131.6</ele>
        <time>2021-01-24T09:11:27.000Z</time>
      </trkpt>
      <trkpt lat="46.49537" lon="0.34839">
        <ele>131.6</ele>
        <time>2021-01-24T09:11:28.000Z</time>
      </trkpt>
      <trkpt lat="46.49531" lon="0.34839">
        <ele>131.6</ele>
        <time>2021-01-24T09:11:29.000Z</time>
      </trkpt>
      <trkpt lat="46.49526" lon="0.34839">
        <ele>131.6</ele>
        <time>2021-01-24T09:11:30.000Z</time>
      </trkpt>
      <trkpt lat="46.49522" lon="0.3484">
        <ele>131.6</ele>
        <time>2021-01-24T09:11:31.000Z</time>
      </trkpt>
      <trkpt lat="46.49517" lon="0.3484">
        <ele>131.6</ele>
        <time>2021-01-24T09:11:32.000Z</time>
      </trkpt>
      <trkpt lat="46.49511" lon="0.3484">
        <ele>131.6</ele>
        <time>2021-01-24T09:11:33.000Z</time>
      </trkpt>
      <trkpt lat="46.49506" lon="0.34841">
        <ele>131.6</ele>
        <time>2021-01-24T09:11:34.000Z</time>
      </trkpt>
      <trkpt lat="46.49501" lon="0.34841">
        <ele>131.6</ele>
        <time>2021-01-24T09:11:35.000Z</time>
      </trkpt>
      <trkpt lat="46.49496" lon="0.34842">
        <ele>131.6</ele>
        <time>2021-01-24T09:11:36.000Z</time>
      </trkpt>
      <trkpt lat="46.49492" lon="0.34843">
        <ele>131.6</ele>
        <time>2021-01-24T09:11:37.000Z</time>
      </trkpt>
      <trkpt lat="46.49488" lon="0.34843">
        <ele>131.6</ele>
        <time>2021-01-24T09:11:38.000Z</time>
      </trkpt>
      <trkpt lat="46.49484" lon="0.34843">
        <ele>131.4</ele>
        <time>2021-01-24T09:11:39.000Z</time>
      </trkpt>
      <trkpt lat="46.4948" lon="0.34843">
        <ele>131.4</ele>
        <time>2021-01-24T09:11:40.000Z</time>
      </trkpt>
      <trkpt lat="46.49476" lon="0.34843">
        <ele>131.4</ele>
        <time>2021-01-24T09:11:41.000Z</time>
      </trkpt>
      <trkpt lat="46.49472" lon="0.34842">
        <ele>131.2</ele>
        <time>2021-01-24T09:11:42.000Z</time>
      </trkpt>
      <trkpt lat="46.49467" lon="0.34841">
        <ele>131.2</ele>
        <time>2021-01-24T09:11:43.000Z</time>
      </trkpt>
      <trkpt lat="46.49463" lon="0.34841">
        <ele>131.2</ele>
        <time>2021-01-24T09:11:44.000Z</time>
      </trkpt>
      <trkpt lat="46.49459" lon="0.34841">
        <ele>131</ele>
        <time>2021-01-24T09:11:45.000Z</time>
      </trkpt>
      <trkpt lat="46.49455" lon="0.3484">
        <ele>131</ele>
        <time>2021-01-24T09:11:46.000Z</time>
      </trkpt>
      <trkpt lat="46.49451" lon="0.34839">
        <ele>130.8</ele>
        <time>2021-01-24T09:11:47.000Z</time>
      </trkpt>
      <trkpt lat="46.49447" lon="0.34838">
        <ele>130.6</ele>
        <time>2021-01-24T09:11:48.000Z</time>
      </trkpt>
      <trkpt lat="46.49443" lon="0.34838">
        <ele>130.4</ele>
        <time>2021-01-24T09:11:49.000Z</time>
      </trkpt>
      <trkpt lat="46.49438" lon="0.34837">
        <ele>130.2</ele>
        <time>2021-01-24T09:11:50.000Z</time>
      </trkpt>
      <trkpt lat="46.49434" lon="0.34837">
        <ele>130.2</ele>
        <time>2021-01-24T09:11:51.000Z</time>
      </trkpt>
      <trkpt lat="46.49429" lon="0.34836">
        <ele>130</ele>
        <time>2021-01-24T09:11:52.000Z</time>
      </trkpt>
      <trkpt lat="46.49425" lon="0.34836">
        <ele>129.8</ele>
        <time>2021-01-24T09:11:53.000Z</time>
      </trkpt>
      <trkpt lat="46.4942" lon="0.34835">
        <ele>129.6</ele>
        <time>2021-01-24T09:11:54.000Z</time>
      </trkpt>
      <trkpt lat="46.49415" lon="0.34835">
        <ele>129.6</ele>
        <time>2021-01-24T09:11:55.000Z</time>
      </trkpt>
      <trkpt lat="46.4941" lon="0.34834">
        <ele>129.4</ele>
        <time>2021-01-24T09:11:56.000Z</time>
      </trkpt>
      <trkpt lat="46.49405" lon="0.34834">
        <ele>129.4</ele>
        <time>2021-01-24T09:11:57.000Z</time>
      </trkpt>
      <trkpt lat="46.49399" lon="0.34834">
        <ele>129.2</ele>
        <time>2021-01-24T09:11:58.000Z</time>
      </trkpt>
      <trkpt lat="46.49395" lon="0.34834">
        <ele>129.2</ele>
        <time>2021-01-24T09:11:59.000Z</time>
      </trkpt>
      <trkpt lat="46.4939" lon="0.34833">
        <ele>129</ele>
        <time>2021-01-24T09:12:00.000Z</time>
      </trkpt>
      <trkpt lat="46.49385" lon="0.34833">
        <ele>128.8</ele>
        <time>2021-01-24T09:12:01.000Z</time>
      </trkpt>
      <trkpt lat="46.49382" lon="0.34832">
        <ele>128.8</ele>
        <time>2021-01-24T09:12:02.000Z</time>
      </trkpt>
      <trkpt lat="46.49378" lon="0.34831">
        <ele>128.6</ele>
        <time>2021-01-24T09:12:03.000Z</time>
      </trkpt>
      <trkpt lat="46.49374" lon="0.3483">
        <ele>128.4</ele>
        <time>2021-01-24T09:12:04.000Z</time>
      </trkpt>
      <trkpt lat="46.4937" lon="0.3483">
        <ele>128.4</ele>
        <time>2021-01-24T09:12:05.000Z</time>
      </trkpt>
      <trkpt lat="46.49366" lon="0.34829">
        <ele>128.2</ele>
        <time>2021-01-24T09:12:06.000Z</time>
      </trkpt>
      <trkpt lat="46.49361" lon="0.34828">
        <ele>128.2</ele>
        <time>2021-01-24T09:12:07.000Z</time>
      </trkpt>
      <trkpt lat="46.49357" lon="0.34827">
        <ele>128</ele>
        <time>2021-01-24T09:12:08.000Z</time>
      </trkpt>
      <trkpt lat="46.4935" lon="0.34822">
        <ele>128</ele>
        <time>2021-01-24T09:12:09.000Z</time>
      </trkpt>
      <trkpt lat="46.49346" lon="0.34818">
        <ele>128</ele>
        <time>2021-01-24T09:12:10.000Z</time>
      </trkpt>
      <trkpt lat="46.49341" lon="0.34813">
        <ele>127.8</ele>
        <time>2021-01-24T09:12:11.000Z</time>
      </trkpt>
      <trkpt lat="46.49335" lon="0.34805">
        <ele>127.8</ele>
        <time>2021-01-24T09:12:12.000Z</time>
      </trkpt>
      <trkpt lat="46.49332" lon="0.34798">
        <ele>127.6</ele>
        <time>2021-01-24T09:12:13.000Z</time>
      </trkpt>
      <trkpt lat="46.49327" lon="0.34789">
        <ele>127.6</ele>
        <time>2021-01-24T09:12:14.000Z</time>
      </trkpt>
      <trkpt lat="46.49322" lon="0.34781">
        <ele>127.4</ele>
        <time>2021-01-24T09:12:15.000Z</time>
      </trkpt>
      <trkpt lat="46.49317" lon="0.34773">
        <ele>127.4</ele>
        <time>2021-01-24T09:12:16.000Z</time>
      </trkpt>
      <trkpt lat="46.49313" lon="0.34765">
        <ele>127.4</ele>
        <time>2021-01-24T09:12:17.000Z</time>
      </trkpt>
      <trkpt lat="46.49309" lon="0.34757">
        <ele>127.4</ele>
        <time>2021-01-24T09:12:18.000Z</time>
      </trkpt>
      <trkpt lat="46.49305" lon="0.34749">
        <ele>127.2</ele>
        <time>2021-01-24T09:12:19.000Z</time>
      </trkpt>
      <trkpt lat="46.49302" lon="0.34743">
        <ele>127.2</ele>
        <time>2021-01-24T09:12:20.000Z</time>
      </trkpt>
      <trkpt lat="46.49299" lon="0.3474">
        <ele>127.2</ele>
        <time>2021-01-24T09:12:21.000Z</time>
      </trkpt>
      <trkpt lat="46.49297" lon="0.34738">
        <ele>127.2</ele>
        <time>2021-01-24T09:12:22.000Z</time>
      </trkpt>
      <trkpt lat="46.49295" lon="0.34735">
        <ele>127</ele>
        <time>2021-01-24T09:12:23.000Z</time>
      </trkpt>
      <trkpt lat="46.49293" lon="0.34732">
        <ele>127</ele>
        <time>2021-01-24T09:12:24.000Z</time>
      </trkpt>
      <trkpt lat="46.49292" lon="0.3473">
        <ele>127</ele>
        <time>2021-01-24T09:12:25.000Z</time>
      </trkpt>
      <trkpt lat="46.49292" lon="0.3473">
        <ele>127</ele>
        <time>2021-01-24T09:12:26.000Z</time>
      </trkpt>
      <trkpt lat="46.4929" lon="0.34722">
        <ele>126.8</ele>
        <time>2021-01-24T09:12:27.000Z</time>
      </trkpt>
      <trkpt lat="46.4929" lon="0.3472">
        <ele>126.8</ele>
        <time>2021-01-24T09:12:28.000Z</time>
      </trkpt>
      <trkpt lat="46.49287" lon="0.34715">
        <ele>126.8</ele>
        <time>2021-01-24T09:12:29.000Z</time>
      </trkpt>
      <trkpt lat="46.49285" lon="0.34712">
        <ele>126.6</ele>
        <time>2021-01-24T09:12:30.000Z</time>
      </trkpt>
      <trkpt lat="46.49282" lon="0.34709">
        <ele>126.6</ele>
        <time>2021-01-24T09:12:31.000Z</time>
      </trkpt>
      <trkpt lat="46.49278" lon="0.34705">
        <ele>126.6</ele>
        <time>2021-01-24T09:12:32.000Z</time>
      </trkpt>
      <trkpt lat="46.49275" lon="0.34702">
        <ele>126.6</ele>
        <time>2021-01-24T09:12:33.000Z</time>
      </trkpt>
      <trkpt lat="46.49273" lon="0.34699">
        <ele>126.6</ele>
        <time>2021-01-24T09:12:34.000Z</time>
      </trkpt>
      <trkpt lat="46.49269" lon="0.34696">
        <ele>126.4</ele>
        <time>2021-01-24T09:12:35.000Z</time>
      </trkpt>
      <trkpt lat="46.49267" lon="0.34692">
        <ele>126.4</ele>
        <time>2021-01-24T09:12:36.000Z</time>
      </trkpt>
      <trkpt lat="46.49263" lon="0.34688">
        <ele>126.4</ele>
        <time>2021-01-24T09:12:37.000Z</time>
      </trkpt>
      <trkpt lat="46.49259" lon="0.34684">
        <ele>126.2</ele>
        <time>2021-01-24T09:12:38.000Z</time>
      </trkpt>
      <trkpt lat="46.49256" lon="0.34681">
        <ele>126.2</ele>
        <time>2021-01-24T09:12:39.000Z</time>
      </trkpt>
      <trkpt lat="46.49252" lon="0.34677">
        <ele>126</ele>
        <time>2021-01-24T09:12:40.000Z</time>
      </trkpt>
      <trkpt lat="46.49248" lon="0.34673">
        <ele>126</ele>
        <time>2021-01-24T09:12:41.000Z</time>
      </trkpt>
      <trkpt lat="46.49245" lon="0.3467">
        <ele>126</ele>
        <time>2021-01-24T09:12:42.000Z</time>
      </trkpt>
      <trkpt lat="46.49242" lon="0.34665">
        <ele>125.8</ele>
        <time>2021-01-24T09:12:43.000Z</time>
      </trkpt>
      <trkpt lat="46.49238" lon="0.34661">
        <ele>125.8</ele>
        <time>2021-01-24T09:12:44.000Z</time>
      </trkpt>
      <trkpt lat="46.49234" lon="0.34657">
        <ele>125.6</ele>
        <time>2021-01-24T09:12:45.000Z</time>
      </trkpt>
      <trkpt lat="46.49231" lon="0.34653">
        <ele>125.6</ele>
        <time>2021-01-24T09:12:46.000Z</time>
      </trkpt>
      <trkpt lat="46.49226" lon="0.34648">
        <ele>125.4</ele>
        <time>2021-01-24T09:12:47.000Z</time>
      </trkpt>
      <trkpt lat="46.49221" lon="0.34644">
        <ele>125.4</ele>
        <time>2021-01-24T09:12:48.000Z</time>
      </trkpt>
      <trkpt lat="46.49216" lon="0.34639">
        <ele>125.2</ele>
        <time>2021-01-24T09:12:49.000Z</time>
      </trkpt>
      <trkpt lat="46.49213" lon="0.34635">
        <ele>125.2</ele>
        <time>2021-01-24T09:12:50.000Z</time>
      </trkpt>
      <trkpt lat="46.49209" lon="0.34631">
        <ele>125</ele>
        <time>2021-01-24T09:12:51.000Z</time>
      </trkpt>
      <trkpt lat="46.49205" lon="0.34625">
        <ele>125</ele>
        <time>2021-01-24T09:12:52.000Z</time>
      </trkpt>
      <trkpt lat="46.49201" lon="0.34621">
        <ele>124.8</ele>
        <time>2021-01-24T09:12:53.000Z</time>
      </trkpt>
      <trkpt lat="46.49197" lon="0.34615">
        <ele>124.8</ele>
        <time>2021-01-24T09:12:54.000Z</time>
      </trkpt>
      <trkpt lat="46.49192" lon="0.34609">
        <ele>124.6</ele>
        <time>2021-01-24T09:12:55.000Z</time>
      </trkpt>
      <trkpt lat="46.49185" lon="0.34602">
        <ele>124.6</ele>
        <time>2021-01-24T09:12:56.000Z</time>
      </trkpt>
      <trkpt lat="46.49178" lon="0.34596">
        <ele>124.4</ele>
        <time>2021-01-24T09:12:57.000Z</time>
      </trkpt>
      <trkpt lat="46.49173" lon="0.3459">
        <ele>124.4</ele>
        <time>2021-01-24T09:12:58.000Z</time>
      </trkpt>
      <trkpt lat="46.49168" lon="0.34584">
        <ele>124.2</ele>
        <time>2021-01-24T09:12:59.000Z</time>
      </trkpt>
      <trkpt lat="46.49164" lon="0.34579">
        <ele>124</ele>
        <time>2021-01-24T09:13:00.000Z</time>
      </trkpt>
      <trkpt lat="46.4916" lon="0.34575">
        <ele>124</ele>
        <time>2021-01-24T09:13:01.000Z</time>
      </trkpt>
      <trkpt lat="46.49156" lon="0.34571">
        <ele>123.8</ele>
        <time>2021-01-24T09:13:02.000Z</time>
      </trkpt>
      <trkpt lat="46.49153" lon="0.34568">
        <ele>123.6</ele>
        <time>2021-01-24T09:13:03.000Z</time>
      </trkpt>
      <trkpt lat="46.4915" lon="0.34565">
        <ele>123.6</ele>
        <time>2021-01-24T09:13:04.000Z</time>
      </trkpt>
      <trkpt lat="46.49148" lon="0.34561">
        <ele>123.4</ele>
        <time>2021-01-24T09:13:05.000Z</time>
      </trkpt>
      <trkpt lat="46.49147" lon="0.34557">
        <ele>123.2</ele>
        <time>2021-01-24T09:13:06.000Z</time>
      </trkpt>
      <trkpt lat="46.49144" lon="0.34553">
        <ele>123</ele>
        <time>2021-01-24T09:13:07.000Z</time>
      </trkpt>
      <trkpt lat="46.4914" lon="0.34546">
        <ele>123</ele>
        <time>2021-01-24T09:13:08.000Z</time>
      </trkpt>
      <trkpt lat="46.49138" lon="0.34541">
        <ele>122.8</ele>
        <time>2021-01-24T09:13:09.000Z</time>
      </trkpt>
      <trkpt lat="46.49134" lon="0.34534">
        <ele>122.6</ele>
        <time>2021-01-24T09:13:10.000Z</time>
      </trkpt>
      <trkpt lat="46.49132" lon="0.34524">
        <ele>122.4</ele>
        <time>2021-01-24T09:13:11.000Z</time>
      </trkpt>
      <trkpt lat="46.4913" lon="0.34516">
        <ele>122.4</ele>
        <time>2021-01-24T09:13:12.000Z</time>
      </trkpt>
      <trkpt lat="46.49128" lon="0.34507">
        <ele>122.2</ele>
        <time>2021-01-24T09:13:13.000Z</time>
      </trkpt>
      <trkpt lat="46.49126" lon="0.34498">
        <ele>122</ele>
        <time>2021-01-24T09:13:14.000Z</time>
      </trkpt>
      <trkpt lat="46.49123" lon="0.34489">
        <ele>121.8</ele>
        <time>2021-01-24T09:13:15.000Z</time>
      </trkpt>
      <trkpt lat="46.4912" lon="0.3448">
        <ele>121.6</ele>
        <time>2021-01-24T09:13:16.000Z</time>
      </trkpt>
      <trkpt lat="46.49118" lon="0.3447">
        <ele>121.4</ele>
        <time>2021-01-24T09:13:17.000Z</time>
      </trkpt>
      <trkpt lat="46.49114" lon="0.34461">
        <ele>121.2</ele>
        <time>2021-01-24T09:13:18.000Z</time>
      </trkpt>
      <trkpt lat="46.49109" lon="0.34451">
        <ele>121</ele>
        <time>2021-01-24T09:13:19.000Z</time>
      </trkpt>
      <trkpt lat="46.49104" lon="0.3444">
        <ele>121</ele>
        <time>2021-01-24T09:13:20.000Z</time>
      </trkpt>
      <trkpt lat="46.491" lon="0.34432">
        <ele>120.6</ele>
        <time>2021-01-24T09:13:21.000Z</time>
      </trkpt>
      <trkpt lat="46.49097" lon="0.34423">
        <ele>120.4</ele>
        <time>2021-01-24T09:13:22.000Z</time>
      </trkpt>
      <trkpt lat="46.49093" lon="0.34415">
        <ele>120.2</ele>
        <time>2021-01-24T09:13:23.000Z</time>
      </trkpt>
      <trkpt lat="46.49089" lon="0.34407">
        <ele>119.8</ele>
        <time>2021-01-24T09:13:24.000Z</time>
      </trkpt>
      <trkpt lat="46.49086" lon="0.34399">
        <ele>119.6</ele>
        <time>2021-01-24T09:13:25.000Z</time>
      </trkpt>
      <trkpt lat="46.49082" lon="0.34391">
        <ele>119.4</ele>
        <time>2021-01-24T09:13:26.000Z</time>
      </trkpt>
      <trkpt lat="46.49079" lon="0.34384">
        <ele>119.2</ele>
        <time>2021-01-24T09:13:27.000Z</time>
      </trkpt>
      <trkpt lat="46.49077" lon="0.34378">
        <ele>119</ele>
        <time>2021-01-24T09:13:28.000Z</time>
      </trkpt>
      <trkpt lat="46.49073" lon="0.34371">
        <ele>118.8</ele>
        <time>2021-01-24T09:13:29.000Z</time>
      </trkpt>
      <trkpt lat="46.49069" lon="0.34364">
        <ele>118.8</ele>
        <time>2021-01-24T09:13:30.000Z</time>
      </trkpt>
      <trkpt lat="46.49068" lon="0.34358">
        <ele>118.6</ele>
        <time>2021-01-24T09:13:31.000Z</time>
      </trkpt>
      <trkpt lat="46.49067" lon="0.34353">
        <ele>118.4</ele>
        <time>2021-01-24T09:13:32.000Z</time>
      </trkpt>
      <trkpt lat="46.49066" lon="0.34349">
        <ele>118.2</ele>
        <time>2021-01-24T09:13:33.000Z</time>
      </trkpt>
      <trkpt lat="46.49064" lon="0.34343">
        <ele>118.2</ele>
        <time>2021-01-24T09:13:34.000Z</time>
      </trkpt>
      <trkpt lat="46.49061" lon="0.34335">
        <ele>117.8</ele>
        <time>2021-01-24T09:13:35.000Z</time>
      </trkpt>
      <trkpt lat="46.49058" lon="0.34327">
        <ele>117.6</ele>
        <time>2021-01-24T09:13:36.000Z</time>
      </trkpt>
      <trkpt lat="46.49055" lon="0.34321">
        <ele>117.4</ele>
        <time>2021-01-24T09:13:37.000Z</time>
      </trkpt>
      <trkpt lat="46.49051" lon="0.34313">
        <ele>117.2</ele>
        <time>2021-01-24T09:13:38.000Z</time>
      </trkpt>
      <trkpt lat="46.49048" lon="0.34306">
        <ele>117</ele>
        <time>2021-01-24T09:13:39.000Z</time>
      </trkpt>
      <trkpt lat="46.49045" lon="0.343">
        <ele>116.8</ele>
        <time>2021-01-24T09:13:40.000Z</time>
      </trkpt>
      <trkpt lat="46.49043" lon="0.34293">
        <ele>116.6</ele>
        <time>2021-01-24T09:13:41.000Z</time>
      </trkpt>
      <trkpt lat="46.49039" lon="0.34286">
        <ele>116.4</ele>
        <time>2021-01-24T09:13:42.000Z</time>
      </trkpt>
      <trkpt lat="46.49036" lon="0.34279">
        <ele>116.4</ele>
        <time>2021-01-24T09:13:43.000Z</time>
      </trkpt>
      <trkpt lat="46.49033" lon="0.34272">
        <ele>116.2</ele>
        <time>2021-01-24T09:13:44.000Z</time>
      </trkpt>
      <trkpt lat="46.49028" lon="0.34264">
        <ele>116</ele>
        <time>2021-01-24T09:13:45.000Z</time>
      </trkpt>
      <trkpt lat="46.49024" lon="0.34257">
        <ele>115.8</ele>
        <time>2021-01-24T09:13:46.000Z</time>
      </trkpt>
      <trkpt lat="46.49019" lon="0.34249">
        <ele>115.6</ele>
        <time>2021-01-24T09:13:47.000Z</time>
      </trkpt>
      <trkpt lat="46.49015" lon="0.34242">
        <ele>115.4</ele>
        <time>2021-01-24T09:13:48.000Z</time>
      </trkpt>
      <trkpt lat="46.49011" lon="0.34234">
        <ele>115.2</ele>
        <time>2021-01-24T09:13:49.000Z</time>
      </trkpt>
      <trkpt lat="46.49007" lon="0.34226">
        <ele>115</ele>
        <time>2021-01-24T09:13:50.000Z</time>
      </trkpt>
      <trkpt lat="46.49004" lon="0.34217">
        <ele>114.8</ele>
        <time>2021-01-24T09:13:51.000Z</time>
      </trkpt>
      <trkpt lat="46.49" lon="0.34209">
        <ele>114.6</ele>
        <time>2021-01-24T09:13:52.000Z</time>
      </trkpt>
      <trkpt lat="46.48996" lon="0.34201">
        <ele>114.4</ele>
        <time>2021-01-24T09:13:53.000Z</time>
      </trkpt>
      <trkpt lat="46.48991" lon="0.34194">
        <ele>114.2</ele>
        <time>2021-01-24T09:13:54.000Z</time>
      </trkpt>
      <trkpt lat="46.48987" lon="0.34187">
        <ele>114</ele>
        <time>2021-01-24T09:13:55.000Z</time>
      </trkpt>
      <trkpt lat="46.48983" lon="0.34181">
        <ele>114</ele>
        <time>2021-01-24T09:13:56.000Z</time>
      </trkpt>
      <trkpt lat="46.48979" lon="0.34175">
        <ele>113.8</ele>
        <time>2021-01-24T09:13:57.000Z</time>
      </trkpt>
      <trkpt lat="46.48976" lon="0.3417">
        <ele>113.6</ele>
        <time>2021-01-24T09:13:58.000Z</time>
      </trkpt>
      <trkpt lat="46.48973" lon="0.34164">
        <ele>113.4</ele>
        <time>2021-01-24T09:13:59.000Z</time>
      </trkpt>
      <trkpt lat="46.4897" lon="0.34158">
        <ele>113.2</ele>
        <time>2021-01-24T09:14:00.000Z</time>
      </trkpt>
      <trkpt lat="46.48968" lon="0.34152">
        <ele>113</ele>
        <time>2021-01-24T09:14:01.000Z</time>
      </trkpt>
      <trkpt lat="46.48965" lon="0.34146">
        <ele>113</ele>
        <time>2021-01-24T09:14:02.000Z</time>
      </trkpt>
      <trkpt lat="46.48962" lon="0.3414">
        <ele>112.6</ele>
        <time>2021-01-24T09:14:03.000Z</time>
      </trkpt>
      <trkpt lat="46.48959" lon="0.34135">
        <ele>112.4</ele>
        <time>2021-01-24T09:14:04.000Z</time>
      </trkpt>
      <trkpt lat="46.48954" lon="0.3413">
        <ele>112.2</ele>
        <time>2021-01-24T09:14:05.000Z</time>
      </trkpt>
      <trkpt lat="46.4895" lon="0.34125">
        <ele>112</ele>
        <time>2021-01-24T09:14:06.000Z</time>
      </trkpt>
      <trkpt lat="46.48943" lon="0.34121">
        <ele>111.8</ele>
        <time>2021-01-24T09:14:07.000Z</time>
      </trkpt>
      <trkpt lat="46.48937" lon="0.34118">
        <ele>111.6</ele>
        <time>2021-01-24T09:14:08.000Z</time>
      </trkpt>
      <trkpt lat="46.48932" lon="0.34116">
        <ele>111.6</ele>
        <time>2021-01-24T09:14:09.000Z</time>
      </trkpt>
      <trkpt lat="46.48925" lon="0.34113">
        <ele>111.4</ele>
        <time>2021-01-24T09:14:10.000Z</time>
      </trkpt>
      <trkpt lat="46.4892" lon="0.34113">
        <ele>111.2</ele>
        <time>2021-01-24T09:14:11.000Z</time>
      </trkpt>
      <trkpt lat="46.48918" lon="0.34111">
        <ele>111</ele>
        <time>2021-01-24T09:14:12.000Z</time>
      </trkpt>
      <trkpt lat="46.48916" lon="0.34108">
        <ele>111</ele>
        <time>2021-01-24T09:14:13.000Z</time>
      </trkpt>
      <trkpt lat="46.48914" lon="0.34105">
        <ele>110.8</ele>
        <time>2021-01-24T09:14:14.000Z</time>
      </trkpt>
      <trkpt lat="46.48912" lon="0.34102">
        <ele>110.8</ele>
        <time>2021-01-24T09:14:15.000Z</time>
      </trkpt>
      <trkpt lat="46.4891" lon="0.341">
        <ele>110.6</ele>
        <time>2021-01-24T09:14:16.000Z</time>
      </trkpt>
      <trkpt lat="46.48908" lon="0.34099">
        <ele>110.6</ele>
        <time>2021-01-24T09:14:17.000Z</time>
      </trkpt>
      <trkpt lat="46.48904" lon="0.34097">
        <ele>110.4</ele>
        <time>2021-01-24T09:14:18.000Z</time>
      </trkpt>
      <trkpt lat="46.48901" lon="0.34097">
        <ele>110.4</ele>
        <time>2021-01-24T09:14:19.000Z</time>
      </trkpt>
      <trkpt lat="46.48896" lon="0.34094">
        <ele>110.4</ele>
        <time>2021-01-24T09:14:20.000Z</time>
      </trkpt>
      <trkpt lat="46.48892" lon="0.34091">
        <ele>110.2</ele>
        <time>2021-01-24T09:14:21.000Z</time>
      </trkpt>
      <trkpt lat="46.48888" lon="0.34088">
        <ele>110.2</ele>
        <time>2021-01-24T09:14:22.000Z</time>
      </trkpt>
      <trkpt lat="46.48884" lon="0.34085">
        <ele>110</ele>
        <time>2021-01-24T09:14:23.000Z</time>
      </trkpt>
      <trkpt lat="46.4888" lon="0.34083">
        <ele>110</ele>
        <time>2021-01-24T09:14:24.000Z</time>
      </trkpt>
      <trkpt lat="46.48877" lon="0.34081">
        <ele>110</ele>
        <time>2021-01-24T09:14:25.000Z</time>
      </trkpt>
      <trkpt lat="46.48872" lon="0.34079">
        <ele>110</ele>
        <time>2021-01-24T09:14:26.000Z</time>
      </trkpt>
      <trkpt lat="46.48868" lon="0.34076">
        <ele>110</ele>
        <time>2021-01-24T09:14:27.000Z</time>
      </trkpt>
      <trkpt lat="46.48864" lon="0.34073">
        <ele>109.8</ele>
        <time>2021-01-24T09:14:28.000Z</time>
      </trkpt>
      <trkpt lat="46.48861" lon="0.3407">
        <ele>109.8</ele>
        <time>2021-01-24T09:14:29.000Z</time>
      </trkpt>
      <trkpt lat="46.48856" lon="0.34068">
        <ele>109.8</ele>
        <time>2021-01-24T09:14:30.000Z</time>
      </trkpt>
      <trkpt lat="46.48852" lon="0.34066">
        <ele>109.8</ele>
        <time>2021-01-24T09:14:31.000Z</time>
      </trkpt>
      <trkpt lat="46.48846" lon="0.34063">
        <ele>109.6</ele>
        <time>2021-01-24T09:14:32.000Z</time>
      </trkpt>
      <trkpt lat="46.48842" lon="0.34062">
        <ele>109.6</ele>
        <time>2021-01-24T09:14:33.000Z</time>
      </trkpt>
      <trkpt lat="46.48836" lon="0.34059">
        <ele>109.6</ele>
        <time>2021-01-24T09:14:34.000Z</time>
      </trkpt>
      <trkpt lat="46.48831" lon="0.34056">
        <ele>109.6</ele>
        <time>2021-01-24T09:14:35.000Z</time>
      </trkpt>
      <trkpt lat="46.48828" lon="0.34054">
        <ele>109.6</ele>
        <time>2021-01-24T09:14:36.000Z</time>
      </trkpt>
      <trkpt lat="46.48823" lon="0.34051">
        <ele>109.4</ele>
        <time>2021-01-24T09:14:37.000Z</time>
      </trkpt>
      <trkpt lat="46.48818" lon="0.34047">
        <ele>109.4</ele>
        <time>2021-01-24T09:14:38.000Z</time>
      </trkpt>
      <trkpt lat="46.48812" lon="0.34042">
        <ele>109.4</ele>
        <time>2021-01-24T09:14:39.000Z</time>
      </trkpt>
      <trkpt lat="46.48806" lon="0.34037">
        <ele>109.2</ele>
        <time>2021-01-24T09:14:40.000Z</time>
      </trkpt>
      <trkpt lat="46.48801" lon="0.34031">
        <ele>109.2</ele>
        <time>2021-01-24T09:14:41.000Z</time>
      </trkpt>
      <trkpt lat="46.48797" lon="0.34026">
        <ele>109</ele>
        <time>2021-01-24T09:14:42.000Z</time>
      </trkpt>
      <trkpt lat="46.48793" lon="0.34022">
        <ele>109</ele>
        <time>2021-01-24T09:14:43.000Z</time>
      </trkpt>
      <trkpt lat="46.48789" lon="0.34018">
        <ele>108.8</ele>
        <time>2021-01-24T09:14:44.000Z</time>
      </trkpt>
      <trkpt lat="46.48784" lon="0.34014">
        <ele>108.8</ele>
        <time>2021-01-24T09:14:45.000Z</time>
      </trkpt>
      <trkpt lat="46.48781" lon="0.34011">
        <ele>108.6</ele>
        <time>2021-01-24T09:14:46.000Z</time>
      </trkpt>
      <trkpt lat="46.48776" lon="0.34007">
        <ele>108.6</ele>
        <time>2021-01-24T09:14:47.000Z</time>
      </trkpt>
      <trkpt lat="46.48773" lon="0.34002">
        <ele>108.4</ele>
        <time>2021-01-24T09:14:48.000Z</time>
      </trkpt>
      <trkpt lat="46.48769" lon="0.33998">
        <ele>108.4</ele>
        <time>2021-01-24T09:14:49.000Z</time>
      </trkpt>
      <trkpt lat="46.48765" lon="0.33995">
        <ele>108.2</ele>
        <time>2021-01-24T09:14:50.000Z</time>
      </trkpt>
      <trkpt lat="46.48763" lon="0.33991">
        <ele>108</ele>
        <time>2021-01-24T09:14:51.000Z</time>
      </trkpt>
      <trkpt lat="46.48759" lon="0.33989">
        <ele>107.8</ele>
        <time>2021-01-24T09:14:52.000Z</time>
      </trkpt>
      <trkpt lat="46.48755" lon="0.33987">
        <ele>107.8</ele>
        <time>2021-01-24T09:14:53.000Z</time>
      </trkpt>
      <trkpt lat="46.48751" lon="0.33987">
        <ele>107.6</ele>
        <time>2021-01-24T09:14:54.000Z</time>
      </trkpt>
      <trkpt lat="46.48749" lon="0.33988">
        <ele>107.6</ele>
        <time>2021-01-24T09:14:55.000Z</time>
      </trkpt>
      <trkpt lat="46.48745" lon="0.33988">
        <ele>107.6</ele>
        <time>2021-01-24T09:14:56.000Z</time>
      </trkpt>
      <trkpt lat="46.48741" lon="0.33988">
        <ele>107.4</ele>
        <time>2021-01-24T09:14:57.000Z</time>
      </trkpt>
      <trkpt lat="46.4874" lon="0.33988">
        <ele>107.4</ele>
        <time>2021-01-24T09:14:58.000Z</time>
      </trkpt>
      <trkpt lat="46.4874" lon="0.33988">
        <ele>107.4</ele>
        <time>2021-01-24T09:14:59.000Z</time>
      </trkpt>
      <trkpt lat="46.48739" lon="0.33984">
        <ele>107.2</ele>
        <time>2021-01-24T09:15:00.000Z</time>
      </trkpt>
      <trkpt lat="46.48741" lon="0.33982">
        <ele>107.2</ele>
        <time>2021-01-24T09:15:01.000Z</time>
      </trkpt>
      <trkpt lat="46.48742" lon="0.33978">
        <ele>107</ele>
        <time>2021-01-24T09:15:02.000Z</time>
      </trkpt>
      <trkpt lat="46.48744" lon="0.33974">
        <ele>107</ele>
        <time>2021-01-24T09:15:03.000Z</time>
      </trkpt>
      <trkpt lat="46.48746" lon="0.3397">
        <ele>106.8</ele>
        <time>2021-01-24T09:15:04.000Z</time>
      </trkpt>
      <trkpt lat="46.48748" lon="0.33965">
        <ele>106.6</ele>
        <time>2021-01-24T09:15:05.000Z</time>
      </trkpt>
      <trkpt lat="46.48749" lon="0.3396">
        <ele>106.6</ele>
        <time>2021-01-24T09:15:06.000Z</time>
      </trkpt>
      <trkpt lat="46.4875" lon="0.33955">
        <ele>106.4</ele>
        <time>2021-01-24T09:15:07.000Z</time>
      </trkpt>
      <trkpt lat="46.48751" lon="0.3395">
        <ele>106.4</ele>
        <time>2021-01-24T09:15:08.000Z</time>
      </trkpt>
      <trkpt lat="46.48751" lon="0.33944">
        <ele>106.4</ele>
        <time>2021-01-24T09:15:09.000Z</time>
      </trkpt>
      <trkpt lat="46.48751" lon="0.33939">
        <ele>106.2</ele>
        <time>2021-01-24T09:15:10.000Z</time>
      </trkpt>
      <trkpt lat="46.48752" lon="0.33933">
        <ele>106.2</ele>
        <time>2021-01-24T09:15:11.000Z</time>
      </trkpt>
      <trkpt lat="46.48753" lon="0.33927">
        <ele>106.2</ele>
        <time>2021-01-24T09:15:12.000Z</time>
      </trkpt>
      <trkpt lat="46.48755" lon="0.3392">
        <ele>106.2</ele>
        <time>2021-01-24T09:15:13.000Z</time>
      </trkpt>
      <trkpt lat="46.48756" lon="0.33913">
        <ele>106.2</ele>
        <time>2021-01-24T09:15:14.000Z</time>
      </trkpt>
      <trkpt lat="46.48758" lon="0.33904">
        <ele>106.2</ele>
        <time>2021-01-24T09:15:15.000Z</time>
      </trkpt>
      <trkpt lat="46.48761" lon="0.33898">
        <ele>106</ele>
        <time>2021-01-24T09:15:16.000Z</time>
      </trkpt>
      <trkpt lat="46.48764" lon="0.3389">
        <ele>106</ele>
        <time>2021-01-24T09:15:17.000Z</time>
      </trkpt>
      <trkpt lat="46.48765" lon="0.33883">
        <ele>106</ele>
        <time>2021-01-24T09:15:18.000Z</time>
      </trkpt>
      <trkpt lat="46.48767" lon="0.33878">
        <ele>106</ele>
        <time>2021-01-24T09:15:19.000Z</time>
      </trkpt>
      <trkpt lat="46.48769" lon="0.33872">
        <ele>106</ele>
        <time>2021-01-24T09:15:20.000Z</time>
      </trkpt>
      <trkpt lat="46.48771" lon="0.33865">
        <ele>105.8</ele>
        <time>2021-01-24T09:15:21.000Z</time>
      </trkpt>
      <trkpt lat="46.48773" lon="0.33857">
        <ele>105.8</ele>
        <time>2021-01-24T09:15:22.000Z</time>
      </trkpt>
      <trkpt lat="46.48775" lon="0.33851">
        <ele>105.8</ele>
        <time>2021-01-24T09:15:23.000Z</time>
      </trkpt>
      <trkpt lat="46.48778" lon="0.33847">
        <ele>105.8</ele>
        <time>2021-01-24T09:15:24.000Z</time>
      </trkpt>
      <trkpt lat="46.4878" lon="0.3384">
        <ele>105.6</ele>
        <time>2021-01-24T09:15:25.000Z</time>
      </trkpt>
      <trkpt lat="46.48782" lon="0.33834">
        <ele>105.6</ele>
        <time>2021-01-24T09:15:26.000Z</time>
      </trkpt>
      <trkpt lat="46.48785" lon="0.33828">
        <ele>105.6</ele>
        <time>2021-01-24T09:15:27.000Z</time>
      </trkpt>
      <trkpt lat="46.48786" lon="0.33822">
        <ele>105.4</ele>
        <time>2021-01-24T09:15:28.000Z</time>
      </trkpt>
      <trkpt lat="46.48789" lon="0.33817">
        <ele>105.4</ele>
        <time>2021-01-24T09:15:29.000Z</time>
      </trkpt>
      <trkpt lat="46.48792" lon="0.33811">
        <ele>105.2</ele>
        <time>2021-01-24T09:15:30.000Z</time>
      </trkpt>
      <trkpt lat="46.48795" lon="0.33805">
        <ele>105.2</ele>
        <time>2021-01-24T09:15:31.000Z</time>
      </trkpt>
      <trkpt lat="46.48796" lon="0.33799">
        <ele>105.2</ele>
        <time>2021-01-24T09:15:32.000Z</time>
      </trkpt>
      <trkpt lat="46.48797" lon="0.33793">
        <ele>105</ele>
        <time>2021-01-24T09:15:33.000Z</time>
      </trkpt>
      <trkpt lat="46.48799" lon="0.33787">
        <ele>105</ele>
        <time>2021-01-24T09:15:34.000Z</time>
      </trkpt>
      <trkpt lat="46.48799" lon="0.33781">
        <ele>105</ele>
        <time>2021-01-24T09:15:35.000Z</time>
      </trkpt>
      <trkpt lat="46.48801" lon="0.33776">
        <ele>104.8</ele>
        <time>2021-01-24T09:15:36.000Z</time>
      </trkpt>
      <trkpt lat="46.48802" lon="0.33769">
        <ele>104.8</ele>
        <time>2021-01-24T09:15:37.000Z</time>
      </trkpt>
      <trkpt lat="46.48803" lon="0.33763">
        <ele>104.8</ele>
        <time>2021-01-24T09:15:38.000Z</time>
      </trkpt>
      <trkpt lat="46.48805" lon="0.33757">
        <ele>104.6</ele>
        <time>2021-01-24T09:15:39.000Z</time>
      </trkpt>
      <trkpt lat="46.48806" lon="0.3375">
        <ele>104.6</ele>
        <time>2021-01-24T09:15:40.000Z</time>
      </trkpt>
      <trkpt lat="46.48808" lon="0.33745">
        <ele>104.6</ele>
        <time>2021-01-24T09:15:41.000Z</time>
      </trkpt>
      <trkpt lat="46.48809" lon="0.33739">
        <ele>104.4</ele>
        <time>2021-01-24T09:15:42.000Z</time>
      </trkpt>
      <trkpt lat="46.48811" lon="0.33734">
        <ele>104.4</ele>
        <time>2021-01-24T09:15:43.000Z</time>
      </trkpt>
      <trkpt lat="46.48814" lon="0.33728">
        <ele>104.4</ele>
        <time>2021-01-24T09:15:44.000Z</time>
      </trkpt>
      <trkpt lat="46.48817" lon="0.33723">
        <ele>104.2</ele>
        <time>2021-01-24T09:15:45.000Z</time>
      </trkpt>
      <trkpt lat="46.48818" lon="0.33718">
        <ele>104.2</ele>
        <time>2021-01-24T09:15:46.000Z</time>
      </trkpt>
      <trkpt lat="46.48819" lon="0.33713">
        <ele>104</ele>
        <time>2021-01-24T09:15:47.000Z</time>
      </trkpt>
      <trkpt lat="46.48821" lon="0.33707">
        <ele>104</ele>
        <time>2021-01-24T09:15:48.000Z</time>
      </trkpt>
      <trkpt lat="46.48821" lon="0.33701">
        <ele>104</ele>
        <time>2021-01-24T09:15:49.000Z</time>
      </trkpt>
      <trkpt lat="46.48822" lon="0.33695">
        <ele>104</ele>
        <time>2021-01-24T09:15:50.000Z</time>
      </trkpt>
      <trkpt lat="46.48823" lon="0.33689">
        <ele>103.8</ele>
        <time>2021-01-24T09:15:51.000Z</time>
      </trkpt>
      <trkpt lat="46.48824" lon="0.33685">
        <ele>103.8</ele>
        <time>2021-01-24T09:15:52.000Z</time>
      </trkpt>
      <trkpt lat="46.48826" lon="0.33679">
        <ele>103.8</ele>
        <time>2021-01-24T09:15:53.000Z</time>
      </trkpt>
      <trkpt lat="46.48829" lon="0.33674">
        <ele>103.8</ele>
        <time>2021-01-24T09:15:54.000Z</time>
      </trkpt>
      <trkpt lat="46.48832" lon="0.33669">
        <ele>103.8</ele>
        <time>2021-01-24T09:15:55.000Z</time>
      </trkpt>
      <trkpt lat="46.48836" lon="0.33663">
        <ele>103.6</ele>
        <time>2021-01-24T09:15:56.000Z</time>
      </trkpt>
      <trkpt lat="46.48839" lon="0.33659">
        <ele>103.6</ele>
        <time>2021-01-24T09:15:57.000Z</time>
      </trkpt>
      <trkpt lat="46.48843" lon="0.33653">
        <ele>103.6</ele>
        <time>2021-01-24T09:15:58.000Z</time>
      </trkpt>
      <trkpt lat="46.48847" lon="0.33649">
        <ele>103.6</ele>
        <time>2021-01-24T09:15:59.000Z</time>
      </trkpt>
      <trkpt lat="46.48849" lon="0.33645">
        <ele>103.6</ele>
        <time>2021-01-24T09:16:00.000Z</time>
      </trkpt>
      <trkpt lat="46.48852" lon="0.33641">
        <ele>103.6</ele>
        <time>2021-01-24T09:16:01.000Z</time>
      </trkpt>
      <trkpt lat="46.48856" lon="0.33636">
        <ele>103.6</ele>
        <time>2021-01-24T09:16:02.000Z</time>
      </trkpt>
      <trkpt lat="46.4886" lon="0.33632">
        <ele>103.6</ele>
        <time>2021-01-24T09:16:03.000Z</time>
      </trkpt>
      <trkpt lat="46.48863" lon="0.33627">
        <ele>103.6</ele>
        <time>2021-01-24T09:16:04.000Z</time>
      </trkpt>
      <trkpt lat="46.48866" lon="0.33622">
        <ele>103.6</ele>
        <time>2021-01-24T09:16:05.000Z</time>
      </trkpt>
      <trkpt lat="46.48869" lon="0.33617">
        <ele>103.6</ele>
        <time>2021-01-24T09:16:06.000Z</time>
      </trkpt>
      <trkpt lat="46.48874" lon="0.3361">
        <ele>103.6</ele>
        <time>2021-01-24T09:16:07.000Z</time>
      </trkpt>
      <trkpt lat="46.48876" lon="0.33605">
        <ele>103.6</ele>
        <time>2021-01-24T09:16:08.000Z</time>
      </trkpt>
      <trkpt lat="46.48881" lon="0.336">
        <ele>103.6</ele>
        <time>2021-01-24T09:16:09.000Z</time>
      </trkpt>
      <trkpt lat="46.48886" lon="0.33595">
        <ele>103.6</ele>
        <time>2021-01-24T09:16:10.000Z</time>
      </trkpt>
      <trkpt lat="46.48891" lon="0.3359">
        <ele>103.6</ele>
        <time>2021-01-24T09:16:11.000Z</time>
      </trkpt>
      <trkpt lat="46.48894" lon="0.33584">
        <ele>103.4</ele>
        <time>2021-01-24T09:16:12.000Z</time>
      </trkpt>
      <trkpt lat="46.48897" lon="0.33578">
        <ele>103.4</ele>
        <time>2021-01-24T09:16:13.000Z</time>
      </trkpt>
      <trkpt lat="46.48901" lon="0.33573">
        <ele>103.4</ele>
        <time>2021-01-24T09:16:14.000Z</time>
      </trkpt>
      <trkpt lat="46.48903" lon="0.33568">
        <ele>103.4</ele>
        <time>2021-01-24T09:16:15.000Z</time>
      </trkpt>
      <trkpt lat="46.48908" lon="0.33563">
        <ele>103.4</ele>
        <time>2021-01-24T09:16:16.000Z</time>
      </trkpt>
      <trkpt lat="46.4891" lon="0.33556">
        <ele>103.4</ele>
        <time>2021-01-24T09:16:17.000Z</time>
      </trkpt>
      <trkpt lat="46.48911" lon="0.3355">
        <ele>103.4</ele>
        <time>2021-01-24T09:16:18.000Z</time>
      </trkpt>
      <trkpt lat="46.48912" lon="0.33545">
        <ele>103.4</ele>
        <time>2021-01-24T09:16:19.000Z</time>
      </trkpt>
      <trkpt lat="46.48912" lon="0.33538">
        <ele>103.4</ele>
        <time>2021-01-24T09:16:20.000Z</time>
      </trkpt>
      <trkpt lat="46.48913" lon="0.33532">
        <ele>103.4</ele>
        <time>2021-01-24T09:16:21.000Z</time>
      </trkpt>
      <trkpt lat="46.48916" lon="0.33526">
        <ele>103.4</ele>
        <time>2021-01-24T09:16:22.000Z</time>
      </trkpt>
      <trkpt lat="46.48917" lon="0.3352">
        <ele>103.4</ele>
        <time>2021-01-24T09:16:23.000Z</time>
      </trkpt>
      <trkpt lat="46.48919" lon="0.33515">
        <ele>103.4</ele>
        <time>2021-01-24T09:16:24.000Z</time>
      </trkpt>
      <trkpt lat="46.4892" lon="0.3351">
        <ele>103.4</ele>
        <time>2021-01-24T09:16:25.000Z</time>
      </trkpt>
      <trkpt lat="46.4892" lon="0.33503">
        <ele>103.4</ele>
        <time>2021-01-24T09:16:26.000Z</time>
      </trkpt>
      <trkpt lat="46.4892" lon="0.33495">
        <ele>103.4</ele>
        <time>2021-01-24T09:16:27.000Z</time>
      </trkpt>
      <trkpt lat="46.48918" lon="0.33487">
        <ele>103.4</ele>
        <time>2021-01-24T09:16:28.000Z</time>
      </trkpt>
      <trkpt lat="46.48918" lon="0.3348">
        <ele>103.4</ele>
        <time>2021-01-24T09:16:29.000Z</time>
      </trkpt>
      <trkpt lat="46.48918" lon="0.33473">
        <ele>103.4</ele>
        <time>2021-01-24T09:16:30.000Z</time>
      </trkpt>
      <trkpt lat="46.48918" lon="0.33466">
        <ele>103.4</ele>
        <time>2021-01-24T09:16:31.000Z</time>
      </trkpt>
      <trkpt lat="46.48918" lon="0.3346">
        <ele>103.4</ele>
        <time>2021-01-24T09:16:32.000Z</time>
      </trkpt>
      <trkpt lat="46.48918" lon="0.33454">
        <ele>103.4</ele>
        <time>2021-01-24T09:16:33.000Z</time>
      </trkpt>
      <trkpt lat="46.48918" lon="0.33448">
        <ele>103.4</ele>
        <time>2021-01-24T09:16:34.000Z</time>
      </trkpt>
      <trkpt lat="46.48917" lon="0.33441">
        <ele>103.6</ele>
        <time>2021-01-24T09:16:35.000Z</time>
      </trkpt>
      <trkpt lat="46.48916" lon="0.33435">
        <ele>103.6</ele>
        <time>2021-01-24T09:16:36.000Z</time>
      </trkpt>
      <trkpt lat="46.48916" lon="0.33429">
        <ele>103.6</ele>
        <time>2021-01-24T09:16:37.000Z</time>
      </trkpt>
      <trkpt lat="46.48916" lon="0.33423">
        <ele>103.6</ele>
        <time>2021-01-24T09:16:38.000Z</time>
      </trkpt>
      <trkpt lat="46.48918" lon="0.33418">
        <ele>103.6</ele>
        <time>2021-01-24T09:16:39.000Z</time>
      </trkpt>
      <trkpt lat="46.48918" lon="0.33414">
        <ele>103.6</ele>
        <time>2021-01-24T09:16:40.000Z</time>
      </trkpt>
      <trkpt lat="46.4892" lon="0.3341">
        <ele>103.6</ele>
        <time>2021-01-24T09:16:41.000Z</time>
      </trkpt>
      <trkpt lat="46.48921" lon="0.33407">
        <ele>103.6</ele>
        <time>2021-01-24T09:16:42.000Z</time>
      </trkpt>
      <trkpt lat="46.48921" lon="0.33407">
        <ele>103.6</ele>
        <time>2021-01-24T09:16:43.000Z</time>
      </trkpt>
      <trkpt lat="46.48923" lon="0.33403">
        <ele>103.8</ele>
        <time>2021-01-24T09:16:44.000Z</time>
      </trkpt>
      <trkpt lat="46.48923" lon="0.33403">
        <ele>103.8</ele>
        <time>2021-01-24T09:16:45.000Z</time>
      </trkpt>
      <trkpt lat="46.48923" lon="0.33403">
        <ele>104</ele>
        <time>2021-01-24T09:16:46.000Z</time>
      </trkpt>
      <trkpt lat="46.48923" lon="0.33403">
        <ele>104</ele>
        <time>2021-01-24T09:16:47.000Z</time>
      </trkpt>
      <trkpt lat="46.48923" lon="0.33403">
        <ele>104.2</ele>
        <time>2021-01-24T09:16:48.000Z</time>
      </trkpt>
      <trkpt lat="46.48925" lon="0.33401">
        <ele>104.2</ele>
        <time>2021-01-24T09:16:49.000Z</time>
      </trkpt>
      <trkpt lat="46.48925" lon="0.33401">
        <ele>104.4</ele>
        <time>2021-01-24T09:16:50.000Z</time>
      </trkpt>
      <trkpt lat="46.48926" lon="0.33396">
        <ele>104.4</ele>
        <time>2021-01-24T09:16:51.000Z</time>
      </trkpt>
      <trkpt lat="46.48926" lon="0.33392">
        <ele>104.4</ele>
        <time>2021-01-24T09:16:52.000Z</time>
      </trkpt>
      <trkpt lat="46.48928" lon="0.33389">
        <ele>104.6</ele>
        <time>2021-01-24T09:16:53.000Z</time>
      </trkpt>
      <trkpt lat="46.48929" lon="0.33384">
        <ele>104.6</ele>
        <time>2021-01-24T09:16:54.000Z</time>
      </trkpt>
      <trkpt lat="46.4893" lon="0.33381">
        <ele>104.8</ele>
        <time>2021-01-24T09:16:55.000Z</time>
      </trkpt>
      <trkpt lat="46.48932" lon="0.33377">
        <ele>104.8</ele>
        <time>2021-01-24T09:16:56.000Z</time>
      </trkpt>
      <trkpt lat="46.48933" lon="0.33372">
        <ele>104.8</ele>
        <time>2021-01-24T09:16:57.000Z</time>
      </trkpt>
      <trkpt lat="46.48933" lon="0.33365">
        <ele>104.8</ele>
        <time>2021-01-24T09:16:58.000Z</time>
      </trkpt>
      <trkpt lat="46.48933" lon="0.33359">
        <ele>105</ele>
        <time>2021-01-24T09:16:59.000Z</time>
      </trkpt>
      <trkpt lat="46.48934" lon="0.33355">
        <ele>105</ele>
        <time>2021-01-24T09:17:00.000Z</time>
      </trkpt>
      <trkpt lat="46.48935" lon="0.33349">
        <ele>105</ele>
        <time>2021-01-24T09:17:01.000Z</time>
      </trkpt>
      <trkpt lat="46.48935" lon="0.33343">
        <ele>105.2</ele>
        <time>2021-01-24T09:17:02.000Z</time>
      </trkpt>
      <trkpt lat="46.48936" lon="0.33339">
        <ele>105.2</ele>
        <time>2021-01-24T09:17:03.000Z</time>
      </trkpt>
      <trkpt lat="46.48937" lon="0.33334">
        <ele>105.2</ele>
        <time>2021-01-24T09:17:04.000Z</time>
      </trkpt>
      <trkpt lat="46.48938" lon="0.33328">
        <ele>105.4</ele>
        <time>2021-01-24T09:17:05.000Z</time>
      </trkpt>
      <trkpt lat="46.48939" lon="0.33321">
        <ele>105.4</ele>
        <time>2021-01-24T09:17:06.000Z</time>
      </trkpt>
      <trkpt lat="46.4894" lon="0.33315">
        <ele>105.4</ele>
        <time>2021-01-24T09:17:07.000Z</time>
      </trkpt>
      <trkpt lat="46.48942" lon="0.33309">
        <ele>105.4</ele>
        <time>2021-01-24T09:17:08.000Z</time>
      </trkpt>
      <trkpt lat="46.48943" lon="0.33305">
        <ele>105.6</ele>
        <time>2021-01-24T09:17:09.000Z</time>
      </trkpt>
      <trkpt lat="46.48944" lon="0.33299">
        <ele>105.6</ele>
        <time>2021-01-24T09:17:10.000Z</time>
      </trkpt>
      <trkpt lat="46.48946" lon="0.33294">
        <ele>105.6</ele>
        <time>2021-01-24T09:17:11.000Z</time>
      </trkpt>
      <trkpt lat="46.48949" lon="0.33291">
        <ele>105.8</ele>
        <time>2021-01-24T09:17:12.000Z</time>
      </trkpt>
      <trkpt lat="46.48952" lon="0.33289">
        <ele>105.8</ele>
        <time>2021-01-24T09:17:13.000Z</time>
      </trkpt>
      <trkpt lat="46.48954" lon="0.33286">
        <ele>105.8</ele>
        <time>2021-01-24T09:17:14.000Z</time>
      </trkpt>
      <trkpt lat="46.48954" lon="0.33282">
        <ele>105.8</ele>
        <time>2021-01-24T09:17:15.000Z</time>
      </trkpt>
      <trkpt lat="46.48955" lon="0.33279">
        <ele>105.8</ele>
        <time>2021-01-24T09:17:16.000Z</time>
      </trkpt>
      <trkpt lat="46.48955" lon="0.33279">
        <ele>106</ele>
        <time>2021-01-24T09:17:17.000Z</time>
      </trkpt>
      <trkpt lat="46.48956" lon="0.33275">
        <ele>106</ele>
        <time>2021-01-24T09:17:18.000Z</time>
      </trkpt>
      <trkpt lat="46.48957" lon="0.33272">
        <ele>106</ele>
        <time>2021-01-24T09:17:19.000Z</time>
      </trkpt>
      <trkpt lat="46.48957" lon="0.33268">
        <ele>106</ele>
        <time>2021-01-24T09:17:20.000Z</time>
      </trkpt>
      <trkpt lat="46.48957" lon="0.33263">
        <ele>106</ele>
        <time>2021-01-24T09:17:21.000Z</time>
      </trkpt>
      <trkpt lat="46.48957" lon="0.33258">
        <ele>106</ele>
        <time>2021-01-24T09:17:22.000Z</time>
      </trkpt>
      <trkpt lat="46.48958" lon="0.33251">
        <ele>106</ele>
        <time>2021-01-24T09:17:23.000Z</time>
      </trkpt>
      <trkpt lat="46.48959" lon="0.33244">
        <ele>106.2</ele>
        <time>2021-01-24T09:17:24.000Z</time>
      </trkpt>
      <trkpt lat="46.48959" lon="0.33239">
        <ele>106.2</ele>
        <time>2021-01-24T09:17:25.000Z</time>
      </trkpt>
      <trkpt lat="46.48959" lon="0.33235">
        <ele>106.2</ele>
        <time>2021-01-24T09:17:26.000Z</time>
      </trkpt>
      <trkpt lat="46.48957" lon="0.33232">
        <ele>106.2</ele>
        <time>2021-01-24T09:17:27.000Z</time>
      </trkpt>
      <trkpt lat="46.48955" lon="0.33229">
        <ele>106.2</ele>
        <time>2021-01-24T09:17:28.000Z</time>
      </trkpt>
      <trkpt lat="46.48956" lon="0.33226">
        <ele>106</ele>
        <time>2021-01-24T09:17:29.000Z</time>
      </trkpt>
      <trkpt lat="46.48957" lon="0.33224">
        <ele>106</ele>
        <time>2021-01-24T09:17:30.000Z</time>
      </trkpt>
      <trkpt lat="46.48958" lon="0.33222">
        <ele>106</ele>
        <time>2021-01-24T09:17:31.000Z</time>
      </trkpt>
      <trkpt lat="46.48958" lon="0.33222">
        <ele>106</ele>
        <time>2021-01-24T09:17:32.000Z</time>
      </trkpt>
      <trkpt lat="46.48962" lon="0.33218">
        <ele>105.8</ele>
        <time>2021-01-24T09:17:33.000Z</time>
      </trkpt>
      <trkpt lat="46.48963" lon="0.33217">
        <ele>105.8</ele>
        <time>2021-01-24T09:17:34.000Z</time>
      </trkpt>
      <trkpt lat="46.48965" lon="0.33216">
        <ele>105.8</ele>
        <time>2021-01-24T09:17:35.000Z</time>
      </trkpt>
      <trkpt lat="46.48967" lon="0.33215">
        <ele>105.8</ele>
        <time>2021-01-24T09:17:36.000Z</time>
      </trkpt>
      <trkpt lat="46.4897" lon="0.33215">
        <ele>105.6</ele>
        <time>2021-01-24T09:17:37.000Z</time>
      </trkpt>
      <trkpt lat="46.48973" lon="0.33214">
        <ele>105.6</ele>
        <time>2021-01-24T09:17:38.000Z</time>
      </trkpt>
      <trkpt lat="46.48973" lon="0.33214">
        <ele>105.4</ele>
        <time>2021-01-24T09:17:39.000Z</time>
      </trkpt>
      <trkpt lat="46.48979" lon="0.33212">
        <ele>105.4</ele>
        <time>2021-01-24T09:17:40.000Z</time>
      </trkpt>
      <trkpt lat="46.48981" lon="0.33212">
        <ele>105.2</ele>
        <time>2021-01-24T09:17:41.000Z</time>
      </trkpt>
      <trkpt lat="46.48983" lon="0.33211">
        <ele>105.2</ele>
        <time>2021-01-24T09:17:42.000Z</time>
      </trkpt>
      <trkpt lat="46.48987" lon="0.33209">
        <ele>105</ele>
        <time>2021-01-24T09:17:43.000Z</time>
      </trkpt>
      <trkpt lat="46.48991" lon="0.33207">
        <ele>105</ele>
        <time>2021-01-24T09:17:44.000Z</time>
      </trkpt>
      <trkpt lat="46.48996" lon="0.33206">
        <ele>104.8</ele>
        <time>2021-01-24T09:17:45.000Z</time>
      </trkpt>
      <trkpt lat="46.49002" lon="0.33204">
        <ele>104.8</ele>
        <time>2021-01-24T09:17:46.000Z</time>
      </trkpt>
      <trkpt lat="46.49006" lon="0.33202">
        <ele>104.6</ele>
        <time>2021-01-24T09:17:47.000Z</time>
      </trkpt>
      <trkpt lat="46.49011" lon="0.33199">
        <ele>104.4</ele>
        <time>2021-01-24T09:17:48.000Z</time>
      </trkpt>
      <trkpt lat="46.49017" lon="0.33197">
        <ele>104.4</ele>
        <time>2021-01-24T09:17:49.000Z</time>
      </trkpt>
      <trkpt lat="46.49022" lon="0.33195">
        <ele>104.2</ele>
        <time>2021-01-24T09:17:50.000Z</time>
      </trkpt>
      <trkpt lat="46.49028" lon="0.33193">
        <ele>104</ele>
        <time>2021-01-24T09:17:51.000Z</time>
      </trkpt>
      <trkpt lat="46.49034" lon="0.33192">
        <ele>103.8</ele>
        <time>2021-01-24T09:17:52.000Z</time>
      </trkpt>
      <trkpt lat="46.49038" lon="0.33192">
        <ele>103.6</ele>
        <time>2021-01-24T09:17:53.000Z</time>
      </trkpt>
      <trkpt lat="46.49044" lon="0.33193">
        <ele>103.4</ele>
        <time>2021-01-24T09:17:54.000Z</time>
      </trkpt>
      <trkpt lat="46.4905" lon="0.33193">
        <ele>103.2</ele>
        <time>2021-01-24T09:17:55.000Z</time>
      </trkpt>
      <trkpt lat="46.49054" lon="0.33191">
        <ele>102.8</ele>
        <time>2021-01-24T09:17:56.000Z</time>
      </trkpt>
      <trkpt lat="46.49059" lon="0.33188">
        <ele>102.6</ele>
        <time>2021-01-24T09:17:57.000Z</time>
      </trkpt>
      <trkpt lat="46.49061" lon="0.33184">
        <ele>102.4</ele>
        <time>2021-01-24T09:17:58.000Z</time>
      </trkpt>
      <trkpt lat="46.49061" lon="0.33184">
        <ele>102.2</ele>
        <time>2021-01-24T09:17:59.000Z</time>
      </trkpt>
      <trkpt lat="46.49061" lon="0.33184">
        <ele>101.8</ele>
        <time>2021-01-24T09:18:00.000Z</time>
      </trkpt>
      <trkpt lat="46.49061" lon="0.33184">
        <ele>101.6</ele>
        <time>2021-01-24T09:18:01.000Z</time>
      </trkpt>
      <trkpt lat="46.49061" lon="0.33184">
        <ele>101.4</ele>
        <time>2021-01-24T09:18:02.000Z</time>
      </trkpt>
      <trkpt lat="46.49061" lon="0.33184">
        <ele>101.2</ele>
        <time>2021-01-24T09:18:03.000Z</time>
      </trkpt>
      <trkpt lat="46.49061" lon="0.33184">
        <ele>100.8</ele>
        <time>2021-01-24T09:18:04.000Z</time>
      </trkpt>
      <trkpt lat="46.49061" lon="0.33184">
        <ele>100.6</ele>
        <time>2021-01-24T09:18:05.000Z</time>
      </trkpt>
      <trkpt lat="46.49061" lon="0.33184">
        <ele>100.4</ele>
        <time>2021-01-24T09:18:06.000Z</time>
      </trkpt>
      <trkpt lat="46.49061" lon="0.33184">
        <ele>100</ele>
        <time>2021-01-24T09:18:07.000Z</time>
      </trkpt>
      <trkpt lat="46.49061" lon="0.33184">
        <ele>99.8</ele>
        <time>2021-01-24T09:18:08.000Z</time>
      </trkpt>
      <trkpt lat="46.49061" lon="0.33184">
        <ele>99.6</ele>
        <time>2021-01-24T09:18:09.000Z</time>
      </trkpt>
      <trkpt lat="46.49061" lon="0.33184">
        <ele>99.4</ele>
        <time>2021-01-24T09:18:10.000Z</time>
      </trkpt>
      <trkpt lat="46.49061" lon="0.33184">
        <ele>99.2</ele>
        <time>2021-01-24T09:18:11.000Z</time>
      </trkpt>
      <trkpt lat="46.49061" lon="0.33184">
        <ele>99</ele>
        <time>2021-01-24T09:18:12.000Z</time>
      </trkpt>
      <trkpt lat="46.49061" lon="0.33184">
        <ele>98.8</ele>
        <time>2021-01-24T09:18:13.000Z</time>
      </trkpt>
      <trkpt lat="46.49061" lon="0.33184">
        <ele>98.6</ele>
        <time>2021-01-24T09:18:14.000Z</time>
      </trkpt>
      <trkpt lat="46.49061" lon="0.33184">
        <ele>98.4</ele>
        <time>2021-01-24T09:18:15.000Z</time>
      </trkpt>
      <trkpt lat="46.49061" lon="0.33184">
        <ele>98.2</ele>
        <time>2021-01-24T09:18:16.000Z</time>
      </trkpt>
      <trkpt lat="46.49061" lon="0.33184">
        <ele>98</ele>
        <time>2021-01-24T09:18:17.000Z</time>
      </trkpt>
      <trkpt lat="46.49061" lon="0.33184">
        <ele>97.8</ele>
        <time>2021-01-24T09:18:18.000Z</time>
      </trkpt>
      <trkpt lat="46.49061" lon="0.33184">
        <ele>97.6</ele>
        <time>2021-01-24T09:18:19.000Z</time>
      </trkpt>
      <trkpt lat="46.49061" lon="0.33184">
        <ele>97.4</ele>
        <time>2021-01-24T09:18:20.000Z</time>
      </trkpt>
      <trkpt lat="46.49061" lon="0.33184">
        <ele>97.2</ele>
        <time>2021-01-24T09:18:21.000Z</time>
      </trkpt>
      <trkpt lat="46.49061" lon="0.33184">
        <ele>97.2</ele>
        <time>2021-01-24T09:18:22.000Z</time>
      </trkpt>
      <trkpt lat="46.49061" lon="0.33184">
        <ele>97</ele>
        <time>2021-01-24T09:18:23.000Z</time>
      </trkpt>
      <trkpt lat="46.49061" lon="0.33184">
        <ele>96.8</ele>
        <time>2021-01-24T09:18:24.000Z</time>
      </trkpt>
      <trkpt lat="46.49061" lon="0.33184">
        <ele>96.6</ele>
        <time>2021-01-24T09:18:25.000Z</time>
      </trkpt>
      <trkpt lat="46.49061" lon="0.33184">
        <ele>96.4</ele>
        <time>2021-01-24T09:18:26.000Z</time>
      </trkpt>
      <trkpt lat="46.49061" lon="0.33184">
        <ele>96.2</ele>
        <time>2021-01-24T09:18:27.000Z</time>
      </trkpt>
      <trkpt lat="46.49061" lon="0.33184">
        <ele>96</ele>
        <time>2021-01-24T09:18:28.000Z</time>
      </trkpt>
      <trkpt lat="46.49061" lon="0.33184">
        <ele>95.8</ele>
        <time>2021-01-24T09:18:29.000Z</time>
      </trkpt>
      <trkpt lat="46.49061" lon="0.33184">
        <ele>95.8</ele>
        <time>2021-01-24T09:18:30.000Z</time>
      </trkpt>
      <trkpt lat="46.49061" lon="0.33184">
        <ele>95.6</ele>
        <time>2021-01-24T09:18:31.000Z</time>
      </trkpt>
      <trkpt lat="46.49061" lon="0.33184">
        <ele>95.4</ele>
        <time>2021-01-24T09:18:32.000Z</time>
      </trkpt>
      <trkpt lat="46.49061" lon="0.33184">
        <ele>95.2</ele>
        <time>2021-01-24T09:18:33.000Z</time>
      </trkpt>
      <trkpt lat="46.49061" lon="0.33184">
        <ele>95</ele>
        <time>2021-01-24T09:18:34.000Z</time>
      </trkpt>
      <trkpt lat="46.49061" lon="0.33184">
        <ele>95</ele>
        <time>2021-01-24T09:18:35.000Z</time>
      </trkpt>
      <trkpt lat="46.49061" lon="0.33184">
        <ele>94.8</ele>
        <time>2021-01-24T09:18:36.000Z</time>
      </trkpt>
      <trkpt lat="46.49061" lon="0.33184">
        <ele>94.6</ele>
        <time>2021-01-24T09:18:37.000Z</time>
      </trkpt>
      <trkpt lat="46.49061" lon="0.33184">
        <ele>94.4</ele>
        <time>2021-01-24T09:18:38.000Z</time>
      </trkpt>
      <trkpt lat="46.49061" lon="0.33184">
        <ele>94.4</ele>
        <time>2021-01-24T09:18:39.000Z</time>
      </trkpt>
      <trkpt lat="46.49061" lon="0.33184">
        <ele>94.2</ele>
        <time>2021-01-24T09:18:40.000Z</time>
      </trkpt>
      <trkpt lat="46.49061" lon="0.33184">
        <ele>94</ele>
        <time>2021-01-24T09:18:41.000Z</time>
      </trkpt>
      <trkpt lat="46.49061" lon="0.33184">
        <ele>94</ele>
        <time>2021-01-24T09:18:42.000Z</time>
      </trkpt>
      <trkpt lat="46.49061" lon="0.33184">
        <ele>93.8</ele>
        <time>2021-01-24T09:18:43.000Z</time>
      </trkpt>
      <trkpt lat="46.49061" lon="0.33184">
        <ele>93.6</ele>
        <time>2021-01-24T09:18:44.000Z</time>
      </trkpt>
      <trkpt lat="46.49061" lon="0.33184">
        <ele>93.4</ele>
        <time>2021-01-24T09:18:45.000Z</time>
      </trkpt>
      <trkpt lat="46.49061" lon="0.33184">
        <ele>93.4</ele>
        <time>2021-01-24T09:18:46.000Z</time>
      </trkpt>
      <trkpt lat="46.49061" lon="0.33184">
        <ele>93.2</ele>
        <time>2021-01-24T09:18:47.000Z</time>
      </trkpt>
      <trkpt lat="46.49061" lon="0.33184">
        <ele>93</ele>
        <time>2021-01-24T09:18:48.000Z</time>
      </trkpt>
      <trkpt lat="46.49061" lon="0.33184">
        <ele>93</ele>
        <time>2021-01-24T09:18:49.000Z</time>
      </trkpt>
      <trkpt lat="46.49061" lon="0.33184">
        <ele>92.8</ele>
        <time>2021-01-24T09:18:50.000Z</time>
      </trkpt>
      <trkpt lat="46.49061" lon="0.33184">
        <ele>92.6</ele>
        <time>2021-01-24T09:18:51.000Z</time>
      </trkpt>
      <trkpt lat="46.49061" lon="0.33184">
        <ele>92.6</ele>
        <time>2021-01-24T09:18:52.000Z</time>
      </trkpt>
      <trkpt lat="46.49061" lon="0.33184">
        <ele>92.4</ele>
        <time>2021-01-24T09:18:53.000Z</time>
      </trkpt>
      <trkpt lat="46.49061" lon="0.33184">
        <ele>92.4</ele>
        <time>2021-01-24T09:18:54.000Z</time>
      </trkpt>
      <trkpt lat="46.49061" lon="0.33184">
        <ele>92.2</ele>
        <time>2021-01-24T09:18:55.000Z</time>
      </trkpt>
      <trkpt lat="46.49061" lon="0.33184">
        <ele>92</ele>
        <time>2021-01-24T09:18:56.000Z</time>
      </trkpt>
      <trkpt lat="46.49061" lon="0.33184">
        <ele>92</ele>
        <time>2021-01-24T09:18:57.000Z</time>
      </trkpt>
      <trkpt lat="46.49061" lon="0.33184">
        <ele>91.8</ele>
        <time>2021-01-24T09:18:58.000Z</time>
      </trkpt>
      <trkpt lat="46.49061" lon="0.33184">
        <ele>91.8</ele>
        <time>2021-01-24T09:18:59.000Z</time>
      </trkpt>
      <trkpt lat="46.49061" lon="0.33184">
        <ele>91.6</ele>
        <time>2021-01-24T09:19:00.000Z</time>
      </trkpt>
      <trkpt lat="46.49061" lon="0.33184">
        <ele>91.6</ele>
        <time>2021-01-24T09:19:01.000Z</time>
      </trkpt>
      <trkpt lat="46.49061" lon="0.33184">
        <ele>91.4</ele>
        <time>2021-01-24T09:19:02.000Z</time>
      </trkpt>
      <trkpt lat="46.49061" lon="0.33184">
        <ele>91.4</ele>
        <time>2021-01-24T09:19:03.000Z</time>
      </trkpt>
      <trkpt lat="46.49061" lon="0.33184">
        <ele>91.2</ele>
        <time>2021-01-24T09:19:04.000Z</time>
      </trkpt>
      <trkpt lat="46.49061" lon="0.33184">
        <ele>91.2</ele>
        <time>2021-01-24T09:19:05.000Z</time>
      </trkpt>
      <trkpt lat="46.49061" lon="0.33184">
        <ele>91</ele>
        <time>2021-01-24T09:19:07.000Z</time>
      </trkpt>
      <trkpt lat="46.49061" lon="0.33184">
        <ele>91</ele>
        <time>2021-01-24T09:19:08.000Z</time>
      </trkpt>
      <trkpt lat="46.49061" lon="0.33184">
        <ele>90.8</ele>
        <time>2021-01-24T09:19:09.000Z</time>
      </trkpt>
      <trkpt lat="46.49061" lon="0.33184">
        <ele>90.8</ele>
        <time>2021-01-24T09:19:10.000Z</time>
      </trkpt>
      <trkpt lat="46.49061" lon="0.33184">
        <ele>90.6</ele>
        <time>2021-01-24T09:19:11.000Z</time>
      </trkpt>
      <trkpt lat="46.49061" lon="0.33184">
        <ele>90.6</ele>
        <time>2021-01-24T09:19:12.000Z</time>
      </trkpt>
      <trkpt lat="46.49061" lon="0.33184">
        <ele>90.4</ele>
        <time>2021-01-24T09:19:13.000Z</time>
      </trkpt>
      <trkpt lat="46.49061" lon="0.33184">
        <ele>90.4</ele>
        <time>2021-01-24T09:19:14.000Z</time>
      </trkpt>
      <trkpt lat="46.49061" lon="0.33184">
        <ele>90.4</ele>
        <time>2021-01-24T09:19:15.000Z</time>
      </trkpt>
      <trkpt lat="46.49061" lon="0.33184">
        <ele>90.2</ele>
        <time>2021-01-24T09:19:16.000Z</time>
      </trkpt>
      <trkpt lat="46.49061" lon="0.33184">
        <ele>90.2</ele>
        <time>2021-01-24T09:19:17.000Z</time>
      </trkpt>
      <trkpt lat="46.49061" lon="0.33184">
        <ele>90.2</ele>
        <time>2021-01-24T09:19:18.000Z</time>
      </trkpt>
      <trkpt lat="46.49061" lon="0.33184">
        <ele>90</ele>
        <time>2021-01-24T09:19:19.000Z</time>
      </trkpt>
      <trkpt lat="46.49061" lon="0.33184">
        <ele>90</ele>
        <time>2021-01-24T09:19:20.000Z</time>
      </trkpt>
      <trkpt lat="46.49061" lon="0.33184">
        <ele>90</ele>
        <time>2021-01-24T09:19:21.000Z</time>
      </trkpt>
      <trkpt lat="46.49061" lon="0.33184">
        <ele>89.8</ele>
        <time>2021-01-24T09:19:22.000Z</time>
      </trkpt>
      <trkpt lat="46.49061" lon="0.33184">
        <ele>89.8</ele>
        <time>2021-01-24T09:19:23.000Z</time>
      </trkpt>
      <trkpt lat="46.49061" lon="0.33184">
        <ele>89.8</ele>
        <time>2021-01-24T09:19:24.000Z</time>
      </trkpt>
      <trkpt lat="46.49061" lon="0.33184">
        <ele>89.6</ele>
        <time>2021-01-24T09:19:25.000Z</time>
      </trkpt>
      <trkpt lat="46.49061" lon="0.33184">
        <ele>89.6</ele>
        <time>2021-01-24T09:19:26.000Z</time>
      </trkpt>
      <trkpt lat="46.49061" lon="0.33184">
        <ele>89.6</ele>
        <time>2021-01-24T09:19:27.000Z</time>
      </trkpt>
      <trkpt lat="46.49061" lon="0.33184">
        <ele>89.4</ele>
        <time>2021-01-24T09:19:28.000Z</time>
      </trkpt>
      <trkpt lat="46.49061" lon="0.33184">
        <ele>89.4</ele>
        <time>2021-01-24T09:19:29.000Z</time>
      </trkpt>
      <trkpt lat="46.49061" lon="0.33184">
        <ele>89.4</ele>
        <time>2021-01-24T09:19:30.000Z</time>
      </trkpt>
      <trkpt lat="46.49059" lon="0.33179">
        <ele>89.2</ele>
        <time>2021-01-24T09:19:31.000Z</time>
      </trkpt>
      <trkpt lat="46.4906" lon="0.33176">
        <ele>89.2</ele>
        <time>2021-01-24T09:19:32.000Z</time>
      </trkpt>
      <trkpt lat="46.49061" lon="0.33172">
        <ele>89.2</ele>
        <time>2021-01-24T09:19:33.000Z</time>
      </trkpt>
      <trkpt lat="46.49063" lon="0.3317">
        <ele>89</ele>
        <time>2021-01-24T09:19:34.000Z</time>
      </trkpt>
      <trkpt lat="46.49066" lon="0.33168">
        <ele>89</ele>
        <time>2021-01-24T09:19:35.000Z</time>
      </trkpt>
      <trkpt lat="46.49069" lon="0.33167">
        <ele>89</ele>
        <time>2021-01-24T09:19:36.000Z</time>
      </trkpt>
      <trkpt lat="46.49072" lon="0.33165">
        <ele>89</ele>
        <time>2021-01-24T09:19:37.000Z</time>
      </trkpt>
      <trkpt lat="46.49075" lon="0.33163">
        <ele>89</ele>
        <time>2021-01-24T09:19:38.000Z</time>
      </trkpt>
      <trkpt lat="46.49079" lon="0.33161">
        <ele>89</ele>
        <time>2021-01-24T09:19:39.000Z</time>
      </trkpt>
      <trkpt lat="46.49083" lon="0.3316">
        <ele>88.8</ele>
        <time>2021-01-24T09:19:40.000Z</time>
      </trkpt>
      <trkpt lat="46.49086" lon="0.33159">
        <ele>88.8</ele>
        <time>2021-01-24T09:19:41.000Z</time>
      </trkpt>
      <trkpt lat="46.49089" lon="0.33158">
        <ele>88.8</ele>
        <time>2021-01-24T09:19:42.000Z</time>
      </trkpt>
      <trkpt lat="46.49091" lon="0.33157">
        <ele>88.8</ele>
        <time>2021-01-24T09:19:43.000Z</time>
      </trkpt>
      <trkpt lat="46.49094" lon="0.33156">
        <ele>88.6</ele>
        <time>2021-01-24T09:19:44.000Z</time>
      </trkpt>
      <trkpt lat="46.49096" lon="0.33155">
        <ele>88.6</ele>
        <time>2021-01-24T09:19:45.000Z</time>
      </trkpt>
      <trkpt lat="46.49099" lon="0.33154">
        <ele>88.6</ele>
        <time>2021-01-24T09:19:46.000Z</time>
      </trkpt>
      <trkpt lat="46.49102" lon="0.33153">
        <ele>88.6</ele>
        <time>2021-01-24T09:19:47.000Z</time>
      </trkpt>
      <trkpt lat="46.49107" lon="0.33152">
        <ele>88.6</ele>
        <time>2021-01-24T09:19:48.000Z</time>
      </trkpt>
      <trkpt lat="46.4911" lon="0.3315">
        <ele>88.4</ele>
        <time>2021-01-24T09:19:49.000Z</time>
      </trkpt>
      <trkpt lat="46.49113" lon="0.33149">
        <ele>88.4</ele>
        <time>2021-01-24T09:19:50.000Z</time>
      </trkpt>
      <trkpt lat="46.49117" lon="0.33147">
        <ele>88.2</ele>
        <time>2021-01-24T09:19:51.000Z</time>
      </trkpt>
      <trkpt lat="46.49121" lon="0.33145">
        <ele>88.2</ele>
        <time>2021-01-24T09:19:52.000Z</time>
      </trkpt>
      <trkpt lat="46.49124" lon="0.33144">
        <ele>88.2</ele>
        <time>2021-01-24T09:19:53.000Z</time>
      </trkpt>
      <trkpt lat="46.49128" lon="0.33142">
        <ele>88</ele>
        <time>2021-01-24T09:19:54.000Z</time>
      </trkpt>
      <trkpt lat="46.49132" lon="0.3314">
        <ele>87.8</ele>
        <time>2021-01-24T09:19:55.000Z</time>
      </trkpt>
      <trkpt lat="46.49136" lon="0.33138">
        <ele>87.8</ele>
        <time>2021-01-24T09:19:56.000Z</time>
      </trkpt>
      <trkpt lat="46.49141" lon="0.33136">
        <ele>87.6</ele>
        <time>2021-01-24T09:19:57.000Z</time>
      </trkpt>
      <trkpt lat="46.49145" lon="0.33134">
        <ele>87.6</ele>
        <time>2021-01-24T09:19:58.000Z</time>
      </trkpt>
      <trkpt lat="46.49149" lon="0.33132">
        <ele>87.4</ele>
        <time>2021-01-24T09:19:59.000Z</time>
      </trkpt>
      <trkpt lat="46.49152" lon="0.33131">
        <ele>87.2</ele>
        <time>2021-01-24T09:20:00.000Z</time>
      </trkpt>
      <trkpt lat="46.49157" lon="0.33129">
        <ele>87</ele>
        <time>2021-01-24T09:20:01.000Z</time>
      </trkpt>
      <trkpt lat="46.49161" lon="0.33127">
        <ele>87</ele>
        <time>2021-01-24T09:20:02.000Z</time>
      </trkpt>
      <trkpt lat="46.49165" lon="0.33125">
        <ele>86.8</ele>
        <time>2021-01-24T09:20:03.000Z</time>
      </trkpt>
      <trkpt lat="46.49169" lon="0.33123">
        <ele>86.6</ele>
        <time>2021-01-24T09:20:04.000Z</time>
      </trkpt>
      <trkpt lat="46.49173" lon="0.33122">
        <ele>86.4</ele>
        <time>2021-01-24T09:20:05.000Z</time>
      </trkpt>
      <trkpt lat="46.49177" lon="0.3312">
        <ele>86.4</ele>
        <time>2021-01-24T09:20:06.000Z</time>
      </trkpt>
      <trkpt lat="46.4918" lon="0.33118">
        <ele>86.2</ele>
        <time>2021-01-24T09:20:07.000Z</time>
      </trkpt>
      <trkpt lat="46.49184" lon="0.33116">
        <ele>86</ele>
        <time>2021-01-24T09:20:08.000Z</time>
      </trkpt>
      <trkpt lat="46.49188" lon="0.33115">
        <ele>86</ele>
        <time>2021-01-24T09:20:09.000Z</time>
      </trkpt>
      <trkpt lat="46.49192" lon="0.33113">
        <ele>85.8</ele>
        <time>2021-01-24T09:20:10.000Z</time>
      </trkpt>
      <trkpt lat="46.49196" lon="0.33111">
        <ele>85.8</ele>
        <time>2021-01-24T09:20:11.000Z</time>
      </trkpt>
      <trkpt lat="46.49199" lon="0.3311">
        <ele>85.6</ele>
        <time>2021-01-24T09:20:12.000Z</time>
      </trkpt>
      <trkpt lat="46.49202" lon="0.33108">
        <ele>85.4</ele>
        <time>2021-01-24T09:20:13.000Z</time>
      </trkpt>
      <trkpt lat="46.49205" lon="0.33107">
        <ele>85.2</ele>
        <time>2021-01-24T09:20:14.000Z</time>
      </trkpt>
      <trkpt lat="46.49209" lon="0.33106">
        <ele>85.2</ele>
        <time>2021-01-24T09:20:15.000Z</time>
      </trkpt>
      <trkpt lat="46.49213" lon="0.33104">
        <ele>85</ele>
        <time>2021-01-24T09:20:16.000Z</time>
      </trkpt>
      <trkpt lat="46.49216" lon="0.33103">
        <ele>84.8</ele>
        <time>2021-01-24T09:20:17.000Z</time>
      </trkpt>
      <trkpt lat="46.4922" lon="0.33101">
        <ele>84.8</ele>
        <time>2021-01-24T09:20:18.000Z</time>
      </trkpt>
      <trkpt lat="46.49224" lon="0.331">
        <ele>84.8</ele>
        <time>2021-01-24T09:20:19.000Z</time>
      </trkpt>
      <trkpt lat="46.49228" lon="0.33098">
        <ele>84.8</ele>
        <time>2021-01-24T09:20:20.000Z</time>
      </trkpt>
      <trkpt lat="46.49231" lon="0.33097">
        <ele>84.8</ele>
        <time>2021-01-24T09:20:21.000Z</time>
      </trkpt>
      <trkpt lat="46.49235" lon="0.33095">
        <ele>84.8</ele>
        <time>2021-01-24T09:20:22.000Z</time>
      </trkpt>
      <trkpt lat="46.49239" lon="0.33093">
        <ele>84.6</ele>
        <time>2021-01-24T09:20:23.000Z</time>
      </trkpt>
      <trkpt lat="46.49243" lon="0.33092">
        <ele>84.6</ele>
        <time>2021-01-24T09:20:24.000Z</time>
      </trkpt>
      <trkpt lat="46.49246" lon="0.33091">
        <ele>84.6</ele>
        <time>2021-01-24T09:20:25.000Z</time>
      </trkpt>
      <trkpt lat="46.4925" lon="0.3309">
        <ele>84.6</ele>
        <time>2021-01-24T09:20:26.000Z</time>
      </trkpt>
      <trkpt lat="46.49252" lon="0.3309">
        <ele>84.6</ele>
        <time>2021-01-24T09:20:27.000Z</time>
      </trkpt>
      <trkpt lat="46.49255" lon="0.33092">
        <ele>84.6</ele>
        <time>2021-01-24T09:20:28.000Z</time>
      </trkpt>
      <trkpt lat="46.49258" lon="0.33094">
        <ele>84.6</ele>
        <time>2021-01-24T09:20:29.000Z</time>
      </trkpt>
      <trkpt lat="46.4926" lon="0.33097">
        <ele>84.6</ele>
        <time>2021-01-24T09:20:30.000Z</time>
      </trkpt>
      <trkpt lat="46.49261" lon="0.331">
        <ele>84.6</ele>
        <time>2021-01-24T09:20:31.000Z</time>
      </trkpt>
      <trkpt lat="46.49262" lon="0.33103">
        <ele>84.8</ele>
        <time>2021-01-24T09:20:32.000Z</time>
      </trkpt>
      <trkpt lat="46.49263" lon="0.33107">
        <ele>84.6</ele>
        <time>2021-01-24T09:20:33.000Z</time>
      </trkpt>
      <trkpt lat="46.49265" lon="0.3311">
        <ele>84.6</ele>
        <time>2021-01-24T09:20:34.000Z</time>
      </trkpt>
      <trkpt lat="46.49267" lon="0.33113">
        <ele>84.6</ele>
        <time>2021-01-24T09:20:35.000Z</time>
      </trkpt>
      <trkpt lat="46.49269" lon="0.33116">
        <ele>84.4</ele>
        <time>2021-01-24T09:20:36.000Z</time>
      </trkpt>
      <trkpt lat="46.4927" lon="0.3312">
        <ele>84.2</ele>
        <time>2021-01-24T09:20:37.000Z</time>
      </trkpt>
      <trkpt lat="46.49271" lon="0.33123">
        <ele>84.2</ele>
        <time>2021-01-24T09:20:38.000Z</time>
      </trkpt>
      <trkpt lat="46.49273" lon="0.33126">
        <ele>84</ele>
        <time>2021-01-24T09:20:39.000Z</time>
      </trkpt>
      <trkpt lat="46.49275" lon="0.33129">
        <ele>84</ele>
        <time>2021-01-24T09:20:40.000Z</time>
      </trkpt>
      <trkpt lat="46.49276" lon="0.33132">
        <ele>84</ele>
        <time>2021-01-24T09:20:41.000Z</time>
      </trkpt>
      <trkpt lat="46.49277" lon="0.33134">
        <ele>83.8</ele>
        <time>2021-01-24T09:20:42.000Z</time>
      </trkpt>
      <trkpt lat="46.49279" lon="0.33137">
        <ele>83.8</ele>
        <time>2021-01-24T09:20:43.000Z</time>
      </trkpt>
      <trkpt lat="46.4928" lon="0.3314">
        <ele>83.8</ele>
        <time>2021-01-24T09:20:44.000Z</time>
      </trkpt>
      <trkpt lat="46.49281" lon="0.33143">
        <ele>83.8</ele>
        <time>2021-01-24T09:20:45.000Z</time>
      </trkpt>
      <trkpt lat="46.49283" lon="0.33146">
        <ele>83.8</ele>
        <time>2021-01-24T09:20:46.000Z</time>
      </trkpt>
      <trkpt lat="46.49283" lon="0.33146">
        <ele>83.6</ele>
        <time>2021-01-24T09:20:47.000Z</time>
      </trkpt>
      <trkpt lat="46.49285" lon="0.3315">
        <ele>83.6</ele>
        <time>2021-01-24T09:20:48.000Z</time>
      </trkpt>
      <trkpt lat="46.49285" lon="0.3315">
        <ele>83.8</ele>
        <time>2021-01-24T09:20:49.000Z</time>
      </trkpt>
      <trkpt lat="46.49288" lon="0.33155">
        <ele>83.8</ele>
        <time>2021-01-24T09:20:50.000Z</time>
      </trkpt>
      <trkpt lat="46.49288" lon="0.33155">
        <ele>83.8</ele>
        <time>2021-01-24T09:20:51.000Z</time>
      </trkpt>
      <trkpt lat="46.4929" lon="0.3316">
        <ele>83.8</ele>
        <time>2021-01-24T09:20:52.000Z</time>
      </trkpt>
      <trkpt lat="46.4929" lon="0.3316">
        <ele>84</ele>
        <time>2021-01-24T09:20:53.000Z</time>
      </trkpt>
      <trkpt lat="46.49293" lon="0.33164">
        <ele>84</ele>
        <time>2021-01-24T09:20:54.000Z</time>
      </trkpt>
      <trkpt lat="46.49293" lon="0.33164">
        <ele>84.2</ele>
        <time>2021-01-24T09:20:55.000Z</time>
      </trkpt>
      <trkpt lat="46.49293" lon="0.33168">
        <ele>84.2</ele>
        <time>2021-01-24T09:20:56.000Z</time>
      </trkpt>
      <trkpt lat="46.49293" lon="0.33168">
        <ele>84.4</ele>
        <time>2021-01-24T09:20:57.000Z</time>
      </trkpt>
      <trkpt lat="46.49295" lon="0.33171">
        <ele>84.4</ele>
        <time>2021-01-24T09:20:58.000Z</time>
      </trkpt>
      <trkpt lat="46.49295" lon="0.33171">
        <ele>84.6</ele>
        <time>2021-01-24T09:20:59.000Z</time>
      </trkpt>
      <trkpt lat="46.49297" lon="0.33175">
        <ele>84.8</ele>
        <time>2021-01-24T09:21:00.000Z</time>
      </trkpt>
      <trkpt lat="46.49297" lon="0.33175">
        <ele>85</ele>
        <time>2021-01-24T09:21:01.000Z</time>
      </trkpt>
      <trkpt lat="46.49299" lon="0.33179">
        <ele>85.2</ele>
        <time>2021-01-24T09:21:02.000Z</time>
      </trkpt>
      <trkpt lat="46.49299" lon="0.33179">
        <ele>85.4</ele>
        <time>2021-01-24T09:21:03.000Z</time>
      </trkpt>
      <trkpt lat="46.49301" lon="0.33183">
        <ele>85.6</ele>
        <time>2021-01-24T09:21:04.000Z</time>
      </trkpt>
      <trkpt lat="46.49301" lon="0.33183">
        <ele>85.6</ele>
        <time>2021-01-24T09:21:05.000Z</time>
      </trkpt>
      <trkpt lat="46.49301" lon="0.33186">
        <ele>85.8</ele>
        <time>2021-01-24T09:21:06.000Z</time>
      </trkpt>
      <trkpt lat="46.49302" lon="0.33188">
        <ele>86</ele>
        <time>2021-01-24T09:21:07.000Z</time>
      </trkpt>
      <trkpt lat="46.49302" lon="0.33188">
        <ele>86.2</ele>
        <time>2021-01-24T09:21:08.000Z</time>
      </trkpt>
      <trkpt lat="46.49304" lon="0.33192">
        <ele>86.4</ele>
        <time>2021-01-24T09:21:09.000Z</time>
      </trkpt>
      <trkpt lat="46.49305" lon="0.33194">
        <ele>86.6</ele>
        <time>2021-01-24T09:21:10.000Z</time>
      </trkpt>
      <trkpt lat="46.49305" lon="0.33194">
        <ele>86.6</ele>
        <time>2021-01-24T09:21:11.000Z</time>
      </trkpt>
      <trkpt lat="46.49307" lon="0.33198">
        <ele>87</ele>
        <time>2021-01-24T09:21:12.000Z</time>
      </trkpt>
      <trkpt lat="46.49307" lon="0.33198">
        <ele>87.2</ele>
        <time>2021-01-24T09:21:13.000Z</time>
      </trkpt>
      <trkpt lat="46.49309" lon="0.33202">
        <ele>87.4</ele>
        <time>2021-01-24T09:21:14.000Z</time>
      </trkpt>
      <trkpt lat="46.49309" lon="0.33202">
        <ele>87.6</ele>
        <time>2021-01-24T09:21:15.000Z</time>
      </trkpt>
      <trkpt lat="46.4931" lon="0.33205">
        <ele>87.8</ele>
        <time>2021-01-24T09:21:16.000Z</time>
      </trkpt>
      <trkpt lat="46.4931" lon="0.33205">
        <ele>88</ele>
        <time>2021-01-24T09:21:17.000Z</time>
      </trkpt>
      <trkpt lat="46.49312" lon="0.33209">
        <ele>88.2</ele>
        <time>2021-01-24T09:21:18.000Z</time>
      </trkpt>
      <trkpt lat="46.49312" lon="0.33209">
        <ele>88.4</ele>
        <time>2021-01-24T09:21:19.000Z</time>
      </trkpt>
      <trkpt lat="46.49313" lon="0.33213">
        <ele>88.6</ele>
        <time>2021-01-24T09:21:20.000Z</time>
      </trkpt>
      <trkpt lat="46.49313" lon="0.33213">
        <ele>88.8</ele>
        <time>2021-01-24T09:21:21.000Z</time>
      </trkpt>
      <trkpt lat="46.49314" lon="0.33216">
        <ele>89</ele>
        <time>2021-01-24T09:21:22.000Z</time>
      </trkpt>
      <trkpt lat="46.49314" lon="0.33216">
        <ele>89.2</ele>
        <time>2021-01-24T09:21:23.000Z</time>
      </trkpt>
      <trkpt lat="46.49315" lon="0.3322">
        <ele>89.4</ele>
        <time>2021-01-24T09:21:24.000Z</time>
      </trkpt>
      <trkpt lat="46.49315" lon="0.3322">
        <ele>89.6</ele>
        <time>2021-01-24T09:21:25.000Z</time>
      </trkpt>
      <trkpt lat="46.49315" lon="0.33223">
        <ele>89.8</ele>
        <time>2021-01-24T09:21:26.000Z</time>
      </trkpt>
      <trkpt lat="46.49315" lon="0.33223">
        <ele>89.8</ele>
        <time>2021-01-24T09:21:27.000Z</time>
      </trkpt>
      <trkpt lat="46.49313" lon="0.33225">
        <ele>90</ele>
        <time>2021-01-24T09:21:28.000Z</time>
      </trkpt>
      <trkpt lat="46.49313" lon="0.33225">
        <ele>90.2</ele>
        <time>2021-01-24T09:21:29.000Z</time>
      </trkpt>
      <trkpt lat="46.49313" lon="0.33228">
        <ele>90.6</ele>
        <time>2021-01-24T09:21:30.000Z</time>
      </trkpt>
      <trkpt lat="46.49313" lon="0.33228">
        <ele>90.8</ele>
        <time>2021-01-24T09:21:31.000Z</time>
      </trkpt>
      <trkpt lat="46.49313" lon="0.33231">
        <ele>91</ele>
        <time>2021-01-24T09:21:32.000Z</time>
      </trkpt>
      <trkpt lat="46.49313" lon="0.33231">
        <ele>91.2</ele>
        <time>2021-01-24T09:21:33.000Z</time>
      </trkpt>
      <trkpt lat="46.49314" lon="0.33235">
        <ele>91.4</ele>
        <time>2021-01-24T09:21:34.000Z</time>
      </trkpt>
      <trkpt lat="46.49314" lon="0.33235">
        <ele>91.8</ele>
        <time>2021-01-24T09:21:35.000Z</time>
      </trkpt>
      <trkpt lat="46.49315" lon="0.33239">
        <ele>92</ele>
        <time>2021-01-24T09:21:36.000Z</time>
      </trkpt>
      <trkpt lat="46.49315" lon="0.33239">
        <ele>92.4</ele>
        <time>2021-01-24T09:21:37.000Z</time>
      </trkpt>
      <trkpt lat="46.49316" lon="0.33243">
        <ele>92.6</ele>
        <time>2021-01-24T09:21:38.000Z</time>
      </trkpt>
      <trkpt lat="46.49316" lon="0.33243">
        <ele>92.8</ele>
        <time>2021-01-24T09:21:39.000Z</time>
      </trkpt>
      <trkpt lat="46.49316" lon="0.33243">
        <ele>93</ele>
        <time>2021-01-24T09:21:40.000Z</time>
      </trkpt>
      <trkpt lat="46.49316" lon="0.33243">
        <ele>93.2</ele>
        <time>2021-01-24T09:21:41.000Z</time>
      </trkpt>
      <trkpt lat="46.49316" lon="0.33246">
        <ele>93.4</ele>
        <time>2021-01-24T09:21:42.000Z</time>
      </trkpt>
      <trkpt lat="46.49316" lon="0.33246">
        <ele>93.6</ele>
        <time>2021-01-24T09:21:43.000Z</time>
      </trkpt>
      <trkpt lat="46.49316" lon="0.33246">
        <ele>93.8</ele>
        <time>2021-01-24T09:21:44.000Z</time>
      </trkpt>
      <trkpt lat="46.49316" lon="0.33246">
        <ele>94</ele>
        <time>2021-01-24T09:21:45.000Z</time>
      </trkpt>
      <trkpt lat="46.49316" lon="0.33246">
        <ele>94.2</ele>
        <time>2021-01-24T09:21:46.000Z</time>
      </trkpt>
      <trkpt lat="46.49316" lon="0.33246">
        <ele>94.4</ele>
        <time>2021-01-24T09:21:47.000Z</time>
      </trkpt>
      <trkpt lat="46.49316" lon="0.33246">
        <ele>94.8</ele>
        <time>2021-01-24T09:21:48.000Z</time>
      </trkpt>
      <trkpt lat="46.49316" lon="0.33246">
        <ele>95</ele>
        <time>2021-01-24T09:21:49.000Z</time>
      </trkpt>
      <trkpt lat="46.49316" lon="0.33246">
        <ele>95.4</ele>
        <time>2021-01-24T09:21:50.000Z</time>
      </trkpt>
      <trkpt lat="46.49316" lon="0.33246">
        <ele>95.6</ele>
        <time>2021-01-24T09:21:51.000Z</time>
      </trkpt>
      <trkpt lat="46.49316" lon="0.33246">
        <ele>96</ele>
        <time>2021-01-24T09:21:52.000Z</time>
      </trkpt>
      <trkpt lat="46.49316" lon="0.33246">
        <ele>96.2</ele>
        <time>2021-01-24T09:21:53.000Z</time>
      </trkpt>
      <trkpt lat="46.49316" lon="0.33246">
        <ele>96.2</ele>
        <time>2021-01-24T09:21:54.000Z</time>
      </trkpt>
      <trkpt lat="46.49316" lon="0.33246">
        <ele>96.8</ele>
        <time>2021-01-24T09:21:55.000Z</time>
      </trkpt>
      <trkpt lat="46.49316" lon="0.33246">
        <ele>97</ele>
        <time>2021-01-24T09:21:56.000Z</time>
      </trkpt>
      <trkpt lat="46.49316" lon="0.33246">
        <ele>97.2</ele>
        <time>2021-01-24T09:21:57.000Z</time>
      </trkpt>
      <trkpt lat="46.49316" lon="0.33246">
        <ele>97.6</ele>
        <time>2021-01-24T09:21:58.000Z</time>
      </trkpt>
      <trkpt lat="46.49316" lon="0.33246">
        <ele>97.8</ele>
        <time>2021-01-24T09:21:59.000Z</time>
      </trkpt>
      <trkpt lat="46.49316" lon="0.33246">
        <ele>98</ele>
        <time>2021-01-24T09:22:00.000Z</time>
      </trkpt>
      <trkpt lat="46.49316" lon="0.33246">
        <ele>98.2</ele>
        <time>2021-01-24T09:22:01.000Z</time>
      </trkpt>
      <trkpt lat="46.49316" lon="0.33246">
        <ele>98.2</ele>
        <time>2021-01-24T09:22:02.000Z</time>
      </trkpt>
      <trkpt lat="46.49316" lon="0.33246">
        <ele>98.6</ele>
        <time>2021-01-24T09:22:03.000Z</time>
      </trkpt>
      <trkpt lat="46.49316" lon="0.33246">
        <ele>98.8</ele>
        <time>2021-01-24T09:22:04.000Z</time>
      </trkpt>
      <trkpt lat="46.49316" lon="0.33246">
        <ele>99.2</ele>
        <time>2021-01-24T09:22:05.000Z</time>
      </trkpt>
      <trkpt lat="46.49316" lon="0.33246">
        <ele>99.4</ele>
        <time>2021-01-24T09:22:06.000Z</time>
      </trkpt>
      <trkpt lat="46.49316" lon="0.33246">
        <ele>99.6</ele>
        <time>2021-01-24T09:22:07.000Z</time>
      </trkpt>
      <trkpt lat="46.49316" lon="0.33246">
        <ele>99.8</ele>
        <time>2021-01-24T09:22:08.000Z</time>
      </trkpt>
      <trkpt lat="46.49316" lon="0.33246">
        <ele>100</ele>
        <time>2021-01-24T09:22:09.000Z</time>
      </trkpt>
      <trkpt lat="46.49316" lon="0.33246">
        <ele>100.4</ele>
        <time>2021-01-24T09:22:10.000Z</time>
      </trkpt>
      <trkpt lat="46.49316" lon="0.33246">
        <ele>100.6</ele>
        <time>2021-01-24T09:22:11.000Z</time>
      </trkpt>
      <trkpt lat="46.49316" lon="0.33246">
        <ele>100.8</ele>
        <time>2021-01-24T09:22:12.000Z</time>
      </trkpt>
      <trkpt lat="46.49316" lon="0.33246">
        <ele>101</ele>
        <time>2021-01-24T09:22:13.000Z</time>
      </trkpt>
      <trkpt lat="46.49316" lon="0.33246">
        <ele>101.2</ele>
        <time>2021-01-24T09:22:14.000Z</time>
      </trkpt>
      <trkpt lat="46.49316" lon="0.33246">
        <ele>101.4</ele>
        <time>2021-01-24T09:22:15.000Z</time>
      </trkpt>
      <trkpt lat="46.49316" lon="0.33246">
        <ele>101.6</ele>
        <time>2021-01-24T09:22:16.000Z</time>
      </trkpt>
      <trkpt lat="46.49316" lon="0.33246">
        <ele>101.8</ele>
        <time>2021-01-24T09:22:17.000Z</time>
      </trkpt>
      <trkpt lat="46.49316" lon="0.33246">
        <ele>102</ele>
        <time>2021-01-24T09:22:18.000Z</time>
      </trkpt>
      <trkpt lat="46.49316" lon="0.33246">
        <ele>102.2</ele>
        <time>2021-01-24T09:22:19.000Z</time>
      </trkpt>
      <trkpt lat="46.49316" lon="0.33246">
        <ele>102.4</ele>
        <time>2021-01-24T09:22:20.000Z</time>
      </trkpt>
      <trkpt lat="46.49316" lon="0.33246">
        <ele>102.6</ele>
        <time>2021-01-24T09:22:21.000Z</time>
      </trkpt>
      <trkpt lat="46.49316" lon="0.33246">
        <ele>102.8</ele>
        <time>2021-01-24T09:22:22.000Z</time>
      </trkpt>
      <trkpt lat="46.49316" lon="0.33246">
        <ele>103</ele>
        <time>2021-01-24T09:22:23.000Z</time>
      </trkpt>
      <trkpt lat="46.49316" lon="0.33246">
        <ele>103.2</ele>
        <time>2021-01-24T09:22:24.000Z</time>
      </trkpt>
      <trkpt lat="46.49316" lon="0.33246">
        <ele>103.2</ele>
        <time>2021-01-24T09:22:25.000Z</time>
      </trkpt>
      <trkpt lat="46.49316" lon="0.33246">
        <ele>103.4</ele>
        <time>2021-01-24T09:22:26.000Z</time>
      </trkpt>
      <trkpt lat="46.49316" lon="0.33246">
        <ele>103.6</ele>
        <time>2021-01-24T09:22:27.000Z</time>
      </trkpt>
      <trkpt lat="46.49316" lon="0.33246">
        <ele>103.8</ele>
        <time>2021-01-24T09:22:28.000Z</time>
      </trkpt>
      <trkpt lat="46.49316" lon="0.33246">
        <ele>104</ele>
        <time>2021-01-24T09:22:29.000Z</time>
      </trkpt>
      <trkpt lat="46.49316" lon="0.33246">
        <ele>104.2</ele>
        <time>2021-01-24T09:22:30.000Z</time>
      </trkpt>
      <trkpt lat="46.49316" lon="0.33246">
        <ele>104.4</ele>
        <time>2021-01-24T09:22:31.000Z</time>
      </trkpt>
      <trkpt lat="46.49316" lon="0.33246">
        <ele>104.4</ele>
        <time>2021-01-24T09:22:32.000Z</time>
      </trkpt>
      <trkpt lat="46.49316" lon="0.33246">
        <ele>104.6</ele>
        <time>2021-01-24T09:22:33.000Z</time>
      </trkpt>
      <trkpt lat="46.49316" lon="0.33246">
        <ele>104.8</ele>
        <time>2021-01-24T09:22:34.000Z</time>
      </trkpt>
      <trkpt lat="46.49316" lon="0.33246">
        <ele>105</ele>
        <time>2021-01-24T09:22:35.000Z</time>
      </trkpt>
      <trkpt lat="46.49316" lon="0.33246">
        <ele>105.2</ele>
        <time>2021-01-24T09:22:36.000Z</time>
      </trkpt>
      <trkpt lat="46.49316" lon="0.33246">
        <ele>105.4</ele>
        <time>2021-01-24T09:22:37.000Z</time>
      </trkpt>
      <trkpt lat="46.49316" lon="0.33246">
        <ele>105.4</ele>
        <time>2021-01-24T09:22:38.000Z</time>
      </trkpt>
      <trkpt lat="46.49316" lon="0.33246">
        <ele>105.6</ele>
        <time>2021-01-24T09:22:39.000Z</time>
      </trkpt>
      <trkpt lat="46.49316" lon="0.33246">
        <ele>105.8</ele>
        <time>2021-01-24T09:22:40.000Z</time>
      </trkpt>
      <trkpt lat="46.49316" lon="0.33246">
        <ele>105.8</ele>
        <time>2021-01-24T09:22:41.000Z</time>
      </trkpt>
      <trkpt lat="46.49316" lon="0.33246">
        <ele>106</ele>
        <time>2021-01-24T09:22:42.000Z</time>
      </trkpt>
      <trkpt lat="46.49316" lon="0.33246">
        <ele>106.2</ele>
        <time>2021-01-24T09:22:43.000Z</time>
      </trkpt>
      <trkpt lat="46.49316" lon="0.33246">
        <ele>106.4</ele>
        <time>2021-01-24T09:22:44.000Z</time>
      </trkpt>
      <trkpt lat="46.49316" lon="0.33246">
        <ele>106.4</ele>
        <time>2021-01-24T09:22:45.000Z</time>
      </trkpt>
      <trkpt lat="46.49316" lon="0.33246">
        <ele>106.6</ele>
        <time>2021-01-24T09:22:46.000Z</time>
      </trkpt>
      <trkpt lat="46.49316" lon="0.33246">
        <ele>106.6</ele>
        <time>2021-01-24T09:22:47.000Z</time>
      </trkpt>
      <trkpt lat="46.49316" lon="0.33246">
        <ele>106.8</ele>
        <time>2021-01-24T09:22:48.000Z</time>
      </trkpt>
      <trkpt lat="46.49316" lon="0.33246">
        <ele>107</ele>
        <time>2021-01-24T09:22:49.000Z</time>
      </trkpt>
      <trkpt lat="46.49316" lon="0.33246">
        <ele>107</ele>
        <time>2021-01-24T09:22:50.000Z</time>
      </trkpt>
      <trkpt lat="46.49316" lon="0.33246">
        <ele>107.2</ele>
        <time>2021-01-24T09:22:51.000Z</time>
      </trkpt>
      <trkpt lat="46.49316" lon="0.33246">
        <ele>107.4</ele>
        <time>2021-01-24T09:22:52.000Z</time>
      </trkpt>
      <trkpt lat="46.49316" lon="0.33246">
        <ele>107.4</ele>
        <time>2021-01-24T09:22:53.000Z</time>
      </trkpt>
      <trkpt lat="46.49316" lon="0.33246">
        <ele>107.6</ele>
        <time>2021-01-24T09:22:54.000Z</time>
      </trkpt>
      <trkpt lat="46.49316" lon="0.33246">
        <ele>107.6</ele>
        <time>2021-01-24T09:22:55.000Z</time>
      </trkpt>
      <trkpt lat="46.49316" lon="0.33246">
        <ele>107.8</ele>
        <time>2021-01-24T09:22:56.000Z</time>
      </trkpt>
      <trkpt lat="46.49316" lon="0.33246">
        <ele>107.8</ele>
        <time>2021-01-24T09:22:57.000Z</time>
      </trkpt>
      <trkpt lat="46.49316" lon="0.33246">
        <ele>108</ele>
        <time>2021-01-24T09:22:58.000Z</time>
      </trkpt>
      <trkpt lat="46.49316" lon="0.33246">
        <ele>108</ele>
        <time>2021-01-24T09:22:59.000Z</time>
      </trkpt>
      <trkpt lat="46.49316" lon="0.33246">
        <ele>108.2</ele>
        <time>2021-01-24T09:23:00.000Z</time>
      </trkpt>
      <trkpt lat="46.49316" lon="0.33246">
        <ele>108.2</ele>
        <time>2021-01-24T09:23:01.000Z</time>
      </trkpt>
      <trkpt lat="46.49314" lon="0.33249">
        <ele>108.4</ele>
        <time>2021-01-24T09:23:02.000Z</time>
      </trkpt>
      <trkpt lat="46.49314" lon="0.33249">
        <ele>108.4</ele>
        <time>2021-01-24T09:23:03.000Z</time>
      </trkpt>
      <trkpt lat="46.49313" lon="0.33253">
        <ele>108.4</ele>
        <time>2021-01-24T09:23:04.000Z</time>
      </trkpt>
      <trkpt lat="46.49314" lon="0.33256">
        <ele>108.6</ele>
        <time>2021-01-24T09:23:05.000Z</time>
      </trkpt>
      <trkpt lat="46.49313" lon="0.33259">
        <ele>108.6</ele>
        <time>2021-01-24T09:23:06.000Z</time>
      </trkpt>
      <trkpt lat="46.49313" lon="0.33259">
        <ele>108.8</ele>
        <time>2021-01-24T09:23:07.000Z</time>
      </trkpt>
      <trkpt lat="46.49314" lon="0.33265">
        <ele>108.8</ele>
        <time>2021-01-24T09:23:08.000Z</time>
      </trkpt>
      <trkpt lat="46.49314" lon="0.33269">
        <ele>108.8</ele>
        <time>2021-01-24T09:23:09.000Z</time>
      </trkpt>
      <trkpt lat="46.49313" lon="0.33273">
        <ele>109</ele>
        <time>2021-01-24T09:23:10.000Z</time>
      </trkpt>
      <trkpt lat="46.49313" lon="0.33273">
        <ele>109</ele>
        <time>2021-01-24T09:23:11.000Z</time>
      </trkpt>
      <trkpt lat="46.49312" lon="0.33277">
        <ele>109</ele>
        <time>2021-01-24T09:23:12.000Z</time>
      </trkpt>
      <trkpt lat="46.49312" lon="0.33277">
        <ele>109.2</ele>
        <time>2021-01-24T09:23:13.000Z</time>
      </trkpt>
      <trkpt lat="46.49313" lon="0.33282">
        <ele>109.2</ele>
        <time>2021-01-24T09:23:14.000Z</time>
      </trkpt>
      <trkpt lat="46.49313" lon="0.33282">
        <ele>109.2</ele>
        <time>2021-01-24T09:23:15.000Z</time>
      </trkpt>
      <trkpt lat="46.49314" lon="0.33286">
        <ele>109.4</ele>
        <time>2021-01-24T09:23:16.000Z</time>
      </trkpt>
      <trkpt lat="46.49314" lon="0.33286">
        <ele>109.4</ele>
        <time>2021-01-24T09:23:17.000Z</time>
      </trkpt>
      <trkpt lat="46.49315" lon="0.33291">
        <ele>109.6</ele>
        <time>2021-01-24T09:23:18.000Z</time>
      </trkpt>
      <trkpt lat="46.49315" lon="0.33291">
        <ele>109.6</ele>
        <time>2021-01-24T09:23:19.000Z</time>
      </trkpt>
      <trkpt lat="46.49315" lon="0.33296">
        <ele>109.8</ele>
        <time>2021-01-24T09:23:20.000Z</time>
      </trkpt>
      <trkpt lat="46.49315" lon="0.33296">
        <ele>109.8</ele>
        <time>2021-01-24T09:23:21.000Z</time>
      </trkpt>
      <trkpt lat="46.49315" lon="0.33299">
        <ele>109.8</ele>
        <time>2021-01-24T09:23:22.000Z</time>
      </trkpt>
      <trkpt lat="46.49315" lon="0.33299">
        <ele>110</ele>
        <time>2021-01-24T09:23:23.000Z</time>
      </trkpt>
      <trkpt lat="46.49316" lon="0.33303">
        <ele>110</ele>
        <time>2021-01-24T09:23:24.000Z</time>
      </trkpt>
      <trkpt lat="46.49316" lon="0.33303">
        <ele>110.2</ele>
        <time>2021-01-24T09:23:25.000Z</time>
      </trkpt>
      <trkpt lat="46.49317" lon="0.33307">
        <ele>110.2</ele>
        <time>2021-01-24T09:23:26.000Z</time>
      </trkpt>
      <trkpt lat="46.49317" lon="0.33307">
        <ele>110.4</ele>
        <time>2021-01-24T09:23:27.000Z</time>
      </trkpt>
      <trkpt lat="46.49319" lon="0.3331">
        <ele>110.4</ele>
        <time>2021-01-24T09:23:28.000Z</time>
      </trkpt>
      <trkpt lat="46.49319" lon="0.3331">
        <ele>110.4</ele>
        <time>2021-01-24T09:23:29.000Z</time>
      </trkpt>
      <trkpt lat="46.49321" lon="0.33313">
        <ele>110.6</ele>
        <time>2021-01-24T09:23:30.000Z</time>
      </trkpt>
      <trkpt lat="46.49321" lon="0.33313">
        <ele>110.6</ele>
        <time>2021-01-24T09:23:31.000Z</time>
      </trkpt>
      <trkpt lat="46.49323" lon="0.33317">
        <ele>110.6</ele>
        <time>2021-01-24T09:23:32.000Z</time>
      </trkpt>
      <trkpt lat="46.49323" lon="0.33317">
        <ele>110.6</ele>
        <time>2021-01-24T09:23:33.000Z</time>
      </trkpt>
      <trkpt lat="46.49324" lon="0.33319">
        <ele>110.6</ele>
        <time>2021-01-24T09:23:34.000Z</time>
      </trkpt>
      <trkpt lat="46.49324" lon="0.33319">
        <ele>110.8</ele>
        <time>2021-01-24T09:23:35.000Z</time>
      </trkpt>
      <trkpt lat="46.49326" lon="0.33322">
        <ele>110.8</ele>
        <time>2021-01-24T09:23:36.000Z</time>
      </trkpt>
      <trkpt lat="46.49328" lon="0.33324">
        <ele>111</ele>
        <time>2021-01-24T09:23:37.000Z</time>
      </trkpt>
      <trkpt lat="46.49328" lon="0.33324">
        <ele>111</ele>
        <time>2021-01-24T09:23:38.000Z</time>
      </trkpt>
      <trkpt lat="46.49331" lon="0.33327">
        <ele>111.2</ele>
        <time>2021-01-24T09:23:39.000Z</time>
      </trkpt>
      <trkpt lat="46.49331" lon="0.33327">
        <ele>111.2</ele>
        <time>2021-01-24T09:23:40.000Z</time>
      </trkpt>
      <trkpt lat="46.49333" lon="0.3333">
        <ele>111.2</ele>
        <time>2021-01-24T09:23:41.000Z</time>
      </trkpt>
      <trkpt lat="46.49333" lon="0.3333">
        <ele>111.2</ele>
        <time>2021-01-24T09:23:42.000Z</time>
      </trkpt>
      <trkpt lat="46.49335" lon="0.33332">
        <ele>111.4</ele>
        <time>2021-01-24T09:23:43.000Z</time>
      </trkpt>
      <trkpt lat="46.49336" lon="0.33334">
        <ele>111.4</ele>
        <time>2021-01-24T09:23:44.000Z</time>
      </trkpt>
      <trkpt lat="46.49336" lon="0.33334">
        <ele>111.4</ele>
        <time>2021-01-24T09:23:45.000Z</time>
      </trkpt>
      <trkpt lat="46.49339" lon="0.33337">
        <ele>111.4</ele>
        <time>2021-01-24T09:23:46.000Z</time>
      </trkpt>
      <trkpt lat="46.4934" lon="0.33339">
        <ele>111.6</ele>
        <time>2021-01-24T09:23:47.000Z</time>
      </trkpt>
      <trkpt lat="46.4934" lon="0.33339">
        <ele>111.6</ele>
        <time>2021-01-24T09:23:48.000Z</time>
      </trkpt>
      <trkpt lat="46.49342" lon="0.33343">
        <ele>111.8</ele>
        <time>2021-01-24T09:23:49.000Z</time>
      </trkpt>
      <trkpt lat="46.49342" lon="0.33343">
        <ele>111.8</ele>
        <time>2021-01-24T09:23:50.000Z</time>
      </trkpt>
      <trkpt lat="46.49344" lon="0.33346">
        <ele>111.8</ele>
        <time>2021-01-24T09:23:51.000Z</time>
      </trkpt>
      <trkpt lat="46.49344" lon="0.33346">
        <ele>112</ele>
        <time>2021-01-24T09:23:52.000Z</time>
      </trkpt>
      <trkpt lat="46.49345" lon="0.3335">
        <ele>112.2</ele>
        <time>2021-01-24T09:23:53.000Z</time>
      </trkpt>
      <trkpt lat="46.49347" lon="0.33351">
        <ele>112.2</ele>
        <time>2021-01-24T09:23:54.000Z</time>
      </trkpt>
      <trkpt lat="46.49349" lon="0.33353">
        <ele>112.2</ele>
        <time>2021-01-24T09:23:55.000Z</time>
      </trkpt>
      <trkpt lat="46.4935" lon="0.33354">
        <ele>112.6</ele>
        <time>2021-01-24T09:23:56.000Z</time>
      </trkpt>
      <trkpt lat="46.4935" lon="0.33354">
        <ele>112.6</ele>
        <time>2021-01-24T09:23:57.000Z</time>
      </trkpt>
      <trkpt lat="46.49353" lon="0.33358">
        <ele>112.8</ele>
        <time>2021-01-24T09:23:58.000Z</time>
      </trkpt>
      <trkpt lat="46.49354" lon="0.3336">
        <ele>112.8</ele>
        <time>2021-01-24T09:23:59.000Z</time>
      </trkpt>
      <trkpt lat="46.49356" lon="0.33362">
        <ele>113</ele>
        <time>2021-01-24T09:24:00.000Z</time>
      </trkpt>
      <trkpt lat="46.49358" lon="0.33364">
        <ele>113.2</ele>
        <time>2021-01-24T09:24:01.000Z</time>
      </trkpt>
      <trkpt lat="46.49358" lon="0.33364">
        <ele>113.2</ele>
        <time>2021-01-24T09:24:02.000Z</time>
      </trkpt>
      <trkpt lat="46.49361" lon="0.33367">
        <ele>113.2</ele>
        <time>2021-01-24T09:24:03.000Z</time>
      </trkpt>
      <trkpt lat="46.49362" lon="0.33369">
        <ele>113.4</ele>
        <time>2021-01-24T09:24:04.000Z</time>
      </trkpt>
      <trkpt lat="46.49362" lon="0.33369">
        <ele>113.4</ele>
        <time>2021-01-24T09:24:05.000Z</time>
      </trkpt>
      <trkpt lat="46.49365" lon="0.33373">
        <ele>113.4</ele>
        <time>2021-01-24T09:24:06.000Z</time>
      </trkpt>
      <trkpt lat="46.49366" lon="0.33374">
        <ele>113.6</ele>
        <time>2021-01-24T09:24:07.000Z</time>
      </trkpt>
      <trkpt lat="46.49368" lon="0.33376">
        <ele>113.6</ele>
        <time>2021-01-24T09:24:08.000Z</time>
      </trkpt>
      <trkpt lat="46.49368" lon="0.33376">
        <ele>113.6</ele>
        <time>2021-01-24T09:24:09.000Z</time>
      </trkpt>
      <trkpt lat="46.4937" lon="0.33381">
        <ele>113.8</ele>
        <time>2021-01-24T09:24:10.000Z</time>
      </trkpt>
      <trkpt lat="46.4937" lon="0.33381">
        <ele>113.8</ele>
        <time>2021-01-24T09:24:11.000Z</time>
      </trkpt>
      <trkpt lat="46.49374" lon="0.33386">
        <ele>113.8</ele>
        <time>2021-01-24T09:24:12.000Z</time>
      </trkpt>
      <trkpt lat="46.49374" lon="0.33388">
        <ele>113.8</ele>
        <time>2021-01-24T09:24:13.000Z</time>
      </trkpt>
      <trkpt lat="46.49376" lon="0.3339">
        <ele>113.8</ele>
        <time>2021-01-24T09:24:14.000Z</time>
      </trkpt>
      <trkpt lat="46.49376" lon="0.3339">
        <ele>114</ele>
        <time>2021-01-24T09:24:15.000Z</time>
      </trkpt>
      <trkpt lat="46.49377" lon="0.33394">
        <ele>114</ele>
        <time>2021-01-24T09:24:16.000Z</time>
      </trkpt>
      <trkpt lat="46.49377" lon="0.33394">
        <ele>114</ele>
        <time>2021-01-24T09:24:17.000Z</time>
      </trkpt>
      <trkpt lat="46.49379" lon="0.33397">
        <ele>114.2</ele>
        <time>2021-01-24T09:24:18.000Z</time>
      </trkpt>
      <trkpt lat="46.49379" lon="0.33397">
        <ele>114.2</ele>
        <time>2021-01-24T09:24:19.000Z</time>
      </trkpt>
      <trkpt lat="46.4938" lon="0.33403">
        <ele>114.4</ele>
        <time>2021-01-24T09:24:20.000Z</time>
      </trkpt>
      <trkpt lat="46.4938" lon="0.33403">
        <ele>114.6</ele>
        <time>2021-01-24T09:24:21.000Z</time>
      </trkpt>
      <trkpt lat="46.49382" lon="0.33407">
        <ele>114.6</ele>
        <time>2021-01-24T09:24:22.000Z</time>
      </trkpt>
      <trkpt lat="46.49382" lon="0.33407">
        <ele>114.8</ele>
        <time>2021-01-24T09:24:23.000Z</time>
      </trkpt>
      <trkpt lat="46.49385" lon="0.33412">
        <ele>114.8</ele>
        <time>2021-01-24T09:24:24.000Z</time>
      </trkpt>
      <trkpt lat="46.49386" lon="0.33413">
        <ele>115</ele>
        <time>2021-01-24T09:24:25.000Z</time>
      </trkpt>
      <trkpt lat="46.49386" lon="0.33413">
        <ele>115</ele>
        <time>2021-01-24T09:24:26.000Z</time>
      </trkpt>
      <trkpt lat="46.49389" lon="0.33415">
        <ele>115.2</ele>
        <time>2021-01-24T09:24:27.000Z</time>
      </trkpt>
      <trkpt lat="46.49389" lon="0.33415">
        <ele>115.4</ele>
        <time>2021-01-24T09:24:28.000Z</time>
      </trkpt>
      <trkpt lat="46.49389" lon="0.33415">
        <ele>115.6</ele>
        <time>2021-01-24T09:24:29.000Z</time>
      </trkpt>
      <trkpt lat="46.49389" lon="0.33415">
        <ele>115.6</ele>
        <time>2021-01-24T09:24:30.000Z</time>
      </trkpt>
      <trkpt lat="46.49389" lon="0.33415">
        <ele>115.8</ele>
        <time>2021-01-24T09:24:31.000Z</time>
      </trkpt>
      <trkpt lat="46.49389" lon="0.33415">
        <ele>116</ele>
        <time>2021-01-24T09:24:32.000Z</time>
      </trkpt>
      <trkpt lat="46.49389" lon="0.33415">
        <ele>116.4</ele>
        <time>2021-01-24T09:24:33.000Z</time>
      </trkpt>
      <trkpt lat="46.49389" lon="0.33415">
        <ele>116.8</ele>
        <time>2021-01-24T09:24:34.000Z</time>
      </trkpt>
      <trkpt lat="46.49389" lon="0.33415">
        <ele>117</ele>
        <time>2021-01-24T09:24:35.000Z</time>
      </trkpt>
      <trkpt lat="46.49391" lon="0.33416">
        <ele>117</ele>
        <time>2021-01-24T09:24:36.000Z</time>
      </trkpt>
      <trkpt lat="46.49391" lon="0.33416">
        <ele>117.2</ele>
        <time>2021-01-24T09:24:37.000Z</time>
      </trkpt>
      <trkpt lat="46.49391" lon="0.33416">
        <ele>117.4</ele>
        <time>2021-01-24T09:24:38.000Z</time>
      </trkpt>
      <trkpt lat="46.49391" lon="0.33416">
        <ele>117.8</ele>
        <time>2021-01-24T09:24:39.000Z</time>
      </trkpt>
      <trkpt lat="46.49391" lon="0.33416">
        <ele>118</ele>
        <time>2021-01-24T09:24:40.000Z</time>
      </trkpt>
      <trkpt lat="46.49391" lon="0.33416">
        <ele>118.2</ele>
        <time>2021-01-24T09:24:41.000Z</time>
      </trkpt>
      <trkpt lat="46.49391" lon="0.33416">
        <ele>118.2</ele>
        <time>2021-01-24T09:24:42.000Z</time>
      </trkpt>
      <trkpt lat="46.49391" lon="0.33416">
        <ele>118.4</ele>
        <time>2021-01-24T09:24:43.000Z</time>
      </trkpt>
      <trkpt lat="46.49391" lon="0.33416">
        <ele>118.8</ele>
        <time>2021-01-24T09:24:44.000Z</time>
      </trkpt>
      <trkpt lat="46.49391" lon="0.33416">
        <ele>118.8</ele>
        <time>2021-01-24T09:24:45.000Z</time>
      </trkpt>
      <trkpt lat="46.49391" lon="0.33416">
        <ele>119</ele>
        <time>2021-01-24T09:24:46.000Z</time>
      </trkpt>
      <trkpt lat="46.49391" lon="0.33416">
        <ele>119.2</ele>
        <time>2021-01-24T09:24:47.000Z</time>
      </trkpt>
      <trkpt lat="46.49391" lon="0.33416">
        <ele>119.6</ele>
        <time>2021-01-24T09:24:48.000Z</time>
      </trkpt>
      <trkpt lat="46.49391" lon="0.33416">
        <ele>119.6</ele>
        <time>2021-01-24T09:24:49.000Z</time>
      </trkpt>
      <trkpt lat="46.49391" lon="0.33416">
        <ele>119.8</ele>
        <time>2021-01-24T09:24:50.000Z</time>
      </trkpt>
      <trkpt lat="46.49391" lon="0.33416">
        <ele>119.8</ele>
        <time>2021-01-24T09:24:51.000Z</time>
      </trkpt>
      <trkpt lat="46.49391" lon="0.33416">
        <ele>120</ele>
        <time>2021-01-24T09:24:52.000Z</time>
      </trkpt>
      <trkpt lat="46.49391" lon="0.33416">
        <ele>120.2</ele>
        <time>2021-01-24T09:24:53.000Z</time>
      </trkpt>
      <trkpt lat="46.49391" lon="0.33416">
        <ele>120.2</ele>
        <time>2021-01-24T09:24:54.000Z</time>
      </trkpt>
      <trkpt lat="46.49391" lon="0.33416">
        <ele>120.4</ele>
        <time>2021-01-24T09:24:55.000Z</time>
      </trkpt>
      <trkpt lat="46.49391" lon="0.33416">
        <ele>120.6</ele>
        <time>2021-01-24T09:24:56.000Z</time>
      </trkpt>
      <trkpt lat="46.49391" lon="0.33416">
        <ele>120.8</ele>
        <time>2021-01-24T09:24:57.000Z</time>
      </trkpt>
      <trkpt lat="46.49391" lon="0.33416">
        <ele>121</ele>
        <time>2021-01-24T09:24:58.000Z</time>
      </trkpt>
      <trkpt lat="46.49391" lon="0.33416">
        <ele>121</ele>
        <time>2021-01-24T09:24:59.000Z</time>
      </trkpt>
      <trkpt lat="46.49391" lon="0.33416">
        <ele>121</ele>
        <time>2021-01-24T09:25:00.000Z</time>
      </trkpt>
      <trkpt lat="46.49391" lon="0.33416">
        <ele>121.2</ele>
        <time>2021-01-24T09:25:01.000Z</time>
      </trkpt>
      <trkpt lat="46.49391" lon="0.33416">
        <ele>121.4</ele>
        <time>2021-01-24T09:25:02.000Z</time>
      </trkpt>
      <trkpt lat="46.49391" lon="0.33416">
        <ele>121.6</ele>
        <time>2021-01-24T09:25:03.000Z</time>
      </trkpt>
      <trkpt lat="46.49391" lon="0.33416">
        <ele>121.6</ele>
        <time>2021-01-24T09:25:04.000Z</time>
      </trkpt>
      <trkpt lat="46.49391" lon="0.33416">
        <ele>121.8</ele>
        <time>2021-01-24T09:25:05.000Z</time>
      </trkpt>
      <trkpt lat="46.49391" lon="0.33416">
        <ele>121.8</ele>
        <time>2021-01-24T09:25:06.000Z</time>
      </trkpt>
      <trkpt lat="46.49391" lon="0.33416">
        <ele>122</ele>
        <time>2021-01-24T09:25:07.000Z</time>
      </trkpt>
      <trkpt lat="46.49391" lon="0.33416">
        <ele>122</ele>
        <time>2021-01-24T09:25:08.000Z</time>
      </trkpt>
      <trkpt lat="46.49391" lon="0.33416">
        <ele>122.2</ele>
        <time>2021-01-24T09:25:09.000Z</time>
      </trkpt>
      <trkpt lat="46.49391" lon="0.33416">
        <ele>122.2</ele>
        <time>2021-01-24T09:25:10.000Z</time>
      </trkpt>
      <trkpt lat="46.49391" lon="0.33416">
        <ele>122.4</ele>
        <time>2021-01-24T09:25:11.000Z</time>
      </trkpt>
      <trkpt lat="46.49391" lon="0.33416">
        <ele>122.6</ele>
        <time>2021-01-24T09:25:12.000Z</time>
      </trkpt>
      <trkpt lat="46.49391" lon="0.33416">
        <ele>122.6</ele>
        <time>2021-01-24T09:25:13.000Z</time>
      </trkpt>
      <trkpt lat="46.49391" lon="0.33416">
        <ele>122.8</ele>
        <time>2021-01-24T09:25:14.000Z</time>
      </trkpt>
      <trkpt lat="46.49391" lon="0.33416">
        <ele>122.8</ele>
        <time>2021-01-24T09:25:15.000Z</time>
      </trkpt>
      <trkpt lat="46.49391" lon="0.33416">
        <ele>123</ele>
        <time>2021-01-24T09:25:16.000Z</time>
      </trkpt>
      <trkpt lat="46.49391" lon="0.33416">
        <ele>123</ele>
        <time>2021-01-24T09:25:17.000Z</time>
      </trkpt>
      <trkpt lat="46.49391" lon="0.33416">
        <ele>123.2</ele>
        <time>2021-01-24T09:25:18.000Z</time>
      </trkpt>
      <trkpt lat="46.49391" lon="0.33416">
        <ele>123.2</ele>
        <time>2021-01-24T09:25:19.000Z</time>
      </trkpt>
      <trkpt lat="46.49391" lon="0.33412">
        <ele>123.2</ele>
        <time>2021-01-24T09:25:20.000Z</time>
      </trkpt>
      <trkpt lat="46.49392" lon="0.33408">
        <ele>123.4</ele>
        <time>2021-01-24T09:25:21.000Z</time>
      </trkpt>
      <trkpt lat="46.49392" lon="0.33404">
        <ele>123.4</ele>
        <time>2021-01-24T09:25:22.000Z</time>
      </trkpt>
      <trkpt lat="46.49393" lon="0.334">
        <ele>123.4</ele>
        <time>2021-01-24T09:25:23.000Z</time>
      </trkpt>
      <trkpt lat="46.49394" lon="0.33396">
        <ele>123.4</ele>
        <time>2021-01-24T09:25:24.000Z</time>
      </trkpt>
      <trkpt lat="46.49396" lon="0.33391">
        <ele>123.4</ele>
        <time>2021-01-24T09:25:25.000Z</time>
      </trkpt>
      <trkpt lat="46.49397" lon="0.33387">
        <ele>123.4</ele>
        <time>2021-01-24T09:25:26.000Z</time>
      </trkpt>
      <trkpt lat="46.49399" lon="0.33383">
        <ele>123.4</ele>
        <time>2021-01-24T09:25:27.000Z</time>
      </trkpt>
      <trkpt lat="46.49401" lon="0.33379">
        <ele>123.4</ele>
        <time>2021-01-24T09:25:28.000Z</time>
      </trkpt>
      <trkpt lat="46.49403" lon="0.33375">
        <ele>123.2</ele>
        <time>2021-01-24T09:25:29.000Z</time>
      </trkpt>
      <trkpt lat="46.49405" lon="0.33372">
        <ele>123.2</ele>
        <time>2021-01-24T09:25:30.000Z</time>
      </trkpt>
      <trkpt lat="46.49407" lon="0.33368">
        <ele>123</ele>
        <time>2021-01-24T09:25:31.000Z</time>
      </trkpt>
      <trkpt lat="46.49408" lon="0.33365">
        <ele>123</ele>
        <time>2021-01-24T09:25:32.000Z</time>
      </trkpt>
      <trkpt lat="46.4941" lon="0.33361">
        <ele>122.8</ele>
        <time>2021-01-24T09:25:33.000Z</time>
      </trkpt>
      <trkpt lat="46.49412" lon="0.33357">
        <ele>122.6</ele>
        <time>2021-01-24T09:25:34.000Z</time>
      </trkpt>
      <trkpt lat="46.49414" lon="0.33353">
        <ele>122.6</ele>
        <time>2021-01-24T09:25:35.000Z</time>
      </trkpt>
      <trkpt lat="46.49416" lon="0.33349">
        <ele>122.6</ele>
        <time>2021-01-24T09:25:36.000Z</time>
      </trkpt>
      <trkpt lat="46.49418" lon="0.33346">
        <ele>122.4</ele>
        <time>2021-01-24T09:25:37.000Z</time>
      </trkpt>
      <trkpt lat="46.4942" lon="0.33342">
        <ele>122.2</ele>
        <time>2021-01-24T09:25:38.000Z</time>
      </trkpt>
      <trkpt lat="46.49422" lon="0.33338">
        <ele>122.2</ele>
        <time>2021-01-24T09:25:39.000Z</time>
      </trkpt>
      <trkpt lat="46.49424" lon="0.33335">
        <ele>122.2</ele>
        <time>2021-01-24T09:25:40.000Z</time>
      </trkpt>
      <trkpt lat="46.49425" lon="0.33332">
        <ele>122.2</ele>
        <time>2021-01-24T09:25:41.000Z</time>
      </trkpt>
      <trkpt lat="46.49426" lon="0.33327">
        <ele>122.2</ele>
        <time>2021-01-24T09:25:42.000Z</time>
      </trkpt>
      <trkpt lat="46.49426" lon="0.33323">
        <ele>122.2</ele>
        <time>2021-01-24T09:25:43.000Z</time>
      </trkpt>
      <trkpt lat="46.49426" lon="0.33319">
        <ele>122.2</ele>
        <time>2021-01-24T09:25:44.000Z</time>
      </trkpt>
      <trkpt lat="46.49425" lon="0.33314">
        <ele>122.2</ele>
        <time>2021-01-24T09:25:45.000Z</time>
      </trkpt>
      <trkpt lat="46.49424" lon="0.3331">
        <ele>122.2</ele>
        <time>2021-01-24T09:25:46.000Z</time>
      </trkpt>
      <trkpt lat="46.49422" lon="0.33305">
        <ele>122.2</ele>
        <time>2021-01-24T09:25:47.000Z</time>
      </trkpt>
      <trkpt lat="46.4942" lon="0.33301">
        <ele>122.2</ele>
        <time>2021-01-24T09:25:48.000Z</time>
      </trkpt>
      <trkpt lat="46.49417" lon="0.33296">
        <ele>122.2</ele>
        <time>2021-01-24T09:25:49.000Z</time>
      </trkpt>
      <trkpt lat="46.49414" lon="0.33291">
        <ele>122.2</ele>
        <time>2021-01-24T09:25:50.000Z</time>
      </trkpt>
      <trkpt lat="46.49412" lon="0.33286">
        <ele>122.4</ele>
        <time>2021-01-24T09:25:51.000Z</time>
      </trkpt>
      <trkpt lat="46.4941" lon="0.33282">
        <ele>122.4</ele>
        <time>2021-01-24T09:25:52.000Z</time>
      </trkpt>
      <trkpt lat="46.49408" lon="0.33277">
        <ele>122.4</ele>
        <time>2021-01-24T09:25:53.000Z</time>
      </trkpt>
      <trkpt lat="46.49406" lon="0.33273">
        <ele>122.4</ele>
        <time>2021-01-24T09:25:54.000Z</time>
      </trkpt>
      <trkpt lat="46.49404" lon="0.33269">
        <ele>122.4</ele>
        <time>2021-01-24T09:25:55.000Z</time>
      </trkpt>
      <trkpt lat="46.49403" lon="0.33265">
        <ele>122.4</ele>
        <time>2021-01-24T09:25:56.000Z</time>
      </trkpt>
      <trkpt lat="46.49402" lon="0.33261">
        <ele>122.4</ele>
        <time>2021-01-24T09:25:57.000Z</time>
      </trkpt>
      <trkpt lat="46.494" lon="0.33257">
        <ele>122.4</ele>
        <time>2021-01-24T09:25:58.000Z</time>
      </trkpt>
      <trkpt lat="46.49399" lon="0.33253">
        <ele>122.4</ele>
        <time>2021-01-24T09:25:59.000Z</time>
      </trkpt>
      <trkpt lat="46.49398" lon="0.33248">
        <ele>122.4</ele>
        <time>2021-01-24T09:26:00.000Z</time>
      </trkpt>
      <trkpt lat="46.49396" lon="0.33243">
        <ele>122.4</ele>
        <time>2021-01-24T09:26:01.000Z</time>
      </trkpt>
      <trkpt lat="46.49394" lon="0.33239">
        <ele>122.4</ele>
        <time>2021-01-24T09:26:02.000Z</time>
      </trkpt>
      <trkpt lat="46.49391" lon="0.33234">
        <ele>122.2</ele>
        <time>2021-01-24T09:26:03.000Z</time>
      </trkpt>
      <trkpt lat="46.49389" lon="0.33229">
        <ele>122.2</ele>
        <time>2021-01-24T09:26:04.000Z</time>
      </trkpt>
      <trkpt lat="46.49387" lon="0.33224">
        <ele>122</ele>
        <time>2021-01-24T09:26:05.000Z</time>
      </trkpt>
      <trkpt lat="46.49386" lon="0.3322">
        <ele>122</ele>
        <time>2021-01-24T09:26:06.000Z</time>
      </trkpt>
      <trkpt lat="46.49384" lon="0.33215">
        <ele>122</ele>
        <time>2021-01-24T09:26:07.000Z</time>
      </trkpt>
      <trkpt lat="46.49383" lon="0.3321">
        <ele>122</ele>
        <time>2021-01-24T09:26:08.000Z</time>
      </trkpt>
      <trkpt lat="46.49382" lon="0.33207">
        <ele>121.8</ele>
        <time>2021-01-24T09:26:09.000Z</time>
      </trkpt>
      <trkpt lat="46.49381" lon="0.33202">
        <ele>121.8</ele>
        <time>2021-01-24T09:26:10.000Z</time>
      </trkpt>
      <trkpt lat="46.4938" lon="0.33196">
        <ele>121.6</ele>
        <time>2021-01-24T09:26:11.000Z</time>
      </trkpt>
      <trkpt lat="46.49379" lon="0.33193">
        <ele>121.6</ele>
        <time>2021-01-24T09:26:12.000Z</time>
      </trkpt>
      <trkpt lat="46.49378" lon="0.3319">
        <ele>121.4</ele>
        <time>2021-01-24T09:26:13.000Z</time>
      </trkpt>
      <trkpt lat="46.49376" lon="0.33188">
        <ele>121.2</ele>
        <time>2021-01-24T09:26:14.000Z</time>
      </trkpt>
      <trkpt lat="46.49374" lon="0.33188">
        <ele>121</ele>
        <time>2021-01-24T09:26:15.000Z</time>
      </trkpt>
      <trkpt lat="46.49371" lon="0.33188">
        <ele>121</ele>
        <time>2021-01-24T09:26:16.000Z</time>
      </trkpt>
      <trkpt lat="46.49369" lon="0.33187">
        <ele>120.8</ele>
        <time>2021-01-24T09:26:17.000Z</time>
      </trkpt>
      <trkpt lat="46.49367" lon="0.33185">
        <ele>120.6</ele>
        <time>2021-01-24T09:26:18.000Z</time>
      </trkpt>
      <trkpt lat="46.49367" lon="0.33185">
        <ele>120.4</ele>
        <time>2021-01-24T09:26:19.000Z</time>
      </trkpt>
      <trkpt lat="46.49367" lon="0.33185">
        <ele>120.2</ele>
        <time>2021-01-24T09:26:20.000Z</time>
      </trkpt>
      <trkpt lat="46.49367" lon="0.33185">
        <ele>120</ele>
        <time>2021-01-24T09:26:21.000Z</time>
      </trkpt>
      <trkpt lat="46.49367" lon="0.33185">
        <ele>119.6</ele>
        <time>2021-01-24T09:26:22.000Z</time>
      </trkpt>
      <trkpt lat="46.49366" lon="0.33183">
        <ele>119.6</ele>
        <time>2021-01-24T09:26:23.000Z</time>
      </trkpt>
      <trkpt lat="46.49366" lon="0.33183">
        <ele>119.4</ele>
        <time>2021-01-24T09:26:24.000Z</time>
      </trkpt>
      <trkpt lat="46.49366" lon="0.33183">
        <ele>119</ele>
        <time>2021-01-24T09:26:25.000Z</time>
      </trkpt>
      <trkpt lat="46.49366" lon="0.33183">
        <ele>118.8</ele>
        <time>2021-01-24T09:26:26.000Z</time>
      </trkpt>
      <trkpt lat="46.49366" lon="0.33183">
        <ele>118.6</ele>
        <time>2021-01-24T09:26:27.000Z</time>
      </trkpt>
      <trkpt lat="46.49366" lon="0.33183">
        <ele>118.4</ele>
        <time>2021-01-24T09:26:28.000Z</time>
      </trkpt>
      <trkpt lat="46.49366" lon="0.33183">
        <ele>118.2</ele>
        <time>2021-01-24T09:26:29.000Z</time>
      </trkpt>
      <trkpt lat="46.49366" lon="0.33183">
        <ele>118</ele>
        <time>2021-01-24T09:26:30.000Z</time>
      </trkpt>
      <trkpt lat="46.49366" lon="0.33183">
        <ele>117.8</ele>
        <time>2021-01-24T09:26:31.000Z</time>
      </trkpt>
      <trkpt lat="46.49364" lon="0.33183">
        <ele>117.6</ele>
        <time>2021-01-24T09:26:32.000Z</time>
      </trkpt>
      <trkpt lat="46.49364" lon="0.33183">
        <ele>117.2</ele>
        <time>2021-01-24T09:26:33.000Z</time>
      </trkpt>
      <trkpt lat="46.49364" lon="0.33183">
        <ele>117</ele>
        <time>2021-01-24T09:26:34.000Z</time>
      </trkpt>
      <trkpt lat="46.49366" lon="0.33184">
        <ele>116.8</ele>
        <time>2021-01-24T09:26:35.000Z</time>
      </trkpt>
      <trkpt lat="46.49366" lon="0.33184">
        <ele>116.6</ele>
        <time>2021-01-24T09:26:36.000Z</time>
      </trkpt>
      <trkpt lat="46.49366" lon="0.33184">
        <ele>116.4</ele>
        <time>2021-01-24T09:26:37.000Z</time>
      </trkpt>
      <trkpt lat="46.49366" lon="0.33184">
        <ele>116.4</ele>
        <time>2021-01-24T09:26:38.000Z</time>
      </trkpt>
      <trkpt lat="46.49366" lon="0.33184">
        <ele>116</ele>
        <time>2021-01-24T09:26:39.000Z</time>
      </trkpt>
      <trkpt lat="46.49366" lon="0.33184">
        <ele>116</ele>
        <time>2021-01-24T09:26:40.000Z</time>
      </trkpt>
      <trkpt lat="46.49366" lon="0.33184">
        <ele>115.8</ele>
        <time>2021-01-24T09:26:41.000Z</time>
      </trkpt>
      <trkpt lat="46.49366" lon="0.33184">
        <ele>115.6</ele>
        <time>2021-01-24T09:26:42.000Z</time>
      </trkpt>
      <trkpt lat="46.49366" lon="0.33184">
        <ele>115.4</ele>
        <time>2021-01-24T09:26:43.000Z</time>
      </trkpt>
      <trkpt lat="46.49366" lon="0.33184">
        <ele>115.4</ele>
        <time>2021-01-24T09:26:44.000Z</time>
      </trkpt>
      <trkpt lat="46.49366" lon="0.33184">
        <ele>115.2</ele>
        <time>2021-01-24T09:26:45.000Z</time>
      </trkpt>
      <trkpt lat="46.49366" lon="0.33184">
        <ele>115.2</ele>
        <time>2021-01-24T09:26:46.000Z</time>
      </trkpt>
      <trkpt lat="46.49366" lon="0.33184">
        <ele>115</ele>
        <time>2021-01-24T09:26:47.000Z</time>
      </trkpt>
      <trkpt lat="46.49366" lon="0.33184">
        <ele>114.8</ele>
        <time>2021-01-24T09:26:48.000Z</time>
      </trkpt>
      <trkpt lat="46.49366" lon="0.33184">
        <ele>114.8</ele>
        <time>2021-01-24T09:26:49.000Z</time>
      </trkpt>
      <trkpt lat="46.49366" lon="0.33184">
        <ele>114.8</ele>
        <time>2021-01-24T09:26:50.000Z</time>
      </trkpt>
      <trkpt lat="46.49366" lon="0.33184">
        <ele>114.6</ele>
        <time>2021-01-24T09:26:51.000Z</time>
      </trkpt>
      <trkpt lat="46.49366" lon="0.33184">
        <ele>114.4</ele>
        <time>2021-01-24T09:26:52.000Z</time>
      </trkpt>
      <trkpt lat="46.49366" lon="0.33184">
        <ele>114.2</ele>
        <time>2021-01-24T09:26:53.000Z</time>
      </trkpt>
      <trkpt lat="46.49366" lon="0.33184">
        <ele>114.2</ele>
        <time>2021-01-24T09:26:54.000Z</time>
      </trkpt>
      <trkpt lat="46.49366" lon="0.33184">
        <ele>114</ele>
        <time>2021-01-24T09:26:55.000Z</time>
      </trkpt>
      <trkpt lat="46.49366" lon="0.33184">
        <ele>114</ele>
        <time>2021-01-24T09:26:56.000Z</time>
      </trkpt>
      <trkpt lat="46.49366" lon="0.33184">
        <ele>113.8</ele>
        <time>2021-01-24T09:26:57.000Z</time>
      </trkpt>
      <trkpt lat="46.49366" lon="0.33184">
        <ele>113.8</ele>
        <time>2021-01-24T09:26:58.000Z</time>
      </trkpt>
      <trkpt lat="46.49366" lon="0.33184">
        <ele>113.6</ele>
        <time>2021-01-24T09:26:59.000Z</time>
      </trkpt>
      <trkpt lat="46.49366" lon="0.33184">
        <ele>113.6</ele>
        <time>2021-01-24T09:27:00.000Z</time>
      </trkpt>
      <trkpt lat="46.49366" lon="0.33184">
        <ele>113.4</ele>
        <time>2021-01-24T09:27:01.000Z</time>
      </trkpt>
      <trkpt lat="46.49366" lon="0.33184">
        <ele>113.4</ele>
        <time>2021-01-24T09:27:02.000Z</time>
      </trkpt>
      <trkpt lat="46.49366" lon="0.33184">
        <ele>113.2</ele>
        <time>2021-01-24T09:27:03.000Z</time>
      </trkpt>
      <trkpt lat="46.49366" lon="0.33184">
        <ele>113.2</ele>
        <time>2021-01-24T09:27:04.000Z</time>
      </trkpt>
      <trkpt lat="46.49366" lon="0.33184">
        <ele>113</ele>
        <time>2021-01-24T09:27:05.000Z</time>
      </trkpt>
      <trkpt lat="46.49366" lon="0.33184">
        <ele>113</ele>
        <time>2021-01-24T09:27:06.000Z</time>
      </trkpt>
      <trkpt lat="46.49366" lon="0.33184">
        <ele>113</ele>
        <time>2021-01-24T09:27:07.000Z</time>
      </trkpt>
      <trkpt lat="46.49366" lon="0.33184">
        <ele>112.8</ele>
        <time>2021-01-24T09:27:08.000Z</time>
      </trkpt>
      <trkpt lat="46.49366" lon="0.33184">
        <ele>112.8</ele>
        <time>2021-01-24T09:27:09.000Z</time>
      </trkpt>
      <trkpt lat="46.49366" lon="0.33184">
        <ele>112.6</ele>
        <time>2021-01-24T09:27:10.000Z</time>
      </trkpt>
      <trkpt lat="46.49366" lon="0.33184">
        <ele>112.6</ele>
        <time>2021-01-24T09:27:11.000Z</time>
      </trkpt>
      <trkpt lat="46.49366" lon="0.33184">
        <ele>112.6</ele>
        <time>2021-01-24T09:27:12.000Z</time>
      </trkpt>
      <trkpt lat="46.49366" lon="0.33184">
        <ele>112.4</ele>
        <time>2021-01-24T09:27:13.000Z</time>
      </trkpt>
      <trkpt lat="46.49366" lon="0.33184">
        <ele>112.4</ele>
        <time>2021-01-24T09:27:14.000Z</time>
      </trkpt>
      <trkpt lat="46.49366" lon="0.33184">
        <ele>112.2</ele>
        <time>2021-01-24T09:27:15.000Z</time>
      </trkpt>
      <trkpt lat="46.49366" lon="0.33184">
        <ele>112.2</ele>
        <time>2021-01-24T09:27:16.000Z</time>
      </trkpt>
      <trkpt lat="46.49366" lon="0.33184">
        <ele>112.2</ele>
        <time>2021-01-24T09:27:17.000Z</time>
      </trkpt>
      <trkpt lat="46.49366" lon="0.33184">
        <ele>112</ele>
        <time>2021-01-24T09:27:18.000Z</time>
      </trkpt>
      <trkpt lat="46.49366" lon="0.33184">
        <ele>112</ele>
        <time>2021-01-24T09:27:19.000Z</time>
      </trkpt>
      <trkpt lat="46.49366" lon="0.33184">
        <ele>112</ele>
        <time>2021-01-24T09:27:20.000Z</time>
      </trkpt>
      <trkpt lat="46.49366" lon="0.33184">
        <ele>111.8</ele>
        <time>2021-01-24T09:27:21.000Z</time>
      </trkpt>
      <trkpt lat="46.49366" lon="0.33184">
        <ele>111.8</ele>
        <time>2021-01-24T09:27:22.000Z</time>
      </trkpt>
      <trkpt lat="46.49366" lon="0.33184">
        <ele>111.8</ele>
        <time>2021-01-24T09:27:23.000Z</time>
      </trkpt>
      <trkpt lat="46.49366" lon="0.33184">
        <ele>111.8</ele>
        <time>2021-01-24T09:27:24.000Z</time>
      </trkpt>
      <trkpt lat="46.49366" lon="0.33184">
        <ele>111.6</ele>
        <time>2021-01-24T09:27:25.000Z</time>
      </trkpt>
      <trkpt lat="46.49366" lon="0.33184">
        <ele>111.6</ele>
        <time>2021-01-24T09:27:26.000Z</time>
      </trkpt>
      <trkpt lat="46.49366" lon="0.33184">
        <ele>111.6</ele>
        <time>2021-01-24T09:27:27.000Z</time>
      </trkpt>
      <trkpt lat="46.49366" lon="0.33184">
        <ele>111.6</ele>
        <time>2021-01-24T09:27:28.000Z</time>
      </trkpt>
      <trkpt lat="46.49366" lon="0.33184">
        <ele>111.4</ele>
        <time>2021-01-24T09:27:29.000Z</time>
      </trkpt>
      <trkpt lat="46.49366" lon="0.33184">
        <ele>111.4</ele>
        <time>2021-01-24T09:27:30.000Z</time>
      </trkpt>
      <trkpt lat="46.49366" lon="0.33184">
        <ele>111.4</ele>
        <time>2021-01-24T09:27:31.000Z</time>
      </trkpt>
      <trkpt lat="46.49366" lon="0.33184">
        <ele>111.2</ele>
        <time>2021-01-24T09:27:32.000Z</time>
      </trkpt>
      <trkpt lat="46.49366" lon="0.33184">
        <ele>111.2</ele>
        <time>2021-01-24T09:27:33.000Z</time>
      </trkpt>
      <trkpt lat="46.49366" lon="0.33184">
        <ele>111.2</ele>
        <time>2021-01-24T09:27:34.000Z</time>
      </trkpt>
      <trkpt lat="46.49366" lon="0.33184">
        <ele>111.2</ele>
        <time>2021-01-24T09:27:35.000Z</time>
      </trkpt>
      <trkpt lat="46.49366" lon="0.33184">
        <ele>111</ele>
        <time>2021-01-24T09:27:36.000Z</time>
      </trkpt>
      <trkpt lat="46.49366" lon="0.33184">
        <ele>111</ele>
        <time>2021-01-24T09:27:37.000Z</time>
      </trkpt>
      <trkpt lat="46.49366" lon="0.33184">
        <ele>111</ele>
        <time>2021-01-24T09:27:38.000Z</time>
      </trkpt>
      <trkpt lat="46.49366" lon="0.33184">
        <ele>111</ele>
        <time>2021-01-24T09:27:39.000Z</time>
      </trkpt>
      <trkpt lat="46.49366" lon="0.33184">
        <ele>111</ele>
        <time>2021-01-24T09:27:40.000Z</time>
      </trkpt>
      <trkpt lat="46.49366" lon="0.33184">
        <ele>110.8</ele>
        <time>2021-01-24T09:27:41.000Z</time>
      </trkpt>
      <trkpt lat="46.49366" lon="0.33184">
        <ele>110.8</ele>
        <time>2021-01-24T09:27:42.000Z</time>
      </trkpt>
      <trkpt lat="46.49366" lon="0.33184">
        <ele>110.8</ele>
        <time>2021-01-24T09:27:43.000Z</time>
      </trkpt>
      <trkpt lat="46.49366" lon="0.33184">
        <ele>110.8</ele>
        <time>2021-01-24T09:27:44.000Z</time>
      </trkpt>
      <trkpt lat="46.49366" lon="0.33184">
        <ele>110.6</ele>
        <time>2021-01-24T09:27:45.000Z</time>
      </trkpt>
      <trkpt lat="46.49366" lon="0.33184">
        <ele>110.6</ele>
        <time>2021-01-24T09:27:46.000Z</time>
      </trkpt>
      <trkpt lat="46.49366" lon="0.33184">
        <ele>110.6</ele>
        <time>2021-01-24T09:27:47.000Z</time>
      </trkpt>
      <trkpt lat="46.49366" lon="0.33184">
        <ele>110.6</ele>
        <time>2021-01-24T09:27:48.000Z</time>
      </trkpt>
      <trkpt lat="46.49366" lon="0.33184">
        <ele>110.6</ele>
        <time>2021-01-24T09:27:49.000Z</time>
      </trkpt>
      <trkpt lat="46.49366" lon="0.33184">
        <ele>110.4</ele>
        <time>2021-01-24T09:27:50.000Z</time>
      </trkpt>
      <trkpt lat="46.49366" lon="0.33184">
        <ele>110.4</ele>
        <time>2021-01-24T09:27:51.000Z</time>
      </trkpt>
      <trkpt lat="46.49366" lon="0.33184">
        <ele>110.4</ele>
        <time>2021-01-24T09:27:52.000Z</time>
      </trkpt>
      <trkpt lat="46.49366" lon="0.33184">
        <ele>110.4</ele>
        <time>2021-01-24T09:27:53.000Z</time>
      </trkpt>
      <trkpt lat="46.49366" lon="0.33184">
        <ele>110.4</ele>
        <time>2021-01-24T09:27:54.000Z</time>
      </trkpt>
      <trkpt lat="46.49366" lon="0.33184">
        <ele>110.4</ele>
        <time>2021-01-24T09:27:55.000Z</time>
      </trkpt>
      <trkpt lat="46.49366" lon="0.33184">
        <ele>110.2</ele>
        <time>2021-01-24T09:27:56.000Z</time>
      </trkpt>
      <trkpt lat="46.49366" lon="0.33184">
        <ele>110.2</ele>
        <time>2021-01-24T09:27:57.000Z</time>
      </trkpt>
      <trkpt lat="46.49366" lon="0.33184">
        <ele>110.2</ele>
        <time>2021-01-24T09:27:58.000Z</time>
      </trkpt>
      <trkpt lat="46.49366" lon="0.33184">
        <ele>110.2</ele>
        <time>2021-01-24T09:27:59.000Z</time>
      </trkpt>
      <trkpt lat="46.49366" lon="0.33184">
        <ele>110.2</ele>
        <time>2021-01-24T09:28:00.000Z</time>
      </trkpt>
      <trkpt lat="46.49366" lon="0.33184">
        <ele>110.2</ele>
        <time>2021-01-24T09:28:01.000Z</time>
      </trkpt>
      <trkpt lat="46.49366" lon="0.33184">
        <ele>110.2</ele>
        <time>2021-01-24T09:28:02.000Z</time>
      </trkpt>
      <trkpt lat="46.49366" lon="0.33184">
        <ele>110</ele>
        <time>2021-01-24T09:28:03.000Z</time>
      </trkpt>
      <trkpt lat="46.49366" lon="0.33184">
        <ele>110</ele>
        <time>2021-01-24T09:28:04.000Z</time>
      </trkpt>
      <trkpt lat="46.49366" lon="0.33184">
        <ele>110</ele>
        <time>2021-01-24T09:28:05.000Z</time>
      </trkpt>
      <trkpt lat="46.49366" lon="0.33184">
        <ele>110</ele>
        <time>2021-01-24T09:28:06.000Z</time>
      </trkpt>
      <trkpt lat="46.49366" lon="0.33184">
        <ele>110</ele>
        <time>2021-01-24T09:28:07.000Z</time>
      </trkpt>
      <trkpt lat="46.49366" lon="0.33184">
        <ele>110</ele>
        <time>2021-01-24T09:28:08.000Z</time>
      </trkpt>
      <trkpt lat="46.49366" lon="0.33184">
        <ele>110</ele>
        <time>2021-01-24T09:28:09.000Z</time>
      </trkpt>
      <trkpt lat="46.49366" lon="0.33184">
        <ele>109.8</ele>
        <time>2021-01-24T09:28:10.000Z</time>
      </trkpt>
      <trkpt lat="46.49366" lon="0.33184">
        <ele>109.8</ele>
        <time>2021-01-24T09:28:11.000Z</time>
      </trkpt>
      <trkpt lat="46.49366" lon="0.33184">
        <ele>109.8</ele>
        <time>2021-01-24T09:28:12.000Z</time>
      </trkpt>
      <trkpt lat="46.49366" lon="0.33184">
        <ele>109.8</ele>
        <time>2021-01-24T09:28:13.000Z</time>
      </trkpt>
      <trkpt lat="46.49366" lon="0.33184">
        <ele>109.8</ele>
        <time>2021-01-24T09:28:14.000Z</time>
      </trkpt>
      <trkpt lat="46.49366" lon="0.33184">
        <ele>109.8</ele>
        <time>2021-01-24T09:28:15.000Z</time>
      </trkpt>
      <trkpt lat="46.49366" lon="0.33184">
        <ele>109.8</ele>
        <time>2021-01-24T09:28:16.000Z</time>
      </trkpt>
      <trkpt lat="46.49366" lon="0.33184">
        <ele>109.8</ele>
        <time>2021-01-24T09:28:17.000Z</time>
      </trkpt>
      <trkpt lat="46.49366" lon="0.33184">
        <ele>109.8</ele>
        <time>2021-01-24T09:28:18.000Z</time>
      </trkpt>
      <trkpt lat="46.49366" lon="0.33184">
        <ele>109.6</ele>
        <time>2021-01-24T09:28:19.000Z</time>
      </trkpt>
      <trkpt lat="46.49366" lon="0.33184">
        <ele>109.6</ele>
        <time>2021-01-24T09:28:20.000Z</time>
      </trkpt>
      <trkpt lat="46.49366" lon="0.33184">
        <ele>109.6</ele>
        <time>2021-01-24T09:28:21.000Z</time>
      </trkpt>
      <trkpt lat="46.49366" lon="0.33184">
        <ele>109.6</ele>
        <time>2021-01-24T09:28:22.000Z</time>
      </trkpt>
      <trkpt lat="46.49366" lon="0.33184">
        <ele>109.6</ele>
        <time>2021-01-24T09:28:23.000Z</time>
      </trkpt>
      <trkpt lat="46.49366" lon="0.33184">
        <ele>109.6</ele>
        <time>2021-01-24T09:28:24.000Z</time>
      </trkpt>
      <trkpt lat="46.49366" lon="0.33184">
        <ele>109.6</ele>
        <time>2021-01-24T09:28:25.000Z</time>
      </trkpt>
      <trkpt lat="46.49366" lon="0.33184">
        <ele>109.6</ele>
        <time>2021-01-24T09:28:26.000Z</time>
      </trkpt>
      <trkpt lat="46.49366" lon="0.33184">
        <ele>109.4</ele>
        <time>2021-01-24T09:28:27.000Z</time>
      </trkpt>
      <trkpt lat="46.49366" lon="0.33184">
        <ele>109.4</ele>
        <time>2021-01-24T09:28:28.000Z</time>
      </trkpt>
      <trkpt lat="46.49366" lon="0.33184">
        <ele>109.4</ele>
        <time>2021-01-24T09:28:29.000Z</time>
      </trkpt>
      <trkpt lat="46.49366" lon="0.33184">
        <ele>109.4</ele>
        <time>2021-01-24T09:28:30.000Z</time>
      </trkpt>
      <trkpt lat="46.49366" lon="0.33184">
        <ele>109.4</ele>
        <time>2021-01-24T09:28:31.000Z</time>
      </trkpt>
      <trkpt lat="46.49366" lon="0.33184">
        <ele>109.4</ele>
        <time>2021-01-24T09:28:32.000Z</time>
      </trkpt>
      <trkpt lat="46.49366" lon="0.33184">
        <ele>109.4</ele>
        <time>2021-01-24T09:28:33.000Z</time>
      </trkpt>
      <trkpt lat="46.49366" lon="0.33184">
        <ele>109.4</ele>
        <time>2021-01-24T09:28:34.000Z</time>
      </trkpt>
      <trkpt lat="46.49366" lon="0.33184">
        <ele>109.2</ele>
        <time>2021-01-24T09:28:35.000Z</time>
      </trkpt>
      <trkpt lat="46.49366" lon="0.33184">
        <ele>109.2</ele>
        <time>2021-01-24T09:28:36.000Z</time>
      </trkpt>
      <trkpt lat="46.49366" lon="0.33184">
        <ele>109.2</ele>
        <time>2021-01-24T09:28:37.000Z</time>
      </trkpt>
      <trkpt lat="46.49366" lon="0.33184">
        <ele>109.2</ele>
        <time>2021-01-24T09:28:38.000Z</time>
      </trkpt>
      <trkpt lat="46.49366" lon="0.33184">
        <ele>109.2</ele>
        <time>2021-01-24T09:28:39.000Z</time>
      </trkpt>
      <trkpt lat="46.49366" lon="0.33184">
        <ele>109.2</ele>
        <time>2021-01-24T09:28:40.000Z</time>
      </trkpt>
      <trkpt lat="46.49366" lon="0.33184">
        <ele>109.2</ele>
        <time>2021-01-24T09:28:41.000Z</time>
      </trkpt>
      <trkpt lat="46.49366" lon="0.33184">
        <ele>109.2</ele>
        <time>2021-01-24T09:28:42.000Z</time>
      </trkpt>
      <trkpt lat="46.49366" lon="0.33184">
        <ele>109.2</ele>
        <time>2021-01-24T09:28:43.000Z</time>
      </trkpt>
      <trkpt lat="46.49366" lon="0.33184">
        <ele>109.2</ele>
        <time>2021-01-24T09:28:44.000Z</time>
      </trkpt>
      <trkpt lat="46.49366" lon="0.33184">
        <ele>109</ele>
        <time>2021-01-24T09:28:45.000Z</time>
      </trkpt>
      <trkpt lat="46.49366" lon="0.33184">
        <ele>109</ele>
        <time>2021-01-24T09:28:46.000Z</time>
      </trkpt>
      <trkpt lat="46.49366" lon="0.33184">
        <ele>109</ele>
        <time>2021-01-24T09:28:47.000Z</time>
      </trkpt>
      <trkpt lat="46.49366" lon="0.33184">
        <ele>109</ele>
        <time>2021-01-24T09:28:48.000Z</time>
      </trkpt>
      <trkpt lat="46.49366" lon="0.33184">
        <ele>109</ele>
        <time>2021-01-24T09:28:49.000Z</time>
      </trkpt>
      <trkpt lat="46.49366" lon="0.33184">
        <ele>109</ele>
        <time>2021-01-24T09:28:50.000Z</time>
      </trkpt>
      <trkpt lat="46.49366" lon="0.33184">
        <ele>109</ele>
        <time>2021-01-24T09:28:51.000Z</time>
      </trkpt>
      <trkpt lat="46.49366" lon="0.33184">
        <ele>109</ele>
        <time>2021-01-24T09:28:52.000Z</time>
      </trkpt>
      <trkpt lat="46.49366" lon="0.33184">
        <ele>109</ele>
        <time>2021-01-24T09:28:53.000Z</time>
      </trkpt>
      <trkpt lat="46.49366" lon="0.33184">
        <ele>109</ele>
        <time>2021-01-24T09:28:54.000Z</time>
      </trkpt>
      <trkpt lat="46.49366" lon="0.33184">
        <ele>109</ele>
        <time>2021-01-24T09:28:55.000Z</time>
      </trkpt>
      <trkpt lat="46.49366" lon="0.33184">
        <ele>109</ele>
        <time>2021-01-24T09:28:56.000Z</time>
      </trkpt>
      <trkpt lat="46.49366" lon="0.33184">
        <ele>109</ele>
        <time>2021-01-24T09:28:57.000Z</time>
      </trkpt>
      <trkpt lat="46.49366" lon="0.33184">
        <ele>109</ele>
        <time>2021-01-24T09:28:58.000Z</time>
      </trkpt>
      <trkpt lat="46.49366" lon="0.33184">
        <ele>109</ele>
        <time>2021-01-24T09:28:59.000Z</time>
      </trkpt>
      <trkpt lat="46.49366" lon="0.33184">
        <ele>109</ele>
        <time>2021-01-24T09:29:00.000Z</time>
      </trkpt>
      <trkpt lat="46.49366" lon="0.33184">
        <ele>108.8</ele>
        <time>2021-01-24T09:29:01.000Z</time>
      </trkpt>
      <trkpt lat="46.49366" lon="0.33184">
        <ele>108.8</ele>
        <time>2021-01-24T09:29:02.000Z</time>
      </trkpt>
      <trkpt lat="46.49366" lon="0.33184">
        <ele>108.8</ele>
        <time>2021-01-24T09:29:03.000Z</time>
      </trkpt>
      <trkpt lat="46.49366" lon="0.33184">
        <ele>108.8</ele>
        <time>2021-01-24T09:29:04.000Z</time>
      </trkpt>
      <trkpt lat="46.49366" lon="0.33184">
        <ele>108.8</ele>
        <time>2021-01-24T09:29:05.000Z</time>
      </trkpt>
      <trkpt lat="46.49366" lon="0.33184">
        <ele>108.8</ele>
        <time>2021-01-24T09:29:07.000Z</time>
      </trkpt>
      <trkpt lat="46.49366" lon="0.33184">
        <ele>108.8</ele>
        <time>2021-01-24T09:29:08.000Z</time>
      </trkpt>
      <trkpt lat="46.49366" lon="0.33184">
        <ele>108.8</ele>
        <time>2021-01-24T09:29:09.000Z</time>
      </trkpt>
      <trkpt lat="46.49366" lon="0.33184">
        <ele>108.8</ele>
        <time>2021-01-24T09:29:10.000Z</time>
      </trkpt>
      <trkpt lat="46.49366" lon="0.33184">
        <ele>108.8</ele>
        <time>2021-01-24T09:29:11.000Z</time>
      </trkpt>
      <trkpt lat="46.49366" lon="0.33184">
        <ele>108.8</ele>
        <time>2021-01-24T09:29:12.000Z</time>
      </trkpt>
      <trkpt lat="46.49366" lon="0.33184">
        <ele>108.8</ele>
        <time>2021-01-24T09:29:13.000Z</time>
      </trkpt>
      <trkpt lat="46.49366" lon="0.33184">
        <ele>108.8</ele>
        <time>2021-01-24T09:29:14.000Z</time>
      </trkpt>
      <trkpt lat="46.49366" lon="0.33184">
        <ele>108.8</ele>
        <time>2021-01-24T09:29:15.000Z</time>
      </trkpt>
      <trkpt lat="46.49366" lon="0.33184">
        <ele>108.8</ele>
        <time>2021-01-24T09:29:16.000Z</time>
      </trkpt>
      <trkpt lat="46.49366" lon="0.33184">
        <ele>108.8</ele>
        <time>2021-01-24T09:29:17.000Z</time>
      </trkpt>
      <trkpt lat="46.49366" lon="0.33184">
        <ele>108.8</ele>
        <time>2021-01-24T09:29:18.000Z</time>
      </trkpt>
      <trkpt lat="46.49366" lon="0.33184">
        <ele>108.8</ele>
        <time>2021-01-24T09:29:19.000Z</time>
      </trkpt>
      <trkpt lat="46.49366" lon="0.33184">
        <ele>108.8</ele>
        <time>2021-01-24T09:29:20.000Z</time>
      </trkpt>
      <trkpt lat="46.49366" lon="0.33184">
        <ele>108.8</ele>
        <time>2021-01-24T09:29:21.000Z</time>
      </trkpt>
      <trkpt lat="46.49366" lon="0.33184">
        <ele>108.8</ele>
        <time>2021-01-24T09:29:22.000Z</time>
      </trkpt>
      <trkpt lat="46.49366" lon="0.33184">
        <ele>108.8</ele>
        <time>2021-01-24T09:29:23.000Z</time>
      </trkpt>
      <trkpt lat="46.49366" lon="0.33184">
        <ele>108.8</ele>
        <time>2021-01-24T09:29:24.000Z</time>
      </trkpt>
      <trkpt lat="46.49366" lon="0.33184">
        <ele>108.8</ele>
        <time>2021-01-24T09:29:25.000Z</time>
      </trkpt>
      <trkpt lat="46.49366" lon="0.33184">
        <ele>108.8</ele>
        <time>2021-01-24T09:29:26.000Z</time>
      </trkpt>
      <trkpt lat="46.49366" lon="0.33184">
        <ele>108.8</ele>
        <time>2021-01-24T09:29:27.000Z</time>
      </trkpt>
      <trkpt lat="46.49366" lon="0.33184">
        <ele>108.8</ele>
        <time>2021-01-24T09:29:28.000Z</time>
      </trkpt>
      <trkpt lat="46.49366" lon="0.33184">
        <ele>108.8</ele>
        <time>2021-01-24T09:29:29.000Z</time>
      </trkpt>
      <trkpt lat="46.49366" lon="0.33184">
        <ele>108.8</ele>
        <time>2021-01-24T09:29:30.000Z</time>
      </trkpt>
      <trkpt lat="46.49366" lon="0.33184">
        <ele>108.8</ele>
        <time>2021-01-24T09:29:31.000Z</time>
      </trkpt>
      <trkpt lat="46.49366" lon="0.33184">
        <ele>108.8</ele>
        <time>2021-01-24T09:29:32.000Z</time>
      </trkpt>
      <trkpt lat="46.49366" lon="0.33184">
        <ele>108.8</ele>
        <time>2021-01-24T09:29:33.000Z</time>
      </trkpt>
      <trkpt lat="46.49366" lon="0.33184">
        <ele>108.8</ele>
        <time>2021-01-24T09:29:34.000Z</time>
      </trkpt>
      <trkpt lat="46.49366" lon="0.33184">
        <ele>108.8</ele>
        <time>2021-01-24T09:29:35.000Z</time>
      </trkpt>
      <trkpt lat="46.49366" lon="0.33184">
        <ele>108.8</ele>
        <time>2021-01-24T09:29:36.000Z</time>
      </trkpt>
      <trkpt lat="46.49366" lon="0.33184">
        <ele>108.8</ele>
        <time>2021-01-24T09:29:37.000Z</time>
      </trkpt>
      <trkpt lat="46.49366" lon="0.33184">
        <ele>108.8</ele>
        <time>2021-01-24T09:29:38.000Z</time>
      </trkpt>
      <trkpt lat="46.49366" lon="0.33184">
        <ele>108.8</ele>
        <time>2021-01-24T09:29:39.000Z</time>
      </trkpt>
      <trkpt lat="46.49366" lon="0.33184">
        <ele>108.8</ele>
        <time>2021-01-24T09:29:40.000Z</time>
      </trkpt>
      <trkpt lat="46.49366" lon="0.33184">
        <ele>108.8</ele>
        <time>2021-01-24T09:29:41.000Z</time>
      </trkpt>
      <trkpt lat="46.49366" lon="0.33184">
        <ele>108.8</ele>
        <time>2021-01-24T09:29:42.000Z</time>
      </trkpt>
      <trkpt lat="46.49366" lon="0.33184">
        <ele>108.6</ele>
        <time>2021-01-24T09:29:43.000Z</time>
      </trkpt>
      <trkpt lat="46.49366" lon="0.33184">
        <ele>108.6</ele>
        <time>2021-01-24T09:29:44.000Z</time>
      </trkpt>
      <trkpt lat="46.49366" lon="0.33184">
        <ele>108.6</ele>
        <time>2021-01-24T09:29:45.000Z</time>
      </trkpt>
      <trkpt lat="46.49366" lon="0.33184">
        <ele>108.6</ele>
        <time>2021-01-24T09:29:46.000Z</time>
      </trkpt>
      <trkpt lat="46.49366" lon="0.33184">
        <ele>108.6</ele>
        <time>2021-01-24T09:29:47.000Z</time>
      </trkpt>
      <trkpt lat="46.49366" lon="0.33184">
        <ele>108.6</ele>
        <time>2021-01-24T09:29:48.000Z</time>
      </trkpt>
      <trkpt lat="46.49366" lon="0.33184">
        <ele>108.6</ele>
        <time>2021-01-24T09:29:49.000Z</time>
      </trkpt>
      <trkpt lat="46.49366" lon="0.33184">
        <ele>108.6</ele>
        <time>2021-01-24T09:29:50.000Z</time>
      </trkpt>
      <trkpt lat="46.49366" lon="0.33184">
        <ele>108.6</ele>
        <time>2021-01-24T09:29:51.000Z</time>
      </trkpt>
      <trkpt lat="46.49366" lon="0.33184">
        <ele>108.6</ele>
        <time>2021-01-24T09:29:52.000Z</time>
      </trkpt>
      <trkpt lat="46.49366" lon="0.33184">
        <ele>108.6</ele>
        <time>2021-01-24T09:29:53.000Z</time>
      </trkpt>
      <trkpt lat="46.49366" lon="0.33184">
        <ele>108.6</ele>
        <time>2021-01-24T09:29:54.000Z</time>
      </trkpt>
      <trkpt lat="46.49366" lon="0.33184">
        <ele>108.6</ele>
        <time>2021-01-24T09:29:55.000Z</time>
      </trkpt>
      <trkpt lat="46.49366" lon="0.33184">
        <ele>108.6</ele>
        <time>2021-01-24T09:29:56.000Z</time>
      </trkpt>
      <trkpt lat="46.49366" lon="0.33184">
        <ele>108.6</ele>
        <time>2021-01-24T09:29:57.000Z</time>
      </trkpt>
      <trkpt lat="46.49366" lon="0.33184">
        <ele>108.6</ele>
        <time>2021-01-24T09:29:58.000Z</time>
      </trkpt>
      <trkpt lat="46.49366" lon="0.33184">
        <ele>108.6</ele>
        <time>2021-01-24T09:29:59.000Z</time>
      </trkpt>
      <trkpt lat="46.49366" lon="0.33184">
        <ele>108.6</ele>
        <time>2021-01-24T09:30:00.000Z</time>
      </trkpt>
      <trkpt lat="46.49366" lon="0.33184">
        <ele>108.6</ele>
        <time>2021-01-24T09:30:01.000Z</time>
      </trkpt>
      <trkpt lat="46.49366" lon="0.33184">
        <ele>108.6</ele>
        <time>2021-01-24T09:30:02.000Z</time>
      </trkpt>
      <trkpt lat="46.49366" lon="0.33184">
        <ele>108.6</ele>
        <time>2021-01-24T09:30:03.000Z</time>
      </trkpt>
      <trkpt lat="46.49366" lon="0.33184">
        <ele>108.8</ele>
        <time>2021-01-24T09:30:04.000Z</time>
      </trkpt>
      <trkpt lat="46.49366" lon="0.33184">
        <ele>108.8</ele>
        <time>2021-01-24T09:30:05.000Z</time>
      </trkpt>
      <trkpt lat="46.49366" lon="0.33184">
        <ele>108.8</ele>
        <time>2021-01-24T09:30:06.000Z</time>
      </trkpt>
      <trkpt lat="46.49366" lon="0.33184">
        <ele>108.8</ele>
        <time>2021-01-24T09:30:07.000Z</time>
      </trkpt>
      <trkpt lat="46.49366" lon="0.33184">
        <ele>108.8</ele>
        <time>2021-01-24T09:30:08.000Z</time>
      </trkpt>
      <trkpt lat="46.49366" lon="0.33184">
        <ele>108.8</ele>
        <time>2021-01-24T09:30:09.000Z</time>
      </trkpt>
      <trkpt lat="46.49366" lon="0.33184">
        <ele>108.8</ele>
        <time>2021-01-24T09:30:10.000Z</time>
      </trkpt>
      <trkpt lat="46.49366" lon="0.33184">
        <ele>108.8</ele>
        <time>2021-01-24T09:30:11.000Z</time>
      </trkpt>
      <trkpt lat="46.49366" lon="0.33184">
        <ele>108.8</ele>
        <time>2021-01-24T09:30:12.000Z</time>
      </trkpt>
      <trkpt lat="46.49366" lon="0.33184">
        <ele>108.8</ele>
        <time>2021-01-24T09:30:13.000Z</time>
      </trkpt>
      <trkpt lat="46.49366" lon="0.33184">
        <ele>108.8</ele>
        <time>2021-01-24T09:30:14.000Z</time>
      </trkpt>
      <trkpt lat="46.49366" lon="0.33184">
        <ele>108.8</ele>
        <time>2021-01-24T09:30:15.000Z</time>
      </trkpt>
      <trkpt lat="46.49366" lon="0.33184">
        <ele>108.8</ele>
        <time>2021-01-24T09:30:16.000Z</time>
      </trkpt>
      <trkpt lat="46.49366" lon="0.33184">
        <ele>108.8</ele>
        <time>2021-01-24T09:30:17.000Z</time>
      </trkpt>
      <trkpt lat="46.49366" lon="0.33184">
        <ele>108.8</ele>
        <time>2021-01-24T09:30:18.000Z</time>
      </trkpt>
      <trkpt lat="46.49366" lon="0.33184">
        <ele>108.8</ele>
        <time>2021-01-24T09:30:19.000Z</time>
      </trkpt>
      <trkpt lat="46.49366" lon="0.33184">
        <ele>108.8</ele>
        <time>2021-01-24T09:30:20.000Z</time>
      </trkpt>
      <trkpt lat="46.49366" lon="0.33184">
        <ele>108.8</ele>
        <time>2021-01-24T09:30:21.000Z</time>
      </trkpt>
      <trkpt lat="46.49366" lon="0.33184">
        <ele>108.8</ele>
        <time>2021-01-24T09:30:22.000Z</time>
      </trkpt>
      <trkpt lat="46.49366" lon="0.33184">
        <ele>108.8</ele>
        <time>2021-01-24T09:30:23.000Z</time>
      </trkpt>
      <trkpt lat="46.49366" lon="0.33184">
        <ele>108.8</ele>
        <time>2021-01-24T09:30:24.000Z</time>
      </trkpt>
      <trkpt lat="46.49366" lon="0.33184">
        <ele>108.8</ele>
        <time>2021-01-24T09:30:25.000Z</time>
      </trkpt>
      <trkpt lat="46.49366" lon="0.33184">
        <ele>108.8</ele>
        <time>2021-01-24T09:30:26.000Z</time>
      </trkpt>
      <trkpt lat="46.49366" lon="0.33184">
        <ele>108.8</ele>
        <time>2021-01-24T09:30:27.000Z</time>
      </trkpt>
      <trkpt lat="46.49366" lon="0.33184">
        <ele>108.8</ele>
        <time>2021-01-24T09:30:28.000Z</time>
      </trkpt>
      <trkpt lat="46.49366" lon="0.33184">
        <ele>108.8</ele>
        <time>2021-01-24T09:30:29.000Z</time>
      </trkpt>
      <trkpt lat="46.49365" lon="0.3318">
        <ele>108.8</ele>
        <time>2021-01-24T09:30:30.000Z</time>
      </trkpt>
      <trkpt lat="46.49364" lon="0.33177">
        <ele>108.8</ele>
        <time>2021-01-24T09:30:31.000Z</time>
      </trkpt>
      <trkpt lat="46.49363" lon="0.33174">
        <ele>108.8</ele>
        <time>2021-01-24T09:30:32.000Z</time>
      </trkpt>
      <trkpt lat="46.49363" lon="0.33174">
        <ele>108.6</ele>
        <time>2021-01-24T09:30:33.000Z</time>
      </trkpt>
      <trkpt lat="46.49362" lon="0.33171">
        <ele>108.6</ele>
        <time>2021-01-24T09:30:34.000Z</time>
      </trkpt>
      <trkpt lat="46.49362" lon="0.33171">
        <ele>108.6</ele>
        <time>2021-01-24T09:30:35.000Z</time>
      </trkpt>
      <trkpt lat="46.49362" lon="0.33171">
        <ele>108.6</ele>
        <time>2021-01-24T09:30:36.000Z</time>
      </trkpt>
      <trkpt lat="46.49362" lon="0.33171">
        <ele>108.6</ele>
        <time>2021-01-24T09:30:37.000Z</time>
      </trkpt>
      <trkpt lat="46.49363" lon="0.33166">
        <ele>108.4</ele>
        <time>2021-01-24T09:30:38.000Z</time>
      </trkpt>
      <trkpt lat="46.49364" lon="0.33164">
        <ele>108.2</ele>
        <time>2021-01-24T09:30:39.000Z</time>
      </trkpt>
      <trkpt lat="46.49364" lon="0.33164">
        <ele>108.2</ele>
        <time>2021-01-24T09:30:40.000Z</time>
      </trkpt>
      <trkpt lat="46.49366" lon="0.33156">
        <ele>108.2</ele>
        <time>2021-01-24T09:30:41.000Z</time>
      </trkpt>
      <trkpt lat="46.49367" lon="0.33154">
        <ele>108.2</ele>
        <time>2021-01-24T09:30:42.000Z</time>
      </trkpt>
      <trkpt lat="46.49369" lon="0.33151">
        <ele>108</ele>
        <time>2021-01-24T09:30:43.000Z</time>
      </trkpt>
      <trkpt lat="46.4937" lon="0.33148">
        <ele>108</ele>
        <time>2021-01-24T09:30:44.000Z</time>
      </trkpt>
      <trkpt lat="46.4937" lon="0.33145">
        <ele>107.8</ele>
        <time>2021-01-24T09:30:45.000Z</time>
      </trkpt>
      <trkpt lat="46.49371" lon="0.33142">
        <ele>107.8</ele>
        <time>2021-01-24T09:30:46.000Z</time>
      </trkpt>
      <trkpt lat="46.49373" lon="0.33139">
        <ele>107.8</ele>
        <time>2021-01-24T09:30:47.000Z</time>
      </trkpt>
      <trkpt lat="46.49375" lon="0.33136">
        <ele>107.8</ele>
        <time>2021-01-24T09:30:48.000Z</time>
      </trkpt>
      <trkpt lat="46.49377" lon="0.33132">
        <ele>107.6</ele>
        <time>2021-01-24T09:30:49.000Z</time>
      </trkpt>
      <trkpt lat="46.49379" lon="0.33128">
        <ele>107.4</ele>
        <time>2021-01-24T09:30:50.000Z</time>
      </trkpt>
      <trkpt lat="46.49381" lon="0.33124">
        <ele>107.4</ele>
        <time>2021-01-24T09:30:51.000Z</time>
      </trkpt>
      <trkpt lat="46.49382" lon="0.3312">
        <ele>107.4</ele>
        <time>2021-01-24T09:30:52.000Z</time>
      </trkpt>
      <trkpt lat="46.49384" lon="0.33116">
        <ele>107.2</ele>
        <time>2021-01-24T09:30:53.000Z</time>
      </trkpt>
      <trkpt lat="46.49386" lon="0.33113">
        <ele>107.2</ele>
        <time>2021-01-24T09:30:54.000Z</time>
      </trkpt>
      <trkpt lat="46.49389" lon="0.33108">
        <ele>107.2</ele>
        <time>2021-01-24T09:30:55.000Z</time>
      </trkpt>
      <trkpt lat="46.49391" lon="0.33103">
        <ele>107</ele>
        <time>2021-01-24T09:30:56.000Z</time>
      </trkpt>
      <trkpt lat="46.49393" lon="0.33099">
        <ele>107</ele>
        <time>2021-01-24T09:30:57.000Z</time>
      </trkpt>
      <trkpt lat="46.49396" lon="0.33094">
        <ele>107</ele>
        <time>2021-01-24T09:30:58.000Z</time>
      </trkpt>
      <trkpt lat="46.49399" lon="0.33091">
        <ele>106.8</ele>
        <time>2021-01-24T09:30:59.000Z</time>
      </trkpt>
      <trkpt lat="46.49402" lon="0.33087">
        <ele>106.8</ele>
        <time>2021-01-24T09:31:00.000Z</time>
      </trkpt>
      <trkpt lat="46.49404" lon="0.33083">
        <ele>106.6</ele>
        <time>2021-01-24T09:31:01.000Z</time>
      </trkpt>
      <trkpt lat="46.49407" lon="0.3308">
        <ele>106.6</ele>
        <time>2021-01-24T09:31:02.000Z</time>
      </trkpt>
      <trkpt lat="46.4941" lon="0.33078">
        <ele>106.6</ele>
        <time>2021-01-24T09:31:03.000Z</time>
      </trkpt>
      <trkpt lat="46.49413" lon="0.33076">
        <ele>106.4</ele>
        <time>2021-01-24T09:31:04.000Z</time>
      </trkpt>
      <trkpt lat="46.49416" lon="0.33073">
        <ele>106.4</ele>
        <time>2021-01-24T09:31:05.000Z</time>
      </trkpt>
      <trkpt lat="46.49419" lon="0.3307">
        <ele>106.4</ele>
        <time>2021-01-24T09:31:06.000Z</time>
      </trkpt>
      <trkpt lat="46.49422" lon="0.33067">
        <ele>106.2</ele>
        <time>2021-01-24T09:31:07.000Z</time>
      </trkpt>
      <trkpt lat="46.49425" lon="0.33065">
        <ele>106.2</ele>
        <time>2021-01-24T09:31:08.000Z</time>
      </trkpt>
      <trkpt lat="46.49428" lon="0.33064">
        <ele>106</ele>
        <time>2021-01-24T09:31:09.000Z</time>
      </trkpt>
      <trkpt lat="46.4943" lon="0.33062">
        <ele>106</ele>
        <time>2021-01-24T09:31:10.000Z</time>
      </trkpt>
      <trkpt lat="46.49432" lon="0.3306">
        <ele>106</ele>
        <time>2021-01-24T09:31:11.000Z</time>
      </trkpt>
      <trkpt lat="46.49435" lon="0.33059">
        <ele>106</ele>
        <time>2021-01-24T09:31:12.000Z</time>
      </trkpt>
      <trkpt lat="46.49437" lon="0.33057">
        <ele>105.8</ele>
        <time>2021-01-24T09:31:13.000Z</time>
      </trkpt>
      <trkpt lat="46.49439" lon="0.33056">
        <ele>105.8</ele>
        <time>2021-01-24T09:31:14.000Z</time>
      </trkpt>
      <trkpt lat="46.49442" lon="0.33054">
        <ele>105.8</ele>
        <time>2021-01-24T09:31:15.000Z</time>
      </trkpt>
      <trkpt lat="46.49444" lon="0.33051">
        <ele>105.6</ele>
        <time>2021-01-24T09:31:16.000Z</time>
      </trkpt>
      <trkpt lat="46.49446" lon="0.33049">
        <ele>105.6</ele>
        <time>2021-01-24T09:31:17.000Z</time>
      </trkpt>
      <trkpt lat="46.4945" lon="0.33047">
        <ele>105.6</ele>
        <time>2021-01-24T09:31:18.000Z</time>
      </trkpt>
      <trkpt lat="46.49453" lon="0.33046">
        <ele>105.6</ele>
        <time>2021-01-24T09:31:19.000Z</time>
      </trkpt>
      <trkpt lat="46.49456" lon="0.33045">
        <ele>105.6</ele>
        <time>2021-01-24T09:31:20.000Z</time>
      </trkpt>
      <trkpt lat="46.49459" lon="0.33044">
        <ele>105.6</ele>
        <time>2021-01-24T09:31:21.000Z</time>
      </trkpt>
      <trkpt lat="46.49461" lon="0.33043">
        <ele>105.4</ele>
        <time>2021-01-24T09:31:22.000Z</time>
      </trkpt>
      <trkpt lat="46.49464" lon="0.33042">
        <ele>105.4</ele>
        <time>2021-01-24T09:31:23.000Z</time>
      </trkpt>
      <trkpt lat="46.49466" lon="0.33041">
        <ele>105.4</ele>
        <time>2021-01-24T09:31:24.000Z</time>
      </trkpt>
      <trkpt lat="46.49468" lon="0.3304">
        <ele>105.4</ele>
        <time>2021-01-24T09:31:25.000Z</time>
      </trkpt>
      <trkpt lat="46.4947" lon="0.33038">
        <ele>105.2</ele>
        <time>2021-01-24T09:31:26.000Z</time>
      </trkpt>
      <trkpt lat="46.49473" lon="0.33037">
        <ele>105.2</ele>
        <time>2021-01-24T09:31:27.000Z</time>
      </trkpt>
      <trkpt lat="46.49475" lon="0.33036">
        <ele>105.2</ele>
        <time>2021-01-24T09:31:28.000Z</time>
      </trkpt>
      <trkpt lat="46.49477" lon="0.33034">
        <ele>105.2</ele>
        <time>2021-01-24T09:31:29.000Z</time>
      </trkpt>
      <trkpt lat="46.4948" lon="0.33032">
        <ele>105.2</ele>
        <time>2021-01-24T09:31:30.000Z</time>
      </trkpt>
      <trkpt lat="46.49483" lon="0.33031">
        <ele>105</ele>
        <time>2021-01-24T09:31:31.000Z</time>
      </trkpt>
      <trkpt lat="46.49486" lon="0.3303">
        <ele>105</ele>
        <time>2021-01-24T09:31:32.000Z</time>
      </trkpt>
      <trkpt lat="46.49489" lon="0.33029">
        <ele>105</ele>
        <time>2021-01-24T09:31:33.000Z</time>
      </trkpt>
      <trkpt lat="46.49493" lon="0.33028">
        <ele>105</ele>
        <time>2021-01-24T09:31:34.000Z</time>
      </trkpt>
      <trkpt lat="46.49496" lon="0.33027">
        <ele>105</ele>
        <time>2021-01-24T09:31:35.000Z</time>
      </trkpt>
      <trkpt lat="46.49499" lon="0.33026">
        <ele>105</ele>
        <time>2021-01-24T09:31:36.000Z</time>
      </trkpt>
      <trkpt lat="46.49503" lon="0.33025">
        <ele>105</ele>
        <time>2021-01-24T09:31:37.000Z</time>
      </trkpt>
      <trkpt lat="46.49507" lon="0.33024">
        <ele>104.8</ele>
        <time>2021-01-24T09:31:38.000Z</time>
      </trkpt>
      <trkpt lat="46.49511" lon="0.33022">
        <ele>104.8</ele>
        <time>2021-01-24T09:31:39.000Z</time>
      </trkpt>
      <trkpt lat="46.49515" lon="0.3302">
        <ele>104.8</ele>
        <time>2021-01-24T09:31:40.000Z</time>
      </trkpt>
      <trkpt lat="46.49521" lon="0.33019">
        <ele>104.8</ele>
        <time>2021-01-24T09:31:41.000Z</time>
      </trkpt>
      <trkpt lat="46.49527" lon="0.33016">
        <ele>104.6</ele>
        <time>2021-01-24T09:31:42.000Z</time>
      </trkpt>
      <trkpt lat="46.49531" lon="0.33015">
        <ele>104.6</ele>
        <time>2021-01-24T09:31:43.000Z</time>
      </trkpt>
      <trkpt lat="46.49535" lon="0.33014">
        <ele>104.6</ele>
        <time>2021-01-24T09:31:44.000Z</time>
      </trkpt>
      <trkpt lat="46.49541" lon="0.33013">
        <ele>104.6</ele>
        <time>2021-01-24T09:31:45.000Z</time>
      </trkpt>
      <trkpt lat="46.49546" lon="0.33013">
        <ele>104.6</ele>
        <time>2021-01-24T09:31:46.000Z</time>
      </trkpt>
      <trkpt lat="46.4955" lon="0.33013">
        <ele>104.6</ele>
        <time>2021-01-24T09:31:47.000Z</time>
      </trkpt>
      <trkpt lat="46.49555" lon="0.33012">
        <ele>104.4</ele>
        <time>2021-01-24T09:31:48.000Z</time>
      </trkpt>
      <trkpt lat="46.49559" lon="0.33013">
        <ele>104.4</ele>
        <time>2021-01-24T09:31:49.000Z</time>
      </trkpt>
      <trkpt lat="46.49564" lon="0.33012">
        <ele>104.4</ele>
        <time>2021-01-24T09:31:50.000Z</time>
      </trkpt>
      <trkpt lat="46.49568" lon="0.33011">
        <ele>104.4</ele>
        <time>2021-01-24T09:31:51.000Z</time>
      </trkpt>
      <trkpt lat="46.49573" lon="0.33011">
        <ele>104.4</ele>
        <time>2021-01-24T09:31:52.000Z</time>
      </trkpt>
      <trkpt lat="46.49576" lon="0.3301">
        <ele>104.4</ele>
        <time>2021-01-24T09:31:53.000Z</time>
      </trkpt>
      <trkpt lat="46.4958" lon="0.3301">
        <ele>104.4</ele>
        <time>2021-01-24T09:31:54.000Z</time>
      </trkpt>
      <trkpt lat="46.49584" lon="0.3301">
        <ele>104.2</ele>
        <time>2021-01-24T09:31:55.000Z</time>
      </trkpt>
      <trkpt lat="46.49588" lon="0.3301">
        <ele>104.2</ele>
        <time>2021-01-24T09:31:56.000Z</time>
      </trkpt>
      <trkpt lat="46.49591" lon="0.3301">
        <ele>104.2</ele>
        <time>2021-01-24T09:31:57.000Z</time>
      </trkpt>
      <trkpt lat="46.49596" lon="0.33008">
        <ele>104.2</ele>
        <time>2021-01-24T09:31:58.000Z</time>
      </trkpt>
      <trkpt lat="46.49601" lon="0.33007">
        <ele>104.2</ele>
        <time>2021-01-24T09:31:59.000Z</time>
      </trkpt>
      <trkpt lat="46.49606" lon="0.33005">
        <ele>104.2</ele>
        <time>2021-01-24T09:32:00.000Z</time>
      </trkpt>
      <trkpt lat="46.49611" lon="0.33004">
        <ele>104.2</ele>
        <time>2021-01-24T09:32:01.000Z</time>
      </trkpt>
      <trkpt lat="46.49616" lon="0.33003">
        <ele>104</ele>
        <time>2021-01-24T09:32:02.000Z</time>
      </trkpt>
      <trkpt lat="46.49621" lon="0.33002">
        <ele>104</ele>
        <time>2021-01-24T09:32:03.000Z</time>
      </trkpt>
      <trkpt lat="46.49626" lon="0.33001">
        <ele>104</ele>
        <time>2021-01-24T09:32:04.000Z</time>
      </trkpt>
      <trkpt lat="46.49633" lon="0.33">
        <ele>104</ele>
        <time>2021-01-24T09:32:05.000Z</time>
      </trkpt>
      <trkpt lat="46.49638" lon="0.32999">
        <ele>104</ele>
        <time>2021-01-24T09:32:06.000Z</time>
      </trkpt>
      <trkpt lat="46.49644" lon="0.32998">
        <ele>104</ele>
        <time>2021-01-24T09:32:07.000Z</time>
      </trkpt>
      <trkpt lat="46.49647" lon="0.32998">
        <ele>104</ele>
        <time>2021-01-24T09:32:08.000Z</time>
      </trkpt>
      <trkpt lat="46.49651" lon="0.32997">
        <ele>104</ele>
        <time>2021-01-24T09:32:09.000Z</time>
      </trkpt>
      <trkpt lat="46.49654" lon="0.32997">
        <ele>104.2</ele>
        <time>2021-01-24T09:32:10.000Z</time>
      </trkpt>
      <trkpt lat="46.49658" lon="0.32997">
        <ele>104.2</ele>
        <time>2021-01-24T09:32:11.000Z</time>
      </trkpt>
      <trkpt lat="46.49661" lon="0.32997">
        <ele>104.2</ele>
        <time>2021-01-24T09:32:12.000Z</time>
      </trkpt>
      <trkpt lat="46.49664" lon="0.32996">
        <ele>104.2</ele>
        <time>2021-01-24T09:32:13.000Z</time>
      </trkpt>
      <trkpt lat="46.49667" lon="0.32996">
        <ele>104.2</ele>
        <time>2021-01-24T09:32:14.000Z</time>
      </trkpt>
      <trkpt lat="46.4967" lon="0.32996">
        <ele>104.2</ele>
        <time>2021-01-24T09:32:15.000Z</time>
      </trkpt>
      <trkpt lat="46.49673" lon="0.32996">
        <ele>104.2</ele>
        <time>2021-01-24T09:32:16.000Z</time>
      </trkpt>
      <trkpt lat="46.49676" lon="0.32996">
        <ele>104.2</ele>
        <time>2021-01-24T09:32:17.000Z</time>
      </trkpt>
      <trkpt lat="46.4968" lon="0.32996">
        <ele>104.2</ele>
        <time>2021-01-24T09:32:18.000Z</time>
      </trkpt>
      <trkpt lat="46.49684" lon="0.32996">
        <ele>104.2</ele>
        <time>2021-01-24T09:32:19.000Z</time>
      </trkpt>
      <trkpt lat="46.49688" lon="0.32996">
        <ele>104.2</ele>
        <time>2021-01-24T09:32:20.000Z</time>
      </trkpt>
      <trkpt lat="46.49692" lon="0.32996">
        <ele>104.2</ele>
        <time>2021-01-24T09:32:21.000Z</time>
      </trkpt>
      <trkpt lat="46.49696" lon="0.32997">
        <ele>104.2</ele>
        <time>2021-01-24T09:32:22.000Z</time>
      </trkpt>
      <trkpt lat="46.49701" lon="0.32998">
        <ele>104.2</ele>
        <time>2021-01-24T09:32:23.000Z</time>
      </trkpt>
      <trkpt lat="46.49706" lon="0.32999">
        <ele>104.2</ele>
        <time>2021-01-24T09:32:24.000Z</time>
      </trkpt>
      <trkpt lat="46.4971" lon="0.33">
        <ele>104.2</ele>
        <time>2021-01-24T09:32:25.000Z</time>
      </trkpt>
      <trkpt lat="46.49715" lon="0.33001">
        <ele>104.2</ele>
        <time>2021-01-24T09:32:26.000Z</time>
      </trkpt>
      <trkpt lat="46.49718" lon="0.33002">
        <ele>104.2</ele>
        <time>2021-01-24T09:32:27.000Z</time>
      </trkpt>
      <trkpt lat="46.49722" lon="0.33004">
        <ele>104.2</ele>
        <time>2021-01-24T09:32:28.000Z</time>
      </trkpt>
      <trkpt lat="46.49725" lon="0.33006">
        <ele>104.2</ele>
        <time>2021-01-24T09:32:29.000Z</time>
      </trkpt>
      <trkpt lat="46.49729" lon="0.33007">
        <ele>104.2</ele>
        <time>2021-01-24T09:32:30.000Z</time>
      </trkpt>
      <trkpt lat="46.49733" lon="0.33008">
        <ele>104.2</ele>
        <time>2021-01-24T09:32:31.000Z</time>
      </trkpt>
      <trkpt lat="46.49737" lon="0.3301">
        <ele>104.2</ele>
        <time>2021-01-24T09:32:32.000Z</time>
      </trkpt>
      <trkpt lat="46.4974" lon="0.33011">
        <ele>104.2</ele>
        <time>2021-01-24T09:32:33.000Z</time>
      </trkpt>
      <trkpt lat="46.49743" lon="0.33012">
        <ele>104</ele>
        <time>2021-01-24T09:32:34.000Z</time>
      </trkpt>
      <trkpt lat="46.49747" lon="0.33014">
        <ele>104</ele>
        <time>2021-01-24T09:32:35.000Z</time>
      </trkpt>
      <trkpt lat="46.4975" lon="0.33015">
        <ele>104.2</ele>
        <time>2021-01-24T09:32:36.000Z</time>
      </trkpt>
      <trkpt lat="46.49754" lon="0.33017">
        <ele>104.2</ele>
        <time>2021-01-24T09:32:37.000Z</time>
      </trkpt>
      <trkpt lat="46.49756" lon="0.33019">
        <ele>104.2</ele>
        <time>2021-01-24T09:32:38.000Z</time>
      </trkpt>
      <trkpt lat="46.49758" lon="0.3302">
        <ele>104.2</ele>
        <time>2021-01-24T09:32:39.000Z</time>
      </trkpt>
      <trkpt lat="46.49762" lon="0.33022">
        <ele>104.2</ele>
        <time>2021-01-24T09:32:40.000Z</time>
      </trkpt>
      <trkpt lat="46.49765" lon="0.33022">
        <ele>104.4</ele>
        <time>2021-01-24T09:32:41.000Z</time>
      </trkpt>
      <trkpt lat="46.49768" lon="0.33023">
        <ele>104.4</ele>
        <time>2021-01-24T09:32:42.000Z</time>
      </trkpt>
      <trkpt lat="46.49771" lon="0.33025">
        <ele>104.4</ele>
        <time>2021-01-24T09:32:43.000Z</time>
      </trkpt>
      <trkpt lat="46.49774" lon="0.33025">
        <ele>104.4</ele>
        <time>2021-01-24T09:32:44.000Z</time>
      </trkpt>
      <trkpt lat="46.49776" lon="0.33026">
        <ele>104.6</ele>
        <time>2021-01-24T09:32:45.000Z</time>
      </trkpt>
      <trkpt lat="46.49779" lon="0.33027">
        <ele>104.6</ele>
        <time>2021-01-24T09:32:46.000Z</time>
      </trkpt>
      <trkpt lat="46.49782" lon="0.33027">
        <ele>104.6</ele>
        <time>2021-01-24T09:32:47.000Z</time>
      </trkpt>
      <trkpt lat="46.49785" lon="0.33028">
        <ele>104.6</ele>
        <time>2021-01-24T09:32:48.000Z</time>
      </trkpt>
      <trkpt lat="46.49788" lon="0.33028">
        <ele>104.6</ele>
        <time>2021-01-24T09:32:49.000Z</time>
      </trkpt>
      <trkpt lat="46.4979" lon="0.33028">
        <ele>104.6</ele>
        <time>2021-01-24T09:32:50.000Z</time>
      </trkpt>
      <trkpt lat="46.49793" lon="0.33029">
        <ele>104.6</ele>
        <time>2021-01-24T09:32:51.000Z</time>
      </trkpt>
      <trkpt lat="46.49795" lon="0.33029">
        <ele>104.8</ele>
        <time>2021-01-24T09:32:52.000Z</time>
      </trkpt>
      <trkpt lat="46.49798" lon="0.3303">
        <ele>104.8</ele>
        <time>2021-01-24T09:32:53.000Z</time>
      </trkpt>
      <trkpt lat="46.49801" lon="0.3303">
        <ele>104.8</ele>
        <time>2021-01-24T09:32:54.000Z</time>
      </trkpt>
      <trkpt lat="46.49804" lon="0.33031">
        <ele>104.8</ele>
        <time>2021-01-24T09:32:55.000Z</time>
      </trkpt>
      <trkpt lat="46.49806" lon="0.33031">
        <ele>105</ele>
        <time>2021-01-24T09:32:56.000Z</time>
      </trkpt>
      <trkpt lat="46.49809" lon="0.33032">
        <ele>105.2</ele>
        <time>2021-01-24T09:32:57.000Z</time>
      </trkpt>
      <trkpt lat="46.49811" lon="0.33032">
        <ele>105.2</ele>
        <time>2021-01-24T09:32:58.000Z</time>
      </trkpt>
      <trkpt lat="46.49814" lon="0.33033">
        <ele>105.4</ele>
        <time>2021-01-24T09:32:59.000Z</time>
      </trkpt>
      <trkpt lat="46.49817" lon="0.33033">
        <ele>105.4</ele>
        <time>2021-01-24T09:33:00.000Z</time>
      </trkpt>
      <trkpt lat="46.4982" lon="0.33033">
        <ele>105.6</ele>
        <time>2021-01-24T09:33:01.000Z</time>
      </trkpt>
      <trkpt lat="46.49824" lon="0.33034">
        <ele>105.6</ele>
        <time>2021-01-24T09:33:02.000Z</time>
      </trkpt>
      <trkpt lat="46.49828" lon="0.33034">
        <ele>105.6</ele>
        <time>2021-01-24T09:33:03.000Z</time>
      </trkpt>
      <trkpt lat="46.49831" lon="0.33035">
        <ele>105.8</ele>
        <time>2021-01-24T09:33:04.000Z</time>
      </trkpt>
      <trkpt lat="46.49837" lon="0.33037">
        <ele>106</ele>
        <time>2021-01-24T09:33:05.000Z</time>
      </trkpt>
      <trkpt lat="46.49841" lon="0.33037">
        <ele>106.2</ele>
        <time>2021-01-24T09:33:06.000Z</time>
      </trkpt>
      <trkpt lat="46.49845" lon="0.33039">
        <ele>106.2</ele>
        <time>2021-01-24T09:33:07.000Z</time>
      </trkpt>
      <trkpt lat="46.49849" lon="0.33039">
        <ele>106.4</ele>
        <time>2021-01-24T09:33:08.000Z</time>
      </trkpt>
      <trkpt lat="46.49853" lon="0.3304">
        <ele>106.4</ele>
        <time>2021-01-24T09:33:09.000Z</time>
      </trkpt>
      <trkpt lat="46.49858" lon="0.33041">
        <ele>106.6</ele>
        <time>2021-01-24T09:33:10.000Z</time>
      </trkpt>
      <trkpt lat="46.49861" lon="0.33042">
        <ele>106.6</ele>
        <time>2021-01-24T09:33:11.000Z</time>
      </trkpt>
      <trkpt lat="46.49865" lon="0.33043">
        <ele>106.6</ele>
        <time>2021-01-24T09:33:12.000Z</time>
      </trkpt>
      <trkpt lat="46.49868" lon="0.33044">
        <ele>106.8</ele>
        <time>2021-01-24T09:33:13.000Z</time>
      </trkpt>
      <trkpt lat="46.49871" lon="0.33046">
        <ele>106.8</ele>
        <time>2021-01-24T09:33:14.000Z</time>
      </trkpt>
      <trkpt lat="46.49875" lon="0.33046">
        <ele>106.8</ele>
        <time>2021-01-24T09:33:15.000Z</time>
      </trkpt>
      <trkpt lat="46.49878" lon="0.33047">
        <ele>107</ele>
        <time>2021-01-24T09:33:16.000Z</time>
      </trkpt>
      <trkpt lat="46.49882" lon="0.33047">
        <ele>107</ele>
        <time>2021-01-24T09:33:17.000Z</time>
      </trkpt>
      <trkpt lat="46.49885" lon="0.33047">
        <ele>107.2</ele>
        <time>2021-01-24T09:33:18.000Z</time>
      </trkpt>
      <trkpt lat="46.49888" lon="0.33048">
        <ele>107.2</ele>
        <time>2021-01-24T09:33:19.000Z</time>
      </trkpt>
      <trkpt lat="46.49891" lon="0.33047">
        <ele>107.4</ele>
        <time>2021-01-24T09:33:20.000Z</time>
      </trkpt>
      <trkpt lat="46.49893" lon="0.33048">
        <ele>107.4</ele>
        <time>2021-01-24T09:33:21.000Z</time>
      </trkpt>
      <trkpt lat="46.49897" lon="0.33047">
        <ele>107.6</ele>
        <time>2021-01-24T09:33:22.000Z</time>
      </trkpt>
      <trkpt lat="46.49901" lon="0.33047">
        <ele>107.6</ele>
        <time>2021-01-24T09:33:23.000Z</time>
      </trkpt>
      <trkpt lat="46.49904" lon="0.33047">
        <ele>107.8</ele>
        <time>2021-01-24T09:33:24.000Z</time>
      </trkpt>
      <trkpt lat="46.49908" lon="0.33047">
        <ele>107.8</ele>
        <time>2021-01-24T09:33:25.000Z</time>
      </trkpt>
      <trkpt lat="46.49912" lon="0.33047">
        <ele>107.8</ele>
        <time>2021-01-24T09:33:26.000Z</time>
      </trkpt>
      <trkpt lat="46.49916" lon="0.33046">
        <ele>108</ele>
        <time>2021-01-24T09:33:27.000Z</time>
      </trkpt>
      <trkpt lat="46.4992" lon="0.33045">
        <ele>108</ele>
        <time>2021-01-24T09:33:28.000Z</time>
      </trkpt>
      <trkpt lat="46.49925" lon="0.33044">
        <ele>108</ele>
        <time>2021-01-24T09:33:29.000Z</time>
      </trkpt>
      <trkpt lat="46.49929" lon="0.33044">
        <ele>108.2</ele>
        <time>2021-01-24T09:33:30.000Z</time>
      </trkpt>
      <trkpt lat="46.49934" lon="0.33043">
        <ele>108.2</ele>
        <time>2021-01-24T09:33:31.000Z</time>
      </trkpt>
      <trkpt lat="46.49939" lon="0.33043">
        <ele>108.2</ele>
        <time>2021-01-24T09:33:32.000Z</time>
      </trkpt>
      <trkpt lat="46.49944" lon="0.33044">
        <ele>108.4</ele>
        <time>2021-01-24T09:33:33.000Z</time>
      </trkpt>
      <trkpt lat="46.49948" lon="0.33045">
        <ele>108.4</ele>
        <time>2021-01-24T09:33:34.000Z</time>
      </trkpt>
      <trkpt lat="46.49955" lon="0.33047">
        <ele>108.4</ele>
        <time>2021-01-24T09:33:35.000Z</time>
      </trkpt>
      <trkpt lat="46.4996" lon="0.3305">
        <ele>108.4</ele>
        <time>2021-01-24T09:33:36.000Z</time>
      </trkpt>
      <trkpt lat="46.49966" lon="0.33053">
        <ele>108.4</ele>
        <time>2021-01-24T09:33:37.000Z</time>
      </trkpt>
      <trkpt lat="46.49973" lon="0.33054">
        <ele>108.4</ele>
        <time>2021-01-24T09:33:38.000Z</time>
      </trkpt>
      <trkpt lat="46.49979" lon="0.33057">
        <ele>108.4</ele>
        <time>2021-01-24T09:33:39.000Z</time>
      </trkpt>
      <trkpt lat="46.49984" lon="0.33059">
        <ele>108.4</ele>
        <time>2021-01-24T09:33:40.000Z</time>
      </trkpt>
      <trkpt lat="46.49989" lon="0.33061">
        <ele>108.2</ele>
        <time>2021-01-24T09:33:41.000Z</time>
      </trkpt>
      <trkpt lat="46.49993" lon="0.33063">
        <ele>108.2</ele>
        <time>2021-01-24T09:33:42.000Z</time>
      </trkpt>
      <trkpt lat="46.49997" lon="0.33065">
        <ele>108.2</ele>
        <time>2021-01-24T09:33:43.000Z</time>
      </trkpt>
      <trkpt lat="46.50002" lon="0.33067">
        <ele>108.2</ele>
        <time>2021-01-24T09:33:44.000Z</time>
      </trkpt>
      <trkpt lat="46.50006" lon="0.33069">
        <ele>108.2</ele>
        <time>2021-01-24T09:33:45.000Z</time>
      </trkpt>
      <trkpt lat="46.50011" lon="0.3307">
        <ele>108</ele>
        <time>2021-01-24T09:33:46.000Z</time>
      </trkpt>
      <trkpt lat="46.50014" lon="0.33068">
        <ele>108</ele>
        <time>2021-01-24T09:33:47.000Z</time>
      </trkpt>
      <trkpt lat="46.50017" lon="0.33066">
        <ele>107.8</ele>
        <time>2021-01-24T09:33:48.000Z</time>
      </trkpt>
      <trkpt lat="46.5002" lon="0.33061">
        <ele>107.8</ele>
        <time>2021-01-24T09:33:49.000Z</time>
      </trkpt>
      <trkpt lat="46.5002" lon="0.33055">
        <ele>107.8</ele>
        <time>2021-01-24T09:33:50.000Z</time>
      </trkpt>
      <trkpt lat="46.5002" lon="0.33048">
        <ele>107.6</ele>
        <time>2021-01-24T09:33:51.000Z</time>
      </trkpt>
      <trkpt lat="46.50021" lon="0.33041">
        <ele>107.6</ele>
        <time>2021-01-24T09:33:52.000Z</time>
      </trkpt>
      <trkpt lat="46.50022" lon="0.33032">
        <ele>107.6</ele>
        <time>2021-01-24T09:33:53.000Z</time>
      </trkpt>
      <trkpt lat="46.50023" lon="0.33024">
        <ele>107.4</ele>
        <time>2021-01-24T09:33:54.000Z</time>
      </trkpt>
      <trkpt lat="46.50024" lon="0.33017">
        <ele>107.4</ele>
        <time>2021-01-24T09:33:55.000Z</time>
      </trkpt>
      <trkpt lat="46.50026" lon="0.33011">
        <ele>107.2</ele>
        <time>2021-01-24T09:33:56.000Z</time>
      </trkpt>
      <trkpt lat="46.50028" lon="0.33004">
        <ele>107</ele>
        <time>2021-01-24T09:33:57.000Z</time>
      </trkpt>
      <trkpt lat="46.5003" lon="0.32998">
        <ele>107</ele>
        <time>2021-01-24T09:33:58.000Z</time>
      </trkpt>
      <trkpt lat="46.50032" lon="0.32991">
        <ele>106.8</ele>
        <time>2021-01-24T09:33:59.000Z</time>
      </trkpt>
      <trkpt lat="46.50033" lon="0.32986">
        <ele>106.6</ele>
        <time>2021-01-24T09:34:00.000Z</time>
      </trkpt>
      <trkpt lat="46.50036" lon="0.32979">
        <ele>106.6</ele>
        <time>2021-01-24T09:34:01.000Z</time>
      </trkpt>
      <trkpt lat="46.50038" lon="0.32972">
        <ele>106.4</ele>
        <time>2021-01-24T09:34:02.000Z</time>
      </trkpt>
      <trkpt lat="46.50041" lon="0.32966">
        <ele>106.2</ele>
        <time>2021-01-24T09:34:03.000Z</time>
      </trkpt>
      <trkpt lat="46.50045" lon="0.32961">
        <ele>106.2</ele>
        <time>2021-01-24T09:34:04.000Z</time>
      </trkpt>
      <trkpt lat="46.5005" lon="0.32956">
        <ele>106</ele>
        <time>2021-01-24T09:34:05.000Z</time>
      </trkpt>
      <trkpt lat="46.50056" lon="0.32953">
        <ele>105.8</ele>
        <time>2021-01-24T09:34:06.000Z</time>
      </trkpt>
      <trkpt lat="46.50062" lon="0.3295">
        <ele>105.6</ele>
        <time>2021-01-24T09:34:07.000Z</time>
      </trkpt>
      <trkpt lat="46.50069" lon="0.32948">
        <ele>105.4</ele>
        <time>2021-01-24T09:34:08.000Z</time>
      </trkpt>
      <trkpt lat="46.50076" lon="0.32946">
        <ele>105.2</ele>
        <time>2021-01-24T09:34:09.000Z</time>
      </trkpt>
      <trkpt lat="46.50082" lon="0.32944">
        <ele>105</ele>
        <time>2021-01-24T09:34:10.000Z</time>
      </trkpt>
      <trkpt lat="46.50089" lon="0.3294">
        <ele>104.8</ele>
        <time>2021-01-24T09:34:11.000Z</time>
      </trkpt>
      <trkpt lat="46.50096" lon="0.32937">
        <ele>104.6</ele>
        <time>2021-01-24T09:34:12.000Z</time>
      </trkpt>
      <trkpt lat="46.50102" lon="0.32932">
        <ele>104.4</ele>
        <time>2021-01-24T09:34:13.000Z</time>
      </trkpt>
      <trkpt lat="46.50107" lon="0.32924">
        <ele>104.2</ele>
        <time>2021-01-24T09:34:14.000Z</time>
      </trkpt>
      <trkpt lat="46.50112" lon="0.32916">
        <ele>104</ele>
        <time>2021-01-24T09:34:15.000Z</time>
      </trkpt>
      <trkpt lat="46.50116" lon="0.32907">
        <ele>103.8</ele>
        <time>2021-01-24T09:34:16.000Z</time>
      </trkpt>
      <trkpt lat="46.50119" lon="0.32898">
        <ele>103.4</ele>
        <time>2021-01-24T09:34:17.000Z</time>
      </trkpt>
      <trkpt lat="46.50124" lon="0.32889">
        <ele>103.2</ele>
        <time>2021-01-24T09:34:18.000Z</time>
      </trkpt>
      <trkpt lat="46.50128" lon="0.3288">
        <ele>103</ele>
        <time>2021-01-24T09:34:19.000Z</time>
      </trkpt>
      <trkpt lat="46.50133" lon="0.32872">
        <ele>102.8</ele>
        <time>2021-01-24T09:34:20.000Z</time>
      </trkpt>
      <trkpt lat="46.50137" lon="0.32864">
        <ele>102.6</ele>
        <time>2021-01-24T09:34:21.000Z</time>
      </trkpt>
      <trkpt lat="46.50144" lon="0.32858">
        <ele>102.4</ele>
        <time>2021-01-24T09:34:22.000Z</time>
      </trkpt>
      <trkpt lat="46.50149" lon="0.32852">
        <ele>102</ele>
        <time>2021-01-24T09:34:23.000Z</time>
      </trkpt>
      <trkpt lat="46.50155" lon="0.3285">
        <ele>101.8</ele>
        <time>2021-01-24T09:34:24.000Z</time>
      </trkpt>
      <trkpt lat="46.50163" lon="0.32853">
        <ele>101.4</ele>
        <time>2021-01-24T09:34:25.000Z</time>
      </trkpt>
      <trkpt lat="46.50169" lon="0.32857">
        <ele>101.2</ele>
        <time>2021-01-24T09:34:26.000Z</time>
      </trkpt>
      <trkpt lat="46.50174" lon="0.32863">
        <ele>101</ele>
        <time>2021-01-24T09:34:27.000Z</time>
      </trkpt>
      <trkpt lat="46.50178" lon="0.32868">
        <ele>100.8</ele>
        <time>2021-01-24T09:34:28.000Z</time>
      </trkpt>
      <trkpt lat="46.50182" lon="0.32874">
        <ele>100.6</ele>
        <time>2021-01-24T09:34:29.000Z</time>
      </trkpt>
      <trkpt lat="46.50186" lon="0.3288">
        <ele>100.4</ele>
        <time>2021-01-24T09:34:30.000Z</time>
      </trkpt>
      <trkpt lat="46.5019" lon="0.32886">
        <ele>100.2</ele>
        <time>2021-01-24T09:34:31.000Z</time>
      </trkpt>
      <trkpt lat="46.50195" lon="0.32892">
        <ele>100.2</ele>
        <time>2021-01-24T09:34:32.000Z</time>
      </trkpt>
      <trkpt lat="46.50201" lon="0.32895">
        <ele>100</ele>
        <time>2021-01-24T09:34:33.000Z</time>
      </trkpt>
      <trkpt lat="46.50206" lon="0.32898">
        <ele>99.8</ele>
        <time>2021-01-24T09:34:34.000Z</time>
      </trkpt>
      <trkpt lat="46.50212" lon="0.329">
        <ele>99.8</ele>
        <time>2021-01-24T09:34:35.000Z</time>
      </trkpt>
      <trkpt lat="46.50217" lon="0.32903">
        <ele>99.6</ele>
        <time>2021-01-24T09:34:36.000Z</time>
      </trkpt>
      <trkpt lat="46.50222" lon="0.32905">
        <ele>99.4</ele>
        <time>2021-01-24T09:34:37.000Z</time>
      </trkpt>
      <trkpt lat="46.50228" lon="0.32909">
        <ele>99.2</ele>
        <time>2021-01-24T09:34:38.000Z</time>
      </trkpt>
      <trkpt lat="46.50233" lon="0.32912">
        <ele>99.2</ele>
        <time>2021-01-24T09:34:39.000Z</time>
      </trkpt>
      <trkpt lat="46.50237" lon="0.32915">
        <ele>99</ele>
        <time>2021-01-24T09:34:40.000Z</time>
      </trkpt>
      <trkpt lat="46.50242" lon="0.32918">
        <ele>99</ele>
        <time>2021-01-24T09:34:41.000Z</time>
      </trkpt>
      <trkpt lat="46.50246" lon="0.32921">
        <ele>98.8</ele>
        <time>2021-01-24T09:34:42.000Z</time>
      </trkpt>
      <trkpt lat="46.50252" lon="0.32925">
        <ele>98.8</ele>
        <time>2021-01-24T09:34:43.000Z</time>
      </trkpt>
      <trkpt lat="46.50257" lon="0.32928">
        <ele>98.6</ele>
        <time>2021-01-24T09:34:44.000Z</time>
      </trkpt>
      <trkpt lat="46.50261" lon="0.3293">
        <ele>98.6</ele>
        <time>2021-01-24T09:34:45.000Z</time>
      </trkpt>
      <trkpt lat="46.50265" lon="0.32933">
        <ele>98.4</ele>
        <time>2021-01-24T09:34:46.000Z</time>
      </trkpt>
      <trkpt lat="46.50268" lon="0.32936">
        <ele>98.4</ele>
        <time>2021-01-24T09:34:47.000Z</time>
      </trkpt>
      <trkpt lat="46.50272" lon="0.32938">
        <ele>98.2</ele>
        <time>2021-01-24T09:34:48.000Z</time>
      </trkpt>
      <trkpt lat="46.50276" lon="0.32941">
        <ele>98</ele>
        <time>2021-01-24T09:34:49.000Z</time>
      </trkpt>
      <trkpt lat="46.5028" lon="0.32944">
        <ele>98</ele>
        <time>2021-01-24T09:34:50.000Z</time>
      </trkpt>
      <trkpt lat="46.50285" lon="0.32947">
        <ele>97.8</ele>
        <time>2021-01-24T09:34:51.000Z</time>
      </trkpt>
      <trkpt lat="46.50289" lon="0.32949">
        <ele>97.8</ele>
        <time>2021-01-24T09:34:52.000Z</time>
      </trkpt>
      <trkpt lat="46.50293" lon="0.32953">
        <ele>97.6</ele>
        <time>2021-01-24T09:34:53.000Z</time>
      </trkpt>
      <trkpt lat="46.50297" lon="0.32957">
        <ele>97.4</ele>
        <time>2021-01-24T09:34:54.000Z</time>
      </trkpt>
      <trkpt lat="46.50301" lon="0.3296">
        <ele>97.2</ele>
        <time>2021-01-24T09:34:55.000Z</time>
      </trkpt>
      <trkpt lat="46.50305" lon="0.32963">
        <ele>97.2</ele>
        <time>2021-01-24T09:34:56.000Z</time>
      </trkpt>
      <trkpt lat="46.50309" lon="0.32966">
        <ele>97</ele>
        <time>2021-01-24T09:34:57.000Z</time>
      </trkpt>
      <trkpt lat="46.50312" lon="0.32968">
        <ele>97</ele>
        <time>2021-01-24T09:34:58.000Z</time>
      </trkpt>
      <trkpt lat="46.50317" lon="0.32971">
        <ele>96.8</ele>
        <time>2021-01-24T09:34:59.000Z</time>
      </trkpt>
      <trkpt lat="46.50321" lon="0.32973">
        <ele>96.6</ele>
        <time>2021-01-24T09:35:00.000Z</time>
      </trkpt>
      <trkpt lat="46.50325" lon="0.32976">
        <ele>96.4</ele>
        <time>2021-01-24T09:35:01.000Z</time>
      </trkpt>
      <trkpt lat="46.50328" lon="0.32979">
        <ele>96.4</ele>
        <time>2021-01-24T09:35:02.000Z</time>
      </trkpt>
      <trkpt lat="46.50332" lon="0.32982">
        <ele>96.2</ele>
        <time>2021-01-24T09:35:03.000Z</time>
      </trkpt>
      <trkpt lat="46.50334" lon="0.32984">
        <ele>96.2</ele>
        <time>2021-01-24T09:35:04.000Z</time>
      </trkpt>
      <trkpt lat="46.50338" lon="0.32986">
        <ele>96</ele>
        <time>2021-01-24T09:35:05.000Z</time>
      </trkpt>
      <trkpt lat="46.5034" lon="0.32988">
        <ele>96</ele>
        <time>2021-01-24T09:35:06.000Z</time>
      </trkpt>
      <trkpt lat="46.5034" lon="0.32988">
        <ele>95.8</ele>
        <time>2021-01-24T09:35:07.000Z</time>
      </trkpt>
      <trkpt lat="46.50342" lon="0.3299">
        <ele>95.8</ele>
        <time>2021-01-24T09:35:08.000Z</time>
      </trkpt>
      <trkpt lat="46.50342" lon="0.3299">
        <ele>95.6</ele>
        <time>2021-01-24T09:35:09.000Z</time>
      </trkpt>
      <trkpt lat="46.50342" lon="0.3299">
        <ele>95.6</ele>
        <time>2021-01-24T09:35:10.000Z</time>
      </trkpt>
      <trkpt lat="46.50342" lon="0.3299">
        <ele>95.6</ele>
        <time>2021-01-24T09:35:11.000Z</time>
      </trkpt>
      <trkpt lat="46.50342" lon="0.3299">
        <ele>95.6</ele>
        <time>2021-01-24T09:35:12.000Z</time>
      </trkpt>
      <trkpt lat="46.50342" lon="0.3299">
        <ele>95.6</ele>
        <time>2021-01-24T09:35:13.000Z</time>
      </trkpt>
      <trkpt lat="46.50342" lon="0.3299">
        <ele>95.4</ele>
        <time>2021-01-24T09:35:14.000Z</time>
      </trkpt>
      <trkpt lat="46.50342" lon="0.3299">
        <ele>95.4</ele>
        <time>2021-01-24T09:35:15.000Z</time>
      </trkpt>
      <trkpt lat="46.50342" lon="0.3299">
        <ele>95.4</ele>
        <time>2021-01-24T09:35:16.000Z</time>
      </trkpt>
      <trkpt lat="46.50342" lon="0.3299">
        <ele>95.4</ele>
        <time>2021-01-24T09:35:17.000Z</time>
      </trkpt>
      <trkpt lat="46.50342" lon="0.3299">
        <ele>95.2</ele>
        <time>2021-01-24T09:35:18.000Z</time>
      </trkpt>
      <trkpt lat="46.50342" lon="0.3299">
        <ele>95.2</ele>
        <time>2021-01-24T09:35:19.000Z</time>
      </trkpt>
      <trkpt lat="46.50342" lon="0.3299">
        <ele>95</ele>
        <time>2021-01-24T09:35:20.000Z</time>
      </trkpt>
      <trkpt lat="46.50342" lon="0.3299">
        <ele>95</ele>
        <time>2021-01-24T09:35:21.000Z</time>
      </trkpt>
      <trkpt lat="46.50342" lon="0.3299">
        <ele>94.8</ele>
        <time>2021-01-24T09:35:22.000Z</time>
      </trkpt>
      <trkpt lat="46.50342" lon="0.3299">
        <ele>94.8</ele>
        <time>2021-01-24T09:35:23.000Z</time>
      </trkpt>
      <trkpt lat="46.50342" lon="0.3299">
        <ele>94.8</ele>
        <time>2021-01-24T09:35:24.000Z</time>
      </trkpt>
      <trkpt lat="46.50342" lon="0.3299">
        <ele>94.8</ele>
        <time>2021-01-24T09:35:25.000Z</time>
      </trkpt>
      <trkpt lat="46.50342" lon="0.3299">
        <ele>94.8</ele>
        <time>2021-01-24T09:35:26.000Z</time>
      </trkpt>
      <trkpt lat="46.50342" lon="0.3299">
        <ele>94.8</ele>
        <time>2021-01-24T09:35:27.000Z</time>
      </trkpt>
      <trkpt lat="46.50342" lon="0.3299">
        <ele>94.8</ele>
        <time>2021-01-24T09:35:28.000Z</time>
      </trkpt>
      <trkpt lat="46.50342" lon="0.3299">
        <ele>94.8</ele>
        <time>2021-01-24T09:35:29.000Z</time>
      </trkpt>
      <trkpt lat="46.50342" lon="0.3299">
        <ele>94.8</ele>
        <time>2021-01-24T09:35:30.000Z</time>
      </trkpt>
      <trkpt lat="46.50342" lon="0.3299">
        <ele>94.8</ele>
        <time>2021-01-24T09:35:31.000Z</time>
      </trkpt>
      <trkpt lat="46.50342" lon="0.3299">
        <ele>94.6</ele>
        <time>2021-01-24T09:35:32.000Z</time>
      </trkpt>
      <trkpt lat="46.50342" lon="0.3299">
        <ele>94.6</ele>
        <time>2021-01-24T09:35:33.000Z</time>
      </trkpt>
      <trkpt lat="46.50342" lon="0.3299">
        <ele>94.6</ele>
        <time>2021-01-24T09:35:34.000Z</time>
      </trkpt>
      <trkpt lat="46.50342" lon="0.3299">
        <ele>94.6</ele>
        <time>2021-01-24T09:35:35.000Z</time>
      </trkpt>
      <trkpt lat="46.50342" lon="0.3299">
        <ele>94.6</ele>
        <time>2021-01-24T09:35:36.000Z</time>
      </trkpt>
      <trkpt lat="46.50342" lon="0.3299">
        <ele>94.6</ele>
        <time>2021-01-24T09:35:37.000Z</time>
      </trkpt>
      <trkpt lat="46.50342" lon="0.3299">
        <ele>94.6</ele>
        <time>2021-01-24T09:35:38.000Z</time>
      </trkpt>
      <trkpt lat="46.50342" lon="0.3299">
        <ele>94.6</ele>
        <time>2021-01-24T09:35:39.000Z</time>
      </trkpt>
      <trkpt lat="46.50342" lon="0.3299">
        <ele>94.6</ele>
        <time>2021-01-24T09:35:40.000Z</time>
      </trkpt>
      <trkpt lat="46.50342" lon="0.3299">
        <ele>94.6</ele>
        <time>2021-01-24T09:35:41.000Z</time>
      </trkpt>
      <trkpt lat="46.50342" lon="0.3299">
        <ele>94.6</ele>
        <time>2021-01-24T09:35:42.000Z</time>
      </trkpt>
      <trkpt lat="46.50342" lon="0.3299">
        <ele>94.6</ele>
        <time>2021-01-24T09:35:43.000Z</time>
      </trkpt>
      <trkpt lat="46.50342" lon="0.3299">
        <ele>94.6</ele>
        <time>2021-01-24T09:35:44.000Z</time>
      </trkpt>
      <trkpt lat="46.50342" lon="0.3299">
        <ele>94.6</ele>
        <time>2021-01-24T09:35:45.000Z</time>
      </trkpt>
      <trkpt lat="46.50342" lon="0.3299">
        <ele>94.6</ele>
        <time>2021-01-24T09:35:46.000Z</time>
      </trkpt>
      <trkpt lat="46.50342" lon="0.3299">
        <ele>94.6</ele>
        <time>2021-01-24T09:35:47.000Z</time>
      </trkpt>
      <trkpt lat="46.50342" lon="0.3299">
        <ele>94.6</ele>
        <time>2021-01-24T09:35:48.000Z</time>
      </trkpt>
      <trkpt lat="46.50342" lon="0.3299">
        <ele>94.6</ele>
        <time>2021-01-24T09:35:49.000Z</time>
      </trkpt>
      <trkpt lat="46.50342" lon="0.3299">
        <ele>94.6</ele>
        <time>2021-01-24T09:35:50.000Z</time>
      </trkpt>
      <trkpt lat="46.50342" lon="0.3299">
        <ele>94.6</ele>
        <time>2021-01-24T09:35:51.000Z</time>
      </trkpt>
      <trkpt lat="46.50342" lon="0.3299">
        <ele>94.6</ele>
        <time>2021-01-24T09:35:52.000Z</time>
      </trkpt>
      <trkpt lat="46.50342" lon="0.3299">
        <ele>94.6</ele>
        <time>2021-01-24T09:35:53.000Z</time>
      </trkpt>
      <trkpt lat="46.50342" lon="0.3299">
        <ele>94.6</ele>
        <time>2021-01-24T09:35:54.000Z</time>
      </trkpt>
      <trkpt lat="46.50342" lon="0.3299">
        <ele>94.6</ele>
        <time>2021-01-24T09:35:55.000Z</time>
      </trkpt>
      <trkpt lat="46.50342" lon="0.3299">
        <ele>94.6</ele>
        <time>2021-01-24T09:35:56.000Z</time>
      </trkpt>
      <trkpt lat="46.50345" lon="0.3299">
        <ele>94.6</ele>
        <time>2021-01-24T09:35:57.000Z</time>
      </trkpt>
      <trkpt lat="46.50347" lon="0.32992">
        <ele>94.6</ele>
        <time>2021-01-24T09:35:58.000Z</time>
      </trkpt>
      <trkpt lat="46.50349" lon="0.32995">
        <ele>94.6</ele>
        <time>2021-01-24T09:35:59.000Z</time>
      </trkpt>
      <trkpt lat="46.50351" lon="0.32997">
        <ele>94.4</ele>
        <time>2021-01-24T09:36:00.000Z</time>
      </trkpt>
      <trkpt lat="46.50354" lon="0.32999">
        <ele>94.4</ele>
        <time>2021-01-24T09:36:01.000Z</time>
      </trkpt>
      <trkpt lat="46.50358" lon="0.33001">
        <ele>94.4</ele>
        <time>2021-01-24T09:36:02.000Z</time>
      </trkpt>
      <trkpt lat="46.50362" lon="0.33004">
        <ele>94.4</ele>
        <time>2021-01-24T09:36:03.000Z</time>
      </trkpt>
      <trkpt lat="46.50366" lon="0.33007">
        <ele>94.2</ele>
        <time>2021-01-24T09:36:04.000Z</time>
      </trkpt>
      <trkpt lat="46.5037" lon="0.33009">
        <ele>94.2</ele>
        <time>2021-01-24T09:36:05.000Z</time>
      </trkpt>
      <trkpt lat="46.50374" lon="0.33013">
        <ele>94.2</ele>
        <time>2021-01-24T09:36:06.000Z</time>
      </trkpt>
      <trkpt lat="46.50377" lon="0.33015">
        <ele>94.2</ele>
        <time>2021-01-24T09:36:07.000Z</time>
      </trkpt>
      <trkpt lat="46.50381" lon="0.33018">
        <ele>94.2</ele>
        <time>2021-01-24T09:36:08.000Z</time>
      </trkpt>
      <trkpt lat="46.50383" lon="0.33022">
        <ele>94</ele>
        <time>2021-01-24T09:36:09.000Z</time>
      </trkpt>
      <trkpt lat="46.50387" lon="0.33026">
        <ele>94</ele>
        <time>2021-01-24T09:36:10.000Z</time>
      </trkpt>
      <trkpt lat="46.50389" lon="0.3303">
        <ele>94</ele>
        <time>2021-01-24T09:36:11.000Z</time>
      </trkpt>
      <trkpt lat="46.50393" lon="0.33035">
        <ele>94</ele>
        <time>2021-01-24T09:36:12.000Z</time>
      </trkpt>
      <trkpt lat="46.50396" lon="0.33039">
        <ele>93.8</ele>
        <time>2021-01-24T09:36:13.000Z</time>
      </trkpt>
      <trkpt lat="46.50399" lon="0.33042">
        <ele>93.8</ele>
        <time>2021-01-24T09:36:14.000Z</time>
      </trkpt>
      <trkpt lat="46.50402" lon="0.33044">
        <ele>93.8</ele>
        <time>2021-01-24T09:36:15.000Z</time>
      </trkpt>
      <trkpt lat="46.50405" lon="0.33048">
        <ele>93.6</ele>
        <time>2021-01-24T09:36:16.000Z</time>
      </trkpt>
      <trkpt lat="46.50409" lon="0.33051">
        <ele>93.6</ele>
        <time>2021-01-24T09:36:17.000Z</time>
      </trkpt>
      <trkpt lat="46.50412" lon="0.33054">
        <ele>93.6</ele>
        <time>2021-01-24T09:36:18.000Z</time>
      </trkpt>
      <trkpt lat="46.50416" lon="0.33057">
        <ele>93.6</ele>
        <time>2021-01-24T09:36:19.000Z</time>
      </trkpt>
      <trkpt lat="46.5042" lon="0.33061">
        <ele>93.6</ele>
        <time>2021-01-24T09:36:20.000Z</time>
      </trkpt>
      <trkpt lat="46.50423" lon="0.33065">
        <ele>93.6</ele>
        <time>2021-01-24T09:36:21.000Z</time>
      </trkpt>
      <trkpt lat="46.50427" lon="0.33068">
        <ele>93.6</ele>
        <time>2021-01-24T09:36:22.000Z</time>
      </trkpt>
      <trkpt lat="46.50429" lon="0.3307">
        <ele>93.8</ele>
        <time>2021-01-24T09:36:23.000Z</time>
      </trkpt>
      <trkpt lat="46.50432" lon="0.33074">
        <ele>94</ele>
        <time>2021-01-24T09:36:24.000Z</time>
      </trkpt>
      <trkpt lat="46.50435" lon="0.33077">
        <ele>94</ele>
        <time>2021-01-24T09:36:25.000Z</time>
      </trkpt>
      <trkpt lat="46.50437" lon="0.3308">
        <ele>94.2</ele>
        <time>2021-01-24T09:36:26.000Z</time>
      </trkpt>
      <trkpt lat="46.50441" lon="0.33083">
        <ele>94.2</ele>
        <time>2021-01-24T09:36:27.000Z</time>
      </trkpt>
      <trkpt lat="46.50444" lon="0.33086">
        <ele>94.2</ele>
        <time>2021-01-24T09:36:28.000Z</time>
      </trkpt>
      <trkpt lat="46.50447" lon="0.33089">
        <ele>94.4</ele>
        <time>2021-01-24T09:36:29.000Z</time>
      </trkpt>
      <trkpt lat="46.50451" lon="0.33092">
        <ele>94.4</ele>
        <time>2021-01-24T09:36:30.000Z</time>
      </trkpt>
      <trkpt lat="46.50453" lon="0.33095">
        <ele>94.2</ele>
        <time>2021-01-24T09:36:31.000Z</time>
      </trkpt>
      <trkpt lat="46.50457" lon="0.33099">
        <ele>94.2</ele>
        <time>2021-01-24T09:36:32.000Z</time>
      </trkpt>
      <trkpt lat="46.5046" lon="0.33101">
        <ele>94.2</ele>
        <time>2021-01-24T09:36:33.000Z</time>
      </trkpt>
      <trkpt lat="46.50463" lon="0.33104">
        <ele>94.2</ele>
        <time>2021-01-24T09:36:34.000Z</time>
      </trkpt>
      <trkpt lat="46.50466" lon="0.33107">
        <ele>94.2</ele>
        <time>2021-01-24T09:36:35.000Z</time>
      </trkpt>
      <trkpt lat="46.50469" lon="0.33109">
        <ele>94.2</ele>
        <time>2021-01-24T09:36:36.000Z</time>
      </trkpt>
      <trkpt lat="46.50473" lon="0.33112">
        <ele>94.2</ele>
        <time>2021-01-24T09:36:37.000Z</time>
      </trkpt>
      <trkpt lat="46.50476" lon="0.33115">
        <ele>94.2</ele>
        <time>2021-01-24T09:36:38.000Z</time>
      </trkpt>
      <trkpt lat="46.50479" lon="0.33117">
        <ele>94.2</ele>
        <time>2021-01-24T09:36:39.000Z</time>
      </trkpt>
      <trkpt lat="46.50483" lon="0.33121">
        <ele>94.2</ele>
        <time>2021-01-24T09:36:40.000Z</time>
      </trkpt>
      <trkpt lat="46.50486" lon="0.33123">
        <ele>94.2</ele>
        <time>2021-01-24T09:36:41.000Z</time>
      </trkpt>
      <trkpt lat="46.50489" lon="0.33126">
        <ele>94.2</ele>
        <time>2021-01-24T09:36:42.000Z</time>
      </trkpt>
      <trkpt lat="46.50494" lon="0.3313">
        <ele>94.2</ele>
        <time>2021-01-24T09:36:43.000Z</time>
      </trkpt>
      <trkpt lat="46.50497" lon="0.33133">
        <ele>94.2</ele>
        <time>2021-01-24T09:36:44.000Z</time>
      </trkpt>
      <trkpt lat="46.50501" lon="0.33136">
        <ele>94</ele>
        <time>2021-01-24T09:36:45.000Z</time>
      </trkpt>
      <trkpt lat="46.50505" lon="0.3314">
        <ele>94</ele>
        <time>2021-01-24T09:36:46.000Z</time>
      </trkpt>
      <trkpt lat="46.50507" lon="0.33143">
        <ele>94</ele>
        <time>2021-01-24T09:36:47.000Z</time>
      </trkpt>
      <trkpt lat="46.50511" lon="0.33146">
        <ele>93.8</ele>
        <time>2021-01-24T09:36:48.000Z</time>
      </trkpt>
      <trkpt lat="46.50515" lon="0.3315">
        <ele>93.8</ele>
        <time>2021-01-24T09:36:49.000Z</time>
      </trkpt>
      <trkpt lat="46.50518" lon="0.33153">
        <ele>93.6</ele>
        <time>2021-01-24T09:36:50.000Z</time>
      </trkpt>
      <trkpt lat="46.50522" lon="0.33157">
        <ele>93.6</ele>
        <time>2021-01-24T09:36:51.000Z</time>
      </trkpt>
      <trkpt lat="46.50525" lon="0.33161">
        <ele>93.4</ele>
        <time>2021-01-24T09:36:52.000Z</time>
      </trkpt>
      <trkpt lat="46.50527" lon="0.33165">
        <ele>93.4</ele>
        <time>2021-01-24T09:36:53.000Z</time>
      </trkpt>
      <trkpt lat="46.50531" lon="0.3317">
        <ele>93.4</ele>
        <time>2021-01-24T09:36:54.000Z</time>
      </trkpt>
      <trkpt lat="46.50534" lon="0.33175">
        <ele>93.2</ele>
        <time>2021-01-24T09:36:55.000Z</time>
      </trkpt>
      <trkpt lat="46.50538" lon="0.33179">
        <ele>93.2</ele>
        <time>2021-01-24T09:36:56.000Z</time>
      </trkpt>
      <trkpt lat="46.50542" lon="0.33183">
        <ele>93</ele>
        <time>2021-01-24T09:36:57.000Z</time>
      </trkpt>
      <trkpt lat="46.50544" lon="0.33187">
        <ele>93</ele>
        <time>2021-01-24T09:36:58.000Z</time>
      </trkpt>
      <trkpt lat="46.50548" lon="0.33191">
        <ele>93</ele>
        <time>2021-01-24T09:36:59.000Z</time>
      </trkpt>
      <trkpt lat="46.50551" lon="0.33195">
        <ele>92.8</ele>
        <time>2021-01-24T09:37:00.000Z</time>
      </trkpt>
      <trkpt lat="46.50554" lon="0.33199">
        <ele>92.8</ele>
        <time>2021-01-24T09:37:01.000Z</time>
      </trkpt>
      <trkpt lat="46.50557" lon="0.33203">
        <ele>92.8</ele>
        <time>2021-01-24T09:37:02.000Z</time>
      </trkpt>
      <trkpt lat="46.5056" lon="0.33206">
        <ele>92.8</ele>
        <time>2021-01-24T09:37:03.000Z</time>
      </trkpt>
      <trkpt lat="46.50564" lon="0.33209">
        <ele>92.8</ele>
        <time>2021-01-24T09:37:04.000Z</time>
      </trkpt>
      <trkpt lat="46.50566" lon="0.33212">
        <ele>92.8</ele>
        <time>2021-01-24T09:37:05.000Z</time>
      </trkpt>
      <trkpt lat="46.50569" lon="0.33214">
        <ele>92.8</ele>
        <time>2021-01-24T09:37:06.000Z</time>
      </trkpt>
      <trkpt lat="46.50572" lon="0.33217">
        <ele>92.8</ele>
        <time>2021-01-24T09:37:07.000Z</time>
      </trkpt>
      <trkpt lat="46.50575" lon="0.3322">
        <ele>92.6</ele>
        <time>2021-01-24T09:37:08.000Z</time>
      </trkpt>
      <trkpt lat="46.50579" lon="0.33222">
        <ele>92.6</ele>
        <time>2021-01-24T09:37:09.000Z</time>
      </trkpt>
      <trkpt lat="46.50583" lon="0.33224">
        <ele>92.6</ele>
        <time>2021-01-24T09:37:10.000Z</time>
      </trkpt>
      <trkpt lat="46.50586" lon="0.33226">
        <ele>92.6</ele>
        <time>2021-01-24T09:37:11.000Z</time>
      </trkpt>
      <trkpt lat="46.50591" lon="0.33228">
        <ele>92.4</ele>
        <time>2021-01-24T09:37:12.000Z</time>
      </trkpt>
      <trkpt lat="46.50596" lon="0.33229">
        <ele>92.4</ele>
        <time>2021-01-24T09:37:13.000Z</time>
      </trkpt>
      <trkpt lat="46.506" lon="0.33231">
        <ele>92.4</ele>
        <time>2021-01-24T09:37:14.000Z</time>
      </trkpt>
      <trkpt lat="46.50605" lon="0.33233">
        <ele>92.4</ele>
        <time>2021-01-24T09:37:15.000Z</time>
      </trkpt>
      <trkpt lat="46.50608" lon="0.33234">
        <ele>92.2</ele>
        <time>2021-01-24T09:37:16.000Z</time>
      </trkpt>
      <trkpt lat="46.50612" lon="0.33236">
        <ele>92.2</ele>
        <time>2021-01-24T09:37:17.000Z</time>
      </trkpt>
      <trkpt lat="46.50615" lon="0.33237">
        <ele>92.2</ele>
        <time>2021-01-24T09:37:18.000Z</time>
      </trkpt>
      <trkpt lat="46.50618" lon="0.33237">
        <ele>92.2</ele>
        <time>2021-01-24T09:37:19.000Z</time>
      </trkpt>
      <trkpt lat="46.50622" lon="0.33238">
        <ele>92</ele>
        <time>2021-01-24T09:37:20.000Z</time>
      </trkpt>
      <trkpt lat="46.50626" lon="0.3324">
        <ele>92</ele>
        <time>2021-01-24T09:37:21.000Z</time>
      </trkpt>
      <trkpt lat="46.50629" lon="0.33242">
        <ele>91.8</ele>
        <time>2021-01-24T09:37:22.000Z</time>
      </trkpt>
      <trkpt lat="46.50632" lon="0.33244">
        <ele>91.8</ele>
        <time>2021-01-24T09:37:23.000Z</time>
      </trkpt>
      <trkpt lat="46.50635" lon="0.33245">
        <ele>91.8</ele>
        <time>2021-01-24T09:37:24.000Z</time>
      </trkpt>
      <trkpt lat="46.50639" lon="0.33246">
        <ele>91.6</ele>
        <time>2021-01-24T09:37:25.000Z</time>
      </trkpt>
      <trkpt lat="46.50642" lon="0.33246">
        <ele>91.6</ele>
        <time>2021-01-24T09:37:26.000Z</time>
      </trkpt>
      <trkpt lat="46.50645" lon="0.33246">
        <ele>91.6</ele>
        <time>2021-01-24T09:37:27.000Z</time>
      </trkpt>
      <trkpt lat="46.50649" lon="0.33245">
        <ele>91.4</ele>
        <time>2021-01-24T09:37:28.000Z</time>
      </trkpt>
      <trkpt lat="46.50653" lon="0.33244">
        <ele>91.4</ele>
        <time>2021-01-24T09:37:29.000Z</time>
      </trkpt>
      <trkpt lat="46.50657" lon="0.33243">
        <ele>91.2</ele>
        <time>2021-01-24T09:37:30.000Z</time>
      </trkpt>
      <trkpt lat="46.50662" lon="0.33242">
        <ele>91.2</ele>
        <time>2021-01-24T09:37:31.000Z</time>
      </trkpt>
      <trkpt lat="46.50667" lon="0.33241">
        <ele>91</ele>
        <time>2021-01-24T09:37:32.000Z</time>
      </trkpt>
      <trkpt lat="46.5067" lon="0.3324">
        <ele>91</ele>
        <time>2021-01-24T09:37:33.000Z</time>
      </trkpt>
      <trkpt lat="46.50675" lon="0.33238">
        <ele>91</ele>
        <time>2021-01-24T09:37:34.000Z</time>
      </trkpt>
      <trkpt lat="46.50679" lon="0.33237">
        <ele>90.8</ele>
        <time>2021-01-24T09:37:35.000Z</time>
      </trkpt>
      <trkpt lat="46.50683" lon="0.33236">
        <ele>90.8</ele>
        <time>2021-01-24T09:37:36.000Z</time>
      </trkpt>
      <trkpt lat="46.50688" lon="0.33236">
        <ele>90.6</ele>
        <time>2021-01-24T09:37:37.000Z</time>
      </trkpt>
      <trkpt lat="46.50692" lon="0.33235">
        <ele>90.4</ele>
        <time>2021-01-24T09:37:38.000Z</time>
      </trkpt>
      <trkpt lat="46.50697" lon="0.33235">
        <ele>90.2</ele>
        <time>2021-01-24T09:37:39.000Z</time>
      </trkpt>
      <trkpt lat="46.50703" lon="0.33234">
        <ele>90.2</ele>
        <time>2021-01-24T09:37:40.000Z</time>
      </trkpt>
      <trkpt lat="46.50708" lon="0.33234">
        <ele>90</ele>
        <time>2021-01-24T09:37:41.000Z</time>
      </trkpt>
      <trkpt lat="46.50714" lon="0.33233">
        <ele>89.8</ele>
        <time>2021-01-24T09:37:42.000Z</time>
      </trkpt>
      <trkpt lat="46.5072" lon="0.33233">
        <ele>89.6</ele>
        <time>2021-01-24T09:37:43.000Z</time>
      </trkpt>
      <trkpt lat="46.50726" lon="0.33233">
        <ele>89.6</ele>
        <time>2021-01-24T09:37:44.000Z</time>
      </trkpt>
      <trkpt lat="46.50732" lon="0.33233">
        <ele>89.4</ele>
        <time>2021-01-24T09:37:45.000Z</time>
      </trkpt>
      <trkpt lat="46.50738" lon="0.33233">
        <ele>89.2</ele>
        <time>2021-01-24T09:37:46.000Z</time>
      </trkpt>
      <trkpt lat="46.50744" lon="0.33235">
        <ele>89</ele>
        <time>2021-01-24T09:37:47.000Z</time>
      </trkpt>
      <trkpt lat="46.5075" lon="0.33236">
        <ele>89</ele>
        <time>2021-01-24T09:37:48.000Z</time>
      </trkpt>
      <trkpt lat="46.50755" lon="0.33238">
        <ele>88.8</ele>
        <time>2021-01-24T09:37:49.000Z</time>
      </trkpt>
      <trkpt lat="46.50761" lon="0.33239">
        <ele>88.6</ele>
        <time>2021-01-24T09:37:50.000Z</time>
      </trkpt>
      <trkpt lat="46.50766" lon="0.3324">
        <ele>88.2</ele>
        <time>2021-01-24T09:37:51.000Z</time>
      </trkpt>
      <trkpt lat="46.50771" lon="0.33241">
        <ele>88</ele>
        <time>2021-01-24T09:37:52.000Z</time>
      </trkpt>
      <trkpt lat="46.50776" lon="0.33242">
        <ele>87.8</ele>
        <time>2021-01-24T09:37:53.000Z</time>
      </trkpt>
      <trkpt lat="46.50781" lon="0.33243">
        <ele>87.8</ele>
        <time>2021-01-24T09:37:54.000Z</time>
      </trkpt>
      <trkpt lat="46.50786" lon="0.33244">
        <ele>87.6</ele>
        <time>2021-01-24T09:37:55.000Z</time>
      </trkpt>
      <trkpt lat="46.5079" lon="0.33246">
        <ele>87.4</ele>
        <time>2021-01-24T09:37:56.000Z</time>
      </trkpt>
      <trkpt lat="46.50794" lon="0.33247">
        <ele>87.4</ele>
        <time>2021-01-24T09:37:57.000Z</time>
      </trkpt>
      <trkpt lat="46.50798" lon="0.33249">
        <ele>87.2</ele>
        <time>2021-01-24T09:37:58.000Z</time>
      </trkpt>
      <trkpt lat="46.50802" lon="0.3325">
        <ele>87.2</ele>
        <time>2021-01-24T09:37:59.000Z</time>
      </trkpt>
      <trkpt lat="46.50807" lon="0.33251">
        <ele>87.2</ele>
        <time>2021-01-24T09:38:00.000Z</time>
      </trkpt>
      <trkpt lat="46.50812" lon="0.33253">
        <ele>87</ele>
        <time>2021-01-24T09:38:01.000Z</time>
      </trkpt>
      <trkpt lat="46.50816" lon="0.33254">
        <ele>87</ele>
        <time>2021-01-24T09:38:02.000Z</time>
      </trkpt>
      <trkpt lat="46.50822" lon="0.33255">
        <ele>87</ele>
        <time>2021-01-24T09:38:03.000Z</time>
      </trkpt>
      <trkpt lat="46.50827" lon="0.33257">
        <ele>86.8</ele>
        <time>2021-01-24T09:38:04.000Z</time>
      </trkpt>
      <trkpt lat="46.50832" lon="0.33258">
        <ele>86.8</ele>
        <time>2021-01-24T09:38:05.000Z</time>
      </trkpt>
      <trkpt lat="46.50837" lon="0.33261">
        <ele>86.8</ele>
        <time>2021-01-24T09:38:06.000Z</time>
      </trkpt>
      <trkpt lat="46.5084" lon="0.33263">
        <ele>86.8</ele>
        <time>2021-01-24T09:38:07.000Z</time>
      </trkpt>
      <trkpt lat="46.50844" lon="0.33266">
        <ele>86.6</ele>
        <time>2021-01-24T09:38:08.000Z</time>
      </trkpt>
      <trkpt lat="46.50848" lon="0.33269">
        <ele>86.4</ele>
        <time>2021-01-24T09:38:09.000Z</time>
      </trkpt>
      <trkpt lat="46.50851" lon="0.33271">
        <ele>86.4</ele>
        <time>2021-01-24T09:38:10.000Z</time>
      </trkpt>
      <trkpt lat="46.50854" lon="0.33275">
        <ele>86.2</ele>
        <time>2021-01-24T09:38:11.000Z</time>
      </trkpt>
      <trkpt lat="46.50858" lon="0.33279">
        <ele>86.2</ele>
        <time>2021-01-24T09:38:12.000Z</time>
      </trkpt>
      <trkpt lat="46.50862" lon="0.33281">
        <ele>86.2</ele>
        <time>2021-01-24T09:38:13.000Z</time>
      </trkpt>
      <trkpt lat="46.50866" lon="0.33283">
        <ele>86.2</ele>
        <time>2021-01-24T09:38:14.000Z</time>
      </trkpt>
      <trkpt lat="46.5087" lon="0.33285">
        <ele>86.2</ele>
        <time>2021-01-24T09:38:15.000Z</time>
      </trkpt>
      <trkpt lat="46.50872" lon="0.33288">
        <ele>86.2</ele>
        <time>2021-01-24T09:38:16.000Z</time>
      </trkpt>
      <trkpt lat="46.50876" lon="0.33291">
        <ele>86</ele>
        <time>2021-01-24T09:38:17.000Z</time>
      </trkpt>
      <trkpt lat="46.5088" lon="0.33294">
        <ele>86</ele>
        <time>2021-01-24T09:38:18.000Z</time>
      </trkpt>
      <trkpt lat="46.50885" lon="0.33297">
        <ele>86</ele>
        <time>2021-01-24T09:38:19.000Z</time>
      </trkpt>
      <trkpt lat="46.5089" lon="0.33299">
        <ele>86</ele>
        <time>2021-01-24T09:38:20.000Z</time>
      </trkpt>
      <trkpt lat="46.50894" lon="0.33301">
        <ele>86</ele>
        <time>2021-01-24T09:38:21.000Z</time>
      </trkpt>
      <trkpt lat="46.509" lon="0.33303">
        <ele>86</ele>
        <time>2021-01-24T09:38:22.000Z</time>
      </trkpt>
      <trkpt lat="46.50904" lon="0.33304">
        <ele>86</ele>
        <time>2021-01-24T09:38:23.000Z</time>
      </trkpt>
      <trkpt lat="46.50908" lon="0.33304">
        <ele>86</ele>
        <time>2021-01-24T09:38:24.000Z</time>
      </trkpt>
      <trkpt lat="46.50912" lon="0.33304">
        <ele>86</ele>
        <time>2021-01-24T09:38:25.000Z</time>
      </trkpt>
      <trkpt lat="46.50916" lon="0.33302">
        <ele>86.2</ele>
        <time>2021-01-24T09:38:26.000Z</time>
      </trkpt>
      <trkpt lat="46.50919" lon="0.333">
        <ele>86.2</ele>
        <time>2021-01-24T09:38:27.000Z</time>
      </trkpt>
      <trkpt lat="46.50923" lon="0.33298">
        <ele>86.2</ele>
        <time>2021-01-24T09:38:28.000Z</time>
      </trkpt>
      <trkpt lat="46.50926" lon="0.33296">
        <ele>86</ele>
        <time>2021-01-24T09:38:29.000Z</time>
      </trkpt>
      <trkpt lat="46.50929" lon="0.33294">
        <ele>86</ele>
        <time>2021-01-24T09:38:30.000Z</time>
      </trkpt>
      <trkpt lat="46.50932" lon="0.33294">
        <ele>86</ele>
        <time>2021-01-24T09:38:31.000Z</time>
      </trkpt>
      <trkpt lat="46.50937" lon="0.33295">
        <ele>86</ele>
        <time>2021-01-24T09:38:32.000Z</time>
      </trkpt>
      <trkpt lat="46.50941" lon="0.33298">
        <ele>85.8</ele>
        <time>2021-01-24T09:38:33.000Z</time>
      </trkpt>
      <trkpt lat="46.50944" lon="0.33301">
        <ele>85.8</ele>
        <time>2021-01-24T09:38:34.000Z</time>
      </trkpt>
      <trkpt lat="46.50945" lon="0.33306">
        <ele>85.8</ele>
        <time>2021-01-24T09:38:35.000Z</time>
      </trkpt>
      <trkpt lat="46.50945" lon="0.33311">
        <ele>85.8</ele>
        <time>2021-01-24T09:38:36.000Z</time>
      </trkpt>
      <trkpt lat="46.50945" lon="0.33315">
        <ele>85.8</ele>
        <time>2021-01-24T09:38:37.000Z</time>
      </trkpt>
      <trkpt lat="46.50943" lon="0.3332">
        <ele>85.8</ele>
        <time>2021-01-24T09:38:38.000Z</time>
      </trkpt>
      <trkpt lat="46.50943" lon="0.33323">
        <ele>85.8</ele>
        <time>2021-01-24T09:38:39.000Z</time>
      </trkpt>
      <trkpt lat="46.50941" lon="0.33327">
        <ele>85.8</ele>
        <time>2021-01-24T09:38:40.000Z</time>
      </trkpt>
      <trkpt lat="46.5094" lon="0.33333">
        <ele>85.8</ele>
        <time>2021-01-24T09:38:41.000Z</time>
      </trkpt>
      <trkpt lat="46.50939" lon="0.33337">
        <ele>85.8</ele>
        <time>2021-01-24T09:38:42.000Z</time>
      </trkpt>
      <trkpt lat="46.50938" lon="0.33341">
        <ele>86</ele>
        <time>2021-01-24T09:38:43.000Z</time>
      </trkpt>
      <trkpt lat="46.50937" lon="0.33345">
        <ele>86</ele>
        <time>2021-01-24T09:38:44.000Z</time>
      </trkpt>
      <trkpt lat="46.50935" lon="0.33349">
        <ele>86</ele>
        <time>2021-01-24T09:38:45.000Z</time>
      </trkpt>
      <trkpt lat="46.50934" lon="0.33353">
        <ele>86</ele>
        <time>2021-01-24T09:38:46.000Z</time>
      </trkpt>
      <trkpt lat="46.50933" lon="0.33356">
        <ele>86</ele>
        <time>2021-01-24T09:38:47.000Z</time>
      </trkpt>
      <trkpt lat="46.50932" lon="0.3336">
        <ele>86</ele>
        <time>2021-01-24T09:38:48.000Z</time>
      </trkpt>
      <trkpt lat="46.50931" lon="0.33364">
        <ele>86</ele>
        <time>2021-01-24T09:38:49.000Z</time>
      </trkpt>
      <trkpt lat="46.50929" lon="0.33368">
        <ele>86</ele>
        <time>2021-01-24T09:38:50.000Z</time>
      </trkpt>
      <trkpt lat="46.50928" lon="0.33373">
        <ele>86</ele>
        <time>2021-01-24T09:38:51.000Z</time>
      </trkpt>
      <trkpt lat="46.50927" lon="0.33376">
        <ele>86</ele>
        <time>2021-01-24T09:38:52.000Z</time>
      </trkpt>
      <trkpt lat="46.50926" lon="0.33379">
        <ele>86.2</ele>
        <time>2021-01-24T09:38:53.000Z</time>
      </trkpt>
      <trkpt lat="46.50924" lon="0.33384">
        <ele>86.2</ele>
        <time>2021-01-24T09:38:54.000Z</time>
      </trkpt>
      <trkpt lat="46.50922" lon="0.33387">
        <ele>86.4</ele>
        <time>2021-01-24T09:38:55.000Z</time>
      </trkpt>
      <trkpt lat="46.5092" lon="0.3339">
        <ele>86.6</ele>
        <time>2021-01-24T09:38:56.000Z</time>
      </trkpt>
      <trkpt lat="46.50918" lon="0.33393">
        <ele>86.6</ele>
        <time>2021-01-24T09:38:57.000Z</time>
      </trkpt>
      <trkpt lat="46.50916" lon="0.33396">
        <ele>86.8</ele>
        <time>2021-01-24T09:38:58.000Z</time>
      </trkpt>
      <trkpt lat="46.50914" lon="0.33399">
        <ele>86.8</ele>
        <time>2021-01-24T09:38:59.000Z</time>
      </trkpt>
      <trkpt lat="46.50912" lon="0.33401">
        <ele>87</ele>
        <time>2021-01-24T09:39:00.000Z</time>
      </trkpt>
      <trkpt lat="46.50909" lon="0.33404">
        <ele>87.2</ele>
        <time>2021-01-24T09:39:01.000Z</time>
      </trkpt>
      <trkpt lat="46.50907" lon="0.33406">
        <ele>87.2</ele>
        <time>2021-01-24T09:39:02.000Z</time>
      </trkpt>
      <trkpt lat="46.50904" lon="0.33409">
        <ele>87.4</ele>
        <time>2021-01-24T09:39:03.000Z</time>
      </trkpt>
      <trkpt lat="46.50902" lon="0.33411">
        <ele>87.4</ele>
        <time>2021-01-24T09:39:04.000Z</time>
      </trkpt>
      <trkpt lat="46.509" lon="0.33413">
        <ele>87.6</ele>
        <time>2021-01-24T09:39:05.000Z</time>
      </trkpt>
      <trkpt lat="46.50897" lon="0.33417">
        <ele>87.6</ele>
        <time>2021-01-24T09:39:06.000Z</time>
      </trkpt>
      <trkpt lat="46.50895" lon="0.33418">
        <ele>87.8</ele>
        <time>2021-01-24T09:39:07.000Z</time>
      </trkpt>
      <trkpt lat="46.50893" lon="0.33421">
        <ele>87.8</ele>
        <time>2021-01-24T09:39:08.000Z</time>
      </trkpt>
      <trkpt lat="46.50891" lon="0.33423">
        <ele>88</ele>
        <time>2021-01-24T09:39:09.000Z</time>
      </trkpt>
      <trkpt lat="46.50889" lon="0.33425">
        <ele>88</ele>
        <time>2021-01-24T09:39:10.000Z</time>
      </trkpt>
      <trkpt lat="46.50886" lon="0.33428">
        <ele>88</ele>
        <time>2021-01-24T09:39:11.000Z</time>
      </trkpt>
      <trkpt lat="46.50885" lon="0.33431">
        <ele>88.2</ele>
        <time>2021-01-24T09:39:12.000Z</time>
      </trkpt>
      <trkpt lat="46.50882" lon="0.33433">
        <ele>88.2</ele>
        <time>2021-01-24T09:39:13.000Z</time>
      </trkpt>
      <trkpt lat="46.50881" lon="0.33436">
        <ele>88.2</ele>
        <time>2021-01-24T09:39:14.000Z</time>
      </trkpt>
      <trkpt lat="46.50879" lon="0.33438">
        <ele>88.4</ele>
        <time>2021-01-24T09:39:15.000Z</time>
      </trkpt>
      <trkpt lat="46.50877" lon="0.33441">
        <ele>88.4</ele>
        <time>2021-01-24T09:39:16.000Z</time>
      </trkpt>
      <trkpt lat="46.50875" lon="0.33444">
        <ele>88.6</ele>
        <time>2021-01-24T09:39:17.000Z</time>
      </trkpt>
      <trkpt lat="46.50873" lon="0.33446">
        <ele>88.8</ele>
        <time>2021-01-24T09:39:18.000Z</time>
      </trkpt>
      <trkpt lat="46.50871" lon="0.33448">
        <ele>89</ele>
        <time>2021-01-24T09:39:19.000Z</time>
      </trkpt>
      <trkpt lat="46.50869" lon="0.3345">
        <ele>89.2</ele>
        <time>2021-01-24T09:39:20.000Z</time>
      </trkpt>
      <trkpt lat="46.50868" lon="0.33453">
        <ele>89.4</ele>
        <time>2021-01-24T09:39:21.000Z</time>
      </trkpt>
      <trkpt lat="46.50866" lon="0.33455">
        <ele>89.4</ele>
        <time>2021-01-24T09:39:22.000Z</time>
      </trkpt>
      <trkpt lat="46.50863" lon="0.33458">
        <ele>89.4</ele>
        <time>2021-01-24T09:39:23.000Z</time>
      </trkpt>
      <trkpt lat="46.50862" lon="0.33459">
        <ele>89.8</ele>
        <time>2021-01-24T09:39:24.000Z</time>
      </trkpt>
      <trkpt lat="46.5086" lon="0.33461">
        <ele>90</ele>
        <time>2021-01-24T09:39:25.000Z</time>
      </trkpt>
      <trkpt lat="46.50858" lon="0.33463">
        <ele>90.2</ele>
        <time>2021-01-24T09:39:26.000Z</time>
      </trkpt>
      <trkpt lat="46.50857" lon="0.33466">
        <ele>90.4</ele>
        <time>2021-01-24T09:39:27.000Z</time>
      </trkpt>
      <trkpt lat="46.50855" lon="0.33468">
        <ele>90.6</ele>
        <time>2021-01-24T09:39:28.000Z</time>
      </trkpt>
      <trkpt lat="46.50853" lon="0.3347">
        <ele>90.8</ele>
        <time>2021-01-24T09:39:29.000Z</time>
      </trkpt>
      <trkpt lat="46.50852" lon="0.33472">
        <ele>90.8</ele>
        <time>2021-01-24T09:39:30.000Z</time>
      </trkpt>
      <trkpt lat="46.5085" lon="0.33474">
        <ele>91</ele>
        <time>2021-01-24T09:39:31.000Z</time>
      </trkpt>
      <trkpt lat="46.50848" lon="0.33476">
        <ele>91</ele>
        <time>2021-01-24T09:39:32.000Z</time>
      </trkpt>
      <trkpt lat="46.50847" lon="0.33478">
        <ele>91.2</ele>
        <time>2021-01-24T09:39:33.000Z</time>
      </trkpt>
      <trkpt lat="46.50845" lon="0.3348">
        <ele>91.4</ele>
        <time>2021-01-24T09:39:34.000Z</time>
      </trkpt>
      <trkpt lat="46.50844" lon="0.33483">
        <ele>91.6</ele>
        <time>2021-01-24T09:39:35.000Z</time>
      </trkpt>
      <trkpt lat="46.50843" lon="0.33486">
        <ele>91.8</ele>
        <time>2021-01-24T09:39:36.000Z</time>
      </trkpt>
      <trkpt lat="46.50842" lon="0.33489">
        <ele>92</ele>
        <time>2021-01-24T09:39:37.000Z</time>
      </trkpt>
      <trkpt lat="46.5084" lon="0.33491">
        <ele>92.2</ele>
        <time>2021-01-24T09:39:38.000Z</time>
      </trkpt>
      <trkpt lat="46.50839" lon="0.33494">
        <ele>92.4</ele>
        <time>2021-01-24T09:39:39.000Z</time>
      </trkpt>
      <trkpt lat="46.50839" lon="0.33494">
        <ele>92.8</ele>
        <time>2021-01-24T09:39:40.000Z</time>
      </trkpt>
      <trkpt lat="46.50837" lon="0.33499">
        <ele>92.8</ele>
        <time>2021-01-24T09:39:41.000Z</time>
      </trkpt>
      <trkpt lat="46.50837" lon="0.33501">
        <ele>93</ele>
        <time>2021-01-24T09:39:42.000Z</time>
      </trkpt>
      <trkpt lat="46.50836" lon="0.33505">
        <ele>93</ele>
        <time>2021-01-24T09:39:43.000Z</time>
      </trkpt>
      <trkpt lat="46.50836" lon="0.33508">
        <ele>93.2</ele>
        <time>2021-01-24T09:39:44.000Z</time>
      </trkpt>
      <trkpt lat="46.50836" lon="0.33511">
        <ele>93.4</ele>
        <time>2021-01-24T09:39:45.000Z</time>
      </trkpt>
      <trkpt lat="46.50835" lon="0.33515">
        <ele>93.6</ele>
        <time>2021-01-24T09:39:46.000Z</time>
      </trkpt>
      <trkpt lat="46.50835" lon="0.33515">
        <ele>93.8</ele>
        <time>2021-01-24T09:39:47.000Z</time>
      </trkpt>
      <trkpt lat="46.50834" lon="0.33521">
        <ele>94.2</ele>
        <time>2021-01-24T09:39:48.000Z</time>
      </trkpt>
      <trkpt lat="46.50834" lon="0.33523">
        <ele>94.4</ele>
        <time>2021-01-24T09:39:49.000Z</time>
      </trkpt>
      <trkpt lat="46.50834" lon="0.33523">
        <ele>94.6</ele>
        <time>2021-01-24T09:39:50.000Z</time>
      </trkpt>
      <trkpt lat="46.50833" lon="0.33528">
        <ele>94.8</ele>
        <time>2021-01-24T09:39:51.000Z</time>
      </trkpt>
      <trkpt lat="46.50833" lon="0.33531">
        <ele>95</ele>
        <time>2021-01-24T09:39:52.000Z</time>
      </trkpt>
      <trkpt lat="46.50833" lon="0.33531">
        <ele>95.2</ele>
        <time>2021-01-24T09:39:53.000Z</time>
      </trkpt>
      <trkpt lat="46.50833" lon="0.33536">
        <ele>95.6</ele>
        <time>2021-01-24T09:39:54.000Z</time>
      </trkpt>
      <trkpt lat="46.50833" lon="0.33536">
        <ele>95.8</ele>
        <time>2021-01-24T09:39:55.000Z</time>
      </trkpt>
      <trkpt lat="46.50834" lon="0.33541">
        <ele>96</ele>
        <time>2021-01-24T09:39:56.000Z</time>
      </trkpt>
      <trkpt lat="46.50834" lon="0.33544">
        <ele>96.2</ele>
        <time>2021-01-24T09:39:57.000Z</time>
      </trkpt>
      <trkpt lat="46.50834" lon="0.33544">
        <ele>96.6</ele>
        <time>2021-01-24T09:39:58.000Z</time>
      </trkpt>
      <trkpt lat="46.50834" lon="0.33548">
        <ele>96.8</ele>
        <time>2021-01-24T09:39:59.000Z</time>
      </trkpt>
      <trkpt lat="46.50834" lon="0.33548">
        <ele>97</ele>
        <time>2021-01-24T09:40:00.000Z</time>
      </trkpt>
      <trkpt lat="46.50834" lon="0.33554">
        <ele>97.4</ele>
        <time>2021-01-24T09:40:01.000Z</time>
      </trkpt>
      <trkpt lat="46.50834" lon="0.33557">
        <ele>97.6</ele>
        <time>2021-01-24T09:40:02.000Z</time>
      </trkpt>
      <trkpt lat="46.50834" lon="0.33557">
        <ele>97.8</ele>
        <time>2021-01-24T09:40:03.000Z</time>
      </trkpt>
      <trkpt lat="46.50834" lon="0.33562">
        <ele>98.2</ele>
        <time>2021-01-24T09:40:04.000Z</time>
      </trkpt>
      <trkpt lat="46.50834" lon="0.33566">
        <ele>98.4</ele>
        <time>2021-01-24T09:40:05.000Z</time>
      </trkpt>
      <trkpt lat="46.50834" lon="0.33569">
        <ele>98.8</ele>
        <time>2021-01-24T09:40:06.000Z</time>
      </trkpt>
      <trkpt lat="46.50834" lon="0.33572">
        <ele>99</ele>
        <time>2021-01-24T09:40:07.000Z</time>
      </trkpt>
      <trkpt lat="46.50834" lon="0.33575">
        <ele>99.4</ele>
        <time>2021-01-24T09:40:08.000Z</time>
      </trkpt>
      <trkpt lat="46.50834" lon="0.33578">
        <ele>99.6</ele>
        <time>2021-01-24T09:40:09.000Z</time>
      </trkpt>
      <trkpt lat="46.50834" lon="0.33578">
        <ele>99.8</ele>
        <time>2021-01-24T09:40:10.000Z</time>
      </trkpt>
      <trkpt lat="46.50835" lon="0.33582">
        <ele>100.2</ele>
        <time>2021-01-24T09:40:11.000Z</time>
      </trkpt>
      <trkpt lat="46.50836" lon="0.33585">
        <ele>100.4</ele>
        <time>2021-01-24T09:40:12.000Z</time>
      </trkpt>
      <trkpt lat="46.50836" lon="0.33585">
        <ele>100.6</ele>
        <time>2021-01-24T09:40:13.000Z</time>
      </trkpt>
      <trkpt lat="46.50835" lon="0.33592">
        <ele>101</ele>
        <time>2021-01-24T09:40:14.000Z</time>
      </trkpt>
      <trkpt lat="46.50835" lon="0.33593">
        <ele>101.2</ele>
        <time>2021-01-24T09:40:15.000Z</time>
      </trkpt>
      <trkpt lat="46.50834" lon="0.33596">
        <ele>101.4</ele>
        <time>2021-01-24T09:40:16.000Z</time>
      </trkpt>
      <trkpt lat="46.50834" lon="0.33599">
        <ele>101.8</ele>
        <time>2021-01-24T09:40:17.000Z</time>
      </trkpt>
      <trkpt lat="46.50834" lon="0.33599">
        <ele>102</ele>
        <time>2021-01-24T09:40:18.000Z</time>
      </trkpt>
      <trkpt lat="46.50834" lon="0.33604">
        <ele>102.2</ele>
        <time>2021-01-24T09:40:19.000Z</time>
      </trkpt>
      <trkpt lat="46.50833" lon="0.33607">
        <ele>102.6</ele>
        <time>2021-01-24T09:40:20.000Z</time>
      </trkpt>
      <trkpt lat="46.50833" lon="0.3361">
        <ele>102.8</ele>
        <time>2021-01-24T09:40:21.000Z</time>
      </trkpt>
      <trkpt lat="46.50833" lon="0.33613">
        <ele>103</ele>
        <time>2021-01-24T09:40:22.000Z</time>
      </trkpt>
      <trkpt lat="46.50833" lon="0.33615">
        <ele>103.4</ele>
        <time>2021-01-24T09:40:23.000Z</time>
      </trkpt>
      <trkpt lat="46.50833" lon="0.33618">
        <ele>103.6</ele>
        <time>2021-01-24T09:40:24.000Z</time>
      </trkpt>
      <trkpt lat="46.50833" lon="0.33621">
        <ele>104</ele>
        <time>2021-01-24T09:40:25.000Z</time>
      </trkpt>
      <trkpt lat="46.50833" lon="0.33624">
        <ele>104.2</ele>
        <time>2021-01-24T09:40:26.000Z</time>
      </trkpt>
      <trkpt lat="46.50833" lon="0.33627">
        <ele>104.4</ele>
        <time>2021-01-24T09:40:27.000Z</time>
      </trkpt>
      <trkpt lat="46.50833" lon="0.3363">
        <ele>104.6</ele>
        <time>2021-01-24T09:40:28.000Z</time>
      </trkpt>
      <trkpt lat="46.50833" lon="0.33633">
        <ele>105</ele>
        <time>2021-01-24T09:40:29.000Z</time>
      </trkpt>
      <trkpt lat="46.50834" lon="0.33636">
        <ele>105.2</ele>
        <time>2021-01-24T09:40:30.000Z</time>
      </trkpt>
      <trkpt lat="46.50835" lon="0.33639">
        <ele>105.4</ele>
        <time>2021-01-24T09:40:31.000Z</time>
      </trkpt>
      <trkpt lat="46.50835" lon="0.33639">
        <ele>105.6</ele>
        <time>2021-01-24T09:40:32.000Z</time>
      </trkpt>
      <trkpt lat="46.50837" lon="0.33645">
        <ele>105.8</ele>
        <time>2021-01-24T09:40:33.000Z</time>
      </trkpt>
      <trkpt lat="46.50837" lon="0.33647">
        <ele>106</ele>
        <time>2021-01-24T09:40:34.000Z</time>
      </trkpt>
      <trkpt lat="46.50838" lon="0.3365">
        <ele>106.2</ele>
        <time>2021-01-24T09:40:35.000Z</time>
      </trkpt>
      <trkpt lat="46.5084" lon="0.33653">
        <ele>106.4</ele>
        <time>2021-01-24T09:40:36.000Z</time>
      </trkpt>
      <trkpt lat="46.5084" lon="0.33653">
        <ele>106.8</ele>
        <time>2021-01-24T09:40:37.000Z</time>
      </trkpt>
      <trkpt lat="46.50842" lon="0.33658">
        <ele>107</ele>
        <time>2021-01-24T09:40:38.000Z</time>
      </trkpt>
      <trkpt lat="46.50844" lon="0.3366">
        <ele>107.2</ele>
        <time>2021-01-24T09:40:39.000Z</time>
      </trkpt>
      <trkpt lat="46.50846" lon="0.33663">
        <ele>107.2</ele>
        <time>2021-01-24T09:40:40.000Z</time>
      </trkpt>
      <trkpt lat="46.50848" lon="0.33665">
        <ele>107.4</ele>
        <time>2021-01-24T09:40:41.000Z</time>
      </trkpt>
      <trkpt lat="46.5085" lon="0.33668">
        <ele>107.6</ele>
        <time>2021-01-24T09:40:42.000Z</time>
      </trkpt>
      <trkpt lat="46.50852" lon="0.33671">
        <ele>107.8</ele>
        <time>2021-01-24T09:40:43.000Z</time>
      </trkpt>
      <trkpt lat="46.50853" lon="0.33673">
        <ele>108</ele>
        <time>2021-01-24T09:40:44.000Z</time>
      </trkpt>
      <trkpt lat="46.50856" lon="0.33676">
        <ele>108.2</ele>
        <time>2021-01-24T09:40:45.000Z</time>
      </trkpt>
      <trkpt lat="46.50857" lon="0.33679">
        <ele>108.4</ele>
        <time>2021-01-24T09:40:46.000Z</time>
      </trkpt>
      <trkpt lat="46.5086" lon="0.33682">
        <ele>108.6</ele>
        <time>2021-01-24T09:40:47.000Z</time>
      </trkpt>
      <trkpt lat="46.50862" lon="0.33685">
        <ele>108.8</ele>
        <time>2021-01-24T09:40:48.000Z</time>
      </trkpt>
      <trkpt lat="46.50864" lon="0.33688">
        <ele>109</ele>
        <time>2021-01-24T09:40:49.000Z</time>
      </trkpt>
      <trkpt lat="46.50866" lon="0.33691">
        <ele>109.2</ele>
        <time>2021-01-24T09:40:50.000Z</time>
      </trkpt>
      <trkpt lat="46.50869" lon="0.33694">
        <ele>109.4</ele>
        <time>2021-01-24T09:40:51.000Z</time>
      </trkpt>
      <trkpt lat="46.50871" lon="0.33697">
        <ele>109.6</ele>
        <time>2021-01-24T09:40:52.000Z</time>
      </trkpt>
      <trkpt lat="46.50874" lon="0.33699">
        <ele>109.8</ele>
        <time>2021-01-24T09:40:53.000Z</time>
      </trkpt>
      <trkpt lat="46.50876" lon="0.33703">
        <ele>110</ele>
        <time>2021-01-24T09:40:54.000Z</time>
      </trkpt>
      <trkpt lat="46.50878" lon="0.33705">
        <ele>110.2</ele>
        <time>2021-01-24T09:40:55.000Z</time>
      </trkpt>
      <trkpt lat="46.5088" lon="0.33709">
        <ele>110.4</ele>
        <time>2021-01-24T09:40:56.000Z</time>
      </trkpt>
      <trkpt lat="46.50883" lon="0.33712">
        <ele>110.6</ele>
        <time>2021-01-24T09:40:57.000Z</time>
      </trkpt>
      <trkpt lat="46.50885" lon="0.33716">
        <ele>111</ele>
        <time>2021-01-24T09:40:58.000Z</time>
      </trkpt>
      <trkpt lat="46.50888" lon="0.33719">
        <ele>111.2</ele>
        <time>2021-01-24T09:40:59.000Z</time>
      </trkpt>
      <trkpt lat="46.5089" lon="0.33723">
        <ele>111.4</ele>
        <time>2021-01-24T09:41:00.000Z</time>
      </trkpt>
      <trkpt lat="46.50892" lon="0.33726">
        <ele>111.6</ele>
        <time>2021-01-24T09:41:01.000Z</time>
      </trkpt>
      <trkpt lat="46.50894" lon="0.33729">
        <ele>111.8</ele>
        <time>2021-01-24T09:41:02.000Z</time>
      </trkpt>
      <trkpt lat="46.50897" lon="0.33733">
        <ele>112</ele>
        <time>2021-01-24T09:41:03.000Z</time>
      </trkpt>
      <trkpt lat="46.509" lon="0.33736">
        <ele>112.2</ele>
        <time>2021-01-24T09:41:04.000Z</time>
      </trkpt>
      <trkpt lat="46.50902" lon="0.3374">
        <ele>112.4</ele>
        <time>2021-01-24T09:41:05.000Z</time>
      </trkpt>
      <trkpt lat="46.50905" lon="0.33743">
        <ele>112.6</ele>
        <time>2021-01-24T09:41:06.000Z</time>
      </trkpt>
      <trkpt lat="46.50908" lon="0.33747">
        <ele>112.6</ele>
        <time>2021-01-24T09:41:07.000Z</time>
      </trkpt>
      <trkpt lat="46.5091" lon="0.3375">
        <ele>112.8</ele>
        <time>2021-01-24T09:41:08.000Z</time>
      </trkpt>
      <trkpt lat="46.50912" lon="0.33753">
        <ele>113</ele>
        <time>2021-01-24T09:41:09.000Z</time>
      </trkpt>
      <trkpt lat="46.50915" lon="0.33758">
        <ele>113</ele>
        <time>2021-01-24T09:41:10.000Z</time>
      </trkpt>
      <trkpt lat="46.50918" lon="0.33761">
        <ele>113.2</ele>
        <time>2021-01-24T09:41:11.000Z</time>
      </trkpt>
      <trkpt lat="46.50921" lon="0.33765">
        <ele>113.2</ele>
        <time>2021-01-24T09:41:12.000Z</time>
      </trkpt>
      <trkpt lat="46.50923" lon="0.33769">
        <ele>113.4</ele>
        <time>2021-01-24T09:41:13.000Z</time>
      </trkpt>
      <trkpt lat="46.50926" lon="0.33772">
        <ele>113.4</ele>
        <time>2021-01-24T09:41:14.000Z</time>
      </trkpt>
      <trkpt lat="46.50929" lon="0.33776">
        <ele>113.6</ele>
        <time>2021-01-24T09:41:15.000Z</time>
      </trkpt>
      <trkpt lat="46.50932" lon="0.33779">
        <ele>113.8</ele>
        <time>2021-01-24T09:41:16.000Z</time>
      </trkpt>
      <trkpt lat="46.50935" lon="0.33783">
        <ele>113.8</ele>
        <time>2021-01-24T09:41:17.000Z</time>
      </trkpt>
      <trkpt lat="46.50937" lon="0.33787">
        <ele>114</ele>
        <time>2021-01-24T09:41:18.000Z</time>
      </trkpt>
      <trkpt lat="46.50941" lon="0.33791">
        <ele>114</ele>
        <time>2021-01-24T09:41:19.000Z</time>
      </trkpt>
      <trkpt lat="46.50943" lon="0.33795">
        <ele>114.2</ele>
        <time>2021-01-24T09:41:20.000Z</time>
      </trkpt>
      <trkpt lat="46.50946" lon="0.33798">
        <ele>114.4</ele>
        <time>2021-01-24T09:41:21.000Z</time>
      </trkpt>
      <trkpt lat="46.50949" lon="0.33802">
        <ele>114.6</ele>
        <time>2021-01-24T09:41:22.000Z</time>
      </trkpt>
      <trkpt lat="46.50952" lon="0.33806">
        <ele>114.6</ele>
        <time>2021-01-24T09:41:23.000Z</time>
      </trkpt>
      <trkpt lat="46.50955" lon="0.3381">
        <ele>114.8</ele>
        <time>2021-01-24T09:41:24.000Z</time>
      </trkpt>
      <trkpt lat="46.50958" lon="0.33814">
        <ele>114.8</ele>
        <time>2021-01-24T09:41:25.000Z</time>
      </trkpt>
      <trkpt lat="46.50962" lon="0.33819">
        <ele>114.8</ele>
        <time>2021-01-24T09:41:26.000Z</time>
      </trkpt>
      <trkpt lat="46.50965" lon="0.33823">
        <ele>115</ele>
        <time>2021-01-24T09:41:27.000Z</time>
      </trkpt>
      <trkpt lat="46.50968" lon="0.33827">
        <ele>115</ele>
        <time>2021-01-24T09:41:28.000Z</time>
      </trkpt>
      <trkpt lat="46.50972" lon="0.33831">
        <ele>115.2</ele>
        <time>2021-01-24T09:41:29.000Z</time>
      </trkpt>
      <trkpt lat="46.50975" lon="0.33835">
        <ele>115.2</ele>
        <time>2021-01-24T09:41:30.000Z</time>
      </trkpt>
      <trkpt lat="46.50978" lon="0.3384">
        <ele>115.2</ele>
        <time>2021-01-24T09:41:31.000Z</time>
      </trkpt>
      <trkpt lat="46.50981" lon="0.33844">
        <ele>115.2</ele>
        <time>2021-01-24T09:41:32.000Z</time>
      </trkpt>
      <trkpt lat="46.50985" lon="0.33849">
        <ele>115.2</ele>
        <time>2021-01-24T09:41:33.000Z</time>
      </trkpt>
      <trkpt lat="46.50988" lon="0.33853">
        <ele>115.4</ele>
        <time>2021-01-24T09:41:34.000Z</time>
      </trkpt>
      <trkpt lat="46.50991" lon="0.33858">
        <ele>115.4</ele>
        <time>2021-01-24T09:41:35.000Z</time>
      </trkpt>
      <trkpt lat="46.50994" lon="0.33862">
        <ele>115.4</ele>
        <time>2021-01-24T09:41:36.000Z</time>
      </trkpt>
      <trkpt lat="46.50997" lon="0.33867">
        <ele>115.4</ele>
        <time>2021-01-24T09:41:37.000Z</time>
      </trkpt>
      <trkpt lat="46.51001" lon="0.33872">
        <ele>115.4</ele>
        <time>2021-01-24T09:41:38.000Z</time>
      </trkpt>
      <trkpt lat="46.51004" lon="0.33876">
        <ele>115.4</ele>
        <time>2021-01-24T09:41:39.000Z</time>
      </trkpt>
      <trkpt lat="46.51007" lon="0.33881">
        <ele>115.4</ele>
        <time>2021-01-24T09:41:40.000Z</time>
      </trkpt>
      <trkpt lat="46.51012" lon="0.33887">
        <ele>115.4</ele>
        <time>2021-01-24T09:41:41.000Z</time>
      </trkpt>
      <trkpt lat="46.51015" lon="0.33892">
        <ele>115.2</ele>
        <time>2021-01-24T09:41:42.000Z</time>
      </trkpt>
      <trkpt lat="46.51019" lon="0.33896">
        <ele>115.2</ele>
        <time>2021-01-24T09:41:43.000Z</time>
      </trkpt>
      <trkpt lat="46.51023" lon="0.33901">
        <ele>115.2</ele>
        <time>2021-01-24T09:41:44.000Z</time>
      </trkpt>
      <trkpt lat="46.51026" lon="0.33906">
        <ele>115.2</ele>
        <time>2021-01-24T09:41:45.000Z</time>
      </trkpt>
      <trkpt lat="46.51029" lon="0.33911">
        <ele>115.2</ele>
        <time>2021-01-24T09:41:46.000Z</time>
      </trkpt>
      <trkpt lat="46.51032" lon="0.33915">
        <ele>115.4</ele>
        <time>2021-01-24T09:41:47.000Z</time>
      </trkpt>
      <trkpt lat="46.51036" lon="0.33921">
        <ele>115.4</ele>
        <time>2021-01-24T09:41:48.000Z</time>
      </trkpt>
      <trkpt lat="46.51039" lon="0.33924">
        <ele>115.6</ele>
        <time>2021-01-24T09:41:49.000Z</time>
      </trkpt>
      <trkpt lat="46.51042" lon="0.33928">
        <ele>115.6</ele>
        <time>2021-01-24T09:41:50.000Z</time>
      </trkpt>
      <trkpt lat="46.51045" lon="0.33932">
        <ele>115.8</ele>
        <time>2021-01-24T09:41:51.000Z</time>
      </trkpt>
      <trkpt lat="46.51047" lon="0.33936">
        <ele>115.8</ele>
        <time>2021-01-24T09:41:52.000Z</time>
      </trkpt>
      <trkpt lat="46.51051" lon="0.33941">
        <ele>115.8</ele>
        <time>2021-01-24T09:41:53.000Z</time>
      </trkpt>
      <trkpt lat="46.51054" lon="0.33944">
        <ele>116</ele>
        <time>2021-01-24T09:41:54.000Z</time>
      </trkpt>
      <trkpt lat="46.51056" lon="0.33949">
        <ele>116</ele>
        <time>2021-01-24T09:41:55.000Z</time>
      </trkpt>
      <trkpt lat="46.51059" lon="0.33953">
        <ele>116</ele>
        <time>2021-01-24T09:41:56.000Z</time>
      </trkpt>
      <trkpt lat="46.51062" lon="0.33957">
        <ele>116.2</ele>
        <time>2021-01-24T09:41:57.000Z</time>
      </trkpt>
      <trkpt lat="46.51065" lon="0.33961">
        <ele>116.2</ele>
        <time>2021-01-24T09:41:58.000Z</time>
      </trkpt>
      <trkpt lat="46.51067" lon="0.33965">
        <ele>116.4</ele>
        <time>2021-01-24T09:41:59.000Z</time>
      </trkpt>
      <trkpt lat="46.5107" lon="0.3397">
        <ele>116.4</ele>
        <time>2021-01-24T09:42:00.000Z</time>
      </trkpt>
      <trkpt lat="46.51072" lon="0.33973">
        <ele>116.4</ele>
        <time>2021-01-24T09:42:01.000Z</time>
      </trkpt>
      <trkpt lat="46.51074" lon="0.33978">
        <ele>116.4</ele>
        <time>2021-01-24T09:42:02.000Z</time>
      </trkpt>
      <trkpt lat="46.51077" lon="0.33984">
        <ele>116.4</ele>
        <time>2021-01-24T09:42:03.000Z</time>
      </trkpt>
      <trkpt lat="46.51079" lon="0.33989">
        <ele>116.6</ele>
        <time>2021-01-24T09:42:04.000Z</time>
      </trkpt>
      <trkpt lat="46.51081" lon="0.33995">
        <ele>116.8</ele>
        <time>2021-01-24T09:42:05.000Z</time>
      </trkpt>
      <trkpt lat="46.51083" lon="0.34001">
        <ele>117</ele>
        <time>2021-01-24T09:42:06.000Z</time>
      </trkpt>
      <trkpt lat="46.51085" lon="0.34008">
        <ele>117</ele>
        <time>2021-01-24T09:42:07.000Z</time>
      </trkpt>
      <trkpt lat="46.51086" lon="0.34014">
        <ele>117.2</ele>
        <time>2021-01-24T09:42:08.000Z</time>
      </trkpt>
      <trkpt lat="46.51086" lon="0.3402">
        <ele>117.2</ele>
        <time>2021-01-24T09:42:09.000Z</time>
      </trkpt>
      <trkpt lat="46.51087" lon="0.34026">
        <ele>117.4</ele>
        <time>2021-01-24T09:42:10.000Z</time>
      </trkpt>
      <trkpt lat="46.51088" lon="0.34031">
        <ele>117.4</ele>
        <time>2021-01-24T09:42:11.000Z</time>
      </trkpt>
      <trkpt lat="46.51089" lon="0.34038">
        <ele>117.6</ele>
        <time>2021-01-24T09:42:12.000Z</time>
      </trkpt>
      <trkpt lat="46.51089" lon="0.34044">
        <ele>117.6</ele>
        <time>2021-01-24T09:42:13.000Z</time>
      </trkpt>
      <trkpt lat="46.51089" lon="0.34051">
        <ele>117.8</ele>
        <time>2021-01-24T09:42:14.000Z</time>
      </trkpt>
      <trkpt lat="46.51088" lon="0.34057">
        <ele>118</ele>
        <time>2021-01-24T09:42:15.000Z</time>
      </trkpt>
      <trkpt lat="46.51088" lon="0.34063">
        <ele>118.2</ele>
        <time>2021-01-24T09:42:16.000Z</time>
      </trkpt>
      <trkpt lat="46.51087" lon="0.34069">
        <ele>118.4</ele>
        <time>2021-01-24T09:42:17.000Z</time>
      </trkpt>
      <trkpt lat="46.51086" lon="0.34075">
        <ele>118.4</ele>
        <time>2021-01-24T09:42:18.000Z</time>
      </trkpt>
      <trkpt lat="46.51085" lon="0.3408">
        <ele>118.6</ele>
        <time>2021-01-24T09:42:19.000Z</time>
      </trkpt>
      <trkpt lat="46.51085" lon="0.34086">
        <ele>118.6</ele>
        <time>2021-01-24T09:42:20.000Z</time>
      </trkpt>
      <trkpt lat="46.51085" lon="0.34092">
        <ele>118.6</ele>
        <time>2021-01-24T09:42:21.000Z</time>
      </trkpt>
      <trkpt lat="46.51085" lon="0.34097">
        <ele>118.6</ele>
        <time>2021-01-24T09:42:22.000Z</time>
      </trkpt>
      <trkpt lat="46.51085" lon="0.34102">
        <ele>118.8</ele>
        <time>2021-01-24T09:42:23.000Z</time>
      </trkpt>
      <trkpt lat="46.51087" lon="0.34106">
        <ele>118.8</ele>
        <time>2021-01-24T09:42:24.000Z</time>
      </trkpt>
      <trkpt lat="46.5109" lon="0.3411">
        <ele>118.8</ele>
        <time>2021-01-24T09:42:25.000Z</time>
      </trkpt>
      <trkpt lat="46.51093" lon="0.34114">
        <ele>118.8</ele>
        <time>2021-01-24T09:42:26.000Z</time>
      </trkpt>
      <trkpt lat="46.51096" lon="0.34117">
        <ele>118.8</ele>
        <time>2021-01-24T09:42:27.000Z</time>
      </trkpt>
      <trkpt lat="46.511" lon="0.34119">
        <ele>118.8</ele>
        <time>2021-01-24T09:42:28.000Z</time>
      </trkpt>
      <trkpt lat="46.51102" lon="0.34121">
        <ele>118.8</ele>
        <time>2021-01-24T09:42:29.000Z</time>
      </trkpt>
      <trkpt lat="46.51106" lon="0.34124">
        <ele>118.8</ele>
        <time>2021-01-24T09:42:30.000Z</time>
      </trkpt>
      <trkpt lat="46.51111" lon="0.34127">
        <ele>119</ele>
        <time>2021-01-24T09:42:31.000Z</time>
      </trkpt>
      <trkpt lat="46.51115" lon="0.3413">
        <ele>119</ele>
        <time>2021-01-24T09:42:32.000Z</time>
      </trkpt>
      <trkpt lat="46.51118" lon="0.34132">
        <ele>119</ele>
        <time>2021-01-24T09:42:33.000Z</time>
      </trkpt>
      <trkpt lat="46.51121" lon="0.34134">
        <ele>119</ele>
        <time>2021-01-24T09:42:34.000Z</time>
      </trkpt>
      <trkpt lat="46.51125" lon="0.34137">
        <ele>119.2</ele>
        <time>2021-01-24T09:42:35.000Z</time>
      </trkpt>
      <trkpt lat="46.51129" lon="0.34139">
        <ele>119.2</ele>
        <time>2021-01-24T09:42:36.000Z</time>
      </trkpt>
      <trkpt lat="46.51132" lon="0.34141">
        <ele>119.4</ele>
        <time>2021-01-24T09:42:37.000Z</time>
      </trkpt>
      <trkpt lat="46.51136" lon="0.34144">
        <ele>119.4</ele>
        <time>2021-01-24T09:42:38.000Z</time>
      </trkpt>
      <trkpt lat="46.5114" lon="0.34147">
        <ele>119.4</ele>
        <time>2021-01-24T09:42:39.000Z</time>
      </trkpt>
      <trkpt lat="46.51142" lon="0.34149">
        <ele>119.4</ele>
        <time>2021-01-24T09:42:40.000Z</time>
      </trkpt>
      <trkpt lat="46.51146" lon="0.34151">
        <ele>119.4</ele>
        <time>2021-01-24T09:42:41.000Z</time>
      </trkpt>
      <trkpt lat="46.51149" lon="0.34154">
        <ele>119.6</ele>
        <time>2021-01-24T09:42:42.000Z</time>
      </trkpt>
      <trkpt lat="46.51153" lon="0.34157">
        <ele>119.6</ele>
        <time>2021-01-24T09:42:43.000Z</time>
      </trkpt>
      <trkpt lat="46.51156" lon="0.34159">
        <ele>119.6</ele>
        <time>2021-01-24T09:42:44.000Z</time>
      </trkpt>
      <trkpt lat="46.5116" lon="0.34162">
        <ele>119.6</ele>
        <time>2021-01-24T09:42:45.000Z</time>
      </trkpt>
      <trkpt lat="46.51163" lon="0.34165">
        <ele>119.8</ele>
        <time>2021-01-24T09:42:46.000Z</time>
      </trkpt>
      <trkpt lat="46.51166" lon="0.34168">
        <ele>119.8</ele>
        <time>2021-01-24T09:42:47.000Z</time>
      </trkpt>
      <trkpt lat="46.51169" lon="0.34171">
        <ele>120</ele>
        <time>2021-01-24T09:42:48.000Z</time>
      </trkpt>
      <trkpt lat="46.51172" lon="0.34174">
        <ele>120</ele>
        <time>2021-01-24T09:42:49.000Z</time>
      </trkpt>
      <trkpt lat="46.51174" lon="0.34177">
        <ele>120</ele>
        <time>2021-01-24T09:42:50.000Z</time>
      </trkpt>
      <trkpt lat="46.51176" lon="0.34181">
        <ele>120.2</ele>
        <time>2021-01-24T09:42:51.000Z</time>
      </trkpt>
      <trkpt lat="46.5118" lon="0.34183">
        <ele>120.2</ele>
        <time>2021-01-24T09:42:52.000Z</time>
      </trkpt>
      <trkpt lat="46.5118" lon="0.34183">
        <ele>120.2</ele>
        <time>2021-01-24T09:42:53.000Z</time>
      </trkpt>
      <trkpt lat="46.51181" lon="0.34185">
        <ele>120.2</ele>
        <time>2021-01-24T09:42:54.000Z</time>
      </trkpt>
      <trkpt lat="46.51181" lon="0.34185">
        <ele>120.4</ele>
        <time>2021-01-24T09:42:55.000Z</time>
      </trkpt>
      <trkpt lat="46.51181" lon="0.34185">
        <ele>120.4</ele>
        <time>2021-01-24T09:42:56.000Z</time>
      </trkpt>
      <trkpt lat="46.51181" lon="0.34185">
        <ele>120.4</ele>
        <time>2021-01-24T09:42:57.000Z</time>
      </trkpt>
      <trkpt lat="46.51181" lon="0.34185">
        <ele>120.6</ele>
        <time>2021-01-24T09:42:58.000Z</time>
      </trkpt>
      <trkpt lat="46.51181" lon="0.34185">
        <ele>120.6</ele>
        <time>2021-01-24T09:42:59.000Z</time>
      </trkpt>
      <trkpt lat="46.51181" lon="0.34185">
        <ele>120.8</ele>
        <time>2021-01-24T09:43:00.000Z</time>
      </trkpt>
      <trkpt lat="46.51181" lon="0.34185">
        <ele>121</ele>
        <time>2021-01-24T09:43:01.000Z</time>
      </trkpt>
      <trkpt lat="46.51183" lon="0.34185">
        <ele>121</ele>
        <time>2021-01-24T09:43:02.000Z</time>
      </trkpt>
      <trkpt lat="46.51183" lon="0.34185">
        <ele>121.2</ele>
        <time>2021-01-24T09:43:03.000Z</time>
      </trkpt>
      <trkpt lat="46.51183" lon="0.34185">
        <ele>121.2</ele>
        <time>2021-01-24T09:43:04.000Z</time>
      </trkpt>
      <trkpt lat="46.51186" lon="0.34183">
        <ele>121.4</ele>
        <time>2021-01-24T09:43:05.000Z</time>
      </trkpt>
      <trkpt lat="46.51186" lon="0.34183">
        <ele>121.4</ele>
        <time>2021-01-24T09:43:06.000Z</time>
      </trkpt>
      <trkpt lat="46.51188" lon="0.34182">
        <ele>121.6</ele>
        <time>2021-01-24T09:43:07.000Z</time>
      </trkpt>
      <trkpt lat="46.51188" lon="0.34182">
        <ele>121.6</ele>
        <time>2021-01-24T09:43:08.000Z</time>
      </trkpt>
      <trkpt lat="46.5119" lon="0.34179">
        <ele>121.6</ele>
        <time>2021-01-24T09:43:09.000Z</time>
      </trkpt>
      <trkpt lat="46.51192" lon="0.34178">
        <ele>121.8</ele>
        <time>2021-01-24T09:43:10.000Z</time>
      </trkpt>
      <trkpt lat="46.51194" lon="0.34176">
        <ele>121.8</ele>
        <time>2021-01-24T09:43:11.000Z</time>
      </trkpt>
      <trkpt lat="46.51197" lon="0.34173">
        <ele>121.8</ele>
        <time>2021-01-24T09:43:12.000Z</time>
      </trkpt>
      <trkpt lat="46.512" lon="0.34171">
        <ele>121.8</ele>
        <time>2021-01-24T09:43:13.000Z</time>
      </trkpt>
      <trkpt lat="46.51204" lon="0.34167">
        <ele>122</ele>
        <time>2021-01-24T09:43:14.000Z</time>
      </trkpt>
      <trkpt lat="46.51207" lon="0.34163">
        <ele>122</ele>
        <time>2021-01-24T09:43:15.000Z</time>
      </trkpt>
      <trkpt lat="46.5121" lon="0.34161">
        <ele>122</ele>
        <time>2021-01-24T09:43:16.000Z</time>
      </trkpt>
      <trkpt lat="46.51213" lon="0.3416">
        <ele>122.2</ele>
        <time>2021-01-24T09:43:17.000Z</time>
      </trkpt>
      <trkpt lat="46.51216" lon="0.34159">
        <ele>122.2</ele>
        <time>2021-01-24T09:43:18.000Z</time>
      </trkpt>
      <trkpt lat="46.51219" lon="0.34158">
        <ele>122.2</ele>
        <time>2021-01-24T09:43:19.000Z</time>
      </trkpt>
      <trkpt lat="46.51219" lon="0.34158">
        <ele>122.2</ele>
        <time>2021-01-24T09:43:20.000Z</time>
      </trkpt>
      <trkpt lat="46.51221" lon="0.34156">
        <ele>122.2</ele>
        <time>2021-01-24T09:43:21.000Z</time>
      </trkpt>
      <trkpt lat="46.51221" lon="0.34156">
        <ele>122.4</ele>
        <time>2021-01-24T09:43:22.000Z</time>
      </trkpt>
      <trkpt lat="46.51222" lon="0.34154">
        <ele>122.4</ele>
        <time>2021-01-24T09:43:23.000Z</time>
      </trkpt>
      <trkpt lat="46.51222" lon="0.34154">
        <ele>122.4</ele>
        <time>2021-01-24T09:43:24.000Z</time>
      </trkpt>
      <trkpt lat="46.51223" lon="0.34152">
        <ele>122.4</ele>
        <time>2021-01-24T09:43:25.000Z</time>
      </trkpt>
      <trkpt lat="46.51223" lon="0.34152">
        <ele>122.4</ele>
        <time>2021-01-24T09:43:26.000Z</time>
      </trkpt>
      <trkpt lat="46.51223" lon="0.34152">
        <ele>122.4</ele>
        <time>2021-01-24T09:43:27.000Z</time>
      </trkpt>
      <trkpt lat="46.51223" lon="0.3415">
        <ele>122.4</ele>
        <time>2021-01-24T09:43:28.000Z</time>
      </trkpt>
      <trkpt lat="46.51223" lon="0.3415">
        <ele>122.4</ele>
        <time>2021-01-24T09:43:29.000Z</time>
      </trkpt>
      <trkpt lat="46.51221" lon="0.34147">
        <ele>122.4</ele>
        <time>2021-01-24T09:43:30.000Z</time>
      </trkpt>
      <trkpt lat="46.51221" lon="0.34147">
        <ele>122.4</ele>
        <time>2021-01-24T09:43:31.000Z</time>
      </trkpt>
      <trkpt lat="46.51222" lon="0.34143">
        <ele>122.2</ele>
        <time>2021-01-24T09:43:32.000Z</time>
      </trkpt>
      <trkpt lat="46.51222" lon="0.34143">
        <ele>122.2</ele>
        <time>2021-01-24T09:43:33.000Z</time>
      </trkpt>
      <trkpt lat="46.51223" lon="0.34141">
        <ele>122.2</ele>
        <time>2021-01-24T09:43:34.000Z</time>
      </trkpt>
      <trkpt lat="46.51223" lon="0.34141">
        <ele>122.2</ele>
        <time>2021-01-24T09:43:35.000Z</time>
      </trkpt>
      <trkpt lat="46.51225" lon="0.3414">
        <ele>122.2</ele>
        <time>2021-01-24T09:43:36.000Z</time>
      </trkpt>
      <trkpt lat="46.51225" lon="0.3414">
        <ele>122.2</ele>
        <time>2021-01-24T09:43:37.000Z</time>
      </trkpt>
      <trkpt lat="46.51227" lon="0.34138">
        <ele>122</ele>
        <time>2021-01-24T09:43:38.000Z</time>
      </trkpt>
      <trkpt lat="46.51227" lon="0.34138">
        <ele>122</ele>
        <time>2021-01-24T09:43:39.000Z</time>
      </trkpt>
      <trkpt lat="46.51227" lon="0.34138">
        <ele>122</ele>
        <time>2021-01-24T09:43:40.000Z</time>
      </trkpt>
      <trkpt lat="46.51229" lon="0.34137">
        <ele>122</ele>
        <time>2021-01-24T09:43:41.000Z</time>
      </trkpt>
      <trkpt lat="46.51229" lon="0.34137">
        <ele>121.8</ele>
        <time>2021-01-24T09:43:42.000Z</time>
      </trkpt>
      <trkpt lat="46.51229" lon="0.34137">
        <ele>121.8</ele>
        <time>2021-01-24T09:43:43.000Z</time>
      </trkpt>
      <trkpt lat="46.51229" lon="0.34137">
        <ele>121.8</ele>
        <time>2021-01-24T09:43:44.000Z</time>
      </trkpt>
      <trkpt lat="46.51229" lon="0.34137">
        <ele>121.6</ele>
        <time>2021-01-24T09:43:45.000Z</time>
      </trkpt>
      <trkpt lat="46.51227" lon="0.34138">
        <ele>121.6</ele>
        <time>2021-01-24T09:43:46.000Z</time>
      </trkpt>
      <trkpt lat="46.51227" lon="0.34138">
        <ele>121.4</ele>
        <time>2021-01-24T09:43:47.000Z</time>
      </trkpt>
      <trkpt lat="46.51227" lon="0.34138">
        <ele>121.4</ele>
        <time>2021-01-24T09:43:48.000Z</time>
      </trkpt>
      <trkpt lat="46.51227" lon="0.34138">
        <ele>121.4</ele>
        <time>2021-01-24T09:43:49.000Z</time>
      </trkpt>
      <trkpt lat="46.51226" lon="0.3414">
        <ele>121.2</ele>
        <time>2021-01-24T09:43:50.000Z</time>
      </trkpt>
      <trkpt lat="46.51226" lon="0.3414">
        <ele>121.2</ele>
        <time>2021-01-24T09:43:51.000Z</time>
      </trkpt>
      <trkpt lat="46.51226" lon="0.3414">
        <ele>121.2</ele>
        <time>2021-01-24T09:43:52.000Z</time>
      </trkpt>
      <trkpt lat="46.51226" lon="0.3414">
        <ele>121.2</ele>
        <time>2021-01-24T09:43:53.000Z</time>
      </trkpt>
      <trkpt lat="46.51226" lon="0.3414">
        <ele>121</ele>
        <time>2021-01-24T09:43:54.000Z</time>
      </trkpt>
      <trkpt lat="46.51226" lon="0.3414">
        <ele>121</ele>
        <time>2021-01-24T09:43:55.000Z</time>
      </trkpt>
      <trkpt lat="46.51226" lon="0.3414">
        <ele>121</ele>
        <time>2021-01-24T09:43:56.000Z</time>
      </trkpt>
      <trkpt lat="46.51226" lon="0.3414">
        <ele>121</ele>
        <time>2021-01-24T09:43:57.000Z</time>
      </trkpt>
      <trkpt lat="46.51226" lon="0.3414">
        <ele>121</ele>
        <time>2021-01-24T09:43:58.000Z</time>
      </trkpt>
      <trkpt lat="46.51226" lon="0.3414">
        <ele>120.8</ele>
        <time>2021-01-24T09:43:59.000Z</time>
      </trkpt>
      <trkpt lat="46.51226" lon="0.3414">
        <ele>120.8</ele>
        <time>2021-01-24T09:44:00.000Z</time>
      </trkpt>
      <trkpt lat="46.51226" lon="0.3414">
        <ele>120.8</ele>
        <time>2021-01-24T09:44:01.000Z</time>
      </trkpt>
      <trkpt lat="46.51226" lon="0.3414">
        <ele>120.6</ele>
        <time>2021-01-24T09:44:02.000Z</time>
      </trkpt>
      <trkpt lat="46.51226" lon="0.3414">
        <ele>120.6</ele>
        <time>2021-01-24T09:44:03.000Z</time>
      </trkpt>
      <trkpt lat="46.51226" lon="0.3414">
        <ele>120.6</ele>
        <time>2021-01-24T09:44:04.000Z</time>
      </trkpt>
      <trkpt lat="46.51226" lon="0.3414">
        <ele>120.6</ele>
        <time>2021-01-24T09:44:05.000Z</time>
      </trkpt>
      <trkpt lat="46.51226" lon="0.3414">
        <ele>120.4</ele>
        <time>2021-01-24T09:44:06.000Z</time>
      </trkpt>
      <trkpt lat="46.51226" lon="0.3414">
        <ele>120.4</ele>
        <time>2021-01-24T09:44:07.000Z</time>
      </trkpt>
      <trkpt lat="46.51228" lon="0.3414">
        <ele>120.4</ele>
        <time>2021-01-24T09:44:08.000Z</time>
      </trkpt>
      <trkpt lat="46.51228" lon="0.3414">
        <ele>120.4</ele>
        <time>2021-01-24T09:44:09.000Z</time>
      </trkpt>
      <trkpt lat="46.51228" lon="0.3414">
        <ele>120.2</ele>
        <time>2021-01-24T09:44:10.000Z</time>
      </trkpt>
      <trkpt lat="46.51228" lon="0.3414">
        <ele>120.2</ele>
        <time>2021-01-24T09:44:11.000Z</time>
      </trkpt>
      <trkpt lat="46.51228" lon="0.3414">
        <ele>120.2</ele>
        <time>2021-01-24T09:44:12.000Z</time>
      </trkpt>
      <trkpt lat="46.51228" lon="0.3414">
        <ele>120</ele>
        <time>2021-01-24T09:44:13.000Z</time>
      </trkpt>
      <trkpt lat="46.51228" lon="0.3414">
        <ele>120</ele>
        <time>2021-01-24T09:44:14.000Z</time>
      </trkpt>
      <trkpt lat="46.51228" lon="0.3414">
        <ele>120</ele>
        <time>2021-01-24T09:44:15.000Z</time>
      </trkpt>
      <trkpt lat="46.51228" lon="0.3414">
        <ele>119.8</ele>
        <time>2021-01-24T09:44:16.000Z</time>
      </trkpt>
      <trkpt lat="46.51228" lon="0.3414">
        <ele>119.8</ele>
        <time>2021-01-24T09:44:17.000Z</time>
      </trkpt>
      <trkpt lat="46.51228" lon="0.3414">
        <ele>119.8</ele>
        <time>2021-01-24T09:44:18.000Z</time>
      </trkpt>
      <trkpt lat="46.51228" lon="0.3414">
        <ele>119.8</ele>
        <time>2021-01-24T09:44:19.000Z</time>
      </trkpt>
      <trkpt lat="46.51228" lon="0.3414">
        <ele>119.6</ele>
        <time>2021-01-24T09:44:20.000Z</time>
      </trkpt>
      <trkpt lat="46.51228" lon="0.3414">
        <ele>119.6</ele>
        <time>2021-01-24T09:44:21.000Z</time>
      </trkpt>
      <trkpt lat="46.51228" lon="0.3414">
        <ele>119.6</ele>
        <time>2021-01-24T09:44:22.000Z</time>
      </trkpt>
      <trkpt lat="46.51228" lon="0.3414">
        <ele>119.6</ele>
        <time>2021-01-24T09:44:23.000Z</time>
      </trkpt>
      <trkpt lat="46.51228" lon="0.3414">
        <ele>119.6</ele>
        <time>2021-01-24T09:44:24.000Z</time>
      </trkpt>
      <trkpt lat="46.51228" lon="0.3414">
        <ele>119.6</ele>
        <time>2021-01-24T09:44:25.000Z</time>
      </trkpt>
      <trkpt lat="46.51228" lon="0.3414">
        <ele>119.6</ele>
        <time>2021-01-24T09:44:26.000Z</time>
      </trkpt>
      <trkpt lat="46.51228" lon="0.3414">
        <ele>119.6</ele>
        <time>2021-01-24T09:44:27.000Z</time>
      </trkpt>
      <trkpt lat="46.51228" lon="0.3414">
        <ele>119.4</ele>
        <time>2021-01-24T09:44:28.000Z</time>
      </trkpt>
      <trkpt lat="46.51228" lon="0.3414">
        <ele>119.4</ele>
        <time>2021-01-24T09:44:29.000Z</time>
      </trkpt>
      <trkpt lat="46.51228" lon="0.3414">
        <ele>119.4</ele>
        <time>2021-01-24T09:44:30.000Z</time>
      </trkpt>
      <trkpt lat="46.51228" lon="0.3414">
        <ele>119.4</ele>
        <time>2021-01-24T09:44:31.000Z</time>
      </trkpt>
      <trkpt lat="46.51228" lon="0.3414">
        <ele>119.4</ele>
        <time>2021-01-24T09:44:32.000Z</time>
      </trkpt>
      <trkpt lat="46.51228" lon="0.3414">
        <ele>119.4</ele>
        <time>2021-01-24T09:44:33.000Z</time>
      </trkpt>
      <trkpt lat="46.51228" lon="0.3414">
        <ele>119.4</ele>
        <time>2021-01-24T09:44:34.000Z</time>
      </trkpt>
      <trkpt lat="46.51228" lon="0.3414">
        <ele>119.4</ele>
        <time>2021-01-24T09:44:35.000Z</time>
      </trkpt>
      <trkpt lat="46.51228" lon="0.3414">
        <ele>119.4</ele>
        <time>2021-01-24T09:44:36.000Z</time>
      </trkpt>
      <trkpt lat="46.51228" lon="0.3414">
        <ele>119.4</ele>
        <time>2021-01-24T09:44:37.000Z</time>
      </trkpt>
      <trkpt lat="46.51228" lon="0.3414">
        <ele>119.2</ele>
        <time>2021-01-24T09:44:38.000Z</time>
      </trkpt>
      <trkpt lat="46.51228" lon="0.3414">
        <ele>119.2</ele>
        <time>2021-01-24T09:44:39.000Z</time>
      </trkpt>
      <trkpt lat="46.51228" lon="0.3414">
        <ele>119.2</ele>
        <time>2021-01-24T09:44:40.000Z</time>
      </trkpt>
      <trkpt lat="46.51228" lon="0.3414">
        <ele>119.2</ele>
        <time>2021-01-24T09:44:41.000Z</time>
      </trkpt>
      <trkpt lat="46.51228" lon="0.3414">
        <ele>119.2</ele>
        <time>2021-01-24T09:44:42.000Z</time>
      </trkpt>
      <trkpt lat="46.51229" lon="0.34138">
        <ele>119.2</ele>
        <time>2021-01-24T09:44:43.000Z</time>
      </trkpt>
      <trkpt lat="46.51229" lon="0.34138">
        <ele>119.2</ele>
        <time>2021-01-24T09:44:44.000Z</time>
      </trkpt>
      <trkpt lat="46.51232" lon="0.34134">
        <ele>119</ele>
        <time>2021-01-24T09:44:45.000Z</time>
      </trkpt>
      <trkpt lat="46.51234" lon="0.34132">
        <ele>119</ele>
        <time>2021-01-24T09:44:46.000Z</time>
      </trkpt>
      <trkpt lat="46.51235" lon="0.3413">
        <ele>119</ele>
        <time>2021-01-24T09:44:47.000Z</time>
      </trkpt>
      <trkpt lat="46.51235" lon="0.3413">
        <ele>119</ele>
        <time>2021-01-24T09:44:48.000Z</time>
      </trkpt>
      <trkpt lat="46.51237" lon="0.34126">
        <ele>118.8</ele>
        <time>2021-01-24T09:44:49.000Z</time>
      </trkpt>
      <trkpt lat="46.51239" lon="0.34124">
        <ele>118.8</ele>
        <time>2021-01-24T09:44:50.000Z</time>
      </trkpt>
      <trkpt lat="46.51241" lon="0.34122">
        <ele>118.6</ele>
        <time>2021-01-24T09:44:51.000Z</time>
      </trkpt>
      <trkpt lat="46.51243" lon="0.3412">
        <ele>118.6</ele>
        <time>2021-01-24T09:44:52.000Z</time>
      </trkpt>
      <trkpt lat="46.51245" lon="0.34119">
        <ele>118.4</ele>
        <time>2021-01-24T09:44:53.000Z</time>
      </trkpt>
      <trkpt lat="46.51245" lon="0.34119">
        <ele>118.2</ele>
        <time>2021-01-24T09:44:54.000Z</time>
      </trkpt>
      <trkpt lat="46.51247" lon="0.34115">
        <ele>118.2</ele>
        <time>2021-01-24T09:44:55.000Z</time>
      </trkpt>
      <trkpt lat="46.51247" lon="0.34115">
        <ele>118</ele>
        <time>2021-01-24T09:44:56.000Z</time>
      </trkpt>
      <trkpt lat="46.51248" lon="0.34111">
        <ele>117.8</ele>
        <time>2021-01-24T09:44:57.000Z</time>
      </trkpt>
      <trkpt lat="46.51248" lon="0.34111">
        <ele>117.8</ele>
        <time>2021-01-24T09:44:58.000Z</time>
      </trkpt>
      <trkpt lat="46.51247" lon="0.34108">
        <ele>117.6</ele>
        <time>2021-01-24T09:44:59.000Z</time>
      </trkpt>
      <trkpt lat="46.51247" lon="0.34108">
        <ele>117.4</ele>
        <time>2021-01-24T09:45:00.000Z</time>
      </trkpt>
      <trkpt lat="46.51247" lon="0.34108">
        <ele>117.4</ele>
        <time>2021-01-24T09:45:01.000Z</time>
      </trkpt>
      <trkpt lat="46.51247" lon="0.34108">
        <ele>117.2</ele>
        <time>2021-01-24T09:45:02.000Z</time>
      </trkpt>
      <trkpt lat="46.51247" lon="0.34108">
        <ele>117</ele>
        <time>2021-01-24T09:45:03.000Z</time>
      </trkpt>
      <trkpt lat="46.51247" lon="0.34108">
        <ele>117</ele>
        <time>2021-01-24T09:45:04.000Z</time>
      </trkpt>
      <trkpt lat="46.51247" lon="0.34108">
        <ele>116.8</ele>
        <time>2021-01-24T09:45:05.000Z</time>
      </trkpt>
      <trkpt lat="46.51247" lon="0.34108">
        <ele>116.6</ele>
        <time>2021-01-24T09:45:06.000Z</time>
      </trkpt>
      <trkpt lat="46.51247" lon="0.34108">
        <ele>116.4</ele>
        <time>2021-01-24T09:45:07.000Z</time>
      </trkpt>
      <trkpt lat="46.51247" lon="0.34108">
        <ele>116.2</ele>
        <time>2021-01-24T09:45:08.000Z</time>
      </trkpt>
      <trkpt lat="46.51247" lon="0.34108">
        <ele>116</ele>
        <time>2021-01-24T09:45:09.000Z</time>
      </trkpt>
      <trkpt lat="46.51247" lon="0.34108">
        <ele>115.8</ele>
        <time>2021-01-24T09:45:10.000Z</time>
      </trkpt>
      <trkpt lat="46.51247" lon="0.34108">
        <ele>115.6</ele>
        <time>2021-01-24T09:45:11.000Z</time>
      </trkpt>
      <trkpt lat="46.51247" lon="0.34108">
        <ele>115.2</ele>
        <time>2021-01-24T09:45:12.000Z</time>
      </trkpt>
      <trkpt lat="46.51247" lon="0.34108">
        <ele>115.2</ele>
        <time>2021-01-24T09:45:13.000Z</time>
      </trkpt>
      <trkpt lat="46.51247" lon="0.34108">
        <ele>115</ele>
        <time>2021-01-24T09:45:14.000Z</time>
      </trkpt>
      <trkpt lat="46.51247" lon="0.34108">
        <ele>114.8</ele>
        <time>2021-01-24T09:45:15.000Z</time>
      </trkpt>
      <trkpt lat="46.51247" lon="0.34108">
        <ele>114.6</ele>
        <time>2021-01-24T09:45:16.000Z</time>
      </trkpt>
      <trkpt lat="46.51247" lon="0.34108">
        <ele>114.4</ele>
        <time>2021-01-24T09:45:17.000Z</time>
      </trkpt>
      <trkpt lat="46.51247" lon="0.34108">
        <ele>114.4</ele>
        <time>2021-01-24T09:45:18.000Z</time>
      </trkpt>
      <trkpt lat="46.51247" lon="0.34108">
        <ele>114.2</ele>
        <time>2021-01-24T09:45:19.000Z</time>
      </trkpt>
      <trkpt lat="46.51247" lon="0.34108">
        <ele>114</ele>
        <time>2021-01-24T09:45:20.000Z</time>
      </trkpt>
      <trkpt lat="46.51247" lon="0.34108">
        <ele>114</ele>
        <time>2021-01-24T09:45:21.000Z</time>
      </trkpt>
      <trkpt lat="46.51247" lon="0.34108">
        <ele>113.8</ele>
        <time>2021-01-24T09:45:22.000Z</time>
      </trkpt>
      <trkpt lat="46.51247" lon="0.34108">
        <ele>113.6</ele>
        <time>2021-01-24T09:45:23.000Z</time>
      </trkpt>
      <trkpt lat="46.51247" lon="0.34108">
        <ele>113.6</ele>
        <time>2021-01-24T09:45:24.000Z</time>
      </trkpt>
      <trkpt lat="46.51247" lon="0.34108">
        <ele>113.4</ele>
        <time>2021-01-24T09:45:25.000Z</time>
      </trkpt>
      <trkpt lat="46.51247" lon="0.34108">
        <ele>113.2</ele>
        <time>2021-01-24T09:45:26.000Z</time>
      </trkpt>
      <trkpt lat="46.51247" lon="0.34108">
        <ele>113.2</ele>
        <time>2021-01-24T09:45:27.000Z</time>
      </trkpt>
      <trkpt lat="46.51247" lon="0.34108">
        <ele>113</ele>
        <time>2021-01-24T09:45:28.000Z</time>
      </trkpt>
      <trkpt lat="46.51247" lon="0.34108">
        <ele>112.8</ele>
        <time>2021-01-24T09:45:29.000Z</time>
      </trkpt>
      <trkpt lat="46.51247" lon="0.34108">
        <ele>112.8</ele>
        <time>2021-01-24T09:45:30.000Z</time>
      </trkpt>
      <trkpt lat="46.51247" lon="0.34108">
        <ele>112.6</ele>
        <time>2021-01-24T09:45:31.000Z</time>
      </trkpt>
      <trkpt lat="46.51247" lon="0.34108">
        <ele>112.4</ele>
        <time>2021-01-24T09:45:32.000Z</time>
      </trkpt>
      <trkpt lat="46.51247" lon="0.34108">
        <ele>112.4</ele>
        <time>2021-01-24T09:45:33.000Z</time>
      </trkpt>
      <trkpt lat="46.51247" lon="0.34108">
        <ele>112.2</ele>
        <time>2021-01-24T09:45:34.000Z</time>
      </trkpt>
      <trkpt lat="46.51247" lon="0.34108">
        <ele>112</ele>
        <time>2021-01-24T09:45:35.000Z</time>
      </trkpt>
      <trkpt lat="46.51247" lon="0.34108">
        <ele>112</ele>
        <time>2021-01-24T09:45:36.000Z</time>
      </trkpt>
      <trkpt lat="46.51247" lon="0.34108">
        <ele>111.8</ele>
        <time>2021-01-24T09:45:37.000Z</time>
      </trkpt>
      <trkpt lat="46.51247" lon="0.34108">
        <ele>111.8</ele>
        <time>2021-01-24T09:45:38.000Z</time>
      </trkpt>
      <trkpt lat="46.51247" lon="0.34108">
        <ele>111.6</ele>
        <time>2021-01-24T09:45:39.000Z</time>
      </trkpt>
      <trkpt lat="46.51247" lon="0.34108">
        <ele>111.6</ele>
        <time>2021-01-24T09:45:40.000Z</time>
      </trkpt>
      <trkpt lat="46.51247" lon="0.34108">
        <ele>111.4</ele>
        <time>2021-01-24T09:45:41.000Z</time>
      </trkpt>
      <trkpt lat="46.51247" lon="0.34108">
        <ele>111.4</ele>
        <time>2021-01-24T09:45:42.000Z</time>
      </trkpt>
      <trkpt lat="46.51247" lon="0.34108">
        <ele>111.2</ele>
        <time>2021-01-24T09:45:43.000Z</time>
      </trkpt>
      <trkpt lat="46.51249" lon="0.34105">
        <ele>111.2</ele>
        <time>2021-01-24T09:45:44.000Z</time>
      </trkpt>
      <trkpt lat="46.51249" lon="0.34105">
        <ele>111</ele>
        <time>2021-01-24T09:45:45.000Z</time>
      </trkpt>
      <trkpt lat="46.51249" lon="0.34105">
        <ele>111</ele>
        <time>2021-01-24T09:45:46.000Z</time>
      </trkpt>
      <trkpt lat="46.51249" lon="0.34105">
        <ele>110.8</ele>
        <time>2021-01-24T09:45:47.000Z</time>
      </trkpt>
      <trkpt lat="46.51249" lon="0.34105">
        <ele>110.8</ele>
        <time>2021-01-24T09:45:48.000Z</time>
      </trkpt>
      <trkpt lat="46.51249" lon="0.34105">
        <ele>110.8</ele>
        <time>2021-01-24T09:45:49.000Z</time>
      </trkpt>
      <trkpt lat="46.51249" lon="0.34105">
        <ele>110.6</ele>
        <time>2021-01-24T09:45:50.000Z</time>
      </trkpt>
      <trkpt lat="46.51249" lon="0.34105">
        <ele>110.6</ele>
        <time>2021-01-24T09:45:51.000Z</time>
      </trkpt>
      <trkpt lat="46.51249" lon="0.34105">
        <ele>110.4</ele>
        <time>2021-01-24T09:45:52.000Z</time>
      </trkpt>
      <trkpt lat="46.51249" lon="0.34105">
        <ele>110.4</ele>
        <time>2021-01-24T09:45:53.000Z</time>
      </trkpt>
      <trkpt lat="46.51249" lon="0.34105">
        <ele>110.2</ele>
        <time>2021-01-24T09:45:54.000Z</time>
      </trkpt>
      <trkpt lat="46.51249" lon="0.34105">
        <ele>110.2</ele>
        <time>2021-01-24T09:45:55.000Z</time>
      </trkpt>
      <trkpt lat="46.51249" lon="0.34105">
        <ele>110.2</ele>
        <time>2021-01-24T09:45:56.000Z</time>
      </trkpt>
      <trkpt lat="46.51249" lon="0.34105">
        <ele>110</ele>
        <time>2021-01-24T09:45:57.000Z</time>
      </trkpt>
      <trkpt lat="46.51249" lon="0.34105">
        <ele>110</ele>
        <time>2021-01-24T09:45:58.000Z</time>
      </trkpt>
      <trkpt lat="46.51249" lon="0.34105">
        <ele>109.8</ele>
        <time>2021-01-24T09:45:59.000Z</time>
      </trkpt>
      <trkpt lat="46.51249" lon="0.34105">
        <ele>109.8</ele>
        <time>2021-01-24T09:46:00.000Z</time>
      </trkpt>
      <trkpt lat="46.51249" lon="0.34105">
        <ele>109.6</ele>
        <time>2021-01-24T09:46:01.000Z</time>
      </trkpt>
      <trkpt lat="46.51249" lon="0.34105">
        <ele>109.6</ele>
        <time>2021-01-24T09:46:02.000Z</time>
      </trkpt>
      <trkpt lat="46.51249" lon="0.34105">
        <ele>109.4</ele>
        <time>2021-01-24T09:46:03.000Z</time>
      </trkpt>
      <trkpt lat="46.51249" lon="0.34105">
        <ele>109.4</ele>
        <time>2021-01-24T09:46:04.000Z</time>
      </trkpt>
      <trkpt lat="46.51249" lon="0.34105">
        <ele>109.4</ele>
        <time>2021-01-24T09:46:05.000Z</time>
      </trkpt>
      <trkpt lat="46.51249" lon="0.34105">
        <ele>109.2</ele>
        <time>2021-01-24T09:46:06.000Z</time>
      </trkpt>
      <trkpt lat="46.51249" lon="0.34105">
        <ele>109.2</ele>
        <time>2021-01-24T09:46:07.000Z</time>
      </trkpt>
      <trkpt lat="46.51249" lon="0.34105">
        <ele>109.2</ele>
        <time>2021-01-24T09:46:08.000Z</time>
      </trkpt>
      <trkpt lat="46.51249" lon="0.34105">
        <ele>109</ele>
        <time>2021-01-24T09:46:09.000Z</time>
      </trkpt>
      <trkpt lat="46.51249" lon="0.34105">
        <ele>109</ele>
        <time>2021-01-24T09:46:10.000Z</time>
      </trkpt>
      <trkpt lat="46.51249" lon="0.34105">
        <ele>109</ele>
        <time>2021-01-24T09:46:11.000Z</time>
      </trkpt>
      <trkpt lat="46.51249" lon="0.34105">
        <ele>109</ele>
        <time>2021-01-24T09:46:12.000Z</time>
      </trkpt>
      <trkpt lat="46.51249" lon="0.34105">
        <ele>108.8</ele>
        <time>2021-01-24T09:46:13.000Z</time>
      </trkpt>
      <trkpt lat="46.51249" lon="0.34105">
        <ele>108.8</ele>
        <time>2021-01-24T09:46:14.000Z</time>
      </trkpt>
      <trkpt lat="46.51249" lon="0.34105">
        <ele>108.8</ele>
        <time>2021-01-24T09:46:15.000Z</time>
      </trkpt>
      <trkpt lat="46.51249" lon="0.34105">
        <ele>108.8</ele>
        <time>2021-01-24T09:46:16.000Z</time>
      </trkpt>
      <trkpt lat="46.51249" lon="0.34105">
        <ele>108.6</ele>
        <time>2021-01-24T09:46:17.000Z</time>
      </trkpt>
      <trkpt lat="46.51249" lon="0.34105">
        <ele>108.6</ele>
        <time>2021-01-24T09:46:18.000Z</time>
      </trkpt>
      <trkpt lat="46.51249" lon="0.34105">
        <ele>108.6</ele>
        <time>2021-01-24T09:46:19.000Z</time>
      </trkpt>
      <trkpt lat="46.51249" lon="0.34105">
        <ele>108.6</ele>
        <time>2021-01-24T09:46:20.000Z</time>
      </trkpt>
      <trkpt lat="46.51249" lon="0.34105">
        <ele>108.6</ele>
        <time>2021-01-24T09:46:21.000Z</time>
      </trkpt>
      <trkpt lat="46.51249" lon="0.34105">
        <ele>108.4</ele>
        <time>2021-01-24T09:46:22.000Z</time>
      </trkpt>
      <trkpt lat="46.51249" lon="0.34105">
        <ele>108.4</ele>
        <time>2021-01-24T09:46:23.000Z</time>
      </trkpt>
      <trkpt lat="46.51249" lon="0.34105">
        <ele>108.4</ele>
        <time>2021-01-24T09:46:24.000Z</time>
      </trkpt>
      <trkpt lat="46.51249" lon="0.34105">
        <ele>108.4</ele>
        <time>2021-01-24T09:46:25.000Z</time>
      </trkpt>
      <trkpt lat="46.51249" lon="0.34105">
        <ele>108.4</ele>
        <time>2021-01-24T09:46:26.000Z</time>
      </trkpt>
      <trkpt lat="46.51249" lon="0.34105">
        <ele>108.2</ele>
        <time>2021-01-24T09:46:27.000Z</time>
      </trkpt>
      <trkpt lat="46.51249" lon="0.34105">
        <ele>108.2</ele>
        <time>2021-01-24T09:46:28.000Z</time>
      </trkpt>
      <trkpt lat="46.51249" lon="0.34105">
        <ele>108.2</ele>
        <time>2021-01-24T09:46:29.000Z</time>
      </trkpt>
      <trkpt lat="46.51249" lon="0.34105">
        <ele>108.2</ele>
        <time>2021-01-24T09:46:30.000Z</time>
      </trkpt>
      <trkpt lat="46.51249" lon="0.34105">
        <ele>108.2</ele>
        <time>2021-01-24T09:46:31.000Z</time>
      </trkpt>
      <trkpt lat="46.51249" lon="0.34105">
        <ele>108.2</ele>
        <time>2021-01-24T09:46:32.000Z</time>
      </trkpt>
      <trkpt lat="46.51249" lon="0.34105">
        <ele>108.2</ele>
        <time>2021-01-24T09:46:33.000Z</time>
      </trkpt>
      <trkpt lat="46.51249" lon="0.34105">
        <ele>108</ele>
        <time>2021-01-24T09:46:34.000Z</time>
      </trkpt>
      <trkpt lat="46.51249" lon="0.34105">
        <ele>108</ele>
        <time>2021-01-24T09:46:35.000Z</time>
      </trkpt>
      <trkpt lat="46.51249" lon="0.34105">
        <ele>108</ele>
        <time>2021-01-24T09:46:36.000Z</time>
      </trkpt>
      <trkpt lat="46.51249" lon="0.34105">
        <ele>108</ele>
        <time>2021-01-24T09:46:37.000Z</time>
      </trkpt>
      <trkpt lat="46.51249" lon="0.34105">
        <ele>108</ele>
        <time>2021-01-24T09:46:38.000Z</time>
      </trkpt>
      <trkpt lat="46.51249" lon="0.34105">
        <ele>108</ele>
        <time>2021-01-24T09:46:39.000Z</time>
      </trkpt>
      <trkpt lat="46.51249" lon="0.34105">
        <ele>108</ele>
        <time>2021-01-24T09:46:40.000Z</time>
      </trkpt>
      <trkpt lat="46.51249" lon="0.34105">
        <ele>108</ele>
        <time>2021-01-24T09:46:41.000Z</time>
      </trkpt>
      <trkpt lat="46.51249" lon="0.34105">
        <ele>107.8</ele>
        <time>2021-01-24T09:46:42.000Z</time>
      </trkpt>
      <trkpt lat="46.51249" lon="0.34105">
        <ele>107.8</ele>
        <time>2021-01-24T09:46:43.000Z</time>
      </trkpt>
      <trkpt lat="46.51249" lon="0.34105">
        <ele>107.8</ele>
        <time>2021-01-24T09:46:44.000Z</time>
      </trkpt>
      <trkpt lat="46.51249" lon="0.34105">
        <ele>107.8</ele>
        <time>2021-01-24T09:46:45.000Z</time>
      </trkpt>
      <trkpt lat="46.51249" lon="0.34105">
        <ele>107.8</ele>
        <time>2021-01-24T09:46:46.000Z</time>
      </trkpt>
      <trkpt lat="46.51249" lon="0.34105">
        <ele>107.8</ele>
        <time>2021-01-24T09:46:47.000Z</time>
      </trkpt>
      <trkpt lat="46.51249" lon="0.34105">
        <ele>107.8</ele>
        <time>2021-01-24T09:46:48.000Z</time>
      </trkpt>
      <trkpt lat="46.51249" lon="0.34105">
        <ele>107.8</ele>
        <time>2021-01-24T09:46:49.000Z</time>
      </trkpt>
      <trkpt lat="46.51251" lon="0.34104">
        <ele>107.8</ele>
        <time>2021-01-24T09:46:50.000Z</time>
      </trkpt>
      <trkpt lat="46.51251" lon="0.34104">
        <ele>107.8</ele>
        <time>2021-01-24T09:46:51.000Z</time>
      </trkpt>
      <trkpt lat="46.51251" lon="0.34104">
        <ele>107.6</ele>
        <time>2021-01-24T09:46:52.000Z</time>
      </trkpt>
      <trkpt lat="46.51251" lon="0.34103">
        <ele>107.6</ele>
        <time>2021-01-24T09:46:53.000Z</time>
      </trkpt>
      <trkpt lat="46.51251" lon="0.34103">
        <ele>107.6</ele>
        <time>2021-01-24T09:46:54.000Z</time>
      </trkpt>
      <trkpt lat="46.51251" lon="0.34103">
        <ele>107.6</ele>
        <time>2021-01-24T09:46:55.000Z</time>
      </trkpt>
      <trkpt lat="46.51251" lon="0.34103">
        <ele>107.6</ele>
        <time>2021-01-24T09:46:56.000Z</time>
      </trkpt>
      <trkpt lat="46.51251" lon="0.34103">
        <ele>107.4</ele>
        <time>2021-01-24T09:46:57.000Z</time>
      </trkpt>
      <trkpt lat="46.51251" lon="0.34103">
        <ele>107.4</ele>
        <time>2021-01-24T09:46:58.000Z</time>
      </trkpt>
      <trkpt lat="46.51251" lon="0.34103">
        <ele>107.2</ele>
        <time>2021-01-24T09:46:59.000Z</time>
      </trkpt>
      <trkpt lat="46.51251" lon="0.34103">
        <ele>107.2</ele>
        <time>2021-01-24T09:47:00.000Z</time>
      </trkpt>
      <trkpt lat="46.51251" lon="0.34103">
        <ele>107</ele>
        <time>2021-01-24T09:47:01.000Z</time>
      </trkpt>
      <trkpt lat="46.51251" lon="0.34103">
        <ele>107</ele>
        <time>2021-01-24T09:47:02.000Z</time>
      </trkpt>
      <trkpt lat="46.51251" lon="0.34103">
        <ele>107</ele>
        <time>2021-01-24T09:47:03.000Z</time>
      </trkpt>
      <trkpt lat="46.51251" lon="0.34103">
        <ele>106.8</ele>
        <time>2021-01-24T09:47:04.000Z</time>
      </trkpt>
      <trkpt lat="46.51251" lon="0.34103">
        <ele>106.8</ele>
        <time>2021-01-24T09:47:05.000Z</time>
      </trkpt>
      <trkpt lat="46.51251" lon="0.34103">
        <ele>106.8</ele>
        <time>2021-01-24T09:47:06.000Z</time>
      </trkpt>
      <trkpt lat="46.51252" lon="0.34103">
        <ele>106.8</ele>
        <time>2021-01-24T09:47:07.000Z</time>
      </trkpt>
      <trkpt lat="46.51252" lon="0.34103">
        <ele>106.8</ele>
        <time>2021-01-24T09:47:08.000Z</time>
      </trkpt>
      <trkpt lat="46.51252" lon="0.34103">
        <ele>106.8</ele>
        <time>2021-01-24T09:47:09.000Z</time>
      </trkpt>
      <trkpt lat="46.51252" lon="0.34103">
        <ele>106.8</ele>
        <time>2021-01-24T09:47:10.000Z</time>
      </trkpt>
      <trkpt lat="46.51252" lon="0.34103">
        <ele>106.8</ele>
        <time>2021-01-24T09:47:11.000Z</time>
      </trkpt>
      <trkpt lat="46.51252" lon="0.34103">
        <ele>106.8</ele>
        <time>2021-01-24T09:47:12.000Z</time>
      </trkpt>
      <trkpt lat="46.51252" lon="0.34103">
        <ele>106.8</ele>
        <time>2021-01-24T09:47:13.000Z</time>
      </trkpt>
      <trkpt lat="46.51252" lon="0.34103">
        <ele>107</ele>
        <time>2021-01-24T09:47:14.000Z</time>
      </trkpt>
      <trkpt lat="46.51252" lon="0.34103">
        <ele>107</ele>
        <time>2021-01-24T09:47:15.000Z</time>
      </trkpt>
      <trkpt lat="46.51252" lon="0.34103">
        <ele>107</ele>
        <time>2021-01-24T09:47:16.000Z</time>
      </trkpt>
      <trkpt lat="46.51252" lon="0.34103">
        <ele>107</ele>
        <time>2021-01-24T09:47:17.000Z</time>
      </trkpt>
      <trkpt lat="46.51252" lon="0.34103">
        <ele>107</ele>
        <time>2021-01-24T09:47:18.000Z</time>
      </trkpt>
      <trkpt lat="46.51252" lon="0.34103">
        <ele>107.2</ele>
        <time>2021-01-24T09:47:19.000Z</time>
      </trkpt>
      <trkpt lat="46.51252" lon="0.34103">
        <ele>107.2</ele>
        <time>2021-01-24T09:47:20.000Z</time>
      </trkpt>
      <trkpt lat="46.51252" lon="0.34103">
        <ele>107.2</ele>
        <time>2021-01-24T09:47:21.000Z</time>
      </trkpt>
      <trkpt lat="46.51252" lon="0.34103">
        <ele>107.2</ele>
        <time>2021-01-24T09:47:22.000Z</time>
      </trkpt>
      <trkpt lat="46.51252" lon="0.34103">
        <ele>107.2</ele>
        <time>2021-01-24T09:47:23.000Z</time>
      </trkpt>
      <trkpt lat="46.51252" lon="0.34103">
        <ele>107.2</ele>
        <time>2021-01-24T09:47:24.000Z</time>
      </trkpt>
      <trkpt lat="46.51252" lon="0.34103">
        <ele>107.2</ele>
        <time>2021-01-24T09:47:25.000Z</time>
      </trkpt>
      <trkpt lat="46.51252" lon="0.34103">
        <ele>107.2</ele>
        <time>2021-01-24T09:47:26.000Z</time>
      </trkpt>
      <trkpt lat="46.51252" lon="0.34102">
        <ele>107.4</ele>
        <time>2021-01-24T09:47:27.000Z</time>
      </trkpt>
      <trkpt lat="46.51252" lon="0.34102">
        <ele>107.4</ele>
        <time>2021-01-24T09:47:28.000Z</time>
      </trkpt>
      <trkpt lat="46.51252" lon="0.34102">
        <ele>107.4</ele>
        <time>2021-01-24T09:47:29.000Z</time>
      </trkpt>
      <trkpt lat="46.51252" lon="0.34102">
        <ele>107.4</ele>
        <time>2021-01-24T09:47:30.000Z</time>
      </trkpt>
      <trkpt lat="46.51252" lon="0.34102">
        <ele>107.4</ele>
        <time>2021-01-24T09:47:31.000Z</time>
      </trkpt>
      <trkpt lat="46.51252" lon="0.34102">
        <ele>107.6</ele>
        <time>2021-01-24T09:47:32.000Z</time>
      </trkpt>
      <trkpt lat="46.51252" lon="0.34102">
        <ele>107.6</ele>
        <time>2021-01-24T09:47:33.000Z</time>
      </trkpt>
      <trkpt lat="46.51252" lon="0.34102">
        <ele>107.6</ele>
        <time>2021-01-24T09:47:34.000Z</time>
      </trkpt>
      <trkpt lat="46.51252" lon="0.34102">
        <ele>107.6</ele>
        <time>2021-01-24T09:47:35.000Z</time>
      </trkpt>
      <trkpt lat="46.51252" lon="0.34102">
        <ele>107.6</ele>
        <time>2021-01-24T09:47:36.000Z</time>
      </trkpt>
      <trkpt lat="46.51252" lon="0.34102">
        <ele>107.8</ele>
        <time>2021-01-24T09:47:37.000Z</time>
      </trkpt>
      <trkpt lat="46.51252" lon="0.34102">
        <ele>107.8</ele>
        <time>2021-01-24T09:47:38.000Z</time>
      </trkpt>
      <trkpt lat="46.51252" lon="0.34102">
        <ele>107.8</ele>
        <time>2021-01-24T09:47:39.000Z</time>
      </trkpt>
      <trkpt lat="46.51252" lon="0.34102">
        <ele>107.8</ele>
        <time>2021-01-24T09:47:40.000Z</time>
      </trkpt>
      <trkpt lat="46.51252" lon="0.34102">
        <ele>107.8</ele>
        <time>2021-01-24T09:47:41.000Z</time>
      </trkpt>
      <trkpt lat="46.51252" lon="0.34102">
        <ele>107.8</ele>
        <time>2021-01-24T09:47:42.000Z</time>
      </trkpt>
      <trkpt lat="46.51252" lon="0.34102">
        <ele>107.8</ele>
        <time>2021-01-24T09:47:43.000Z</time>
      </trkpt>
      <trkpt lat="46.51252" lon="0.34102">
        <ele>107.8</ele>
        <time>2021-01-24T09:47:44.000Z</time>
      </trkpt>
      <trkpt lat="46.51252" lon="0.34102">
        <ele>107.8</ele>
        <time>2021-01-24T09:47:45.000Z</time>
      </trkpt>
      <trkpt lat="46.51252" lon="0.34102">
        <ele>107.8</ele>
        <time>2021-01-24T09:47:46.000Z</time>
      </trkpt>
      <trkpt lat="46.51252" lon="0.34102">
        <ele>108</ele>
        <time>2021-01-24T09:47:47.000Z</time>
      </trkpt>
      <trkpt lat="46.51252" lon="0.34102">
        <ele>108</ele>
        <time>2021-01-24T09:47:48.000Z</time>
      </trkpt>
      <trkpt lat="46.51252" lon="0.34102">
        <ele>108</ele>
        <time>2021-01-24T09:47:49.000Z</time>
      </trkpt>
      <trkpt lat="46.51252" lon="0.34102">
        <ele>108</ele>
        <time>2021-01-24T09:47:50.000Z</time>
      </trkpt>
      <trkpt lat="46.51252" lon="0.34102">
        <ele>108</ele>
        <time>2021-01-24T09:47:51.000Z</time>
      </trkpt>
      <trkpt lat="46.51252" lon="0.34102">
        <ele>108</ele>
        <time>2021-01-24T09:47:52.000Z</time>
      </trkpt>
      <trkpt lat="46.51252" lon="0.34102">
        <ele>108</ele>
        <time>2021-01-24T09:47:53.000Z</time>
      </trkpt>
      <trkpt lat="46.51252" lon="0.34102">
        <ele>108</ele>
        <time>2021-01-24T09:47:54.000Z</time>
      </trkpt>
      <trkpt lat="46.51252" lon="0.34102">
        <ele>108</ele>
        <time>2021-01-24T09:47:55.000Z</time>
      </trkpt>
      <trkpt lat="46.51252" lon="0.34102">
        <ele>108</ele>
        <time>2021-01-24T09:47:56.000Z</time>
      </trkpt>
      <trkpt lat="46.51252" lon="0.34102">
        <ele>108</ele>
        <time>2021-01-24T09:47:57.000Z</time>
      </trkpt>
      <trkpt lat="46.51252" lon="0.34102">
        <ele>108</ele>
        <time>2021-01-24T09:47:58.000Z</time>
      </trkpt>
      <trkpt lat="46.51252" lon="0.34102">
        <ele>108</ele>
        <time>2021-01-24T09:47:59.000Z</time>
      </trkpt>
      <trkpt lat="46.51252" lon="0.34102">
        <ele>108</ele>
        <time>2021-01-24T09:48:00.000Z</time>
      </trkpt>
      <trkpt lat="46.51252" lon="0.34102">
        <ele>108</ele>
        <time>2021-01-24T09:48:01.000Z</time>
      </trkpt>
      <trkpt lat="46.51252" lon="0.34101">
        <ele>108</ele>
        <time>2021-01-24T09:48:02.000Z</time>
      </trkpt>
      <trkpt lat="46.51252" lon="0.34101">
        <ele>108</ele>
        <time>2021-01-24T09:48:03.000Z</time>
      </trkpt>
      <trkpt lat="46.51252" lon="0.34101">
        <ele>108</ele>
        <time>2021-01-24T09:48:04.000Z</time>
      </trkpt>
      <trkpt lat="46.51252" lon="0.34101">
        <ele>108.2</ele>
        <time>2021-01-24T09:48:05.000Z</time>
      </trkpt>
      <trkpt lat="46.51252" lon="0.34101">
        <ele>108.2</ele>
        <time>2021-01-24T09:48:06.000Z</time>
      </trkpt>
      <trkpt lat="46.51252" lon="0.34101">
        <ele>108.2</ele>
        <time>2021-01-24T09:48:07.000Z</time>
      </trkpt>
      <trkpt lat="46.51253" lon="0.34101">
        <ele>108.2</ele>
        <time>2021-01-24T09:48:08.000Z</time>
      </trkpt>
      <trkpt lat="46.51253" lon="0.34101">
        <ele>108.2</ele>
        <time>2021-01-24T09:48:09.000Z</time>
      </trkpt>
      <trkpt lat="46.51253" lon="0.34101">
        <ele>108.2</ele>
        <time>2021-01-24T09:48:10.000Z</time>
      </trkpt>
      <trkpt lat="46.51253" lon="0.34101">
        <ele>108.2</ele>
        <time>2021-01-24T09:48:11.000Z</time>
      </trkpt>
      <trkpt lat="46.51253" lon="0.34101">
        <ele>108.2</ele>
        <time>2021-01-24T09:48:12.000Z</time>
      </trkpt>
      <trkpt lat="46.51253" lon="0.34101">
        <ele>108.2</ele>
        <time>2021-01-24T09:48:13.000Z</time>
      </trkpt>
      <trkpt lat="46.51253" lon="0.34101">
        <ele>108.2</ele>
        <time>2021-01-24T09:48:14.000Z</time>
      </trkpt>
      <trkpt lat="46.51253" lon="0.34101">
        <ele>108.2</ele>
        <time>2021-01-24T09:48:15.000Z</time>
      </trkpt>
      <trkpt lat="46.51253" lon="0.34101">
        <ele>108.2</ele>
        <time>2021-01-24T09:48:16.000Z</time>
      </trkpt>
      <trkpt lat="46.51253" lon="0.34101">
        <ele>108.2</ele>
        <time>2021-01-24T09:48:17.000Z</time>
      </trkpt>
      <trkpt lat="46.51253" lon="0.34101">
        <ele>108.2</ele>
        <time>2021-01-24T09:48:18.000Z</time>
      </trkpt>
      <trkpt lat="46.51253" lon="0.34101">
        <ele>108.2</ele>
        <time>2021-01-24T09:48:19.000Z</time>
      </trkpt>
      <trkpt lat="46.51253" lon="0.34101">
        <ele>108.2</ele>
        <time>2021-01-24T09:48:20.000Z</time>
      </trkpt>
      <trkpt lat="46.51253" lon="0.34101">
        <ele>108.2</ele>
        <time>2021-01-24T09:48:21.000Z</time>
      </trkpt>
      <trkpt lat="46.51253" lon="0.34101">
        <ele>108.2</ele>
        <time>2021-01-24T09:48:22.000Z</time>
      </trkpt>
      <trkpt lat="46.51253" lon="0.34101">
        <ele>108.2</ele>
        <time>2021-01-24T09:48:23.000Z</time>
      </trkpt>
      <trkpt lat="46.51253" lon="0.34101">
        <ele>108.2</ele>
        <time>2021-01-24T09:48:24.000Z</time>
      </trkpt>
      <trkpt lat="46.51253" lon="0.34101">
        <ele>108.2</ele>
        <time>2021-01-24T09:48:25.000Z</time>
      </trkpt>
      <trkpt lat="46.51253" lon="0.34101">
        <ele>108.2</ele>
        <time>2021-01-24T09:48:26.000Z</time>
      </trkpt>
      <trkpt lat="46.51253" lon="0.34101">
        <ele>108.2</ele>
        <time>2021-01-24T09:48:27.000Z</time>
      </trkpt>
      <trkpt lat="46.51253" lon="0.34101">
        <ele>108.2</ele>
        <time>2021-01-24T09:48:28.000Z</time>
      </trkpt>
      <trkpt lat="46.51253" lon="0.34101">
        <ele>108.2</ele>
        <time>2021-01-24T09:48:29.000Z</time>
      </trkpt>
      <trkpt lat="46.51253" lon="0.34101">
        <ele>108.2</ele>
        <time>2021-01-24T09:48:30.000Z</time>
      </trkpt>
      <trkpt lat="46.51253" lon="0.34101">
        <ele>108.2</ele>
        <time>2021-01-24T09:48:31.000Z</time>
      </trkpt>
      <trkpt lat="46.51253" lon="0.34101">
        <ele>108.2</ele>
        <time>2021-01-24T09:48:32.000Z</time>
      </trkpt>
      <trkpt lat="46.51253" lon="0.34101">
        <ele>108.2</ele>
        <time>2021-01-24T09:48:33.000Z</time>
      </trkpt>
      <trkpt lat="46.51253" lon="0.34101">
        <ele>108.2</ele>
        <time>2021-01-24T09:48:34.000Z</time>
      </trkpt>
      <trkpt lat="46.51253" lon="0.34101">
        <ele>108.2</ele>
        <time>2021-01-24T09:48:35.000Z</time>
      </trkpt>
      <trkpt lat="46.51253" lon="0.341">
        <ele>108.2</ele>
        <time>2021-01-24T09:48:36.000Z</time>
      </trkpt>
      <trkpt lat="46.51253" lon="0.341">
        <ele>108.2</ele>
        <time>2021-01-24T09:48:37.000Z</time>
      </trkpt>
      <trkpt lat="46.51253" lon="0.341">
        <ele>108.2</ele>
        <time>2021-01-24T09:48:38.000Z</time>
      </trkpt>
      <trkpt lat="46.51253" lon="0.341">
        <ele>108.2</ele>
        <time>2021-01-24T09:48:39.000Z</time>
      </trkpt>
      <trkpt lat="46.51253" lon="0.341">
        <ele>108.2</ele>
        <time>2021-01-24T09:48:40.000Z</time>
      </trkpt>
      <trkpt lat="46.51253" lon="0.341">
        <ele>108.2</ele>
        <time>2021-01-24T09:48:41.000Z</time>
      </trkpt>
      <trkpt lat="46.51253" lon="0.341">
        <ele>108.2</ele>
        <time>2021-01-24T09:48:42.000Z</time>
      </trkpt>
      <trkpt lat="46.51253" lon="0.341">
        <ele>108.2</ele>
        <time>2021-01-24T09:48:43.000Z</time>
      </trkpt>
      <trkpt lat="46.51253" lon="0.341">
        <ele>108.2</ele>
        <time>2021-01-24T09:48:44.000Z</time>
      </trkpt>
      <trkpt lat="46.51253" lon="0.341">
        <ele>108.2</ele>
        <time>2021-01-24T09:48:45.000Z</time>
      </trkpt>
      <trkpt lat="46.51253" lon="0.341">
        <ele>108.2</ele>
        <time>2021-01-24T09:48:46.000Z</time>
      </trkpt>
      <trkpt lat="46.51253" lon="0.341">
        <ele>108.2</ele>
        <time>2021-01-24T09:48:47.000Z</time>
      </trkpt>
      <trkpt lat="46.51253" lon="0.341">
        <ele>108.2</ele>
        <time>2021-01-24T09:48:48.000Z</time>
      </trkpt>
      <trkpt lat="46.51253" lon="0.341">
        <ele>108.2</ele>
        <time>2021-01-24T09:48:49.000Z</time>
      </trkpt>
      <trkpt lat="46.51253" lon="0.341">
        <ele>108.2</ele>
        <time>2021-01-24T09:48:50.000Z</time>
      </trkpt>
      <trkpt lat="46.51253" lon="0.341">
        <ele>108.2</ele>
        <time>2021-01-24T09:48:51.000Z</time>
      </trkpt>
      <trkpt lat="46.51253" lon="0.341">
        <ele>108.2</ele>
        <time>2021-01-24T09:48:52.000Z</time>
      </trkpt>
      <trkpt lat="46.51253" lon="0.341">
        <ele>108.4</ele>
        <time>2021-01-24T09:48:53.000Z</time>
      </trkpt>
      <trkpt lat="46.51253" lon="0.341">
        <ele>108.4</ele>
        <time>2021-01-24T09:48:54.000Z</time>
      </trkpt>
      <trkpt lat="46.51253" lon="0.341">
        <ele>108.4</ele>
        <time>2021-01-24T09:48:55.000Z</time>
      </trkpt>
      <trkpt lat="46.51253" lon="0.341">
        <ele>108.4</ele>
        <time>2021-01-24T09:48:56.000Z</time>
      </trkpt>
      <trkpt lat="46.51253" lon="0.341">
        <ele>108.4</ele>
        <time>2021-01-24T09:48:57.000Z</time>
      </trkpt>
      <trkpt lat="46.51253" lon="0.341">
        <ele>108.4</ele>
        <time>2021-01-24T09:48:58.000Z</time>
      </trkpt>
      <trkpt lat="46.51253" lon="0.341">
        <ele>108.4</ele>
        <time>2021-01-24T09:48:59.000Z</time>
      </trkpt>
      <trkpt lat="46.51253" lon="0.341">
        <ele>108.4</ele>
        <time>2021-01-24T09:49:00.000Z</time>
      </trkpt>
      <trkpt lat="46.51253" lon="0.341">
        <ele>108.4</ele>
        <time>2021-01-24T09:49:01.000Z</time>
      </trkpt>
      <trkpt lat="46.51253" lon="0.341">
        <ele>108.4</ele>
        <time>2021-01-24T09:49:02.000Z</time>
      </trkpt>
      <trkpt lat="46.51253" lon="0.341">
        <ele>108.4</ele>
        <time>2021-01-24T09:49:03.000Z</time>
      </trkpt>
      <trkpt lat="46.51253" lon="0.341">
        <ele>108.4</ele>
        <time>2021-01-24T09:49:04.000Z</time>
      </trkpt>
      <trkpt lat="46.51253" lon="0.341">
        <ele>108.4</ele>
        <time>2021-01-24T09:49:05.000Z</time>
      </trkpt>
      <trkpt lat="46.51253" lon="0.341">
        <ele>108.4</ele>
        <time>2021-01-24T09:49:07.000Z</time>
      </trkpt>
      <trkpt lat="46.51253" lon="0.341">
        <ele>108.4</ele>
        <time>2021-01-24T09:49:08.000Z</time>
      </trkpt>
      <trkpt lat="46.51253" lon="0.341">
        <ele>108.4</ele>
        <time>2021-01-24T09:49:09.000Z</time>
      </trkpt>
      <trkpt lat="46.51253" lon="0.341">
        <ele>108.4</ele>
        <time>2021-01-24T09:49:10.000Z</time>
      </trkpt>
      <trkpt lat="46.51254" lon="0.34099">
        <ele>108.4</ele>
        <time>2021-01-24T09:49:11.000Z</time>
      </trkpt>
      <trkpt lat="46.51254" lon="0.34099">
        <ele>108.4</ele>
        <time>2021-01-24T09:49:12.000Z</time>
      </trkpt>
      <trkpt lat="46.51254" lon="0.34099">
        <ele>108.4</ele>
        <time>2021-01-24T09:49:13.000Z</time>
      </trkpt>
      <trkpt lat="46.51254" lon="0.34099">
        <ele>108.4</ele>
        <time>2021-01-24T09:49:14.000Z</time>
      </trkpt>
      <trkpt lat="46.51254" lon="0.34099">
        <ele>108.4</ele>
        <time>2021-01-24T09:49:15.000Z</time>
      </trkpt>
      <trkpt lat="46.51254" lon="0.34099">
        <ele>108.4</ele>
        <time>2021-01-24T09:49:16.000Z</time>
      </trkpt>
      <trkpt lat="46.51254" lon="0.34099">
        <ele>108.4</ele>
        <time>2021-01-24T09:49:17.000Z</time>
      </trkpt>
      <trkpt lat="46.51254" lon="0.34099">
        <ele>108.4</ele>
        <time>2021-01-24T09:49:18.000Z</time>
      </trkpt>
      <trkpt lat="46.51254" lon="0.34099">
        <ele>108.4</ele>
        <time>2021-01-24T09:49:19.000Z</time>
      </trkpt>
      <trkpt lat="46.51254" lon="0.34099">
        <ele>108.4</ele>
        <time>2021-01-24T09:49:20.000Z</time>
      </trkpt>
      <trkpt lat="46.51254" lon="0.34099">
        <ele>108.4</ele>
        <time>2021-01-24T09:49:21.000Z</time>
      </trkpt>
      <trkpt lat="46.51254" lon="0.34099">
        <ele>108.4</ele>
        <time>2021-01-24T09:49:22.000Z</time>
      </trkpt>
      <trkpt lat="46.51254" lon="0.34099">
        <ele>108.4</ele>
        <time>2021-01-24T09:49:23.000Z</time>
      </trkpt>
      <trkpt lat="46.51254" lon="0.34099">
        <ele>108.4</ele>
        <time>2021-01-24T09:49:24.000Z</time>
      </trkpt>
      <trkpt lat="46.51254" lon="0.34099">
        <ele>108.4</ele>
        <time>2021-01-24T09:49:25.000Z</time>
      </trkpt>
      <trkpt lat="46.51254" lon="0.34099">
        <ele>108.4</ele>
        <time>2021-01-24T09:49:26.000Z</time>
      </trkpt>
      <trkpt lat="46.51254" lon="0.34099">
        <ele>108.4</ele>
        <time>2021-01-24T09:49:27.000Z</time>
      </trkpt>
      <trkpt lat="46.51254" lon="0.34099">
        <ele>108.4</ele>
        <time>2021-01-24T09:49:28.000Z</time>
      </trkpt>
      <trkpt lat="46.51254" lon="0.34099">
        <ele>108.4</ele>
        <time>2021-01-24T09:49:29.000Z</time>
      </trkpt>
      <trkpt lat="46.51254" lon="0.34099">
        <ele>108.4</ele>
        <time>2021-01-24T09:49:30.000Z</time>
      </trkpt>
      <trkpt lat="46.51254" lon="0.34099">
        <ele>108.4</ele>
        <time>2021-01-24T09:49:31.000Z</time>
      </trkpt>
      <trkpt lat="46.51254" lon="0.34099">
        <ele>108.4</ele>
        <time>2021-01-24T09:49:32.000Z</time>
      </trkpt>
      <trkpt lat="46.51254" lon="0.34099">
        <ele>108.4</ele>
        <time>2021-01-24T09:49:33.000Z</time>
      </trkpt>
      <trkpt lat="46.51254" lon="0.34099">
        <ele>108.4</ele>
        <time>2021-01-24T09:49:34.000Z</time>
      </trkpt>
      <trkpt lat="46.51254" lon="0.34099">
        <ele>108.4</ele>
        <time>2021-01-24T09:49:35.000Z</time>
      </trkpt>
      <trkpt lat="46.51254" lon="0.34099">
        <ele>108.4</ele>
        <time>2021-01-24T09:49:36.000Z</time>
      </trkpt>
      <trkpt lat="46.51254" lon="0.34099">
        <ele>108.6</ele>
        <time>2021-01-24T09:49:37.000Z</time>
      </trkpt>
      <trkpt lat="46.51254" lon="0.34099">
        <ele>108.6</ele>
        <time>2021-01-24T09:49:38.000Z</time>
      </trkpt>
      <trkpt lat="46.51254" lon="0.34099">
        <ele>108.6</ele>
        <time>2021-01-24T09:49:39.000Z</time>
      </trkpt>
      <trkpt lat="46.51254" lon="0.34099">
        <ele>108.6</ele>
        <time>2021-01-24T09:49:40.000Z</time>
      </trkpt>
      <trkpt lat="46.51254" lon="0.34099">
        <ele>108.6</ele>
        <time>2021-01-24T09:49:41.000Z</time>
      </trkpt>
      <trkpt lat="46.51254" lon="0.34099">
        <ele>108.6</ele>
        <time>2021-01-24T09:49:42.000Z</time>
      </trkpt>
      <trkpt lat="46.51254" lon="0.34099">
        <ele>108.6</ele>
        <time>2021-01-24T09:49:43.000Z</time>
      </trkpt>
      <trkpt lat="46.51254" lon="0.34099">
        <ele>108.6</ele>
        <time>2021-01-24T09:49:44.000Z</time>
      </trkpt>
      <trkpt lat="46.51254" lon="0.34098">
        <ele>108.6</ele>
        <time>2021-01-24T09:49:45.000Z</time>
      </trkpt>
      <trkpt lat="46.51254" lon="0.34098">
        <ele>108.6</ele>
        <time>2021-01-24T09:49:46.000Z</time>
      </trkpt>
      <trkpt lat="46.51254" lon="0.34098">
        <ele>108.6</ele>
        <time>2021-01-24T09:49:47.000Z</time>
      </trkpt>
      <trkpt lat="46.51254" lon="0.34098">
        <ele>108.6</ele>
        <time>2021-01-24T09:49:48.000Z</time>
      </trkpt>
      <trkpt lat="46.51254" lon="0.34098">
        <ele>108.6</ele>
        <time>2021-01-24T09:49:49.000Z</time>
      </trkpt>
      <trkpt lat="46.51254" lon="0.34098">
        <ele>108.6</ele>
        <time>2021-01-24T09:49:50.000Z</time>
      </trkpt>
      <trkpt lat="46.51254" lon="0.34098">
        <ele>108.6</ele>
        <time>2021-01-24T09:49:51.000Z</time>
      </trkpt>
      <trkpt lat="46.51254" lon="0.34098">
        <ele>108.6</ele>
        <time>2021-01-24T09:49:52.000Z</time>
      </trkpt>
      <trkpt lat="46.51254" lon="0.34098">
        <ele>108.6</ele>
        <time>2021-01-24T09:49:53.000Z</time>
      </trkpt>
      <trkpt lat="46.51254" lon="0.34098">
        <ele>108.6</ele>
        <time>2021-01-24T09:49:54.000Z</time>
      </trkpt>
      <trkpt lat="46.51254" lon="0.34098">
        <ele>108.6</ele>
        <time>2021-01-24T09:49:55.000Z</time>
      </trkpt>
      <trkpt lat="46.51254" lon="0.34098">
        <ele>108.6</ele>
        <time>2021-01-24T09:49:56.000Z</time>
      </trkpt>
      <trkpt lat="46.51254" lon="0.34098">
        <ele>108.6</ele>
        <time>2021-01-24T09:49:57.000Z</time>
      </trkpt>
      <trkpt lat="46.51254" lon="0.34098">
        <ele>108.6</ele>
        <time>2021-01-24T09:49:58.000Z</time>
      </trkpt>
      <trkpt lat="46.51254" lon="0.34098">
        <ele>108.6</ele>
        <time>2021-01-24T09:49:59.000Z</time>
      </trkpt>
      <trkpt lat="46.51254" lon="0.34098">
        <ele>108.6</ele>
        <time>2021-01-24T09:50:00.000Z</time>
      </trkpt>
      <trkpt lat="46.51254" lon="0.34098">
        <ele>108.6</ele>
        <time>2021-01-24T09:50:01.000Z</time>
      </trkpt>
      <trkpt lat="46.51254" lon="0.34098">
        <ele>108.6</ele>
        <time>2021-01-24T09:50:02.000Z</time>
      </trkpt>
      <trkpt lat="46.51254" lon="0.34098">
        <ele>108.6</ele>
        <time>2021-01-24T09:50:03.000Z</time>
      </trkpt>
      <trkpt lat="46.51254" lon="0.34098">
        <ele>108.6</ele>
        <time>2021-01-24T09:50:04.000Z</time>
      </trkpt>
      <trkpt lat="46.51254" lon="0.34098">
        <ele>108.6</ele>
        <time>2021-01-24T09:50:05.000Z</time>
      </trkpt>
      <trkpt lat="46.51254" lon="0.34098">
        <ele>108.6</ele>
        <time>2021-01-24T09:50:06.000Z</time>
      </trkpt>
      <trkpt lat="46.51254" lon="0.34098">
        <ele>108.6</ele>
        <time>2021-01-24T09:50:07.000Z</time>
      </trkpt>
      <trkpt lat="46.51254" lon="0.34098">
        <ele>108.6</ele>
        <time>2021-01-24T09:50:08.000Z</time>
      </trkpt>
      <trkpt lat="46.51254" lon="0.34098">
        <ele>108.6</ele>
        <time>2021-01-24T09:50:09.000Z</time>
      </trkpt>
      <trkpt lat="46.51254" lon="0.34098">
        <ele>108.6</ele>
        <time>2021-01-24T09:50:10.000Z</time>
      </trkpt>
      <trkpt lat="46.51254" lon="0.34098">
        <ele>108.6</ele>
        <time>2021-01-24T09:50:11.000Z</time>
      </trkpt>
      <trkpt lat="46.51255" lon="0.34098">
        <ele>108.6</ele>
        <time>2021-01-24T09:50:12.000Z</time>
      </trkpt>
      <trkpt lat="46.51255" lon="0.34098">
        <ele>108.6</ele>
        <time>2021-01-24T09:50:13.000Z</time>
      </trkpt>
      <trkpt lat="46.51255" lon="0.34098">
        <ele>108.6</ele>
        <time>2021-01-24T09:50:14.000Z</time>
      </trkpt>
      <trkpt lat="46.51255" lon="0.34098">
        <ele>108.6</ele>
        <time>2021-01-24T09:50:15.000Z</time>
      </trkpt>
      <trkpt lat="46.51255" lon="0.34098">
        <ele>108.6</ele>
        <time>2021-01-24T09:50:16.000Z</time>
      </trkpt>
      <trkpt lat="46.51255" lon="0.34098">
        <ele>108.6</ele>
        <time>2021-01-24T09:50:17.000Z</time>
      </trkpt>
      <trkpt lat="46.51255" lon="0.34098">
        <ele>108.6</ele>
        <time>2021-01-24T09:50:18.000Z</time>
      </trkpt>
      <trkpt lat="46.51255" lon="0.34098">
        <ele>108.6</ele>
        <time>2021-01-24T09:50:19.000Z</time>
      </trkpt>
      <trkpt lat="46.51255" lon="0.34097">
        <ele>108.6</ele>
        <time>2021-01-24T09:50:20.000Z</time>
      </trkpt>
      <trkpt lat="46.51255" lon="0.34097">
        <ele>108.6</ele>
        <time>2021-01-24T09:50:21.000Z</time>
      </trkpt>
      <trkpt lat="46.51255" lon="0.34097">
        <ele>108.6</ele>
        <time>2021-01-24T09:50:22.000Z</time>
      </trkpt>
      <trkpt lat="46.51255" lon="0.34097">
        <ele>108.6</ele>
        <time>2021-01-24T09:50:23.000Z</time>
      </trkpt>
      <trkpt lat="46.51255" lon="0.34097">
        <ele>108.6</ele>
        <time>2021-01-24T09:50:24.000Z</time>
      </trkpt>
      <trkpt lat="46.51255" lon="0.34097">
        <ele>108.6</ele>
        <time>2021-01-24T09:50:25.000Z</time>
      </trkpt>
      <trkpt lat="46.51255" lon="0.34097">
        <ele>108.6</ele>
        <time>2021-01-24T09:50:26.000Z</time>
      </trkpt>
      <trkpt lat="46.51255" lon="0.34097">
        <ele>108.6</ele>
        <time>2021-01-24T09:50:27.000Z</time>
      </trkpt>
      <trkpt lat="46.51255" lon="0.34097">
        <ele>108.6</ele>
        <time>2021-01-24T09:50:28.000Z</time>
      </trkpt>
      <trkpt lat="46.51255" lon="0.34097">
        <ele>108.6</ele>
        <time>2021-01-24T09:50:29.000Z</time>
      </trkpt>
      <trkpt lat="46.51255" lon="0.34097">
        <ele>108.6</ele>
        <time>2021-01-24T09:50:30.000Z</time>
      </trkpt>
      <trkpt lat="46.51255" lon="0.34097">
        <ele>108.6</ele>
        <time>2021-01-24T09:50:31.000Z</time>
      </trkpt>
      <trkpt lat="46.51255" lon="0.34097">
        <ele>108.6</ele>
        <time>2021-01-24T09:50:32.000Z</time>
      </trkpt>
      <trkpt lat="46.51255" lon="0.34097">
        <ele>108.6</ele>
        <time>2021-01-24T09:50:33.000Z</time>
      </trkpt>
      <trkpt lat="46.51255" lon="0.34097">
        <ele>108.6</ele>
        <time>2021-01-24T09:50:34.000Z</time>
      </trkpt>
      <trkpt lat="46.51255" lon="0.34097">
        <ele>108.6</ele>
        <time>2021-01-24T09:50:35.000Z</time>
      </trkpt>
      <trkpt lat="46.51255" lon="0.34097">
        <ele>108.6</ele>
        <time>2021-01-24T09:50:36.000Z</time>
      </trkpt>
      <trkpt lat="46.51255" lon="0.34097">
        <ele>108.6</ele>
        <time>2021-01-24T09:50:37.000Z</time>
      </trkpt>
      <trkpt lat="46.51255" lon="0.34097">
        <ele>108.6</ele>
        <time>2021-01-24T09:50:38.000Z</time>
      </trkpt>
      <trkpt lat="46.51255" lon="0.34097">
        <ele>108.6</ele>
        <time>2021-01-24T09:50:39.000Z</time>
      </trkpt>
      <trkpt lat="46.51255" lon="0.34097">
        <ele>108.6</ele>
        <time>2021-01-24T09:50:40.000Z</time>
      </trkpt>
      <trkpt lat="46.51255" lon="0.34097">
        <ele>108.6</ele>
        <time>2021-01-24T09:50:41.000Z</time>
      </trkpt>
      <trkpt lat="46.51255" lon="0.34097">
        <ele>108.6</ele>
        <time>2021-01-24T09:50:42.000Z</time>
      </trkpt>
      <trkpt lat="46.51255" lon="0.34097">
        <ele>108.6</ele>
        <time>2021-01-24T09:50:43.000Z</time>
      </trkpt>
      <trkpt lat="46.51255" lon="0.34097">
        <ele>108.6</ele>
        <time>2021-01-24T09:50:44.000Z</time>
      </trkpt>
      <trkpt lat="46.51255" lon="0.34097">
        <ele>108.6</ele>
        <time>2021-01-24T09:50:45.000Z</time>
      </trkpt>
      <trkpt lat="46.51255" lon="0.34097">
        <ele>108.6</ele>
        <time>2021-01-24T09:50:46.000Z</time>
      </trkpt>
      <trkpt lat="46.51255" lon="0.34097">
        <ele>108.6</ele>
        <time>2021-01-24T09:50:47.000Z</time>
      </trkpt>
      <trkpt lat="46.51255" lon="0.34097">
        <ele>108.6</ele>
        <time>2021-01-24T09:50:48.000Z</time>
      </trkpt>
      <trkpt lat="46.51255" lon="0.34097">
        <ele>108.6</ele>
        <time>2021-01-24T09:50:49.000Z</time>
      </trkpt>
      <trkpt lat="46.51255" lon="0.34097">
        <ele>108.6</ele>
        <time>2021-01-24T09:50:50.000Z</time>
      </trkpt>
      <trkpt lat="46.51255" lon="0.34097">
        <ele>108.6</ele>
        <time>2021-01-24T09:50:51.000Z</time>
      </trkpt>
      <trkpt lat="46.51255" lon="0.34097">
        <ele>108.6</ele>
        <time>2021-01-24T09:50:52.000Z</time>
      </trkpt>
      <trkpt lat="46.51255" lon="0.34097">
        <ele>108.6</ele>
        <time>2021-01-24T09:50:53.000Z</time>
      </trkpt>
      <trkpt lat="46.51255" lon="0.34096">
        <ele>108.6</ele>
        <time>2021-01-24T09:50:54.000Z</time>
      </trkpt>
      <trkpt lat="46.51255" lon="0.34096">
        <ele>108.6</ele>
        <time>2021-01-24T09:50:55.000Z</time>
      </trkpt>
      <trkpt lat="46.51255" lon="0.34096">
        <ele>108.6</ele>
        <time>2021-01-24T09:50:56.000Z</time>
      </trkpt>
      <trkpt lat="46.51255" lon="0.34096">
        <ele>108.6</ele>
        <time>2021-01-24T09:50:57.000Z</time>
      </trkpt>
      <trkpt lat="46.51255" lon="0.34096">
        <ele>108.6</ele>
        <time>2021-01-24T09:50:58.000Z</time>
      </trkpt>
      <trkpt lat="46.51255" lon="0.34096">
        <ele>108.6</ele>
        <time>2021-01-24T09:50:59.000Z</time>
      </trkpt>
      <trkpt lat="46.51255" lon="0.34096">
        <ele>108.6</ele>
        <time>2021-01-24T09:51:00.000Z</time>
      </trkpt>
      <trkpt lat="46.51255" lon="0.34096">
        <ele>108.4</ele>
        <time>2021-01-24T09:51:01.000Z</time>
      </trkpt>
      <trkpt lat="46.51255" lon="0.34096">
        <ele>108.4</ele>
        <time>2021-01-24T09:51:02.000Z</time>
      </trkpt>
      <trkpt lat="46.51255" lon="0.34096">
        <ele>108.4</ele>
        <time>2021-01-24T09:51:03.000Z</time>
      </trkpt>
      <trkpt lat="46.51255" lon="0.34096">
        <ele>108.4</ele>
        <time>2021-01-24T09:51:04.000Z</time>
      </trkpt>
      <trkpt lat="46.51255" lon="0.34096">
        <ele>108.4</ele>
        <time>2021-01-24T09:51:05.000Z</time>
      </trkpt>
      <trkpt lat="46.51255" lon="0.34096">
        <ele>108.4</ele>
        <time>2021-01-24T09:51:06.000Z</time>
      </trkpt>
      <trkpt lat="46.51255" lon="0.34096">
        <ele>108.4</ele>
        <time>2021-01-24T09:51:07.000Z</time>
      </trkpt>
      <trkpt lat="46.51255" lon="0.34096">
        <ele>108.4</ele>
        <time>2021-01-24T09:51:08.000Z</time>
      </trkpt>
      <trkpt lat="46.51255" lon="0.34096">
        <ele>108.4</ele>
        <time>2021-01-24T09:51:09.000Z</time>
      </trkpt>
      <trkpt lat="46.51255" lon="0.34096">
        <ele>108.4</ele>
        <time>2021-01-24T09:51:10.000Z</time>
      </trkpt>
      <trkpt lat="46.51255" lon="0.34096">
        <ele>108.4</ele>
        <time>2021-01-24T09:51:11.000Z</time>
      </trkpt>
      <trkpt lat="46.51255" lon="0.34096">
        <ele>108.4</ele>
        <time>2021-01-24T09:51:12.000Z</time>
      </trkpt>
      <trkpt lat="46.51255" lon="0.34096">
        <ele>108.4</ele>
        <time>2021-01-24T09:51:13.000Z</time>
      </trkpt>
      <trkpt lat="46.51256" lon="0.34096">
        <ele>108.4</ele>
        <time>2021-01-24T09:51:14.000Z</time>
      </trkpt>
      <trkpt lat="46.51256" lon="0.34096">
        <ele>108.4</ele>
        <time>2021-01-24T09:51:15.000Z</time>
      </trkpt>
      <trkpt lat="46.51256" lon="0.34096">
        <ele>108.4</ele>
        <time>2021-01-24T09:51:16.000Z</time>
      </trkpt>
      <trkpt lat="46.51256" lon="0.34096">
        <ele>108.4</ele>
        <time>2021-01-24T09:51:17.000Z</time>
      </trkpt>
      <trkpt lat="46.51256" lon="0.34096">
        <ele>108.4</ele>
        <time>2021-01-24T09:51:18.000Z</time>
      </trkpt>
      <trkpt lat="46.51256" lon="0.34096">
        <ele>108.4</ele>
        <time>2021-01-24T09:51:19.000Z</time>
      </trkpt>
      <trkpt lat="46.51256" lon="0.34096">
        <ele>108.4</ele>
        <time>2021-01-24T09:51:20.000Z</time>
      </trkpt>
      <trkpt lat="46.51256" lon="0.34096">
        <ele>108.4</ele>
        <time>2021-01-24T09:51:21.000Z</time>
      </trkpt>
      <trkpt lat="46.51256" lon="0.34096">
        <ele>108.4</ele>
        <time>2021-01-24T09:51:22.000Z</time>
      </trkpt>
      <trkpt lat="46.51256" lon="0.34096">
        <ele>108.4</ele>
        <time>2021-01-24T09:51:23.000Z</time>
      </trkpt>
      <trkpt lat="46.51256" lon="0.34096">
        <ele>108.4</ele>
        <time>2021-01-24T09:51:24.000Z</time>
      </trkpt>
      <trkpt lat="46.51256" lon="0.34096">
        <ele>108.4</ele>
        <time>2021-01-24T09:51:25.000Z</time>
      </trkpt>
      <trkpt lat="46.51256" lon="0.34096">
        <ele>108.4</ele>
        <time>2021-01-24T09:51:26.000Z</time>
      </trkpt>
      <trkpt lat="46.51256" lon="0.34096">
        <ele>108.4</ele>
        <time>2021-01-24T09:51:27.000Z</time>
      </trkpt>
      <trkpt lat="46.51256" lon="0.34095">
        <ele>108.4</ele>
        <time>2021-01-24T09:51:28.000Z</time>
      </trkpt>
      <trkpt lat="46.51256" lon="0.34095">
        <ele>108.4</ele>
        <time>2021-01-24T09:51:29.000Z</time>
      </trkpt>
      <trkpt lat="46.51256" lon="0.34095">
        <ele>108.4</ele>
        <time>2021-01-24T09:51:30.000Z</time>
      </trkpt>
      <trkpt lat="46.51256" lon="0.34095">
        <ele>108.4</ele>
        <time>2021-01-24T09:51:31.000Z</time>
      </trkpt>
      <trkpt lat="46.51256" lon="0.34095">
        <ele>108.4</ele>
        <time>2021-01-24T09:51:32.000Z</time>
      </trkpt>
      <trkpt lat="46.51256" lon="0.34095">
        <ele>108.4</ele>
        <time>2021-01-24T09:51:33.000Z</time>
      </trkpt>
      <trkpt lat="46.51256" lon="0.34095">
        <ele>108.4</ele>
        <time>2021-01-24T09:51:34.000Z</time>
      </trkpt>
      <trkpt lat="46.51256" lon="0.34095">
        <ele>108.4</ele>
        <time>2021-01-24T09:51:35.000Z</time>
      </trkpt>
      <trkpt lat="46.51256" lon="0.34095">
        <ele>108.4</ele>
        <time>2021-01-24T09:51:36.000Z</time>
      </trkpt>
      <trkpt lat="46.51256" lon="0.34095">
        <ele>108.4</ele>
        <time>2021-01-24T09:51:37.000Z</time>
      </trkpt>
      <trkpt lat="46.51256" lon="0.34095">
        <ele>108.4</ele>
        <time>2021-01-24T09:51:38.000Z</time>
      </trkpt>
      <trkpt lat="46.51256" lon="0.34095">
        <ele>108.4</ele>
        <time>2021-01-24T09:51:39.000Z</time>
      </trkpt>
      <trkpt lat="46.51256" lon="0.34095">
        <ele>108.4</ele>
        <time>2021-01-24T09:51:40.000Z</time>
      </trkpt>
      <trkpt lat="46.51256" lon="0.34095">
        <ele>108.4</ele>
        <time>2021-01-24T09:51:41.000Z</time>
      </trkpt>
      <trkpt lat="46.51256" lon="0.34095">
        <ele>108.4</ele>
        <time>2021-01-24T09:51:42.000Z</time>
      </trkpt>
      <trkpt lat="46.51256" lon="0.34095">
        <ele>108.4</ele>
        <time>2021-01-24T09:51:43.000Z</time>
      </trkpt>
      <trkpt lat="46.51256" lon="0.34095">
        <ele>108.4</ele>
        <time>2021-01-24T09:51:44.000Z</time>
      </trkpt>
      <trkpt lat="46.51256" lon="0.34095">
        <ele>108.2</ele>
        <time>2021-01-24T09:51:45.000Z</time>
      </trkpt>
      <trkpt lat="46.51256" lon="0.34095">
        <ele>108.2</ele>
        <time>2021-01-24T09:51:46.000Z</time>
      </trkpt>
      <trkpt lat="46.51256" lon="0.34095">
        <ele>108.2</ele>
        <time>2021-01-24T09:51:47.000Z</time>
      </trkpt>
      <trkpt lat="46.51256" lon="0.34095">
        <ele>108.2</ele>
        <time>2021-01-24T09:51:48.000Z</time>
      </trkpt>
      <trkpt lat="46.51256" lon="0.34095">
        <ele>108.2</ele>
        <time>2021-01-24T09:51:49.000Z</time>
      </trkpt>
      <trkpt lat="46.51256" lon="0.34095">
        <ele>108.2</ele>
        <time>2021-01-24T09:51:50.000Z</time>
      </trkpt>
      <trkpt lat="46.51256" lon="0.34095">
        <ele>108.2</ele>
        <time>2021-01-24T09:51:51.000Z</time>
      </trkpt>
      <trkpt lat="46.51256" lon="0.34095">
        <ele>108.2</ele>
        <time>2021-01-24T09:51:52.000Z</time>
      </trkpt>
      <trkpt lat="46.51256" lon="0.34095">
        <ele>108.2</ele>
        <time>2021-01-24T09:51:53.000Z</time>
      </trkpt>
      <trkpt lat="46.51256" lon="0.34095">
        <ele>108.2</ele>
        <time>2021-01-24T09:51:54.000Z</time>
      </trkpt>
      <trkpt lat="46.51256" lon="0.34095">
        <ele>108.2</ele>
        <time>2021-01-24T09:51:55.000Z</time>
      </trkpt>
      <trkpt lat="46.51256" lon="0.34095">
        <ele>108.2</ele>
        <time>2021-01-24T09:51:56.000Z</time>
      </trkpt>
      <trkpt lat="46.51256" lon="0.34095">
        <ele>108.2</ele>
        <time>2021-01-24T09:51:57.000Z</time>
      </trkpt>
      <trkpt lat="46.51256" lon="0.34095">
        <ele>108.2</ele>
        <time>2021-01-24T09:51:58.000Z</time>
      </trkpt>
      <trkpt lat="46.51256" lon="0.34095">
        <ele>108.2</ele>
        <time>2021-01-24T09:51:59.000Z</time>
      </trkpt>
      <trkpt lat="46.51256" lon="0.34095">
        <ele>108.2</ele>
        <time>2021-01-24T09:52:00.000Z</time>
      </trkpt>
      <trkpt lat="46.51256" lon="0.34095">
        <ele>108.2</ele>
        <time>2021-01-24T09:52:01.000Z</time>
      </trkpt>
      <trkpt lat="46.51256" lon="0.34094">
        <ele>108.2</ele>
        <time>2021-01-24T09:52:02.000Z</time>
      </trkpt>
      <trkpt lat="46.51256" lon="0.34094">
        <ele>108.2</ele>
        <time>2021-01-24T09:52:03.000Z</time>
      </trkpt>
      <trkpt lat="46.51256" lon="0.34094">
        <ele>108.2</ele>
        <time>2021-01-24T09:52:04.000Z</time>
      </trkpt>
      <trkpt lat="46.51256" lon="0.34094">
        <ele>108.2</ele>
        <time>2021-01-24T09:52:05.000Z</time>
      </trkpt>
      <trkpt lat="46.51256" lon="0.34094">
        <ele>108.2</ele>
        <time>2021-01-24T09:52:06.000Z</time>
      </trkpt>
      <trkpt lat="46.51256" lon="0.34094">
        <ele>108.2</ele>
        <time>2021-01-24T09:52:07.000Z</time>
      </trkpt>
      <trkpt lat="46.51256" lon="0.34094">
        <ele>108.2</ele>
        <time>2021-01-24T09:52:08.000Z</time>
      </trkpt>
      <trkpt lat="46.51256" lon="0.34094">
        <ele>108.2</ele>
        <time>2021-01-24T09:52:09.000Z</time>
      </trkpt>
      <trkpt lat="46.51256" lon="0.34094">
        <ele>108.2</ele>
        <time>2021-01-24T09:52:10.000Z</time>
      </trkpt>
      <trkpt lat="46.51256" lon="0.34094">
        <ele>108.2</ele>
        <time>2021-01-24T09:52:11.000Z</time>
      </trkpt>
      <trkpt lat="46.51256" lon="0.34094">
        <ele>108.2</ele>
        <time>2021-01-24T09:52:12.000Z</time>
      </trkpt>
      <trkpt lat="46.51256" lon="0.34094">
        <ele>108.2</ele>
        <time>2021-01-24T09:52:13.000Z</time>
      </trkpt>
      <trkpt lat="46.51256" lon="0.34094">
        <ele>108.2</ele>
        <time>2021-01-24T09:52:14.000Z</time>
      </trkpt>
      <trkpt lat="46.51257" lon="0.34094">
        <ele>108.2</ele>
        <time>2021-01-24T09:52:15.000Z</time>
      </trkpt>
      <trkpt lat="46.51257" lon="0.34094">
        <ele>108.2</ele>
        <time>2021-01-24T09:52:16.000Z</time>
      </trkpt>
      <trkpt lat="46.51257" lon="0.34094">
        <ele>108.2</ele>
        <time>2021-01-24T09:52:17.000Z</time>
      </trkpt>
      <trkpt lat="46.51257" lon="0.34094">
        <ele>108.2</ele>
        <time>2021-01-24T09:52:18.000Z</time>
      </trkpt>
      <trkpt lat="46.51257" lon="0.34094">
        <ele>108.2</ele>
        <time>2021-01-24T09:52:19.000Z</time>
      </trkpt>
      <trkpt lat="46.51257" lon="0.34094">
        <ele>108.2</ele>
        <time>2021-01-24T09:52:20.000Z</time>
      </trkpt>
      <trkpt lat="46.51257" lon="0.34094">
        <ele>108.2</ele>
        <time>2021-01-24T09:52:21.000Z</time>
      </trkpt>
      <trkpt lat="46.51257" lon="0.34094">
        <ele>108.2</ele>
        <time>2021-01-24T09:52:22.000Z</time>
      </trkpt>
      <trkpt lat="46.51257" lon="0.34094">
        <ele>108.2</ele>
        <time>2021-01-24T09:52:23.000Z</time>
      </trkpt>
      <trkpt lat="46.51257" lon="0.34094">
        <ele>108.2</ele>
        <time>2021-01-24T09:52:24.000Z</time>
      </trkpt>
      <trkpt lat="46.51257" lon="0.34091">
        <ele>108.2</ele>
        <time>2021-01-24T09:52:25.000Z</time>
      </trkpt>
      <trkpt lat="46.51257" lon="0.34091">
        <ele>108.2</ele>
        <time>2021-01-24T09:52:26.000Z</time>
      </trkpt>
      <trkpt lat="46.51257" lon="0.34091">
        <ele>108.2</ele>
        <time>2021-01-24T09:52:27.000Z</time>
      </trkpt>
      <trkpt lat="46.51256" lon="0.34088">
        <ele>108.2</ele>
        <time>2021-01-24T09:52:28.000Z</time>
      </trkpt>
      <trkpt lat="46.51256" lon="0.34088">
        <ele>108.2</ele>
        <time>2021-01-24T09:52:29.000Z</time>
      </trkpt>
      <trkpt lat="46.51256" lon="0.34085">
        <ele>108.2</ele>
        <time>2021-01-24T09:52:30.000Z</time>
      </trkpt>
      <trkpt lat="46.51256" lon="0.34085">
        <ele>108</ele>
        <time>2021-01-24T09:52:31.000Z</time>
      </trkpt>
      <trkpt lat="46.51256" lon="0.34085">
        <ele>108</ele>
        <time>2021-01-24T09:52:32.000Z</time>
      </trkpt>
      <trkpt lat="46.51256" lon="0.34082">
        <ele>108</ele>
        <time>2021-01-24T09:52:33.000Z</time>
      </trkpt>
      <trkpt lat="46.51256" lon="0.34082">
        <ele>108</ele>
        <time>2021-01-24T09:52:34.000Z</time>
      </trkpt>
      <trkpt lat="46.51256" lon="0.34082">
        <ele>108</ele>
        <time>2021-01-24T09:52:35.000Z</time>
      </trkpt>
      <trkpt lat="46.51256" lon="0.34082">
        <ele>107.8</ele>
        <time>2021-01-24T09:52:36.000Z</time>
      </trkpt>
      <trkpt lat="46.51256" lon="0.34082">
        <ele>107.6</ele>
        <time>2021-01-24T09:52:37.000Z</time>
      </trkpt>
      <trkpt lat="46.51256" lon="0.34082">
        <ele>107.4</ele>
        <time>2021-01-24T09:52:38.000Z</time>
      </trkpt>
      <trkpt lat="46.51256" lon="0.34082">
        <ele>107.2</ele>
        <time>2021-01-24T09:52:39.000Z</time>
      </trkpt>
      <trkpt lat="46.51256" lon="0.34082">
        <ele>106.8</ele>
        <time>2021-01-24T09:52:40.000Z</time>
      </trkpt>
      <trkpt lat="46.51256" lon="0.34082">
        <ele>106.6</ele>
        <time>2021-01-24T09:52:41.000Z</time>
      </trkpt>
      <trkpt lat="46.51256" lon="0.34082">
        <ele>106.4</ele>
        <time>2021-01-24T09:52:42.000Z</time>
      </trkpt>
      <trkpt lat="46.51256" lon="0.34082">
        <ele>106</ele>
        <time>2021-01-24T09:52:43.000Z</time>
      </trkpt>
      <trkpt lat="46.51256" lon="0.34082">
        <ele>105.8</ele>
        <time>2021-01-24T09:52:44.000Z</time>
      </trkpt>
      <trkpt lat="46.51256" lon="0.34082">
        <ele>105.4</ele>
        <time>2021-01-24T09:52:45.000Z</time>
      </trkpt>
      <trkpt lat="46.51256" lon="0.34082">
        <ele>105.2</ele>
        <time>2021-01-24T09:52:46.000Z</time>
      </trkpt>
      <trkpt lat="46.51256" lon="0.34082">
        <ele>104.8</ele>
        <time>2021-01-24T09:52:47.000Z</time>
      </trkpt>
      <trkpt lat="46.51256" lon="0.34082">
        <ele>104.6</ele>
        <time>2021-01-24T09:52:48.000Z</time>
      </trkpt>
      <trkpt lat="46.51256" lon="0.34082">
        <ele>104.4</ele>
        <time>2021-01-24T09:52:49.000Z</time>
      </trkpt>
      <trkpt lat="46.51256" lon="0.34082">
        <ele>104.2</ele>
        <time>2021-01-24T09:52:50.000Z</time>
      </trkpt>
      <trkpt lat="46.51256" lon="0.34082">
        <ele>104</ele>
        <time>2021-01-24T09:52:51.000Z</time>
      </trkpt>
      <trkpt lat="46.51256" lon="0.34082">
        <ele>104</ele>
        <time>2021-01-24T09:52:52.000Z</time>
      </trkpt>
      <trkpt lat="46.51256" lon="0.34082">
        <ele>103.8</ele>
        <time>2021-01-24T09:52:53.000Z</time>
      </trkpt>
      <trkpt lat="46.51256" lon="0.34082">
        <ele>103.6</ele>
        <time>2021-01-24T09:52:54.000Z</time>
      </trkpt>
      <trkpt lat="46.51256" lon="0.34082">
        <ele>103.6</ele>
        <time>2021-01-24T09:52:55.000Z</time>
      </trkpt>
      <trkpt lat="46.51256" lon="0.34082">
        <ele>103.4</ele>
        <time>2021-01-24T09:52:56.000Z</time>
      </trkpt>
      <trkpt lat="46.51256" lon="0.34082">
        <ele>103.2</ele>
        <time>2021-01-24T09:52:57.000Z</time>
      </trkpt>
      <trkpt lat="46.51256" lon="0.34082">
        <ele>103.2</ele>
        <time>2021-01-24T09:52:58.000Z</time>
      </trkpt>
      <trkpt lat="46.51256" lon="0.34082">
        <ele>103</ele>
        <time>2021-01-24T09:52:59.000Z</time>
      </trkpt>
      <trkpt lat="46.51256" lon="0.34082">
        <ele>103</ele>
        <time>2021-01-24T09:53:00.000Z</time>
      </trkpt>
      <trkpt lat="46.51256" lon="0.34082">
        <ele>102.8</ele>
        <time>2021-01-24T09:53:01.000Z</time>
      </trkpt>
      <trkpt lat="46.51256" lon="0.34082">
        <ele>102.8</ele>
        <time>2021-01-24T09:53:02.000Z</time>
      </trkpt>
      <trkpt lat="46.51256" lon="0.34082">
        <ele>102.6</ele>
        <time>2021-01-24T09:53:03.000Z</time>
      </trkpt>
      <trkpt lat="46.51256" lon="0.34082">
        <ele>102.6</ele>
        <time>2021-01-24T09:53:04.000Z</time>
      </trkpt>
      <trkpt lat="46.51256" lon="0.34082">
        <ele>102.4</ele>
        <time>2021-01-24T09:53:05.000Z</time>
      </trkpt>
      <trkpt lat="46.51256" lon="0.34082">
        <ele>102.4</ele>
        <time>2021-01-24T09:53:06.000Z</time>
      </trkpt>
      <trkpt lat="46.51256" lon="0.34082">
        <ele>102.2</ele>
        <time>2021-01-24T09:53:07.000Z</time>
      </trkpt>
      <trkpt lat="46.51256" lon="0.34082">
        <ele>102.2</ele>
        <time>2021-01-24T09:53:08.000Z</time>
      </trkpt>
      <trkpt lat="46.51256" lon="0.34082">
        <ele>102.2</ele>
        <time>2021-01-24T09:53:09.000Z</time>
      </trkpt>
      <trkpt lat="46.51256" lon="0.34082">
        <ele>102</ele>
        <time>2021-01-24T09:53:10.000Z</time>
      </trkpt>
      <trkpt lat="46.51256" lon="0.34082">
        <ele>102</ele>
        <time>2021-01-24T09:53:11.000Z</time>
      </trkpt>
      <trkpt lat="46.51256" lon="0.34082">
        <ele>101.8</ele>
        <time>2021-01-24T09:53:12.000Z</time>
      </trkpt>
      <trkpt lat="46.51256" lon="0.34082">
        <ele>101.8</ele>
        <time>2021-01-24T09:53:13.000Z</time>
      </trkpt>
      <trkpt lat="46.51256" lon="0.34082">
        <ele>101.8</ele>
        <time>2021-01-24T09:53:14.000Z</time>
      </trkpt>
      <trkpt lat="46.51253" lon="0.34078">
        <ele>101.6</ele>
        <time>2021-01-24T09:53:15.000Z</time>
      </trkpt>
      <trkpt lat="46.51252" lon="0.34075">
        <ele>101.6</ele>
        <time>2021-01-24T09:53:16.000Z</time>
      </trkpt>
      <trkpt lat="46.51252" lon="0.34072">
        <ele>101.6</ele>
        <time>2021-01-24T09:53:17.000Z</time>
      </trkpt>
      <trkpt lat="46.51251" lon="0.34069">
        <ele>101.4</ele>
        <time>2021-01-24T09:53:18.000Z</time>
      </trkpt>
      <trkpt lat="46.5125" lon="0.34067">
        <ele>101.4</ele>
        <time>2021-01-24T09:53:19.000Z</time>
      </trkpt>
      <trkpt lat="46.5125" lon="0.34067">
        <ele>101.4</ele>
        <time>2021-01-24T09:53:20.000Z</time>
      </trkpt>
      <trkpt lat="46.51249" lon="0.34062">
        <ele>101.2</ele>
        <time>2021-01-24T09:53:21.000Z</time>
      </trkpt>
      <trkpt lat="46.51248" lon="0.34059">
        <ele>101.2</ele>
        <time>2021-01-24T09:53:22.000Z</time>
      </trkpt>
      <trkpt lat="46.51248" lon="0.34055">
        <ele>101</ele>
        <time>2021-01-24T09:53:23.000Z</time>
      </trkpt>
      <trkpt lat="46.51249" lon="0.34052">
        <ele>100.8</ele>
        <time>2021-01-24T09:53:24.000Z</time>
      </trkpt>
      <trkpt lat="46.51251" lon="0.34047">
        <ele>100.6</ele>
        <time>2021-01-24T09:53:25.000Z</time>
      </trkpt>
      <trkpt lat="46.51252" lon="0.3404">
        <ele>100.6</ele>
        <time>2021-01-24T09:53:26.000Z</time>
      </trkpt>
      <trkpt lat="46.51254" lon="0.34034">
        <ele>100.4</ele>
        <time>2021-01-24T09:53:27.000Z</time>
      </trkpt>
      <trkpt lat="46.51257" lon="0.34027">
        <ele>100.2</ele>
        <time>2021-01-24T09:53:28.000Z</time>
      </trkpt>
      <trkpt lat="46.51259" lon="0.34022">
        <ele>99.8</ele>
        <time>2021-01-24T09:53:29.000Z</time>
      </trkpt>
      <trkpt lat="46.51259" lon="0.34018">
        <ele>99.6</ele>
        <time>2021-01-24T09:53:30.000Z</time>
      </trkpt>
      <trkpt lat="46.51259" lon="0.34018">
        <ele>99.4</ele>
        <time>2021-01-24T09:53:31.000Z</time>
      </trkpt>
      <trkpt lat="46.51259" lon="0.34018">
        <ele>99</ele>
        <time>2021-01-24T09:53:32.000Z</time>
      </trkpt>
      <trkpt lat="46.51259" lon="0.34018">
        <ele>98.6</ele>
        <time>2021-01-24T09:53:33.000Z</time>
      </trkpt>
      <trkpt lat="46.51259" lon="0.34016">
        <ele>98.4</ele>
        <time>2021-01-24T09:53:34.000Z</time>
      </trkpt>
      <trkpt lat="46.51259" lon="0.34016">
        <ele>98</ele>
        <time>2021-01-24T09:53:35.000Z</time>
      </trkpt>
      <trkpt lat="46.51259" lon="0.34016">
        <ele>97.6</ele>
        <time>2021-01-24T09:53:36.000Z</time>
      </trkpt>
      <trkpt lat="46.51259" lon="0.34016">
        <ele>97.2</ele>
        <time>2021-01-24T09:53:37.000Z</time>
      </trkpt>
      <trkpt lat="46.51259" lon="0.34016">
        <ele>96.8</ele>
        <time>2021-01-24T09:53:38.000Z</time>
      </trkpt>
      <trkpt lat="46.51259" lon="0.34016">
        <ele>96.4</ele>
        <time>2021-01-24T09:53:39.000Z</time>
      </trkpt>
      <trkpt lat="46.51259" lon="0.34016">
        <ele>96</ele>
        <time>2021-01-24T09:53:40.000Z</time>
      </trkpt>
      <trkpt lat="46.51259" lon="0.34016">
        <ele>95.6</ele>
        <time>2021-01-24T09:53:41.000Z</time>
      </trkpt>
      <trkpt lat="46.51259" lon="0.34016">
        <ele>95.2</ele>
        <time>2021-01-24T09:53:42.000Z</time>
      </trkpt>
      <trkpt lat="46.51259" lon="0.34016">
        <ele>94.8</ele>
        <time>2021-01-24T09:53:43.000Z</time>
      </trkpt>
      <trkpt lat="46.51259" lon="0.34016">
        <ele>94.2</ele>
        <time>2021-01-24T09:53:44.000Z</time>
      </trkpt>
      <trkpt lat="46.51259" lon="0.34016">
        <ele>93.8</ele>
        <time>2021-01-24T09:53:45.000Z</time>
      </trkpt>
      <trkpt lat="46.51259" lon="0.34016">
        <ele>93.4</ele>
        <time>2021-01-24T09:53:46.000Z</time>
      </trkpt>
      <trkpt lat="46.51259" lon="0.34016">
        <ele>93</ele>
        <time>2021-01-24T09:53:47.000Z</time>
      </trkpt>
      <trkpt lat="46.51259" lon="0.34016">
        <ele>92.6</ele>
        <time>2021-01-24T09:53:48.000Z</time>
      </trkpt>
      <trkpt lat="46.51259" lon="0.34016">
        <ele>92.2</ele>
        <time>2021-01-24T09:53:49.000Z</time>
      </trkpt>
      <trkpt lat="46.51259" lon="0.34016">
        <ele>92</ele>
        <time>2021-01-24T09:53:50.000Z</time>
      </trkpt>
      <trkpt lat="46.51259" lon="0.34016">
        <ele>91.6</ele>
        <time>2021-01-24T09:53:51.000Z</time>
      </trkpt>
      <trkpt lat="46.51259" lon="0.34016">
        <ele>91.2</ele>
        <time>2021-01-24T09:53:52.000Z</time>
      </trkpt>
      <trkpt lat="46.51259" lon="0.34016">
        <ele>91</ele>
        <time>2021-01-24T09:53:53.000Z</time>
      </trkpt>
      <trkpt lat="46.51259" lon="0.34016">
        <ele>90.8</ele>
        <time>2021-01-24T09:53:54.000Z</time>
      </trkpt>
      <trkpt lat="46.51259" lon="0.34016">
        <ele>90.4</ele>
        <time>2021-01-24T09:53:55.000Z</time>
      </trkpt>
      <trkpt lat="46.51259" lon="0.34016">
        <ele>90.2</ele>
        <time>2021-01-24T09:53:56.000Z</time>
      </trkpt>
      <trkpt lat="46.51259" lon="0.34016">
        <ele>90</ele>
        <time>2021-01-24T09:53:57.000Z</time>
      </trkpt>
      <trkpt lat="46.51259" lon="0.34016">
        <ele>89.6</ele>
        <time>2021-01-24T09:53:58.000Z</time>
      </trkpt>
      <trkpt lat="46.51259" lon="0.34016">
        <ele>89.4</ele>
        <time>2021-01-24T09:53:59.000Z</time>
      </trkpt>
      <trkpt lat="46.51259" lon="0.34016">
        <ele>89.2</ele>
        <time>2021-01-24T09:54:00.000Z</time>
      </trkpt>
      <trkpt lat="46.51259" lon="0.34016">
        <ele>88.8</ele>
        <time>2021-01-24T09:54:01.000Z</time>
      </trkpt>
      <trkpt lat="46.51259" lon="0.34016">
        <ele>88.6</ele>
        <time>2021-01-24T09:54:02.000Z</time>
      </trkpt>
      <trkpt lat="46.51259" lon="0.34016">
        <ele>88.4</ele>
        <time>2021-01-24T09:54:03.000Z</time>
      </trkpt>
      <trkpt lat="46.51259" lon="0.34016">
        <ele>88.2</ele>
        <time>2021-01-24T09:54:04.000Z</time>
      </trkpt>
      <trkpt lat="46.51259" lon="0.34016">
        <ele>88</ele>
        <time>2021-01-24T09:54:05.000Z</time>
      </trkpt>
      <trkpt lat="46.51261" lon="0.34016">
        <ele>87.8</ele>
        <time>2021-01-24T09:54:06.000Z</time>
      </trkpt>
      <trkpt lat="46.51261" lon="0.34016">
        <ele>87.6</ele>
        <time>2021-01-24T09:54:07.000Z</time>
      </trkpt>
      <trkpt lat="46.51263" lon="0.34016">
        <ele>87.4</ele>
        <time>2021-01-24T09:54:08.000Z</time>
      </trkpt>
      <trkpt lat="46.51265" lon="0.34016">
        <ele>87.2</ele>
        <time>2021-01-24T09:54:09.000Z</time>
      </trkpt>
      <trkpt lat="46.51267" lon="0.34016">
        <ele>87</ele>
        <time>2021-01-24T09:54:10.000Z</time>
      </trkpt>
      <trkpt lat="46.51271" lon="0.34016">
        <ele>86.8</ele>
        <time>2021-01-24T09:54:11.000Z</time>
      </trkpt>
      <trkpt lat="46.51273" lon="0.34016">
        <ele>86.6</ele>
        <time>2021-01-24T09:54:12.000Z</time>
      </trkpt>
      <trkpt lat="46.51277" lon="0.34017">
        <ele>86.4</ele>
        <time>2021-01-24T09:54:13.000Z</time>
      </trkpt>
      <trkpt lat="46.51279" lon="0.34017">
        <ele>86.2</ele>
        <time>2021-01-24T09:54:14.000Z</time>
      </trkpt>
      <trkpt lat="46.51282" lon="0.34018">
        <ele>86.2</ele>
        <time>2021-01-24T09:54:15.000Z</time>
      </trkpt>
      <trkpt lat="46.51285" lon="0.3402">
        <ele>86</ele>
        <time>2021-01-24T09:54:16.000Z</time>
      </trkpt>
      <trkpt lat="46.51287" lon="0.34022">
        <ele>86</ele>
        <time>2021-01-24T09:54:17.000Z</time>
      </trkpt>
      <trkpt lat="46.5129" lon="0.34023">
        <ele>85.8</ele>
        <time>2021-01-24T09:54:18.000Z</time>
      </trkpt>
      <trkpt lat="46.51293" lon="0.34025">
        <ele>85.8</ele>
        <time>2021-01-24T09:54:19.000Z</time>
      </trkpt>
      <trkpt lat="46.51296" lon="0.34026">
        <ele>85.6</ele>
        <time>2021-01-24T09:54:20.000Z</time>
      </trkpt>
      <trkpt lat="46.51299" lon="0.34027">
        <ele>85.6</ele>
        <time>2021-01-24T09:54:21.000Z</time>
      </trkpt>
      <trkpt lat="46.51302" lon="0.34028">
        <ele>85.6</ele>
        <time>2021-01-24T09:54:22.000Z</time>
      </trkpt>
      <trkpt lat="46.51305" lon="0.34029">
        <ele>85.4</ele>
        <time>2021-01-24T09:54:23.000Z</time>
      </trkpt>
      <trkpt lat="46.51311" lon="0.3403">
        <ele>85.4</ele>
        <time>2021-01-24T09:54:24.000Z</time>
      </trkpt>
      <trkpt lat="46.51315" lon="0.34031">
        <ele>85.2</ele>
        <time>2021-01-24T09:54:25.000Z</time>
      </trkpt>
      <trkpt lat="46.51319" lon="0.34032">
        <ele>85</ele>
        <time>2021-01-24T09:54:26.000Z</time>
      </trkpt>
      <trkpt lat="46.51323" lon="0.34032">
        <ele>85</ele>
        <time>2021-01-24T09:54:27.000Z</time>
      </trkpt>
      <trkpt lat="46.51327" lon="0.34033">
        <ele>84.8</ele>
        <time>2021-01-24T09:54:28.000Z</time>
      </trkpt>
      <trkpt lat="46.5133" lon="0.34034">
        <ele>84.8</ele>
        <time>2021-01-24T09:54:29.000Z</time>
      </trkpt>
      <trkpt lat="46.51334" lon="0.34035">
        <ele>84.6</ele>
        <time>2021-01-24T09:54:30.000Z</time>
      </trkpt>
      <trkpt lat="46.51338" lon="0.34036">
        <ele>84.6</ele>
        <time>2021-01-24T09:54:31.000Z</time>
      </trkpt>
      <trkpt lat="46.51341" lon="0.34037">
        <ele>84.6</ele>
        <time>2021-01-24T09:54:32.000Z</time>
      </trkpt>
      <trkpt lat="46.51346" lon="0.34039">
        <ele>84.4</ele>
        <time>2021-01-24T09:54:33.000Z</time>
      </trkpt>
      <trkpt lat="46.51351" lon="0.34041">
        <ele>84.4</ele>
        <time>2021-01-24T09:54:34.000Z</time>
      </trkpt>
      <trkpt lat="46.51356" lon="0.34042">
        <ele>84.4</ele>
        <time>2021-01-24T09:54:35.000Z</time>
      </trkpt>
      <trkpt lat="46.51361" lon="0.34043">
        <ele>84.2</ele>
        <time>2021-01-24T09:54:36.000Z</time>
      </trkpt>
      <trkpt lat="46.51365" lon="0.34045">
        <ele>84.2</ele>
        <time>2021-01-24T09:54:37.000Z</time>
      </trkpt>
      <trkpt lat="46.5137" lon="0.34047">
        <ele>84.2</ele>
        <time>2021-01-24T09:54:38.000Z</time>
      </trkpt>
      <trkpt lat="46.51374" lon="0.3405">
        <ele>84</ele>
        <time>2021-01-24T09:54:39.000Z</time>
      </trkpt>
      <trkpt lat="46.5138" lon="0.34052">
        <ele>84</ele>
        <time>2021-01-24T09:54:40.000Z</time>
      </trkpt>
      <trkpt lat="46.51384" lon="0.34054">
        <ele>84</ele>
        <time>2021-01-24T09:54:41.000Z</time>
      </trkpt>
      <trkpt lat="46.51389" lon="0.34057">
        <ele>84</ele>
        <time>2021-01-24T09:54:42.000Z</time>
      </trkpt>
      <trkpt lat="46.51392" lon="0.34059">
        <ele>84</ele>
        <time>2021-01-24T09:54:43.000Z</time>
      </trkpt>
      <trkpt lat="46.51394" lon="0.34062">
        <ele>84</ele>
        <time>2021-01-24T09:54:44.000Z</time>
      </trkpt>
      <trkpt lat="46.51398" lon="0.34065">
        <ele>84</ele>
        <time>2021-01-24T09:54:45.000Z</time>
      </trkpt>
      <trkpt lat="46.51402" lon="0.34069">
        <ele>84</ele>
        <time>2021-01-24T09:54:46.000Z</time>
      </trkpt>
      <trkpt lat="46.51405" lon="0.34072">
        <ele>84</ele>
        <time>2021-01-24T09:54:47.000Z</time>
      </trkpt>
      <trkpt lat="46.51408" lon="0.34075">
        <ele>84</ele>
        <time>2021-01-24T09:54:48.000Z</time>
      </trkpt>
      <trkpt lat="46.51411" lon="0.34079">
        <ele>84</ele>
        <time>2021-01-24T09:54:49.000Z</time>
      </trkpt>
      <trkpt lat="46.51415" lon="0.34083">
        <ele>84</ele>
        <time>2021-01-24T09:54:50.000Z</time>
      </trkpt>
      <trkpt lat="46.51418" lon="0.34085">
        <ele>84</ele>
        <time>2021-01-24T09:54:51.000Z</time>
      </trkpt>
      <trkpt lat="46.51421" lon="0.34088">
        <ele>84</ele>
        <time>2021-01-24T09:54:52.000Z</time>
      </trkpt>
      <trkpt lat="46.51424" lon="0.34092">
        <ele>84</ele>
        <time>2021-01-24T09:54:53.000Z</time>
      </trkpt>
      <trkpt lat="46.51426" lon="0.34095">
        <ele>84</ele>
        <time>2021-01-24T09:54:54.000Z</time>
      </trkpt>
      <trkpt lat="46.51429" lon="0.34098">
        <ele>84</ele>
        <time>2021-01-24T09:54:55.000Z</time>
      </trkpt>
      <trkpt lat="46.51432" lon="0.34101">
        <ele>84.2</ele>
        <time>2021-01-24T09:54:56.000Z</time>
      </trkpt>
      <trkpt lat="46.51434" lon="0.34104">
        <ele>84.2</ele>
        <time>2021-01-24T09:54:57.000Z</time>
      </trkpt>
      <trkpt lat="46.51437" lon="0.34106">
        <ele>84.2</ele>
        <time>2021-01-24T09:54:58.000Z</time>
      </trkpt>
      <trkpt lat="46.5144" lon="0.3411">
        <ele>84.2</ele>
        <time>2021-01-24T09:54:59.000Z</time>
      </trkpt>
      <trkpt lat="46.51444" lon="0.34111">
        <ele>84.4</ele>
        <time>2021-01-24T09:55:00.000Z</time>
      </trkpt>
      <trkpt lat="46.51446" lon="0.34113">
        <ele>84.4</ele>
        <time>2021-01-24T09:55:01.000Z</time>
      </trkpt>
      <trkpt lat="46.51449" lon="0.34115">
        <ele>84.4</ele>
        <time>2021-01-24T09:55:02.000Z</time>
      </trkpt>
      <trkpt lat="46.51453" lon="0.34116">
        <ele>84.6</ele>
        <time>2021-01-24T09:55:03.000Z</time>
      </trkpt>
      <trkpt lat="46.51455" lon="0.34118">
        <ele>84.6</ele>
        <time>2021-01-24T09:55:04.000Z</time>
      </trkpt>
      <trkpt lat="46.51457" lon="0.3412">
        <ele>84.6</ele>
        <time>2021-01-24T09:55:05.000Z</time>
      </trkpt>
      <trkpt lat="46.5146" lon="0.34122">
        <ele>84.8</ele>
        <time>2021-01-24T09:55:06.000Z</time>
      </trkpt>
      <trkpt lat="46.51462" lon="0.34125">
        <ele>84.8</ele>
        <time>2021-01-24T09:55:07.000Z</time>
      </trkpt>
      <trkpt lat="46.51465" lon="0.34127">
        <ele>85</ele>
        <time>2021-01-24T09:55:08.000Z</time>
      </trkpt>
      <trkpt lat="46.51468" lon="0.34128">
        <ele>85</ele>
        <time>2021-01-24T09:55:09.000Z</time>
      </trkpt>
      <trkpt lat="46.5147" lon="0.3413">
        <ele>85.2</ele>
        <time>2021-01-24T09:55:10.000Z</time>
      </trkpt>
      <trkpt lat="46.51472" lon="0.34131">
        <ele>85.2</ele>
        <time>2021-01-24T09:55:11.000Z</time>
      </trkpt>
      <trkpt lat="46.51474" lon="0.34133">
        <ele>85.4</ele>
        <time>2021-01-24T09:55:12.000Z</time>
      </trkpt>
      <trkpt lat="46.51476" lon="0.34135">
        <ele>85.4</ele>
        <time>2021-01-24T09:55:13.000Z</time>
      </trkpt>
      <trkpt lat="46.51478" lon="0.34138">
        <ele>85.4</ele>
        <time>2021-01-24T09:55:14.000Z</time>
      </trkpt>
      <trkpt lat="46.51481" lon="0.3414">
        <ele>85.6</ele>
        <time>2021-01-24T09:55:15.000Z</time>
      </trkpt>
      <trkpt lat="46.51483" lon="0.34141">
        <ele>85.6</ele>
        <time>2021-01-24T09:55:16.000Z</time>
      </trkpt>
      <trkpt lat="46.51486" lon="0.34142">
        <ele>85.6</ele>
        <time>2021-01-24T09:55:17.000Z</time>
      </trkpt>
      <trkpt lat="46.51488" lon="0.34144">
        <ele>85.6</ele>
        <time>2021-01-24T09:55:18.000Z</time>
      </trkpt>
      <trkpt lat="46.51491" lon="0.34145">
        <ele>85.6</ele>
        <time>2021-01-24T09:55:19.000Z</time>
      </trkpt>
      <trkpt lat="46.51494" lon="0.34147">
        <ele>85.6</ele>
        <time>2021-01-24T09:55:20.000Z</time>
      </trkpt>
      <trkpt lat="46.51497" lon="0.34149">
        <ele>85.6</ele>
        <time>2021-01-24T09:55:21.000Z</time>
      </trkpt>
      <trkpt lat="46.51499" lon="0.34151">
        <ele>85.6</ele>
        <time>2021-01-24T09:55:22.000Z</time>
      </trkpt>
      <trkpt lat="46.51503" lon="0.34154">
        <ele>85.6</ele>
        <time>2021-01-24T09:55:23.000Z</time>
      </trkpt>
      <trkpt lat="46.51506" lon="0.34156">
        <ele>85.6</ele>
        <time>2021-01-24T09:55:24.000Z</time>
      </trkpt>
      <trkpt lat="46.51509" lon="0.34159">
        <ele>85.6</ele>
        <time>2021-01-24T09:55:25.000Z</time>
      </trkpt>
      <trkpt lat="46.51511" lon="0.34161">
        <ele>85.6</ele>
        <time>2021-01-24T09:55:26.000Z</time>
      </trkpt>
      <trkpt lat="46.51514" lon="0.34163">
        <ele>85.6</ele>
        <time>2021-01-24T09:55:27.000Z</time>
      </trkpt>
      <trkpt lat="46.51517" lon="0.34166">
        <ele>85.6</ele>
        <time>2021-01-24T09:55:28.000Z</time>
      </trkpt>
      <trkpt lat="46.5152" lon="0.34168">
        <ele>85.6</ele>
        <time>2021-01-24T09:55:29.000Z</time>
      </trkpt>
      <trkpt lat="46.51523" lon="0.3417">
        <ele>85.6</ele>
        <time>2021-01-24T09:55:30.000Z</time>
      </trkpt>
      <trkpt lat="46.51526" lon="0.34172">
        <ele>85.6</ele>
        <time>2021-01-24T09:55:31.000Z</time>
      </trkpt>
      <trkpt lat="46.51528" lon="0.34174">
        <ele>85.6</ele>
        <time>2021-01-24T09:55:32.000Z</time>
      </trkpt>
      <trkpt lat="46.5153" lon="0.34176">
        <ele>85.6</ele>
        <time>2021-01-24T09:55:33.000Z</time>
      </trkpt>
      <trkpt lat="46.51532" lon="0.34177">
        <ele>85.6</ele>
        <time>2021-01-24T09:55:34.000Z</time>
      </trkpt>
      <trkpt lat="46.51535" lon="0.3418">
        <ele>85.6</ele>
        <time>2021-01-24T09:55:35.000Z</time>
      </trkpt>
      <trkpt lat="46.51537" lon="0.34181">
        <ele>85.6</ele>
        <time>2021-01-24T09:55:36.000Z</time>
      </trkpt>
      <trkpt lat="46.5154" lon="0.34183">
        <ele>85.6</ele>
        <time>2021-01-24T09:55:37.000Z</time>
      </trkpt>
      <trkpt lat="46.51542" lon="0.34184">
        <ele>85.6</ele>
        <time>2021-01-24T09:55:38.000Z</time>
      </trkpt>
      <trkpt lat="46.51545" lon="0.34185">
        <ele>85.6</ele>
        <time>2021-01-24T09:55:39.000Z</time>
      </trkpt>
      <trkpt lat="46.51547" lon="0.34186">
        <ele>85.6</ele>
        <time>2021-01-24T09:55:40.000Z</time>
      </trkpt>
      <trkpt lat="46.51549" lon="0.34187">
        <ele>85.8</ele>
        <time>2021-01-24T09:55:41.000Z</time>
      </trkpt>
      <trkpt lat="46.51551" lon="0.34188">
        <ele>85.8</ele>
        <time>2021-01-24T09:55:42.000Z</time>
      </trkpt>
      <trkpt lat="46.51553" lon="0.34188">
        <ele>85.8</ele>
        <time>2021-01-24T09:55:43.000Z</time>
      </trkpt>
      <trkpt lat="46.51555" lon="0.34188">
        <ele>86</ele>
        <time>2021-01-24T09:55:44.000Z</time>
      </trkpt>
      <trkpt lat="46.51557" lon="0.34189">
        <ele>86</ele>
        <time>2021-01-24T09:55:45.000Z</time>
      </trkpt>
      <trkpt lat="46.51558" lon="0.34189">
        <ele>86</ele>
        <time>2021-01-24T09:55:46.000Z</time>
      </trkpt>
      <trkpt lat="46.51561" lon="0.34189">
        <ele>86</ele>
        <time>2021-01-24T09:55:47.000Z</time>
      </trkpt>
      <trkpt lat="46.51565" lon="0.3419">
        <ele>86.2</ele>
        <time>2021-01-24T09:55:48.000Z</time>
      </trkpt>
      <trkpt lat="46.51569" lon="0.3419">
        <ele>86.2</ele>
        <time>2021-01-24T09:55:49.000Z</time>
      </trkpt>
      <trkpt lat="46.51574" lon="0.34191">
        <ele>86.2</ele>
        <time>2021-01-24T09:55:50.000Z</time>
      </trkpt>
      <trkpt lat="46.51579" lon="0.34193">
        <ele>86.2</ele>
        <time>2021-01-24T09:55:51.000Z</time>
      </trkpt>
      <trkpt lat="46.51586" lon="0.34196">
        <ele>86.2</ele>
        <time>2021-01-24T09:55:52.000Z</time>
      </trkpt>
      <trkpt lat="46.51592" lon="0.34201">
        <ele>86.2</ele>
        <time>2021-01-24T09:55:53.000Z</time>
      </trkpt>
      <trkpt lat="46.51598" lon="0.34205">
        <ele>86.4</ele>
        <time>2021-01-24T09:55:54.000Z</time>
      </trkpt>
      <trkpt lat="46.51603" lon="0.3421">
        <ele>86.4</ele>
        <time>2021-01-24T09:55:55.000Z</time>
      </trkpt>
      <trkpt lat="46.51607" lon="0.34213">
        <ele>86.4</ele>
        <time>2021-01-24T09:55:56.000Z</time>
      </trkpt>
      <trkpt lat="46.51611" lon="0.34216">
        <ele>86.4</ele>
        <time>2021-01-24T09:55:57.000Z</time>
      </trkpt>
      <trkpt lat="46.51616" lon="0.3422">
        <ele>86.2</ele>
        <time>2021-01-24T09:55:58.000Z</time>
      </trkpt>
      <trkpt lat="46.5162" lon="0.34223">
        <ele>86.2</ele>
        <time>2021-01-24T09:55:59.000Z</time>
      </trkpt>
      <trkpt lat="46.51624" lon="0.34225">
        <ele>86</ele>
        <time>2021-01-24T09:56:00.000Z</time>
      </trkpt>
      <trkpt lat="46.51628" lon="0.34227">
        <ele>86</ele>
        <time>2021-01-24T09:56:01.000Z</time>
      </trkpt>
      <trkpt lat="46.51632" lon="0.34229">
        <ele>86</ele>
        <time>2021-01-24T09:56:02.000Z</time>
      </trkpt>
      <trkpt lat="46.51636" lon="0.34232">
        <ele>86</ele>
        <time>2021-01-24T09:56:03.000Z</time>
      </trkpt>
      <trkpt lat="46.5164" lon="0.34235">
        <ele>86</ele>
        <time>2021-01-24T09:56:04.000Z</time>
      </trkpt>
      <trkpt lat="46.51644" lon="0.34238">
        <ele>86</ele>
        <time>2021-01-24T09:56:05.000Z</time>
      </trkpt>
      <trkpt lat="46.51647" lon="0.3424">
        <ele>86</ele>
        <time>2021-01-24T09:56:06.000Z</time>
      </trkpt>
      <trkpt lat="46.51651" lon="0.34243">
        <ele>85.8</ele>
        <time>2021-01-24T09:56:07.000Z</time>
      </trkpt>
      <trkpt lat="46.51654" lon="0.34245">
        <ele>85.8</ele>
        <time>2021-01-24T09:56:08.000Z</time>
      </trkpt>
      <trkpt lat="46.51657" lon="0.34248">
        <ele>85.8</ele>
        <time>2021-01-24T09:56:09.000Z</time>
      </trkpt>
      <trkpt lat="46.51661" lon="0.34251">
        <ele>85.8</ele>
        <time>2021-01-24T09:56:10.000Z</time>
      </trkpt>
      <trkpt lat="46.51665" lon="0.34256">
        <ele>85.8</ele>
        <time>2021-01-24T09:56:11.000Z</time>
      </trkpt>
      <trkpt lat="46.51668" lon="0.3426">
        <ele>85.8</ele>
        <time>2021-01-24T09:56:12.000Z</time>
      </trkpt>
      <trkpt lat="46.51671" lon="0.34265">
        <ele>85.6</ele>
        <time>2021-01-24T09:56:13.000Z</time>
      </trkpt>
      <trkpt lat="46.51674" lon="0.34269">
        <ele>85.6</ele>
        <time>2021-01-24T09:56:14.000Z</time>
      </trkpt>
      <trkpt lat="46.51677" lon="0.3427">
        <ele>85.6</ele>
        <time>2021-01-24T09:56:15.000Z</time>
      </trkpt>
      <trkpt lat="46.5168" lon="0.34269">
        <ele>85.6</ele>
        <time>2021-01-24T09:56:16.000Z</time>
      </trkpt>
      <trkpt lat="46.51682" lon="0.34266">
        <ele>85.6</ele>
        <time>2021-01-24T09:56:17.000Z</time>
      </trkpt>
      <trkpt lat="46.51683" lon="0.3426">
        <ele>85.6</ele>
        <time>2021-01-24T09:56:18.000Z</time>
      </trkpt>
      <trkpt lat="46.51684" lon="0.34251">
        <ele>85.4</ele>
        <time>2021-01-24T09:56:19.000Z</time>
      </trkpt>
      <trkpt lat="46.51685" lon="0.34242">
        <ele>85.4</ele>
        <time>2021-01-24T09:56:20.000Z</time>
      </trkpt>
      <trkpt lat="46.51686" lon="0.34231">
        <ele>85.4</ele>
        <time>2021-01-24T09:56:21.000Z</time>
      </trkpt>
      <trkpt lat="46.51688" lon="0.3422">
        <ele>85.4</ele>
        <time>2021-01-24T09:56:22.000Z</time>
      </trkpt>
      <trkpt lat="46.51691" lon="0.34208">
        <ele>85.2</ele>
        <time>2021-01-24T09:56:23.000Z</time>
      </trkpt>
      <trkpt lat="46.51694" lon="0.34197">
        <ele>85.2</ele>
        <time>2021-01-24T09:56:24.000Z</time>
      </trkpt>
      <trkpt lat="46.51698" lon="0.34186">
        <ele>85</ele>
        <time>2021-01-24T09:56:25.000Z</time>
      </trkpt>
      <trkpt lat="46.51702" lon="0.34175">
        <ele>84.8</ele>
        <time>2021-01-24T09:56:26.000Z</time>
      </trkpt>
      <trkpt lat="46.51707" lon="0.34165">
        <ele>84.8</ele>
        <time>2021-01-24T09:56:27.000Z</time>
      </trkpt>
      <trkpt lat="46.51711" lon="0.34154">
        <ele>84.6</ele>
        <time>2021-01-24T09:56:28.000Z</time>
      </trkpt>
      <trkpt lat="46.51716" lon="0.34144">
        <ele>84.4</ele>
        <time>2021-01-24T09:56:29.000Z</time>
      </trkpt>
      <trkpt lat="46.5172" lon="0.34133">
        <ele>84.2</ele>
        <time>2021-01-24T09:56:30.000Z</time>
      </trkpt>
      <trkpt lat="46.51723" lon="0.34122">
        <ele>84</ele>
        <time>2021-01-24T09:56:31.000Z</time>
      </trkpt>
      <trkpt lat="46.51725" lon="0.34112">
        <ele>83.8</ele>
        <time>2021-01-24T09:56:32.000Z</time>
      </trkpt>
      <trkpt lat="46.51725" lon="0.34103">
        <ele>83.6</ele>
        <time>2021-01-24T09:56:33.000Z</time>
      </trkpt>
      <trkpt lat="46.51725" lon="0.34096">
        <ele>83.4</ele>
        <time>2021-01-24T09:56:34.000Z</time>
      </trkpt>
      <trkpt lat="46.51723" lon="0.34089">
        <ele>83.4</ele>
        <time>2021-01-24T09:56:35.000Z</time>
      </trkpt>
      <trkpt lat="46.51721" lon="0.34083">
        <ele>83.2</ele>
        <time>2021-01-24T09:56:36.000Z</time>
      </trkpt>
      <trkpt lat="46.51718" lon="0.34077">
        <ele>83</ele>
        <time>2021-01-24T09:56:37.000Z</time>
      </trkpt>
      <trkpt lat="46.51716" lon="0.3407">
        <ele>82.8</ele>
        <time>2021-01-24T09:56:38.000Z</time>
      </trkpt>
      <trkpt lat="46.51715" lon="0.34064">
        <ele>82.8</ele>
        <time>2021-01-24T09:56:39.000Z</time>
      </trkpt>
      <trkpt lat="46.51714" lon="0.34056">
        <ele>82.6</ele>
        <time>2021-01-24T09:56:40.000Z</time>
      </trkpt>
      <trkpt lat="46.51712" lon="0.34049">
        <ele>82.6</ele>
        <time>2021-01-24T09:56:41.000Z</time>
      </trkpt>
      <trkpt lat="46.51711" lon="0.34042">
        <ele>82.4</ele>
        <time>2021-01-24T09:56:42.000Z</time>
      </trkpt>
      <trkpt lat="46.5171" lon="0.34036">
        <ele>82.2</ele>
        <time>2021-01-24T09:56:43.000Z</time>
      </trkpt>
      <trkpt lat="46.51709" lon="0.34031">
        <ele>82.2</ele>
        <time>2021-01-24T09:56:44.000Z</time>
      </trkpt>
      <trkpt lat="46.51708" lon="0.34023">
        <ele>82.2</ele>
        <time>2021-01-24T09:56:45.000Z</time>
      </trkpt>
      <trkpt lat="46.51706" lon="0.34016">
        <ele>82</ele>
        <time>2021-01-24T09:56:46.000Z</time>
      </trkpt>
      <trkpt lat="46.51704" lon="0.3401">
        <ele>82</ele>
        <time>2021-01-24T09:56:47.000Z</time>
      </trkpt>
      <trkpt lat="46.51701" lon="0.34003">
        <ele>81.8</ele>
        <time>2021-01-24T09:56:48.000Z</time>
      </trkpt>
      <trkpt lat="46.51698" lon="0.33996">
        <ele>81.6</ele>
        <time>2021-01-24T09:56:49.000Z</time>
      </trkpt>
      <trkpt lat="46.51695" lon="0.33989">
        <ele>81.4</ele>
        <time>2021-01-24T09:56:50.000Z</time>
      </trkpt>
      <trkpt lat="46.51693" lon="0.33982">
        <ele>81.4</ele>
        <time>2021-01-24T09:56:51.000Z</time>
      </trkpt>
      <trkpt lat="46.51691" lon="0.33974">
        <ele>81.2</ele>
        <time>2021-01-24T09:56:52.000Z</time>
      </trkpt>
      <trkpt lat="46.51689" lon="0.33965">
        <ele>81.2</ele>
        <time>2021-01-24T09:56:53.000Z</time>
      </trkpt>
      <trkpt lat="46.51688" lon="0.33957">
        <ele>81.2</ele>
        <time>2021-01-24T09:56:54.000Z</time>
      </trkpt>
      <trkpt lat="46.51686" lon="0.33949">
        <ele>81</ele>
        <time>2021-01-24T09:56:55.000Z</time>
      </trkpt>
      <trkpt lat="46.51685" lon="0.33941">
        <ele>81</ele>
        <time>2021-01-24T09:56:56.000Z</time>
      </trkpt>
      <trkpt lat="46.51684" lon="0.33934">
        <ele>80.8</ele>
        <time>2021-01-24T09:56:57.000Z</time>
      </trkpt>
      <trkpt lat="46.51682" lon="0.33928">
        <ele>80.8</ele>
        <time>2021-01-24T09:56:58.000Z</time>
      </trkpt>
      <trkpt lat="46.51682" lon="0.33923">
        <ele>80.6</ele>
        <time>2021-01-24T09:56:59.000Z</time>
      </trkpt>
      <trkpt lat="46.51681" lon="0.33918">
        <ele>80.4</ele>
        <time>2021-01-24T09:57:00.000Z</time>
      </trkpt>
      <trkpt lat="46.5168" lon="0.33914">
        <ele>80.4</ele>
        <time>2021-01-24T09:57:01.000Z</time>
      </trkpt>
      <trkpt lat="46.51679" lon="0.3391">
        <ele>80.2</ele>
        <time>2021-01-24T09:57:02.000Z</time>
      </trkpt>
      <trkpt lat="46.51677" lon="0.33907">
        <ele>80.2</ele>
        <time>2021-01-24T09:57:03.000Z</time>
      </trkpt>
      <trkpt lat="46.51677" lon="0.33903">
        <ele>80</ele>
        <time>2021-01-24T09:57:04.000Z</time>
      </trkpt>
      <trkpt lat="46.51676" lon="0.33899">
        <ele>80</ele>
        <time>2021-01-24T09:57:05.000Z</time>
      </trkpt>
      <trkpt lat="46.51675" lon="0.33895">
        <ele>79.8</ele>
        <time>2021-01-24T09:57:06.000Z</time>
      </trkpt>
      <trkpt lat="46.51674" lon="0.33891">
        <ele>79.8</ele>
        <time>2021-01-24T09:57:07.000Z</time>
      </trkpt>
      <trkpt lat="46.51672" lon="0.33886">
        <ele>79.8</ele>
        <time>2021-01-24T09:57:08.000Z</time>
      </trkpt>
      <trkpt lat="46.5167" lon="0.33882">
        <ele>79.6</ele>
        <time>2021-01-24T09:57:09.000Z</time>
      </trkpt>
      <trkpt lat="46.51669" lon="0.33877">
        <ele>79.6</ele>
        <time>2021-01-24T09:57:10.000Z</time>
      </trkpt>
      <trkpt lat="46.51668" lon="0.33873">
        <ele>79.6</ele>
        <time>2021-01-24T09:57:11.000Z</time>
      </trkpt>
      <trkpt lat="46.51666" lon="0.33868">
        <ele>79.4</ele>
        <time>2021-01-24T09:57:12.000Z</time>
      </trkpt>
      <trkpt lat="46.51665" lon="0.33863">
        <ele>79.4</ele>
        <time>2021-01-24T09:57:13.000Z</time>
      </trkpt>
      <trkpt lat="46.51663" lon="0.33859">
        <ele>79.4</ele>
        <time>2021-01-24T09:57:14.000Z</time>
      </trkpt>
      <trkpt lat="46.51662" lon="0.33854">
        <ele>79.2</ele>
        <time>2021-01-24T09:57:15.000Z</time>
      </trkpt>
      <trkpt lat="46.5166" lon="0.33849">
        <ele>79.2</ele>
        <time>2021-01-24T09:57:16.000Z</time>
      </trkpt>
      <trkpt lat="46.51659" lon="0.33845">
        <ele>79.2</ele>
        <time>2021-01-24T09:57:17.000Z</time>
      </trkpt>
      <trkpt lat="46.51658" lon="0.3384">
        <ele>79</ele>
        <time>2021-01-24T09:57:18.000Z</time>
      </trkpt>
      <trkpt lat="46.51656" lon="0.33835">
        <ele>79</ele>
        <time>2021-01-24T09:57:19.000Z</time>
      </trkpt>
      <trkpt lat="46.51654" lon="0.3383">
        <ele>78.8</ele>
        <time>2021-01-24T09:57:20.000Z</time>
      </trkpt>
      <trkpt lat="46.51653" lon="0.33826">
        <ele>78.8</ele>
        <time>2021-01-24T09:57:21.000Z</time>
      </trkpt>
      <trkpt lat="46.51651" lon="0.33821">
        <ele>78.6</ele>
        <time>2021-01-24T09:57:22.000Z</time>
      </trkpt>
      <trkpt lat="46.5165" lon="0.33817">
        <ele>78.4</ele>
        <time>2021-01-24T09:57:23.000Z</time>
      </trkpt>
      <trkpt lat="46.51648" lon="0.33812">
        <ele>78.4</ele>
        <time>2021-01-24T09:57:24.000Z</time>
      </trkpt>
      <trkpt lat="46.51647" lon="0.33807">
        <ele>78.4</ele>
        <time>2021-01-24T09:57:25.000Z</time>
      </trkpt>
      <trkpt lat="46.51645" lon="0.33802">
        <ele>78.2</ele>
        <time>2021-01-24T09:57:26.000Z</time>
      </trkpt>
      <trkpt lat="46.51644" lon="0.33797">
        <ele>78.2</ele>
        <time>2021-01-24T09:57:27.000Z</time>
      </trkpt>
      <trkpt lat="46.51642" lon="0.33793">
        <ele>78.2</ele>
        <time>2021-01-24T09:57:28.000Z</time>
      </trkpt>
      <trkpt lat="46.5164" lon="0.33787">
        <ele>78.2</ele>
        <time>2021-01-24T09:57:29.000Z</time>
      </trkpt>
      <trkpt lat="46.51639" lon="0.33782">
        <ele>78.2</ele>
        <time>2021-01-24T09:57:30.000Z</time>
      </trkpt>
      <trkpt lat="46.51637" lon="0.33777">
        <ele>78.2</ele>
        <time>2021-01-24T09:57:31.000Z</time>
      </trkpt>
      <trkpt lat="46.51635" lon="0.33772">
        <ele>78.2</ele>
        <time>2021-01-24T09:57:32.000Z</time>
      </trkpt>
      <trkpt lat="46.51634" lon="0.33767">
        <ele>78.2</ele>
        <time>2021-01-24T09:57:33.000Z</time>
      </trkpt>
      <trkpt lat="46.51631" lon="0.33762">
        <ele>78.2</ele>
        <time>2021-01-24T09:57:34.000Z</time>
      </trkpt>
      <trkpt lat="46.51629" lon="0.33758">
        <ele>78.2</ele>
        <time>2021-01-24T09:57:35.000Z</time>
      </trkpt>
      <trkpt lat="46.51627" lon="0.33754">
        <ele>78</ele>
        <time>2021-01-24T09:57:36.000Z</time>
      </trkpt>
      <trkpt lat="46.51624" lon="0.33749">
        <ele>78</ele>
        <time>2021-01-24T09:57:37.000Z</time>
      </trkpt>
      <trkpt lat="46.51622" lon="0.33744">
        <ele>78</ele>
        <time>2021-01-24T09:57:38.000Z</time>
      </trkpt>
      <trkpt lat="46.5162" lon="0.33739">
        <ele>78.2</ele>
        <time>2021-01-24T09:57:39.000Z</time>
      </trkpt>
      <trkpt lat="46.51617" lon="0.33734">
        <ele>78.2</ele>
        <time>2021-01-24T09:57:40.000Z</time>
      </trkpt>
      <trkpt lat="46.51614" lon="0.33729">
        <ele>78.2</ele>
        <time>2021-01-24T09:57:41.000Z</time>
      </trkpt>
      <trkpt lat="46.51612" lon="0.33724">
        <ele>78.2</ele>
        <time>2021-01-24T09:57:42.000Z</time>
      </trkpt>
      <trkpt lat="46.51609" lon="0.33719">
        <ele>78</ele>
        <time>2021-01-24T09:57:43.000Z</time>
      </trkpt>
      <trkpt lat="46.51606" lon="0.33714">
        <ele>78</ele>
        <time>2021-01-24T09:57:44.000Z</time>
      </trkpt>
      <trkpt lat="46.51604" lon="0.33709">
        <ele>78</ele>
        <time>2021-01-24T09:57:45.000Z</time>
      </trkpt>
      <trkpt lat="46.51601" lon="0.33701">
        <ele>78</ele>
        <time>2021-01-24T09:57:46.000Z</time>
      </trkpt>
      <trkpt lat="46.51599" lon="0.33695">
        <ele>77.8</ele>
        <time>2021-01-24T09:57:47.000Z</time>
      </trkpt>
      <trkpt lat="46.51598" lon="0.33688">
        <ele>77.8</ele>
        <time>2021-01-24T09:57:48.000Z</time>
      </trkpt>
      <trkpt lat="46.51597" lon="0.33681">
        <ele>77.8</ele>
        <time>2021-01-24T09:57:49.000Z</time>
      </trkpt>
      <trkpt lat="46.51595" lon="0.33676">
        <ele>77.8</ele>
        <time>2021-01-24T09:57:50.000Z</time>
      </trkpt>
      <trkpt lat="46.51595" lon="0.33669">
        <ele>77.8</ele>
        <time>2021-01-24T09:57:51.000Z</time>
      </trkpt>
      <trkpt lat="46.51594" lon="0.33663">
        <ele>77.8</ele>
        <time>2021-01-24T09:57:52.000Z</time>
      </trkpt>
      <trkpt lat="46.51593" lon="0.33657">
        <ele>77.8</ele>
        <time>2021-01-24T09:57:53.000Z</time>
      </trkpt>
      <trkpt lat="46.51592" lon="0.33652">
        <ele>77.8</ele>
        <time>2021-01-24T09:57:54.000Z</time>
      </trkpt>
      <trkpt lat="46.51591" lon="0.33646">
        <ele>77.8</ele>
        <time>2021-01-24T09:57:55.000Z</time>
      </trkpt>
      <trkpt lat="46.51589" lon="0.33641">
        <ele>77.8</ele>
        <time>2021-01-24T09:57:56.000Z</time>
      </trkpt>
      <trkpt lat="46.51587" lon="0.33637">
        <ele>78</ele>
        <time>2021-01-24T09:57:57.000Z</time>
      </trkpt>
      <trkpt lat="46.51586" lon="0.33632">
        <ele>78</ele>
        <time>2021-01-24T09:57:58.000Z</time>
      </trkpt>
      <trkpt lat="46.51586" lon="0.33626">
        <ele>78</ele>
        <time>2021-01-24T09:57:59.000Z</time>
      </trkpt>
      <trkpt lat="46.51587" lon="0.33619">
        <ele>78</ele>
        <time>2021-01-24T09:58:00.000Z</time>
      </trkpt>
      <trkpt lat="46.51589" lon="0.33613">
        <ele>78</ele>
        <time>2021-01-24T09:58:01.000Z</time>
      </trkpt>
      <trkpt lat="46.51591" lon="0.33609">
        <ele>78</ele>
        <time>2021-01-24T09:58:02.000Z</time>
      </trkpt>
      <trkpt lat="46.51594" lon="0.33605">
        <ele>78</ele>
        <time>2021-01-24T09:58:03.000Z</time>
      </trkpt>
      <trkpt lat="46.51597" lon="0.33599">
        <ele>77.8</ele>
        <time>2021-01-24T09:58:04.000Z</time>
      </trkpt>
      <trkpt lat="46.51599" lon="0.33594">
        <ele>77.8</ele>
        <time>2021-01-24T09:58:05.000Z</time>
      </trkpt>
      <trkpt lat="46.516" lon="0.3359">
        <ele>77.8</ele>
        <time>2021-01-24T09:58:06.000Z</time>
      </trkpt>
      <trkpt lat="46.51603" lon="0.33585">
        <ele>77.6</ele>
        <time>2021-01-24T09:58:07.000Z</time>
      </trkpt>
      <trkpt lat="46.51605" lon="0.3358">
        <ele>77.6</ele>
        <time>2021-01-24T09:58:08.000Z</time>
      </trkpt>
      <trkpt lat="46.51607" lon="0.33576">
        <ele>77.6</ele>
        <time>2021-01-24T09:58:09.000Z</time>
      </trkpt>
      <trkpt lat="46.5161" lon="0.33571">
        <ele>77.6</ele>
        <time>2021-01-24T09:58:10.000Z</time>
      </trkpt>
      <trkpt lat="46.51613" lon="0.33568">
        <ele>77.6</ele>
        <time>2021-01-24T09:58:11.000Z</time>
      </trkpt>
      <trkpt lat="46.51617" lon="0.33565">
        <ele>77.6</ele>
        <time>2021-01-24T09:58:12.000Z</time>
      </trkpt>
      <trkpt lat="46.51621" lon="0.33561">
        <ele>77.6</ele>
        <time>2021-01-24T09:58:13.000Z</time>
      </trkpt>
      <trkpt lat="46.51624" lon="0.33558">
        <ele>77.6</ele>
        <time>2021-01-24T09:58:14.000Z</time>
      </trkpt>
      <trkpt lat="46.51627" lon="0.33555">
        <ele>77.4</ele>
        <time>2021-01-24T09:58:15.000Z</time>
      </trkpt>
      <trkpt lat="46.5163" lon="0.33552">
        <ele>77.4</ele>
        <time>2021-01-24T09:58:16.000Z</time>
      </trkpt>
      <trkpt lat="46.51634" lon="0.33548">
        <ele>77.4</ele>
        <time>2021-01-24T09:58:17.000Z</time>
      </trkpt>
      <trkpt lat="46.51637" lon="0.33545">
        <ele>77.4</ele>
        <time>2021-01-24T09:58:18.000Z</time>
      </trkpt>
      <trkpt lat="46.51638" lon="0.33542">
        <ele>77.4</ele>
        <time>2021-01-24T09:58:19.000Z</time>
      </trkpt>
      <trkpt lat="46.51642" lon="0.33539">
        <ele>77.4</ele>
        <time>2021-01-24T09:58:20.000Z</time>
      </trkpt>
      <trkpt lat="46.51646" lon="0.33535">
        <ele>77.4</ele>
        <time>2021-01-24T09:58:21.000Z</time>
      </trkpt>
      <trkpt lat="46.5165" lon="0.33532">
        <ele>77.4</ele>
        <time>2021-01-24T09:58:22.000Z</time>
      </trkpt>
      <trkpt lat="46.51654" lon="0.33529">
        <ele>77.4</ele>
        <time>2021-01-24T09:58:23.000Z</time>
      </trkpt>
      <trkpt lat="46.51657" lon="0.33525">
        <ele>77.4</ele>
        <time>2021-01-24T09:58:24.000Z</time>
      </trkpt>
      <trkpt lat="46.51661" lon="0.33521">
        <ele>77.4</ele>
        <time>2021-01-24T09:58:25.000Z</time>
      </trkpt>
      <trkpt lat="46.51665" lon="0.33517">
        <ele>77.4</ele>
        <time>2021-01-24T09:58:26.000Z</time>
      </trkpt>
      <trkpt lat="46.51669" lon="0.33513">
        <ele>77.4</ele>
        <time>2021-01-24T09:58:27.000Z</time>
      </trkpt>
      <trkpt lat="46.51674" lon="0.3351">
        <ele>77.4</ele>
        <time>2021-01-24T09:58:28.000Z</time>
      </trkpt>
      <trkpt lat="46.51677" lon="0.33507">
        <ele>77.4</ele>
        <time>2021-01-24T09:58:29.000Z</time>
      </trkpt>
      <trkpt lat="46.51681" lon="0.33503">
        <ele>77.4</ele>
        <time>2021-01-24T09:58:30.000Z</time>
      </trkpt>
      <trkpt lat="46.51685" lon="0.335">
        <ele>77.4</ele>
        <time>2021-01-24T09:58:31.000Z</time>
      </trkpt>
      <trkpt lat="46.51688" lon="0.33496">
        <ele>77.6</ele>
        <time>2021-01-24T09:58:32.000Z</time>
      </trkpt>
      <trkpt lat="46.51692" lon="0.33493">
        <ele>77.6</ele>
        <time>2021-01-24T09:58:33.000Z</time>
      </trkpt>
      <trkpt lat="46.51696" lon="0.33489">
        <ele>77.6</ele>
        <time>2021-01-24T09:58:34.000Z</time>
      </trkpt>
      <trkpt lat="46.517" lon="0.33485">
        <ele>77.6</ele>
        <time>2021-01-24T09:58:35.000Z</time>
      </trkpt>
      <trkpt lat="46.51704" lon="0.33481">
        <ele>77.4</ele>
        <time>2021-01-24T09:58:36.000Z</time>
      </trkpt>
      <trkpt lat="46.51708" lon="0.33477">
        <ele>77.4</ele>
        <time>2021-01-24T09:58:37.000Z</time>
      </trkpt>
      <trkpt lat="46.51711" lon="0.33473">
        <ele>77.6</ele>
        <time>2021-01-24T09:58:38.000Z</time>
      </trkpt>
      <trkpt lat="46.51716" lon="0.3347">
        <ele>77.6</ele>
        <time>2021-01-24T09:58:39.000Z</time>
      </trkpt>
      <trkpt lat="46.51718" lon="0.33467">
        <ele>77.6</ele>
        <time>2021-01-24T09:58:40.000Z</time>
      </trkpt>
      <trkpt lat="46.51723" lon="0.33463">
        <ele>77.6</ele>
        <time>2021-01-24T09:58:41.000Z</time>
      </trkpt>
      <trkpt lat="46.51726" lon="0.33459">
        <ele>77.6</ele>
        <time>2021-01-24T09:58:42.000Z</time>
      </trkpt>
      <trkpt lat="46.5173" lon="0.33455">
        <ele>77.8</ele>
        <time>2021-01-24T09:58:43.000Z</time>
      </trkpt>
      <trkpt lat="46.51734" lon="0.33452">
        <ele>77.8</ele>
        <time>2021-01-24T09:58:44.000Z</time>
      </trkpt>
      <trkpt lat="46.51737" lon="0.33448">
        <ele>77.8</ele>
        <time>2021-01-24T09:58:45.000Z</time>
      </trkpt>
      <trkpt lat="46.5174" lon="0.33445">
        <ele>77.8</ele>
        <time>2021-01-24T09:58:46.000Z</time>
      </trkpt>
      <trkpt lat="46.51743" lon="0.33442">
        <ele>77.8</ele>
        <time>2021-01-24T09:58:47.000Z</time>
      </trkpt>
      <trkpt lat="46.51747" lon="0.3344">
        <ele>77.8</ele>
        <time>2021-01-24T09:58:48.000Z</time>
      </trkpt>
      <trkpt lat="46.5175" lon="0.33437">
        <ele>77.8</ele>
        <time>2021-01-24T09:58:49.000Z</time>
      </trkpt>
      <trkpt lat="46.51754" lon="0.33435">
        <ele>77.8</ele>
        <time>2021-01-24T09:58:50.000Z</time>
      </trkpt>
      <trkpt lat="46.51757" lon="0.33432">
        <ele>77.8</ele>
        <time>2021-01-24T09:58:51.000Z</time>
      </trkpt>
      <trkpt lat="46.5176" lon="0.3343">
        <ele>77.8</ele>
        <time>2021-01-24T09:58:52.000Z</time>
      </trkpt>
      <trkpt lat="46.51764" lon="0.33428">
        <ele>77.8</ele>
        <time>2021-01-24T09:58:53.000Z</time>
      </trkpt>
      <trkpt lat="46.51767" lon="0.33426">
        <ele>77.8</ele>
        <time>2021-01-24T09:58:54.000Z</time>
      </trkpt>
      <trkpt lat="46.51772" lon="0.33423">
        <ele>77.8</ele>
        <time>2021-01-24T09:58:55.000Z</time>
      </trkpt>
      <trkpt lat="46.51776" lon="0.33422">
        <ele>77.8</ele>
        <time>2021-01-24T09:58:56.000Z</time>
      </trkpt>
      <trkpt lat="46.5178" lon="0.33421">
        <ele>77.8</ele>
        <time>2021-01-24T09:58:57.000Z</time>
      </trkpt>
      <trkpt lat="46.51783" lon="0.3342">
        <ele>77.8</ele>
        <time>2021-01-24T09:58:58.000Z</time>
      </trkpt>
      <trkpt lat="46.51787" lon="0.33419">
        <ele>77.8</ele>
        <time>2021-01-24T09:58:59.000Z</time>
      </trkpt>
      <trkpt lat="46.51791" lon="0.33418">
        <ele>77.8</ele>
        <time>2021-01-24T09:59:00.000Z</time>
      </trkpt>
      <trkpt lat="46.51795" lon="0.33417">
        <ele>77.8</ele>
        <time>2021-01-24T09:59:01.000Z</time>
      </trkpt>
      <trkpt lat="46.51799" lon="0.33415">
        <ele>77.8</ele>
        <time>2021-01-24T09:59:02.000Z</time>
      </trkpt>
      <trkpt lat="46.51803" lon="0.33414">
        <ele>77.8</ele>
        <time>2021-01-24T09:59:03.000Z</time>
      </trkpt>
      <trkpt lat="46.51808" lon="0.33414">
        <ele>77.8</ele>
        <time>2021-01-24T09:59:04.000Z</time>
      </trkpt>
      <trkpt lat="46.51813" lon="0.33413">
        <ele>77.8</ele>
        <time>2021-01-24T09:59:05.000Z</time>
      </trkpt>
      <trkpt lat="46.51819" lon="0.33409">
        <ele>77.8</ele>
        <time>2021-01-24T09:59:06.000Z</time>
      </trkpt>
      <trkpt lat="46.51821" lon="0.33408">
        <ele>77.6</ele>
        <time>2021-01-24T09:59:07.000Z</time>
      </trkpt>
      <trkpt lat="46.51825" lon="0.33404">
        <ele>77.6</ele>
        <time>2021-01-24T09:59:08.000Z</time>
      </trkpt>
      <trkpt lat="46.51829" lon="0.334">
        <ele>77.6</ele>
        <time>2021-01-24T09:59:09.000Z</time>
      </trkpt>
      <trkpt lat="46.51833" lon="0.33397">
        <ele>77.4</ele>
        <time>2021-01-24T09:59:10.000Z</time>
      </trkpt>
      <trkpt lat="46.51838" lon="0.33392">
        <ele>77.4</ele>
        <time>2021-01-24T09:59:11.000Z</time>
      </trkpt>
      <trkpt lat="46.51841" lon="0.3339">
        <ele>77.4</ele>
        <time>2021-01-24T09:59:12.000Z</time>
      </trkpt>
      <trkpt lat="46.51845" lon="0.33389">
        <ele>77.2</ele>
        <time>2021-01-24T09:59:13.000Z</time>
      </trkpt>
      <trkpt lat="46.51847" lon="0.3339">
        <ele>77.2</ele>
        <time>2021-01-24T09:59:14.000Z</time>
      </trkpt>
      <trkpt lat="46.51849" lon="0.33392">
        <ele>77.2</ele>
        <time>2021-01-24T09:59:15.000Z</time>
      </trkpt>
      <trkpt lat="46.51852" lon="0.33394">
        <ele>77</ele>
        <time>2021-01-24T09:59:16.000Z</time>
      </trkpt>
      <trkpt lat="46.51855" lon="0.33395">
        <ele>77</ele>
        <time>2021-01-24T09:59:17.000Z</time>
      </trkpt>
      <trkpt lat="46.51859" lon="0.33397">
        <ele>76.8</ele>
        <time>2021-01-24T09:59:18.000Z</time>
      </trkpt>
      <trkpt lat="46.51862" lon="0.33398">
        <ele>76.8</ele>
        <time>2021-01-24T09:59:19.000Z</time>
      </trkpt>
      <trkpt lat="46.51866" lon="0.33401">
        <ele>76.8</ele>
        <time>2021-01-24T09:59:20.000Z</time>
      </trkpt>
      <trkpt lat="46.51869" lon="0.33401">
        <ele>76.6</ele>
        <time>2021-01-24T09:59:21.000Z</time>
      </trkpt>
      <trkpt lat="46.51871" lon="0.334">
        <ele>76.6</ele>
        <time>2021-01-24T09:59:22.000Z</time>
      </trkpt>
      <trkpt lat="46.51875" lon="0.334">
        <ele>76.4</ele>
        <time>2021-01-24T09:59:23.000Z</time>
      </trkpt>
      <trkpt lat="46.51879" lon="0.334">
        <ele>76.4</ele>
        <time>2021-01-24T09:59:24.000Z</time>
      </trkpt>
      <trkpt lat="46.51882" lon="0.334">
        <ele>76.2</ele>
        <time>2021-01-24T09:59:25.000Z</time>
      </trkpt>
      <trkpt lat="46.51886" lon="0.33402">
        <ele>76.2</ele>
        <time>2021-01-24T09:59:26.000Z</time>
      </trkpt>
      <trkpt lat="46.51889" lon="0.33406">
        <ele>76</ele>
        <time>2021-01-24T09:59:27.000Z</time>
      </trkpt>
      <trkpt lat="46.51893" lon="0.3341">
        <ele>76</ele>
        <time>2021-01-24T09:59:28.000Z</time>
      </trkpt>
      <trkpt lat="46.51896" lon="0.33416">
        <ele>75.8</ele>
        <time>2021-01-24T09:59:29.000Z</time>
      </trkpt>
      <trkpt lat="46.51898" lon="0.33421">
        <ele>75.8</ele>
        <time>2021-01-24T09:59:30.000Z</time>
      </trkpt>
      <trkpt lat="46.519" lon="0.33427">
        <ele>75.8</ele>
        <time>2021-01-24T09:59:31.000Z</time>
      </trkpt>
      <trkpt lat="46.51902" lon="0.33432">
        <ele>75.6</ele>
        <time>2021-01-24T09:59:32.000Z</time>
      </trkpt>
      <trkpt lat="46.51904" lon="0.33437">
        <ele>75.6</ele>
        <time>2021-01-24T09:59:33.000Z</time>
      </trkpt>
      <trkpt lat="46.51906" lon="0.33443">
        <ele>75.6</ele>
        <time>2021-01-24T09:59:34.000Z</time>
      </trkpt>
      <trkpt lat="46.51908" lon="0.33449">
        <ele>75.4</ele>
        <time>2021-01-24T09:59:35.000Z</time>
      </trkpt>
      <trkpt lat="46.5191" lon="0.33454">
        <ele>75.4</ele>
        <time>2021-01-24T09:59:36.000Z</time>
      </trkpt>
      <trkpt lat="46.51913" lon="0.33461">
        <ele>75.4</ele>
        <time>2021-01-24T09:59:37.000Z</time>
      </trkpt>
      <trkpt lat="46.51915" lon="0.33468">
        <ele>75.4</ele>
        <time>2021-01-24T09:59:38.000Z</time>
      </trkpt>
      <trkpt lat="46.51918" lon="0.33474">
        <ele>75.4</ele>
        <time>2021-01-24T09:59:39.000Z</time>
      </trkpt>
      <trkpt lat="46.51919" lon="0.33479">
        <ele>75.4</ele>
        <time>2021-01-24T09:59:40.000Z</time>
      </trkpt>
      <trkpt lat="46.51922" lon="0.33487">
        <ele>75.2</ele>
        <time>2021-01-24T09:59:41.000Z</time>
      </trkpt>
      <trkpt lat="46.51923" lon="0.33493">
        <ele>75.2</ele>
        <time>2021-01-24T09:59:42.000Z</time>
      </trkpt>
      <trkpt lat="46.51925" lon="0.33499">
        <ele>75.2</ele>
        <time>2021-01-24T09:59:43.000Z</time>
      </trkpt>
      <trkpt lat="46.51926" lon="0.33505">
        <ele>75.2</ele>
        <time>2021-01-24T09:59:44.000Z</time>
      </trkpt>
      <trkpt lat="46.51928" lon="0.3351">
        <ele>75</ele>
        <time>2021-01-24T09:59:45.000Z</time>
      </trkpt>
      <trkpt lat="46.5193" lon="0.33517">
        <ele>75</ele>
        <time>2021-01-24T09:59:46.000Z</time>
      </trkpt>
      <trkpt lat="46.51932" lon="0.33523">
        <ele>75</ele>
        <time>2021-01-24T09:59:47.000Z</time>
      </trkpt>
      <trkpt lat="46.51933" lon="0.33528">
        <ele>75</ele>
        <time>2021-01-24T09:59:48.000Z</time>
      </trkpt>
      <trkpt lat="46.51934" lon="0.33533">
        <ele>75</ele>
        <time>2021-01-24T09:59:49.000Z</time>
      </trkpt>
      <trkpt lat="46.51936" lon="0.33537">
        <ele>75</ele>
        <time>2021-01-24T09:59:50.000Z</time>
      </trkpt>
      <trkpt lat="46.51936" lon="0.33541">
        <ele>75</ele>
        <time>2021-01-24T09:59:51.000Z</time>
      </trkpt>
      <trkpt lat="46.51938" lon="0.33545">
        <ele>74.8</ele>
        <time>2021-01-24T09:59:52.000Z</time>
      </trkpt>
      <trkpt lat="46.51939" lon="0.33548">
        <ele>75</ele>
        <time>2021-01-24T09:59:53.000Z</time>
      </trkpt>
      <trkpt lat="46.5194" lon="0.33552">
        <ele>75</ele>
        <time>2021-01-24T09:59:54.000Z</time>
      </trkpt>
      <trkpt lat="46.51941" lon="0.33555">
        <ele>75</ele>
        <time>2021-01-24T09:59:55.000Z</time>
      </trkpt>
      <trkpt lat="46.51942" lon="0.33559">
        <ele>75</ele>
        <time>2021-01-24T09:59:56.000Z</time>
      </trkpt>
      <trkpt lat="46.51943" lon="0.33563">
        <ele>75</ele>
        <time>2021-01-24T09:59:57.000Z</time>
      </trkpt>
      <trkpt lat="46.51944" lon="0.33566">
        <ele>75</ele>
        <time>2021-01-24T09:59:58.000Z</time>
      </trkpt>
      <trkpt lat="46.51946" lon="0.3357">
        <ele>75</ele>
        <time>2021-01-24T09:59:59.000Z</time>
      </trkpt>
      <trkpt lat="46.51948" lon="0.33574">
        <ele>75</ele>
        <time>2021-01-24T10:00:00.000Z</time>
      </trkpt>
      <trkpt lat="46.51949" lon="0.33578">
        <ele>75</ele>
        <time>2021-01-24T10:00:01.000Z</time>
      </trkpt>
      <trkpt lat="46.5195" lon="0.33581">
        <ele>75</ele>
        <time>2021-01-24T10:00:02.000Z</time>
      </trkpt>
      <trkpt lat="46.51951" lon="0.33585">
        <ele>75</ele>
        <time>2021-01-24T10:00:03.000Z</time>
      </trkpt>
      <trkpt lat="46.51952" lon="0.33589">
        <ele>75</ele>
        <time>2021-01-24T10:00:04.000Z</time>
      </trkpt>
      <trkpt lat="46.51954" lon="0.33593">
        <ele>75</ele>
        <time>2021-01-24T10:00:05.000Z</time>
      </trkpt>
      <trkpt lat="46.51955" lon="0.33596">
        <ele>74.8</ele>
        <time>2021-01-24T10:00:06.000Z</time>
      </trkpt>
      <trkpt lat="46.51956" lon="0.336">
        <ele>74.8</ele>
        <time>2021-01-24T10:00:07.000Z</time>
      </trkpt>
      <trkpt lat="46.51957" lon="0.33603">
        <ele>74.8</ele>
        <time>2021-01-24T10:00:08.000Z</time>
      </trkpt>
      <trkpt lat="46.51958" lon="0.33607">
        <ele>74.8</ele>
        <time>2021-01-24T10:00:09.000Z</time>
      </trkpt>
      <trkpt lat="46.5196" lon="0.33611">
        <ele>74.8</ele>
        <time>2021-01-24T10:00:10.000Z</time>
      </trkpt>
      <trkpt lat="46.5196" lon="0.33614">
        <ele>74.8</ele>
        <time>2021-01-24T10:00:11.000Z</time>
      </trkpt>
      <trkpt lat="46.51961" lon="0.33617">
        <ele>74.8</ele>
        <time>2021-01-24T10:00:12.000Z</time>
      </trkpt>
      <trkpt lat="46.51962" lon="0.33621">
        <ele>74.6</ele>
        <time>2021-01-24T10:00:13.000Z</time>
      </trkpt>
      <trkpt lat="46.51963" lon="0.33625">
        <ele>74.6</ele>
        <time>2021-01-24T10:00:14.000Z</time>
      </trkpt>
      <trkpt lat="46.51964" lon="0.33628">
        <ele>74.6</ele>
        <time>2021-01-24T10:00:15.000Z</time>
      </trkpt>
      <trkpt lat="46.51966" lon="0.33632">
        <ele>74.4</ele>
        <time>2021-01-24T10:00:16.000Z</time>
      </trkpt>
      <trkpt lat="46.51967" lon="0.33636">
        <ele>74.4</ele>
        <time>2021-01-24T10:00:17.000Z</time>
      </trkpt>
      <trkpt lat="46.51968" lon="0.3364">
        <ele>74.4</ele>
        <time>2021-01-24T10:00:18.000Z</time>
      </trkpt>
      <trkpt lat="46.5197" lon="0.33644">
        <ele>74.4</ele>
        <time>2021-01-24T10:00:19.000Z</time>
      </trkpt>
      <trkpt lat="46.5197" lon="0.33647">
        <ele>74.4</ele>
        <time>2021-01-24T10:00:20.000Z</time>
      </trkpt>
      <trkpt lat="46.51972" lon="0.33652">
        <ele>74.4</ele>
        <time>2021-01-24T10:00:21.000Z</time>
      </trkpt>
      <trkpt lat="46.51972" lon="0.33656">
        <ele>74.4</ele>
        <time>2021-01-24T10:00:22.000Z</time>
      </trkpt>
      <trkpt lat="46.51972" lon="0.33659">
        <ele>74.2</ele>
        <time>2021-01-24T10:00:23.000Z</time>
      </trkpt>
      <trkpt lat="46.51973" lon="0.33663">
        <ele>74.2</ele>
        <time>2021-01-24T10:00:24.000Z</time>
      </trkpt>
      <trkpt lat="46.51973" lon="0.33666">
        <ele>74</ele>
        <time>2021-01-24T10:00:25.000Z</time>
      </trkpt>
      <trkpt lat="46.51974" lon="0.33669">
        <ele>74</ele>
        <time>2021-01-24T10:00:26.000Z</time>
      </trkpt>
      <trkpt lat="46.51973" lon="0.33672">
        <ele>74</ele>
        <time>2021-01-24T10:00:27.000Z</time>
      </trkpt>
      <trkpt lat="46.51973" lon="0.33672">
        <ele>73.8</ele>
        <time>2021-01-24T10:00:28.000Z</time>
      </trkpt>
      <trkpt lat="46.51973" lon="0.33678">
        <ele>73.8</ele>
        <time>2021-01-24T10:00:29.000Z</time>
      </trkpt>
      <trkpt lat="46.51974" lon="0.33681">
        <ele>73.8</ele>
        <time>2021-01-24T10:00:30.000Z</time>
      </trkpt>
      <trkpt lat="46.51976" lon="0.33684">
        <ele>73.8</ele>
        <time>2021-01-24T10:00:31.000Z</time>
      </trkpt>
      <trkpt lat="46.51978" lon="0.33687">
        <ele>73.6</ele>
        <time>2021-01-24T10:00:32.000Z</time>
      </trkpt>
      <trkpt lat="46.5198" lon="0.3369">
        <ele>73.6</ele>
        <time>2021-01-24T10:00:33.000Z</time>
      </trkpt>
      <trkpt lat="46.51982" lon="0.33694">
        <ele>73.8</ele>
        <time>2021-01-24T10:00:34.000Z</time>
      </trkpt>
      <trkpt lat="46.51984" lon="0.33696">
        <ele>73.8</ele>
        <time>2021-01-24T10:00:35.000Z</time>
      </trkpt>
      <trkpt lat="46.51986" lon="0.33699">
        <ele>73.8</ele>
        <time>2021-01-24T10:00:36.000Z</time>
      </trkpt>
      <trkpt lat="46.51987" lon="0.33702">
        <ele>74</ele>
        <time>2021-01-24T10:00:37.000Z</time>
      </trkpt>
      <trkpt lat="46.51988" lon="0.33704">
        <ele>74</ele>
        <time>2021-01-24T10:00:38.000Z</time>
      </trkpt>
      <trkpt lat="46.51989" lon="0.33708">
        <ele>74</ele>
        <time>2021-01-24T10:00:39.000Z</time>
      </trkpt>
      <trkpt lat="46.51991" lon="0.3371">
        <ele>74.2</ele>
        <time>2021-01-24T10:00:40.000Z</time>
      </trkpt>
      <trkpt lat="46.51992" lon="0.33712">
        <ele>74.2</ele>
        <time>2021-01-24T10:00:41.000Z</time>
      </trkpt>
      <trkpt lat="46.51994" lon="0.33714">
        <ele>74.4</ele>
        <time>2021-01-24T10:00:42.000Z</time>
      </trkpt>
      <trkpt lat="46.51996" lon="0.33716">
        <ele>74.4</ele>
        <time>2021-01-24T10:00:43.000Z</time>
      </trkpt>
      <trkpt lat="46.51997" lon="0.33718">
        <ele>74.6</ele>
        <time>2021-01-24T10:00:44.000Z</time>
      </trkpt>
      <trkpt lat="46.51997" lon="0.33718">
        <ele>74.6</ele>
        <time>2021-01-24T10:00:45.000Z</time>
      </trkpt>
      <trkpt lat="46.52" lon="0.33722">
        <ele>74.8</ele>
        <time>2021-01-24T10:00:46.000Z</time>
      </trkpt>
      <trkpt lat="46.52" lon="0.33722">
        <ele>74.8</ele>
        <time>2021-01-24T10:00:47.000Z</time>
      </trkpt>
      <trkpt lat="46.52004" lon="0.33724">
        <ele>74.8</ele>
        <time>2021-01-24T10:00:48.000Z</time>
      </trkpt>
      <trkpt lat="46.52004" lon="0.33724">
        <ele>75</ele>
        <time>2021-01-24T10:00:49.000Z</time>
      </trkpt>
      <trkpt lat="46.52007" lon="0.33726">
        <ele>75</ele>
        <time>2021-01-24T10:00:50.000Z</time>
      </trkpt>
      <trkpt lat="46.52007" lon="0.33726">
        <ele>75</ele>
        <time>2021-01-24T10:00:51.000Z</time>
      </trkpt>
      <trkpt lat="46.5201" lon="0.33727">
        <ele>75.2</ele>
        <time>2021-01-24T10:00:52.000Z</time>
      </trkpt>
      <trkpt lat="46.52012" lon="0.33727">
        <ele>75.2</ele>
        <time>2021-01-24T10:00:53.000Z</time>
      </trkpt>
      <trkpt lat="46.52014" lon="0.33728">
        <ele>75.2</ele>
        <time>2021-01-24T10:00:54.000Z</time>
      </trkpt>
      <trkpt lat="46.52016" lon="0.33727">
        <ele>75.4</ele>
        <time>2021-01-24T10:00:55.000Z</time>
      </trkpt>
      <trkpt lat="46.52018" lon="0.33728">
        <ele>75.4</ele>
        <time>2021-01-24T10:00:56.000Z</time>
      </trkpt>
      <trkpt lat="46.52022" lon="0.33729">
        <ele>75.6</ele>
        <time>2021-01-24T10:00:57.000Z</time>
      </trkpt>
      <trkpt lat="46.52026" lon="0.33729">
        <ele>75.6</ele>
        <time>2021-01-24T10:00:58.000Z</time>
      </trkpt>
      <trkpt lat="46.5203" lon="0.3373">
        <ele>75.6</ele>
        <time>2021-01-24T10:00:59.000Z</time>
      </trkpt>
      <trkpt lat="46.52034" lon="0.3373">
        <ele>75.8</ele>
        <time>2021-01-24T10:01:00.000Z</time>
      </trkpt>
      <trkpt lat="46.52036" lon="0.3373">
        <ele>76</ele>
        <time>2021-01-24T10:01:01.000Z</time>
      </trkpt>
      <trkpt lat="46.52039" lon="0.3373">
        <ele>76</ele>
        <time>2021-01-24T10:01:02.000Z</time>
      </trkpt>
      <trkpt lat="46.52042" lon="0.3373">
        <ele>76.2</ele>
        <time>2021-01-24T10:01:03.000Z</time>
      </trkpt>
      <trkpt lat="46.52044" lon="0.33731">
        <ele>76.2</ele>
        <time>2021-01-24T10:01:04.000Z</time>
      </trkpt>
      <trkpt lat="46.52046" lon="0.33732">
        <ele>76.2</ele>
        <time>2021-01-24T10:01:05.000Z</time>
      </trkpt>
      <trkpt lat="46.5205" lon="0.33733">
        <ele>76.2</ele>
        <time>2021-01-24T10:01:06.000Z</time>
      </trkpt>
      <trkpt lat="46.52052" lon="0.33733">
        <ele>76.2</ele>
        <time>2021-01-24T10:01:07.000Z</time>
      </trkpt>
      <trkpt lat="46.52054" lon="0.33734">
        <ele>76.2</ele>
        <time>2021-01-24T10:01:08.000Z</time>
      </trkpt>
      <trkpt lat="46.52057" lon="0.33735">
        <ele>76.2</ele>
        <time>2021-01-24T10:01:09.000Z</time>
      </trkpt>
      <trkpt lat="46.52059" lon="0.33736">
        <ele>76.2</ele>
        <time>2021-01-24T10:01:10.000Z</time>
      </trkpt>
      <trkpt lat="46.52063" lon="0.33738">
        <ele>76.2</ele>
        <time>2021-01-24T10:01:11.000Z</time>
      </trkpt>
      <trkpt lat="46.52067" lon="0.33739">
        <ele>76.4</ele>
        <time>2021-01-24T10:01:12.000Z</time>
      </trkpt>
      <trkpt lat="46.52069" lon="0.3374">
        <ele>76.4</ele>
        <time>2021-01-24T10:01:13.000Z</time>
      </trkpt>
      <trkpt lat="46.52071" lon="0.33742">
        <ele>76.4</ele>
        <time>2021-01-24T10:01:14.000Z</time>
      </trkpt>
      <trkpt lat="46.52073" lon="0.33746">
        <ele>76.6</ele>
        <time>2021-01-24T10:01:15.000Z</time>
      </trkpt>
      <trkpt lat="46.52072" lon="0.33748">
        <ele>76.6</ele>
        <time>2021-01-24T10:01:16.000Z</time>
      </trkpt>
      <trkpt lat="46.52072" lon="0.33751">
        <ele>76.4</ele>
        <time>2021-01-24T10:01:17.000Z</time>
      </trkpt>
      <trkpt lat="46.52071" lon="0.33755">
        <ele>76.4</ele>
        <time>2021-01-24T10:01:18.000Z</time>
      </trkpt>
      <trkpt lat="46.52071" lon="0.33758">
        <ele>76.4</ele>
        <time>2021-01-24T10:01:19.000Z</time>
      </trkpt>
      <trkpt lat="46.5207" lon="0.33761">
        <ele>76.4</ele>
        <time>2021-01-24T10:01:20.000Z</time>
      </trkpt>
      <trkpt lat="46.52069" lon="0.33764">
        <ele>76.4</ele>
        <time>2021-01-24T10:01:21.000Z</time>
      </trkpt>
      <trkpt lat="46.52068" lon="0.33768">
        <ele>76.4</ele>
        <time>2021-01-24T10:01:22.000Z</time>
      </trkpt>
      <trkpt lat="46.52067" lon="0.33771">
        <ele>76.2</ele>
        <time>2021-01-24T10:01:23.000Z</time>
      </trkpt>
      <trkpt lat="46.52066" lon="0.33775">
        <ele>76.2</ele>
        <time>2021-01-24T10:01:24.000Z</time>
      </trkpt>
      <trkpt lat="46.52065" lon="0.3378">
        <ele>76</ele>
        <time>2021-01-24T10:01:25.000Z</time>
      </trkpt>
      <trkpt lat="46.52065" lon="0.33783">
        <ele>76</ele>
        <time>2021-01-24T10:01:26.000Z</time>
      </trkpt>
      <trkpt lat="46.52065" lon="0.33787">
        <ele>76</ele>
        <time>2021-01-24T10:01:27.000Z</time>
      </trkpt>
      <trkpt lat="46.52063" lon="0.33793">
        <ele>76</ele>
        <time>2021-01-24T10:01:28.000Z</time>
      </trkpt>
      <trkpt lat="46.52063" lon="0.33796">
        <ele>75.8</ele>
        <time>2021-01-24T10:01:29.000Z</time>
      </trkpt>
      <trkpt lat="46.52063" lon="0.33801">
        <ele>75.8</ele>
        <time>2021-01-24T10:01:30.000Z</time>
      </trkpt>
      <trkpt lat="46.52062" lon="0.33807">
        <ele>75.8</ele>
        <time>2021-01-24T10:01:31.000Z</time>
      </trkpt>
      <trkpt lat="46.52062" lon="0.33812">
        <ele>75.8</ele>
        <time>2021-01-24T10:01:32.000Z</time>
      </trkpt>
      <trkpt lat="46.52062" lon="0.33816">
        <ele>75.8</ele>
        <time>2021-01-24T10:01:33.000Z</time>
      </trkpt>
      <trkpt lat="46.52062" lon="0.3382">
        <ele>75.6</ele>
        <time>2021-01-24T10:01:34.000Z</time>
      </trkpt>
      <trkpt lat="46.52063" lon="0.33825">
        <ele>75.6</ele>
        <time>2021-01-24T10:01:35.000Z</time>
      </trkpt>
      <trkpt lat="46.52063" lon="0.33829">
        <ele>75.6</ele>
        <time>2021-01-24T10:01:36.000Z</time>
      </trkpt>
      <trkpt lat="46.52063" lon="0.33835">
        <ele>75.6</ele>
        <time>2021-01-24T10:01:37.000Z</time>
      </trkpt>
      <trkpt lat="46.52063" lon="0.3384">
        <ele>75.6</ele>
        <time>2021-01-24T10:01:38.000Z</time>
      </trkpt>
      <trkpt lat="46.52064" lon="0.33845">
        <ele>75.6</ele>
        <time>2021-01-24T10:01:39.000Z</time>
      </trkpt>
      <trkpt lat="46.52064" lon="0.3385">
        <ele>75.4</ele>
        <time>2021-01-24T10:01:40.000Z</time>
      </trkpt>
      <trkpt lat="46.52065" lon="0.33855">
        <ele>75.4</ele>
        <time>2021-01-24T10:01:41.000Z</time>
      </trkpt>
      <trkpt lat="46.52065" lon="0.3386">
        <ele>75.4</ele>
        <time>2021-01-24T10:01:42.000Z</time>
      </trkpt>
      <trkpt lat="46.52065" lon="0.33865">
        <ele>75.2</ele>
        <time>2021-01-24T10:01:43.000Z</time>
      </trkpt>
      <trkpt lat="46.52065" lon="0.33869">
        <ele>75.2</ele>
        <time>2021-01-24T10:01:44.000Z</time>
      </trkpt>
      <trkpt lat="46.52066" lon="0.33876">
        <ele>75</ele>
        <time>2021-01-24T10:01:45.000Z</time>
      </trkpt>
      <trkpt lat="46.52067" lon="0.3388">
        <ele>75</ele>
        <time>2021-01-24T10:01:46.000Z</time>
      </trkpt>
      <trkpt lat="46.52068" lon="0.33886">
        <ele>74.8</ele>
        <time>2021-01-24T10:01:47.000Z</time>
      </trkpt>
      <trkpt lat="46.52069" lon="0.33891">
        <ele>74.8</ele>
        <time>2021-01-24T10:01:48.000Z</time>
      </trkpt>
      <trkpt lat="46.52069" lon="0.33895">
        <ele>74.8</ele>
        <time>2021-01-24T10:01:49.000Z</time>
      </trkpt>
      <trkpt lat="46.5207" lon="0.339">
        <ele>74.6</ele>
        <time>2021-01-24T10:01:50.000Z</time>
      </trkpt>
      <trkpt lat="46.52071" lon="0.33905">
        <ele>74.6</ele>
        <time>2021-01-24T10:01:51.000Z</time>
      </trkpt>
      <trkpt lat="46.52073" lon="0.33909">
        <ele>74.6</ele>
        <time>2021-01-24T10:01:52.000Z</time>
      </trkpt>
      <trkpt lat="46.52074" lon="0.33911">
        <ele>74.4</ele>
        <time>2021-01-24T10:01:53.000Z</time>
      </trkpt>
      <trkpt lat="46.52076" lon="0.33915">
        <ele>74.4</ele>
        <time>2021-01-24T10:01:54.000Z</time>
      </trkpt>
      <trkpt lat="46.52077" lon="0.33918">
        <ele>74.4</ele>
        <time>2021-01-24T10:01:55.000Z</time>
      </trkpt>
      <trkpt lat="46.52078" lon="0.33922">
        <ele>74.2</ele>
        <time>2021-01-24T10:01:56.000Z</time>
      </trkpt>
      <trkpt lat="46.52079" lon="0.33926">
        <ele>74.2</ele>
        <time>2021-01-24T10:01:57.000Z</time>
      </trkpt>
      <trkpt lat="46.52081" lon="0.33929">
        <ele>74.2</ele>
        <time>2021-01-24T10:01:58.000Z</time>
      </trkpt>
      <trkpt lat="46.52083" lon="0.33933">
        <ele>74.2</ele>
        <time>2021-01-24T10:01:59.000Z</time>
      </trkpt>
      <trkpt lat="46.52085" lon="0.33937">
        <ele>74.2</ele>
        <time>2021-01-24T10:02:00.000Z</time>
      </trkpt>
      <trkpt lat="46.52087" lon="0.33941">
        <ele>74.2</ele>
        <time>2021-01-24T10:02:01.000Z</time>
      </trkpt>
      <trkpt lat="46.52089" lon="0.33947">
        <ele>74.4</ele>
        <time>2021-01-24T10:02:02.000Z</time>
      </trkpt>
      <trkpt lat="46.52092" lon="0.33951">
        <ele>74.4</ele>
        <time>2021-01-24T10:02:03.000Z</time>
      </trkpt>
      <trkpt lat="46.52095" lon="0.33954">
        <ele>74.4</ele>
        <time>2021-01-24T10:02:04.000Z</time>
      </trkpt>
      <trkpt lat="46.52099" lon="0.33958">
        <ele>74.6</ele>
        <time>2021-01-24T10:02:05.000Z</time>
      </trkpt>
      <trkpt lat="46.52103" lon="0.33961">
        <ele>74.6</ele>
        <time>2021-01-24T10:02:06.000Z</time>
      </trkpt>
      <trkpt lat="46.52109" lon="0.33963">
        <ele>74.8</ele>
        <time>2021-01-24T10:02:07.000Z</time>
      </trkpt>
      <trkpt lat="46.52112" lon="0.33965">
        <ele>74.8</ele>
        <time>2021-01-24T10:02:08.000Z</time>
      </trkpt>
      <trkpt lat="46.52117" lon="0.33967">
        <ele>75</ele>
        <time>2021-01-24T10:02:09.000Z</time>
      </trkpt>
      <trkpt lat="46.52121" lon="0.33968">
        <ele>75</ele>
        <time>2021-01-24T10:02:10.000Z</time>
      </trkpt>
      <trkpt lat="46.52124" lon="0.33969">
        <ele>75</ele>
        <time>2021-01-24T10:02:11.000Z</time>
      </trkpt>
      <trkpt lat="46.52129" lon="0.33971">
        <ele>75</ele>
        <time>2021-01-24T10:02:12.000Z</time>
      </trkpt>
      <trkpt lat="46.52133" lon="0.33973">
        <ele>75.2</ele>
        <time>2021-01-24T10:02:13.000Z</time>
      </trkpt>
      <trkpt lat="46.52137" lon="0.33974">
        <ele>75.2</ele>
        <time>2021-01-24T10:02:14.000Z</time>
      </trkpt>
      <trkpt lat="46.5214" lon="0.33976">
        <ele>75.2</ele>
        <time>2021-01-24T10:02:15.000Z</time>
      </trkpt>
      <trkpt lat="46.52144" lon="0.33978">
        <ele>75.2</ele>
        <time>2021-01-24T10:02:16.000Z</time>
      </trkpt>
      <trkpt lat="46.52149" lon="0.33979">
        <ele>75.2</ele>
        <time>2021-01-24T10:02:17.000Z</time>
      </trkpt>
      <trkpt lat="46.52153" lon="0.33981">
        <ele>75.2</ele>
        <time>2021-01-24T10:02:18.000Z</time>
      </trkpt>
      <trkpt lat="46.52157" lon="0.33981">
        <ele>75.2</ele>
        <time>2021-01-24T10:02:19.000Z</time>
      </trkpt>
      <trkpt lat="46.5216" lon="0.33982">
        <ele>75.2</ele>
        <time>2021-01-24T10:02:20.000Z</time>
      </trkpt>
      <trkpt lat="46.52164" lon="0.33982">
        <ele>75</ele>
        <time>2021-01-24T10:02:21.000Z</time>
      </trkpt>
      <trkpt lat="46.52167" lon="0.33982">
        <ele>75</ele>
        <time>2021-01-24T10:02:22.000Z</time>
      </trkpt>
      <trkpt lat="46.5217" lon="0.33982">
        <ele>75</ele>
        <time>2021-01-24T10:02:23.000Z</time>
      </trkpt>
      <trkpt lat="46.52175" lon="0.33982">
        <ele>74.8</ele>
        <time>2021-01-24T10:02:24.000Z</time>
      </trkpt>
      <trkpt lat="46.52179" lon="0.33981">
        <ele>74.8</ele>
        <time>2021-01-24T10:02:25.000Z</time>
      </trkpt>
      <trkpt lat="46.52185" lon="0.3398">
        <ele>74.8</ele>
        <time>2021-01-24T10:02:26.000Z</time>
      </trkpt>
      <trkpt lat="46.52189" lon="0.3398">
        <ele>74.8</ele>
        <time>2021-01-24T10:02:27.000Z</time>
      </trkpt>
      <trkpt lat="46.52194" lon="0.33979">
        <ele>74.8</ele>
        <time>2021-01-24T10:02:28.000Z</time>
      </trkpt>
      <trkpt lat="46.52198" lon="0.33978">
        <ele>74.8</ele>
        <time>2021-01-24T10:02:29.000Z</time>
      </trkpt>
      <trkpt lat="46.52204" lon="0.33977">
        <ele>74.8</ele>
        <time>2021-01-24T10:02:30.000Z</time>
      </trkpt>
      <trkpt lat="46.52209" lon="0.33976">
        <ele>74.8</ele>
        <time>2021-01-24T10:02:31.000Z</time>
      </trkpt>
      <trkpt lat="46.52214" lon="0.33975">
        <ele>74.8</ele>
        <time>2021-01-24T10:02:32.000Z</time>
      </trkpt>
      <trkpt lat="46.52219" lon="0.33973">
        <ele>74.8</ele>
        <time>2021-01-24T10:02:33.000Z</time>
      </trkpt>
      <trkpt lat="46.52222" lon="0.33971">
        <ele>74.8</ele>
        <time>2021-01-24T10:02:34.000Z</time>
      </trkpt>
      <trkpt lat="46.52226" lon="0.33968">
        <ele>74.8</ele>
        <time>2021-01-24T10:02:35.000Z</time>
      </trkpt>
      <trkpt lat="46.5223" lon="0.33964">
        <ele>74.6</ele>
        <time>2021-01-24T10:02:36.000Z</time>
      </trkpt>
      <trkpt lat="46.52232" lon="0.3396">
        <ele>74.6</ele>
        <time>2021-01-24T10:02:37.000Z</time>
      </trkpt>
      <trkpt lat="46.52236" lon="0.33957">
        <ele>74.6</ele>
        <time>2021-01-24T10:02:38.000Z</time>
      </trkpt>
      <trkpt lat="46.52239" lon="0.33952">
        <ele>74.6</ele>
        <time>2021-01-24T10:02:39.000Z</time>
      </trkpt>
      <trkpt lat="46.52243" lon="0.33949">
        <ele>74.4</ele>
        <time>2021-01-24T10:02:40.000Z</time>
      </trkpt>
      <trkpt lat="46.52247" lon="0.33945">
        <ele>74.4</ele>
        <time>2021-01-24T10:02:41.000Z</time>
      </trkpt>
      <trkpt lat="46.52251" lon="0.33942">
        <ele>74.4</ele>
        <time>2021-01-24T10:02:42.000Z</time>
      </trkpt>
      <trkpt lat="46.52254" lon="0.33939">
        <ele>74.4</ele>
        <time>2021-01-24T10:02:43.000Z</time>
      </trkpt>
      <trkpt lat="46.52258" lon="0.33935">
        <ele>74.2</ele>
        <time>2021-01-24T10:02:44.000Z</time>
      </trkpt>
      <trkpt lat="46.52261" lon="0.33932">
        <ele>74.2</ele>
        <time>2021-01-24T10:02:45.000Z</time>
      </trkpt>
      <trkpt lat="46.52265" lon="0.33929">
        <ele>74.2</ele>
        <time>2021-01-24T10:02:46.000Z</time>
      </trkpt>
      <trkpt lat="46.52268" lon="0.33926">
        <ele>74.2</ele>
        <time>2021-01-24T10:02:47.000Z</time>
      </trkpt>
      <trkpt lat="46.52273" lon="0.33922">
        <ele>74</ele>
        <time>2021-01-24T10:02:48.000Z</time>
      </trkpt>
      <trkpt lat="46.52277" lon="0.33919">
        <ele>74</ele>
        <time>2021-01-24T10:02:49.000Z</time>
      </trkpt>
      <trkpt lat="46.5228" lon="0.33916">
        <ele>74</ele>
        <time>2021-01-24T10:02:50.000Z</time>
      </trkpt>
      <trkpt lat="46.52285" lon="0.33913">
        <ele>74</ele>
        <time>2021-01-24T10:02:51.000Z</time>
      </trkpt>
      <trkpt lat="46.52288" lon="0.33911">
        <ele>74</ele>
        <time>2021-01-24T10:02:52.000Z</time>
      </trkpt>
      <trkpt lat="46.52292" lon="0.33908">
        <ele>73.8</ele>
        <time>2021-01-24T10:02:53.000Z</time>
      </trkpt>
      <trkpt lat="46.52298" lon="0.33904">
        <ele>73.8</ele>
        <time>2021-01-24T10:02:54.000Z</time>
      </trkpt>
      <trkpt lat="46.52301" lon="0.33901">
        <ele>73.8</ele>
        <time>2021-01-24T10:02:55.000Z</time>
      </trkpt>
      <trkpt lat="46.52306" lon="0.33898">
        <ele>73.8</ele>
        <time>2021-01-24T10:02:56.000Z</time>
      </trkpt>
      <trkpt lat="46.52312" lon="0.33895">
        <ele>73.6</ele>
        <time>2021-01-24T10:02:57.000Z</time>
      </trkpt>
      <trkpt lat="46.52317" lon="0.33891">
        <ele>73.6</ele>
        <time>2021-01-24T10:02:58.000Z</time>
      </trkpt>
      <trkpt lat="46.52321" lon="0.33888">
        <ele>73.6</ele>
        <time>2021-01-24T10:02:59.000Z</time>
      </trkpt>
      <trkpt lat="46.52325" lon="0.33885">
        <ele>73.6</ele>
        <time>2021-01-24T10:03:00.000Z</time>
      </trkpt>
      <trkpt lat="46.52331" lon="0.33881">
        <ele>73.6</ele>
        <time>2021-01-24T10:03:01.000Z</time>
      </trkpt>
      <trkpt lat="46.52335" lon="0.33878">
        <ele>73.6</ele>
        <time>2021-01-24T10:03:02.000Z</time>
      </trkpt>
      <trkpt lat="46.5234" lon="0.33875">
        <ele>73.6</ele>
        <time>2021-01-24T10:03:03.000Z</time>
      </trkpt>
      <trkpt lat="46.52345" lon="0.33872">
        <ele>73.6</ele>
        <time>2021-01-24T10:03:04.000Z</time>
      </trkpt>
      <trkpt lat="46.52349" lon="0.33868">
        <ele>73.6</ele>
        <time>2021-01-24T10:03:05.000Z</time>
      </trkpt>
      <trkpt lat="46.52354" lon="0.33865">
        <ele>73.4</ele>
        <time>2021-01-24T10:03:06.000Z</time>
      </trkpt>
      <trkpt lat="46.52359" lon="0.33862">
        <ele>73.4</ele>
        <time>2021-01-24T10:03:07.000Z</time>
      </trkpt>
      <trkpt lat="46.52363" lon="0.33859">
        <ele>73.4</ele>
        <time>2021-01-24T10:03:08.000Z</time>
      </trkpt>
      <trkpt lat="46.52368" lon="0.33855">
        <ele>73.4</ele>
        <time>2021-01-24T10:03:09.000Z</time>
      </trkpt>
      <trkpt lat="46.52373" lon="0.33852">
        <ele>73.4</ele>
        <time>2021-01-24T10:03:10.000Z</time>
      </trkpt>
      <trkpt lat="46.52377" lon="0.3385">
        <ele>73.4</ele>
        <time>2021-01-24T10:03:11.000Z</time>
      </trkpt>
      <trkpt lat="46.52381" lon="0.33847">
        <ele>73.4</ele>
        <time>2021-01-24T10:03:12.000Z</time>
      </trkpt>
      <trkpt lat="46.52385" lon="0.33845">
        <ele>73.4</ele>
        <time>2021-01-24T10:03:13.000Z</time>
      </trkpt>
      <trkpt lat="46.52389" lon="0.33843">
        <ele>73.2</ele>
        <time>2021-01-24T10:03:14.000Z</time>
      </trkpt>
      <trkpt lat="46.52392" lon="0.3384">
        <ele>73.2</ele>
        <time>2021-01-24T10:03:15.000Z</time>
      </trkpt>
      <trkpt lat="46.52395" lon="0.33837">
        <ele>73.2</ele>
        <time>2021-01-24T10:03:16.000Z</time>
      </trkpt>
      <trkpt lat="46.52398" lon="0.33835">
        <ele>73</ele>
        <time>2021-01-24T10:03:17.000Z</time>
      </trkpt>
      <trkpt lat="46.52402" lon="0.33832">
        <ele>73</ele>
        <time>2021-01-24T10:03:18.000Z</time>
      </trkpt>
      <trkpt lat="46.52405" lon="0.33829">
        <ele>72.8</ele>
        <time>2021-01-24T10:03:19.000Z</time>
      </trkpt>
      <trkpt lat="46.52409" lon="0.33826">
        <ele>72.8</ele>
        <time>2021-01-24T10:03:20.000Z</time>
      </trkpt>
      <trkpt lat="46.52413" lon="0.33823">
        <ele>72.8</ele>
        <time>2021-01-24T10:03:21.000Z</time>
      </trkpt>
      <trkpt lat="46.52416" lon="0.3382">
        <ele>72.6</ele>
        <time>2021-01-24T10:03:22.000Z</time>
      </trkpt>
      <trkpt lat="46.5242" lon="0.33816">
        <ele>72.6</ele>
        <time>2021-01-24T10:03:23.000Z</time>
      </trkpt>
      <trkpt lat="46.52425" lon="0.3381">
        <ele>72.6</ele>
        <time>2021-01-24T10:03:24.000Z</time>
      </trkpt>
      <trkpt lat="46.52429" lon="0.33806">
        <ele>72.6</ele>
        <time>2021-01-24T10:03:25.000Z</time>
      </trkpt>
      <trkpt lat="46.52433" lon="0.33802">
        <ele>72.6</ele>
        <time>2021-01-24T10:03:26.000Z</time>
      </trkpt>
      <trkpt lat="46.52437" lon="0.33797">
        <ele>72.4</ele>
        <time>2021-01-24T10:03:27.000Z</time>
      </trkpt>
      <trkpt lat="46.52441" lon="0.33793">
        <ele>72.6</ele>
        <time>2021-01-24T10:03:28.000Z</time>
      </trkpt>
      <trkpt lat="46.52445" lon="0.33788">
        <ele>72.6</ele>
        <time>2021-01-24T10:03:29.000Z</time>
      </trkpt>
      <trkpt lat="46.52449" lon="0.33784">
        <ele>72.6</ele>
        <time>2021-01-24T10:03:30.000Z</time>
      </trkpt>
      <trkpt lat="46.52454" lon="0.33779">
        <ele>72.4</ele>
        <time>2021-01-24T10:03:31.000Z</time>
      </trkpt>
      <trkpt lat="46.52457" lon="0.33775">
        <ele>72.4</ele>
        <time>2021-01-24T10:03:32.000Z</time>
      </trkpt>
      <trkpt lat="46.52462" lon="0.3377">
        <ele>72.4</ele>
        <time>2021-01-24T10:03:33.000Z</time>
      </trkpt>
      <trkpt lat="46.52465" lon="0.33765">
        <ele>72.4</ele>
        <time>2021-01-24T10:03:34.000Z</time>
      </trkpt>
      <trkpt lat="46.52469" lon="0.3376">
        <ele>72.4</ele>
        <time>2021-01-24T10:03:35.000Z</time>
      </trkpt>
      <trkpt lat="46.52473" lon="0.33755">
        <ele>72.4</ele>
        <time>2021-01-24T10:03:36.000Z</time>
      </trkpt>
      <trkpt lat="46.52475" lon="0.33751">
        <ele>72.4</ele>
        <time>2021-01-24T10:03:37.000Z</time>
      </trkpt>
      <trkpt lat="46.5248" lon="0.33745">
        <ele>72.4</ele>
        <time>2021-01-24T10:03:38.000Z</time>
      </trkpt>
      <trkpt lat="46.52483" lon="0.33742">
        <ele>72.4</ele>
        <time>2021-01-24T10:03:39.000Z</time>
      </trkpt>
      <trkpt lat="46.52486" lon="0.33737">
        <ele>72.6</ele>
        <time>2021-01-24T10:03:40.000Z</time>
      </trkpt>
      <trkpt lat="46.5249" lon="0.33731">
        <ele>72.6</ele>
        <time>2021-01-24T10:03:41.000Z</time>
      </trkpt>
      <trkpt lat="46.52493" lon="0.33727">
        <ele>72.6</ele>
        <time>2021-01-24T10:03:42.000Z</time>
      </trkpt>
      <trkpt lat="46.52495" lon="0.33723">
        <ele>72.6</ele>
        <time>2021-01-24T10:03:43.000Z</time>
      </trkpt>
      <trkpt lat="46.52498" lon="0.33717">
        <ele>72.4</ele>
        <time>2021-01-24T10:03:44.000Z</time>
      </trkpt>
      <trkpt lat="46.52499" lon="0.33713">
        <ele>72.4</ele>
        <time>2021-01-24T10:03:45.000Z</time>
      </trkpt>
      <trkpt lat="46.52501" lon="0.33708">
        <ele>72.4</ele>
        <time>2021-01-24T10:03:46.000Z</time>
      </trkpt>
      <trkpt lat="46.52503" lon="0.33702">
        <ele>72.4</ele>
        <time>2021-01-24T10:03:47.000Z</time>
      </trkpt>
      <trkpt lat="46.52503" lon="0.33697">
        <ele>72.4</ele>
        <time>2021-01-24T10:03:48.000Z</time>
      </trkpt>
      <trkpt lat="46.52504" lon="0.33692">
        <ele>72.4</ele>
        <time>2021-01-24T10:03:49.000Z</time>
      </trkpt>
      <trkpt lat="46.52504" lon="0.33686">
        <ele>72.6</ele>
        <time>2021-01-24T10:03:50.000Z</time>
      </trkpt>
      <trkpt lat="46.52503" lon="0.33681">
        <ele>72.6</ele>
        <time>2021-01-24T10:03:51.000Z</time>
      </trkpt>
      <trkpt lat="46.52503" lon="0.33677">
        <ele>72.6</ele>
        <time>2021-01-24T10:03:52.000Z</time>
      </trkpt>
      <trkpt lat="46.52503" lon="0.33672">
        <ele>72.8</ele>
        <time>2021-01-24T10:03:53.000Z</time>
      </trkpt>
      <trkpt lat="46.52503" lon="0.33669">
        <ele>72.8</ele>
        <time>2021-01-24T10:03:54.000Z</time>
      </trkpt>
      <trkpt lat="46.52504" lon="0.33663">
        <ele>73</ele>
        <time>2021-01-24T10:03:55.000Z</time>
      </trkpt>
      <trkpt lat="46.52506" lon="0.3366">
        <ele>73</ele>
        <time>2021-01-24T10:03:56.000Z</time>
      </trkpt>
      <trkpt lat="46.52507" lon="0.33656">
        <ele>73</ele>
        <time>2021-01-24T10:03:57.000Z</time>
      </trkpt>
      <trkpt lat="46.52509" lon="0.33654">
        <ele>73.2</ele>
        <time>2021-01-24T10:03:58.000Z</time>
      </trkpt>
      <trkpt lat="46.5251" lon="0.3365">
        <ele>73.2</ele>
        <time>2021-01-24T10:03:59.000Z</time>
      </trkpt>
      <trkpt lat="46.52512" lon="0.33646">
        <ele>73.2</ele>
        <time>2021-01-24T10:04:00.000Z</time>
      </trkpt>
      <trkpt lat="46.52513" lon="0.33643">
        <ele>73.2</ele>
        <time>2021-01-24T10:04:01.000Z</time>
      </trkpt>
      <trkpt lat="46.52515" lon="0.3364">
        <ele>73.4</ele>
        <time>2021-01-24T10:04:02.000Z</time>
      </trkpt>
      <trkpt lat="46.52516" lon="0.33637">
        <ele>73.4</ele>
        <time>2021-01-24T10:04:03.000Z</time>
      </trkpt>
      <trkpt lat="46.52517" lon="0.33634">
        <ele>73.6</ele>
        <time>2021-01-24T10:04:04.000Z</time>
      </trkpt>
      <trkpt lat="46.52519" lon="0.3363">
        <ele>73.6</ele>
        <time>2021-01-24T10:04:05.000Z</time>
      </trkpt>
      <trkpt lat="46.5252" lon="0.33628">
        <ele>73.8</ele>
        <time>2021-01-24T10:04:06.000Z</time>
      </trkpt>
      <trkpt lat="46.52522" lon="0.33623">
        <ele>73.8</ele>
        <time>2021-01-24T10:04:07.000Z</time>
      </trkpt>
      <trkpt lat="46.52524" lon="0.3362">
        <ele>74</ele>
        <time>2021-01-24T10:04:08.000Z</time>
      </trkpt>
      <trkpt lat="46.52525" lon="0.33617">
        <ele>74.2</ele>
        <time>2021-01-24T10:04:09.000Z</time>
      </trkpt>
      <trkpt lat="46.52526" lon="0.33613">
        <ele>74.4</ele>
        <time>2021-01-24T10:04:10.000Z</time>
      </trkpt>
      <trkpt lat="46.52527" lon="0.33609">
        <ele>74.6</ele>
        <time>2021-01-24T10:04:11.000Z</time>
      </trkpt>
      <trkpt lat="46.52528" lon="0.33605">
        <ele>74.6</ele>
        <time>2021-01-24T10:04:12.000Z</time>
      </trkpt>
      <trkpt lat="46.52528" lon="0.33601">
        <ele>74.8</ele>
        <time>2021-01-24T10:04:13.000Z</time>
      </trkpt>
      <trkpt lat="46.52528" lon="0.33596">
        <ele>74.8</ele>
        <time>2021-01-24T10:04:14.000Z</time>
      </trkpt>
      <trkpt lat="46.52528" lon="0.33592">
        <ele>75</ele>
        <time>2021-01-24T10:04:15.000Z</time>
      </trkpt>
      <trkpt lat="46.52528" lon="0.33587">
        <ele>75</ele>
        <time>2021-01-24T10:04:16.000Z</time>
      </trkpt>
      <trkpt lat="46.52527" lon="0.33584">
        <ele>75.2</ele>
        <time>2021-01-24T10:04:17.000Z</time>
      </trkpt>
      <trkpt lat="46.52527" lon="0.3358">
        <ele>75.4</ele>
        <time>2021-01-24T10:04:18.000Z</time>
      </trkpt>
      <trkpt lat="46.52527" lon="0.33576">
        <ele>75.4</ele>
        <time>2021-01-24T10:04:19.000Z</time>
      </trkpt>
      <trkpt lat="46.52526" lon="0.33572">
        <ele>75.6</ele>
        <time>2021-01-24T10:04:20.000Z</time>
      </trkpt>
      <trkpt lat="46.52526" lon="0.33568">
        <ele>75.8</ele>
        <time>2021-01-24T10:04:21.000Z</time>
      </trkpt>
      <trkpt lat="46.52525" lon="0.33564">
        <ele>75.8</ele>
        <time>2021-01-24T10:04:22.000Z</time>
      </trkpt>
      <trkpt lat="46.52525" lon="0.3356">
        <ele>76</ele>
        <time>2021-01-24T10:04:23.000Z</time>
      </trkpt>
      <trkpt lat="46.52525" lon="0.33556">
        <ele>76.2</ele>
        <time>2021-01-24T10:04:24.000Z</time>
      </trkpt>
      <trkpt lat="46.52524" lon="0.33552">
        <ele>76.2</ele>
        <time>2021-01-24T10:04:25.000Z</time>
      </trkpt>
      <trkpt lat="46.52524" lon="0.33548">
        <ele>76.4</ele>
        <time>2021-01-24T10:04:26.000Z</time>
      </trkpt>
      <trkpt lat="46.52524" lon="0.33544">
        <ele>76.6</ele>
        <time>2021-01-24T10:04:27.000Z</time>
      </trkpt>
      <trkpt lat="46.52523" lon="0.3354">
        <ele>76.8</ele>
        <time>2021-01-24T10:04:28.000Z</time>
      </trkpt>
      <trkpt lat="46.52523" lon="0.33536">
        <ele>76.8</ele>
        <time>2021-01-24T10:04:29.000Z</time>
      </trkpt>
      <trkpt lat="46.52522" lon="0.33532">
        <ele>77</ele>
        <time>2021-01-24T10:04:30.000Z</time>
      </trkpt>
      <trkpt lat="46.52522" lon="0.33528">
        <ele>77.2</ele>
        <time>2021-01-24T10:04:31.000Z</time>
      </trkpt>
      <trkpt lat="46.52522" lon="0.33523">
        <ele>77.2</ele>
        <time>2021-01-24T10:04:32.000Z</time>
      </trkpt>
      <trkpt lat="46.52522" lon="0.33519">
        <ele>77.4</ele>
        <time>2021-01-24T10:04:33.000Z</time>
      </trkpt>
      <trkpt lat="46.52522" lon="0.33515">
        <ele>77.4</ele>
        <time>2021-01-24T10:04:34.000Z</time>
      </trkpt>
      <trkpt lat="46.52522" lon="0.33511">
        <ele>77.6</ele>
        <time>2021-01-24T10:04:35.000Z</time>
      </trkpt>
      <trkpt lat="46.52522" lon="0.33507">
        <ele>77.8</ele>
        <time>2021-01-24T10:04:36.000Z</time>
      </trkpt>
      <trkpt lat="46.52523" lon="0.33504">
        <ele>78</ele>
        <time>2021-01-24T10:04:37.000Z</time>
      </trkpt>
      <trkpt lat="46.52523" lon="0.335">
        <ele>78.2</ele>
        <time>2021-01-24T10:04:38.000Z</time>
      </trkpt>
      <trkpt lat="46.52523" lon="0.33497">
        <ele>78.4</ele>
        <time>2021-01-24T10:04:39.000Z</time>
      </trkpt>
      <trkpt lat="46.52524" lon="0.33494">
        <ele>78.6</ele>
        <time>2021-01-24T10:04:40.000Z</time>
      </trkpt>
      <trkpt lat="46.52524" lon="0.3349">
        <ele>78.8</ele>
        <time>2021-01-24T10:04:41.000Z</time>
      </trkpt>
      <trkpt lat="46.52524" lon="0.33487">
        <ele>79</ele>
        <time>2021-01-24T10:04:42.000Z</time>
      </trkpt>
      <trkpt lat="46.52525" lon="0.33483">
        <ele>79</ele>
        <time>2021-01-24T10:04:43.000Z</time>
      </trkpt>
      <trkpt lat="46.52525" lon="0.33479">
        <ele>79.2</ele>
        <time>2021-01-24T10:04:44.000Z</time>
      </trkpt>
      <trkpt lat="46.52525" lon="0.33476">
        <ele>79.4</ele>
        <time>2021-01-24T10:04:45.000Z</time>
      </trkpt>
      <trkpt lat="46.52526" lon="0.33473">
        <ele>79.6</ele>
        <time>2021-01-24T10:04:46.000Z</time>
      </trkpt>
      <trkpt lat="46.52526" lon="0.33469">
        <ele>79.8</ele>
        <time>2021-01-24T10:04:47.000Z</time>
      </trkpt>
      <trkpt lat="46.52527" lon="0.33466">
        <ele>79.8</ele>
        <time>2021-01-24T10:04:48.000Z</time>
      </trkpt>
      <trkpt lat="46.52528" lon="0.33461">
        <ele>80</ele>
        <time>2021-01-24T10:04:49.000Z</time>
      </trkpt>
      <trkpt lat="46.52528" lon="0.33457">
        <ele>80</ele>
        <time>2021-01-24T10:04:50.000Z</time>
      </trkpt>
      <trkpt lat="46.52529" lon="0.33454">
        <ele>80.2</ele>
        <time>2021-01-24T10:04:51.000Z</time>
      </trkpt>
      <trkpt lat="46.5253" lon="0.3345">
        <ele>80.4</ele>
        <time>2021-01-24T10:04:52.000Z</time>
      </trkpt>
      <trkpt lat="46.5253" lon="0.33446">
        <ele>80.4</ele>
        <time>2021-01-24T10:04:53.000Z</time>
      </trkpt>
      <trkpt lat="46.5253" lon="0.33442">
        <ele>80.4</ele>
        <time>2021-01-24T10:04:54.000Z</time>
      </trkpt>
      <trkpt lat="46.5253" lon="0.33439">
        <ele>80.6</ele>
        <time>2021-01-24T10:04:55.000Z</time>
      </trkpt>
      <trkpt lat="46.5253" lon="0.33435">
        <ele>80.6</ele>
        <time>2021-01-24T10:04:56.000Z</time>
      </trkpt>
      <trkpt lat="46.52531" lon="0.33431">
        <ele>80.6</ele>
        <time>2021-01-24T10:04:57.000Z</time>
      </trkpt>
      <trkpt lat="46.52531" lon="0.33427">
        <ele>80.8</ele>
        <time>2021-01-24T10:04:58.000Z</time>
      </trkpt>
      <trkpt lat="46.52532" lon="0.33425">
        <ele>80.8</ele>
        <time>2021-01-24T10:04:59.000Z</time>
      </trkpt>
      <trkpt lat="46.52534" lon="0.33422">
        <ele>81</ele>
        <time>2021-01-24T10:05:00.000Z</time>
      </trkpt>
      <trkpt lat="46.52534" lon="0.33422">
        <ele>81.2</ele>
        <time>2021-01-24T10:05:01.000Z</time>
      </trkpt>
      <trkpt lat="46.52536" lon="0.33417">
        <ele>81.4</ele>
        <time>2021-01-24T10:05:02.000Z</time>
      </trkpt>
      <trkpt lat="46.52537" lon="0.33415">
        <ele>81.4</ele>
        <time>2021-01-24T10:05:03.000Z</time>
      </trkpt>
      <trkpt lat="46.52539" lon="0.33412">
        <ele>81.6</ele>
        <time>2021-01-24T10:05:04.000Z</time>
      </trkpt>
      <trkpt lat="46.52541" lon="0.33409">
        <ele>81.8</ele>
        <time>2021-01-24T10:05:05.000Z</time>
      </trkpt>
      <trkpt lat="46.52542" lon="0.33406">
        <ele>82</ele>
        <time>2021-01-24T10:05:06.000Z</time>
      </trkpt>
      <trkpt lat="46.52544" lon="0.33403">
        <ele>82.2</ele>
        <time>2021-01-24T10:05:07.000Z</time>
      </trkpt>
      <trkpt lat="46.52546" lon="0.33401">
        <ele>82.2</ele>
        <time>2021-01-24T10:05:08.000Z</time>
      </trkpt>
      <trkpt lat="46.52548" lon="0.33398">
        <ele>82.4</ele>
        <time>2021-01-24T10:05:09.000Z</time>
      </trkpt>
      <trkpt lat="46.5255" lon="0.33396">
        <ele>82.4</ele>
        <time>2021-01-24T10:05:10.000Z</time>
      </trkpt>
      <trkpt lat="46.52552" lon="0.33394">
        <ele>82.6</ele>
        <time>2021-01-24T10:05:11.000Z</time>
      </trkpt>
      <trkpt lat="46.52554" lon="0.33392">
        <ele>82.6</ele>
        <time>2021-01-24T10:05:12.000Z</time>
      </trkpt>
      <trkpt lat="46.52556" lon="0.3339">
        <ele>82.8</ele>
        <time>2021-01-24T10:05:13.000Z</time>
      </trkpt>
      <trkpt lat="46.52558" lon="0.33387">
        <ele>83</ele>
        <time>2021-01-24T10:05:14.000Z</time>
      </trkpt>
      <trkpt lat="46.5256" lon="0.33385">
        <ele>83</ele>
        <time>2021-01-24T10:05:15.000Z</time>
      </trkpt>
      <trkpt lat="46.52561" lon="0.33382">
        <ele>83.2</ele>
        <time>2021-01-24T10:05:16.000Z</time>
      </trkpt>
      <trkpt lat="46.52561" lon="0.33382">
        <ele>83.4</ele>
        <time>2021-01-24T10:05:17.000Z</time>
      </trkpt>
      <trkpt lat="46.52565" lon="0.33376">
        <ele>83.6</ele>
        <time>2021-01-24T10:05:18.000Z</time>
      </trkpt>
      <trkpt lat="46.52566" lon="0.33375">
        <ele>83.8</ele>
        <time>2021-01-24T10:05:19.000Z</time>
      </trkpt>
      <trkpt lat="46.52568" lon="0.33373">
        <ele>83.8</ele>
        <time>2021-01-24T10:05:20.000Z</time>
      </trkpt>
      <trkpt lat="46.52569" lon="0.33371">
        <ele>84</ele>
        <time>2021-01-24T10:05:21.000Z</time>
      </trkpt>
      <trkpt lat="46.52571" lon="0.3337">
        <ele>84.2</ele>
        <time>2021-01-24T10:05:22.000Z</time>
      </trkpt>
      <trkpt lat="46.52571" lon="0.3337">
        <ele>84.2</ele>
        <time>2021-01-24T10:05:23.000Z</time>
      </trkpt>
      <trkpt lat="46.52574" lon="0.33368">
        <ele>84.4</ele>
        <time>2021-01-24T10:05:24.000Z</time>
      </trkpt>
      <trkpt lat="46.52574" lon="0.33368">
        <ele>84.6</ele>
        <time>2021-01-24T10:05:25.000Z</time>
      </trkpt>
      <trkpt lat="46.52578" lon="0.33366">
        <ele>84.8</ele>
        <time>2021-01-24T10:05:26.000Z</time>
      </trkpt>
      <trkpt lat="46.5258" lon="0.33365">
        <ele>85</ele>
        <time>2021-01-24T10:05:27.000Z</time>
      </trkpt>
      <trkpt lat="46.5258" lon="0.33365">
        <ele>85.2</ele>
        <time>2021-01-24T10:05:28.000Z</time>
      </trkpt>
      <trkpt lat="46.52582" lon="0.33365">
        <ele>85.4</ele>
        <time>2021-01-24T10:05:29.000Z</time>
      </trkpt>
      <trkpt lat="46.52584" lon="0.33365">
        <ele>85.6</ele>
        <time>2021-01-24T10:05:30.000Z</time>
      </trkpt>
      <trkpt lat="46.52584" lon="0.33365">
        <ele>85.8</ele>
        <time>2021-01-24T10:05:31.000Z</time>
      </trkpt>
      <trkpt lat="46.52588" lon="0.33366">
        <ele>86</ele>
        <time>2021-01-24T10:05:32.000Z</time>
      </trkpt>
      <trkpt lat="46.52588" lon="0.33366">
        <ele>86</ele>
        <time>2021-01-24T10:05:33.000Z</time>
      </trkpt>
      <trkpt lat="46.5259" lon="0.33367">
        <ele>86.2</ele>
        <time>2021-01-24T10:05:34.000Z</time>
      </trkpt>
      <trkpt lat="46.5259" lon="0.33367">
        <ele>86.2</ele>
        <time>2021-01-24T10:05:35.000Z</time>
      </trkpt>
      <trkpt lat="46.5259" lon="0.33367">
        <ele>86.2</ele>
        <time>2021-01-24T10:05:36.000Z</time>
      </trkpt>
      <trkpt lat="46.5259" lon="0.33367">
        <ele>86.4</ele>
        <time>2021-01-24T10:05:37.000Z</time>
      </trkpt>
      <trkpt lat="46.5259" lon="0.33367">
        <ele>86.4</ele>
        <time>2021-01-24T10:05:38.000Z</time>
      </trkpt>
      <trkpt lat="46.52592" lon="0.33368">
        <ele>86.6</ele>
        <time>2021-01-24T10:05:39.000Z</time>
      </trkpt>
      <trkpt lat="46.52592" lon="0.33368">
        <ele>86.8</ele>
        <time>2021-01-24T10:05:40.000Z</time>
      </trkpt>
      <trkpt lat="46.52592" lon="0.33368">
        <ele>87</ele>
        <time>2021-01-24T10:05:41.000Z</time>
      </trkpt>
      <trkpt lat="46.52592" lon="0.33368">
        <ele>87</ele>
        <time>2021-01-24T10:05:42.000Z</time>
      </trkpt>
      <trkpt lat="46.52592" lon="0.33368">
        <ele>87.2</ele>
        <time>2021-01-24T10:05:43.000Z</time>
      </trkpt>
      <trkpt lat="46.52592" lon="0.33368">
        <ele>87.4</ele>
        <time>2021-01-24T10:05:44.000Z</time>
      </trkpt>
      <trkpt lat="46.52592" lon="0.33368">
        <ele>87.6</ele>
        <time>2021-01-24T10:05:45.000Z</time>
      </trkpt>
      <trkpt lat="46.52592" lon="0.33368">
        <ele>87.6</ele>
        <time>2021-01-24T10:05:46.000Z</time>
      </trkpt>
      <trkpt lat="46.52592" lon="0.33368">
        <ele>87.8</ele>
        <time>2021-01-24T10:05:47.000Z</time>
      </trkpt>
      <trkpt lat="46.52592" lon="0.33368">
        <ele>88</ele>
        <time>2021-01-24T10:05:48.000Z</time>
      </trkpt>
      <trkpt lat="46.52592" lon="0.33368">
        <ele>88.2</ele>
        <time>2021-01-24T10:05:49.000Z</time>
      </trkpt>
      <trkpt lat="46.52592" lon="0.33368">
        <ele>88.2</ele>
        <time>2021-01-24T10:05:50.000Z</time>
      </trkpt>
      <trkpt lat="46.52592" lon="0.33368">
        <ele>88.4</ele>
        <time>2021-01-24T10:05:51.000Z</time>
      </trkpt>
      <trkpt lat="46.52592" lon="0.33368">
        <ele>88.4</ele>
        <time>2021-01-24T10:05:52.000Z</time>
      </trkpt>
      <trkpt lat="46.52592" lon="0.33368">
        <ele>88.6</ele>
        <time>2021-01-24T10:05:53.000Z</time>
      </trkpt>
      <trkpt lat="46.52592" lon="0.33368">
        <ele>88.6</ele>
        <time>2021-01-24T10:05:54.000Z</time>
      </trkpt>
      <trkpt lat="46.52592" lon="0.33368">
        <ele>88.8</ele>
        <time>2021-01-24T10:05:55.000Z</time>
      </trkpt>
      <trkpt lat="46.52592" lon="0.33368">
        <ele>88.8</ele>
        <time>2021-01-24T10:05:56.000Z</time>
      </trkpt>
      <trkpt lat="46.52592" lon="0.33368">
        <ele>89</ele>
        <time>2021-01-24T10:05:57.000Z</time>
      </trkpt>
      <trkpt lat="46.52592" lon="0.33368">
        <ele>89</ele>
        <time>2021-01-24T10:05:58.000Z</time>
      </trkpt>
      <trkpt lat="46.52592" lon="0.33368">
        <ele>89</ele>
        <time>2021-01-24T10:05:59.000Z</time>
      </trkpt>
      <trkpt lat="46.52592" lon="0.33368">
        <ele>89</ele>
        <time>2021-01-24T10:06:00.000Z</time>
      </trkpt>
      <trkpt lat="46.52592" lon="0.33368">
        <ele>89</ele>
        <time>2021-01-24T10:06:01.000Z</time>
      </trkpt>
      <trkpt lat="46.52592" lon="0.33368">
        <ele>89</ele>
        <time>2021-01-24T10:06:02.000Z</time>
      </trkpt>
      <trkpt lat="46.52592" lon="0.33368">
        <ele>89</ele>
        <time>2021-01-24T10:06:03.000Z</time>
      </trkpt>
      <trkpt lat="46.52592" lon="0.33368">
        <ele>89</ele>
        <time>2021-01-24T10:06:04.000Z</time>
      </trkpt>
      <trkpt lat="46.52592" lon="0.33368">
        <ele>89</ele>
        <time>2021-01-24T10:06:05.000Z</time>
      </trkpt>
      <trkpt lat="46.52592" lon="0.33368">
        <ele>89</ele>
        <time>2021-01-24T10:06:06.000Z</time>
      </trkpt>
      <trkpt lat="46.52592" lon="0.33368">
        <ele>89</ele>
        <time>2021-01-24T10:06:07.000Z</time>
      </trkpt>
      <trkpt lat="46.52592" lon="0.33368">
        <ele>89</ele>
        <time>2021-01-24T10:06:08.000Z</time>
      </trkpt>
      <trkpt lat="46.52592" lon="0.33368">
        <ele>89</ele>
        <time>2021-01-24T10:06:09.000Z</time>
      </trkpt>
      <trkpt lat="46.52592" lon="0.33368">
        <ele>89</ele>
        <time>2021-01-24T10:06:10.000Z</time>
      </trkpt>
      <trkpt lat="46.52592" lon="0.33368">
        <ele>89</ele>
        <time>2021-01-24T10:06:11.000Z</time>
      </trkpt>
      <trkpt lat="46.52592" lon="0.33368">
        <ele>89</ele>
        <time>2021-01-24T10:06:12.000Z</time>
      </trkpt>
      <trkpt lat="46.52592" lon="0.33368">
        <ele>89</ele>
        <time>2021-01-24T10:06:13.000Z</time>
      </trkpt>
      <trkpt lat="46.52592" lon="0.33368">
        <ele>89.2</ele>
        <time>2021-01-24T10:06:14.000Z</time>
      </trkpt>
      <trkpt lat="46.52592" lon="0.33368">
        <ele>89.2</ele>
        <time>2021-01-24T10:06:15.000Z</time>
      </trkpt>
      <trkpt lat="46.52592" lon="0.33368">
        <ele>89.2</ele>
        <time>2021-01-24T10:06:16.000Z</time>
      </trkpt>
      <trkpt lat="46.52592" lon="0.33368">
        <ele>89.2</ele>
        <time>2021-01-24T10:06:17.000Z</time>
      </trkpt>
      <trkpt lat="46.52592" lon="0.33368">
        <ele>89.2</ele>
        <time>2021-01-24T10:06:18.000Z</time>
      </trkpt>
      <trkpt lat="46.52592" lon="0.33368">
        <ele>89.2</ele>
        <time>2021-01-24T10:06:19.000Z</time>
      </trkpt>
      <trkpt lat="46.52592" lon="0.33368">
        <ele>89.2</ele>
        <time>2021-01-24T10:06:20.000Z</time>
      </trkpt>
      <trkpt lat="46.52592" lon="0.33368">
        <ele>89.2</ele>
        <time>2021-01-24T10:06:21.000Z</time>
      </trkpt>
      <trkpt lat="46.52592" lon="0.33368">
        <ele>89.2</ele>
        <time>2021-01-24T10:06:22.000Z</time>
      </trkpt>
      <trkpt lat="46.52592" lon="0.33368">
        <ele>89.2</ele>
        <time>2021-01-24T10:06:23.000Z</time>
      </trkpt>
      <trkpt lat="46.52592" lon="0.33368">
        <ele>89.2</ele>
        <time>2021-01-24T10:06:24.000Z</time>
      </trkpt>
      <trkpt lat="46.52592" lon="0.33368">
        <ele>89.2</ele>
        <time>2021-01-24T10:06:25.000Z</time>
      </trkpt>
      <trkpt lat="46.52592" lon="0.33368">
        <ele>89.2</ele>
        <time>2021-01-24T10:06:26.000Z</time>
      </trkpt>
      <trkpt lat="46.52592" lon="0.33368">
        <ele>89.2</ele>
        <time>2021-01-24T10:06:27.000Z</time>
      </trkpt>
      <trkpt lat="46.52592" lon="0.33368">
        <ele>89.2</ele>
        <time>2021-01-24T10:06:28.000Z</time>
      </trkpt>
      <trkpt lat="46.52592" lon="0.33368">
        <ele>89.4</ele>
        <time>2021-01-24T10:06:29.000Z</time>
      </trkpt>
      <trkpt lat="46.52592" lon="0.33368">
        <ele>89.4</ele>
        <time>2021-01-24T10:06:30.000Z</time>
      </trkpt>
      <trkpt lat="46.52592" lon="0.33368">
        <ele>89.4</ele>
        <time>2021-01-24T10:06:31.000Z</time>
      </trkpt>
      <trkpt lat="46.52592" lon="0.33368">
        <ele>89.4</ele>
        <time>2021-01-24T10:06:32.000Z</time>
      </trkpt>
      <trkpt lat="46.52592" lon="0.33368">
        <ele>89.4</ele>
        <time>2021-01-24T10:06:33.000Z</time>
      </trkpt>
      <trkpt lat="46.52592" lon="0.33368">
        <ele>89.4</ele>
        <time>2021-01-24T10:06:34.000Z</time>
      </trkpt>
      <trkpt lat="46.52592" lon="0.33368">
        <ele>89.4</ele>
        <time>2021-01-24T10:06:35.000Z</time>
      </trkpt>
      <trkpt lat="46.52592" lon="0.33368">
        <ele>89.4</ele>
        <time>2021-01-24T10:06:36.000Z</time>
      </trkpt>
      <trkpt lat="46.52592" lon="0.33368">
        <ele>89.4</ele>
        <time>2021-01-24T10:06:37.000Z</time>
      </trkpt>
      <trkpt lat="46.52592" lon="0.33368">
        <ele>89.4</ele>
        <time>2021-01-24T10:06:38.000Z</time>
      </trkpt>
      <trkpt lat="46.52592" lon="0.33368">
        <ele>89.4</ele>
        <time>2021-01-24T10:06:39.000Z</time>
      </trkpt>
      <trkpt lat="46.52592" lon="0.33368">
        <ele>89.6</ele>
        <time>2021-01-24T10:06:40.000Z</time>
      </trkpt>
      <trkpt lat="46.52592" lon="0.33368">
        <ele>89.6</ele>
        <time>2021-01-24T10:06:41.000Z</time>
      </trkpt>
      <trkpt lat="46.52592" lon="0.33368">
        <ele>89.6</ele>
        <time>2021-01-24T10:06:42.000Z</time>
      </trkpt>
      <trkpt lat="46.52592" lon="0.33368">
        <ele>89.6</ele>
        <time>2021-01-24T10:06:43.000Z</time>
      </trkpt>
      <trkpt lat="46.52592" lon="0.33368">
        <ele>89.6</ele>
        <time>2021-01-24T10:06:44.000Z</time>
      </trkpt>
      <trkpt lat="46.52592" lon="0.33368">
        <ele>89.6</ele>
        <time>2021-01-24T10:06:45.000Z</time>
      </trkpt>
      <trkpt lat="46.52592" lon="0.33368">
        <ele>89.6</ele>
        <time>2021-01-24T10:06:46.000Z</time>
      </trkpt>
      <trkpt lat="46.52592" lon="0.33368">
        <ele>89.6</ele>
        <time>2021-01-24T10:06:47.000Z</time>
      </trkpt>
      <trkpt lat="46.52592" lon="0.33368">
        <ele>89.6</ele>
        <time>2021-01-24T10:06:48.000Z</time>
      </trkpt>
      <trkpt lat="46.52592" lon="0.33368">
        <ele>89.6</ele>
        <time>2021-01-24T10:06:49.000Z</time>
      </trkpt>
      <trkpt lat="46.52592" lon="0.33368">
        <ele>89.8</ele>
        <time>2021-01-24T10:06:50.000Z</time>
      </trkpt>
      <trkpt lat="46.52592" lon="0.33368">
        <ele>89.8</ele>
        <time>2021-01-24T10:06:51.000Z</time>
      </trkpt>
      <trkpt lat="46.52592" lon="0.33368">
        <ele>89.8</ele>
        <time>2021-01-24T10:06:52.000Z</time>
      </trkpt>
      <trkpt lat="46.52592" lon="0.33368">
        <ele>89.8</ele>
        <time>2021-01-24T10:06:53.000Z</time>
      </trkpt>
      <trkpt lat="46.52592" lon="0.33368">
        <ele>89.8</ele>
        <time>2021-01-24T10:06:54.000Z</time>
      </trkpt>
      <trkpt lat="46.52592" lon="0.33368">
        <ele>89.8</ele>
        <time>2021-01-24T10:06:55.000Z</time>
      </trkpt>
      <trkpt lat="46.52592" lon="0.33368">
        <ele>89.8</ele>
        <time>2021-01-24T10:06:56.000Z</time>
      </trkpt>
      <trkpt lat="46.52592" lon="0.33368">
        <ele>89.8</ele>
        <time>2021-01-24T10:06:57.000Z</time>
      </trkpt>
      <trkpt lat="46.52592" lon="0.33368">
        <ele>89.8</ele>
        <time>2021-01-24T10:06:58.000Z</time>
      </trkpt>
      <trkpt lat="46.52592" lon="0.33368">
        <ele>89.8</ele>
        <time>2021-01-24T10:06:59.000Z</time>
      </trkpt>
      <trkpt lat="46.52592" lon="0.33368">
        <ele>89.8</ele>
        <time>2021-01-24T10:07:00.000Z</time>
      </trkpt>
      <trkpt lat="46.52592" lon="0.33368">
        <ele>89.8</ele>
        <time>2021-01-24T10:07:01.000Z</time>
      </trkpt>
      <trkpt lat="46.52592" lon="0.33368">
        <ele>89.8</ele>
        <time>2021-01-24T10:07:02.000Z</time>
      </trkpt>
      <trkpt lat="46.52592" lon="0.33368">
        <ele>89.8</ele>
        <time>2021-01-24T10:07:03.000Z</time>
      </trkpt>
      <trkpt lat="46.52592" lon="0.33368">
        <ele>89.8</ele>
        <time>2021-01-24T10:07:04.000Z</time>
      </trkpt>
      <trkpt lat="46.52592" lon="0.33368">
        <ele>89.8</ele>
        <time>2021-01-24T10:07:05.000Z</time>
      </trkpt>
      <trkpt lat="46.52592" lon="0.33368">
        <ele>89.8</ele>
        <time>2021-01-24T10:07:06.000Z</time>
      </trkpt>
      <trkpt lat="46.52592" lon="0.33368">
        <ele>90</ele>
        <time>2021-01-24T10:07:07.000Z</time>
      </trkpt>
      <trkpt lat="46.52592" lon="0.33368">
        <ele>90</ele>
        <time>2021-01-24T10:07:08.000Z</time>
      </trkpt>
      <trkpt lat="46.52592" lon="0.33368">
        <ele>90</ele>
        <time>2021-01-24T10:07:09.000Z</time>
      </trkpt>
      <trkpt lat="46.52594" lon="0.33369">
        <ele>90</ele>
        <time>2021-01-24T10:07:10.000Z</time>
      </trkpt>
      <trkpt lat="46.52597" lon="0.33372">
        <ele>90</ele>
        <time>2021-01-24T10:07:11.000Z</time>
      </trkpt>
      <trkpt lat="46.526" lon="0.33374">
        <ele>90</ele>
        <time>2021-01-24T10:07:12.000Z</time>
      </trkpt>
      <trkpt lat="46.52602" lon="0.33378">
        <ele>90</ele>
        <time>2021-01-24T10:07:13.000Z</time>
      </trkpt>
      <trkpt lat="46.52605" lon="0.33381">
        <ele>90</ele>
        <time>2021-01-24T10:07:14.000Z</time>
      </trkpt>
      <trkpt lat="46.52608" lon="0.33385">
        <ele>90</ele>
        <time>2021-01-24T10:07:15.000Z</time>
      </trkpt>
      <trkpt lat="46.5261" lon="0.33387">
        <ele>90</ele>
        <time>2021-01-24T10:07:16.000Z</time>
      </trkpt>
      <trkpt lat="46.52613" lon="0.3339">
        <ele>89.8</ele>
        <time>2021-01-24T10:07:17.000Z</time>
      </trkpt>
      <trkpt lat="46.52616" lon="0.33393">
        <ele>89.8</ele>
        <time>2021-01-24T10:07:18.000Z</time>
      </trkpt>
      <trkpt lat="46.52619" lon="0.33396">
        <ele>90</ele>
        <time>2021-01-24T10:07:19.000Z</time>
      </trkpt>
      <trkpt lat="46.52621" lon="0.33399">
        <ele>90</ele>
        <time>2021-01-24T10:07:20.000Z</time>
      </trkpt>
      <trkpt lat="46.52623" lon="0.33402">
        <ele>90</ele>
        <time>2021-01-24T10:07:21.000Z</time>
      </trkpt>
      <trkpt lat="46.52626" lon="0.33404">
        <ele>90</ele>
        <time>2021-01-24T10:07:22.000Z</time>
      </trkpt>
      <trkpt lat="46.52629" lon="0.33407">
        <ele>90</ele>
        <time>2021-01-24T10:07:23.000Z</time>
      </trkpt>
      <trkpt lat="46.52632" lon="0.3341">
        <ele>90</ele>
        <time>2021-01-24T10:07:24.000Z</time>
      </trkpt>
      <trkpt lat="46.52634" lon="0.33411">
        <ele>90.2</ele>
        <time>2021-01-24T10:07:25.000Z</time>
      </trkpt>
      <trkpt lat="46.52637" lon="0.33413">
        <ele>90.2</ele>
        <time>2021-01-24T10:07:26.000Z</time>
      </trkpt>
      <trkpt lat="46.5264" lon="0.33414">
        <ele>90.2</ele>
        <time>2021-01-24T10:07:27.000Z</time>
      </trkpt>
      <trkpt lat="46.52643" lon="0.33416">
        <ele>90.2</ele>
        <time>2021-01-24T10:07:28.000Z</time>
      </trkpt>
      <trkpt lat="46.52647" lon="0.33418">
        <ele>90.2</ele>
        <time>2021-01-24T10:07:29.000Z</time>
      </trkpt>
      <trkpt lat="46.5265" lon="0.33418">
        <ele>90.2</ele>
        <time>2021-01-24T10:07:30.000Z</time>
      </trkpt>
      <trkpt lat="46.52653" lon="0.33419">
        <ele>90.2</ele>
        <time>2021-01-24T10:07:31.000Z</time>
      </trkpt>
      <trkpt lat="46.52655" lon="0.3342">
        <ele>90.2</ele>
        <time>2021-01-24T10:07:32.000Z</time>
      </trkpt>
      <trkpt lat="46.52658" lon="0.3342">
        <ele>90.2</ele>
        <time>2021-01-24T10:07:33.000Z</time>
      </trkpt>
      <trkpt lat="46.52661" lon="0.33421">
        <ele>90.2</ele>
        <time>2021-01-24T10:07:34.000Z</time>
      </trkpt>
      <trkpt lat="46.52663" lon="0.33422">
        <ele>90.4</ele>
        <time>2021-01-24T10:07:35.000Z</time>
      </trkpt>
      <trkpt lat="46.52666" lon="0.33423">
        <ele>90.4</ele>
        <time>2021-01-24T10:07:36.000Z</time>
      </trkpt>
      <trkpt lat="46.52669" lon="0.33423">
        <ele>90.6</ele>
        <time>2021-01-24T10:07:37.000Z</time>
      </trkpt>
      <trkpt lat="46.52671" lon="0.33424">
        <ele>90.8</ele>
        <time>2021-01-24T10:07:38.000Z</time>
      </trkpt>
      <trkpt lat="46.52674" lon="0.33425">
        <ele>90.8</ele>
        <time>2021-01-24T10:07:39.000Z</time>
      </trkpt>
      <trkpt lat="46.52677" lon="0.33425">
        <ele>91</ele>
        <time>2021-01-24T10:07:40.000Z</time>
      </trkpt>
      <trkpt lat="46.52679" lon="0.33426">
        <ele>91</ele>
        <time>2021-01-24T10:07:41.000Z</time>
      </trkpt>
      <trkpt lat="46.52681" lon="0.33426">
        <ele>91.2</ele>
        <time>2021-01-24T10:07:42.000Z</time>
      </trkpt>
      <trkpt lat="46.52684" lon="0.33427">
        <ele>91.2</ele>
        <time>2021-01-24T10:07:43.000Z</time>
      </trkpt>
      <trkpt lat="46.52686" lon="0.33428">
        <ele>91.4</ele>
        <time>2021-01-24T10:07:44.000Z</time>
      </trkpt>
      <trkpt lat="46.52689" lon="0.33431">
        <ele>91.4</ele>
        <time>2021-01-24T10:07:45.000Z</time>
      </trkpt>
      <trkpt lat="46.52693" lon="0.33433">
        <ele>91.6</ele>
        <time>2021-01-24T10:07:46.000Z</time>
      </trkpt>
      <trkpt lat="46.52697" lon="0.33433">
        <ele>91.8</ele>
        <time>2021-01-24T10:07:47.000Z</time>
      </trkpt>
      <trkpt lat="46.527" lon="0.33433">
        <ele>91.8</ele>
        <time>2021-01-24T10:07:48.000Z</time>
      </trkpt>
      <trkpt lat="46.52703" lon="0.33434">
        <ele>92</ele>
        <time>2021-01-24T10:07:49.000Z</time>
      </trkpt>
      <trkpt lat="46.52706" lon="0.33434">
        <ele>92.2</ele>
        <time>2021-01-24T10:07:50.000Z</time>
      </trkpt>
      <trkpt lat="46.52706" lon="0.33434">
        <ele>92.2</ele>
        <time>2021-01-24T10:07:51.000Z</time>
      </trkpt>
      <trkpt lat="46.52709" lon="0.33434">
        <ele>92.4</ele>
        <time>2021-01-24T10:07:52.000Z</time>
      </trkpt>
      <trkpt lat="46.52712" lon="0.33433">
        <ele>92.6</ele>
        <time>2021-01-24T10:07:53.000Z</time>
      </trkpt>
      <trkpt lat="46.52714" lon="0.33432">
        <ele>92.8</ele>
        <time>2021-01-24T10:07:54.000Z</time>
      </trkpt>
      <trkpt lat="46.52716" lon="0.33432">
        <ele>93</ele>
        <time>2021-01-24T10:07:55.000Z</time>
      </trkpt>
      <trkpt lat="46.52716" lon="0.33432">
        <ele>93.2</ele>
        <time>2021-01-24T10:07:56.000Z</time>
      </trkpt>
      <trkpt lat="46.52719" lon="0.33432">
        <ele>93.4</ele>
        <time>2021-01-24T10:07:57.000Z</time>
      </trkpt>
      <trkpt lat="46.52722" lon="0.33432">
        <ele>93.6</ele>
        <time>2021-01-24T10:07:58.000Z</time>
      </trkpt>
      <trkpt lat="46.52725" lon="0.33432">
        <ele>93.8</ele>
        <time>2021-01-24T10:07:59.000Z</time>
      </trkpt>
      <trkpt lat="46.52727" lon="0.33432">
        <ele>94</ele>
        <time>2021-01-24T10:08:00.000Z</time>
      </trkpt>
      <trkpt lat="46.52731" lon="0.33433">
        <ele>94.2</ele>
        <time>2021-01-24T10:08:01.000Z</time>
      </trkpt>
      <trkpt lat="46.52734" lon="0.33434">
        <ele>94.6</ele>
        <time>2021-01-24T10:08:02.000Z</time>
      </trkpt>
      <trkpt lat="46.52736" lon="0.33435">
        <ele>94.8</ele>
        <time>2021-01-24T10:08:03.000Z</time>
      </trkpt>
      <trkpt lat="46.52739" lon="0.33436">
        <ele>95</ele>
        <time>2021-01-24T10:08:04.000Z</time>
      </trkpt>
      <trkpt lat="46.52742" lon="0.33438">
        <ele>95.2</ele>
        <time>2021-01-24T10:08:05.000Z</time>
      </trkpt>
      <trkpt lat="46.52745" lon="0.33441">
        <ele>95.4</ele>
        <time>2021-01-24T10:08:06.000Z</time>
      </trkpt>
      <trkpt lat="46.52748" lon="0.33442">
        <ele>95.6</ele>
        <time>2021-01-24T10:08:07.000Z</time>
      </trkpt>
      <trkpt lat="46.52751" lon="0.33442">
        <ele>96</ele>
        <time>2021-01-24T10:08:08.000Z</time>
      </trkpt>
      <trkpt lat="46.52755" lon="0.33443">
        <ele>96.2</ele>
        <time>2021-01-24T10:08:09.000Z</time>
      </trkpt>
      <trkpt lat="46.52758" lon="0.33444">
        <ele>96.4</ele>
        <time>2021-01-24T10:08:10.000Z</time>
      </trkpt>
      <trkpt lat="46.52762" lon="0.33445">
        <ele>96.6</ele>
        <time>2021-01-24T10:08:11.000Z</time>
      </trkpt>
      <trkpt lat="46.52766" lon="0.33446">
        <ele>96.8</ele>
        <time>2021-01-24T10:08:12.000Z</time>
      </trkpt>
      <trkpt lat="46.5277" lon="0.33448">
        <ele>97</ele>
        <time>2021-01-24T10:08:13.000Z</time>
      </trkpt>
      <trkpt lat="46.52773" lon="0.3345">
        <ele>97.2</ele>
        <time>2021-01-24T10:08:14.000Z</time>
      </trkpt>
      <trkpt lat="46.52776" lon="0.33451">
        <ele>97.4</ele>
        <time>2021-01-24T10:08:15.000Z</time>
      </trkpt>
      <trkpt lat="46.5278" lon="0.33452">
        <ele>97.6</ele>
        <time>2021-01-24T10:08:16.000Z</time>
      </trkpt>
      <trkpt lat="46.52783" lon="0.33452">
        <ele>97.8</ele>
        <time>2021-01-24T10:08:17.000Z</time>
      </trkpt>
      <trkpt lat="46.52786" lon="0.33452">
        <ele>98</ele>
        <time>2021-01-24T10:08:18.000Z</time>
      </trkpt>
      <trkpt lat="46.5279" lon="0.33452">
        <ele>98.2</ele>
        <time>2021-01-24T10:08:19.000Z</time>
      </trkpt>
      <trkpt lat="46.52793" lon="0.33451">
        <ele>98.2</ele>
        <time>2021-01-24T10:08:20.000Z</time>
      </trkpt>
      <trkpt lat="46.52796" lon="0.33452">
        <ele>98.4</ele>
        <time>2021-01-24T10:08:21.000Z</time>
      </trkpt>
      <trkpt lat="46.52799" lon="0.33453">
        <ele>98.6</ele>
        <time>2021-01-24T10:08:22.000Z</time>
      </trkpt>
      <trkpt lat="46.52802" lon="0.33453">
        <ele>98.8</ele>
        <time>2021-01-24T10:08:23.000Z</time>
      </trkpt>
      <trkpt lat="46.52804" lon="0.33454">
        <ele>99</ele>
        <time>2021-01-24T10:08:24.000Z</time>
      </trkpt>
      <trkpt lat="46.52807" lon="0.33454">
        <ele>99</ele>
        <time>2021-01-24T10:08:25.000Z</time>
      </trkpt>
      <trkpt lat="46.5281" lon="0.33455">
        <ele>99.2</ele>
        <time>2021-01-24T10:08:26.000Z</time>
      </trkpt>
      <trkpt lat="46.52813" lon="0.33454">
        <ele>99.4</ele>
        <time>2021-01-24T10:08:27.000Z</time>
      </trkpt>
      <trkpt lat="46.52816" lon="0.33453">
        <ele>99.4</ele>
        <time>2021-01-24T10:08:28.000Z</time>
      </trkpt>
      <trkpt lat="46.5282" lon="0.33453">
        <ele>99.6</ele>
        <time>2021-01-24T10:08:29.000Z</time>
      </trkpt>
      <trkpt lat="46.52823" lon="0.33452">
        <ele>99.8</ele>
        <time>2021-01-24T10:08:30.000Z</time>
      </trkpt>
      <trkpt lat="46.52828" lon="0.33451">
        <ele>100</ele>
        <time>2021-01-24T10:08:31.000Z</time>
      </trkpt>
      <trkpt lat="46.5283" lon="0.33448">
        <ele>100.2</ele>
        <time>2021-01-24T10:08:32.000Z</time>
      </trkpt>
      <trkpt lat="46.52833" lon="0.33444">
        <ele>100.4</ele>
        <time>2021-01-24T10:08:33.000Z</time>
      </trkpt>
      <trkpt lat="46.52835" lon="0.33442">
        <ele>100.6</ele>
        <time>2021-01-24T10:08:34.000Z</time>
      </trkpt>
      <trkpt lat="46.52838" lon="0.3344">
        <ele>100.6</ele>
        <time>2021-01-24T10:08:35.000Z</time>
      </trkpt>
      <trkpt lat="46.52841" lon="0.3344">
        <ele>100.8</ele>
        <time>2021-01-24T10:08:36.000Z</time>
      </trkpt>
      <trkpt lat="46.52844" lon="0.33439">
        <ele>101</ele>
        <time>2021-01-24T10:08:37.000Z</time>
      </trkpt>
      <trkpt lat="46.52847" lon="0.3344">
        <ele>101</ele>
        <time>2021-01-24T10:08:38.000Z</time>
      </trkpt>
      <trkpt lat="46.52852" lon="0.3344">
        <ele>101.2</ele>
        <time>2021-01-24T10:08:39.000Z</time>
      </trkpt>
      <trkpt lat="46.52855" lon="0.33441">
        <ele>101.4</ele>
        <time>2021-01-24T10:08:40.000Z</time>
      </trkpt>
      <trkpt lat="46.5286" lon="0.33441">
        <ele>101.4</ele>
        <time>2021-01-24T10:08:41.000Z</time>
      </trkpt>
      <trkpt lat="46.52864" lon="0.33442">
        <ele>101.6</ele>
        <time>2021-01-24T10:08:42.000Z</time>
      </trkpt>
      <trkpt lat="46.52869" lon="0.33443">
        <ele>101.8</ele>
        <time>2021-01-24T10:08:43.000Z</time>
      </trkpt>
      <trkpt lat="46.52874" lon="0.33444">
        <ele>101.8</ele>
        <time>2021-01-24T10:08:44.000Z</time>
      </trkpt>
      <trkpt lat="46.52878" lon="0.33445">
        <ele>102</ele>
        <time>2021-01-24T10:08:45.000Z</time>
      </trkpt>
      <trkpt lat="46.52883" lon="0.33446">
        <ele>102</ele>
        <time>2021-01-24T10:08:46.000Z</time>
      </trkpt>
      <trkpt lat="46.52887" lon="0.33448">
        <ele>102.2</ele>
        <time>2021-01-24T10:08:47.000Z</time>
      </trkpt>
      <trkpt lat="46.52891" lon="0.3345">
        <ele>102.2</ele>
        <time>2021-01-24T10:08:48.000Z</time>
      </trkpt>
      <trkpt lat="46.52894" lon="0.33451">
        <ele>102.2</ele>
        <time>2021-01-24T10:08:49.000Z</time>
      </trkpt>
      <trkpt lat="46.52897" lon="0.33452">
        <ele>102.4</ele>
        <time>2021-01-24T10:08:50.000Z</time>
      </trkpt>
      <trkpt lat="46.529" lon="0.33453">
        <ele>102.4</ele>
        <time>2021-01-24T10:08:51.000Z</time>
      </trkpt>
      <trkpt lat="46.52902" lon="0.33455">
        <ele>102.6</ele>
        <time>2021-01-24T10:08:52.000Z</time>
      </trkpt>
      <trkpt lat="46.52905" lon="0.33456">
        <ele>102.8</ele>
        <time>2021-01-24T10:08:53.000Z</time>
      </trkpt>
      <trkpt lat="46.52907" lon="0.33457">
        <ele>102.8</ele>
        <time>2021-01-24T10:08:54.000Z</time>
      </trkpt>
      <trkpt lat="46.5291" lon="0.33457">
        <ele>102.8</ele>
        <time>2021-01-24T10:08:55.000Z</time>
      </trkpt>
      <trkpt lat="46.52912" lon="0.33458">
        <ele>103</ele>
        <time>2021-01-24T10:08:56.000Z</time>
      </trkpt>
      <trkpt lat="46.52915" lon="0.33459">
        <ele>103</ele>
        <time>2021-01-24T10:08:57.000Z</time>
      </trkpt>
      <trkpt lat="46.52917" lon="0.33461">
        <ele>103.2</ele>
        <time>2021-01-24T10:08:58.000Z</time>
      </trkpt>
      <trkpt lat="46.5292" lon="0.33462">
        <ele>103.2</ele>
        <time>2021-01-24T10:08:59.000Z</time>
      </trkpt>
      <trkpt lat="46.52923" lon="0.33463">
        <ele>103.2</ele>
        <time>2021-01-24T10:09:00.000Z</time>
      </trkpt>
      <trkpt lat="46.52926" lon="0.33465">
        <ele>103.4</ele>
        <time>2021-01-24T10:09:01.000Z</time>
      </trkpt>
      <trkpt lat="46.52928" lon="0.33467">
        <ele>103.4</ele>
        <time>2021-01-24T10:09:02.000Z</time>
      </trkpt>
      <trkpt lat="46.5293" lon="0.33469">
        <ele>103.4</ele>
        <time>2021-01-24T10:09:03.000Z</time>
      </trkpt>
      <trkpt lat="46.52933" lon="0.33471">
        <ele>103.4</ele>
        <time>2021-01-24T10:09:04.000Z</time>
      </trkpt>
      <trkpt lat="46.52935" lon="0.33473">
        <ele>103.4</ele>
        <time>2021-01-24T10:09:05.000Z</time>
      </trkpt>
      <trkpt lat="46.52939" lon="0.33473">
        <ele>103.4</ele>
        <time>2021-01-24T10:09:06.000Z</time>
      </trkpt>
      <trkpt lat="46.5294" lon="0.33474">
        <ele>103.6</ele>
        <time>2021-01-24T10:09:07.000Z</time>
      </trkpt>
      <trkpt lat="46.52943" lon="0.33474">
        <ele>103.6</ele>
        <time>2021-01-24T10:09:08.000Z</time>
      </trkpt>
      <trkpt lat="46.52945" lon="0.33474">
        <ele>103.6</ele>
        <time>2021-01-24T10:09:09.000Z</time>
      </trkpt>
      <trkpt lat="46.52948" lon="0.33475">
        <ele>103.6</ele>
        <time>2021-01-24T10:09:10.000Z</time>
      </trkpt>
      <trkpt lat="46.5295" lon="0.33476">
        <ele>103.6</ele>
        <time>2021-01-24T10:09:11.000Z</time>
      </trkpt>
      <trkpt lat="46.52952" lon="0.33476">
        <ele>103.6</ele>
        <time>2021-01-24T10:09:12.000Z</time>
      </trkpt>
      <trkpt lat="46.52955" lon="0.33478">
        <ele>103.8</ele>
        <time>2021-01-24T10:09:13.000Z</time>
      </trkpt>
      <trkpt lat="46.52957" lon="0.33479">
        <ele>103.8</ele>
        <time>2021-01-24T10:09:14.000Z</time>
      </trkpt>
      <trkpt lat="46.52959" lon="0.33481">
        <ele>103.8</ele>
        <time>2021-01-24T10:09:15.000Z</time>
      </trkpt>
      <trkpt lat="46.52961" lon="0.33484">
        <ele>103.8</ele>
        <time>2021-01-24T10:09:16.000Z</time>
      </trkpt>
      <trkpt lat="46.52963" lon="0.33488">
        <ele>103.8</ele>
        <time>2021-01-24T10:09:17.000Z</time>
      </trkpt>
      <trkpt lat="46.52965" lon="0.33493">
        <ele>103.8</ele>
        <time>2021-01-24T10:09:18.000Z</time>
      </trkpt>
      <trkpt lat="46.52966" lon="0.33498">
        <ele>103.8</ele>
        <time>2021-01-24T10:09:19.000Z</time>
      </trkpt>
      <trkpt lat="46.52968" lon="0.33503">
        <ele>103.8</ele>
        <time>2021-01-24T10:09:20.000Z</time>
      </trkpt>
      <trkpt lat="46.5297" lon="0.33507">
        <ele>103.8</ele>
        <time>2021-01-24T10:09:21.000Z</time>
      </trkpt>
      <trkpt lat="46.52972" lon="0.33512">
        <ele>104</ele>
        <time>2021-01-24T10:09:22.000Z</time>
      </trkpt>
      <trkpt lat="46.52975" lon="0.33515">
        <ele>104</ele>
        <time>2021-01-24T10:09:23.000Z</time>
      </trkpt>
      <trkpt lat="46.5298" lon="0.3352">
        <ele>104</ele>
        <time>2021-01-24T10:09:24.000Z</time>
      </trkpt>
      <trkpt lat="46.52981" lon="0.33521">
        <ele>104</ele>
        <time>2021-01-24T10:09:25.000Z</time>
      </trkpt>
      <trkpt lat="46.52986" lon="0.33526">
        <ele>104.2</ele>
        <time>2021-01-24T10:09:26.000Z</time>
      </trkpt>
      <trkpt lat="46.52989" lon="0.3353">
        <ele>104.2</ele>
        <time>2021-01-24T10:09:27.000Z</time>
      </trkpt>
      <trkpt lat="46.52991" lon="0.33534">
        <ele>104.2</ele>
        <time>2021-01-24T10:09:28.000Z</time>
      </trkpt>
      <trkpt lat="46.52994" lon="0.33539">
        <ele>104.2</ele>
        <time>2021-01-24T10:09:29.000Z</time>
      </trkpt>
      <trkpt lat="46.52997" lon="0.33542">
        <ele>104.4</ele>
        <time>2021-01-24T10:09:30.000Z</time>
      </trkpt>
      <trkpt lat="46.53001" lon="0.33545">
        <ele>104.4</ele>
        <time>2021-01-24T10:09:31.000Z</time>
      </trkpt>
      <trkpt lat="46.53005" lon="0.33547">
        <ele>104.4</ele>
        <time>2021-01-24T10:09:32.000Z</time>
      </trkpt>
      <trkpt lat="46.53009" lon="0.33548">
        <ele>104.6</ele>
        <time>2021-01-24T10:09:33.000Z</time>
      </trkpt>
      <trkpt lat="46.53013" lon="0.33549">
        <ele>104.6</ele>
        <time>2021-01-24T10:09:34.000Z</time>
      </trkpt>
      <trkpt lat="46.53017" lon="0.3355">
        <ele>104.6</ele>
        <time>2021-01-24T10:09:35.000Z</time>
      </trkpt>
      <trkpt lat="46.53021" lon="0.33552">
        <ele>104.6</ele>
        <time>2021-01-24T10:09:36.000Z</time>
      </trkpt>
      <trkpt lat="46.53024" lon="0.33554">
        <ele>104.6</ele>
        <time>2021-01-24T10:09:37.000Z</time>
      </trkpt>
      <trkpt lat="46.53027" lon="0.33554">
        <ele>104.6</ele>
        <time>2021-01-24T10:09:38.000Z</time>
      </trkpt>
      <trkpt lat="46.5303" lon="0.33555">
        <ele>104.6</ele>
        <time>2021-01-24T10:09:39.000Z</time>
      </trkpt>
      <trkpt lat="46.53034" lon="0.33556">
        <ele>104.6</ele>
        <time>2021-01-24T10:09:40.000Z</time>
      </trkpt>
      <trkpt lat="46.53038" lon="0.33557">
        <ele>104.8</ele>
        <time>2021-01-24T10:09:41.000Z</time>
      </trkpt>
      <trkpt lat="46.5304" lon="0.33557">
        <ele>104.8</ele>
        <time>2021-01-24T10:09:42.000Z</time>
      </trkpt>
      <trkpt lat="46.53045" lon="0.33559">
        <ele>104.8</ele>
        <time>2021-01-24T10:09:43.000Z</time>
      </trkpt>
      <trkpt lat="46.53047" lon="0.33559">
        <ele>104.8</ele>
        <time>2021-01-24T10:09:44.000Z</time>
      </trkpt>
      <trkpt lat="46.53052" lon="0.33561">
        <ele>104.8</ele>
        <time>2021-01-24T10:09:45.000Z</time>
      </trkpt>
      <trkpt lat="46.53056" lon="0.33561">
        <ele>104.8</ele>
        <time>2021-01-24T10:09:46.000Z</time>
      </trkpt>
      <trkpt lat="46.5306" lon="0.33562">
        <ele>104.8</ele>
        <time>2021-01-24T10:09:47.000Z</time>
      </trkpt>
      <trkpt lat="46.53064" lon="0.33563">
        <ele>104.8</ele>
        <time>2021-01-24T10:09:48.000Z</time>
      </trkpt>
      <trkpt lat="46.53068" lon="0.33563">
        <ele>104.8</ele>
        <time>2021-01-24T10:09:49.000Z</time>
      </trkpt>
      <trkpt lat="46.53072" lon="0.33564">
        <ele>104.8</ele>
        <time>2021-01-24T10:09:50.000Z</time>
      </trkpt>
      <trkpt lat="46.53077" lon="0.33565">
        <ele>104.8</ele>
        <time>2021-01-24T10:09:51.000Z</time>
      </trkpt>
      <trkpt lat="46.5308" lon="0.33565">
        <ele>104.8</ele>
        <time>2021-01-24T10:09:52.000Z</time>
      </trkpt>
      <trkpt lat="46.53083" lon="0.33565">
        <ele>104.8</ele>
        <time>2021-01-24T10:09:53.000Z</time>
      </trkpt>
      <trkpt lat="46.53086" lon="0.33565">
        <ele>104.8</ele>
        <time>2021-01-24T10:09:54.000Z</time>
      </trkpt>
      <trkpt lat="46.53089" lon="0.33565">
        <ele>104.8</ele>
        <time>2021-01-24T10:09:55.000Z</time>
      </trkpt>
      <trkpt lat="46.53092" lon="0.33566">
        <ele>104.8</ele>
        <time>2021-01-24T10:09:56.000Z</time>
      </trkpt>
      <trkpt lat="46.53094" lon="0.33566">
        <ele>104.8</ele>
        <time>2021-01-24T10:09:57.000Z</time>
      </trkpt>
      <trkpt lat="46.53098" lon="0.33567">
        <ele>104.8</ele>
        <time>2021-01-24T10:09:58.000Z</time>
      </trkpt>
      <trkpt lat="46.53102" lon="0.33567">
        <ele>104.8</ele>
        <time>2021-01-24T10:09:59.000Z</time>
      </trkpt>
      <trkpt lat="46.53106" lon="0.33569">
        <ele>104.8</ele>
        <time>2021-01-24T10:10:00.000Z</time>
      </trkpt>
      <trkpt lat="46.53109" lon="0.33569">
        <ele>104.8</ele>
        <time>2021-01-24T10:10:01.000Z</time>
      </trkpt>
      <trkpt lat="46.53112" lon="0.3357">
        <ele>104.8</ele>
        <time>2021-01-24T10:10:02.000Z</time>
      </trkpt>
      <trkpt lat="46.53116" lon="0.33571">
        <ele>104.8</ele>
        <time>2021-01-24T10:10:03.000Z</time>
      </trkpt>
      <trkpt lat="46.53118" lon="0.33572">
        <ele>104.8</ele>
        <time>2021-01-24T10:10:04.000Z</time>
      </trkpt>
      <trkpt lat="46.53123" lon="0.33573">
        <ele>105</ele>
        <time>2021-01-24T10:10:05.000Z</time>
      </trkpt>
      <trkpt lat="46.53127" lon="0.33574">
        <ele>105</ele>
        <time>2021-01-24T10:10:06.000Z</time>
      </trkpt>
      <trkpt lat="46.5313" lon="0.33576">
        <ele>105</ele>
        <time>2021-01-24T10:10:07.000Z</time>
      </trkpt>
      <trkpt lat="46.53134" lon="0.33577">
        <ele>105</ele>
        <time>2021-01-24T10:10:08.000Z</time>
      </trkpt>
      <trkpt lat="46.53137" lon="0.33577">
        <ele>105</ele>
        <time>2021-01-24T10:10:09.000Z</time>
      </trkpt>
      <trkpt lat="46.53142" lon="0.33579">
        <ele>105</ele>
        <time>2021-01-24T10:10:10.000Z</time>
      </trkpt>
      <trkpt lat="46.53145" lon="0.33579">
        <ele>105</ele>
        <time>2021-01-24T10:10:11.000Z</time>
      </trkpt>
      <trkpt lat="46.5315" lon="0.33581">
        <ele>105</ele>
        <time>2021-01-24T10:10:12.000Z</time>
      </trkpt>
      <trkpt lat="46.53153" lon="0.33582">
        <ele>105</ele>
        <time>2021-01-24T10:10:13.000Z</time>
      </trkpt>
      <trkpt lat="46.53156" lon="0.33582">
        <ele>105</ele>
        <time>2021-01-24T10:10:14.000Z</time>
      </trkpt>
      <trkpt lat="46.5316" lon="0.33583">
        <ele>105</ele>
        <time>2021-01-24T10:10:15.000Z</time>
      </trkpt>
      <trkpt lat="46.53164" lon="0.33584">
        <ele>105</ele>
        <time>2021-01-24T10:10:16.000Z</time>
      </trkpt>
      <trkpt lat="46.53169" lon="0.33585">
        <ele>105</ele>
        <time>2021-01-24T10:10:17.000Z</time>
      </trkpt>
      <trkpt lat="46.53172" lon="0.33586">
        <ele>105</ele>
        <time>2021-01-24T10:10:18.000Z</time>
      </trkpt>
      <trkpt lat="46.53175" lon="0.33586">
        <ele>105.2</ele>
        <time>2021-01-24T10:10:19.000Z</time>
      </trkpt>
      <trkpt lat="46.53178" lon="0.33587">
        <ele>105.2</ele>
        <time>2021-01-24T10:10:20.000Z</time>
      </trkpt>
      <trkpt lat="46.53182" lon="0.33587">
        <ele>105.2</ele>
        <time>2021-01-24T10:10:21.000Z</time>
      </trkpt>
      <trkpt lat="46.53184" lon="0.33586">
        <ele>105.4</ele>
        <time>2021-01-24T10:10:22.000Z</time>
      </trkpt>
      <trkpt lat="46.53189" lon="0.33586">
        <ele>105.4</ele>
        <time>2021-01-24T10:10:23.000Z</time>
      </trkpt>
      <trkpt lat="46.53191" lon="0.33585">
        <ele>105.6</ele>
        <time>2021-01-24T10:10:24.000Z</time>
      </trkpt>
      <trkpt lat="46.53194" lon="0.33585">
        <ele>105.8</ele>
        <time>2021-01-24T10:10:25.000Z</time>
      </trkpt>
      <trkpt lat="46.53197" lon="0.33585">
        <ele>105.8</ele>
        <time>2021-01-24T10:10:26.000Z</time>
      </trkpt>
      <trkpt lat="46.53201" lon="0.33584">
        <ele>106</ele>
        <time>2021-01-24T10:10:27.000Z</time>
      </trkpt>
      <trkpt lat="46.53204" lon="0.33584">
        <ele>106</ele>
        <time>2021-01-24T10:10:28.000Z</time>
      </trkpt>
      <trkpt lat="46.53207" lon="0.33585">
        <ele>106.2</ele>
        <time>2021-01-24T10:10:29.000Z</time>
      </trkpt>
      <trkpt lat="46.53211" lon="0.33587">
        <ele>106.2</ele>
        <time>2021-01-24T10:10:30.000Z</time>
      </trkpt>
      <trkpt lat="46.53213" lon="0.33591">
        <ele>106.4</ele>
        <time>2021-01-24T10:10:31.000Z</time>
      </trkpt>
      <trkpt lat="46.53215" lon="0.33593">
        <ele>106.4</ele>
        <time>2021-01-24T10:10:32.000Z</time>
      </trkpt>
      <trkpt lat="46.53215" lon="0.33593">
        <ele>106.4</ele>
        <time>2021-01-24T10:10:33.000Z</time>
      </trkpt>
      <trkpt lat="46.53217" lon="0.33597">
        <ele>106.4</ele>
        <time>2021-01-24T10:10:34.000Z</time>
      </trkpt>
      <trkpt lat="46.53219" lon="0.336">
        <ele>106.4</ele>
        <time>2021-01-24T10:10:35.000Z</time>
      </trkpt>
      <trkpt lat="46.53221" lon="0.33602">
        <ele>106.4</ele>
        <time>2021-01-24T10:10:36.000Z</time>
      </trkpt>
      <trkpt lat="46.53223" lon="0.33602">
        <ele>106.4</ele>
        <time>2021-01-24T10:10:37.000Z</time>
      </trkpt>
      <trkpt lat="46.53225" lon="0.33603">
        <ele>106.4</ele>
        <time>2021-01-24T10:10:38.000Z</time>
      </trkpt>
      <trkpt lat="46.53225" lon="0.33603">
        <ele>106.6</ele>
        <time>2021-01-24T10:10:39.000Z</time>
      </trkpt>
      <trkpt lat="46.53227" lon="0.33606">
        <ele>106.6</ele>
        <time>2021-01-24T10:10:40.000Z</time>
      </trkpt>
      <trkpt lat="46.53227" lon="0.33606">
        <ele>106.6</ele>
        <time>2021-01-24T10:10:41.000Z</time>
      </trkpt>
      <trkpt lat="46.53229" lon="0.33608">
        <ele>106.6</ele>
        <time>2021-01-24T10:10:42.000Z</time>
      </trkpt>
      <trkpt lat="46.53229" lon="0.33608">
        <ele>106.6</ele>
        <time>2021-01-24T10:10:43.000Z</time>
      </trkpt>
      <trkpt lat="46.53231" lon="0.3361">
        <ele>106.8</ele>
        <time>2021-01-24T10:10:44.000Z</time>
      </trkpt>
      <trkpt lat="46.53231" lon="0.3361">
        <ele>106.8</ele>
        <time>2021-01-24T10:10:45.000Z</time>
      </trkpt>
      <trkpt lat="46.53234" lon="0.33608">
        <ele>106.8</ele>
        <time>2021-01-24T10:10:46.000Z</time>
      </trkpt>
      <trkpt lat="46.53234" lon="0.33608">
        <ele>107</ele>
        <time>2021-01-24T10:10:47.000Z</time>
      </trkpt>
      <trkpt lat="46.53234" lon="0.33608">
        <ele>107</ele>
        <time>2021-01-24T10:10:48.000Z</time>
      </trkpt>
      <trkpt lat="46.53234" lon="0.33608">
        <ele>107.2</ele>
        <time>2021-01-24T10:10:49.000Z</time>
      </trkpt>
      <trkpt lat="46.53234" lon="0.33608">
        <ele>107.2</ele>
        <time>2021-01-24T10:10:50.000Z</time>
      </trkpt>
      <trkpt lat="46.53234" lon="0.33608">
        <ele>107.2</ele>
        <time>2021-01-24T10:10:51.000Z</time>
      </trkpt>
      <trkpt lat="46.53234" lon="0.33608">
        <ele>107.2</ele>
        <time>2021-01-24T10:10:52.000Z</time>
      </trkpt>
      <trkpt lat="46.53234" lon="0.33608">
        <ele>107.4</ele>
        <time>2021-01-24T10:10:53.000Z</time>
      </trkpt>
      <trkpt lat="46.53236" lon="0.33609">
        <ele>107.4</ele>
        <time>2021-01-24T10:10:54.000Z</time>
      </trkpt>
      <trkpt lat="46.53236" lon="0.33609">
        <ele>107.4</ele>
        <time>2021-01-24T10:10:55.000Z</time>
      </trkpt>
      <trkpt lat="46.53238" lon="0.33611">
        <ele>107.4</ele>
        <time>2021-01-24T10:10:56.000Z</time>
      </trkpt>
      <trkpt lat="46.53238" lon="0.33611">
        <ele>107.4</ele>
        <time>2021-01-24T10:10:57.000Z</time>
      </trkpt>
      <trkpt lat="46.53238" lon="0.33611">
        <ele>107.4</ele>
        <time>2021-01-24T10:10:58.000Z</time>
      </trkpt>
      <trkpt lat="46.53241" lon="0.33613">
        <ele>107.4</ele>
        <time>2021-01-24T10:10:59.000Z</time>
      </trkpt>
      <trkpt lat="46.53241" lon="0.33613">
        <ele>107.4</ele>
        <time>2021-01-24T10:11:00.000Z</time>
      </trkpt>
      <trkpt lat="46.53244" lon="0.33615">
        <ele>107.4</ele>
        <time>2021-01-24T10:11:01.000Z</time>
      </trkpt>
      <trkpt lat="46.53244" lon="0.33615">
        <ele>107.4</ele>
        <time>2021-01-24T10:11:02.000Z</time>
      </trkpt>
      <trkpt lat="46.53245" lon="0.33619">
        <ele>107.4</ele>
        <time>2021-01-24T10:11:03.000Z</time>
      </trkpt>
      <trkpt lat="46.53245" lon="0.33622">
        <ele>107.6</ele>
        <time>2021-01-24T10:11:04.000Z</time>
      </trkpt>
      <trkpt lat="46.53246" lon="0.33624">
        <ele>107.6</ele>
        <time>2021-01-24T10:11:05.000Z</time>
      </trkpt>
      <trkpt lat="46.53246" lon="0.33624">
        <ele>107.6</ele>
        <time>2021-01-24T10:11:06.000Z</time>
      </trkpt>
      <trkpt lat="46.53246" lon="0.33627">
        <ele>107.6</ele>
        <time>2021-01-24T10:11:07.000Z</time>
      </trkpt>
      <trkpt lat="46.53246" lon="0.33627">
        <ele>107.6</ele>
        <time>2021-01-24T10:11:08.000Z</time>
      </trkpt>
      <trkpt lat="46.53243" lon="0.33627">
        <ele>107.6</ele>
        <time>2021-01-24T10:11:09.000Z</time>
      </trkpt>
      <trkpt lat="46.53241" lon="0.33627">
        <ele>107.4</ele>
        <time>2021-01-24T10:11:10.000Z</time>
      </trkpt>
      <trkpt lat="46.53239" lon="0.33627">
        <ele>107.4</ele>
        <time>2021-01-24T10:11:11.000Z</time>
      </trkpt>
      <trkpt lat="46.53239" lon="0.33627">
        <ele>107.4</ele>
        <time>2021-01-24T10:11:12.000Z</time>
      </trkpt>
      <trkpt lat="46.53238" lon="0.33629">
        <ele>107.4</ele>
        <time>2021-01-24T10:11:13.000Z</time>
      </trkpt>
      <trkpt lat="46.53238" lon="0.33629">
        <ele>107.4</ele>
        <time>2021-01-24T10:11:14.000Z</time>
      </trkpt>
      <trkpt lat="46.53239" lon="0.33631">
        <ele>107.4</ele>
        <time>2021-01-24T10:11:15.000Z</time>
      </trkpt>
      <trkpt lat="46.53241" lon="0.33632">
        <ele>107.2</ele>
        <time>2021-01-24T10:11:16.000Z</time>
      </trkpt>
      <trkpt lat="46.53244" lon="0.33633">
        <ele>107.2</ele>
        <time>2021-01-24T10:11:17.000Z</time>
      </trkpt>
      <trkpt lat="46.53246" lon="0.33634">
        <ele>107.2</ele>
        <time>2021-01-24T10:11:18.000Z</time>
      </trkpt>
      <trkpt lat="46.53246" lon="0.33634">
        <ele>107.2</ele>
        <time>2021-01-24T10:11:19.000Z</time>
      </trkpt>
      <trkpt lat="46.53249" lon="0.33638">
        <ele>107</ele>
        <time>2021-01-24T10:11:20.000Z</time>
      </trkpt>
      <trkpt lat="46.53251" lon="0.3364">
        <ele>107</ele>
        <time>2021-01-24T10:11:21.000Z</time>
      </trkpt>
      <trkpt lat="46.53253" lon="0.33643">
        <ele>106.8</ele>
        <time>2021-01-24T10:11:22.000Z</time>
      </trkpt>
      <trkpt lat="46.53254" lon="0.33645">
        <ele>106.8</ele>
        <time>2021-01-24T10:11:23.000Z</time>
      </trkpt>
      <trkpt lat="46.53255" lon="0.33647">
        <ele>106.8</ele>
        <time>2021-01-24T10:11:24.000Z</time>
      </trkpt>
      <trkpt lat="46.53255" lon="0.33647">
        <ele>106.6</ele>
        <time>2021-01-24T10:11:25.000Z</time>
      </trkpt>
      <trkpt lat="46.53254" lon="0.3365">
        <ele>106.4</ele>
        <time>2021-01-24T10:11:26.000Z</time>
      </trkpt>
      <trkpt lat="46.53254" lon="0.3365">
        <ele>106.4</ele>
        <time>2021-01-24T10:11:27.000Z</time>
      </trkpt>
      <trkpt lat="46.53251" lon="0.3365">
        <ele>106.2</ele>
        <time>2021-01-24T10:11:28.000Z</time>
      </trkpt>
      <trkpt lat="46.53248" lon="0.3365">
        <ele>106.2</ele>
        <time>2021-01-24T10:11:29.000Z</time>
      </trkpt>
      <trkpt lat="46.53245" lon="0.3365">
        <ele>106</ele>
        <time>2021-01-24T10:11:30.000Z</time>
      </trkpt>
      <trkpt lat="46.53243" lon="0.3365">
        <ele>106</ele>
        <time>2021-01-24T10:11:31.000Z</time>
      </trkpt>
      <trkpt lat="46.53243" lon="0.3365">
        <ele>105.8</ele>
        <time>2021-01-24T10:11:32.000Z</time>
      </trkpt>
      <trkpt lat="46.53241" lon="0.3365">
        <ele>105.8</ele>
        <time>2021-01-24T10:11:33.000Z</time>
      </trkpt>
      <trkpt lat="46.53239" lon="0.3365">
        <ele>105.8</ele>
        <time>2021-01-24T10:11:34.000Z</time>
      </trkpt>
      <trkpt lat="46.53237" lon="0.3365">
        <ele>105.6</ele>
        <time>2021-01-24T10:11:35.000Z</time>
      </trkpt>
      <trkpt lat="46.53234" lon="0.33648">
        <ele>105.6</ele>
        <time>2021-01-24T10:11:36.000Z</time>
      </trkpt>
      <trkpt lat="46.53232" lon="0.33648">
        <ele>105.4</ele>
        <time>2021-01-24T10:11:37.000Z</time>
      </trkpt>
      <trkpt lat="46.53231" lon="0.3365">
        <ele>105.2</ele>
        <time>2021-01-24T10:11:38.000Z</time>
      </trkpt>
      <trkpt lat="46.53231" lon="0.3365">
        <ele>105.2</ele>
        <time>2021-01-24T10:11:39.000Z</time>
      </trkpt>
      <trkpt lat="46.53231" lon="0.33653">
        <ele>105</ele>
        <time>2021-01-24T10:11:40.000Z</time>
      </trkpt>
      <trkpt lat="46.53231" lon="0.33653">
        <ele>104.8</ele>
        <time>2021-01-24T10:11:41.000Z</time>
      </trkpt>
      <trkpt lat="46.53232" lon="0.33658">
        <ele>104.8</ele>
        <time>2021-01-24T10:11:42.000Z</time>
      </trkpt>
      <trkpt lat="46.53232" lon="0.3366">
        <ele>104.6</ele>
        <time>2021-01-24T10:11:43.000Z</time>
      </trkpt>
      <trkpt lat="46.53232" lon="0.3366">
        <ele>104.4</ele>
        <time>2021-01-24T10:11:44.000Z</time>
      </trkpt>
      <trkpt lat="46.53235" lon="0.33662">
        <ele>104.2</ele>
        <time>2021-01-24T10:11:45.000Z</time>
      </trkpt>
      <trkpt lat="46.53235" lon="0.33662">
        <ele>104.2</ele>
        <time>2021-01-24T10:11:46.000Z</time>
      </trkpt>
      <trkpt lat="46.53237" lon="0.33663">
        <ele>104</ele>
        <time>2021-01-24T10:11:47.000Z</time>
      </trkpt>
      <trkpt lat="46.53237" lon="0.33663">
        <ele>103.8</ele>
        <time>2021-01-24T10:11:48.000Z</time>
      </trkpt>
      <trkpt lat="46.53239" lon="0.33666">
        <ele>103.6</ele>
        <time>2021-01-24T10:11:49.000Z</time>
      </trkpt>
      <trkpt lat="46.53239" lon="0.33666">
        <ele>103.4</ele>
        <time>2021-01-24T10:11:50.000Z</time>
      </trkpt>
      <trkpt lat="46.53238" lon="0.33669">
        <ele>103.2</ele>
        <time>2021-01-24T10:11:51.000Z</time>
      </trkpt>
      <trkpt lat="46.53237" lon="0.33672">
        <ele>103.2</ele>
        <time>2021-01-24T10:11:52.000Z</time>
      </trkpt>
      <trkpt lat="46.53236" lon="0.33675">
        <ele>103.2</ele>
        <time>2021-01-24T10:11:53.000Z</time>
      </trkpt>
      <trkpt lat="46.53235" lon="0.33678">
        <ele>103.2</ele>
        <time>2021-01-24T10:11:54.000Z</time>
      </trkpt>
      <trkpt lat="46.53234" lon="0.33681">
        <ele>103.2</ele>
        <time>2021-01-24T10:11:55.000Z</time>
      </trkpt>
      <trkpt lat="46.53233" lon="0.33684">
        <ele>103.2</ele>
        <time>2021-01-24T10:11:56.000Z</time>
      </trkpt>
      <trkpt lat="46.53232" lon="0.33687">
        <ele>103.2</ele>
        <time>2021-01-24T10:11:57.000Z</time>
      </trkpt>
      <trkpt lat="46.53231" lon="0.3369">
        <ele>103.2</ele>
        <time>2021-01-24T10:11:58.000Z</time>
      </trkpt>
      <trkpt lat="46.53231" lon="0.33693">
        <ele>103.2</ele>
        <time>2021-01-24T10:11:59.000Z</time>
      </trkpt>
      <trkpt lat="46.5323" lon="0.33696">
        <ele>103.2</ele>
        <time>2021-01-24T10:12:00.000Z</time>
      </trkpt>
      <trkpt lat="46.53229" lon="0.33699">
        <ele>103</ele>
        <time>2021-01-24T10:12:01.000Z</time>
      </trkpt>
      <trkpt lat="46.53232" lon="0.33688">
        <ele>102.8</ele>
        <time>2021-01-24T10:12:02.000Z</time>
      </trkpt>
      <trkpt lat="46.53231" lon="0.33685">
        <ele>102.4</ele>
        <time>2021-01-24T10:12:03.000Z</time>
      </trkpt>
      <trkpt lat="46.53231" lon="0.33685">
        <ele>102.2</ele>
        <time>2021-01-24T10:12:04.000Z</time>
      </trkpt>
      <trkpt lat="46.53231" lon="0.33681">
        <ele>102</ele>
        <time>2021-01-24T10:12:05.000Z</time>
      </trkpt>
      <trkpt lat="46.53231" lon="0.33681">
        <ele>101.8</ele>
        <time>2021-01-24T10:12:06.000Z</time>
      </trkpt>
      <trkpt lat="46.53229" lon="0.33679">
        <ele>101.4</ele>
        <time>2021-01-24T10:12:07.000Z</time>
      </trkpt>
      <trkpt lat="46.53229" lon="0.33679">
        <ele>101.2</ele>
        <time>2021-01-24T10:12:08.000Z</time>
      </trkpt>
      <trkpt lat="46.53229" lon="0.33679">
        <ele>100.8</ele>
        <time>2021-01-24T10:12:09.000Z</time>
      </trkpt>
      <trkpt lat="46.53229" lon="0.33679">
        <ele>100.4</ele>
        <time>2021-01-24T10:12:10.000Z</time>
      </trkpt>
      <trkpt lat="46.53229" lon="0.33679">
        <ele>100</ele>
        <time>2021-01-24T10:12:11.000Z</time>
      </trkpt>
      <trkpt lat="46.53229" lon="0.33679">
        <ele>99.6</ele>
        <time>2021-01-24T10:12:12.000Z</time>
      </trkpt>
      <trkpt lat="46.53229" lon="0.33679">
        <ele>99.2</ele>
        <time>2021-01-24T10:12:13.000Z</time>
      </trkpt>
      <trkpt lat="46.53229" lon="0.33679">
        <ele>98.8</ele>
        <time>2021-01-24T10:12:14.000Z</time>
      </trkpt>
      <trkpt lat="46.53229" lon="0.33679">
        <ele>98.6</ele>
        <time>2021-01-24T10:12:15.000Z</time>
      </trkpt>
      <trkpt lat="46.53229" lon="0.33679">
        <ele>98.2</ele>
        <time>2021-01-24T10:12:16.000Z</time>
      </trkpt>
      <trkpt lat="46.53229" lon="0.33679">
        <ele>98</ele>
        <time>2021-01-24T10:12:17.000Z</time>
      </trkpt>
      <trkpt lat="46.53229" lon="0.33679">
        <ele>97.8</ele>
        <time>2021-01-24T10:12:18.000Z</time>
      </trkpt>
      <trkpt lat="46.53229" lon="0.33679">
        <ele>97.4</ele>
        <time>2021-01-24T10:12:19.000Z</time>
      </trkpt>
      <trkpt lat="46.53229" lon="0.33679">
        <ele>97</ele>
        <time>2021-01-24T10:12:20.000Z</time>
      </trkpt>
      <trkpt lat="46.53229" lon="0.33679">
        <ele>96.8</ele>
        <time>2021-01-24T10:12:21.000Z</time>
      </trkpt>
      <trkpt lat="46.53229" lon="0.33679">
        <ele>96.4</ele>
        <time>2021-01-24T10:12:22.000Z</time>
      </trkpt>
      <trkpt lat="46.53229" lon="0.33679">
        <ele>96.2</ele>
        <time>2021-01-24T10:12:23.000Z</time>
      </trkpt>
      <trkpt lat="46.53229" lon="0.33679">
        <ele>95.8</ele>
        <time>2021-01-24T10:12:24.000Z</time>
      </trkpt>
      <trkpt lat="46.53229" lon="0.33679">
        <ele>95.6</ele>
        <time>2021-01-24T10:12:25.000Z</time>
      </trkpt>
      <trkpt lat="46.53229" lon="0.33679">
        <ele>95.2</ele>
        <time>2021-01-24T10:12:26.000Z</time>
      </trkpt>
      <trkpt lat="46.53229" lon="0.33679">
        <ele>95</ele>
        <time>2021-01-24T10:12:27.000Z</time>
      </trkpt>
      <trkpt lat="46.53229" lon="0.33679">
        <ele>94.8</ele>
        <time>2021-01-24T10:12:28.000Z</time>
      </trkpt>
      <trkpt lat="46.53229" lon="0.33679">
        <ele>94.4</ele>
        <time>2021-01-24T10:12:29.000Z</time>
      </trkpt>
      <trkpt lat="46.53229" lon="0.33679">
        <ele>94.2</ele>
        <time>2021-01-24T10:12:30.000Z</time>
      </trkpt>
      <trkpt lat="46.53229" lon="0.33679">
        <ele>94</ele>
        <time>2021-01-24T10:12:31.000Z</time>
      </trkpt>
      <trkpt lat="46.53229" lon="0.33679">
        <ele>93.8</ele>
        <time>2021-01-24T10:12:32.000Z</time>
      </trkpt>
      <trkpt lat="46.53229" lon="0.33679">
        <ele>93.6</ele>
        <time>2021-01-24T10:12:33.000Z</time>
      </trkpt>
      <trkpt lat="46.53229" lon="0.33679">
        <ele>93.4</ele>
        <time>2021-01-24T10:12:34.000Z</time>
      </trkpt>
      <trkpt lat="46.53229" lon="0.33679">
        <ele>93.2</ele>
        <time>2021-01-24T10:12:35.000Z</time>
      </trkpt>
      <trkpt lat="46.53229" lon="0.33679">
        <ele>93</ele>
        <time>2021-01-24T10:12:36.000Z</time>
      </trkpt>
      <trkpt lat="46.53229" lon="0.33679">
        <ele>92.8</ele>
        <time>2021-01-24T10:12:37.000Z</time>
      </trkpt>
      <trkpt lat="46.53229" lon="0.33679">
        <ele>92.6</ele>
        <time>2021-01-24T10:12:38.000Z</time>
      </trkpt>
      <trkpt lat="46.53229" lon="0.33679">
        <ele>92.4</ele>
        <time>2021-01-24T10:12:39.000Z</time>
      </trkpt>
      <trkpt lat="46.53229" lon="0.33679">
        <ele>92.2</ele>
        <time>2021-01-24T10:12:40.000Z</time>
      </trkpt>
      <trkpt lat="46.53229" lon="0.33679">
        <ele>92</ele>
        <time>2021-01-24T10:12:41.000Z</time>
      </trkpt>
      <trkpt lat="46.53229" lon="0.33679">
        <ele>91.8</ele>
        <time>2021-01-24T10:12:42.000Z</time>
      </trkpt>
      <trkpt lat="46.53229" lon="0.33679">
        <ele>91.6</ele>
        <time>2021-01-24T10:12:43.000Z</time>
      </trkpt>
      <trkpt lat="46.53229" lon="0.33679">
        <ele>91.4</ele>
        <time>2021-01-24T10:12:44.000Z</time>
      </trkpt>
      <trkpt lat="46.53229" lon="0.33679">
        <ele>91.2</ele>
        <time>2021-01-24T10:12:45.000Z</time>
      </trkpt>
      <trkpt lat="46.53229" lon="0.33679">
        <ele>91.2</ele>
        <time>2021-01-24T10:12:46.000Z</time>
      </trkpt>
      <trkpt lat="46.53229" lon="0.33679">
        <ele>91</ele>
        <time>2021-01-24T10:12:47.000Z</time>
      </trkpt>
      <trkpt lat="46.53229" lon="0.33679">
        <ele>90.8</ele>
        <time>2021-01-24T10:12:48.000Z</time>
      </trkpt>
      <trkpt lat="46.53229" lon="0.33679">
        <ele>90.6</ele>
        <time>2021-01-24T10:12:49.000Z</time>
      </trkpt>
      <trkpt lat="46.53229" lon="0.33679">
        <ele>90.6</ele>
        <time>2021-01-24T10:12:50.000Z</time>
      </trkpt>
      <trkpt lat="46.53229" lon="0.33679">
        <ele>90.4</ele>
        <time>2021-01-24T10:12:51.000Z</time>
      </trkpt>
      <trkpt lat="46.53229" lon="0.33679">
        <ele>90.2</ele>
        <time>2021-01-24T10:12:52.000Z</time>
      </trkpt>
      <trkpt lat="46.53229" lon="0.33679">
        <ele>90.2</ele>
        <time>2021-01-24T10:12:53.000Z</time>
      </trkpt>
      <trkpt lat="46.53229" lon="0.33679">
        <ele>90</ele>
        <time>2021-01-24T10:12:54.000Z</time>
      </trkpt>
      <trkpt lat="46.53229" lon="0.33679">
        <ele>89.8</ele>
        <time>2021-01-24T10:12:55.000Z</time>
      </trkpt>
      <trkpt lat="46.53229" lon="0.33679">
        <ele>89.8</ele>
        <time>2021-01-24T10:12:56.000Z</time>
      </trkpt>
      <trkpt lat="46.53229" lon="0.33679">
        <ele>89.6</ele>
        <time>2021-01-24T10:12:57.000Z</time>
      </trkpt>
      <trkpt lat="46.53229" lon="0.33679">
        <ele>89.4</ele>
        <time>2021-01-24T10:12:58.000Z</time>
      </trkpt>
      <trkpt lat="46.53229" lon="0.33679">
        <ele>89.4</ele>
        <time>2021-01-24T10:12:59.000Z</time>
      </trkpt>
      <trkpt lat="46.53229" lon="0.33679">
        <ele>89.2</ele>
        <time>2021-01-24T10:13:00.000Z</time>
      </trkpt>
      <trkpt lat="46.53229" lon="0.33679">
        <ele>89.2</ele>
        <time>2021-01-24T10:13:01.000Z</time>
      </trkpt>
      <trkpt lat="46.53229" lon="0.33679">
        <ele>89</ele>
        <time>2021-01-24T10:13:02.000Z</time>
      </trkpt>
      <trkpt lat="46.53229" lon="0.33679">
        <ele>88.8</ele>
        <time>2021-01-24T10:13:03.000Z</time>
      </trkpt>
      <trkpt lat="46.53229" lon="0.33679">
        <ele>88.8</ele>
        <time>2021-01-24T10:13:04.000Z</time>
      </trkpt>
      <trkpt lat="46.53229" lon="0.33679">
        <ele>88.6</ele>
        <time>2021-01-24T10:13:05.000Z</time>
      </trkpt>
      <trkpt lat="46.53229" lon="0.33679">
        <ele>88.6</ele>
        <time>2021-01-24T10:13:06.000Z</time>
      </trkpt>
      <trkpt lat="46.53229" lon="0.33679">
        <ele>88.4</ele>
        <time>2021-01-24T10:13:07.000Z</time>
      </trkpt>
      <trkpt lat="46.53229" lon="0.33679">
        <ele>88.4</ele>
        <time>2021-01-24T10:13:08.000Z</time>
      </trkpt>
      <trkpt lat="46.53229" lon="0.33679">
        <ele>88.2</ele>
        <time>2021-01-24T10:13:09.000Z</time>
      </trkpt>
      <trkpt lat="46.53229" lon="0.33679">
        <ele>88.2</ele>
        <time>2021-01-24T10:13:10.000Z</time>
      </trkpt>
      <trkpt lat="46.53229" lon="0.33679">
        <ele>88</ele>
        <time>2021-01-24T10:13:11.000Z</time>
      </trkpt>
      <trkpt lat="46.53229" lon="0.33679">
        <ele>88</ele>
        <time>2021-01-24T10:13:12.000Z</time>
      </trkpt>
      <trkpt lat="46.53229" lon="0.33679">
        <ele>87.8</ele>
        <time>2021-01-24T10:13:13.000Z</time>
      </trkpt>
      <trkpt lat="46.53229" lon="0.33679">
        <ele>87.8</ele>
        <time>2021-01-24T10:13:14.000Z</time>
      </trkpt>
      <trkpt lat="46.53229" lon="0.33679">
        <ele>87.8</ele>
        <time>2021-01-24T10:13:15.000Z</time>
      </trkpt>
      <trkpt lat="46.53229" lon="0.33679">
        <ele>87.6</ele>
        <time>2021-01-24T10:13:16.000Z</time>
      </trkpt>
      <trkpt lat="46.53229" lon="0.33679">
        <ele>87.6</ele>
        <time>2021-01-24T10:13:17.000Z</time>
      </trkpt>
      <trkpt lat="46.53229" lon="0.33679">
        <ele>87.4</ele>
        <time>2021-01-24T10:13:18.000Z</time>
      </trkpt>
      <trkpt lat="46.53229" lon="0.33679">
        <ele>87.4</ele>
        <time>2021-01-24T10:13:19.000Z</time>
      </trkpt>
      <trkpt lat="46.53229" lon="0.33679">
        <ele>87.2</ele>
        <time>2021-01-24T10:13:20.000Z</time>
      </trkpt>
      <trkpt lat="46.53229" lon="0.33679">
        <ele>87.2</ele>
        <time>2021-01-24T10:13:21.000Z</time>
      </trkpt>
      <trkpt lat="46.53229" lon="0.33679">
        <ele>87.2</ele>
        <time>2021-01-24T10:13:22.000Z</time>
      </trkpt>
      <trkpt lat="46.53229" lon="0.33679">
        <ele>87</ele>
        <time>2021-01-24T10:13:23.000Z</time>
      </trkpt>
      <trkpt lat="46.53229" lon="0.33679">
        <ele>87</ele>
        <time>2021-01-24T10:13:24.000Z</time>
      </trkpt>
      <trkpt lat="46.53229" lon="0.33679">
        <ele>86.8</ele>
        <time>2021-01-24T10:13:25.000Z</time>
      </trkpt>
      <trkpt lat="46.53229" lon="0.33679">
        <ele>86.8</ele>
        <time>2021-01-24T10:13:26.000Z</time>
      </trkpt>
      <trkpt lat="46.53229" lon="0.33679">
        <ele>86.8</ele>
        <time>2021-01-24T10:13:27.000Z</time>
      </trkpt>
      <trkpt lat="46.53229" lon="0.33679">
        <ele>86.6</ele>
        <time>2021-01-24T10:13:28.000Z</time>
      </trkpt>
      <trkpt lat="46.53229" lon="0.33679">
        <ele>86.6</ele>
        <time>2021-01-24T10:13:29.000Z</time>
      </trkpt>
      <trkpt lat="46.53229" lon="0.33679">
        <ele>86.6</ele>
        <time>2021-01-24T10:13:30.000Z</time>
      </trkpt>
      <trkpt lat="46.53229" lon="0.33679">
        <ele>86.4</ele>
        <time>2021-01-24T10:13:31.000Z</time>
      </trkpt>
      <trkpt lat="46.53229" lon="0.33679">
        <ele>86.4</ele>
        <time>2021-01-24T10:13:32.000Z</time>
      </trkpt>
      <trkpt lat="46.53229" lon="0.33679">
        <ele>86.4</ele>
        <time>2021-01-24T10:13:33.000Z</time>
      </trkpt>
      <trkpt lat="46.53229" lon="0.33679">
        <ele>86.4</ele>
        <time>2021-01-24T10:13:34.000Z</time>
      </trkpt>
      <trkpt lat="46.53229" lon="0.33679">
        <ele>86.2</ele>
        <time>2021-01-24T10:13:35.000Z</time>
      </trkpt>
      <trkpt lat="46.53229" lon="0.33679">
        <ele>86.2</ele>
        <time>2021-01-24T10:13:36.000Z</time>
      </trkpt>
      <trkpt lat="46.53229" lon="0.33679">
        <ele>86.2</ele>
        <time>2021-01-24T10:13:37.000Z</time>
      </trkpt>
      <trkpt lat="46.53229" lon="0.33679">
        <ele>86</ele>
        <time>2021-01-24T10:13:38.000Z</time>
      </trkpt>
      <trkpt lat="46.53229" lon="0.33679">
        <ele>86</ele>
        <time>2021-01-24T10:13:39.000Z</time>
      </trkpt>
      <trkpt lat="46.53229" lon="0.33679">
        <ele>86</ele>
        <time>2021-01-24T10:13:40.000Z</time>
      </trkpt>
      <trkpt lat="46.53229" lon="0.33679">
        <ele>86</ele>
        <time>2021-01-24T10:13:41.000Z</time>
      </trkpt>
      <trkpt lat="46.53229" lon="0.33679">
        <ele>85.8</ele>
        <time>2021-01-24T10:13:42.000Z</time>
      </trkpt>
      <trkpt lat="46.53229" lon="0.33679">
        <ele>85.8</ele>
        <time>2021-01-24T10:13:43.000Z</time>
      </trkpt>
      <trkpt lat="46.53229" lon="0.33679">
        <ele>85.8</ele>
        <time>2021-01-24T10:13:44.000Z</time>
      </trkpt>
      <trkpt lat="46.53228" lon="0.33683">
        <ele>85.8</ele>
        <time>2021-01-24T10:13:45.000Z</time>
      </trkpt>
      <trkpt lat="46.53227" lon="0.33687">
        <ele>85.8</ele>
        <time>2021-01-24T10:13:46.000Z</time>
      </trkpt>
      <trkpt lat="46.53226" lon="0.33691">
        <ele>85.6</ele>
        <time>2021-01-24T10:13:47.000Z</time>
      </trkpt>
      <trkpt lat="46.53225" lon="0.33694">
        <ele>85.6</ele>
        <time>2021-01-24T10:13:48.000Z</time>
      </trkpt>
      <trkpt lat="46.53225" lon="0.33694">
        <ele>85.6</ele>
        <time>2021-01-24T10:13:49.000Z</time>
      </trkpt>
      <trkpt lat="46.53225" lon="0.33694">
        <ele>85.4</ele>
        <time>2021-01-24T10:13:50.000Z</time>
      </trkpt>
      <trkpt lat="46.53225" lon="0.33697">
        <ele>85.4</ele>
        <time>2021-01-24T10:13:51.000Z</time>
      </trkpt>
      <trkpt lat="46.53225" lon="0.33697">
        <ele>85.4</ele>
        <time>2021-01-24T10:13:52.000Z</time>
      </trkpt>
      <trkpt lat="46.53227" lon="0.33698">
        <ele>85.4</ele>
        <time>2021-01-24T10:13:53.000Z</time>
      </trkpt>
      <trkpt lat="46.53227" lon="0.33698">
        <ele>85.4</ele>
        <time>2021-01-24T10:13:54.000Z</time>
      </trkpt>
      <trkpt lat="46.53227" lon="0.33698">
        <ele>85.4</ele>
        <time>2021-01-24T10:13:55.000Z</time>
      </trkpt>
      <trkpt lat="46.53227" lon="0.33698">
        <ele>85.4</ele>
        <time>2021-01-24T10:13:56.000Z</time>
      </trkpt>
      <trkpt lat="46.53227" lon="0.33698">
        <ele>85.4</ele>
        <time>2021-01-24T10:13:57.000Z</time>
      </trkpt>
      <trkpt lat="46.53227" lon="0.33698">
        <ele>85.2</ele>
        <time>2021-01-24T10:13:58.000Z</time>
      </trkpt>
      <trkpt lat="46.53227" lon="0.33698">
        <ele>85.2</ele>
        <time>2021-01-24T10:13:59.000Z</time>
      </trkpt>
      <trkpt lat="46.53227" lon="0.33698">
        <ele>85.2</ele>
        <time>2021-01-24T10:14:00.000Z</time>
      </trkpt>
      <trkpt lat="46.53227" lon="0.33698">
        <ele>85.2</ele>
        <time>2021-01-24T10:14:01.000Z</time>
      </trkpt>
      <trkpt lat="46.53227" lon="0.33698">
        <ele>85.2</ele>
        <time>2021-01-24T10:14:02.000Z</time>
      </trkpt>
      <trkpt lat="46.53227" lon="0.33702">
        <ele>85</ele>
        <time>2021-01-24T10:14:03.000Z</time>
      </trkpt>
      <trkpt lat="46.53227" lon="0.33702">
        <ele>85</ele>
        <time>2021-01-24T10:14:04.000Z</time>
      </trkpt>
      <trkpt lat="46.53227" lon="0.33702">
        <ele>85</ele>
        <time>2021-01-24T10:14:05.000Z</time>
      </trkpt>
      <trkpt lat="46.53227" lon="0.33702">
        <ele>84.8</ele>
        <time>2021-01-24T10:14:06.000Z</time>
      </trkpt>
      <trkpt lat="46.53227" lon="0.33702">
        <ele>84.6</ele>
        <time>2021-01-24T10:14:07.000Z</time>
      </trkpt>
      <trkpt lat="46.53227" lon="0.33702">
        <ele>84.6</ele>
        <time>2021-01-24T10:14:08.000Z</time>
      </trkpt>
      <trkpt lat="46.53227" lon="0.33702">
        <ele>84.4</ele>
        <time>2021-01-24T10:14:09.000Z</time>
      </trkpt>
      <trkpt lat="46.53227" lon="0.33702">
        <ele>84.2</ele>
        <time>2021-01-24T10:14:10.000Z</time>
      </trkpt>
      <trkpt lat="46.53227" lon="0.33702">
        <ele>84.2</ele>
        <time>2021-01-24T10:14:11.000Z</time>
      </trkpt>
      <trkpt lat="46.53227" lon="0.33702">
        <ele>84</ele>
        <time>2021-01-24T10:14:12.000Z</time>
      </trkpt>
      <trkpt lat="46.53227" lon="0.33702">
        <ele>83.8</ele>
        <time>2021-01-24T10:14:13.000Z</time>
      </trkpt>
      <trkpt lat="46.53227" lon="0.33702">
        <ele>83.6</ele>
        <time>2021-01-24T10:14:14.000Z</time>
      </trkpt>
      <trkpt lat="46.53227" lon="0.33702">
        <ele>83.6</ele>
        <time>2021-01-24T10:14:15.000Z</time>
      </trkpt>
      <trkpt lat="46.53227" lon="0.33702">
        <ele>83.4</ele>
        <time>2021-01-24T10:14:16.000Z</time>
      </trkpt>
      <trkpt lat="46.53227" lon="0.33702">
        <ele>83.4</ele>
        <time>2021-01-24T10:14:17.000Z</time>
      </trkpt>
      <trkpt lat="46.53227" lon="0.33702">
        <ele>83.2</ele>
        <time>2021-01-24T10:14:18.000Z</time>
      </trkpt>
      <trkpt lat="46.53227" lon="0.33702">
        <ele>83</ele>
        <time>2021-01-24T10:14:19.000Z</time>
      </trkpt>
      <trkpt lat="46.53227" lon="0.33702">
        <ele>83</ele>
        <time>2021-01-24T10:14:20.000Z</time>
      </trkpt>
      <trkpt lat="46.53227" lon="0.33702">
        <ele>82.8</ele>
        <time>2021-01-24T10:14:21.000Z</time>
      </trkpt>
      <trkpt lat="46.53229" lon="0.33704">
        <ele>82.8</ele>
        <time>2021-01-24T10:14:22.000Z</time>
      </trkpt>
      <trkpt lat="46.53229" lon="0.33704">
        <ele>82.6</ele>
        <time>2021-01-24T10:14:23.000Z</time>
      </trkpt>
      <trkpt lat="46.53229" lon="0.33704">
        <ele>82.4</ele>
        <time>2021-01-24T10:14:24.000Z</time>
      </trkpt>
      <trkpt lat="46.5323" lon="0.33707">
        <ele>82.4</ele>
        <time>2021-01-24T10:14:25.000Z</time>
      </trkpt>
      <trkpt lat="46.5323" lon="0.33707">
        <ele>82.4</ele>
        <time>2021-01-24T10:14:26.000Z</time>
      </trkpt>
      <trkpt lat="46.5323" lon="0.33707">
        <ele>82.2</ele>
        <time>2021-01-24T10:14:27.000Z</time>
      </trkpt>
      <trkpt lat="46.5323" lon="0.33707">
        <ele>82.2</ele>
        <time>2021-01-24T10:14:28.000Z</time>
      </trkpt>
      <trkpt lat="46.53231" lon="0.33709">
        <ele>82</ele>
        <time>2021-01-24T10:14:29.000Z</time>
      </trkpt>
      <trkpt lat="46.53231" lon="0.33709">
        <ele>82</ele>
        <time>2021-01-24T10:14:30.000Z</time>
      </trkpt>
      <trkpt lat="46.53231" lon="0.33709">
        <ele>81.8</ele>
        <time>2021-01-24T10:14:31.000Z</time>
      </trkpt>
      <trkpt lat="46.53231" lon="0.33709">
        <ele>81.8</ele>
        <time>2021-01-24T10:14:32.000Z</time>
      </trkpt>
      <trkpt lat="46.53231" lon="0.33709">
        <ele>81.8</ele>
        <time>2021-01-24T10:14:33.000Z</time>
      </trkpt>
      <trkpt lat="46.53231" lon="0.33709">
        <ele>81.8</ele>
        <time>2021-01-24T10:14:34.000Z</time>
      </trkpt>
      <trkpt lat="46.53231" lon="0.33709">
        <ele>81.8</ele>
        <time>2021-01-24T10:14:35.000Z</time>
      </trkpt>
      <trkpt lat="46.53231" lon="0.33709">
        <ele>81.8</ele>
        <time>2021-01-24T10:14:36.000Z</time>
      </trkpt>
      <trkpt lat="46.53231" lon="0.33709">
        <ele>81.8</ele>
        <time>2021-01-24T10:14:37.000Z</time>
      </trkpt>
      <trkpt lat="46.53231" lon="0.33709">
        <ele>81.8</ele>
        <time>2021-01-24T10:14:38.000Z</time>
      </trkpt>
      <trkpt lat="46.53231" lon="0.33709">
        <ele>81.8</ele>
        <time>2021-01-24T10:14:39.000Z</time>
      </trkpt>
      <trkpt lat="46.53231" lon="0.33709">
        <ele>82</ele>
        <time>2021-01-24T10:14:40.000Z</time>
      </trkpt>
      <trkpt lat="46.53231" lon="0.33709">
        <ele>82</ele>
        <time>2021-01-24T10:14:41.000Z</time>
      </trkpt>
      <trkpt lat="46.53231" lon="0.33709">
        <ele>82</ele>
        <time>2021-01-24T10:14:42.000Z</time>
      </trkpt>
      <trkpt lat="46.53231" lon="0.33709">
        <ele>82</ele>
        <time>2021-01-24T10:14:43.000Z</time>
      </trkpt>
      <trkpt lat="46.53231" lon="0.33709">
        <ele>82.2</ele>
        <time>2021-01-24T10:14:44.000Z</time>
      </trkpt>
      <trkpt lat="46.53231" lon="0.33709">
        <ele>82.2</ele>
        <time>2021-01-24T10:14:45.000Z</time>
      </trkpt>
      <trkpt lat="46.53231" lon="0.33709">
        <ele>82.2</ele>
        <time>2021-01-24T10:14:46.000Z</time>
      </trkpt>
      <trkpt lat="46.53231" lon="0.33709">
        <ele>82.4</ele>
        <time>2021-01-24T10:14:47.000Z</time>
      </trkpt>
      <trkpt lat="46.53231" lon="0.33709">
        <ele>82.4</ele>
        <time>2021-01-24T10:14:48.000Z</time>
      </trkpt>
      <trkpt lat="46.53231" lon="0.33709">
        <ele>82.4</ele>
        <time>2021-01-24T10:14:49.000Z</time>
      </trkpt>
      <trkpt lat="46.53231" lon="0.33709">
        <ele>82.4</ele>
        <time>2021-01-24T10:14:50.000Z</time>
      </trkpt>
      <trkpt lat="46.53231" lon="0.33709">
        <ele>82.6</ele>
        <time>2021-01-24T10:14:51.000Z</time>
      </trkpt>
      <trkpt lat="46.53231" lon="0.33709">
        <ele>82.6</ele>
        <time>2021-01-24T10:14:52.000Z</time>
      </trkpt>
      <trkpt lat="46.53231" lon="0.33709">
        <ele>82.6</ele>
        <time>2021-01-24T10:14:53.000Z</time>
      </trkpt>
      <trkpt lat="46.53231" lon="0.33709">
        <ele>82.6</ele>
        <time>2021-01-24T10:14:54.000Z</time>
      </trkpt>
      <trkpt lat="46.53231" lon="0.33709">
        <ele>82.6</ele>
        <time>2021-01-24T10:14:55.000Z</time>
      </trkpt>
      <trkpt lat="46.53231" lon="0.33709">
        <ele>82.6</ele>
        <time>2021-01-24T10:14:56.000Z</time>
      </trkpt>
      <trkpt lat="46.53231" lon="0.33709">
        <ele>82.6</ele>
        <time>2021-01-24T10:14:57.000Z</time>
      </trkpt>
      <trkpt lat="46.53231" lon="0.33709">
        <ele>82.8</ele>
        <time>2021-01-24T10:14:58.000Z</time>
      </trkpt>
      <trkpt lat="46.53231" lon="0.33709">
        <ele>82.8</ele>
        <time>2021-01-24T10:14:59.000Z</time>
      </trkpt>
      <trkpt lat="46.53231" lon="0.33709">
        <ele>82.8</ele>
        <time>2021-01-24T10:15:00.000Z</time>
      </trkpt>
      <trkpt lat="46.53231" lon="0.33709">
        <ele>82.8</ele>
        <time>2021-01-24T10:15:01.000Z</time>
      </trkpt>
      <trkpt lat="46.53231" lon="0.33709">
        <ele>82.8</ele>
        <time>2021-01-24T10:15:02.000Z</time>
      </trkpt>
      <trkpt lat="46.53231" lon="0.33709">
        <ele>82.8</ele>
        <time>2021-01-24T10:15:03.000Z</time>
      </trkpt>
      <trkpt lat="46.53231" lon="0.33709">
        <ele>82.8</ele>
        <time>2021-01-24T10:15:04.000Z</time>
      </trkpt>
      <trkpt lat="46.53231" lon="0.33709">
        <ele>82.8</ele>
        <time>2021-01-24T10:15:05.000Z</time>
      </trkpt>
      <trkpt lat="46.53231" lon="0.33709">
        <ele>83</ele>
        <time>2021-01-24T10:15:06.000Z</time>
      </trkpt>
      <trkpt lat="46.53231" lon="0.33709">
        <ele>83</ele>
        <time>2021-01-24T10:15:07.000Z</time>
      </trkpt>
      <trkpt lat="46.53231" lon="0.33709">
        <ele>83</ele>
        <time>2021-01-24T10:15:08.000Z</time>
      </trkpt>
      <trkpt lat="46.53231" lon="0.33709">
        <ele>83</ele>
        <time>2021-01-24T10:15:09.000Z</time>
      </trkpt>
      <trkpt lat="46.53231" lon="0.33709">
        <ele>83</ele>
        <time>2021-01-24T10:15:10.000Z</time>
      </trkpt>
      <trkpt lat="46.53231" lon="0.33709">
        <ele>83</ele>
        <time>2021-01-24T10:15:11.000Z</time>
      </trkpt>
      <trkpt lat="46.53231" lon="0.33709">
        <ele>83</ele>
        <time>2021-01-24T10:15:12.000Z</time>
      </trkpt>
      <trkpt lat="46.53231" lon="0.33709">
        <ele>83</ele>
        <time>2021-01-24T10:15:13.000Z</time>
      </trkpt>
      <trkpt lat="46.53231" lon="0.33709">
        <ele>83</ele>
        <time>2021-01-24T10:15:14.000Z</time>
      </trkpt>
      <trkpt lat="46.53231" lon="0.33709">
        <ele>83</ele>
        <time>2021-01-24T10:15:15.000Z</time>
      </trkpt>
      <trkpt lat="46.53231" lon="0.33709">
        <ele>83</ele>
        <time>2021-01-24T10:15:16.000Z</time>
      </trkpt>
      <trkpt lat="46.53231" lon="0.33709">
        <ele>83.2</ele>
        <time>2021-01-24T10:15:17.000Z</time>
      </trkpt>
      <trkpt lat="46.53231" lon="0.33709">
        <ele>83.2</ele>
        <time>2021-01-24T10:15:18.000Z</time>
      </trkpt>
      <trkpt lat="46.53231" lon="0.33709">
        <ele>83.2</ele>
        <time>2021-01-24T10:15:19.000Z</time>
      </trkpt>
      <trkpt lat="46.53231" lon="0.33709">
        <ele>83.2</ele>
        <time>2021-01-24T10:15:20.000Z</time>
      </trkpt>
      <trkpt lat="46.53231" lon="0.33709">
        <ele>83.2</ele>
        <time>2021-01-24T10:15:21.000Z</time>
      </trkpt>
      <trkpt lat="46.53231" lon="0.33709">
        <ele>83.2</ele>
        <time>2021-01-24T10:15:22.000Z</time>
      </trkpt>
      <trkpt lat="46.53231" lon="0.33709">
        <ele>83.2</ele>
        <time>2021-01-24T10:15:23.000Z</time>
      </trkpt>
      <trkpt lat="46.53231" lon="0.33709">
        <ele>83.2</ele>
        <time>2021-01-24T10:15:24.000Z</time>
      </trkpt>
      <trkpt lat="46.53231" lon="0.33709">
        <ele>83.2</ele>
        <time>2021-01-24T10:15:25.000Z</time>
      </trkpt>
      <trkpt lat="46.53231" lon="0.33709">
        <ele>83.2</ele>
        <time>2021-01-24T10:15:26.000Z</time>
      </trkpt>
      <trkpt lat="46.53231" lon="0.33709">
        <ele>83.2</ele>
        <time>2021-01-24T10:15:27.000Z</time>
      </trkpt>
      <trkpt lat="46.53231" lon="0.33709">
        <ele>83.2</ele>
        <time>2021-01-24T10:15:28.000Z</time>
      </trkpt>
      <trkpt lat="46.53231" lon="0.33709">
        <ele>83.2</ele>
        <time>2021-01-24T10:15:29.000Z</time>
      </trkpt>
      <trkpt lat="46.53231" lon="0.33709">
        <ele>83.2</ele>
        <time>2021-01-24T10:15:30.000Z</time>
      </trkpt>
      <trkpt lat="46.53231" lon="0.33709">
        <ele>83.2</ele>
        <time>2021-01-24T10:15:31.000Z</time>
      </trkpt>
      <trkpt lat="46.53231" lon="0.33709">
        <ele>83.2</ele>
        <time>2021-01-24T10:15:32.000Z</time>
      </trkpt>
      <trkpt lat="46.53231" lon="0.33709">
        <ele>83.2</ele>
        <time>2021-01-24T10:15:33.000Z</time>
      </trkpt>
      <trkpt lat="46.53231" lon="0.33709">
        <ele>83.2</ele>
        <time>2021-01-24T10:15:34.000Z</time>
      </trkpt>
      <trkpt lat="46.53231" lon="0.33709">
        <ele>83.2</ele>
        <time>2021-01-24T10:15:35.000Z</time>
      </trkpt>
      <trkpt lat="46.53231" lon="0.33709">
        <ele>83.2</ele>
        <time>2021-01-24T10:15:36.000Z</time>
      </trkpt>
      <trkpt lat="46.53231" lon="0.33709">
        <ele>83.2</ele>
        <time>2021-01-24T10:15:37.000Z</time>
      </trkpt>
      <trkpt lat="46.53231" lon="0.33709">
        <ele>83.2</ele>
        <time>2021-01-24T10:15:38.000Z</time>
      </trkpt>
      <trkpt lat="46.5323" lon="0.33712">
        <ele>83.2</ele>
        <time>2021-01-24T10:15:39.000Z</time>
      </trkpt>
      <trkpt lat="46.53232" lon="0.33713">
        <ele>83.2</ele>
        <time>2021-01-24T10:15:40.000Z</time>
      </trkpt>
      <trkpt lat="46.53235" lon="0.33714">
        <ele>83.2</ele>
        <time>2021-01-24T10:15:41.000Z</time>
      </trkpt>
      <trkpt lat="46.53237" lon="0.33715">
        <ele>83.2</ele>
        <time>2021-01-24T10:15:42.000Z</time>
      </trkpt>
      <trkpt lat="46.53239" lon="0.33717">
        <ele>83.2</ele>
        <time>2021-01-24T10:15:43.000Z</time>
      </trkpt>
      <trkpt lat="46.53241" lon="0.33718">
        <ele>83.2</ele>
        <time>2021-01-24T10:15:44.000Z</time>
      </trkpt>
      <trkpt lat="46.53243" lon="0.3372">
        <ele>83.2</ele>
        <time>2021-01-24T10:15:45.000Z</time>
      </trkpt>
      <trkpt lat="46.53246" lon="0.33721">
        <ele>83</ele>
        <time>2021-01-24T10:15:46.000Z</time>
      </trkpt>
      <trkpt lat="46.53248" lon="0.33722">
        <ele>83</ele>
        <time>2021-01-24T10:15:47.000Z</time>
      </trkpt>
      <trkpt lat="46.53251" lon="0.33723">
        <ele>83</ele>
        <time>2021-01-24T10:15:48.000Z</time>
      </trkpt>
      <trkpt lat="46.53253" lon="0.33724">
        <ele>83</ele>
        <time>2021-01-24T10:15:49.000Z</time>
      </trkpt>
      <trkpt lat="46.53253" lon="0.33724">
        <ele>83</ele>
        <time>2021-01-24T10:15:50.000Z</time>
      </trkpt>
      <trkpt lat="46.53256" lon="0.33725">
        <ele>83</ele>
        <time>2021-01-24T10:15:51.000Z</time>
      </trkpt>
      <trkpt lat="46.53258" lon="0.33727">
        <ele>83</ele>
        <time>2021-01-24T10:15:52.000Z</time>
      </trkpt>
      <trkpt lat="46.5326" lon="0.33728">
        <ele>83</ele>
        <time>2021-01-24T10:15:53.000Z</time>
      </trkpt>
      <trkpt lat="46.53262" lon="0.3373">
        <ele>83</ele>
        <time>2021-01-24T10:15:54.000Z</time>
      </trkpt>
      <trkpt lat="46.53264" lon="0.3373">
        <ele>82.8</ele>
        <time>2021-01-24T10:15:55.000Z</time>
      </trkpt>
      <trkpt lat="46.53267" lon="0.33731">
        <ele>82.8</ele>
        <time>2021-01-24T10:15:56.000Z</time>
      </trkpt>
      <trkpt lat="46.53269" lon="0.33732">
        <ele>82.8</ele>
        <time>2021-01-24T10:15:57.000Z</time>
      </trkpt>
      <trkpt lat="46.53271" lon="0.33734">
        <ele>82.8</ele>
        <time>2021-01-24T10:15:58.000Z</time>
      </trkpt>
      <trkpt lat="46.53274" lon="0.33736">
        <ele>82.6</ele>
        <time>2021-01-24T10:15:59.000Z</time>
      </trkpt>
      <trkpt lat="46.53277" lon="0.33737">
        <ele>82.6</ele>
        <time>2021-01-24T10:16:00.000Z</time>
      </trkpt>
      <trkpt lat="46.5328" lon="0.33739">
        <ele>82.6</ele>
        <time>2021-01-24T10:16:01.000Z</time>
      </trkpt>
      <trkpt lat="46.53283" lon="0.33741">
        <ele>82.6</ele>
        <time>2021-01-24T10:16:02.000Z</time>
      </trkpt>
      <trkpt lat="46.53286" lon="0.33742">
        <ele>82.6</ele>
        <time>2021-01-24T10:16:03.000Z</time>
      </trkpt>
      <trkpt lat="46.53289" lon="0.33744">
        <ele>82.6</ele>
        <time>2021-01-24T10:16:04.000Z</time>
      </trkpt>
      <trkpt lat="46.53291" lon="0.33746">
        <ele>82.6</ele>
        <time>2021-01-24T10:16:05.000Z</time>
      </trkpt>
      <trkpt lat="46.53293" lon="0.33747">
        <ele>82.6</ele>
        <time>2021-01-24T10:16:06.000Z</time>
      </trkpt>
      <trkpt lat="46.53296" lon="0.33749">
        <ele>82.6</ele>
        <time>2021-01-24T10:16:07.000Z</time>
      </trkpt>
      <trkpt lat="46.53299" lon="0.33752">
        <ele>82.6</ele>
        <time>2021-01-24T10:16:08.000Z</time>
      </trkpt>
      <trkpt lat="46.53302" lon="0.33753">
        <ele>82.6</ele>
        <time>2021-01-24T10:16:09.000Z</time>
      </trkpt>
      <trkpt lat="46.53305" lon="0.33755">
        <ele>82.6</ele>
        <time>2021-01-24T10:16:10.000Z</time>
      </trkpt>
      <trkpt lat="46.53308" lon="0.33756">
        <ele>82.6</ele>
        <time>2021-01-24T10:16:11.000Z</time>
      </trkpt>
      <trkpt lat="46.53311" lon="0.33757">
        <ele>82.4</ele>
        <time>2021-01-24T10:16:12.000Z</time>
      </trkpt>
      <trkpt lat="46.53313" lon="0.33759">
        <ele>82.4</ele>
        <time>2021-01-24T10:16:13.000Z</time>
      </trkpt>
      <trkpt lat="46.53316" lon="0.33759">
        <ele>82.4</ele>
        <time>2021-01-24T10:16:14.000Z</time>
      </trkpt>
      <trkpt lat="46.53318" lon="0.3376">
        <ele>82.2</ele>
        <time>2021-01-24T10:16:15.000Z</time>
      </trkpt>
      <trkpt lat="46.5332" lon="0.33761">
        <ele>82.2</ele>
        <time>2021-01-24T10:16:16.000Z</time>
      </trkpt>
      <trkpt lat="46.53322" lon="0.33761">
        <ele>82.2</ele>
        <time>2021-01-24T10:16:17.000Z</time>
      </trkpt>
      <trkpt lat="46.53325" lon="0.33761">
        <ele>82.2</ele>
        <time>2021-01-24T10:16:18.000Z</time>
      </trkpt>
      <trkpt lat="46.53328" lon="0.33761">
        <ele>82.2</ele>
        <time>2021-01-24T10:16:19.000Z</time>
      </trkpt>
      <trkpt lat="46.53332" lon="0.33762">
        <ele>82.2</ele>
        <time>2021-01-24T10:16:20.000Z</time>
      </trkpt>
      <trkpt lat="46.53334" lon="0.33764">
        <ele>82.2</ele>
        <time>2021-01-24T10:16:21.000Z</time>
      </trkpt>
      <trkpt lat="46.53337" lon="0.33765">
        <ele>82.2</ele>
        <time>2021-01-24T10:16:22.000Z</time>
      </trkpt>
      <trkpt lat="46.5334" lon="0.33766">
        <ele>82.2</ele>
        <time>2021-01-24T10:16:23.000Z</time>
      </trkpt>
      <trkpt lat="46.53343" lon="0.33767">
        <ele>82.2</ele>
        <time>2021-01-24T10:16:24.000Z</time>
      </trkpt>
      <trkpt lat="46.53346" lon="0.33768">
        <ele>82.2</ele>
        <time>2021-01-24T10:16:25.000Z</time>
      </trkpt>
      <trkpt lat="46.53348" lon="0.33769">
        <ele>82</ele>
        <time>2021-01-24T10:16:26.000Z</time>
      </trkpt>
      <trkpt lat="46.5335" lon="0.3377">
        <ele>82</ele>
        <time>2021-01-24T10:16:27.000Z</time>
      </trkpt>
      <trkpt lat="46.53352" lon="0.33771">
        <ele>82</ele>
        <time>2021-01-24T10:16:28.000Z</time>
      </trkpt>
      <trkpt lat="46.53355" lon="0.33771">
        <ele>81.8</ele>
        <time>2021-01-24T10:16:29.000Z</time>
      </trkpt>
      <trkpt lat="46.53357" lon="0.33771">
        <ele>81.8</ele>
        <time>2021-01-24T10:16:30.000Z</time>
      </trkpt>
      <trkpt lat="46.53359" lon="0.33772">
        <ele>81.8</ele>
        <time>2021-01-24T10:16:31.000Z</time>
      </trkpt>
      <trkpt lat="46.53361" lon="0.33774">
        <ele>81.6</ele>
        <time>2021-01-24T10:16:32.000Z</time>
      </trkpt>
      <trkpt lat="46.53364" lon="0.33776">
        <ele>81.6</ele>
        <time>2021-01-24T10:16:33.000Z</time>
      </trkpt>
      <trkpt lat="46.53366" lon="0.33777">
        <ele>81.4</ele>
        <time>2021-01-24T10:16:34.000Z</time>
      </trkpt>
      <trkpt lat="46.53368" lon="0.33778">
        <ele>81.4</ele>
        <time>2021-01-24T10:16:35.000Z</time>
      </trkpt>
      <trkpt lat="46.53371" lon="0.33778">
        <ele>81.4</ele>
        <time>2021-01-24T10:16:36.000Z</time>
      </trkpt>
      <trkpt lat="46.53373" lon="0.33779">
        <ele>81.2</ele>
        <time>2021-01-24T10:16:37.000Z</time>
      </trkpt>
      <trkpt lat="46.53375" lon="0.3378">
        <ele>81.2</ele>
        <time>2021-01-24T10:16:38.000Z</time>
      </trkpt>
      <trkpt lat="46.53377" lon="0.33782">
        <ele>81.2</ele>
        <time>2021-01-24T10:16:39.000Z</time>
      </trkpt>
      <trkpt lat="46.5338" lon="0.33783">
        <ele>81.2</ele>
        <time>2021-01-24T10:16:40.000Z</time>
      </trkpt>
      <trkpt lat="46.53382" lon="0.33784">
        <ele>81.2</ele>
        <time>2021-01-24T10:16:41.000Z</time>
      </trkpt>
      <trkpt lat="46.53385" lon="0.33784">
        <ele>81</ele>
        <time>2021-01-24T10:16:42.000Z</time>
      </trkpt>
      <trkpt lat="46.53387" lon="0.33785">
        <ele>81</ele>
        <time>2021-01-24T10:16:43.000Z</time>
      </trkpt>
      <trkpt lat="46.53389" lon="0.33787">
        <ele>81</ele>
        <time>2021-01-24T10:16:44.000Z</time>
      </trkpt>
      <trkpt lat="46.53391" lon="0.33788">
        <ele>80.8</ele>
        <time>2021-01-24T10:16:45.000Z</time>
      </trkpt>
      <trkpt lat="46.53393" lon="0.33789">
        <ele>80.8</ele>
        <time>2021-01-24T10:16:46.000Z</time>
      </trkpt>
      <trkpt lat="46.53395" lon="0.3379">
        <ele>80.8</ele>
        <time>2021-01-24T10:16:47.000Z</time>
      </trkpt>
      <trkpt lat="46.53395" lon="0.3379">
        <ele>80.6</ele>
        <time>2021-01-24T10:16:48.000Z</time>
      </trkpt>
      <trkpt lat="46.53401" lon="0.33792">
        <ele>80.6</ele>
        <time>2021-01-24T10:16:49.000Z</time>
      </trkpt>
      <trkpt lat="46.53402" lon="0.33793">
        <ele>80.6</ele>
        <time>2021-01-24T10:16:50.000Z</time>
      </trkpt>
      <trkpt lat="46.53404" lon="0.33794">
        <ele>80.4</ele>
        <time>2021-01-24T10:16:51.000Z</time>
      </trkpt>
      <trkpt lat="46.53406" lon="0.33796">
        <ele>80.4</ele>
        <time>2021-01-24T10:16:52.000Z</time>
      </trkpt>
      <trkpt lat="46.53408" lon="0.33798">
        <ele>80.4</ele>
        <time>2021-01-24T10:16:53.000Z</time>
      </trkpt>
      <trkpt lat="46.53408" lon="0.33798">
        <ele>80.4</ele>
        <time>2021-01-24T10:16:54.000Z</time>
      </trkpt>
      <trkpt lat="46.53411" lon="0.33798">
        <ele>80.2</ele>
        <time>2021-01-24T10:16:55.000Z</time>
      </trkpt>
      <trkpt lat="46.53414" lon="0.338">
        <ele>80.2</ele>
        <time>2021-01-24T10:16:56.000Z</time>
      </trkpt>
      <trkpt lat="46.53416" lon="0.33801">
        <ele>80.2</ele>
        <time>2021-01-24T10:16:57.000Z</time>
      </trkpt>
      <trkpt lat="46.53418" lon="0.33804">
        <ele>80.2</ele>
        <time>2021-01-24T10:16:58.000Z</time>
      </trkpt>
      <trkpt lat="46.53421" lon="0.33805">
        <ele>80.2</ele>
        <time>2021-01-24T10:16:59.000Z</time>
      </trkpt>
      <trkpt lat="46.53421" lon="0.33805">
        <ele>80.2</ele>
        <time>2021-01-24T10:17:00.000Z</time>
      </trkpt>
      <trkpt lat="46.53424" lon="0.33804">
        <ele>80</ele>
        <time>2021-01-24T10:17:01.000Z</time>
      </trkpt>
      <trkpt lat="46.53424" lon="0.33804">
        <ele>80</ele>
        <time>2021-01-24T10:17:02.000Z</time>
      </trkpt>
      <trkpt lat="46.53427" lon="0.33806">
        <ele>80</ele>
        <time>2021-01-24T10:17:03.000Z</time>
      </trkpt>
      <trkpt lat="46.53429" lon="0.33808">
        <ele>80</ele>
        <time>2021-01-24T10:17:04.000Z</time>
      </trkpt>
      <trkpt lat="46.53432" lon="0.33809">
        <ele>79.8</ele>
        <time>2021-01-24T10:17:05.000Z</time>
      </trkpt>
      <trkpt lat="46.53436" lon="0.3381">
        <ele>79.8</ele>
        <time>2021-01-24T10:17:06.000Z</time>
      </trkpt>
      <trkpt lat="46.53438" lon="0.33811">
        <ele>79.8</ele>
        <time>2021-01-24T10:17:07.000Z</time>
      </trkpt>
      <trkpt lat="46.5344" lon="0.33811">
        <ele>79.8</ele>
        <time>2021-01-24T10:17:08.000Z</time>
      </trkpt>
      <trkpt lat="46.53445" lon="0.33813">
        <ele>79.8</ele>
        <time>2021-01-24T10:17:09.000Z</time>
      </trkpt>
      <trkpt lat="46.53449" lon="0.33814">
        <ele>79.8</ele>
        <time>2021-01-24T10:17:10.000Z</time>
      </trkpt>
      <trkpt lat="46.5345" lon="0.33817">
        <ele>79.8</ele>
        <time>2021-01-24T10:17:11.000Z</time>
      </trkpt>
      <trkpt lat="46.5345" lon="0.33817">
        <ele>79.8</ele>
        <time>2021-01-24T10:17:12.000Z</time>
      </trkpt>
      <trkpt lat="46.5345" lon="0.33817">
        <ele>79.8</ele>
        <time>2021-01-24T10:17:13.000Z</time>
      </trkpt>
      <trkpt lat="46.5345" lon="0.33817">
        <ele>79.8</ele>
        <time>2021-01-24T10:17:14.000Z</time>
      </trkpt>
      <trkpt lat="46.5345" lon="0.33817">
        <ele>79.8</ele>
        <time>2021-01-24T10:17:15.000Z</time>
      </trkpt>
      <trkpt lat="46.5345" lon="0.33817">
        <ele>79.8</ele>
        <time>2021-01-24T10:17:16.000Z</time>
      </trkpt>
      <trkpt lat="46.5345" lon="0.33817">
        <ele>79.8</ele>
        <time>2021-01-24T10:17:17.000Z</time>
      </trkpt>
      <trkpt lat="46.5345" lon="0.33817">
        <ele>79.8</ele>
        <time>2021-01-24T10:17:18.000Z</time>
      </trkpt>
      <trkpt lat="46.5345" lon="0.33817">
        <ele>79.8</ele>
        <time>2021-01-24T10:17:19.000Z</time>
      </trkpt>
      <trkpt lat="46.5345" lon="0.33817">
        <ele>79.8</ele>
        <time>2021-01-24T10:17:20.000Z</time>
      </trkpt>
      <trkpt lat="46.5345" lon="0.33817">
        <ele>79.8</ele>
        <time>2021-01-24T10:17:21.000Z</time>
      </trkpt>
      <trkpt lat="46.5345" lon="0.33817">
        <ele>79.8</ele>
        <time>2021-01-24T10:17:22.000Z</time>
      </trkpt>
      <trkpt lat="46.5345" lon="0.33817">
        <ele>79.8</ele>
        <time>2021-01-24T10:17:23.000Z</time>
      </trkpt>
      <trkpt lat="46.5345" lon="0.33817">
        <ele>79.8</ele>
        <time>2021-01-24T10:17:24.000Z</time>
      </trkpt>
      <trkpt lat="46.5345" lon="0.33817">
        <ele>79.8</ele>
        <time>2021-01-24T10:17:25.000Z</time>
      </trkpt>
      <trkpt lat="46.5345" lon="0.33817">
        <ele>79.8</ele>
        <time>2021-01-24T10:17:26.000Z</time>
      </trkpt>
      <trkpt lat="46.5345" lon="0.33817">
        <ele>79.8</ele>
        <time>2021-01-24T10:17:27.000Z</time>
      </trkpt>
      <trkpt lat="46.5345" lon="0.33817">
        <ele>79.6</ele>
        <time>2021-01-24T10:17:28.000Z</time>
      </trkpt>
      <trkpt lat="46.5345" lon="0.33817">
        <ele>79.6</ele>
        <time>2021-01-24T10:17:29.000Z</time>
      </trkpt>
      <trkpt lat="46.5345" lon="0.33817">
        <ele>79.6</ele>
        <time>2021-01-24T10:17:30.000Z</time>
      </trkpt>
      <trkpt lat="46.5345" lon="0.33817">
        <ele>79.6</ele>
        <time>2021-01-24T10:17:31.000Z</time>
      </trkpt>
      <trkpt lat="46.5345" lon="0.33817">
        <ele>79.6</ele>
        <time>2021-01-24T10:17:32.000Z</time>
      </trkpt>
      <trkpt lat="46.5345" lon="0.33817">
        <ele>79.6</ele>
        <time>2021-01-24T10:17:33.000Z</time>
      </trkpt>
      <trkpt lat="46.5345" lon="0.33817">
        <ele>79.6</ele>
        <time>2021-01-24T10:17:34.000Z</time>
      </trkpt>
      <trkpt lat="46.5345" lon="0.33817">
        <ele>79.6</ele>
        <time>2021-01-24T10:17:35.000Z</time>
      </trkpt>
      <trkpt lat="46.5345" lon="0.33817">
        <ele>79.8</ele>
        <time>2021-01-24T10:17:36.000Z</time>
      </trkpt>
      <trkpt lat="46.5345" lon="0.33817">
        <ele>79.8</ele>
        <time>2021-01-24T10:17:37.000Z</time>
      </trkpt>
      <trkpt lat="46.5345" lon="0.33817">
        <ele>79.8</ele>
        <time>2021-01-24T10:17:38.000Z</time>
      </trkpt>
      <trkpt lat="46.5345" lon="0.33817">
        <ele>79.8</ele>
        <time>2021-01-24T10:17:39.000Z</time>
      </trkpt>
      <trkpt lat="46.5345" lon="0.33814">
        <ele>80</ele>
        <time>2021-01-24T10:17:40.000Z</time>
      </trkpt>
      <trkpt lat="46.5345" lon="0.33814">
        <ele>80</ele>
        <time>2021-01-24T10:17:41.000Z</time>
      </trkpt>
      <trkpt lat="46.5345" lon="0.33814">
        <ele>80</ele>
        <time>2021-01-24T10:17:42.000Z</time>
      </trkpt>
      <trkpt lat="46.5345" lon="0.33814">
        <ele>80</ele>
        <time>2021-01-24T10:17:43.000Z</time>
      </trkpt>
      <trkpt lat="46.5345" lon="0.33814">
        <ele>80.2</ele>
        <time>2021-01-24T10:17:44.000Z</time>
      </trkpt>
      <trkpt lat="46.5345" lon="0.33811">
        <ele>80.2</ele>
        <time>2021-01-24T10:17:45.000Z</time>
      </trkpt>
      <trkpt lat="46.5345" lon="0.33811">
        <ele>80.2</ele>
        <time>2021-01-24T10:17:46.000Z</time>
      </trkpt>
      <trkpt lat="46.5345" lon="0.33811">
        <ele>80.2</ele>
        <time>2021-01-24T10:17:47.000Z</time>
      </trkpt>
      <trkpt lat="46.5345" lon="0.33811">
        <ele>80.4</ele>
        <time>2021-01-24T10:17:48.000Z</time>
      </trkpt>
      <trkpt lat="46.53452" lon="0.33812">
        <ele>80.4</ele>
        <time>2021-01-24T10:17:49.000Z</time>
      </trkpt>
      <trkpt lat="46.53452" lon="0.33812">
        <ele>80.4</ele>
        <time>2021-01-24T10:17:50.000Z</time>
      </trkpt>
      <trkpt lat="46.53452" lon="0.33812">
        <ele>80.4</ele>
        <time>2021-01-24T10:17:51.000Z</time>
      </trkpt>
      <trkpt lat="46.53452" lon="0.33812">
        <ele>80.4</ele>
        <time>2021-01-24T10:17:52.000Z</time>
      </trkpt>
      <trkpt lat="46.53452" lon="0.33812">
        <ele>80.4</ele>
        <time>2021-01-24T10:17:53.000Z</time>
      </trkpt>
      <trkpt lat="46.53454" lon="0.33811">
        <ele>80.4</ele>
        <time>2021-01-24T10:17:54.000Z</time>
      </trkpt>
      <trkpt lat="46.53454" lon="0.33811">
        <ele>80.4</ele>
        <time>2021-01-24T10:17:55.000Z</time>
      </trkpt>
      <trkpt lat="46.53454" lon="0.33811">
        <ele>80.4</ele>
        <time>2021-01-24T10:17:56.000Z</time>
      </trkpt>
      <trkpt lat="46.53454" lon="0.33811">
        <ele>80.2</ele>
        <time>2021-01-24T10:17:57.000Z</time>
      </trkpt>
      <trkpt lat="46.53454" lon="0.33811">
        <ele>80.2</ele>
        <time>2021-01-24T10:17:58.000Z</time>
      </trkpt>
      <trkpt lat="46.53454" lon="0.33811">
        <ele>80</ele>
        <time>2021-01-24T10:17:59.000Z</time>
      </trkpt>
      <trkpt lat="46.53454" lon="0.33811">
        <ele>80</ele>
        <time>2021-01-24T10:18:00.000Z</time>
      </trkpt>
      <trkpt lat="46.53454" lon="0.33811">
        <ele>80</ele>
        <time>2021-01-24T10:18:01.000Z</time>
      </trkpt>
      <trkpt lat="46.53454" lon="0.33811">
        <ele>80</ele>
        <time>2021-01-24T10:18:02.000Z</time>
      </trkpt>
      <trkpt lat="46.53454" lon="0.33811">
        <ele>80</ele>
        <time>2021-01-24T10:18:03.000Z</time>
      </trkpt>
      <trkpt lat="46.53454" lon="0.33811">
        <ele>80</ele>
        <time>2021-01-24T10:18:04.000Z</time>
      </trkpt>
      <trkpt lat="46.53454" lon="0.33811">
        <ele>80</ele>
        <time>2021-01-24T10:18:05.000Z</time>
      </trkpt>
      <trkpt lat="46.53454" lon="0.33811">
        <ele>80</ele>
        <time>2021-01-24T10:18:06.000Z</time>
      </trkpt>
      <trkpt lat="46.53454" lon="0.33811">
        <ele>80</ele>
        <time>2021-01-24T10:18:07.000Z</time>
      </trkpt>
      <trkpt lat="46.53454" lon="0.33811">
        <ele>80</ele>
        <time>2021-01-24T10:18:08.000Z</time>
      </trkpt>
      <trkpt lat="46.53454" lon="0.33811">
        <ele>80</ele>
        <time>2021-01-24T10:18:09.000Z</time>
      </trkpt>
      <trkpt lat="46.53454" lon="0.33811">
        <ele>80</ele>
        <time>2021-01-24T10:18:10.000Z</time>
      </trkpt>
      <trkpt lat="46.53454" lon="0.33811">
        <ele>80</ele>
        <time>2021-01-24T10:18:11.000Z</time>
      </trkpt>
      <trkpt lat="46.53454" lon="0.33811">
        <ele>80</ele>
        <time>2021-01-24T10:18:12.000Z</time>
      </trkpt>
      <trkpt lat="46.53454" lon="0.33811">
        <ele>80</ele>
        <time>2021-01-24T10:18:13.000Z</time>
      </trkpt>
      <trkpt lat="46.53454" lon="0.33811">
        <ele>80</ele>
        <time>2021-01-24T10:18:14.000Z</time>
      </trkpt>
      <trkpt lat="46.53454" lon="0.33811">
        <ele>80</ele>
        <time>2021-01-24T10:18:15.000Z</time>
      </trkpt>
      <trkpt lat="46.53454" lon="0.33811">
        <ele>80</ele>
        <time>2021-01-24T10:18:16.000Z</time>
      </trkpt>
      <trkpt lat="46.53454" lon="0.33811">
        <ele>80</ele>
        <time>2021-01-24T10:18:17.000Z</time>
      </trkpt>
      <trkpt lat="46.53454" lon="0.33811">
        <ele>80</ele>
        <time>2021-01-24T10:18:18.000Z</time>
      </trkpt>
      <trkpt lat="46.53454" lon="0.33811">
        <ele>80</ele>
        <time>2021-01-24T10:18:19.000Z</time>
      </trkpt>
      <trkpt lat="46.53454" lon="0.33811">
        <ele>80</ele>
        <time>2021-01-24T10:18:20.000Z</time>
      </trkpt>
      <trkpt lat="46.53454" lon="0.33811">
        <ele>80</ele>
        <time>2021-01-24T10:18:21.000Z</time>
      </trkpt>
      <trkpt lat="46.53454" lon="0.33811">
        <ele>80</ele>
        <time>2021-01-24T10:18:22.000Z</time>
      </trkpt>
      <trkpt lat="46.53454" lon="0.33811">
        <ele>80</ele>
        <time>2021-01-24T10:18:23.000Z</time>
      </trkpt>
      <trkpt lat="46.53454" lon="0.33811">
        <ele>80</ele>
        <time>2021-01-24T10:18:24.000Z</time>
      </trkpt>
      <trkpt lat="46.53454" lon="0.33811">
        <ele>80</ele>
        <time>2021-01-24T10:18:25.000Z</time>
      </trkpt>
      <trkpt lat="46.53454" lon="0.33811">
        <ele>80</ele>
        <time>2021-01-24T10:18:26.000Z</time>
      </trkpt>
      <trkpt lat="46.53454" lon="0.33811">
        <ele>80</ele>
        <time>2021-01-24T10:18:27.000Z</time>
      </trkpt>
      <trkpt lat="46.53454" lon="0.33811">
        <ele>80</ele>
        <time>2021-01-24T10:18:28.000Z</time>
      </trkpt>
      <trkpt lat="46.53454" lon="0.33811">
        <ele>80</ele>
        <time>2021-01-24T10:18:29.000Z</time>
      </trkpt>
      <trkpt lat="46.53454" lon="0.33811">
        <ele>80</ele>
        <time>2021-01-24T10:18:30.000Z</time>
      </trkpt>
      <trkpt lat="46.53456" lon="0.33811">
        <ele>80</ele>
        <time>2021-01-24T10:18:31.000Z</time>
      </trkpt>
      <trkpt lat="46.53456" lon="0.33811">
        <ele>80</ele>
        <time>2021-01-24T10:18:32.000Z</time>
      </trkpt>
      <trkpt lat="46.53456" lon="0.33811">
        <ele>80</ele>
        <time>2021-01-24T10:18:33.000Z</time>
      </trkpt>
      <trkpt lat="46.53456" lon="0.33811">
        <ele>80</ele>
        <time>2021-01-24T10:18:34.000Z</time>
      </trkpt>
      <trkpt lat="46.53458" lon="0.33812">
        <ele>80</ele>
        <time>2021-01-24T10:18:35.000Z</time>
      </trkpt>
      <trkpt lat="46.53458" lon="0.33812">
        <ele>80</ele>
        <time>2021-01-24T10:18:36.000Z</time>
      </trkpt>
      <trkpt lat="46.53458" lon="0.33812">
        <ele>80</ele>
        <time>2021-01-24T10:18:37.000Z</time>
      </trkpt>
      <trkpt lat="46.53458" lon="0.33812">
        <ele>80.2</ele>
        <time>2021-01-24T10:18:38.000Z</time>
      </trkpt>
      <trkpt lat="46.53458" lon="0.33812">
        <ele>80.2</ele>
        <time>2021-01-24T10:18:39.000Z</time>
      </trkpt>
      <trkpt lat="46.53458" lon="0.33812">
        <ele>80.2</ele>
        <time>2021-01-24T10:18:40.000Z</time>
      </trkpt>
      <trkpt lat="46.53458" lon="0.33812">
        <ele>80.4</ele>
        <time>2021-01-24T10:18:41.000Z</time>
      </trkpt>
      <trkpt lat="46.53458" lon="0.33812">
        <ele>80.4</ele>
        <time>2021-01-24T10:18:42.000Z</time>
      </trkpt>
      <trkpt lat="46.53458" lon="0.33812">
        <ele>80.6</ele>
        <time>2021-01-24T10:18:43.000Z</time>
      </trkpt>
      <trkpt lat="46.53458" lon="0.33812">
        <ele>80.6</ele>
        <time>2021-01-24T10:18:44.000Z</time>
      </trkpt>
      <trkpt lat="46.53458" lon="0.33812">
        <ele>80.8</ele>
        <time>2021-01-24T10:18:45.000Z</time>
      </trkpt>
      <trkpt lat="46.53458" lon="0.33812">
        <ele>81</ele>
        <time>2021-01-24T10:18:46.000Z</time>
      </trkpt>
      <trkpt lat="46.53458" lon="0.33812">
        <ele>81</ele>
        <time>2021-01-24T10:18:47.000Z</time>
      </trkpt>
      <trkpt lat="46.53458" lon="0.33812">
        <ele>81.2</ele>
        <time>2021-01-24T10:18:48.000Z</time>
      </trkpt>
      <trkpt lat="46.53458" lon="0.33812">
        <ele>81.2</ele>
        <time>2021-01-24T10:18:49.000Z</time>
      </trkpt>
      <trkpt lat="46.53458" lon="0.33812">
        <ele>81.4</ele>
        <time>2021-01-24T10:18:50.000Z</time>
      </trkpt>
      <trkpt lat="46.53458" lon="0.33812">
        <ele>81.6</ele>
        <time>2021-01-24T10:18:51.000Z</time>
      </trkpt>
      <trkpt lat="46.53458" lon="0.33812">
        <ele>81.6</ele>
        <time>2021-01-24T10:18:52.000Z</time>
      </trkpt>
      <trkpt lat="46.53458" lon="0.33812">
        <ele>81.8</ele>
        <time>2021-01-24T10:18:53.000Z</time>
      </trkpt>
      <trkpt lat="46.53458" lon="0.33812">
        <ele>81.8</ele>
        <time>2021-01-24T10:18:54.000Z</time>
      </trkpt>
      <trkpt lat="46.53458" lon="0.33812">
        <ele>82</ele>
        <time>2021-01-24T10:18:55.000Z</time>
      </trkpt>
      <trkpt lat="46.53458" lon="0.33812">
        <ele>82</ele>
        <time>2021-01-24T10:18:56.000Z</time>
      </trkpt>
      <trkpt lat="46.53458" lon="0.33812">
        <ele>82.2</ele>
        <time>2021-01-24T10:18:57.000Z</time>
      </trkpt>
      <trkpt lat="46.53461" lon="0.33812">
        <ele>82.2</ele>
        <time>2021-01-24T10:18:58.000Z</time>
      </trkpt>
      <trkpt lat="46.53461" lon="0.33812">
        <ele>82.4</ele>
        <time>2021-01-24T10:18:59.000Z</time>
      </trkpt>
      <trkpt lat="46.53463" lon="0.33812">
        <ele>82.4</ele>
        <time>2021-01-24T10:19:00.000Z</time>
      </trkpt>
      <trkpt lat="46.53463" lon="0.33812">
        <ele>82.6</ele>
        <time>2021-01-24T10:19:01.000Z</time>
      </trkpt>
      <trkpt lat="46.53465" lon="0.33812">
        <ele>82.6</ele>
        <time>2021-01-24T10:19:02.000Z</time>
      </trkpt>
      <trkpt lat="46.53465" lon="0.33812">
        <ele>82.8</ele>
        <time>2021-01-24T10:19:03.000Z</time>
      </trkpt>
      <trkpt lat="46.53465" lon="0.33812">
        <ele>82.8</ele>
        <time>2021-01-24T10:19:04.000Z</time>
      </trkpt>
      <trkpt lat="46.53465" lon="0.33812">
        <ele>82.8</ele>
        <time>2021-01-24T10:19:05.000Z</time>
      </trkpt>
      <trkpt lat="46.53467" lon="0.33811">
        <ele>83</ele>
        <time>2021-01-24T10:19:07.000Z</time>
      </trkpt>
      <trkpt lat="46.53467" lon="0.33811">
        <ele>83</ele>
        <time>2021-01-24T10:19:08.000Z</time>
      </trkpt>
      <trkpt lat="46.53467" lon="0.33811">
        <ele>83.2</ele>
        <time>2021-01-24T10:19:09.000Z</time>
      </trkpt>
      <trkpt lat="46.53467" lon="0.33811">
        <ele>83.2</ele>
        <time>2021-01-24T10:19:10.000Z</time>
      </trkpt>
      <trkpt lat="46.53467" lon="0.33811">
        <ele>83.2</ele>
        <time>2021-01-24T10:19:11.000Z</time>
      </trkpt>
      <trkpt lat="46.53467" lon="0.33811">
        <ele>83.4</ele>
        <time>2021-01-24T10:19:12.000Z</time>
      </trkpt>
      <trkpt lat="46.53467" lon="0.33811">
        <ele>83.4</ele>
        <time>2021-01-24T10:19:13.000Z</time>
      </trkpt>
      <trkpt lat="46.53467" lon="0.33811">
        <ele>83.4</ele>
        <time>2021-01-24T10:19:14.000Z</time>
      </trkpt>
      <trkpt lat="46.53467" lon="0.33811">
        <ele>83.6</ele>
        <time>2021-01-24T10:19:15.000Z</time>
      </trkpt>
      <trkpt lat="46.53467" lon="0.33811">
        <ele>83.8</ele>
        <time>2021-01-24T10:19:16.000Z</time>
      </trkpt>
      <trkpt lat="46.53467" lon="0.33811">
        <ele>83.8</ele>
        <time>2021-01-24T10:19:17.000Z</time>
      </trkpt>
      <trkpt lat="46.53467" lon="0.33811">
        <ele>83.8</ele>
        <time>2021-01-24T10:19:18.000Z</time>
      </trkpt>
      <trkpt lat="46.53467" lon="0.33811">
        <ele>83.8</ele>
        <time>2021-01-24T10:19:19.000Z</time>
      </trkpt>
      <trkpt lat="46.53467" lon="0.33811">
        <ele>83.8</ele>
        <time>2021-01-24T10:19:20.000Z</time>
      </trkpt>
      <trkpt lat="46.53467" lon="0.33811">
        <ele>84</ele>
        <time>2021-01-24T10:19:21.000Z</time>
      </trkpt>
      <trkpt lat="46.53467" lon="0.33811">
        <ele>84</ele>
        <time>2021-01-24T10:19:22.000Z</time>
      </trkpt>
      <trkpt lat="46.53467" lon="0.33811">
        <ele>84</ele>
        <time>2021-01-24T10:19:23.000Z</time>
      </trkpt>
      <trkpt lat="46.53469" lon="0.33812">
        <ele>84</ele>
        <time>2021-01-24T10:19:24.000Z</time>
      </trkpt>
      <trkpt lat="46.53469" lon="0.33812">
        <ele>84.2</ele>
        <time>2021-01-24T10:19:26.000Z</time>
      </trkpt>
      <trkpt lat="46.53469" lon="0.33812">
        <ele>84.2</ele>
        <time>2021-01-24T10:19:27.000Z</time>
      </trkpt>
      <trkpt lat="46.53469" lon="0.33812">
        <ele>84.2</ele>
        <time>2021-01-24T10:19:28.000Z</time>
      </trkpt>
      <trkpt lat="46.53469" lon="0.33812">
        <ele>84.2</ele>
        <time>2021-01-24T10:19:29.000Z</time>
      </trkpt>
      <trkpt lat="46.53469" lon="0.33812">
        <ele>84.2</ele>
        <time>2021-01-24T10:19:30.000Z</time>
      </trkpt>
      <trkpt lat="46.53469" lon="0.33812">
        <ele>84.2</ele>
        <time>2021-01-24T10:19:31.000Z</time>
      </trkpt>
      <trkpt lat="46.53469" lon="0.33812">
        <ele>84.2</ele>
        <time>2021-01-24T10:19:32.000Z</time>
      </trkpt>
      <trkpt lat="46.53469" lon="0.33812">
        <ele>84.4</ele>
        <time>2021-01-24T10:19:33.000Z</time>
      </trkpt>
      <trkpt lat="46.53472" lon="0.33814">
        <ele>84.4</ele>
        <time>2021-01-24T10:19:34.000Z</time>
      </trkpt>
      <trkpt lat="46.53472" lon="0.33814">
        <ele>84.4</ele>
        <time>2021-01-24T10:19:35.000Z</time>
      </trkpt>
      <trkpt lat="46.53475" lon="0.33815">
        <ele>84.6</ele>
        <time>2021-01-24T10:19:36.000Z</time>
      </trkpt>
      <trkpt lat="46.53475" lon="0.33815">
        <ele>84.8</ele>
        <time>2021-01-24T10:19:37.000Z</time>
      </trkpt>
      <trkpt lat="46.53477" lon="0.33817">
        <ele>84.8</ele>
        <time>2021-01-24T10:19:38.000Z</time>
      </trkpt>
      <trkpt lat="46.53477" lon="0.33817">
        <ele>84.8</ele>
        <time>2021-01-24T10:19:39.000Z</time>
      </trkpt>
      <trkpt lat="46.53477" lon="0.33817">
        <ele>85</ele>
        <time>2021-01-24T10:19:40.000Z</time>
      </trkpt>
      <trkpt lat="46.5348" lon="0.33817">
        <ele>85</ele>
        <time>2021-01-24T10:19:41.000Z</time>
      </trkpt>
      <trkpt lat="46.5348" lon="0.33817">
        <ele>85.2</ele>
        <time>2021-01-24T10:19:42.000Z</time>
      </trkpt>
      <trkpt lat="46.53482" lon="0.33819">
        <ele>85.2</ele>
        <time>2021-01-24T10:19:43.000Z</time>
      </trkpt>
      <trkpt lat="46.53482" lon="0.33819">
        <ele>85.2</ele>
        <time>2021-01-24T10:19:44.000Z</time>
      </trkpt>
      <trkpt lat="46.53482" lon="0.33819">
        <ele>85.2</ele>
        <time>2021-01-24T10:19:45.000Z</time>
      </trkpt>
      <trkpt lat="46.53482" lon="0.33819">
        <ele>85.4</ele>
        <time>2021-01-24T10:19:46.000Z</time>
      </trkpt>
      <trkpt lat="46.53482" lon="0.33819">
        <ele>85.4</ele>
        <time>2021-01-24T10:19:47.000Z</time>
      </trkpt>
      <trkpt lat="46.53482" lon="0.33819">
        <ele>85.4</ele>
        <time>2021-01-24T10:19:48.000Z</time>
      </trkpt>
      <trkpt lat="46.53482" lon="0.33819">
        <ele>85.4</ele>
        <time>2021-01-24T10:19:49.000Z</time>
      </trkpt>
      <trkpt lat="46.53482" lon="0.33819">
        <ele>85.6</ele>
        <time>2021-01-24T10:19:50.000Z</time>
      </trkpt>
      <trkpt lat="46.53482" lon="0.33819">
        <ele>85.6</ele>
        <time>2021-01-24T10:19:51.000Z</time>
      </trkpt>
      <trkpt lat="46.53482" lon="0.33819">
        <ele>85.6</ele>
        <time>2021-01-24T10:19:52.000Z</time>
      </trkpt>
      <trkpt lat="46.53482" lon="0.33819">
        <ele>85.8</ele>
        <time>2021-01-24T10:19:53.000Z</time>
      </trkpt>
      <trkpt lat="46.53482" lon="0.33819">
        <ele>85.8</ele>
        <time>2021-01-24T10:19:54.000Z</time>
      </trkpt>
      <trkpt lat="46.53485" lon="0.33819">
        <ele>85.8</ele>
        <time>2021-01-24T10:19:55.000Z</time>
      </trkpt>
      <trkpt lat="46.53485" lon="0.33819">
        <ele>86</ele>
        <time>2021-01-24T10:19:56.000Z</time>
      </trkpt>
      <trkpt lat="46.53485" lon="0.33819">
        <ele>86</ele>
        <time>2021-01-24T10:19:57.000Z</time>
      </trkpt>
      <trkpt lat="46.53486" lon="0.33818">
        <ele>86.2</ele>
        <time>2021-01-24T10:19:58.000Z</time>
      </trkpt>
      <trkpt lat="46.53486" lon="0.33818">
        <ele>86.4</ele>
        <time>2021-01-24T10:19:59.000Z</time>
      </trkpt>
      <trkpt lat="46.53486" lon="0.33818">
        <ele>86.4</ele>
        <time>2021-01-24T10:20:00.000Z</time>
      </trkpt>
      <trkpt lat="46.53486" lon="0.33818">
        <ele>86.6</ele>
        <time>2021-01-24T10:20:01.000Z</time>
      </trkpt>
      <trkpt lat="46.53489" lon="0.33818">
        <ele>86.6</ele>
        <time>2021-01-24T10:20:02.000Z</time>
      </trkpt>
      <trkpt lat="46.53489" lon="0.33818">
        <ele>86.8</ele>
        <time>2021-01-24T10:20:03.000Z</time>
      </trkpt>
      <trkpt lat="46.53489" lon="0.33818">
        <ele>86.8</ele>
        <time>2021-01-24T10:20:04.000Z</time>
      </trkpt>
      <trkpt lat="46.53489" lon="0.33818">
        <ele>86.8</ele>
        <time>2021-01-24T10:20:05.000Z</time>
      </trkpt>
      <trkpt lat="46.53489" lon="0.33818">
        <ele>87</ele>
        <time>2021-01-24T10:20:06.000Z</time>
      </trkpt>
      <trkpt lat="46.53489" lon="0.33818">
        <ele>87</ele>
        <time>2021-01-24T10:20:07.000Z</time>
      </trkpt>
      <trkpt lat="46.53489" lon="0.33818">
        <ele>87</ele>
        <time>2021-01-24T10:20:08.000Z</time>
      </trkpt>
      <trkpt lat="46.53489" lon="0.33818">
        <ele>87.2</ele>
        <time>2021-01-24T10:20:09.000Z</time>
      </trkpt>
      <trkpt lat="46.53489" lon="0.33818">
        <ele>87.2</ele>
        <time>2021-01-24T10:20:10.000Z</time>
      </trkpt>
      <trkpt lat="46.53489" lon="0.33818">
        <ele>87.2</ele>
        <time>2021-01-24T10:20:11.000Z</time>
      </trkpt>
      <trkpt lat="46.53489" lon="0.33818">
        <ele>87.2</ele>
        <time>2021-01-24T10:20:12.000Z</time>
      </trkpt>
      <trkpt lat="46.53489" lon="0.33818">
        <ele>87.2</ele>
        <time>2021-01-24T10:20:13.000Z</time>
      </trkpt>
      <trkpt lat="46.53489" lon="0.33818">
        <ele>87.2</ele>
        <time>2021-01-24T10:20:14.000Z</time>
      </trkpt>
      <trkpt lat="46.53489" lon="0.33818">
        <ele>87.4</ele>
        <time>2021-01-24T10:20:15.000Z</time>
      </trkpt>
      <trkpt lat="46.53489" lon="0.33818">
        <ele>87.2</ele>
        <time>2021-01-24T10:20:16.000Z</time>
      </trkpt>
      <trkpt lat="46.53489" lon="0.33818">
        <ele>87.2</ele>
        <time>2021-01-24T10:20:17.000Z</time>
      </trkpt>
      <trkpt lat="46.53489" lon="0.33818">
        <ele>87.2</ele>
        <time>2021-01-24T10:20:18.000Z</time>
      </trkpt>
      <trkpt lat="46.53489" lon="0.33818">
        <ele>87.2</ele>
        <time>2021-01-24T10:20:19.000Z</time>
      </trkpt>
      <trkpt lat="46.53489" lon="0.33818">
        <ele>87.2</ele>
        <time>2021-01-24T10:20:20.000Z</time>
      </trkpt>
      <trkpt lat="46.53489" lon="0.33818">
        <ele>87.2</ele>
        <time>2021-01-24T10:20:21.000Z</time>
      </trkpt>
      <trkpt lat="46.53489" lon="0.33818">
        <ele>87.2</ele>
        <time>2021-01-24T10:20:22.000Z</time>
      </trkpt>
      <trkpt lat="46.53489" lon="0.33818">
        <ele>87.2</ele>
        <time>2021-01-24T10:20:23.000Z</time>
      </trkpt>
      <trkpt lat="46.53489" lon="0.33818">
        <ele>87.2</ele>
        <time>2021-01-24T10:20:24.000Z</time>
      </trkpt>
      <trkpt lat="46.53489" lon="0.33818">
        <ele>87.2</ele>
        <time>2021-01-24T10:20:25.000Z</time>
      </trkpt>
      <trkpt lat="46.53489" lon="0.33818">
        <ele>87.2</ele>
        <time>2021-01-24T10:20:26.000Z</time>
      </trkpt>
      <trkpt lat="46.53489" lon="0.33818">
        <ele>87.2</ele>
        <time>2021-01-24T10:20:27.000Z</time>
      </trkpt>
      <trkpt lat="46.53491" lon="0.33819">
        <ele>87.2</ele>
        <time>2021-01-24T10:20:28.000Z</time>
      </trkpt>
      <trkpt lat="46.53493" lon="0.33819">
        <ele>87.2</ele>
        <time>2021-01-24T10:20:29.000Z</time>
      </trkpt>
      <trkpt lat="46.53495" lon="0.33822">
        <ele>87.2</ele>
        <time>2021-01-24T10:20:30.000Z</time>
      </trkpt>
      <trkpt lat="46.53497" lon="0.33822">
        <ele>87.2</ele>
        <time>2021-01-24T10:20:31.000Z</time>
      </trkpt>
      <trkpt lat="46.53499" lon="0.33823">
        <ele>87.2</ele>
        <time>2021-01-24T10:20:32.000Z</time>
      </trkpt>
      <trkpt lat="46.53501" lon="0.33824">
        <ele>87.2</ele>
        <time>2021-01-24T10:20:33.000Z</time>
      </trkpt>
      <trkpt lat="46.53504" lon="0.33824">
        <ele>87.2</ele>
        <time>2021-01-24T10:20:34.000Z</time>
      </trkpt>
      <trkpt lat="46.53506" lon="0.33825">
        <ele>87.2</ele>
        <time>2021-01-24T10:20:35.000Z</time>
      </trkpt>
      <trkpt lat="46.53509" lon="0.33825">
        <ele>87.2</ele>
        <time>2021-01-24T10:20:36.000Z</time>
      </trkpt>
      <trkpt lat="46.5351" lon="0.33826">
        <ele>87.2</ele>
        <time>2021-01-24T10:20:37.000Z</time>
      </trkpt>
      <trkpt lat="46.5351" lon="0.33826">
        <ele>87.2</ele>
        <time>2021-01-24T10:20:38.000Z</time>
      </trkpt>
      <trkpt lat="46.53513" lon="0.33828">
        <ele>87</ele>
        <time>2021-01-24T10:20:39.000Z</time>
      </trkpt>
      <trkpt lat="46.53513" lon="0.33828">
        <ele>87</ele>
        <time>2021-01-24T10:20:40.000Z</time>
      </trkpt>
      <trkpt lat="46.53515" lon="0.3383">
        <ele>87</ele>
        <time>2021-01-24T10:20:41.000Z</time>
      </trkpt>
      <trkpt lat="46.53515" lon="0.3383">
        <ele>86.8</ele>
        <time>2021-01-24T10:20:42.000Z</time>
      </trkpt>
      <trkpt lat="46.53517" lon="0.33832">
        <ele>86.6</ele>
        <time>2021-01-24T10:20:43.000Z</time>
      </trkpt>
      <trkpt lat="46.53517" lon="0.33832">
        <ele>86.4</ele>
        <time>2021-01-24T10:20:44.000Z</time>
      </trkpt>
      <trkpt lat="46.53521" lon="0.33833">
        <ele>86.4</ele>
        <time>2021-01-24T10:20:45.000Z</time>
      </trkpt>
      <trkpt lat="46.53521" lon="0.33833">
        <ele>86.2</ele>
        <time>2021-01-24T10:20:46.000Z</time>
      </trkpt>
      <trkpt lat="46.53523" lon="0.33833">
        <ele>86.2</ele>
        <time>2021-01-24T10:20:47.000Z</time>
      </trkpt>
      <trkpt lat="46.53523" lon="0.33833">
        <ele>86.2</ele>
        <time>2021-01-24T10:20:48.000Z</time>
      </trkpt>
      <trkpt lat="46.53525" lon="0.33834">
        <ele>86</ele>
        <time>2021-01-24T10:20:49.000Z</time>
      </trkpt>
      <trkpt lat="46.53525" lon="0.33834">
        <ele>86</ele>
        <time>2021-01-24T10:20:50.000Z</time>
      </trkpt>
      <trkpt lat="46.53527" lon="0.33835">
        <ele>86</ele>
        <time>2021-01-24T10:20:51.000Z</time>
      </trkpt>
      <trkpt lat="46.53527" lon="0.33835">
        <ele>86</ele>
        <time>2021-01-24T10:20:52.000Z</time>
      </trkpt>
      <trkpt lat="46.5353" lon="0.33836">
        <ele>85.8</ele>
        <time>2021-01-24T10:20:53.000Z</time>
      </trkpt>
      <trkpt lat="46.5353" lon="0.33836">
        <ele>85.8</ele>
        <time>2021-01-24T10:20:54.000Z</time>
      </trkpt>
      <trkpt lat="46.53533" lon="0.33837">
        <ele>85.8</ele>
        <time>2021-01-24T10:20:55.000Z</time>
      </trkpt>
      <trkpt lat="46.53533" lon="0.33837">
        <ele>85.8</ele>
        <time>2021-01-24T10:20:56.000Z</time>
      </trkpt>
      <trkpt lat="46.53536" lon="0.33839">
        <ele>86</ele>
        <time>2021-01-24T10:20:57.000Z</time>
      </trkpt>
      <trkpt lat="46.53536" lon="0.33839">
        <ele>86</ele>
        <time>2021-01-24T10:20:58.000Z</time>
      </trkpt>
      <trkpt lat="46.53538" lon="0.33839">
        <ele>86</ele>
        <time>2021-01-24T10:20:59.000Z</time>
      </trkpt>
      <trkpt lat="46.53538" lon="0.33839">
        <ele>86.2</ele>
        <time>2021-01-24T10:21:00.000Z</time>
      </trkpt>
      <trkpt lat="46.53538" lon="0.33839">
        <ele>86.4</ele>
        <time>2021-01-24T10:21:01.000Z</time>
      </trkpt>
      <trkpt lat="46.53541" lon="0.33841">
        <ele>86.4</ele>
        <time>2021-01-24T10:21:02.000Z</time>
      </trkpt>
      <trkpt lat="46.53541" lon="0.33841">
        <ele>86.6</ele>
        <time>2021-01-24T10:21:03.000Z</time>
      </trkpt>
      <trkpt lat="46.53542" lon="0.33843">
        <ele>86.6</ele>
        <time>2021-01-24T10:21:04.000Z</time>
      </trkpt>
      <trkpt lat="46.53542" lon="0.33843">
        <ele>86.8</ele>
        <time>2021-01-24T10:21:05.000Z</time>
      </trkpt>
      <trkpt lat="46.53542" lon="0.33843">
        <ele>86.8</ele>
        <time>2021-01-24T10:21:06.000Z</time>
      </trkpt>
      <trkpt lat="46.53545" lon="0.33844">
        <ele>87</ele>
        <time>2021-01-24T10:21:07.000Z</time>
      </trkpt>
      <trkpt lat="46.53545" lon="0.33844">
        <ele>87</ele>
        <time>2021-01-24T10:21:08.000Z</time>
      </trkpt>
      <trkpt lat="46.53547" lon="0.33845">
        <ele>87.2</ele>
        <time>2021-01-24T10:21:09.000Z</time>
      </trkpt>
      <trkpt lat="46.53547" lon="0.33845">
        <ele>87.4</ele>
        <time>2021-01-24T10:21:10.000Z</time>
      </trkpt>
      <trkpt lat="46.53549" lon="0.33847">
        <ele>87.4</ele>
        <time>2021-01-24T10:21:11.000Z</time>
      </trkpt>
      <trkpt lat="46.53549" lon="0.33847">
        <ele>87.6</ele>
        <time>2021-01-24T10:21:12.000Z</time>
      </trkpt>
      <trkpt lat="46.5355" lon="0.33847">
        <ele>87.8</ele>
        <time>2021-01-24T10:21:13.000Z</time>
      </trkpt>
      <trkpt lat="46.5355" lon="0.33847">
        <ele>88</ele>
        <time>2021-01-24T10:21:14.000Z</time>
      </trkpt>
      <trkpt lat="46.53553" lon="0.33848">
        <ele>88.2</ele>
        <time>2021-01-24T10:21:15.000Z</time>
      </trkpt>
      <trkpt lat="46.53553" lon="0.33848">
        <ele>88.4</ele>
        <time>2021-01-24T10:21:16.000Z</time>
      </trkpt>
      <trkpt lat="46.53555" lon="0.33848">
        <ele>88.4</ele>
        <time>2021-01-24T10:21:17.000Z</time>
      </trkpt>
      <trkpt lat="46.53555" lon="0.33848">
        <ele>88.6</ele>
        <time>2021-01-24T10:21:18.000Z</time>
      </trkpt>
      <trkpt lat="46.53557" lon="0.33848">
        <ele>88.8</ele>
        <time>2021-01-24T10:21:19.000Z</time>
      </trkpt>
      <trkpt lat="46.53557" lon="0.33848">
        <ele>88.8</ele>
        <time>2021-01-24T10:21:20.000Z</time>
      </trkpt>
      <trkpt lat="46.53557" lon="0.33848">
        <ele>89</ele>
        <time>2021-01-24T10:21:21.000Z</time>
      </trkpt>
      <trkpt lat="46.53559" lon="0.33849">
        <ele>89.2</ele>
        <time>2021-01-24T10:21:22.000Z</time>
      </trkpt>
      <trkpt lat="46.53559" lon="0.33849">
        <ele>89.2</ele>
        <time>2021-01-24T10:21:23.000Z</time>
      </trkpt>
      <trkpt lat="46.53562" lon="0.33849">
        <ele>89.4</ele>
        <time>2021-01-24T10:21:24.000Z</time>
      </trkpt>
      <trkpt lat="46.53562" lon="0.33849">
        <ele>89.6</ele>
        <time>2021-01-24T10:21:25.000Z</time>
      </trkpt>
      <trkpt lat="46.53564" lon="0.3385">
        <ele>89.8</ele>
        <time>2021-01-24T10:21:26.000Z</time>
      </trkpt>
      <trkpt lat="46.53564" lon="0.3385">
        <ele>89.8</ele>
        <time>2021-01-24T10:21:27.000Z</time>
      </trkpt>
      <trkpt lat="46.53566" lon="0.3385">
        <ele>90</ele>
        <time>2021-01-24T10:21:28.000Z</time>
      </trkpt>
      <trkpt lat="46.53566" lon="0.3385">
        <ele>90.2</ele>
        <time>2021-01-24T10:21:29.000Z</time>
      </trkpt>
      <trkpt lat="46.53566" lon="0.3385">
        <ele>90.4</ele>
        <time>2021-01-24T10:21:30.000Z</time>
      </trkpt>
      <trkpt lat="46.53569" lon="0.3385">
        <ele>90.6</ele>
        <time>2021-01-24T10:21:31.000Z</time>
      </trkpt>
      <trkpt lat="46.53569" lon="0.3385">
        <ele>90.6</ele>
        <time>2021-01-24T10:21:32.000Z</time>
      </trkpt>
      <trkpt lat="46.53569" lon="0.3385">
        <ele>90.8</ele>
        <time>2021-01-24T10:21:33.000Z</time>
      </trkpt>
      <trkpt lat="46.53569" lon="0.3385">
        <ele>90.8</ele>
        <time>2021-01-24T10:21:34.000Z</time>
      </trkpt>
      <trkpt lat="46.53571" lon="0.33849">
        <ele>90.8</ele>
        <time>2021-01-24T10:21:35.000Z</time>
      </trkpt>
      <trkpt lat="46.53571" lon="0.33849">
        <ele>90.8</ele>
        <time>2021-01-24T10:21:36.000Z</time>
      </trkpt>
      <trkpt lat="46.53573" lon="0.33848">
        <ele>90.8</ele>
        <time>2021-01-24T10:21:37.000Z</time>
      </trkpt>
      <trkpt lat="46.53573" lon="0.33848">
        <ele>91</ele>
        <time>2021-01-24T10:21:38.000Z</time>
      </trkpt>
      <trkpt lat="46.53575" lon="0.33847">
        <ele>91</ele>
        <time>2021-01-24T10:21:39.000Z</time>
      </trkpt>
      <trkpt lat="46.53575" lon="0.33847">
        <ele>91.2</ele>
        <time>2021-01-24T10:21:40.000Z</time>
      </trkpt>
      <trkpt lat="46.53577" lon="0.33845">
        <ele>91.4</ele>
        <time>2021-01-24T10:21:41.000Z</time>
      </trkpt>
      <trkpt lat="46.53577" lon="0.33845">
        <ele>91.6</ele>
        <time>2021-01-24T10:21:42.000Z</time>
      </trkpt>
      <trkpt lat="46.53578" lon="0.33842">
        <ele>91.8</ele>
        <time>2021-01-24T10:21:43.000Z</time>
      </trkpt>
      <trkpt lat="46.53578" lon="0.33842">
        <ele>91.8</ele>
        <time>2021-01-24T10:21:44.000Z</time>
      </trkpt>
      <trkpt lat="46.5358" lon="0.3384">
        <ele>92</ele>
        <time>2021-01-24T10:21:45.000Z</time>
      </trkpt>
      <trkpt lat="46.53583" lon="0.33839">
        <ele>92</ele>
        <time>2021-01-24T10:21:46.000Z</time>
      </trkpt>
      <trkpt lat="46.53587" lon="0.33839">
        <ele>92</ele>
        <time>2021-01-24T10:21:47.000Z</time>
      </trkpt>
      <trkpt lat="46.53587" lon="0.33839">
        <ele>92.2</ele>
        <time>2021-01-24T10:21:48.000Z</time>
      </trkpt>
      <trkpt lat="46.5359" lon="0.33839">
        <ele>92.2</ele>
        <time>2021-01-24T10:21:49.000Z</time>
      </trkpt>
      <trkpt lat="46.5359" lon="0.33839">
        <ele>92.4</ele>
        <time>2021-01-24T10:21:50.000Z</time>
      </trkpt>
      <trkpt lat="46.5359" lon="0.33839">
        <ele>92.6</ele>
        <time>2021-01-24T10:21:51.000Z</time>
      </trkpt>
      <trkpt lat="46.53592" lon="0.33837">
        <ele>92.6</ele>
        <time>2021-01-24T10:21:52.000Z</time>
      </trkpt>
      <trkpt lat="46.53592" lon="0.33837">
        <ele>92.8</ele>
        <time>2021-01-24T10:21:53.000Z</time>
      </trkpt>
      <trkpt lat="46.53592" lon="0.33835">
        <ele>93</ele>
        <time>2021-01-24T10:21:54.000Z</time>
      </trkpt>
      <trkpt lat="46.53592" lon="0.33835">
        <ele>93</ele>
        <time>2021-01-24T10:21:55.000Z</time>
      </trkpt>
      <trkpt lat="46.53592" lon="0.33832">
        <ele>93.2</ele>
        <time>2021-01-24T10:21:56.000Z</time>
      </trkpt>
      <trkpt lat="46.53592" lon="0.33832">
        <ele>93.4</ele>
        <time>2021-01-24T10:21:57.000Z</time>
      </trkpt>
      <trkpt lat="46.53592" lon="0.33832">
        <ele>93.6</ele>
        <time>2021-01-24T10:21:58.000Z</time>
      </trkpt>
      <trkpt lat="46.53591" lon="0.33829">
        <ele>93.6</ele>
        <time>2021-01-24T10:21:59.000Z</time>
      </trkpt>
      <trkpt lat="46.53591" lon="0.33829">
        <ele>93.8</ele>
        <time>2021-01-24T10:22:00.000Z</time>
      </trkpt>
      <trkpt lat="46.53591" lon="0.33829">
        <ele>93.8</ele>
        <time>2021-01-24T10:22:01.000Z</time>
      </trkpt>
      <trkpt lat="46.53591" lon="0.33829">
        <ele>94</ele>
        <time>2021-01-24T10:22:02.000Z</time>
      </trkpt>
      <trkpt lat="46.53591" lon="0.33829">
        <ele>94</ele>
        <time>2021-01-24T10:22:03.000Z</time>
      </trkpt>
      <trkpt lat="46.53591" lon="0.33829">
        <ele>94.2</ele>
        <time>2021-01-24T10:22:04.000Z</time>
      </trkpt>
      <trkpt lat="46.53591" lon="0.33829">
        <ele>94.2</ele>
        <time>2021-01-24T10:22:05.000Z</time>
      </trkpt>
      <trkpt lat="46.53591" lon="0.33829">
        <ele>94.2</ele>
        <time>2021-01-24T10:22:06.000Z</time>
      </trkpt>
      <trkpt lat="46.53591" lon="0.33829">
        <ele>94.4</ele>
        <time>2021-01-24T10:22:07.000Z</time>
      </trkpt>
      <trkpt lat="46.53591" lon="0.33829">
        <ele>94.4</ele>
        <time>2021-01-24T10:22:08.000Z</time>
      </trkpt>
      <trkpt lat="46.53591" lon="0.33829">
        <ele>94.6</ele>
        <time>2021-01-24T10:22:09.000Z</time>
      </trkpt>
      <trkpt lat="46.53591" lon="0.33829">
        <ele>94.6</ele>
        <time>2021-01-24T10:22:10.000Z</time>
      </trkpt>
      <trkpt lat="46.53591" lon="0.33829">
        <ele>94.8</ele>
        <time>2021-01-24T10:22:11.000Z</time>
      </trkpt>
      <trkpt lat="46.53591" lon="0.33829">
        <ele>94.8</ele>
        <time>2021-01-24T10:22:12.000Z</time>
      </trkpt>
      <trkpt lat="46.53591" lon="0.33829">
        <ele>94.8</ele>
        <time>2021-01-24T10:22:13.000Z</time>
      </trkpt>
      <trkpt lat="46.53591" lon="0.33829">
        <ele>94.8</ele>
        <time>2021-01-24T10:22:14.000Z</time>
      </trkpt>
      <trkpt lat="46.53591" lon="0.33829">
        <ele>94.6</ele>
        <time>2021-01-24T10:22:15.000Z</time>
      </trkpt>
      <trkpt lat="46.53591" lon="0.33829">
        <ele>94.6</ele>
        <time>2021-01-24T10:22:16.000Z</time>
      </trkpt>
      <trkpt lat="46.53591" lon="0.33829">
        <ele>94.6</ele>
        <time>2021-01-24T10:22:17.000Z</time>
      </trkpt>
      <trkpt lat="46.53591" lon="0.33829">
        <ele>94.6</ele>
        <time>2021-01-24T10:22:18.000Z</time>
      </trkpt>
      <trkpt lat="46.53591" lon="0.33829">
        <ele>94.6</ele>
        <time>2021-01-24T10:22:19.000Z</time>
      </trkpt>
      <trkpt lat="46.53591" lon="0.33829">
        <ele>94.6</ele>
        <time>2021-01-24T10:22:20.000Z</time>
      </trkpt>
      <trkpt lat="46.53591" lon="0.33829">
        <ele>94.6</ele>
        <time>2021-01-24T10:22:21.000Z</time>
      </trkpt>
      <trkpt lat="46.53591" lon="0.33829">
        <ele>94.6</ele>
        <time>2021-01-24T10:22:22.000Z</time>
      </trkpt>
      <trkpt lat="46.53591" lon="0.33829">
        <ele>94.6</ele>
        <time>2021-01-24T10:22:23.000Z</time>
      </trkpt>
      <trkpt lat="46.53591" lon="0.33829">
        <ele>94.6</ele>
        <time>2021-01-24T10:22:24.000Z</time>
      </trkpt>
      <trkpt lat="46.53591" lon="0.33829">
        <ele>94.6</ele>
        <time>2021-01-24T10:22:25.000Z</time>
      </trkpt>
      <trkpt lat="46.53591" lon="0.33829">
        <ele>94.6</ele>
        <time>2021-01-24T10:22:26.000Z</time>
      </trkpt>
      <trkpt lat="46.53591" lon="0.33829">
        <ele>94.6</ele>
        <time>2021-01-24T10:22:27.000Z</time>
      </trkpt>
      <trkpt lat="46.53591" lon="0.33829">
        <ele>94.6</ele>
        <time>2021-01-24T10:22:28.000Z</time>
      </trkpt>
      <trkpt lat="46.5359" lon="0.33829">
        <ele>94.4</ele>
        <time>2021-01-24T10:22:29.000Z</time>
      </trkpt>
      <trkpt lat="46.5359" lon="0.33829">
        <ele>94.4</ele>
        <time>2021-01-24T10:22:30.000Z</time>
      </trkpt>
      <trkpt lat="46.5359" lon="0.33829">
        <ele>94.4</ele>
        <time>2021-01-24T10:22:31.000Z</time>
      </trkpt>
      <trkpt lat="46.5359" lon="0.33829">
        <ele>94.4</ele>
        <time>2021-01-24T10:22:32.000Z</time>
      </trkpt>
      <trkpt lat="46.5359" lon="0.33829">
        <ele>94.4</ele>
        <time>2021-01-24T10:22:33.000Z</time>
      </trkpt>
      <trkpt lat="46.5359" lon="0.33829">
        <ele>94.4</ele>
        <time>2021-01-24T10:22:34.000Z</time>
      </trkpt>
      <trkpt lat="46.5359" lon="0.33829">
        <ele>94.4</ele>
        <time>2021-01-24T10:22:35.000Z</time>
      </trkpt>
      <trkpt lat="46.5359" lon="0.33829">
        <ele>94.4</ele>
        <time>2021-01-24T10:22:36.000Z</time>
      </trkpt>
      <trkpt lat="46.5359" lon="0.33829">
        <ele>94.4</ele>
        <time>2021-01-24T10:22:37.000Z</time>
      </trkpt>
      <trkpt lat="46.5359" lon="0.33829">
        <ele>94.4</ele>
        <time>2021-01-24T10:22:38.000Z</time>
      </trkpt>
      <trkpt lat="46.5359" lon="0.33829">
        <ele>94.4</ele>
        <time>2021-01-24T10:22:39.000Z</time>
      </trkpt>
      <trkpt lat="46.5359" lon="0.33829">
        <ele>94.4</ele>
        <time>2021-01-24T10:22:40.000Z</time>
      </trkpt>
      <trkpt lat="46.5359" lon="0.33829">
        <ele>94.4</ele>
        <time>2021-01-24T10:22:41.000Z</time>
      </trkpt>
      <trkpt lat="46.5359" lon="0.33829">
        <ele>94.4</ele>
        <time>2021-01-24T10:22:42.000Z</time>
      </trkpt>
      <trkpt lat="46.5359" lon="0.33829">
        <ele>94.4</ele>
        <time>2021-01-24T10:22:43.000Z</time>
      </trkpt>
      <trkpt lat="46.5359" lon="0.33829">
        <ele>94.2</ele>
        <time>2021-01-24T10:22:44.000Z</time>
      </trkpt>
      <trkpt lat="46.5359" lon="0.33829">
        <ele>94.2</ele>
        <time>2021-01-24T10:22:45.000Z</time>
      </trkpt>
      <trkpt lat="46.5359" lon="0.33829">
        <ele>94.2</ele>
        <time>2021-01-24T10:22:46.000Z</time>
      </trkpt>
      <trkpt lat="46.5359" lon="0.33829">
        <ele>94.2</ele>
        <time>2021-01-24T10:22:47.000Z</time>
      </trkpt>
      <trkpt lat="46.5359" lon="0.33829">
        <ele>94.2</ele>
        <time>2021-01-24T10:22:48.000Z</time>
      </trkpt>
      <trkpt lat="46.5359" lon="0.33829">
        <ele>94.2</ele>
        <time>2021-01-24T10:22:49.000Z</time>
      </trkpt>
      <trkpt lat="46.5359" lon="0.33829">
        <ele>94.2</ele>
        <time>2021-01-24T10:22:50.000Z</time>
      </trkpt>
      <trkpt lat="46.5359" lon="0.33829">
        <ele>94.2</ele>
        <time>2021-01-24T10:22:51.000Z</time>
      </trkpt>
      <trkpt lat="46.5359" lon="0.33829">
        <ele>94.2</ele>
        <time>2021-01-24T10:22:52.000Z</time>
      </trkpt>
      <trkpt lat="46.5359" lon="0.33829">
        <ele>94.2</ele>
        <time>2021-01-24T10:22:53.000Z</time>
      </trkpt>
      <trkpt lat="46.5359" lon="0.33829">
        <ele>94.2</ele>
        <time>2021-01-24T10:22:54.000Z</time>
      </trkpt>
      <trkpt lat="46.5359" lon="0.33829">
        <ele>94.2</ele>
        <time>2021-01-24T10:22:55.000Z</time>
      </trkpt>
      <trkpt lat="46.5359" lon="0.33829">
        <ele>94.2</ele>
        <time>2021-01-24T10:22:56.000Z</time>
      </trkpt>
      <trkpt lat="46.5359" lon="0.33829">
        <ele>94.2</ele>
        <time>2021-01-24T10:22:57.000Z</time>
      </trkpt>
      <trkpt lat="46.5359" lon="0.33829">
        <ele>94.2</ele>
        <time>2021-01-24T10:22:58.000Z</time>
      </trkpt>
      <trkpt lat="46.5359" lon="0.33829">
        <ele>94.2</ele>
        <time>2021-01-24T10:22:59.000Z</time>
      </trkpt>
      <trkpt lat="46.5359" lon="0.33829">
        <ele>94.2</ele>
        <time>2021-01-24T10:23:00.000Z</time>
      </trkpt>
      <trkpt lat="46.5359" lon="0.33829">
        <ele>94.2</ele>
        <time>2021-01-24T10:23:01.000Z</time>
      </trkpt>
      <trkpt lat="46.5359" lon="0.33829">
        <ele>94.2</ele>
        <time>2021-01-24T10:23:02.000Z</time>
      </trkpt>
      <trkpt lat="46.5359" lon="0.33829">
        <ele>94.2</ele>
        <time>2021-01-24T10:23:03.000Z</time>
      </trkpt>
      <trkpt lat="46.5359" lon="0.33829">
        <ele>94.2</ele>
        <time>2021-01-24T10:23:04.000Z</time>
      </trkpt>
      <trkpt lat="46.5359" lon="0.33829">
        <ele>94.2</ele>
        <time>2021-01-24T10:23:05.000Z</time>
      </trkpt>
      <trkpt lat="46.5359" lon="0.33829">
        <ele>94.2</ele>
        <time>2021-01-24T10:23:06.000Z</time>
      </trkpt>
      <trkpt lat="46.5359" lon="0.33829">
        <ele>94.2</ele>
        <time>2021-01-24T10:23:07.000Z</time>
      </trkpt>
      <trkpt lat="46.5359" lon="0.33829">
        <ele>94.2</ele>
        <time>2021-01-24T10:23:08.000Z</time>
      </trkpt>
      <trkpt lat="46.5359" lon="0.33829">
        <ele>94.2</ele>
        <time>2021-01-24T10:23:09.000Z</time>
      </trkpt>
      <trkpt lat="46.5359" lon="0.33829">
        <ele>94.2</ele>
        <time>2021-01-24T10:23:10.000Z</time>
      </trkpt>
      <trkpt lat="46.5359" lon="0.33829">
        <ele>94.2</ele>
        <time>2021-01-24T10:23:11.000Z</time>
      </trkpt>
      <trkpt lat="46.5359" lon="0.33829">
        <ele>94.2</ele>
        <time>2021-01-24T10:23:12.000Z</time>
      </trkpt>
      <trkpt lat="46.5359" lon="0.33829">
        <ele>94.2</ele>
        <time>2021-01-24T10:23:13.000Z</time>
      </trkpt>
      <trkpt lat="46.5359" lon="0.33829">
        <ele>94.2</ele>
        <time>2021-01-24T10:23:14.000Z</time>
      </trkpt>
      <trkpt lat="46.5359" lon="0.33829">
        <ele>94.2</ele>
        <time>2021-01-24T10:23:15.000Z</time>
      </trkpt>
      <trkpt lat="46.5359" lon="0.33829">
        <ele>94.2</ele>
        <time>2021-01-24T10:23:16.000Z</time>
      </trkpt>
      <trkpt lat="46.5359" lon="0.33829">
        <ele>94.4</ele>
        <time>2021-01-24T10:23:17.000Z</time>
      </trkpt>
      <trkpt lat="46.5359" lon="0.33829">
        <ele>94.4</ele>
        <time>2021-01-24T10:23:18.000Z</time>
      </trkpt>
      <trkpt lat="46.5359" lon="0.33829">
        <ele>94.4</ele>
        <time>2021-01-24T10:23:19.000Z</time>
      </trkpt>
      <trkpt lat="46.5359" lon="0.33829">
        <ele>94.4</ele>
        <time>2021-01-24T10:23:20.000Z</time>
      </trkpt>
      <trkpt lat="46.5359" lon="0.33829">
        <ele>94.4</ele>
        <time>2021-01-24T10:23:21.000Z</time>
      </trkpt>
      <trkpt lat="46.53589" lon="0.33829">
        <ele>94.4</ele>
        <time>2021-01-24T10:23:22.000Z</time>
      </trkpt>
      <trkpt lat="46.53589" lon="0.33829">
        <ele>94.4</ele>
        <time>2021-01-24T10:23:23.000Z</time>
      </trkpt>
      <trkpt lat="46.53589" lon="0.33829">
        <ele>94.4</ele>
        <time>2021-01-24T10:23:24.000Z</time>
      </trkpt>
      <trkpt lat="46.53589" lon="0.33829">
        <ele>94.4</ele>
        <time>2021-01-24T10:23:25.000Z</time>
      </trkpt>
      <trkpt lat="46.53589" lon="0.33829">
        <ele>94.4</ele>
        <time>2021-01-24T10:23:26.000Z</time>
      </trkpt>
      <trkpt lat="46.53589" lon="0.33829">
        <ele>94.4</ele>
        <time>2021-01-24T10:23:27.000Z</time>
      </trkpt>
      <trkpt lat="46.53589" lon="0.33829">
        <ele>94.4</ele>
        <time>2021-01-24T10:23:28.000Z</time>
      </trkpt>
      <trkpt lat="46.53589" lon="0.33829">
        <ele>94.4</ele>
        <time>2021-01-24T10:23:29.000Z</time>
      </trkpt>
      <trkpt lat="46.53589" lon="0.33829">
        <ele>94.4</ele>
        <time>2021-01-24T10:23:30.000Z</time>
      </trkpt>
      <trkpt lat="46.53589" lon="0.33829">
        <ele>94.4</ele>
        <time>2021-01-24T10:23:31.000Z</time>
      </trkpt>
      <trkpt lat="46.53589" lon="0.33829">
        <ele>94.4</ele>
        <time>2021-01-24T10:23:32.000Z</time>
      </trkpt>
      <trkpt lat="46.53589" lon="0.33829">
        <ele>94.4</ele>
        <time>2021-01-24T10:23:33.000Z</time>
      </trkpt>
      <trkpt lat="46.53589" lon="0.33829">
        <ele>94.4</ele>
        <time>2021-01-24T10:23:34.000Z</time>
      </trkpt>
      <trkpt lat="46.53589" lon="0.33829">
        <ele>94.4</ele>
        <time>2021-01-24T10:23:35.000Z</time>
      </trkpt>
      <trkpt lat="46.53589" lon="0.33829">
        <ele>94.4</ele>
        <time>2021-01-24T10:23:36.000Z</time>
      </trkpt>
      <trkpt lat="46.53589" lon="0.33829">
        <ele>94.4</ele>
        <time>2021-01-24T10:23:37.000Z</time>
      </trkpt>
      <trkpt lat="46.53589" lon="0.33829">
        <ele>94.4</ele>
        <time>2021-01-24T10:23:38.000Z</time>
      </trkpt>
      <trkpt lat="46.53589" lon="0.33829">
        <ele>94.4</ele>
        <time>2021-01-24T10:23:39.000Z</time>
      </trkpt>
      <trkpt lat="46.53589" lon="0.33829">
        <ele>94.4</ele>
        <time>2021-01-24T10:23:40.000Z</time>
      </trkpt>
      <trkpt lat="46.53589" lon="0.33829">
        <ele>94.4</ele>
        <time>2021-01-24T10:23:41.000Z</time>
      </trkpt>
      <trkpt lat="46.53589" lon="0.33829">
        <ele>94.4</ele>
        <time>2021-01-24T10:23:42.000Z</time>
      </trkpt>
      <trkpt lat="46.53589" lon="0.33829">
        <ele>94.4</ele>
        <time>2021-01-24T10:23:43.000Z</time>
      </trkpt>
      <trkpt lat="46.53589" lon="0.33829">
        <ele>94.4</ele>
        <time>2021-01-24T10:23:44.000Z</time>
      </trkpt>
      <trkpt lat="46.53589" lon="0.33829">
        <ele>94.6</ele>
        <time>2021-01-24T10:23:45.000Z</time>
      </trkpt>
      <trkpt lat="46.53589" lon="0.33829">
        <ele>94.6</ele>
        <time>2021-01-24T10:23:46.000Z</time>
      </trkpt>
      <trkpt lat="46.53589" lon="0.33829">
        <ele>94.6</ele>
        <time>2021-01-24T10:23:47.000Z</time>
      </trkpt>
      <trkpt lat="46.53589" lon="0.33829">
        <ele>94.6</ele>
        <time>2021-01-24T10:23:48.000Z</time>
      </trkpt>
      <trkpt lat="46.53589" lon="0.33829">
        <ele>94.6</ele>
        <time>2021-01-24T10:23:49.000Z</time>
      </trkpt>
      <trkpt lat="46.53589" lon="0.33829">
        <ele>94.6</ele>
        <time>2021-01-24T10:23:50.000Z</time>
      </trkpt>
      <trkpt lat="46.53589" lon="0.33829">
        <ele>94.6</ele>
        <time>2021-01-24T10:23:51.000Z</time>
      </trkpt>
      <trkpt lat="46.53589" lon="0.33829">
        <ele>94.6</ele>
        <time>2021-01-24T10:23:52.000Z</time>
      </trkpt>
      <trkpt lat="46.53589" lon="0.33829">
        <ele>94.6</ele>
        <time>2021-01-24T10:23:53.000Z</time>
      </trkpt>
      <trkpt lat="46.53589" lon="0.33829">
        <ele>94.6</ele>
        <time>2021-01-24T10:23:54.000Z</time>
      </trkpt>
      <trkpt lat="46.53589" lon="0.33829">
        <ele>94.6</ele>
        <time>2021-01-24T10:23:55.000Z</time>
      </trkpt>
      <trkpt lat="46.53589" lon="0.33829">
        <ele>94.6</ele>
        <time>2021-01-24T10:23:56.000Z</time>
      </trkpt>
      <trkpt lat="46.53589" lon="0.33829">
        <ele>94.6</ele>
        <time>2021-01-24T10:23:57.000Z</time>
      </trkpt>
      <trkpt lat="46.53589" lon="0.33829">
        <ele>94.6</ele>
        <time>2021-01-24T10:23:58.000Z</time>
      </trkpt>
      <trkpt lat="46.53589" lon="0.33829">
        <ele>94.6</ele>
        <time>2021-01-24T10:23:59.000Z</time>
      </trkpt>
      <trkpt lat="46.53589" lon="0.33829">
        <ele>94.6</ele>
        <time>2021-01-24T10:24:00.000Z</time>
      </trkpt>
      <trkpt lat="46.53589" lon="0.33829">
        <ele>94.6</ele>
        <time>2021-01-24T10:24:01.000Z</time>
      </trkpt>
      <trkpt lat="46.53589" lon="0.33829">
        <ele>94.6</ele>
        <time>2021-01-24T10:24:02.000Z</time>
      </trkpt>
      <trkpt lat="46.53589" lon="0.33829">
        <ele>94.6</ele>
        <time>2021-01-24T10:24:03.000Z</time>
      </trkpt>
      <trkpt lat="46.53589" lon="0.33829">
        <ele>94.6</ele>
        <time>2021-01-24T10:24:04.000Z</time>
      </trkpt>
      <trkpt lat="46.53589" lon="0.33829">
        <ele>94.6</ele>
        <time>2021-01-24T10:24:05.000Z</time>
      </trkpt>
      <trkpt lat="46.53589" lon="0.33829">
        <ele>94.6</ele>
        <time>2021-01-24T10:24:06.000Z</time>
      </trkpt>
      <trkpt lat="46.53589" lon="0.33829">
        <ele>94.6</ele>
        <time>2021-01-24T10:24:07.000Z</time>
      </trkpt>
      <trkpt lat="46.53589" lon="0.33829">
        <ele>94.6</ele>
        <time>2021-01-24T10:24:08.000Z</time>
      </trkpt>
      <trkpt lat="46.53589" lon="0.33829">
        <ele>94.6</ele>
        <time>2021-01-24T10:24:09.000Z</time>
      </trkpt>
      <trkpt lat="46.53589" lon="0.33829">
        <ele>94.6</ele>
        <time>2021-01-24T10:24:10.000Z</time>
      </trkpt>
      <trkpt lat="46.53589" lon="0.33829">
        <ele>94.8</ele>
        <time>2021-01-24T10:24:11.000Z</time>
      </trkpt>
      <trkpt lat="46.53589" lon="0.33829">
        <ele>94.8</ele>
        <time>2021-01-24T10:24:12.000Z</time>
      </trkpt>
      <trkpt lat="46.53589" lon="0.33829">
        <ele>94.8</ele>
        <time>2021-01-24T10:24:13.000Z</time>
      </trkpt>
      <trkpt lat="46.53589" lon="0.33829">
        <ele>94.8</ele>
        <time>2021-01-24T10:24:14.000Z</time>
      </trkpt>
      <trkpt lat="46.53588" lon="0.33829">
        <ele>94.8</ele>
        <time>2021-01-24T10:24:15.000Z</time>
      </trkpt>
      <trkpt lat="46.53588" lon="0.33829">
        <ele>94.8</ele>
        <time>2021-01-24T10:24:16.000Z</time>
      </trkpt>
      <trkpt lat="46.53588" lon="0.33829">
        <ele>94.8</ele>
        <time>2021-01-24T10:24:17.000Z</time>
      </trkpt>
      <trkpt lat="46.53588" lon="0.33829">
        <ele>94.8</ele>
        <time>2021-01-24T10:24:18.000Z</time>
      </trkpt>
      <trkpt lat="46.53588" lon="0.33829">
        <ele>94.8</ele>
        <time>2021-01-24T10:24:19.000Z</time>
      </trkpt>
      <trkpt lat="46.53588" lon="0.33829">
        <ele>94.8</ele>
        <time>2021-01-24T10:24:20.000Z</time>
      </trkpt>
      <trkpt lat="46.53588" lon="0.33829">
        <ele>94.8</ele>
        <time>2021-01-24T10:24:21.000Z</time>
      </trkpt>
      <trkpt lat="46.53588" lon="0.33829">
        <ele>94.8</ele>
        <time>2021-01-24T10:24:22.000Z</time>
      </trkpt>
      <trkpt lat="46.53588" lon="0.33829">
        <ele>94.8</ele>
        <time>2021-01-24T10:24:23.000Z</time>
      </trkpt>
      <trkpt lat="46.53588" lon="0.33829">
        <ele>94.8</ele>
        <time>2021-01-24T10:24:24.000Z</time>
      </trkpt>
      <trkpt lat="46.53588" lon="0.33829">
        <ele>94.8</ele>
        <time>2021-01-24T10:24:25.000Z</time>
      </trkpt>
      <trkpt lat="46.53588" lon="0.33829">
        <ele>94.8</ele>
        <time>2021-01-24T10:24:26.000Z</time>
      </trkpt>
      <trkpt lat="46.53588" lon="0.33829">
        <ele>94.8</ele>
        <time>2021-01-24T10:24:27.000Z</time>
      </trkpt>
      <trkpt lat="46.53588" lon="0.33829">
        <ele>94.8</ele>
        <time>2021-01-24T10:24:28.000Z</time>
      </trkpt>
      <trkpt lat="46.53588" lon="0.33829">
        <ele>94.8</ele>
        <time>2021-01-24T10:24:29.000Z</time>
      </trkpt>
      <trkpt lat="46.53588" lon="0.33829">
        <ele>94.8</ele>
        <time>2021-01-24T10:24:30.000Z</time>
      </trkpt>
      <trkpt lat="46.53588" lon="0.33829">
        <ele>94.8</ele>
        <time>2021-01-24T10:24:31.000Z</time>
      </trkpt>
      <trkpt lat="46.53588" lon="0.33829">
        <ele>94.8</ele>
        <time>2021-01-24T10:24:32.000Z</time>
      </trkpt>
      <trkpt lat="46.53588" lon="0.33829">
        <ele>94.8</ele>
        <time>2021-01-24T10:24:33.000Z</time>
      </trkpt>
      <trkpt lat="46.53588" lon="0.33829">
        <ele>94.8</ele>
        <time>2021-01-24T10:24:34.000Z</time>
      </trkpt>
      <trkpt lat="46.53588" lon="0.33829">
        <ele>94.8</ele>
        <time>2021-01-24T10:24:35.000Z</time>
      </trkpt>
      <trkpt lat="46.53588" lon="0.33829">
        <ele>94.8</ele>
        <time>2021-01-24T10:24:36.000Z</time>
      </trkpt>
      <trkpt lat="46.53588" lon="0.33829">
        <ele>94.8</ele>
        <time>2021-01-24T10:24:37.000Z</time>
      </trkpt>
      <trkpt lat="46.53588" lon="0.33829">
        <ele>94.8</ele>
        <time>2021-01-24T10:24:38.000Z</time>
      </trkpt>
      <trkpt lat="46.53588" lon="0.33829">
        <ele>94.8</ele>
        <time>2021-01-24T10:24:39.000Z</time>
      </trkpt>
      <trkpt lat="46.53588" lon="0.33829">
        <ele>94.8</ele>
        <time>2021-01-24T10:24:40.000Z</time>
      </trkpt>
      <trkpt lat="46.53588" lon="0.33829">
        <ele>94.8</ele>
        <time>2021-01-24T10:24:41.000Z</time>
      </trkpt>
      <trkpt lat="46.53588" lon="0.33829">
        <ele>94.8</ele>
        <time>2021-01-24T10:24:42.000Z</time>
      </trkpt>
      <trkpt lat="46.53588" lon="0.33829">
        <ele>94.8</ele>
        <time>2021-01-24T10:24:43.000Z</time>
      </trkpt>
      <trkpt lat="46.53588" lon="0.33829">
        <ele>94.8</ele>
        <time>2021-01-24T10:24:44.000Z</time>
      </trkpt>
      <trkpt lat="46.53588" lon="0.33829">
        <ele>94.8</ele>
        <time>2021-01-24T10:24:45.000Z</time>
      </trkpt>
      <trkpt lat="46.53588" lon="0.33829">
        <ele>94.8</ele>
        <time>2021-01-24T10:24:46.000Z</time>
      </trkpt>
      <trkpt lat="46.53588" lon="0.33829">
        <ele>94.8</ele>
        <time>2021-01-24T10:24:47.000Z</time>
      </trkpt>
      <trkpt lat="46.53588" lon="0.33829">
        <ele>94.8</ele>
        <time>2021-01-24T10:24:48.000Z</time>
      </trkpt>
      <trkpt lat="46.53588" lon="0.33829">
        <ele>94.8</ele>
        <time>2021-01-24T10:24:49.000Z</time>
      </trkpt>
      <trkpt lat="46.53588" lon="0.33829">
        <ele>94.8</ele>
        <time>2021-01-24T10:24:50.000Z</time>
      </trkpt>
      <trkpt lat="46.53588" lon="0.33829">
        <ele>94.8</ele>
        <time>2021-01-24T10:24:51.000Z</time>
      </trkpt>
      <trkpt lat="46.53588" lon="0.33829">
        <ele>94.8</ele>
        <time>2021-01-24T10:24:52.000Z</time>
      </trkpt>
      <trkpt lat="46.53588" lon="0.33829">
        <ele>94.8</ele>
        <time>2021-01-24T10:24:53.000Z</time>
      </trkpt>
      <trkpt lat="46.53588" lon="0.33829">
        <ele>95</ele>
        <time>2021-01-24T10:24:54.000Z</time>
      </trkpt>
      <trkpt lat="46.53588" lon="0.33829">
        <ele>95</ele>
        <time>2021-01-24T10:24:55.000Z</time>
      </trkpt>
      <trkpt lat="46.53588" lon="0.33829">
        <ele>95</ele>
        <time>2021-01-24T10:24:56.000Z</time>
      </trkpt>
      <trkpt lat="46.53588" lon="0.33829">
        <ele>95</ele>
        <time>2021-01-24T10:24:57.000Z</time>
      </trkpt>
      <trkpt lat="46.53588" lon="0.33829">
        <ele>95</ele>
        <time>2021-01-24T10:24:58.000Z</time>
      </trkpt>
      <trkpt lat="46.53588" lon="0.33829">
        <ele>95</ele>
        <time>2021-01-24T10:24:59.000Z</time>
      </trkpt>
      <trkpt lat="46.53588" lon="0.33829">
        <ele>95</ele>
        <time>2021-01-24T10:25:00.000Z</time>
      </trkpt>
      <trkpt lat="46.53588" lon="0.33829">
        <ele>95</ele>
        <time>2021-01-24T10:25:01.000Z</time>
      </trkpt>
      <trkpt lat="46.53588" lon="0.33829">
        <ele>95</ele>
        <time>2021-01-24T10:25:02.000Z</time>
      </trkpt>
      <trkpt lat="46.53588" lon="0.33829">
        <ele>95</ele>
        <time>2021-01-24T10:25:03.000Z</time>
      </trkpt>
      <trkpt lat="46.53588" lon="0.33829">
        <ele>95</ele>
        <time>2021-01-24T10:25:04.000Z</time>
      </trkpt>
      <trkpt lat="46.53588" lon="0.33829">
        <ele>95</ele>
        <time>2021-01-24T10:25:05.000Z</time>
      </trkpt>
      <trkpt lat="46.53588" lon="0.33829">
        <ele>95</ele>
        <time>2021-01-24T10:25:06.000Z</time>
      </trkpt>
      <trkpt lat="46.53587" lon="0.33829">
        <ele>95</ele>
        <time>2021-01-24T10:25:07.000Z</time>
      </trkpt>
      <trkpt lat="46.53587" lon="0.33829">
        <ele>95</ele>
        <time>2021-01-24T10:25:08.000Z</time>
      </trkpt>
      <trkpt lat="46.53587" lon="0.33829">
        <ele>95</ele>
        <time>2021-01-24T10:25:09.000Z</time>
      </trkpt>
      <trkpt lat="46.53587" lon="0.33829">
        <ele>95</ele>
        <time>2021-01-24T10:25:10.000Z</time>
      </trkpt>
      <trkpt lat="46.53587" lon="0.33829">
        <ele>95</ele>
        <time>2021-01-24T10:25:11.000Z</time>
      </trkpt>
      <trkpt lat="46.53587" lon="0.33829">
        <ele>95</ele>
        <time>2021-01-24T10:25:12.000Z</time>
      </trkpt>
      <trkpt lat="46.53587" lon="0.33829">
        <ele>95</ele>
        <time>2021-01-24T10:25:13.000Z</time>
      </trkpt>
      <trkpt lat="46.53587" lon="0.33829">
        <ele>95</ele>
        <time>2021-01-24T10:25:14.000Z</time>
      </trkpt>
      <trkpt lat="46.53587" lon="0.33829">
        <ele>95</ele>
        <time>2021-01-24T10:25:15.000Z</time>
      </trkpt>
      <trkpt lat="46.53587" lon="0.33829">
        <ele>95</ele>
        <time>2021-01-24T10:25:16.000Z</time>
      </trkpt>
      <trkpt lat="46.53587" lon="0.33829">
        <ele>95</ele>
        <time>2021-01-24T10:25:17.000Z</time>
      </trkpt>
      <trkpt lat="46.53587" lon="0.33829">
        <ele>95</ele>
        <time>2021-01-24T10:25:18.000Z</time>
      </trkpt>
      <trkpt lat="46.53587" lon="0.33829">
        <ele>95</ele>
        <time>2021-01-24T10:25:19.000Z</time>
      </trkpt>
      <trkpt lat="46.53587" lon="0.33829">
        <ele>95</ele>
        <time>2021-01-24T10:25:20.000Z</time>
      </trkpt>
      <trkpt lat="46.53587" lon="0.33829">
        <ele>95</ele>
        <time>2021-01-24T10:25:21.000Z</time>
      </trkpt>
      <trkpt lat="46.53587" lon="0.33824">
        <ele>95</ele>
        <time>2021-01-24T10:25:22.000Z</time>
      </trkpt>
      <trkpt lat="46.53587" lon="0.33824">
        <ele>95</ele>
        <time>2021-01-24T10:25:23.000Z</time>
      </trkpt>
      <trkpt lat="46.53587" lon="0.33818">
        <ele>95</ele>
        <time>2021-01-24T10:25:24.000Z</time>
      </trkpt>
      <trkpt lat="46.53587" lon="0.33815">
        <ele>95.2</ele>
        <time>2021-01-24T10:25:25.000Z</time>
      </trkpt>
      <trkpt lat="46.53587" lon="0.33812">
        <ele>95.2</ele>
        <time>2021-01-24T10:25:26.000Z</time>
      </trkpt>
      <trkpt lat="46.53588" lon="0.33809">
        <ele>95.2</ele>
        <time>2021-01-24T10:25:27.000Z</time>
      </trkpt>
      <trkpt lat="46.53587" lon="0.33807">
        <ele>95.2</ele>
        <time>2021-01-24T10:25:28.000Z</time>
      </trkpt>
      <trkpt lat="46.53587" lon="0.33807">
        <ele>95.4</ele>
        <time>2021-01-24T10:25:29.000Z</time>
      </trkpt>
      <trkpt lat="46.53588" lon="0.33802">
        <ele>95.4</ele>
        <time>2021-01-24T10:25:30.000Z</time>
      </trkpt>
      <trkpt lat="46.53588" lon="0.33802">
        <ele>95.4</ele>
        <time>2021-01-24T10:25:31.000Z</time>
      </trkpt>
      <trkpt lat="46.53588" lon="0.33798">
        <ele>95.4</ele>
        <time>2021-01-24T10:25:32.000Z</time>
      </trkpt>
      <trkpt lat="46.53588" lon="0.33798">
        <ele>95.6</ele>
        <time>2021-01-24T10:25:33.000Z</time>
      </trkpt>
      <trkpt lat="46.53589" lon="0.33795">
        <ele>95.6</ele>
        <time>2021-01-24T10:25:34.000Z</time>
      </trkpt>
      <trkpt lat="46.53589" lon="0.33795">
        <ele>95.6</ele>
        <time>2021-01-24T10:25:35.000Z</time>
      </trkpt>
      <trkpt lat="46.53589" lon="0.33791">
        <ele>95.8</ele>
        <time>2021-01-24T10:25:36.000Z</time>
      </trkpt>
      <trkpt lat="46.53589" lon="0.33791">
        <ele>95.8</ele>
        <time>2021-01-24T10:25:37.000Z</time>
      </trkpt>
      <trkpt lat="46.53589" lon="0.33791">
        <ele>95.8</ele>
        <time>2021-01-24T10:25:38.000Z</time>
      </trkpt>
      <trkpt lat="46.53589" lon="0.33788">
        <ele>95.8</ele>
        <time>2021-01-24T10:25:39.000Z</time>
      </trkpt>
      <trkpt lat="46.53589" lon="0.33788">
        <ele>96</ele>
        <time>2021-01-24T10:25:40.000Z</time>
      </trkpt>
      <trkpt lat="46.53589" lon="0.33788">
        <ele>96</ele>
        <time>2021-01-24T10:25:41.000Z</time>
      </trkpt>
      <trkpt lat="46.53589" lon="0.33785">
        <ele>96</ele>
        <time>2021-01-24T10:25:42.000Z</time>
      </trkpt>
      <trkpt lat="46.53589" lon="0.33785">
        <ele>96</ele>
        <time>2021-01-24T10:25:43.000Z</time>
      </trkpt>
      <trkpt lat="46.53587" lon="0.33783">
        <ele>96.2</ele>
        <time>2021-01-24T10:25:44.000Z</time>
      </trkpt>
      <trkpt lat="46.53587" lon="0.33783">
        <ele>96.2</ele>
        <time>2021-01-24T10:25:45.000Z</time>
      </trkpt>
      <trkpt lat="46.53587" lon="0.33783">
        <ele>96.2</ele>
        <time>2021-01-24T10:25:46.000Z</time>
      </trkpt>
      <trkpt lat="46.53587" lon="0.3378">
        <ele>96.4</ele>
        <time>2021-01-24T10:25:47.000Z</time>
      </trkpt>
      <trkpt lat="46.53587" lon="0.3378">
        <ele>96.6</ele>
        <time>2021-01-24T10:25:48.000Z</time>
      </trkpt>
      <trkpt lat="46.53587" lon="0.3378">
        <ele>96.6</ele>
        <time>2021-01-24T10:25:49.000Z</time>
      </trkpt>
      <trkpt lat="46.53587" lon="0.3378">
        <ele>96.6</ele>
        <time>2021-01-24T10:25:50.000Z</time>
      </trkpt>
      <trkpt lat="46.53587" lon="0.3378">
        <ele>96.6</ele>
        <time>2021-01-24T10:25:51.000Z</time>
      </trkpt>
      <trkpt lat="46.53587" lon="0.3378">
        <ele>96.8</ele>
        <time>2021-01-24T10:25:52.000Z</time>
      </trkpt>
      <trkpt lat="46.53587" lon="0.3378">
        <ele>96.8</ele>
        <time>2021-01-24T10:25:53.000Z</time>
      </trkpt>
      <trkpt lat="46.53587" lon="0.3378">
        <ele>96.8</ele>
        <time>2021-01-24T10:25:54.000Z</time>
      </trkpt>
      <trkpt lat="46.53587" lon="0.3378">
        <ele>96.8</ele>
        <time>2021-01-24T10:25:55.000Z</time>
      </trkpt>
      <trkpt lat="46.53587" lon="0.3378">
        <ele>97</ele>
        <time>2021-01-24T10:25:56.000Z</time>
      </trkpt>
      <trkpt lat="46.53587" lon="0.3378">
        <ele>97</ele>
        <time>2021-01-24T10:25:57.000Z</time>
      </trkpt>
      <trkpt lat="46.53587" lon="0.3378">
        <ele>97.2</ele>
        <time>2021-01-24T10:25:58.000Z</time>
      </trkpt>
      <trkpt lat="46.53587" lon="0.3378">
        <ele>97.2</ele>
        <time>2021-01-24T10:25:59.000Z</time>
      </trkpt>
      <trkpt lat="46.53587" lon="0.3378">
        <ele>97.4</ele>
        <time>2021-01-24T10:26:00.000Z</time>
      </trkpt>
      <trkpt lat="46.53587" lon="0.3378">
        <ele>97.4</ele>
        <time>2021-01-24T10:26:01.000Z</time>
      </trkpt>
      <trkpt lat="46.53587" lon="0.3378">
        <ele>97.6</ele>
        <time>2021-01-24T10:26:02.000Z</time>
      </trkpt>
      <trkpt lat="46.53587" lon="0.3378">
        <ele>97.6</ele>
        <time>2021-01-24T10:26:03.000Z</time>
      </trkpt>
      <trkpt lat="46.53587" lon="0.3378">
        <ele>97.6</ele>
        <time>2021-01-24T10:26:04.000Z</time>
      </trkpt>
      <trkpt lat="46.53587" lon="0.3378">
        <ele>97.6</ele>
        <time>2021-01-24T10:26:05.000Z</time>
      </trkpt>
      <trkpt lat="46.53587" lon="0.3378">
        <ele>97.6</ele>
        <time>2021-01-24T10:26:06.000Z</time>
      </trkpt>
      <trkpt lat="46.53587" lon="0.3378">
        <ele>97.6</ele>
        <time>2021-01-24T10:26:07.000Z</time>
      </trkpt>
      <trkpt lat="46.53587" lon="0.3378">
        <ele>97.6</ele>
        <time>2021-01-24T10:26:08.000Z</time>
      </trkpt>
      <trkpt lat="46.53587" lon="0.3378">
        <ele>97.6</ele>
        <time>2021-01-24T10:26:09.000Z</time>
      </trkpt>
      <trkpt lat="46.53587" lon="0.3378">
        <ele>97.6</ele>
        <time>2021-01-24T10:26:10.000Z</time>
      </trkpt>
      <trkpt lat="46.53587" lon="0.3378">
        <ele>97.8</ele>
        <time>2021-01-24T10:26:11.000Z</time>
      </trkpt>
      <trkpt lat="46.53587" lon="0.3378">
        <ele>97.8</ele>
        <time>2021-01-24T10:26:12.000Z</time>
      </trkpt>
      <trkpt lat="46.53584" lon="0.3378">
        <ele>97.8</ele>
        <time>2021-01-24T10:26:13.000Z</time>
      </trkpt>
      <trkpt lat="46.53582" lon="0.3378">
        <ele>97.8</ele>
        <time>2021-01-24T10:26:14.000Z</time>
      </trkpt>
      <trkpt lat="46.53582" lon="0.3378">
        <ele>97.8</ele>
        <time>2021-01-24T10:26:15.000Z</time>
      </trkpt>
      <trkpt lat="46.5358" lon="0.33779">
        <ele>97.8</ele>
        <time>2021-01-24T10:26:16.000Z</time>
      </trkpt>
      <trkpt lat="46.53578" lon="0.33778">
        <ele>97.8</ele>
        <time>2021-01-24T10:26:17.000Z</time>
      </trkpt>
      <trkpt lat="46.53578" lon="0.33778">
        <ele>97.8</ele>
        <time>2021-01-24T10:26:18.000Z</time>
      </trkpt>
      <trkpt lat="46.53575" lon="0.33777">
        <ele>97.8</ele>
        <time>2021-01-24T10:26:19.000Z</time>
      </trkpt>
      <trkpt lat="46.53575" lon="0.33777">
        <ele>97.6</ele>
        <time>2021-01-24T10:26:20.000Z</time>
      </trkpt>
      <trkpt lat="46.53573" lon="0.33777">
        <ele>97.6</ele>
        <time>2021-01-24T10:26:21.000Z</time>
      </trkpt>
      <trkpt lat="46.53573" lon="0.33777">
        <ele>97.6</ele>
        <time>2021-01-24T10:26:22.000Z</time>
      </trkpt>
      <trkpt lat="46.5357" lon="0.33776">
        <ele>97.6</ele>
        <time>2021-01-24T10:26:23.000Z</time>
      </trkpt>
      <trkpt lat="46.5357" lon="0.33776">
        <ele>97.6</ele>
        <time>2021-01-24T10:26:24.000Z</time>
      </trkpt>
      <trkpt lat="46.53567" lon="0.33775">
        <ele>97.6</ele>
        <time>2021-01-24T10:26:25.000Z</time>
      </trkpt>
      <trkpt lat="46.53567" lon="0.33775">
        <ele>97.6</ele>
        <time>2021-01-24T10:26:26.000Z</time>
      </trkpt>
      <trkpt lat="46.53565" lon="0.33775">
        <ele>97.6</ele>
        <time>2021-01-24T10:26:27.000Z</time>
      </trkpt>
      <trkpt lat="46.53565" lon="0.33775">
        <ele>97.6</ele>
        <time>2021-01-24T10:26:28.000Z</time>
      </trkpt>
      <trkpt lat="46.53562" lon="0.33776">
        <ele>97.6</ele>
        <time>2021-01-24T10:26:29.000Z</time>
      </trkpt>
      <trkpt lat="46.5356" lon="0.33776">
        <ele>97.6</ele>
        <time>2021-01-24T10:26:30.000Z</time>
      </trkpt>
      <trkpt lat="46.53558" lon="0.33776">
        <ele>97.8</ele>
        <time>2021-01-24T10:26:31.000Z</time>
      </trkpt>
      <trkpt lat="46.53558" lon="0.33776">
        <ele>97.8</ele>
        <time>2021-01-24T10:26:32.000Z</time>
      </trkpt>
      <trkpt lat="46.53555" lon="0.33774">
        <ele>97.8</ele>
        <time>2021-01-24T10:26:33.000Z</time>
      </trkpt>
      <trkpt lat="46.53553" lon="0.33774">
        <ele>98</ele>
        <time>2021-01-24T10:26:34.000Z</time>
      </trkpt>
      <trkpt lat="46.53553" lon="0.33774">
        <ele>98</ele>
        <time>2021-01-24T10:26:35.000Z</time>
      </trkpt>
      <trkpt lat="46.53548" lon="0.33773">
        <ele>98.2</ele>
        <time>2021-01-24T10:26:36.000Z</time>
      </trkpt>
      <trkpt lat="46.53547" lon="0.33772">
        <ele>98.2</ele>
        <time>2021-01-24T10:26:37.000Z</time>
      </trkpt>
      <trkpt lat="46.53545" lon="0.33771">
        <ele>98.2</ele>
        <time>2021-01-24T10:26:38.000Z</time>
      </trkpt>
      <trkpt lat="46.53542" lon="0.33771">
        <ele>98.2</ele>
        <time>2021-01-24T10:26:39.000Z</time>
      </trkpt>
      <trkpt lat="46.53539" lon="0.3377">
        <ele>98.2</ele>
        <time>2021-01-24T10:26:40.000Z</time>
      </trkpt>
      <trkpt lat="46.53537" lon="0.3377">
        <ele>98.2</ele>
        <time>2021-01-24T10:26:41.000Z</time>
      </trkpt>
      <trkpt lat="46.53534" lon="0.33769">
        <ele>98.4</ele>
        <time>2021-01-24T10:26:42.000Z</time>
      </trkpt>
      <trkpt lat="46.53531" lon="0.33769">
        <ele>98.4</ele>
        <time>2021-01-24T10:26:43.000Z</time>
      </trkpt>
      <trkpt lat="46.53528" lon="0.33768">
        <ele>98.6</ele>
        <time>2021-01-24T10:26:44.000Z</time>
      </trkpt>
      <trkpt lat="46.53525" lon="0.33768">
        <ele>98.8</ele>
        <time>2021-01-24T10:26:45.000Z</time>
      </trkpt>
      <trkpt lat="46.53522" lon="0.33767">
        <ele>99</ele>
        <time>2021-01-24T10:26:46.000Z</time>
      </trkpt>
      <trkpt lat="46.53518" lon="0.33766">
        <ele>99</ele>
        <time>2021-01-24T10:26:47.000Z</time>
      </trkpt>
      <trkpt lat="46.53515" lon="0.33765">
        <ele>99.2</ele>
        <time>2021-01-24T10:26:48.000Z</time>
      </trkpt>
      <trkpt lat="46.53511" lon="0.33765">
        <ele>99.4</ele>
        <time>2021-01-24T10:26:49.000Z</time>
      </trkpt>
      <trkpt lat="46.53508" lon="0.33764">
        <ele>99.4</ele>
        <time>2021-01-24T10:26:50.000Z</time>
      </trkpt>
      <trkpt lat="46.53505" lon="0.33763">
        <ele>99.6</ele>
        <time>2021-01-24T10:26:51.000Z</time>
      </trkpt>
      <trkpt lat="46.53501" lon="0.33761">
        <ele>99.8</ele>
        <time>2021-01-24T10:26:52.000Z</time>
      </trkpt>
      <trkpt lat="46.53498" lon="0.33759">
        <ele>99.8</ele>
        <time>2021-01-24T10:26:53.000Z</time>
      </trkpt>
      <trkpt lat="46.53496" lon="0.33758">
        <ele>100</ele>
        <time>2021-01-24T10:26:54.000Z</time>
      </trkpt>
      <trkpt lat="46.53493" lon="0.33756">
        <ele>100</ele>
        <time>2021-01-24T10:26:55.000Z</time>
      </trkpt>
      <trkpt lat="46.53491" lon="0.33753">
        <ele>100</ele>
        <time>2021-01-24T10:26:56.000Z</time>
      </trkpt>
      <trkpt lat="46.53489" lon="0.33752">
        <ele>100.2</ele>
        <time>2021-01-24T10:26:57.000Z</time>
      </trkpt>
      <trkpt lat="46.53486" lon="0.3375">
        <ele>100.2</ele>
        <time>2021-01-24T10:26:58.000Z</time>
      </trkpt>
      <trkpt lat="46.53483" lon="0.33748">
        <ele>100.2</ele>
        <time>2021-01-24T10:26:59.000Z</time>
      </trkpt>
      <trkpt lat="46.53481" lon="0.33746">
        <ele>100.4</ele>
        <time>2021-01-24T10:27:00.000Z</time>
      </trkpt>
      <trkpt lat="46.53478" lon="0.33744">
        <ele>100.4</ele>
        <time>2021-01-24T10:27:01.000Z</time>
      </trkpt>
      <trkpt lat="46.53475" lon="0.33742">
        <ele>100.4</ele>
        <time>2021-01-24T10:27:02.000Z</time>
      </trkpt>
      <trkpt lat="46.53472" lon="0.3374">
        <ele>100.6</ele>
        <time>2021-01-24T10:27:03.000Z</time>
      </trkpt>
      <trkpt lat="46.53469" lon="0.33738">
        <ele>100.6</ele>
        <time>2021-01-24T10:27:04.000Z</time>
      </trkpt>
      <trkpt lat="46.53466" lon="0.33736">
        <ele>100.8</ele>
        <time>2021-01-24T10:27:05.000Z</time>
      </trkpt>
      <trkpt lat="46.53463" lon="0.33734">
        <ele>100.8</ele>
        <time>2021-01-24T10:27:06.000Z</time>
      </trkpt>
      <trkpt lat="46.5346" lon="0.33732">
        <ele>101</ele>
        <time>2021-01-24T10:27:07.000Z</time>
      </trkpt>
      <trkpt lat="46.53457" lon="0.3373">
        <ele>101</ele>
        <time>2021-01-24T10:27:08.000Z</time>
      </trkpt>
      <trkpt lat="46.53453" lon="0.33727">
        <ele>101.2</ele>
        <time>2021-01-24T10:27:09.000Z</time>
      </trkpt>
      <trkpt lat="46.53451" lon="0.33725">
        <ele>101.2</ele>
        <time>2021-01-24T10:27:10.000Z</time>
      </trkpt>
      <trkpt lat="46.53448" lon="0.33722">
        <ele>101.4</ele>
        <time>2021-01-24T10:27:11.000Z</time>
      </trkpt>
      <trkpt lat="46.53445" lon="0.3372">
        <ele>101.4</ele>
        <time>2021-01-24T10:27:12.000Z</time>
      </trkpt>
      <trkpt lat="46.53442" lon="0.33718">
        <ele>101.6</ele>
        <time>2021-01-24T10:27:13.000Z</time>
      </trkpt>
      <trkpt lat="46.53439" lon="0.33715">
        <ele>101.6</ele>
        <time>2021-01-24T10:27:14.000Z</time>
      </trkpt>
      <trkpt lat="46.53436" lon="0.33712">
        <ele>101.6</ele>
        <time>2021-01-24T10:27:15.000Z</time>
      </trkpt>
      <trkpt lat="46.53434" lon="0.33709">
        <ele>101.8</ele>
        <time>2021-01-24T10:27:16.000Z</time>
      </trkpt>
      <trkpt lat="46.5343" lon="0.33708">
        <ele>101.8</ele>
        <time>2021-01-24T10:27:17.000Z</time>
      </trkpt>
      <trkpt lat="46.53428" lon="0.33706">
        <ele>102</ele>
        <time>2021-01-24T10:27:18.000Z</time>
      </trkpt>
      <trkpt lat="46.53425" lon="0.33703">
        <ele>102</ele>
        <time>2021-01-24T10:27:19.000Z</time>
      </trkpt>
      <trkpt lat="46.53422" lon="0.33701">
        <ele>102</ele>
        <time>2021-01-24T10:27:20.000Z</time>
      </trkpt>
      <trkpt lat="46.53419" lon="0.33698">
        <ele>102.2</ele>
        <time>2021-01-24T10:27:21.000Z</time>
      </trkpt>
      <trkpt lat="46.53416" lon="0.33695">
        <ele>102.2</ele>
        <time>2021-01-24T10:27:22.000Z</time>
      </trkpt>
      <trkpt lat="46.53413" lon="0.33692">
        <ele>102.2</ele>
        <time>2021-01-24T10:27:23.000Z</time>
      </trkpt>
      <trkpt lat="46.5341" lon="0.3369">
        <ele>102.4</ele>
        <time>2021-01-24T10:27:24.000Z</time>
      </trkpt>
      <trkpt lat="46.53408" lon="0.33687">
        <ele>102.4</ele>
        <time>2021-01-24T10:27:25.000Z</time>
      </trkpt>
      <trkpt lat="46.53405" lon="0.33684">
        <ele>102.4</ele>
        <time>2021-01-24T10:27:26.000Z</time>
      </trkpt>
      <trkpt lat="46.53402" lon="0.33681">
        <ele>102.4</ele>
        <time>2021-01-24T10:27:27.000Z</time>
      </trkpt>
      <trkpt lat="46.53399" lon="0.33678">
        <ele>102.4</ele>
        <time>2021-01-24T10:27:28.000Z</time>
      </trkpt>
      <trkpt lat="46.53396" lon="0.33675">
        <ele>102.4</ele>
        <time>2021-01-24T10:27:29.000Z</time>
      </trkpt>
      <trkpt lat="46.53393" lon="0.33672">
        <ele>102.4</ele>
        <time>2021-01-24T10:27:30.000Z</time>
      </trkpt>
      <trkpt lat="46.5339" lon="0.33667">
        <ele>102.4</ele>
        <time>2021-01-24T10:27:31.000Z</time>
      </trkpt>
      <trkpt lat="46.53388" lon="0.33663">
        <ele>102.4</ele>
        <time>2021-01-24T10:27:32.000Z</time>
      </trkpt>
      <trkpt lat="46.53385" lon="0.3366">
        <ele>102.6</ele>
        <time>2021-01-24T10:27:33.000Z</time>
      </trkpt>
      <trkpt lat="46.53382" lon="0.33655">
        <ele>102.6</ele>
        <time>2021-01-24T10:27:34.000Z</time>
      </trkpt>
      <trkpt lat="46.5338" lon="0.33652">
        <ele>102.8</ele>
        <time>2021-01-24T10:27:35.000Z</time>
      </trkpt>
      <trkpt lat="46.53377" lon="0.33649">
        <ele>102.8</ele>
        <time>2021-01-24T10:27:36.000Z</time>
      </trkpt>
      <trkpt lat="46.53374" lon="0.33646">
        <ele>102.8</ele>
        <time>2021-01-24T10:27:37.000Z</time>
      </trkpt>
      <trkpt lat="46.53372" lon="0.33644">
        <ele>103</ele>
        <time>2021-01-24T10:27:38.000Z</time>
      </trkpt>
      <trkpt lat="46.53369" lon="0.33643">
        <ele>103</ele>
        <time>2021-01-24T10:27:39.000Z</time>
      </trkpt>
      <trkpt lat="46.53367" lon="0.33642">
        <ele>103.2</ele>
        <time>2021-01-24T10:27:40.000Z</time>
      </trkpt>
      <trkpt lat="46.53365" lon="0.33641">
        <ele>103.4</ele>
        <time>2021-01-24T10:27:41.000Z</time>
      </trkpt>
      <trkpt lat="46.53363" lon="0.3364">
        <ele>103.4</ele>
        <time>2021-01-24T10:27:42.000Z</time>
      </trkpt>
      <trkpt lat="46.53363" lon="0.3364">
        <ele>103.6</ele>
        <time>2021-01-24T10:27:43.000Z</time>
      </trkpt>
      <trkpt lat="46.53361" lon="0.33637">
        <ele>103.8</ele>
        <time>2021-01-24T10:27:44.000Z</time>
      </trkpt>
      <trkpt lat="46.5336" lon="0.33635">
        <ele>104</ele>
        <time>2021-01-24T10:27:45.000Z</time>
      </trkpt>
      <trkpt lat="46.53358" lon="0.33632">
        <ele>104.2</ele>
        <time>2021-01-24T10:27:46.000Z</time>
      </trkpt>
      <trkpt lat="46.53356" lon="0.3363">
        <ele>104.2</ele>
        <time>2021-01-24T10:27:47.000Z</time>
      </trkpt>
      <trkpt lat="46.53354" lon="0.33627">
        <ele>104.4</ele>
        <time>2021-01-24T10:27:48.000Z</time>
      </trkpt>
      <trkpt lat="46.53351" lon="0.33624">
        <ele>104.6</ele>
        <time>2021-01-24T10:27:49.000Z</time>
      </trkpt>
      <trkpt lat="46.53348" lon="0.33621">
        <ele>104.8</ele>
        <time>2021-01-24T10:27:50.000Z</time>
      </trkpt>
      <trkpt lat="46.53344" lon="0.33617">
        <ele>105</ele>
        <time>2021-01-24T10:27:51.000Z</time>
      </trkpt>
      <trkpt lat="46.53341" lon="0.33614">
        <ele>105</ele>
        <time>2021-01-24T10:27:52.000Z</time>
      </trkpt>
      <trkpt lat="46.53337" lon="0.3361">
        <ele>105.2</ele>
        <time>2021-01-24T10:27:53.000Z</time>
      </trkpt>
      <trkpt lat="46.53332" lon="0.33606">
        <ele>105.4</ele>
        <time>2021-01-24T10:27:54.000Z</time>
      </trkpt>
      <trkpt lat="46.53328" lon="0.33603">
        <ele>105.4</ele>
        <time>2021-01-24T10:27:55.000Z</time>
      </trkpt>
      <trkpt lat="46.53324" lon="0.336">
        <ele>105.4</ele>
        <time>2021-01-24T10:27:56.000Z</time>
      </trkpt>
      <trkpt lat="46.5332" lon="0.33597">
        <ele>105.4</ele>
        <time>2021-01-24T10:27:57.000Z</time>
      </trkpt>
      <trkpt lat="46.53316" lon="0.33593">
        <ele>105.4</ele>
        <time>2021-01-24T10:27:58.000Z</time>
      </trkpt>
      <trkpt lat="46.53312" lon="0.3359">
        <ele>105.4</ele>
        <time>2021-01-24T10:27:59.000Z</time>
      </trkpt>
      <trkpt lat="46.53308" lon="0.33588">
        <ele>105.4</ele>
        <time>2021-01-24T10:28:00.000Z</time>
      </trkpt>
      <trkpt lat="46.53305" lon="0.33585">
        <ele>105.4</ele>
        <time>2021-01-24T10:28:01.000Z</time>
      </trkpt>
      <trkpt lat="46.53302" lon="0.33582">
        <ele>105.2</ele>
        <time>2021-01-24T10:28:02.000Z</time>
      </trkpt>
      <trkpt lat="46.53299" lon="0.3358">
        <ele>105.4</ele>
        <time>2021-01-24T10:28:03.000Z</time>
      </trkpt>
      <trkpt lat="46.53295" lon="0.33576">
        <ele>105.4</ele>
        <time>2021-01-24T10:28:04.000Z</time>
      </trkpt>
      <trkpt lat="46.53293" lon="0.33572">
        <ele>105.4</ele>
        <time>2021-01-24T10:28:05.000Z</time>
      </trkpt>
      <trkpt lat="46.53291" lon="0.33567">
        <ele>105.6</ele>
        <time>2021-01-24T10:28:06.000Z</time>
      </trkpt>
      <trkpt lat="46.5329" lon="0.33562">
        <ele>105.6</ele>
        <time>2021-01-24T10:28:07.000Z</time>
      </trkpt>
      <trkpt lat="46.5329" lon="0.33556">
        <ele>105.8</ele>
        <time>2021-01-24T10:28:08.000Z</time>
      </trkpt>
      <trkpt lat="46.5329" lon="0.3355">
        <ele>105.8</ele>
        <time>2021-01-24T10:28:09.000Z</time>
      </trkpt>
      <trkpt lat="46.5329" lon="0.33544">
        <ele>105.8</ele>
        <time>2021-01-24T10:28:10.000Z</time>
      </trkpt>
      <trkpt lat="46.5329" lon="0.33538">
        <ele>105.6</ele>
        <time>2021-01-24T10:28:11.000Z</time>
      </trkpt>
      <trkpt lat="46.53289" lon="0.33532">
        <ele>105.6</ele>
        <time>2021-01-24T10:28:12.000Z</time>
      </trkpt>
      <trkpt lat="46.53289" lon="0.33525">
        <ele>105.6</ele>
        <time>2021-01-24T10:28:13.000Z</time>
      </trkpt>
      <trkpt lat="46.53289" lon="0.33519">
        <ele>105.8</ele>
        <time>2021-01-24T10:28:14.000Z</time>
      </trkpt>
      <trkpt lat="46.53288" lon="0.33514">
        <ele>106</ele>
        <time>2021-01-24T10:28:15.000Z</time>
      </trkpt>
      <trkpt lat="46.53287" lon="0.33508">
        <ele>106</ele>
        <time>2021-01-24T10:28:16.000Z</time>
      </trkpt>
      <trkpt lat="46.53286" lon="0.335">
        <ele>106.2</ele>
        <time>2021-01-24T10:28:17.000Z</time>
      </trkpt>
      <trkpt lat="46.53285" lon="0.33494">
        <ele>106.4</ele>
        <time>2021-01-24T10:28:18.000Z</time>
      </trkpt>
      <trkpt lat="46.53285" lon="0.33489">
        <ele>106.4</ele>
        <time>2021-01-24T10:28:19.000Z</time>
      </trkpt>
      <trkpt lat="46.53283" lon="0.33482">
        <ele>106.6</ele>
        <time>2021-01-24T10:28:20.000Z</time>
      </trkpt>
      <trkpt lat="46.53281" lon="0.33475">
        <ele>106.8</ele>
        <time>2021-01-24T10:28:21.000Z</time>
      </trkpt>
      <trkpt lat="46.53279" lon="0.3347">
        <ele>106.8</ele>
        <time>2021-01-24T10:28:22.000Z</time>
      </trkpt>
      <trkpt lat="46.53278" lon="0.33464">
        <ele>107</ele>
        <time>2021-01-24T10:28:23.000Z</time>
      </trkpt>
      <trkpt lat="46.53277" lon="0.33459">
        <ele>107.2</ele>
        <time>2021-01-24T10:28:24.000Z</time>
      </trkpt>
      <trkpt lat="46.53276" lon="0.33453">
        <ele>107.2</ele>
        <time>2021-01-24T10:28:25.000Z</time>
      </trkpt>
      <trkpt lat="46.53275" lon="0.33448">
        <ele>107.2</ele>
        <time>2021-01-24T10:28:26.000Z</time>
      </trkpt>
      <trkpt lat="46.53273" lon="0.33443">
        <ele>107.4</ele>
        <time>2021-01-24T10:28:27.000Z</time>
      </trkpt>
      <trkpt lat="46.53272" lon="0.33437">
        <ele>107.6</ele>
        <time>2021-01-24T10:28:28.000Z</time>
      </trkpt>
      <trkpt lat="46.53271" lon="0.33431">
        <ele>107.6</ele>
        <time>2021-01-24T10:28:29.000Z</time>
      </trkpt>
      <trkpt lat="46.53269" lon="0.33425">
        <ele>107.8</ele>
        <time>2021-01-24T10:28:30.000Z</time>
      </trkpt>
      <trkpt lat="46.53269" lon="0.3342">
        <ele>108</ele>
        <time>2021-01-24T10:28:31.000Z</time>
      </trkpt>
      <trkpt lat="46.53268" lon="0.33414">
        <ele>108</ele>
        <time>2021-01-24T10:28:32.000Z</time>
      </trkpt>
      <trkpt lat="46.53267" lon="0.33408">
        <ele>108</ele>
        <time>2021-01-24T10:28:33.000Z</time>
      </trkpt>
      <trkpt lat="46.53266" lon="0.33402">
        <ele>108.2</ele>
        <time>2021-01-24T10:28:34.000Z</time>
      </trkpt>
      <trkpt lat="46.53265" lon="0.33396">
        <ele>108.2</ele>
        <time>2021-01-24T10:28:35.000Z</time>
      </trkpt>
      <trkpt lat="46.53264" lon="0.3339">
        <ele>108.4</ele>
        <time>2021-01-24T10:28:36.000Z</time>
      </trkpt>
      <trkpt lat="46.53263" lon="0.33385">
        <ele>108.6</ele>
        <time>2021-01-24T10:28:37.000Z</time>
      </trkpt>
      <trkpt lat="46.53261" lon="0.33379">
        <ele>108.8</ele>
        <time>2021-01-24T10:28:38.000Z</time>
      </trkpt>
      <trkpt lat="46.53261" lon="0.33374">
        <ele>109</ele>
        <time>2021-01-24T10:28:39.000Z</time>
      </trkpt>
      <trkpt lat="46.53259" lon="0.33368">
        <ele>109</ele>
        <time>2021-01-24T10:28:40.000Z</time>
      </trkpt>
      <trkpt lat="46.53257" lon="0.33362">
        <ele>109</ele>
        <time>2021-01-24T10:28:41.000Z</time>
      </trkpt>
      <trkpt lat="46.53256" lon="0.33357">
        <ele>109.2</ele>
        <time>2021-01-24T10:28:42.000Z</time>
      </trkpt>
      <trkpt lat="46.53255" lon="0.33351">
        <ele>109.2</ele>
        <time>2021-01-24T10:28:43.000Z</time>
      </trkpt>
      <trkpt lat="46.53254" lon="0.33346">
        <ele>109.2</ele>
        <time>2021-01-24T10:28:44.000Z</time>
      </trkpt>
      <trkpt lat="46.53253" lon="0.33341">
        <ele>109.2</ele>
        <time>2021-01-24T10:28:45.000Z</time>
      </trkpt>
      <trkpt lat="46.53252" lon="0.33335">
        <ele>109.2</ele>
        <time>2021-01-24T10:28:46.000Z</time>
      </trkpt>
      <trkpt lat="46.53251" lon="0.33329">
        <ele>109.4</ele>
        <time>2021-01-24T10:28:47.000Z</time>
      </trkpt>
      <trkpt lat="46.53249" lon="0.33324">
        <ele>109.4</ele>
        <time>2021-01-24T10:28:48.000Z</time>
      </trkpt>
      <trkpt lat="46.53248" lon="0.3332">
        <ele>109.6</ele>
        <time>2021-01-24T10:28:49.000Z</time>
      </trkpt>
      <trkpt lat="46.53246" lon="0.33315">
        <ele>109.6</ele>
        <time>2021-01-24T10:28:50.000Z</time>
      </trkpt>
      <trkpt lat="46.53244" lon="0.3331">
        <ele>109.6</ele>
        <time>2021-01-24T10:28:51.000Z</time>
      </trkpt>
      <trkpt lat="46.53242" lon="0.33305">
        <ele>109.8</ele>
        <time>2021-01-24T10:28:52.000Z</time>
      </trkpt>
      <trkpt lat="46.53239" lon="0.333">
        <ele>110</ele>
        <time>2021-01-24T10:28:53.000Z</time>
      </trkpt>
      <trkpt lat="46.53237" lon="0.33296">
        <ele>110</ele>
        <time>2021-01-24T10:28:54.000Z</time>
      </trkpt>
      <trkpt lat="46.53234" lon="0.33292">
        <ele>110.2</ele>
        <time>2021-01-24T10:28:55.000Z</time>
      </trkpt>
      <trkpt lat="46.5323" lon="0.33289">
        <ele>110.2</ele>
        <time>2021-01-24T10:28:56.000Z</time>
      </trkpt>
      <trkpt lat="46.53228" lon="0.33286">
        <ele>110.4</ele>
        <time>2021-01-24T10:28:57.000Z</time>
      </trkpt>
      <trkpt lat="46.53225" lon="0.33284">
        <ele>110.4</ele>
        <time>2021-01-24T10:28:58.000Z</time>
      </trkpt>
      <trkpt lat="46.53222" lon="0.3328">
        <ele>110.6</ele>
        <time>2021-01-24T10:28:59.000Z</time>
      </trkpt>
      <trkpt lat="46.53219" lon="0.33277">
        <ele>110.6</ele>
        <time>2021-01-24T10:29:00.000Z</time>
      </trkpt>
      <trkpt lat="46.53217" lon="0.33274">
        <ele>110.8</ele>
        <time>2021-01-24T10:29:01.000Z</time>
      </trkpt>
      <trkpt lat="46.53215" lon="0.3327">
        <ele>111</ele>
        <time>2021-01-24T10:29:02.000Z</time>
      </trkpt>
      <trkpt lat="46.53213" lon="0.33266">
        <ele>111.2</ele>
        <time>2021-01-24T10:29:03.000Z</time>
      </trkpt>
      <trkpt lat="46.53211" lon="0.33261">
        <ele>111.2</ele>
        <time>2021-01-24T10:29:04.000Z</time>
      </trkpt>
      <trkpt lat="46.53208" lon="0.33257">
        <ele>111.4</ele>
        <time>2021-01-24T10:29:05.000Z</time>
      </trkpt>
      <trkpt lat="46.53205" lon="0.33249">
        <ele>111.4</ele>
        <time>2021-01-24T10:29:06.000Z</time>
      </trkpt>
      <trkpt lat="46.53204" lon="0.33246">
        <ele>112</ele>
        <time>2021-01-24T10:29:07.000Z</time>
      </trkpt>
      <trkpt lat="46.53203" lon="0.3324">
        <ele>112</ele>
        <time>2021-01-24T10:29:08.000Z</time>
      </trkpt>
      <trkpt lat="46.53201" lon="0.33235">
        <ele>112</ele>
        <time>2021-01-24T10:29:09.000Z</time>
      </trkpt>
      <trkpt lat="46.53198" lon="0.33229">
        <ele>112.2</ele>
        <time>2021-01-24T10:29:10.000Z</time>
      </trkpt>
      <trkpt lat="46.53196" lon="0.33223">
        <ele>112.4</ele>
        <time>2021-01-24T10:29:11.000Z</time>
      </trkpt>
      <trkpt lat="46.53194" lon="0.33218">
        <ele>112.6</ele>
        <time>2021-01-24T10:29:12.000Z</time>
      </trkpt>
      <trkpt lat="46.53192" lon="0.33212">
        <ele>112.6</ele>
        <time>2021-01-24T10:29:13.000Z</time>
      </trkpt>
      <trkpt lat="46.5319" lon="0.33207">
        <ele>112.8</ele>
        <time>2021-01-24T10:29:14.000Z</time>
      </trkpt>
      <trkpt lat="46.53188" lon="0.33201">
        <ele>113</ele>
        <time>2021-01-24T10:29:15.000Z</time>
      </trkpt>
      <trkpt lat="46.53186" lon="0.33196">
        <ele>113</ele>
        <time>2021-01-24T10:29:16.000Z</time>
      </trkpt>
      <trkpt lat="46.53184" lon="0.3319">
        <ele>113.2</ele>
        <time>2021-01-24T10:29:17.000Z</time>
      </trkpt>
      <trkpt lat="46.53183" lon="0.33184">
        <ele>113.4</ele>
        <time>2021-01-24T10:29:18.000Z</time>
      </trkpt>
      <trkpt lat="46.53181" lon="0.33178">
        <ele>113.8</ele>
        <time>2021-01-24T10:29:19.000Z</time>
      </trkpt>
      <trkpt lat="46.5318" lon="0.33173">
        <ele>113.8</ele>
        <time>2021-01-24T10:29:20.000Z</time>
      </trkpt>
      <trkpt lat="46.53179" lon="0.33167">
        <ele>114</ele>
        <time>2021-01-24T10:29:21.000Z</time>
      </trkpt>
      <trkpt lat="46.53179" lon="0.33161">
        <ele>114.2</ele>
        <time>2021-01-24T10:29:22.000Z</time>
      </trkpt>
      <trkpt lat="46.53178" lon="0.33156">
        <ele>114.2</ele>
        <time>2021-01-24T10:29:23.000Z</time>
      </trkpt>
      <trkpt lat="46.53177" lon="0.3315">
        <ele>114.4</ele>
        <time>2021-01-24T10:29:24.000Z</time>
      </trkpt>
      <trkpt lat="46.53177" lon="0.33145">
        <ele>114.6</ele>
        <time>2021-01-24T10:29:25.000Z</time>
      </trkpt>
      <trkpt lat="46.53177" lon="0.33139">
        <ele>114.6</ele>
        <time>2021-01-24T10:29:26.000Z</time>
      </trkpt>
      <trkpt lat="46.53176" lon="0.33133">
        <ele>114.8</ele>
        <time>2021-01-24T10:29:27.000Z</time>
      </trkpt>
      <trkpt lat="46.53175" lon="0.33127">
        <ele>114.8</ele>
        <time>2021-01-24T10:29:28.000Z</time>
      </trkpt>
      <trkpt lat="46.53174" lon="0.3312">
        <ele>115</ele>
        <time>2021-01-24T10:29:29.000Z</time>
      </trkpt>
      <trkpt lat="46.53174" lon="0.33115">
        <ele>115</ele>
        <time>2021-01-24T10:29:30.000Z</time>
      </trkpt>
      <trkpt lat="46.53174" lon="0.33109">
        <ele>115.2</ele>
        <time>2021-01-24T10:29:31.000Z</time>
      </trkpt>
      <trkpt lat="46.53174" lon="0.33102">
        <ele>115.2</ele>
        <time>2021-01-24T10:29:32.000Z</time>
      </trkpt>
      <trkpt lat="46.53174" lon="0.33095">
        <ele>115.4</ele>
        <time>2021-01-24T10:29:33.000Z</time>
      </trkpt>
      <trkpt lat="46.53174" lon="0.33088">
        <ele>115.4</ele>
        <time>2021-01-24T10:29:34.000Z</time>
      </trkpt>
      <trkpt lat="46.53174" lon="0.33081">
        <ele>115.6</ele>
        <time>2021-01-24T10:29:35.000Z</time>
      </trkpt>
      <trkpt lat="46.53175" lon="0.33076">
        <ele>115.8</ele>
        <time>2021-01-24T10:29:36.000Z</time>
      </trkpt>
      <trkpt lat="46.53175" lon="0.3307">
        <ele>116</ele>
        <time>2021-01-24T10:29:37.000Z</time>
      </trkpt>
      <trkpt lat="46.53176" lon="0.33063">
        <ele>116</ele>
        <time>2021-01-24T10:29:38.000Z</time>
      </trkpt>
      <trkpt lat="46.53176" lon="0.33057">
        <ele>116.2</ele>
        <time>2021-01-24T10:29:39.000Z</time>
      </trkpt>
      <trkpt lat="46.53177" lon="0.33051">
        <ele>116.4</ele>
        <time>2021-01-24T10:29:40.000Z</time>
      </trkpt>
      <trkpt lat="46.53176" lon="0.33045">
        <ele>116.6</ele>
        <time>2021-01-24T10:29:41.000Z</time>
      </trkpt>
      <trkpt lat="46.53175" lon="0.33037">
        <ele>116.6</ele>
        <time>2021-01-24T10:29:42.000Z</time>
      </trkpt>
      <trkpt lat="46.53175" lon="0.3303">
        <ele>116.8</ele>
        <time>2021-01-24T10:29:43.000Z</time>
      </trkpt>
      <trkpt lat="46.53175" lon="0.33024">
        <ele>116.8</ele>
        <time>2021-01-24T10:29:44.000Z</time>
      </trkpt>
      <trkpt lat="46.53174" lon="0.33018">
        <ele>117</ele>
        <time>2021-01-24T10:29:45.000Z</time>
      </trkpt>
      <trkpt lat="46.53174" lon="0.33012">
        <ele>117</ele>
        <time>2021-01-24T10:29:46.000Z</time>
      </trkpt>
      <trkpt lat="46.53174" lon="0.33007">
        <ele>117.2</ele>
        <time>2021-01-24T10:29:47.000Z</time>
      </trkpt>
      <trkpt lat="46.53173" lon="0.33001">
        <ele>117.4</ele>
        <time>2021-01-24T10:29:48.000Z</time>
      </trkpt>
      <trkpt lat="46.53172" lon="0.32995">
        <ele>117.4</ele>
        <time>2021-01-24T10:29:49.000Z</time>
      </trkpt>
      <trkpt lat="46.53172" lon="0.3299">
        <ele>117.6</ele>
        <time>2021-01-24T10:29:50.000Z</time>
      </trkpt>
      <trkpt lat="46.53171" lon="0.32984">
        <ele>117.8</ele>
        <time>2021-01-24T10:29:51.000Z</time>
      </trkpt>
      <trkpt lat="46.5317" lon="0.32978">
        <ele>118</ele>
        <time>2021-01-24T10:29:52.000Z</time>
      </trkpt>
      <trkpt lat="46.53169" lon="0.32972">
        <ele>118.2</ele>
        <time>2021-01-24T10:29:53.000Z</time>
      </trkpt>
      <trkpt lat="46.53167" lon="0.32967">
        <ele>118.2</ele>
        <time>2021-01-24T10:29:54.000Z</time>
      </trkpt>
      <trkpt lat="46.53165" lon="0.32961">
        <ele>118.4</ele>
        <time>2021-01-24T10:29:55.000Z</time>
      </trkpt>
      <trkpt lat="46.53164" lon="0.32956">
        <ele>118.6</ele>
        <time>2021-01-24T10:29:56.000Z</time>
      </trkpt>
      <trkpt lat="46.53163" lon="0.32951">
        <ele>118.6</ele>
        <time>2021-01-24T10:29:57.000Z</time>
      </trkpt>
      <trkpt lat="46.53162" lon="0.32946">
        <ele>118.8</ele>
        <time>2021-01-24T10:29:58.000Z</time>
      </trkpt>
      <trkpt lat="46.5316" lon="0.32941">
        <ele>118.8</ele>
        <time>2021-01-24T10:29:59.000Z</time>
      </trkpt>
      <trkpt lat="46.53158" lon="0.32935">
        <ele>119</ele>
        <time>2021-01-24T10:30:00.000Z</time>
      </trkpt>
      <trkpt lat="46.53155" lon="0.32928">
        <ele>119</ele>
        <time>2021-01-24T10:30:01.000Z</time>
      </trkpt>
      <trkpt lat="46.53153" lon="0.32922">
        <ele>119.2</ele>
        <time>2021-01-24T10:30:02.000Z</time>
      </trkpt>
      <trkpt lat="46.5315" lon="0.32916">
        <ele>119.2</ele>
        <time>2021-01-24T10:30:03.000Z</time>
      </trkpt>
      <trkpt lat="46.53148" lon="0.3291">
        <ele>119.2</ele>
        <time>2021-01-24T10:30:04.000Z</time>
      </trkpt>
      <trkpt lat="46.53146" lon="0.32904">
        <ele>119.4</ele>
        <time>2021-01-24T10:30:05.000Z</time>
      </trkpt>
      <trkpt lat="46.53143" lon="0.32899">
        <ele>119.4</ele>
        <time>2021-01-24T10:30:06.000Z</time>
      </trkpt>
      <trkpt lat="46.53141" lon="0.32893">
        <ele>119.6</ele>
        <time>2021-01-24T10:30:07.000Z</time>
      </trkpt>
      <trkpt lat="46.53139" lon="0.32888">
        <ele>119.8</ele>
        <time>2021-01-24T10:30:08.000Z</time>
      </trkpt>
      <trkpt lat="46.53137" lon="0.32882">
        <ele>119.8</ele>
        <time>2021-01-24T10:30:09.000Z</time>
      </trkpt>
      <trkpt lat="46.53135" lon="0.32876">
        <ele>120</ele>
        <time>2021-01-24T10:30:10.000Z</time>
      </trkpt>
      <trkpt lat="46.53134" lon="0.32872">
        <ele>120</ele>
        <time>2021-01-24T10:30:11.000Z</time>
      </trkpt>
      <trkpt lat="46.53132" lon="0.32866">
        <ele>120</ele>
        <time>2021-01-24T10:30:12.000Z</time>
      </trkpt>
      <trkpt lat="46.5313" lon="0.3286">
        <ele>120.2</ele>
        <time>2021-01-24T10:30:13.000Z</time>
      </trkpt>
      <trkpt lat="46.53128" lon="0.32855">
        <ele>120.2</ele>
        <time>2021-01-24T10:30:14.000Z</time>
      </trkpt>
      <trkpt lat="46.53126" lon="0.32851">
        <ele>120.2</ele>
        <time>2021-01-24T10:30:15.000Z</time>
      </trkpt>
      <trkpt lat="46.53125" lon="0.32846">
        <ele>120.4</ele>
        <time>2021-01-24T10:30:16.000Z</time>
      </trkpt>
      <trkpt lat="46.53124" lon="0.3284">
        <ele>120.4</ele>
        <time>2021-01-24T10:30:17.000Z</time>
      </trkpt>
      <trkpt lat="46.53122" lon="0.32835">
        <ele>120.6</ele>
        <time>2021-01-24T10:30:18.000Z</time>
      </trkpt>
      <trkpt lat="46.5312" lon="0.32829">
        <ele>120.6</ele>
        <time>2021-01-24T10:30:19.000Z</time>
      </trkpt>
      <trkpt lat="46.53118" lon="0.32824">
        <ele>120.8</ele>
        <time>2021-01-24T10:30:20.000Z</time>
      </trkpt>
      <trkpt lat="46.53116" lon="0.32819">
        <ele>120.8</ele>
        <time>2021-01-24T10:30:21.000Z</time>
      </trkpt>
      <trkpt lat="46.53114" lon="0.32814">
        <ele>121</ele>
        <time>2021-01-24T10:30:22.000Z</time>
      </trkpt>
      <trkpt lat="46.53112" lon="0.32809">
        <ele>121</ele>
        <time>2021-01-24T10:30:23.000Z</time>
      </trkpt>
      <trkpt lat="46.5311" lon="0.32803">
        <ele>121.2</ele>
        <time>2021-01-24T10:30:24.000Z</time>
      </trkpt>
      <trkpt lat="46.53108" lon="0.32797">
        <ele>121.2</ele>
        <time>2021-01-24T10:30:25.000Z</time>
      </trkpt>
      <trkpt lat="46.53107" lon="0.32792">
        <ele>121.4</ele>
        <time>2021-01-24T10:30:26.000Z</time>
      </trkpt>
      <trkpt lat="46.53104" lon="0.32786">
        <ele>121.4</ele>
        <time>2021-01-24T10:30:27.000Z</time>
      </trkpt>
      <trkpt lat="46.53101" lon="0.3278">
        <ele>121.6</ele>
        <time>2021-01-24T10:30:28.000Z</time>
      </trkpt>
      <trkpt lat="46.53097" lon="0.32774">
        <ele>121.6</ele>
        <time>2021-01-24T10:30:29.000Z</time>
      </trkpt>
      <trkpt lat="46.53093" lon="0.32768">
        <ele>121.8</ele>
        <time>2021-01-24T10:30:30.000Z</time>
      </trkpt>
      <trkpt lat="46.53091" lon="0.32764">
        <ele>121.8</ele>
        <time>2021-01-24T10:30:31.000Z</time>
      </trkpt>
      <trkpt lat="46.53089" lon="0.3276">
        <ele>121.8</ele>
        <time>2021-01-24T10:30:32.000Z</time>
      </trkpt>
      <trkpt lat="46.53087" lon="0.32756">
        <ele>122</ele>
        <time>2021-01-24T10:30:33.000Z</time>
      </trkpt>
      <trkpt lat="46.53085" lon="0.32751">
        <ele>122</ele>
        <time>2021-01-24T10:30:34.000Z</time>
      </trkpt>
      <trkpt lat="46.53082" lon="0.32747">
        <ele>122</ele>
        <time>2021-01-24T10:30:35.000Z</time>
      </trkpt>
      <trkpt lat="46.53079" lon="0.32744">
        <ele>122.2</ele>
        <time>2021-01-24T10:30:36.000Z</time>
      </trkpt>
      <trkpt lat="46.53076" lon="0.3274">
        <ele>122.2</ele>
        <time>2021-01-24T10:30:37.000Z</time>
      </trkpt>
      <trkpt lat="46.53072" lon="0.32736">
        <ele>122.2</ele>
        <time>2021-01-24T10:30:38.000Z</time>
      </trkpt>
      <trkpt lat="46.5307" lon="0.32731">
        <ele>122.4</ele>
        <time>2021-01-24T10:30:39.000Z</time>
      </trkpt>
      <trkpt lat="46.53068" lon="0.32726">
        <ele>122.4</ele>
        <time>2021-01-24T10:30:40.000Z</time>
      </trkpt>
      <trkpt lat="46.53065" lon="0.32721">
        <ele>122.6</ele>
        <time>2021-01-24T10:30:41.000Z</time>
      </trkpt>
      <trkpt lat="46.53062" lon="0.32716">
        <ele>122.6</ele>
        <time>2021-01-24T10:30:42.000Z</time>
      </trkpt>
      <trkpt lat="46.5306" lon="0.32711">
        <ele>122.6</ele>
        <time>2021-01-24T10:30:43.000Z</time>
      </trkpt>
      <trkpt lat="46.53057" lon="0.32707">
        <ele>122.8</ele>
        <time>2021-01-24T10:30:44.000Z</time>
      </trkpt>
      <trkpt lat="46.53054" lon="0.32702">
        <ele>122.8</ele>
        <time>2021-01-24T10:30:45.000Z</time>
      </trkpt>
      <trkpt lat="46.53053" lon="0.32698">
        <ele>122.8</ele>
        <time>2021-01-24T10:30:46.000Z</time>
      </trkpt>
      <trkpt lat="46.5305" lon="0.32693">
        <ele>122.8</ele>
        <time>2021-01-24T10:30:47.000Z</time>
      </trkpt>
      <trkpt lat="46.53048" lon="0.32688">
        <ele>122.8</ele>
        <time>2021-01-24T10:30:48.000Z</time>
      </trkpt>
      <trkpt lat="46.53046" lon="0.32682">
        <ele>122.6</ele>
        <time>2021-01-24T10:30:49.000Z</time>
      </trkpt>
      <trkpt lat="46.53045" lon="0.32676">
        <ele>122.6</ele>
        <time>2021-01-24T10:30:50.000Z</time>
      </trkpt>
      <trkpt lat="46.53043" lon="0.3267">
        <ele>122.6</ele>
        <time>2021-01-24T10:30:51.000Z</time>
      </trkpt>
      <trkpt lat="46.53041" lon="0.32665">
        <ele>122.6</ele>
        <time>2021-01-24T10:30:52.000Z</time>
      </trkpt>
      <trkpt lat="46.53039" lon="0.32657">
        <ele>122.6</ele>
        <time>2021-01-24T10:30:53.000Z</time>
      </trkpt>
      <trkpt lat="46.53037" lon="0.32649">
        <ele>122.8</ele>
        <time>2021-01-24T10:30:54.000Z</time>
      </trkpt>
      <trkpt lat="46.53035" lon="0.32642">
        <ele>122.8</ele>
        <time>2021-01-24T10:30:55.000Z</time>
      </trkpt>
      <trkpt lat="46.53035" lon="0.32634">
        <ele>122.8</ele>
        <time>2021-01-24T10:30:56.000Z</time>
      </trkpt>
      <trkpt lat="46.53035" lon="0.32627">
        <ele>122.8</ele>
        <time>2021-01-24T10:30:57.000Z</time>
      </trkpt>
      <trkpt lat="46.53037" lon="0.32621">
        <ele>123</ele>
        <time>2021-01-24T10:30:58.000Z</time>
      </trkpt>
      <trkpt lat="46.53039" lon="0.32616">
        <ele>123</ele>
        <time>2021-01-24T10:30:59.000Z</time>
      </trkpt>
      <trkpt lat="46.53043" lon="0.32614">
        <ele>123</ele>
        <time>2021-01-24T10:31:00.000Z</time>
      </trkpt>
      <trkpt lat="46.53046" lon="0.32613">
        <ele>123</ele>
        <time>2021-01-24T10:31:01.000Z</time>
      </trkpt>
      <trkpt lat="46.5305" lon="0.32612">
        <ele>123.2</ele>
        <time>2021-01-24T10:31:02.000Z</time>
      </trkpt>
      <trkpt lat="46.53054" lon="0.32611">
        <ele>123.2</ele>
        <time>2021-01-24T10:31:03.000Z</time>
      </trkpt>
      <trkpt lat="46.53057" lon="0.3261">
        <ele>123.2</ele>
        <time>2021-01-24T10:31:04.000Z</time>
      </trkpt>
      <trkpt lat="46.5306" lon="0.3261">
        <ele>123.4</ele>
        <time>2021-01-24T10:31:05.000Z</time>
      </trkpt>
      <trkpt lat="46.53063" lon="0.32609">
        <ele>123.4</ele>
        <time>2021-01-24T10:31:06.000Z</time>
      </trkpt>
      <trkpt lat="46.53067" lon="0.32608">
        <ele>123.6</ele>
        <time>2021-01-24T10:31:07.000Z</time>
      </trkpt>
      <trkpt lat="46.5307" lon="0.32608">
        <ele>123.6</ele>
        <time>2021-01-24T10:31:08.000Z</time>
      </trkpt>
      <trkpt lat="46.53073" lon="0.32607">
        <ele>123.6</ele>
        <time>2021-01-24T10:31:09.000Z</time>
      </trkpt>
      <trkpt lat="46.53076" lon="0.32606">
        <ele>123.8</ele>
        <time>2021-01-24T10:31:10.000Z</time>
      </trkpt>
      <trkpt lat="46.5308" lon="0.32605">
        <ele>123.8</ele>
        <time>2021-01-24T10:31:11.000Z</time>
      </trkpt>
      <trkpt lat="46.53084" lon="0.32604">
        <ele>123.8</ele>
        <time>2021-01-24T10:31:12.000Z</time>
      </trkpt>
      <trkpt lat="46.53088" lon="0.32603">
        <ele>124</ele>
        <time>2021-01-24T10:31:13.000Z</time>
      </trkpt>
      <trkpt lat="46.53093" lon="0.32603">
        <ele>124</ele>
        <time>2021-01-24T10:31:14.000Z</time>
      </trkpt>
      <trkpt lat="46.53098" lon="0.32602">
        <ele>124.2</ele>
        <time>2021-01-24T10:31:15.000Z</time>
      </trkpt>
      <trkpt lat="46.53102" lon="0.32601">
        <ele>124.2</ele>
        <time>2021-01-24T10:31:16.000Z</time>
      </trkpt>
      <trkpt lat="46.53108" lon="0.32601">
        <ele>124.4</ele>
        <time>2021-01-24T10:31:17.000Z</time>
      </trkpt>
      <trkpt lat="46.53113" lon="0.326">
        <ele>124.4</ele>
        <time>2021-01-24T10:31:18.000Z</time>
      </trkpt>
      <trkpt lat="46.53118" lon="0.32599">
        <ele>124.4</ele>
        <time>2021-01-24T10:31:19.000Z</time>
      </trkpt>
      <trkpt lat="46.53122" lon="0.32598">
        <ele>124.6</ele>
        <time>2021-01-24T10:31:20.000Z</time>
      </trkpt>
      <trkpt lat="46.53127" lon="0.32596">
        <ele>124.6</ele>
        <time>2021-01-24T10:31:21.000Z</time>
      </trkpt>
      <trkpt lat="46.53132" lon="0.32595">
        <ele>124.8</ele>
        <time>2021-01-24T10:31:22.000Z</time>
      </trkpt>
      <trkpt lat="46.53137" lon="0.32593">
        <ele>124.8</ele>
        <time>2021-01-24T10:31:23.000Z</time>
      </trkpt>
      <trkpt lat="46.53142" lon="0.32592">
        <ele>125</ele>
        <time>2021-01-24T10:31:24.000Z</time>
      </trkpt>
      <trkpt lat="46.53148" lon="0.32591">
        <ele>125</ele>
        <time>2021-01-24T10:31:25.000Z</time>
      </trkpt>
      <trkpt lat="46.53153" lon="0.3259">
        <ele>125</ele>
        <time>2021-01-24T10:31:26.000Z</time>
      </trkpt>
      <trkpt lat="46.53158" lon="0.32589">
        <ele>125.2</ele>
        <time>2021-01-24T10:31:27.000Z</time>
      </trkpt>
      <trkpt lat="46.53163" lon="0.32589">
        <ele>125.2</ele>
        <time>2021-01-24T10:31:28.000Z</time>
      </trkpt>
      <trkpt lat="46.53167" lon="0.32588">
        <ele>125.2</ele>
        <time>2021-01-24T10:31:29.000Z</time>
      </trkpt>
      <trkpt lat="46.53173" lon="0.32587">
        <ele>125.4</ele>
        <time>2021-01-24T10:31:30.000Z</time>
      </trkpt>
      <trkpt lat="46.53177" lon="0.32586">
        <ele>125.4</ele>
        <time>2021-01-24T10:31:31.000Z</time>
      </trkpt>
      <trkpt lat="46.5318" lon="0.32586">
        <ele>125.4</ele>
        <time>2021-01-24T10:31:32.000Z</time>
      </trkpt>
      <trkpt lat="46.53183" lon="0.32586">
        <ele>125.4</ele>
        <time>2021-01-24T10:31:33.000Z</time>
      </trkpt>
      <trkpt lat="46.53187" lon="0.32587">
        <ele>125.4</ele>
        <time>2021-01-24T10:31:34.000Z</time>
      </trkpt>
      <trkpt lat="46.53189" lon="0.32588">
        <ele>125.6</ele>
        <time>2021-01-24T10:31:35.000Z</time>
      </trkpt>
      <trkpt lat="46.53193" lon="0.32589">
        <ele>125.6</ele>
        <time>2021-01-24T10:31:36.000Z</time>
      </trkpt>
      <trkpt lat="46.53197" lon="0.32588">
        <ele>125.6</ele>
        <time>2021-01-24T10:31:37.000Z</time>
      </trkpt>
      <trkpt lat="46.53201" lon="0.32589">
        <ele>125.6</ele>
        <time>2021-01-24T10:31:38.000Z</time>
      </trkpt>
      <trkpt lat="46.53205" lon="0.32589">
        <ele>125.6</ele>
        <time>2021-01-24T10:31:39.000Z</time>
      </trkpt>
      <trkpt lat="46.53209" lon="0.3259">
        <ele>125.6</ele>
        <time>2021-01-24T10:31:40.000Z</time>
      </trkpt>
      <trkpt lat="46.53213" lon="0.32591">
        <ele>125.8</ele>
        <time>2021-01-24T10:31:41.000Z</time>
      </trkpt>
      <trkpt lat="46.53218" lon="0.32592">
        <ele>125.8</ele>
        <time>2021-01-24T10:31:42.000Z</time>
      </trkpt>
      <trkpt lat="46.53222" lon="0.32592">
        <ele>125.8</ele>
        <time>2021-01-24T10:31:43.000Z</time>
      </trkpt>
      <trkpt lat="46.53227" lon="0.32592">
        <ele>125.8</ele>
        <time>2021-01-24T10:31:44.000Z</time>
      </trkpt>
      <trkpt lat="46.53232" lon="0.32593">
        <ele>125.8</ele>
        <time>2021-01-24T10:31:45.000Z</time>
      </trkpt>
      <trkpt lat="46.53237" lon="0.32593">
        <ele>125.8</ele>
        <time>2021-01-24T10:31:46.000Z</time>
      </trkpt>
      <trkpt lat="46.53243" lon="0.32593">
        <ele>125.8</ele>
        <time>2021-01-24T10:31:47.000Z</time>
      </trkpt>
      <trkpt lat="46.53249" lon="0.32593">
        <ele>125.8</ele>
        <time>2021-01-24T10:31:48.000Z</time>
      </trkpt>
      <trkpt lat="46.53254" lon="0.32593">
        <ele>125.8</ele>
        <time>2021-01-24T10:31:49.000Z</time>
      </trkpt>
      <trkpt lat="46.53259" lon="0.32593">
        <ele>125.8</ele>
        <time>2021-01-24T10:31:50.000Z</time>
      </trkpt>
      <trkpt lat="46.53263" lon="0.32593">
        <ele>125.8</ele>
        <time>2021-01-24T10:31:51.000Z</time>
      </trkpt>
      <trkpt lat="46.53267" lon="0.32594">
        <ele>126</ele>
        <time>2021-01-24T10:31:52.000Z</time>
      </trkpt>
      <trkpt lat="46.53271" lon="0.32595">
        <ele>126</ele>
        <time>2021-01-24T10:31:53.000Z</time>
      </trkpt>
      <trkpt lat="46.53277" lon="0.32596">
        <ele>126</ele>
        <time>2021-01-24T10:31:54.000Z</time>
      </trkpt>
      <trkpt lat="46.53281" lon="0.32597">
        <ele>126</ele>
        <time>2021-01-24T10:31:55.000Z</time>
      </trkpt>
      <trkpt lat="46.53285" lon="0.32598">
        <ele>126</ele>
        <time>2021-01-24T10:31:56.000Z</time>
      </trkpt>
      <trkpt lat="46.53289" lon="0.32596">
        <ele>126</ele>
        <time>2021-01-24T10:31:57.000Z</time>
      </trkpt>
      <trkpt lat="46.53291" lon="0.32593">
        <ele>126</ele>
        <time>2021-01-24T10:31:58.000Z</time>
      </trkpt>
      <trkpt lat="46.53293" lon="0.3259">
        <ele>126</ele>
        <time>2021-01-24T10:31:59.000Z</time>
      </trkpt>
      <trkpt lat="46.53294" lon="0.32586">
        <ele>126</ele>
        <time>2021-01-24T10:32:00.000Z</time>
      </trkpt>
      <trkpt lat="46.53293" lon="0.32581">
        <ele>126</ele>
        <time>2021-01-24T10:32:01.000Z</time>
      </trkpt>
      <trkpt lat="46.53293" lon="0.32576">
        <ele>126</ele>
        <time>2021-01-24T10:32:02.000Z</time>
      </trkpt>
      <trkpt lat="46.53291" lon="0.3257">
        <ele>126</ele>
        <time>2021-01-24T10:32:03.000Z</time>
      </trkpt>
      <trkpt lat="46.5329" lon="0.32565">
        <ele>126</ele>
        <time>2021-01-24T10:32:04.000Z</time>
      </trkpt>
      <trkpt lat="46.53289" lon="0.32558">
        <ele>126</ele>
        <time>2021-01-24T10:32:05.000Z</time>
      </trkpt>
      <trkpt lat="46.53287" lon="0.3255">
        <ele>126</ele>
        <time>2021-01-24T10:32:06.000Z</time>
      </trkpt>
      <trkpt lat="46.53285" lon="0.32543">
        <ele>126</ele>
        <time>2021-01-24T10:32:07.000Z</time>
      </trkpt>
      <trkpt lat="46.53283" lon="0.32536">
        <ele>125.8</ele>
        <time>2021-01-24T10:32:08.000Z</time>
      </trkpt>
      <trkpt lat="46.53279" lon="0.32528">
        <ele>125.8</ele>
        <time>2021-01-24T10:32:09.000Z</time>
      </trkpt>
      <trkpt lat="46.53277" lon="0.32521">
        <ele>125.6</ele>
        <time>2021-01-24T10:32:10.000Z</time>
      </trkpt>
      <trkpt lat="46.53275" lon="0.32512">
        <ele>125.4</ele>
        <time>2021-01-24T10:32:11.000Z</time>
      </trkpt>
      <trkpt lat="46.53274" lon="0.32504">
        <ele>125.2</ele>
        <time>2021-01-24T10:32:12.000Z</time>
      </trkpt>
      <trkpt lat="46.53273" lon="0.32494">
        <ele>125</ele>
        <time>2021-01-24T10:32:13.000Z</time>
      </trkpt>
      <trkpt lat="46.53273" lon="0.32484">
        <ele>124.8</ele>
        <time>2021-01-24T10:32:14.000Z</time>
      </trkpt>
      <trkpt lat="46.53274" lon="0.32474">
        <ele>124.8</ele>
        <time>2021-01-24T10:32:15.000Z</time>
      </trkpt>
      <trkpt lat="46.53278" lon="0.32467">
        <ele>124.6</ele>
        <time>2021-01-24T10:32:16.000Z</time>
      </trkpt>
      <trkpt lat="46.53281" lon="0.32459">
        <ele>124.4</ele>
        <time>2021-01-24T10:32:17.000Z</time>
      </trkpt>
      <trkpt lat="46.53284" lon="0.32452">
        <ele>124.2</ele>
        <time>2021-01-24T10:32:18.000Z</time>
      </trkpt>
      <trkpt lat="46.53286" lon="0.32447">
        <ele>124</ele>
        <time>2021-01-24T10:32:19.000Z</time>
      </trkpt>
      <trkpt lat="46.53288" lon="0.32443">
        <ele>123.8</ele>
        <time>2021-01-24T10:32:20.000Z</time>
      </trkpt>
      <trkpt lat="46.53291" lon="0.32442">
        <ele>123.6</ele>
        <time>2021-01-24T10:32:21.000Z</time>
      </trkpt>
      <trkpt lat="46.53294" lon="0.32442">
        <ele>123.6</ele>
        <time>2021-01-24T10:32:22.000Z</time>
      </trkpt>
      <trkpt lat="46.53297" lon="0.32442">
        <ele>123.4</ele>
        <time>2021-01-24T10:32:23.000Z</time>
      </trkpt>
      <trkpt lat="46.53301" lon="0.32442">
        <ele>123.2</ele>
        <time>2021-01-24T10:32:24.000Z</time>
      </trkpt>
      <trkpt lat="46.53305" lon="0.32443">
        <ele>123</ele>
        <time>2021-01-24T10:32:25.000Z</time>
      </trkpt>
      <trkpt lat="46.53309" lon="0.32444">
        <ele>123</ele>
        <time>2021-01-24T10:32:26.000Z</time>
      </trkpt>
      <trkpt lat="46.53314" lon="0.32447">
        <ele>122.8</ele>
        <time>2021-01-24T10:32:27.000Z</time>
      </trkpt>
      <trkpt lat="46.53317" lon="0.32448">
        <ele>122.6</ele>
        <time>2021-01-24T10:32:28.000Z</time>
      </trkpt>
      <trkpt lat="46.53321" lon="0.32449">
        <ele>122.4</ele>
        <time>2021-01-24T10:32:29.000Z</time>
      </trkpt>
      <trkpt lat="46.53324" lon="0.3245">
        <ele>122.2</ele>
        <time>2021-01-24T10:32:30.000Z</time>
      </trkpt>
      <trkpt lat="46.53326" lon="0.3245">
        <ele>122</ele>
        <time>2021-01-24T10:32:31.000Z</time>
      </trkpt>
      <trkpt lat="46.53328" lon="0.3245">
        <ele>121.8</ele>
        <time>2021-01-24T10:32:32.000Z</time>
      </trkpt>
      <trkpt lat="46.5333" lon="0.3245">
        <ele>121.6</ele>
        <time>2021-01-24T10:32:33.000Z</time>
      </trkpt>
      <trkpt lat="46.53332" lon="0.32449">
        <ele>121.4</ele>
        <time>2021-01-24T10:32:34.000Z</time>
      </trkpt>
      <trkpt lat="46.53332" lon="0.32449">
        <ele>121.4</ele>
        <time>2021-01-24T10:32:35.000Z</time>
      </trkpt>
      <trkpt lat="46.53332" lon="0.32449">
        <ele>121.2</ele>
        <time>2021-01-24T10:32:36.000Z</time>
      </trkpt>
      <trkpt lat="46.53332" lon="0.32449">
        <ele>121</ele>
        <time>2021-01-24T10:32:37.000Z</time>
      </trkpt>
      <trkpt lat="46.53334" lon="0.32447">
        <ele>121</ele>
        <time>2021-01-24T10:32:38.000Z</time>
      </trkpt>
      <trkpt lat="46.53334" lon="0.32447">
        <ele>120.8</ele>
        <time>2021-01-24T10:32:39.000Z</time>
      </trkpt>
      <trkpt lat="46.53334" lon="0.32447">
        <ele>120.6</ele>
        <time>2021-01-24T10:32:40.000Z</time>
      </trkpt>
      <trkpt lat="46.53335" lon="0.32443">
        <ele>120.4</ele>
        <time>2021-01-24T10:32:41.000Z</time>
      </trkpt>
      <trkpt lat="46.53335" lon="0.32443">
        <ele>120.2</ele>
        <time>2021-01-24T10:32:42.000Z</time>
      </trkpt>
      <trkpt lat="46.53337" lon="0.32439">
        <ele>120</ele>
        <time>2021-01-24T10:32:43.000Z</time>
      </trkpt>
      <trkpt lat="46.53339" lon="0.32437">
        <ele>119.8</ele>
        <time>2021-01-24T10:32:44.000Z</time>
      </trkpt>
      <trkpt lat="46.5334" lon="0.32434">
        <ele>119.6</ele>
        <time>2021-01-24T10:32:45.000Z</time>
      </trkpt>
      <trkpt lat="46.53341" lon="0.3243">
        <ele>119.4</ele>
        <time>2021-01-24T10:32:46.000Z</time>
      </trkpt>
      <trkpt lat="46.53343" lon="0.32427">
        <ele>119.2</ele>
        <time>2021-01-24T10:32:47.000Z</time>
      </trkpt>
      <trkpt lat="46.53343" lon="0.32427">
        <ele>118.8</ele>
        <time>2021-01-24T10:32:48.000Z</time>
      </trkpt>
      <trkpt lat="46.53344" lon="0.32424">
        <ele>118.6</ele>
        <time>2021-01-24T10:32:49.000Z</time>
      </trkpt>
      <trkpt lat="46.53344" lon="0.32424">
        <ele>118.4</ele>
        <time>2021-01-24T10:32:50.000Z</time>
      </trkpt>
      <trkpt lat="46.53347" lon="0.32423">
        <ele>118.2</ele>
        <time>2021-01-24T10:32:51.000Z</time>
      </trkpt>
      <trkpt lat="46.53347" lon="0.32423">
        <ele>118</ele>
        <time>2021-01-24T10:32:52.000Z</time>
      </trkpt>
      <trkpt lat="46.53347" lon="0.32423">
        <ele>117.8</ele>
        <time>2021-01-24T10:32:53.000Z</time>
      </trkpt>
      <trkpt lat="46.53347" lon="0.32423">
        <ele>117.4</ele>
        <time>2021-01-24T10:32:54.000Z</time>
      </trkpt>
      <trkpt lat="46.53347" lon="0.32423">
        <ele>117.2</ele>
        <time>2021-01-24T10:32:55.000Z</time>
      </trkpt>
      <trkpt lat="46.53347" lon="0.32423">
        <ele>117</ele>
        <time>2021-01-24T10:32:56.000Z</time>
      </trkpt>
      <trkpt lat="46.53347" lon="0.32423">
        <ele>116.8</ele>
        <time>2021-01-24T10:32:57.000Z</time>
      </trkpt>
      <trkpt lat="46.53348" lon="0.3242">
        <ele>116.4</ele>
        <time>2021-01-24T10:32:58.000Z</time>
      </trkpt>
      <trkpt lat="46.53348" lon="0.3242">
        <ele>116</ele>
        <time>2021-01-24T10:32:59.000Z</time>
      </trkpt>
      <trkpt lat="46.5335" lon="0.32416">
        <ele>115.8</ele>
        <time>2021-01-24T10:33:00.000Z</time>
      </trkpt>
      <trkpt lat="46.53351" lon="0.32414">
        <ele>115.4</ele>
        <time>2021-01-24T10:33:01.000Z</time>
      </trkpt>
      <trkpt lat="46.53351" lon="0.32414">
        <ele>115</ele>
        <time>2021-01-24T10:33:02.000Z</time>
      </trkpt>
      <trkpt lat="46.53354" lon="0.32413">
        <ele>114.6</ele>
        <time>2021-01-24T10:33:03.000Z</time>
      </trkpt>
      <trkpt lat="46.53356" lon="0.32414">
        <ele>114.2</ele>
        <time>2021-01-24T10:33:04.000Z</time>
      </trkpt>
      <trkpt lat="46.53356" lon="0.32414">
        <ele>113.8</ele>
        <time>2021-01-24T10:33:05.000Z</time>
      </trkpt>
      <trkpt lat="46.53356" lon="0.32414">
        <ele>113.4</ele>
        <time>2021-01-24T10:33:06.000Z</time>
      </trkpt>
      <trkpt lat="46.53356" lon="0.32414">
        <ele>113</ele>
        <time>2021-01-24T10:33:07.000Z</time>
      </trkpt>
      <trkpt lat="46.53356" lon="0.32414">
        <ele>112.6</ele>
        <time>2021-01-24T10:33:08.000Z</time>
      </trkpt>
      <trkpt lat="46.53356" lon="0.32414">
        <ele>112.2</ele>
        <time>2021-01-24T10:33:09.000Z</time>
      </trkpt>
      <trkpt lat="46.53357" lon="0.32414">
        <ele>111.8</ele>
        <time>2021-01-24T10:33:10.000Z</time>
      </trkpt>
      <trkpt lat="46.53357" lon="0.32414">
        <ele>111.4</ele>
        <time>2021-01-24T10:33:11.000Z</time>
      </trkpt>
      <trkpt lat="46.53357" lon="0.32414">
        <ele>111</ele>
        <time>2021-01-24T10:33:12.000Z</time>
      </trkpt>
      <trkpt lat="46.53357" lon="0.32414">
        <ele>110.6</ele>
        <time>2021-01-24T10:33:13.000Z</time>
      </trkpt>
      <trkpt lat="46.53357" lon="0.32414">
        <ele>110.2</ele>
        <time>2021-01-24T10:33:14.000Z</time>
      </trkpt>
      <trkpt lat="46.53357" lon="0.32414">
        <ele>109.8</ele>
        <time>2021-01-24T10:33:15.000Z</time>
      </trkpt>
      <trkpt lat="46.53357" lon="0.32414">
        <ele>109.4</ele>
        <time>2021-01-24T10:33:16.000Z</time>
      </trkpt>
      <trkpt lat="46.53357" lon="0.32414">
        <ele>108.8</ele>
        <time>2021-01-24T10:33:17.000Z</time>
      </trkpt>
      <trkpt lat="46.53357" lon="0.32414">
        <ele>108.4</ele>
        <time>2021-01-24T10:33:18.000Z</time>
      </trkpt>
      <trkpt lat="46.53357" lon="0.32414">
        <ele>107.8</ele>
        <time>2021-01-24T10:33:19.000Z</time>
      </trkpt>
      <trkpt lat="46.53357" lon="0.32414">
        <ele>107.2</ele>
        <time>2021-01-24T10:33:20.000Z</time>
      </trkpt>
      <trkpt lat="46.53357" lon="0.32414">
        <ele>106.8</ele>
        <time>2021-01-24T10:33:21.000Z</time>
      </trkpt>
      <trkpt lat="46.53357" lon="0.32414">
        <ele>106.4</ele>
        <time>2021-01-24T10:33:22.000Z</time>
      </trkpt>
      <trkpt lat="46.53357" lon="0.32414">
        <ele>106</ele>
        <time>2021-01-24T10:33:23.000Z</time>
      </trkpt>
      <trkpt lat="46.53357" lon="0.32414">
        <ele>105.4</ele>
        <time>2021-01-24T10:33:24.000Z</time>
      </trkpt>
      <trkpt lat="46.53357" lon="0.32414">
        <ele>105</ele>
        <time>2021-01-24T10:33:25.000Z</time>
      </trkpt>
      <trkpt lat="46.53357" lon="0.32414">
        <ele>104.8</ele>
        <time>2021-01-24T10:33:26.000Z</time>
      </trkpt>
      <trkpt lat="46.53357" lon="0.32414">
        <ele>104.4</ele>
        <time>2021-01-24T10:33:27.000Z</time>
      </trkpt>
      <trkpt lat="46.53358" lon="0.32414">
        <ele>104</ele>
        <time>2021-01-24T10:33:28.000Z</time>
      </trkpt>
      <trkpt lat="46.53358" lon="0.32414">
        <ele>103.6</ele>
        <time>2021-01-24T10:33:29.000Z</time>
      </trkpt>
      <trkpt lat="46.53358" lon="0.32414">
        <ele>103.2</ele>
        <time>2021-01-24T10:33:30.000Z</time>
      </trkpt>
      <trkpt lat="46.53358" lon="0.32414">
        <ele>102.8</ele>
        <time>2021-01-24T10:33:31.000Z</time>
      </trkpt>
      <trkpt lat="46.53358" lon="0.32414">
        <ele>102.6</ele>
        <time>2021-01-24T10:33:32.000Z</time>
      </trkpt>
      <trkpt lat="46.53358" lon="0.32414">
        <ele>102.2</ele>
        <time>2021-01-24T10:33:33.000Z</time>
      </trkpt>
      <trkpt lat="46.53358" lon="0.32414">
        <ele>102</ele>
        <time>2021-01-24T10:33:34.000Z</time>
      </trkpt>
      <trkpt lat="46.53358" lon="0.32415">
        <ele>101.6</ele>
        <time>2021-01-24T10:33:35.000Z</time>
      </trkpt>
      <trkpt lat="46.53358" lon="0.32415">
        <ele>101.4</ele>
        <time>2021-01-24T10:33:36.000Z</time>
      </trkpt>
      <trkpt lat="46.53358" lon="0.32415">
        <ele>101</ele>
        <time>2021-01-24T10:33:37.000Z</time>
      </trkpt>
      <trkpt lat="46.53358" lon="0.32415">
        <ele>100.8</ele>
        <time>2021-01-24T10:33:38.000Z</time>
      </trkpt>
      <trkpt lat="46.53358" lon="0.32415">
        <ele>100.4</ele>
        <time>2021-01-24T10:33:39.000Z</time>
      </trkpt>
      <trkpt lat="46.53358" lon="0.32415">
        <ele>100.2</ele>
        <time>2021-01-24T10:33:40.000Z</time>
      </trkpt>
      <trkpt lat="46.53358" lon="0.32415">
        <ele>100</ele>
        <time>2021-01-24T10:33:41.000Z</time>
      </trkpt>
      <trkpt lat="46.53358" lon="0.32415">
        <ele>99.6</ele>
        <time>2021-01-24T10:33:42.000Z</time>
      </trkpt>
      <trkpt lat="46.53358" lon="0.32415">
        <ele>99.4</ele>
        <time>2021-01-24T10:33:43.000Z</time>
      </trkpt>
      <trkpt lat="46.53358" lon="0.32415">
        <ele>99.2</ele>
        <time>2021-01-24T10:33:44.000Z</time>
      </trkpt>
      <trkpt lat="46.53358" lon="0.32415">
        <ele>99</ele>
        <time>2021-01-24T10:33:45.000Z</time>
      </trkpt>
      <trkpt lat="46.53359" lon="0.32415">
        <ele>98.6</ele>
        <time>2021-01-24T10:33:46.000Z</time>
      </trkpt>
      <trkpt lat="46.53359" lon="0.32415">
        <ele>98.4</ele>
        <time>2021-01-24T10:33:47.000Z</time>
      </trkpt>
      <trkpt lat="46.53359" lon="0.32415">
        <ele>98.2</ele>
        <time>2021-01-24T10:33:48.000Z</time>
      </trkpt>
      <trkpt lat="46.53359" lon="0.32415">
        <ele>98</ele>
        <time>2021-01-24T10:33:49.000Z</time>
      </trkpt>
      <trkpt lat="46.53359" lon="0.32415">
        <ele>97.8</ele>
        <time>2021-01-24T10:33:50.000Z</time>
      </trkpt>
      <trkpt lat="46.53359" lon="0.32415">
        <ele>97.6</ele>
        <time>2021-01-24T10:33:51.000Z</time>
      </trkpt>
      <trkpt lat="46.53359" lon="0.32415">
        <ele>97.4</ele>
        <time>2021-01-24T10:33:52.000Z</time>
      </trkpt>
      <trkpt lat="46.53359" lon="0.32415">
        <ele>97.2</ele>
        <time>2021-01-24T10:33:53.000Z</time>
      </trkpt>
      <trkpt lat="46.53359" lon="0.32415">
        <ele>96.8</ele>
        <time>2021-01-24T10:33:54.000Z</time>
      </trkpt>
      <trkpt lat="46.53359" lon="0.32415">
        <ele>96.6</ele>
        <time>2021-01-24T10:33:55.000Z</time>
      </trkpt>
      <trkpt lat="46.53359" lon="0.32415">
        <ele>96.4</ele>
        <time>2021-01-24T10:33:56.000Z</time>
      </trkpt>
      <trkpt lat="46.53359" lon="0.32415">
        <ele>96.2</ele>
        <time>2021-01-24T10:33:57.000Z</time>
      </trkpt>
      <trkpt lat="46.53359" lon="0.32415">
        <ele>96</ele>
        <time>2021-01-24T10:33:58.000Z</time>
      </trkpt>
      <trkpt lat="46.53359" lon="0.32415">
        <ele>95.8</ele>
        <time>2021-01-24T10:33:59.000Z</time>
      </trkpt>
      <trkpt lat="46.53359" lon="0.32415">
        <ele>95.8</ele>
        <time>2021-01-24T10:34:00.000Z</time>
      </trkpt>
      <trkpt lat="46.53359" lon="0.32415">
        <ele>95.6</ele>
        <time>2021-01-24T10:34:01.000Z</time>
      </trkpt>
      <trkpt lat="46.53359" lon="0.32415">
        <ele>95.4</ele>
        <time>2021-01-24T10:34:02.000Z</time>
      </trkpt>
      <trkpt lat="46.53359" lon="0.32415">
        <ele>95.2</ele>
        <time>2021-01-24T10:34:03.000Z</time>
      </trkpt>
      <trkpt lat="46.53359" lon="0.32415">
        <ele>95</ele>
        <time>2021-01-24T10:34:04.000Z</time>
      </trkpt>
      <trkpt lat="46.5336" lon="0.32415">
        <ele>94.8</ele>
        <time>2021-01-24T10:34:05.000Z</time>
      </trkpt>
      <trkpt lat="46.5336" lon="0.32416">
        <ele>94.6</ele>
        <time>2021-01-24T10:34:06.000Z</time>
      </trkpt>
      <trkpt lat="46.5336" lon="0.32416">
        <ele>94.4</ele>
        <time>2021-01-24T10:34:07.000Z</time>
      </trkpt>
      <trkpt lat="46.5336" lon="0.32416">
        <ele>94.4</ele>
        <time>2021-01-24T10:34:08.000Z</time>
      </trkpt>
      <trkpt lat="46.5336" lon="0.32416">
        <ele>94.2</ele>
        <time>2021-01-24T10:34:09.000Z</time>
      </trkpt>
      <trkpt lat="46.5336" lon="0.32416">
        <ele>94</ele>
        <time>2021-01-24T10:34:10.000Z</time>
      </trkpt>
      <trkpt lat="46.5336" lon="0.32416">
        <ele>93.8</ele>
        <time>2021-01-24T10:34:11.000Z</time>
      </trkpt>
      <trkpt lat="46.5336" lon="0.32416">
        <ele>93.8</ele>
        <time>2021-01-24T10:34:12.000Z</time>
      </trkpt>
      <trkpt lat="46.5336" lon="0.32416">
        <ele>93.6</ele>
        <time>2021-01-24T10:34:13.000Z</time>
      </trkpt>
      <trkpt lat="46.5336" lon="0.32416">
        <ele>93.4</ele>
        <time>2021-01-24T10:34:14.000Z</time>
      </trkpt>
      <trkpt lat="46.5336" lon="0.32416">
        <ele>93.4</ele>
        <time>2021-01-24T10:34:15.000Z</time>
      </trkpt>
      <trkpt lat="46.5336" lon="0.32416">
        <ele>93.2</ele>
        <time>2021-01-24T10:34:16.000Z</time>
      </trkpt>
      <trkpt lat="46.5336" lon="0.32416">
        <ele>93</ele>
        <time>2021-01-24T10:34:17.000Z</time>
      </trkpt>
      <trkpt lat="46.5336" lon="0.32416">
        <ele>93</ele>
        <time>2021-01-24T10:34:18.000Z</time>
      </trkpt>
      <trkpt lat="46.5336" lon="0.32416">
        <ele>92.8</ele>
        <time>2021-01-24T10:34:19.000Z</time>
      </trkpt>
      <trkpt lat="46.5336" lon="0.32416">
        <ele>92.6</ele>
        <time>2021-01-24T10:34:20.000Z</time>
      </trkpt>
      <trkpt lat="46.5336" lon="0.32416">
        <ele>92.6</ele>
        <time>2021-01-24T10:34:21.000Z</time>
      </trkpt>
      <trkpt lat="46.5336" lon="0.32416">
        <ele>92.4</ele>
        <time>2021-01-24T10:34:22.000Z</time>
      </trkpt>
      <trkpt lat="46.53361" lon="0.32416">
        <ele>92.4</ele>
        <time>2021-01-24T10:34:23.000Z</time>
      </trkpt>
      <trkpt lat="46.53361" lon="0.32416">
        <ele>92.2</ele>
        <time>2021-01-24T10:34:24.000Z</time>
      </trkpt>
      <trkpt lat="46.53361" lon="0.32416">
        <ele>92.2</ele>
        <time>2021-01-24T10:34:25.000Z</time>
      </trkpt>
      <trkpt lat="46.53361" lon="0.32416">
        <ele>92</ele>
        <time>2021-01-24T10:34:26.000Z</time>
      </trkpt>
      <trkpt lat="46.53361" lon="0.32416">
        <ele>91.8</ele>
        <time>2021-01-24T10:34:27.000Z</time>
      </trkpt>
      <trkpt lat="46.53361" lon="0.32416">
        <ele>91.8</ele>
        <time>2021-01-24T10:34:28.000Z</time>
      </trkpt>
      <trkpt lat="46.53361" lon="0.32416">
        <ele>91.6</ele>
        <time>2021-01-24T10:34:29.000Z</time>
      </trkpt>
      <trkpt lat="46.53361" lon="0.32416">
        <ele>91.6</ele>
        <time>2021-01-24T10:34:30.000Z</time>
      </trkpt>
      <trkpt lat="46.53361" lon="0.32416">
        <ele>91.4</ele>
        <time>2021-01-24T10:34:31.000Z</time>
      </trkpt>
      <trkpt lat="46.53361" lon="0.32416">
        <ele>91.4</ele>
        <time>2021-01-24T10:34:32.000Z</time>
      </trkpt>
      <trkpt lat="46.53361" lon="0.32416">
        <ele>91.2</ele>
        <time>2021-01-24T10:34:33.000Z</time>
      </trkpt>
      <trkpt lat="46.53361" lon="0.32416">
        <ele>91.2</ele>
        <time>2021-01-24T10:34:34.000Z</time>
      </trkpt>
      <trkpt lat="46.53361" lon="0.32416">
        <ele>91</ele>
        <time>2021-01-24T10:34:35.000Z</time>
      </trkpt>
      <trkpt lat="46.53361" lon="0.32416">
        <ele>91</ele>
        <time>2021-01-24T10:34:36.000Z</time>
      </trkpt>
      <trkpt lat="46.53361" lon="0.32417">
        <ele>91</ele>
        <time>2021-01-24T10:34:37.000Z</time>
      </trkpt>
      <trkpt lat="46.53361" lon="0.32417">
        <ele>90.8</ele>
        <time>2021-01-24T10:34:38.000Z</time>
      </trkpt>
      <trkpt lat="46.53361" lon="0.32417">
        <ele>90.8</ele>
        <time>2021-01-24T10:34:39.000Z</time>
      </trkpt>
      <trkpt lat="46.53361" lon="0.32417">
        <ele>90.6</ele>
        <time>2021-01-24T10:34:40.000Z</time>
      </trkpt>
      <trkpt lat="46.53362" lon="0.32417">
        <ele>90.6</ele>
        <time>2021-01-24T10:34:41.000Z</time>
      </trkpt>
      <trkpt lat="46.53362" lon="0.32417">
        <ele>90.4</ele>
        <time>2021-01-24T10:34:42.000Z</time>
      </trkpt>
      <trkpt lat="46.53362" lon="0.32417">
        <ele>90.4</ele>
        <time>2021-01-24T10:34:43.000Z</time>
      </trkpt>
      <trkpt lat="46.53362" lon="0.32417">
        <ele>90.4</ele>
        <time>2021-01-24T10:34:44.000Z</time>
      </trkpt>
      <trkpt lat="46.53362" lon="0.32417">
        <ele>90.2</ele>
        <time>2021-01-24T10:34:45.000Z</time>
      </trkpt>
      <trkpt lat="46.53362" lon="0.32417">
        <ele>90.2</ele>
        <time>2021-01-24T10:34:46.000Z</time>
      </trkpt>
      <trkpt lat="46.53362" lon="0.32417">
        <ele>90.2</ele>
        <time>2021-01-24T10:34:47.000Z</time>
      </trkpt>
      <trkpt lat="46.53362" lon="0.32417">
        <ele>90</ele>
        <time>2021-01-24T10:34:48.000Z</time>
      </trkpt>
      <trkpt lat="46.53362" lon="0.32417">
        <ele>90</ele>
        <time>2021-01-24T10:34:49.000Z</time>
      </trkpt>
      <trkpt lat="46.53362" lon="0.32417">
        <ele>90</ele>
        <time>2021-01-24T10:34:50.000Z</time>
      </trkpt>
      <trkpt lat="46.53362" lon="0.32417">
        <ele>89.8</ele>
        <time>2021-01-24T10:34:51.000Z</time>
      </trkpt>
      <trkpt lat="46.53362" lon="0.32417">
        <ele>89.8</ele>
        <time>2021-01-24T10:34:52.000Z</time>
      </trkpt>
      <trkpt lat="46.53362" lon="0.32417">
        <ele>89.8</ele>
        <time>2021-01-24T10:34:53.000Z</time>
      </trkpt>
      <trkpt lat="46.53362" lon="0.32417">
        <ele>89.8</ele>
        <time>2021-01-24T10:34:54.000Z</time>
      </trkpt>
      <trkpt lat="46.53365" lon="0.32419">
        <ele>89.6</ele>
        <time>2021-01-24T10:34:55.000Z</time>
      </trkpt>
      <trkpt lat="46.53368" lon="0.32421">
        <ele>89.6</ele>
        <time>2021-01-24T10:34:56.000Z</time>
      </trkpt>
      <trkpt lat="46.53371" lon="0.32424">
        <ele>89.6</ele>
        <time>2021-01-24T10:34:57.000Z</time>
      </trkpt>
      <trkpt lat="46.53374" lon="0.32426">
        <ele>89.4</ele>
        <time>2021-01-24T10:34:58.000Z</time>
      </trkpt>
      <trkpt lat="46.53377" lon="0.32428">
        <ele>89.4</ele>
        <time>2021-01-24T10:34:59.000Z</time>
      </trkpt>
      <trkpt lat="46.53381" lon="0.3243">
        <ele>89.4</ele>
        <time>2021-01-24T10:35:00.000Z</time>
      </trkpt>
      <trkpt lat="46.53384" lon="0.32433">
        <ele>89.4</ele>
        <time>2021-01-24T10:35:01.000Z</time>
      </trkpt>
      <trkpt lat="46.53388" lon="0.32435">
        <ele>89.4</ele>
        <time>2021-01-24T10:35:02.000Z</time>
      </trkpt>
      <trkpt lat="46.53391" lon="0.32437">
        <ele>89.4</ele>
        <time>2021-01-24T10:35:03.000Z</time>
      </trkpt>
      <trkpt lat="46.53395" lon="0.3244">
        <ele>89.4</ele>
        <time>2021-01-24T10:35:04.000Z</time>
      </trkpt>
      <trkpt lat="46.53398" lon="0.32442">
        <ele>89.4</ele>
        <time>2021-01-24T10:35:05.000Z</time>
      </trkpt>
      <trkpt lat="46.53401" lon="0.32444">
        <ele>89.4</ele>
        <time>2021-01-24T10:35:06.000Z</time>
      </trkpt>
      <trkpt lat="46.53405" lon="0.32445">
        <ele>89.4</ele>
        <time>2021-01-24T10:35:07.000Z</time>
      </trkpt>
      <trkpt lat="46.53408" lon="0.32446">
        <ele>89.4</ele>
        <time>2021-01-24T10:35:08.000Z</time>
      </trkpt>
      <trkpt lat="46.53411" lon="0.32446">
        <ele>89.2</ele>
        <time>2021-01-24T10:35:09.000Z</time>
      </trkpt>
      <trkpt lat="46.53414" lon="0.32447">
        <ele>89.2</ele>
        <time>2021-01-24T10:35:10.000Z</time>
      </trkpt>
      <trkpt lat="46.53418" lon="0.32448">
        <ele>89.2</ele>
        <time>2021-01-24T10:35:11.000Z</time>
      </trkpt>
      <trkpt lat="46.53421" lon="0.32449">
        <ele>89.2</ele>
        <time>2021-01-24T10:35:12.000Z</time>
      </trkpt>
      <trkpt lat="46.53423" lon="0.32449">
        <ele>89</ele>
        <time>2021-01-24T10:35:13.000Z</time>
      </trkpt>
      <trkpt lat="46.53428" lon="0.32449">
        <ele>89</ele>
        <time>2021-01-24T10:35:14.000Z</time>
      </trkpt>
      <trkpt lat="46.53431" lon="0.32449">
        <ele>88.8</ele>
        <time>2021-01-24T10:35:15.000Z</time>
      </trkpt>
      <trkpt lat="46.53434" lon="0.32449">
        <ele>88.8</ele>
        <time>2021-01-24T10:35:16.000Z</time>
      </trkpt>
      <trkpt lat="46.53438" lon="0.32448">
        <ele>88.8</ele>
        <time>2021-01-24T10:35:17.000Z</time>
      </trkpt>
      <trkpt lat="46.53441" lon="0.32447">
        <ele>88.6</ele>
        <time>2021-01-24T10:35:18.000Z</time>
      </trkpt>
      <trkpt lat="46.53445" lon="0.32445">
        <ele>88.6</ele>
        <time>2021-01-24T10:35:19.000Z</time>
      </trkpt>
      <trkpt lat="46.53449" lon="0.32444">
        <ele>88.6</ele>
        <time>2021-01-24T10:35:20.000Z</time>
      </trkpt>
      <trkpt lat="46.53452" lon="0.32441">
        <ele>88.6</ele>
        <time>2021-01-24T10:35:21.000Z</time>
      </trkpt>
      <trkpt lat="46.53456" lon="0.32439">
        <ele>88.6</ele>
        <time>2021-01-24T10:35:22.000Z</time>
      </trkpt>
      <trkpt lat="46.5346" lon="0.32437">
        <ele>88.8</ele>
        <time>2021-01-24T10:35:23.000Z</time>
      </trkpt>
      <trkpt lat="46.53463" lon="0.32435">
        <ele>88.8</ele>
        <time>2021-01-24T10:35:24.000Z</time>
      </trkpt>
      <trkpt lat="46.53467" lon="0.32433">
        <ele>88.8</ele>
        <time>2021-01-24T10:35:25.000Z</time>
      </trkpt>
      <trkpt lat="46.5347" lon="0.32431">
        <ele>88.8</ele>
        <time>2021-01-24T10:35:26.000Z</time>
      </trkpt>
      <trkpt lat="46.53473" lon="0.32429">
        <ele>88.8</ele>
        <time>2021-01-24T10:35:27.000Z</time>
      </trkpt>
      <trkpt lat="46.53477" lon="0.32426">
        <ele>88.8</ele>
        <time>2021-01-24T10:35:28.000Z</time>
      </trkpt>
      <trkpt lat="46.53482" lon="0.32423">
        <ele>89</ele>
        <time>2021-01-24T10:35:29.000Z</time>
      </trkpt>
      <trkpt lat="46.53486" lon="0.32421">
        <ele>89</ele>
        <time>2021-01-24T10:35:30.000Z</time>
      </trkpt>
      <trkpt lat="46.5349" lon="0.32418">
        <ele>89</ele>
        <time>2021-01-24T10:35:31.000Z</time>
      </trkpt>
      <trkpt lat="46.53494" lon="0.32415">
        <ele>89.2</ele>
        <time>2021-01-24T10:35:32.000Z</time>
      </trkpt>
      <trkpt lat="46.53498" lon="0.32412">
        <ele>89.2</ele>
        <time>2021-01-24T10:35:33.000Z</time>
      </trkpt>
      <trkpt lat="46.53501" lon="0.3241">
        <ele>89.2</ele>
        <time>2021-01-24T10:35:34.000Z</time>
      </trkpt>
      <trkpt lat="46.53505" lon="0.32407">
        <ele>89.4</ele>
        <time>2021-01-24T10:35:35.000Z</time>
      </trkpt>
      <trkpt lat="46.53509" lon="0.32404">
        <ele>89.4</ele>
        <time>2021-01-24T10:35:36.000Z</time>
      </trkpt>
      <trkpt lat="46.53512" lon="0.32403">
        <ele>89.4</ele>
        <time>2021-01-24T10:35:37.000Z</time>
      </trkpt>
      <trkpt lat="46.53516" lon="0.32401">
        <ele>89.6</ele>
        <time>2021-01-24T10:35:38.000Z</time>
      </trkpt>
      <trkpt lat="46.5352" lon="0.324">
        <ele>89.6</ele>
        <time>2021-01-24T10:35:39.000Z</time>
      </trkpt>
      <trkpt lat="46.53525" lon="0.32398">
        <ele>89.8</ele>
        <time>2021-01-24T10:35:40.000Z</time>
      </trkpt>
      <trkpt lat="46.53529" lon="0.32396">
        <ele>89.8</ele>
        <time>2021-01-24T10:35:41.000Z</time>
      </trkpt>
      <trkpt lat="46.53533" lon="0.32394">
        <ele>89.8</ele>
        <time>2021-01-24T10:35:42.000Z</time>
      </trkpt>
      <trkpt lat="46.53537" lon="0.32393">
        <ele>90</ele>
        <time>2021-01-24T10:35:43.000Z</time>
      </trkpt>
      <trkpt lat="46.5354" lon="0.32392">
        <ele>90</ele>
        <time>2021-01-24T10:35:44.000Z</time>
      </trkpt>
      <trkpt lat="46.53544" lon="0.32391">
        <ele>90</ele>
        <time>2021-01-24T10:35:45.000Z</time>
      </trkpt>
      <trkpt lat="46.53548" lon="0.3239">
        <ele>90</ele>
        <time>2021-01-24T10:35:46.000Z</time>
      </trkpt>
      <trkpt lat="46.53551" lon="0.32389">
        <ele>90</ele>
        <time>2021-01-24T10:35:47.000Z</time>
      </trkpt>
      <trkpt lat="46.53554" lon="0.32389">
        <ele>90.2</ele>
        <time>2021-01-24T10:35:48.000Z</time>
      </trkpt>
      <trkpt lat="46.53558" lon="0.32388">
        <ele>90.2</ele>
        <time>2021-01-24T10:35:49.000Z</time>
      </trkpt>
      <trkpt lat="46.53561" lon="0.32387">
        <ele>90.2</ele>
        <time>2021-01-24T10:35:50.000Z</time>
      </trkpt>
      <trkpt lat="46.53564" lon="0.32387">
        <ele>90.2</ele>
        <time>2021-01-24T10:35:51.000Z</time>
      </trkpt>
      <trkpt lat="46.53568" lon="0.32386">
        <ele>90.4</ele>
        <time>2021-01-24T10:35:52.000Z</time>
      </trkpt>
      <trkpt lat="46.53571" lon="0.32386">
        <ele>90.4</ele>
        <time>2021-01-24T10:35:53.000Z</time>
      </trkpt>
      <trkpt lat="46.53575" lon="0.32386">
        <ele>90.4</ele>
        <time>2021-01-24T10:35:54.000Z</time>
      </trkpt>
      <trkpt lat="46.53578" lon="0.32386">
        <ele>90.6</ele>
        <time>2021-01-24T10:35:55.000Z</time>
      </trkpt>
      <trkpt lat="46.53582" lon="0.32386">
        <ele>90.6</ele>
        <time>2021-01-24T10:35:56.000Z</time>
      </trkpt>
      <trkpt lat="46.53585" lon="0.32386">
        <ele>90.8</ele>
        <time>2021-01-24T10:35:57.000Z</time>
      </trkpt>
      <trkpt lat="46.53589" lon="0.32386">
        <ele>90.8</ele>
        <time>2021-01-24T10:35:58.000Z</time>
      </trkpt>
      <trkpt lat="46.53592" lon="0.32386">
        <ele>91</ele>
        <time>2021-01-24T10:35:59.000Z</time>
      </trkpt>
      <trkpt lat="46.53596" lon="0.32386">
        <ele>91</ele>
        <time>2021-01-24T10:36:00.000Z</time>
      </trkpt>
      <trkpt lat="46.53599" lon="0.32386">
        <ele>91</ele>
        <time>2021-01-24T10:36:01.000Z</time>
      </trkpt>
      <trkpt lat="46.53602" lon="0.32386">
        <ele>91.2</ele>
        <time>2021-01-24T10:36:02.000Z</time>
      </trkpt>
      <trkpt lat="46.53605" lon="0.32386">
        <ele>91.2</ele>
        <time>2021-01-24T10:36:03.000Z</time>
      </trkpt>
      <trkpt lat="46.53609" lon="0.32386">
        <ele>91.4</ele>
        <time>2021-01-24T10:36:04.000Z</time>
      </trkpt>
      <trkpt lat="46.53612" lon="0.32386">
        <ele>91.6</ele>
        <time>2021-01-24T10:36:05.000Z</time>
      </trkpt>
      <trkpt lat="46.53614" lon="0.32386">
        <ele>91.8</ele>
        <time>2021-01-24T10:36:06.000Z</time>
      </trkpt>
      <trkpt lat="46.53618" lon="0.32386">
        <ele>92</ele>
        <time>2021-01-24T10:36:07.000Z</time>
      </trkpt>
      <trkpt lat="46.53622" lon="0.32386">
        <ele>92.4</ele>
        <time>2021-01-24T10:36:08.000Z</time>
      </trkpt>
      <trkpt lat="46.53625" lon="0.32386">
        <ele>92.6</ele>
        <time>2021-01-24T10:36:09.000Z</time>
      </trkpt>
      <trkpt lat="46.53629" lon="0.32387">
        <ele>92.8</ele>
        <time>2021-01-24T10:36:10.000Z</time>
      </trkpt>
      <trkpt lat="46.53632" lon="0.32387">
        <ele>93</ele>
        <time>2021-01-24T10:36:11.000Z</time>
      </trkpt>
      <trkpt lat="46.53635" lon="0.32388">
        <ele>93.2</ele>
        <time>2021-01-24T10:36:12.000Z</time>
      </trkpt>
      <trkpt lat="46.53638" lon="0.32388">
        <ele>93.2</ele>
        <time>2021-01-24T10:36:13.000Z</time>
      </trkpt>
      <trkpt lat="46.53641" lon="0.32388">
        <ele>93.4</ele>
        <time>2021-01-24T10:36:14.000Z</time>
      </trkpt>
      <trkpt lat="46.53643" lon="0.32388">
        <ele>93.4</ele>
        <time>2021-01-24T10:36:15.000Z</time>
      </trkpt>
      <trkpt lat="46.53646" lon="0.32389">
        <ele>93.6</ele>
        <time>2021-01-24T10:36:16.000Z</time>
      </trkpt>
      <trkpt lat="46.53648" lon="0.3239">
        <ele>93.6</ele>
        <time>2021-01-24T10:36:17.000Z</time>
      </trkpt>
      <trkpt lat="46.53651" lon="0.32391">
        <ele>93.8</ele>
        <time>2021-01-24T10:36:18.000Z</time>
      </trkpt>
      <trkpt lat="46.53653" lon="0.32392">
        <ele>93.8</ele>
        <time>2021-01-24T10:36:19.000Z</time>
      </trkpt>
      <trkpt lat="46.53653" lon="0.32392">
        <ele>93.8</ele>
        <time>2021-01-24T10:36:20.000Z</time>
      </trkpt>
      <trkpt lat="46.53653" lon="0.32392">
        <ele>93.8</ele>
        <time>2021-01-24T10:36:21.000Z</time>
      </trkpt>
      <trkpt lat="46.53653" lon="0.32392">
        <ele>93.8</ele>
        <time>2021-01-24T10:36:22.000Z</time>
      </trkpt>
      <trkpt lat="46.53653" lon="0.32392">
        <ele>93.8</ele>
        <time>2021-01-24T10:36:23.000Z</time>
      </trkpt>
      <trkpt lat="46.53655" lon="0.32391">
        <ele>93.8</ele>
        <time>2021-01-24T10:36:24.000Z</time>
      </trkpt>
      <trkpt lat="46.53655" lon="0.32391">
        <ele>93.8</ele>
        <time>2021-01-24T10:36:25.000Z</time>
      </trkpt>
      <trkpt lat="46.53657" lon="0.32391">
        <ele>93.8</ele>
        <time>2021-01-24T10:36:26.000Z</time>
      </trkpt>
      <trkpt lat="46.53657" lon="0.32391">
        <ele>94</ele>
        <time>2021-01-24T10:36:27.000Z</time>
      </trkpt>
      <trkpt lat="46.5366" lon="0.32391">
        <ele>94</ele>
        <time>2021-01-24T10:36:28.000Z</time>
      </trkpt>
      <trkpt lat="46.53662" lon="0.32392">
        <ele>94.2</ele>
        <time>2021-01-24T10:36:29.000Z</time>
      </trkpt>
      <trkpt lat="46.53664" lon="0.32393">
        <ele>94.4</ele>
        <time>2021-01-24T10:36:30.000Z</time>
      </trkpt>
      <trkpt lat="46.53667" lon="0.32394">
        <ele>94.6</ele>
        <time>2021-01-24T10:36:31.000Z</time>
      </trkpt>
      <trkpt lat="46.5367" lon="0.32395">
        <ele>94.6</ele>
        <time>2021-01-24T10:36:32.000Z</time>
      </trkpt>
      <trkpt lat="46.53673" lon="0.32395">
        <ele>94.6</ele>
        <time>2021-01-24T10:36:33.000Z</time>
      </trkpt>
      <trkpt lat="46.53676" lon="0.32396">
        <ele>94.8</ele>
        <time>2021-01-24T10:36:34.000Z</time>
      </trkpt>
      <trkpt lat="46.53678" lon="0.32396">
        <ele>95</ele>
        <time>2021-01-24T10:36:35.000Z</time>
      </trkpt>
      <trkpt lat="46.53681" lon="0.32397">
        <ele>95.2</ele>
        <time>2021-01-24T10:36:36.000Z</time>
      </trkpt>
      <trkpt lat="46.53684" lon="0.32398">
        <ele>95.4</ele>
        <time>2021-01-24T10:36:37.000Z</time>
      </trkpt>
      <trkpt lat="46.53686" lon="0.32399">
        <ele>95.6</ele>
        <time>2021-01-24T10:36:38.000Z</time>
      </trkpt>
      <trkpt lat="46.53688" lon="0.32399">
        <ele>95.6</ele>
        <time>2021-01-24T10:36:39.000Z</time>
      </trkpt>
      <trkpt lat="46.53691" lon="0.32399">
        <ele>95.8</ele>
        <time>2021-01-24T10:36:40.000Z</time>
      </trkpt>
      <trkpt lat="46.53694" lon="0.324">
        <ele>96</ele>
        <time>2021-01-24T10:36:41.000Z</time>
      </trkpt>
      <trkpt lat="46.53697" lon="0.324">
        <ele>96.2</ele>
        <time>2021-01-24T10:36:42.000Z</time>
      </trkpt>
      <trkpt lat="46.53699" lon="0.32401">
        <ele>96.2</ele>
        <time>2021-01-24T10:36:43.000Z</time>
      </trkpt>
      <trkpt lat="46.53701" lon="0.32401">
        <ele>96.4</ele>
        <time>2021-01-24T10:36:44.000Z</time>
      </trkpt>
      <trkpt lat="46.53704" lon="0.32402">
        <ele>96.6</ele>
        <time>2021-01-24T10:36:45.000Z</time>
      </trkpt>
      <trkpt lat="46.53706" lon="0.32402">
        <ele>96.6</ele>
        <time>2021-01-24T10:36:46.000Z</time>
      </trkpt>
      <trkpt lat="46.53708" lon="0.32402">
        <ele>96.8</ele>
        <time>2021-01-24T10:36:47.000Z</time>
      </trkpt>
      <trkpt lat="46.53711" lon="0.32402">
        <ele>97</ele>
        <time>2021-01-24T10:36:48.000Z</time>
      </trkpt>
      <trkpt lat="46.53714" lon="0.32403">
        <ele>97.2</ele>
        <time>2021-01-24T10:36:49.000Z</time>
      </trkpt>
      <trkpt lat="46.53716" lon="0.32404">
        <ele>97.4</ele>
        <time>2021-01-24T10:36:50.000Z</time>
      </trkpt>
      <trkpt lat="46.53719" lon="0.32405">
        <ele>97.6</ele>
        <time>2021-01-24T10:36:51.000Z</time>
      </trkpt>
      <trkpt lat="46.53721" lon="0.32405">
        <ele>98</ele>
        <time>2021-01-24T10:36:52.000Z</time>
      </trkpt>
      <trkpt lat="46.53723" lon="0.32405">
        <ele>98.2</ele>
        <time>2021-01-24T10:36:53.000Z</time>
      </trkpt>
      <trkpt lat="46.53726" lon="0.32406">
        <ele>98.6</ele>
        <time>2021-01-24T10:36:54.000Z</time>
      </trkpt>
      <trkpt lat="46.53729" lon="0.32406">
        <ele>99</ele>
        <time>2021-01-24T10:36:55.000Z</time>
      </trkpt>
      <trkpt lat="46.53731" lon="0.32407">
        <ele>99.2</ele>
        <time>2021-01-24T10:36:56.000Z</time>
      </trkpt>
      <trkpt lat="46.53734" lon="0.32407">
        <ele>99.4</ele>
        <time>2021-01-24T10:36:57.000Z</time>
      </trkpt>
      <trkpt lat="46.53737" lon="0.32408">
        <ele>99.6</ele>
        <time>2021-01-24T10:36:58.000Z</time>
      </trkpt>
      <trkpt lat="46.53739" lon="0.32408">
        <ele>99.8</ele>
        <time>2021-01-24T10:36:59.000Z</time>
      </trkpt>
      <trkpt lat="46.53741" lon="0.32408">
        <ele>100</ele>
        <time>2021-01-24T10:37:00.000Z</time>
      </trkpt>
      <trkpt lat="46.53744" lon="0.32408">
        <ele>100.2</ele>
        <time>2021-01-24T10:37:01.000Z</time>
      </trkpt>
      <trkpt lat="46.53746" lon="0.32408">
        <ele>100.2</ele>
        <time>2021-01-24T10:37:02.000Z</time>
      </trkpt>
      <trkpt lat="46.53749" lon="0.32409">
        <ele>100.4</ele>
        <time>2021-01-24T10:37:03.000Z</time>
      </trkpt>
      <trkpt lat="46.53751" lon="0.32409">
        <ele>100.4</ele>
        <time>2021-01-24T10:37:04.000Z</time>
      </trkpt>
      <trkpt lat="46.53753" lon="0.32409">
        <ele>100.8</ele>
        <time>2021-01-24T10:37:05.000Z</time>
      </trkpt>
      <trkpt lat="46.53756" lon="0.32409">
        <ele>101</ele>
        <time>2021-01-24T10:37:06.000Z</time>
      </trkpt>
      <trkpt lat="46.53758" lon="0.32409">
        <ele>101.2</ele>
        <time>2021-01-24T10:37:07.000Z</time>
      </trkpt>
      <trkpt lat="46.53761" lon="0.3241">
        <ele>101.6</ele>
        <time>2021-01-24T10:37:08.000Z</time>
      </trkpt>
      <trkpt lat="46.53764" lon="0.3241">
        <ele>101.8</ele>
        <time>2021-01-24T10:37:09.000Z</time>
      </trkpt>
      <trkpt lat="46.53765" lon="0.32411">
        <ele>102</ele>
        <time>2021-01-24T10:37:10.000Z</time>
      </trkpt>
      <trkpt lat="46.53768" lon="0.32411">
        <ele>102.4</ele>
        <time>2021-01-24T10:37:11.000Z</time>
      </trkpt>
      <trkpt lat="46.5377" lon="0.32411">
        <ele>102.6</ele>
        <time>2021-01-24T10:37:12.000Z</time>
      </trkpt>
      <trkpt lat="46.53773" lon="0.3241">
        <ele>102.8</ele>
        <time>2021-01-24T10:37:13.000Z</time>
      </trkpt>
      <trkpt lat="46.53775" lon="0.3241">
        <ele>103.2</ele>
        <time>2021-01-24T10:37:14.000Z</time>
      </trkpt>
      <trkpt lat="46.53778" lon="0.32411">
        <ele>103.4</ele>
        <time>2021-01-24T10:37:15.000Z</time>
      </trkpt>
      <trkpt lat="46.53781" lon="0.32411">
        <ele>103.6</ele>
        <time>2021-01-24T10:37:16.000Z</time>
      </trkpt>
      <trkpt lat="46.53783" lon="0.3241">
        <ele>103.8</ele>
        <time>2021-01-24T10:37:17.000Z</time>
      </trkpt>
      <trkpt lat="46.53786" lon="0.3241">
        <ele>104</ele>
        <time>2021-01-24T10:37:18.000Z</time>
      </trkpt>
      <trkpt lat="46.53788" lon="0.3241">
        <ele>104.2</ele>
        <time>2021-01-24T10:37:19.000Z</time>
      </trkpt>
      <trkpt lat="46.5379" lon="0.32409">
        <ele>104.4</ele>
        <time>2021-01-24T10:37:20.000Z</time>
      </trkpt>
      <trkpt lat="46.53793" lon="0.32408">
        <ele>104.6</ele>
        <time>2021-01-24T10:37:21.000Z</time>
      </trkpt>
      <trkpt lat="46.53795" lon="0.32408">
        <ele>105</ele>
        <time>2021-01-24T10:37:22.000Z</time>
      </trkpt>
      <trkpt lat="46.53797" lon="0.32407">
        <ele>105.2</ele>
        <time>2021-01-24T10:37:23.000Z</time>
      </trkpt>
      <trkpt lat="46.538" lon="0.32407">
        <ele>105.4</ele>
        <time>2021-01-24T10:37:24.000Z</time>
      </trkpt>
      <trkpt lat="46.53803" lon="0.32407">
        <ele>105.6</ele>
        <time>2021-01-24T10:37:25.000Z</time>
      </trkpt>
      <trkpt lat="46.53806" lon="0.32406">
        <ele>105.6</ele>
        <time>2021-01-24T10:37:26.000Z</time>
      </trkpt>
      <trkpt lat="46.53808" lon="0.32405">
        <ele>105.8</ele>
        <time>2021-01-24T10:37:27.000Z</time>
      </trkpt>
      <trkpt lat="46.53811" lon="0.32404">
        <ele>106</ele>
        <time>2021-01-24T10:37:28.000Z</time>
      </trkpt>
      <trkpt lat="46.53813" lon="0.32404">
        <ele>106.2</ele>
        <time>2021-01-24T10:37:29.000Z</time>
      </trkpt>
      <trkpt lat="46.53813" lon="0.32404">
        <ele>106.4</ele>
        <time>2021-01-24T10:37:30.000Z</time>
      </trkpt>
      <trkpt lat="46.53819" lon="0.32402">
        <ele>106.4</ele>
        <time>2021-01-24T10:37:31.000Z</time>
      </trkpt>
      <trkpt lat="46.5382" lon="0.32401">
        <ele>106.6</ele>
        <time>2021-01-24T10:37:32.000Z</time>
      </trkpt>
      <trkpt lat="46.53823" lon="0.324">
        <ele>106.6</ele>
        <time>2021-01-24T10:37:33.000Z</time>
      </trkpt>
      <trkpt lat="46.53825" lon="0.32399">
        <ele>106.8</ele>
        <time>2021-01-24T10:37:34.000Z</time>
      </trkpt>
      <trkpt lat="46.53828" lon="0.32399">
        <ele>106.8</ele>
        <time>2021-01-24T10:37:35.000Z</time>
      </trkpt>
      <trkpt lat="46.53831" lon="0.32398">
        <ele>107</ele>
        <time>2021-01-24T10:37:36.000Z</time>
      </trkpt>
      <trkpt lat="46.53833" lon="0.32397">
        <ele>107</ele>
        <time>2021-01-24T10:37:37.000Z</time>
      </trkpt>
      <trkpt lat="46.53836" lon="0.32395">
        <ele>107</ele>
        <time>2021-01-24T10:37:38.000Z</time>
      </trkpt>
      <trkpt lat="46.53838" lon="0.32394">
        <ele>107.2</ele>
        <time>2021-01-24T10:37:39.000Z</time>
      </trkpt>
      <trkpt lat="46.53842" lon="0.32393">
        <ele>107.2</ele>
        <time>2021-01-24T10:37:40.000Z</time>
      </trkpt>
      <trkpt lat="46.53845" lon="0.32391">
        <ele>107.4</ele>
        <time>2021-01-24T10:37:41.000Z</time>
      </trkpt>
      <trkpt lat="46.53847" lon="0.32389">
        <ele>107.6</ele>
        <time>2021-01-24T10:37:42.000Z</time>
      </trkpt>
      <trkpt lat="46.5385" lon="0.32387">
        <ele>107.6</ele>
        <time>2021-01-24T10:37:43.000Z</time>
      </trkpt>
      <trkpt lat="46.53853" lon="0.32386">
        <ele>107.8</ele>
        <time>2021-01-24T10:37:44.000Z</time>
      </trkpt>
      <trkpt lat="46.53855" lon="0.32384">
        <ele>108</ele>
        <time>2021-01-24T10:37:45.000Z</time>
      </trkpt>
      <trkpt lat="46.53858" lon="0.32382">
        <ele>108</ele>
        <time>2021-01-24T10:37:46.000Z</time>
      </trkpt>
      <trkpt lat="46.53862" lon="0.3238">
        <ele>108.2</ele>
        <time>2021-01-24T10:37:47.000Z</time>
      </trkpt>
      <trkpt lat="46.53864" lon="0.32378">
        <ele>108.4</ele>
        <time>2021-01-24T10:37:48.000Z</time>
      </trkpt>
      <trkpt lat="46.53867" lon="0.32375">
        <ele>108.6</ele>
        <time>2021-01-24T10:37:49.000Z</time>
      </trkpt>
      <trkpt lat="46.5387" lon="0.32373">
        <ele>108.6</ele>
        <time>2021-01-24T10:37:50.000Z</time>
      </trkpt>
      <trkpt lat="46.53873" lon="0.32371">
        <ele>108.8</ele>
        <time>2021-01-24T10:37:51.000Z</time>
      </trkpt>
      <trkpt lat="46.53877" lon="0.32369">
        <ele>109</ele>
        <time>2021-01-24T10:37:52.000Z</time>
      </trkpt>
      <trkpt lat="46.53879" lon="0.32368">
        <ele>109.2</ele>
        <time>2021-01-24T10:37:53.000Z</time>
      </trkpt>
      <trkpt lat="46.53883" lon="0.32366">
        <ele>109.2</ele>
        <time>2021-01-24T10:37:54.000Z</time>
      </trkpt>
      <trkpt lat="46.53886" lon="0.32363">
        <ele>109.4</ele>
        <time>2021-01-24T10:37:55.000Z</time>
      </trkpt>
      <trkpt lat="46.5389" lon="0.32361">
        <ele>109.6</ele>
        <time>2021-01-24T10:37:56.000Z</time>
      </trkpt>
      <trkpt lat="46.53893" lon="0.32359">
        <ele>109.6</ele>
        <time>2021-01-24T10:37:57.000Z</time>
      </trkpt>
      <trkpt lat="46.53897" lon="0.32357">
        <ele>109.6</ele>
        <time>2021-01-24T10:37:58.000Z</time>
      </trkpt>
      <trkpt lat="46.53901" lon="0.32355">
        <ele>109.6</ele>
        <time>2021-01-24T10:37:59.000Z</time>
      </trkpt>
      <trkpt lat="46.53904" lon="0.32353">
        <ele>109.6</ele>
        <time>2021-01-24T10:38:00.000Z</time>
      </trkpt>
      <trkpt lat="46.53907" lon="0.32351">
        <ele>109.6</ele>
        <time>2021-01-24T10:38:01.000Z</time>
      </trkpt>
      <trkpt lat="46.5391" lon="0.32348">
        <ele>109.8</ele>
        <time>2021-01-24T10:38:02.000Z</time>
      </trkpt>
      <trkpt lat="46.53913" lon="0.32346">
        <ele>109.8</ele>
        <time>2021-01-24T10:38:03.000Z</time>
      </trkpt>
      <trkpt lat="46.53916" lon="0.32343">
        <ele>110</ele>
        <time>2021-01-24T10:38:04.000Z</time>
      </trkpt>
      <trkpt lat="46.53918" lon="0.32341">
        <ele>110</ele>
        <time>2021-01-24T10:38:05.000Z</time>
      </trkpt>
      <trkpt lat="46.53922" lon="0.32339">
        <ele>110.2</ele>
        <time>2021-01-24T10:38:06.000Z</time>
      </trkpt>
      <trkpt lat="46.53925" lon="0.32337">
        <ele>110.4</ele>
        <time>2021-01-24T10:38:07.000Z</time>
      </trkpt>
      <trkpt lat="46.53928" lon="0.32335">
        <ele>110.4</ele>
        <time>2021-01-24T10:38:08.000Z</time>
      </trkpt>
      <trkpt lat="46.53932" lon="0.32332">
        <ele>110.6</ele>
        <time>2021-01-24T10:38:09.000Z</time>
      </trkpt>
      <trkpt lat="46.53936" lon="0.3233">
        <ele>110.8</ele>
        <time>2021-01-24T10:38:10.000Z</time>
      </trkpt>
      <trkpt lat="46.53939" lon="0.32328">
        <ele>111</ele>
        <time>2021-01-24T10:38:11.000Z</time>
      </trkpt>
      <trkpt lat="46.53942" lon="0.32325">
        <ele>111.2</ele>
        <time>2021-01-24T10:38:12.000Z</time>
      </trkpt>
      <trkpt lat="46.53946" lon="0.32323">
        <ele>111.4</ele>
        <time>2021-01-24T10:38:13.000Z</time>
      </trkpt>
      <trkpt lat="46.53949" lon="0.3232">
        <ele>111.6</ele>
        <time>2021-01-24T10:38:14.000Z</time>
      </trkpt>
      <trkpt lat="46.53954" lon="0.32318">
        <ele>111.8</ele>
        <time>2021-01-24T10:38:15.000Z</time>
      </trkpt>
      <trkpt lat="46.53956" lon="0.32316">
        <ele>112</ele>
        <time>2021-01-24T10:38:16.000Z</time>
      </trkpt>
      <trkpt lat="46.5396" lon="0.32314">
        <ele>112.2</ele>
        <time>2021-01-24T10:38:17.000Z</time>
      </trkpt>
      <trkpt lat="46.53964" lon="0.32311">
        <ele>112.2</ele>
        <time>2021-01-24T10:38:18.000Z</time>
      </trkpt>
      <trkpt lat="46.53968" lon="0.3231">
        <ele>112.4</ele>
        <time>2021-01-24T10:38:19.000Z</time>
      </trkpt>
      <trkpt lat="46.53971" lon="0.32308">
        <ele>112.6</ele>
        <time>2021-01-24T10:38:20.000Z</time>
      </trkpt>
      <trkpt lat="46.53974" lon="0.32305">
        <ele>112.8</ele>
        <time>2021-01-24T10:38:21.000Z</time>
      </trkpt>
      <trkpt lat="46.53978" lon="0.32302">
        <ele>113</ele>
        <time>2021-01-24T10:38:22.000Z</time>
      </trkpt>
      <trkpt lat="46.53983" lon="0.32299">
        <ele>113.2</ele>
        <time>2021-01-24T10:38:23.000Z</time>
      </trkpt>
      <trkpt lat="46.53986" lon="0.32297">
        <ele>113.6</ele>
        <time>2021-01-24T10:38:24.000Z</time>
      </trkpt>
      <trkpt lat="46.5399" lon="0.32294">
        <ele>113.8</ele>
        <time>2021-01-24T10:38:25.000Z</time>
      </trkpt>
      <trkpt lat="46.53994" lon="0.32291">
        <ele>114.2</ele>
        <time>2021-01-24T10:38:26.000Z</time>
      </trkpt>
      <trkpt lat="46.53997" lon="0.32288">
        <ele>114.6</ele>
        <time>2021-01-24T10:38:27.000Z</time>
      </trkpt>
      <trkpt lat="46.54001" lon="0.32285">
        <ele>114.8</ele>
        <time>2021-01-24T10:38:28.000Z</time>
      </trkpt>
      <trkpt lat="46.54005" lon="0.32282">
        <ele>115.2</ele>
        <time>2021-01-24T10:38:29.000Z</time>
      </trkpt>
      <trkpt lat="46.54009" lon="0.32279">
        <ele>115.4</ele>
        <time>2021-01-24T10:38:30.000Z</time>
      </trkpt>
      <trkpt lat="46.54013" lon="0.32276">
        <ele>115.8</ele>
        <time>2021-01-24T10:38:31.000Z</time>
      </trkpt>
      <trkpt lat="46.54017" lon="0.32273">
        <ele>116</ele>
        <time>2021-01-24T10:38:32.000Z</time>
      </trkpt>
      <trkpt lat="46.54021" lon="0.32271">
        <ele>116.4</ele>
        <time>2021-01-24T10:38:33.000Z</time>
      </trkpt>
      <trkpt lat="46.54026" lon="0.32268">
        <ele>116.6</ele>
        <time>2021-01-24T10:38:34.000Z</time>
      </trkpt>
      <trkpt lat="46.5403" lon="0.32265">
        <ele>116.8</ele>
        <time>2021-01-24T10:38:35.000Z</time>
      </trkpt>
      <trkpt lat="46.54034" lon="0.32262">
        <ele>117</ele>
        <time>2021-01-24T10:38:36.000Z</time>
      </trkpt>
      <trkpt lat="46.54038" lon="0.3226">
        <ele>117.2</ele>
        <time>2021-01-24T10:38:37.000Z</time>
      </trkpt>
      <trkpt lat="46.54043" lon="0.32258">
        <ele>117.4</ele>
        <time>2021-01-24T10:38:38.000Z</time>
      </trkpt>
      <trkpt lat="46.54046" lon="0.32255">
        <ele>117.6</ele>
        <time>2021-01-24T10:38:39.000Z</time>
      </trkpt>
      <trkpt lat="46.5405" lon="0.32254">
        <ele>117.8</ele>
        <time>2021-01-24T10:38:40.000Z</time>
      </trkpt>
      <trkpt lat="46.54053" lon="0.32252">
        <ele>117.8</ele>
        <time>2021-01-24T10:38:41.000Z</time>
      </trkpt>
      <trkpt lat="46.54056" lon="0.32252">
        <ele>118</ele>
        <time>2021-01-24T10:38:42.000Z</time>
      </trkpt>
      <trkpt lat="46.54056" lon="0.32252">
        <ele>118.2</ele>
        <time>2021-01-24T10:38:43.000Z</time>
      </trkpt>
      <trkpt lat="46.54058" lon="0.32254">
        <ele>118.4</ele>
        <time>2021-01-24T10:38:44.000Z</time>
      </trkpt>
      <trkpt lat="46.54058" lon="0.32254">
        <ele>118.4</ele>
        <time>2021-01-24T10:38:45.000Z</time>
      </trkpt>
      <trkpt lat="46.54058" lon="0.32254">
        <ele>118.6</ele>
        <time>2021-01-24T10:38:46.000Z</time>
      </trkpt>
      <trkpt lat="46.54058" lon="0.32254">
        <ele>118.8</ele>
        <time>2021-01-24T10:38:47.000Z</time>
      </trkpt>
      <trkpt lat="46.54058" lon="0.32254">
        <ele>119</ele>
        <time>2021-01-24T10:38:48.000Z</time>
      </trkpt>
      <trkpt lat="46.54058" lon="0.32254">
        <ele>119.2</ele>
        <time>2021-01-24T10:38:49.000Z</time>
      </trkpt>
      <trkpt lat="46.54058" lon="0.32254">
        <ele>119.6</ele>
        <time>2021-01-24T10:38:50.000Z</time>
      </trkpt>
      <trkpt lat="46.54058" lon="0.32254">
        <ele>120</ele>
        <time>2021-01-24T10:38:51.000Z</time>
      </trkpt>
      <trkpt lat="46.54058" lon="0.32254">
        <ele>120.2</ele>
        <time>2021-01-24T10:38:52.000Z</time>
      </trkpt>
      <trkpt lat="46.54058" lon="0.32254">
        <ele>120.6</ele>
        <time>2021-01-24T10:38:53.000Z</time>
      </trkpt>
      <trkpt lat="46.54058" lon="0.32254">
        <ele>120.8</ele>
        <time>2021-01-24T10:38:54.000Z</time>
      </trkpt>
      <trkpt lat="46.54058" lon="0.32254">
        <ele>121.2</ele>
        <time>2021-01-24T10:38:55.000Z</time>
      </trkpt>
      <trkpt lat="46.54058" lon="0.32254">
        <ele>121.4</ele>
        <time>2021-01-24T10:38:56.000Z</time>
      </trkpt>
      <trkpt lat="46.54058" lon="0.32254">
        <ele>121.6</ele>
        <time>2021-01-24T10:38:57.000Z</time>
      </trkpt>
      <trkpt lat="46.54058" lon="0.32254">
        <ele>121.8</ele>
        <time>2021-01-24T10:38:58.000Z</time>
      </trkpt>
      <trkpt lat="46.54058" lon="0.32254">
        <ele>122</ele>
        <time>2021-01-24T10:38:59.000Z</time>
      </trkpt>
      <trkpt lat="46.54058" lon="0.32254">
        <ele>122.2</ele>
        <time>2021-01-24T10:39:00.000Z</time>
      </trkpt>
      <trkpt lat="46.54058" lon="0.32254">
        <ele>122.4</ele>
        <time>2021-01-24T10:39:01.000Z</time>
      </trkpt>
      <trkpt lat="46.54058" lon="0.32254">
        <ele>122.6</ele>
        <time>2021-01-24T10:39:02.000Z</time>
      </trkpt>
      <trkpt lat="46.54058" lon="0.32254">
        <ele>122.8</ele>
        <time>2021-01-24T10:39:03.000Z</time>
      </trkpt>
      <trkpt lat="46.54058" lon="0.32254">
        <ele>123</ele>
        <time>2021-01-24T10:39:04.000Z</time>
      </trkpt>
      <trkpt lat="46.54059" lon="0.32258">
        <ele>123.2</ele>
        <time>2021-01-24T10:39:05.000Z</time>
      </trkpt>
      <trkpt lat="46.54059" lon="0.32262">
        <ele>123.6</ele>
        <time>2021-01-24T10:39:07.000Z</time>
      </trkpt>
      <trkpt lat="46.54059" lon="0.32262">
        <ele>123.8</ele>
        <time>2021-01-24T10:39:08.000Z</time>
      </trkpt>
      <trkpt lat="46.54058" lon="0.32264">
        <ele>124</ele>
        <time>2021-01-24T10:39:09.000Z</time>
      </trkpt>
      <trkpt lat="46.54058" lon="0.32264">
        <ele>124.2</ele>
        <time>2021-01-24T10:39:10.000Z</time>
      </trkpt>
      <trkpt lat="46.54058" lon="0.32264">
        <ele>124.4</ele>
        <time>2021-01-24T10:39:11.000Z</time>
      </trkpt>
      <trkpt lat="46.54058" lon="0.32264">
        <ele>124.6</ele>
        <time>2021-01-24T10:39:12.000Z</time>
      </trkpt>
      <trkpt lat="46.54057" lon="0.32266">
        <ele>124.8</ele>
        <time>2021-01-24T10:39:13.000Z</time>
      </trkpt>
      <trkpt lat="46.54057" lon="0.32266">
        <ele>125</ele>
        <time>2021-01-24T10:39:14.000Z</time>
      </trkpt>
      <trkpt lat="46.54057" lon="0.32266">
        <ele>125</ele>
        <time>2021-01-24T10:39:15.000Z</time>
      </trkpt>
      <trkpt lat="46.54057" lon="0.32266">
        <ele>125.2</ele>
        <time>2021-01-24T10:39:16.000Z</time>
      </trkpt>
      <trkpt lat="46.54057" lon="0.32266">
        <ele>125.4</ele>
        <time>2021-01-24T10:39:17.000Z</time>
      </trkpt>
      <trkpt lat="46.54057" lon="0.32266">
        <ele>125.4</ele>
        <time>2021-01-24T10:39:18.000Z</time>
      </trkpt>
      <trkpt lat="46.54057" lon="0.32266">
        <ele>125.6</ele>
        <time>2021-01-24T10:39:19.000Z</time>
      </trkpt>
      <trkpt lat="46.54057" lon="0.32266">
        <ele>125.6</ele>
        <time>2021-01-24T10:39:20.000Z</time>
      </trkpt>
      <trkpt lat="46.54057" lon="0.32266">
        <ele>125.6</ele>
        <time>2021-01-24T10:39:21.000Z</time>
      </trkpt>
      <trkpt lat="46.54057" lon="0.32266">
        <ele>125.6</ele>
        <time>2021-01-24T10:39:22.000Z</time>
      </trkpt>
      <trkpt lat="46.54057" lon="0.32266">
        <ele>125.6</ele>
        <time>2021-01-24T10:39:23.000Z</time>
      </trkpt>
      <trkpt lat="46.54057" lon="0.32266">
        <ele>125.6</ele>
        <time>2021-01-24T10:39:24.000Z</time>
      </trkpt>
      <trkpt lat="46.54057" lon="0.32266">
        <ele>125.8</ele>
        <time>2021-01-24T10:39:25.000Z</time>
      </trkpt>
      <trkpt lat="46.54057" lon="0.32266">
        <ele>125.8</ele>
        <time>2021-01-24T10:39:26.000Z</time>
      </trkpt>
      <trkpt lat="46.54057" lon="0.32266">
        <ele>125.8</ele>
        <time>2021-01-24T10:39:27.000Z</time>
      </trkpt>
      <trkpt lat="46.54057" lon="0.32266">
        <ele>126</ele>
        <time>2021-01-24T10:39:28.000Z</time>
      </trkpt>
      <trkpt lat="46.54057" lon="0.32266">
        <ele>126</ele>
        <time>2021-01-24T10:39:29.000Z</time>
      </trkpt>
      <trkpt lat="46.54057" lon="0.32266">
        <ele>126.2</ele>
        <time>2021-01-24T10:39:30.000Z</time>
      </trkpt>
      <trkpt lat="46.54057" lon="0.32266">
        <ele>126.2</ele>
        <time>2021-01-24T10:39:31.000Z</time>
      </trkpt>
      <trkpt lat="46.54057" lon="0.32266">
        <ele>126.4</ele>
        <time>2021-01-24T10:39:32.000Z</time>
      </trkpt>
      <trkpt lat="46.54057" lon="0.32266">
        <ele>126.4</ele>
        <time>2021-01-24T10:39:33.000Z</time>
      </trkpt>
      <trkpt lat="46.54057" lon="0.32266">
        <ele>126.4</ele>
        <time>2021-01-24T10:39:34.000Z</time>
      </trkpt>
      <trkpt lat="46.54057" lon="0.32266">
        <ele>126.6</ele>
        <time>2021-01-24T10:39:35.000Z</time>
      </trkpt>
      <trkpt lat="46.54057" lon="0.32266">
        <ele>126.6</ele>
        <time>2021-01-24T10:39:36.000Z</time>
      </trkpt>
      <trkpt lat="46.54057" lon="0.32266">
        <ele>126.8</ele>
        <time>2021-01-24T10:39:37.000Z</time>
      </trkpt>
      <trkpt lat="46.54057" lon="0.32266">
        <ele>126.8</ele>
        <time>2021-01-24T10:39:38.000Z</time>
      </trkpt>
      <trkpt lat="46.54057" lon="0.32266">
        <ele>126.8</ele>
        <time>2021-01-24T10:39:39.000Z</time>
      </trkpt>
      <trkpt lat="46.54057" lon="0.32266">
        <ele>127</ele>
        <time>2021-01-24T10:39:40.000Z</time>
      </trkpt>
      <trkpt lat="46.54057" lon="0.32266">
        <ele>127</ele>
        <time>2021-01-24T10:39:41.000Z</time>
      </trkpt>
      <trkpt lat="46.54057" lon="0.32266">
        <ele>127</ele>
        <time>2021-01-24T10:39:42.000Z</time>
      </trkpt>
      <trkpt lat="46.54057" lon="0.32266">
        <ele>127.2</ele>
        <time>2021-01-24T10:39:43.000Z</time>
      </trkpt>
      <trkpt lat="46.54057" lon="0.32266">
        <ele>127.2</ele>
        <time>2021-01-24T10:39:44.000Z</time>
      </trkpt>
      <trkpt lat="46.54057" lon="0.32266">
        <ele>127.2</ele>
        <time>2021-01-24T10:39:45.000Z</time>
      </trkpt>
      <trkpt lat="46.54057" lon="0.32266">
        <ele>127.4</ele>
        <time>2021-01-24T10:39:46.000Z</time>
      </trkpt>
      <trkpt lat="46.54057" lon="0.32266">
        <ele>127.4</ele>
        <time>2021-01-24T10:39:47.000Z</time>
      </trkpt>
      <trkpt lat="46.54057" lon="0.32266">
        <ele>127.4</ele>
        <time>2021-01-24T10:39:48.000Z</time>
      </trkpt>
      <trkpt lat="46.54057" lon="0.32266">
        <ele>127.4</ele>
        <time>2021-01-24T10:39:49.000Z</time>
      </trkpt>
      <trkpt lat="46.54057" lon="0.32266">
        <ele>127.6</ele>
        <time>2021-01-24T10:39:50.000Z</time>
      </trkpt>
      <trkpt lat="46.54057" lon="0.32266">
        <ele>127.6</ele>
        <time>2021-01-24T10:39:51.000Z</time>
      </trkpt>
      <trkpt lat="46.54055" lon="0.32266">
        <ele>127.6</ele>
        <time>2021-01-24T10:39:52.000Z</time>
      </trkpt>
      <trkpt lat="46.54055" lon="0.32266">
        <ele>127.6</ele>
        <time>2021-01-24T10:39:53.000Z</time>
      </trkpt>
      <trkpt lat="46.54056" lon="0.32262">
        <ele>127.8</ele>
        <time>2021-01-24T10:39:54.000Z</time>
      </trkpt>
      <trkpt lat="46.54056" lon="0.3226">
        <ele>127.8</ele>
        <time>2021-01-24T10:39:55.000Z</time>
      </trkpt>
      <trkpt lat="46.54056" lon="0.32257">
        <ele>127.8</ele>
        <time>2021-01-24T10:39:56.000Z</time>
      </trkpt>
      <trkpt lat="46.54056" lon="0.32254">
        <ele>127.8</ele>
        <time>2021-01-24T10:39:57.000Z</time>
      </trkpt>
      <trkpt lat="46.54056" lon="0.32251">
        <ele>127.8</ele>
        <time>2021-01-24T10:39:58.000Z</time>
      </trkpt>
      <trkpt lat="46.54057" lon="0.32248">
        <ele>127.8</ele>
        <time>2021-01-24T10:39:59.000Z</time>
      </trkpt>
      <trkpt lat="46.54058" lon="0.32245">
        <ele>128</ele>
        <time>2021-01-24T10:40:00.000Z</time>
      </trkpt>
      <trkpt lat="46.5406" lon="0.32243">
        <ele>128</ele>
        <time>2021-01-24T10:40:01.000Z</time>
      </trkpt>
      <trkpt lat="46.54063" lon="0.32241">
        <ele>128</ele>
        <time>2021-01-24T10:40:02.000Z</time>
      </trkpt>
      <trkpt lat="46.54066" lon="0.3224">
        <ele>128</ele>
        <time>2021-01-24T10:40:03.000Z</time>
      </trkpt>
      <trkpt lat="46.54069" lon="0.32238">
        <ele>128</ele>
        <time>2021-01-24T10:40:04.000Z</time>
      </trkpt>
      <trkpt lat="46.54071" lon="0.32236">
        <ele>128</ele>
        <time>2021-01-24T10:40:05.000Z</time>
      </trkpt>
      <trkpt lat="46.54073" lon="0.32235">
        <ele>128</ele>
        <time>2021-01-24T10:40:06.000Z</time>
      </trkpt>
      <trkpt lat="46.54076" lon="0.32233">
        <ele>128</ele>
        <time>2021-01-24T10:40:07.000Z</time>
      </trkpt>
      <trkpt lat="46.54079" lon="0.32231">
        <ele>127.8</ele>
        <time>2021-01-24T10:40:08.000Z</time>
      </trkpt>
      <trkpt lat="46.54082" lon="0.32229">
        <ele>127.8</ele>
        <time>2021-01-24T10:40:09.000Z</time>
      </trkpt>
      <trkpt lat="46.54085" lon="0.32228">
        <ele>127.6</ele>
        <time>2021-01-24T10:40:10.000Z</time>
      </trkpt>
      <trkpt lat="46.54089" lon="0.32226">
        <ele>127.6</ele>
        <time>2021-01-24T10:40:11.000Z</time>
      </trkpt>
      <trkpt lat="46.54093" lon="0.32224">
        <ele>127.6</ele>
        <time>2021-01-24T10:40:12.000Z</time>
      </trkpt>
      <trkpt lat="46.54095" lon="0.32223">
        <ele>127.6</ele>
        <time>2021-01-24T10:40:13.000Z</time>
      </trkpt>
      <trkpt lat="46.54099" lon="0.32222">
        <ele>127.6</ele>
        <time>2021-01-24T10:40:14.000Z</time>
      </trkpt>
      <trkpt lat="46.54102" lon="0.32221">
        <ele>127.4</ele>
        <time>2021-01-24T10:40:15.000Z</time>
      </trkpt>
      <trkpt lat="46.54105" lon="0.3222">
        <ele>127.4</ele>
        <time>2021-01-24T10:40:16.000Z</time>
      </trkpt>
      <trkpt lat="46.54109" lon="0.32218">
        <ele>127.4</ele>
        <time>2021-01-24T10:40:17.000Z</time>
      </trkpt>
      <trkpt lat="46.54112" lon="0.32217">
        <ele>127.2</ele>
        <time>2021-01-24T10:40:18.000Z</time>
      </trkpt>
      <trkpt lat="46.54117" lon="0.32217">
        <ele>127</ele>
        <time>2021-01-24T10:40:19.000Z</time>
      </trkpt>
      <trkpt lat="46.54121" lon="0.32216">
        <ele>127</ele>
        <time>2021-01-24T10:40:20.000Z</time>
      </trkpt>
      <trkpt lat="46.54125" lon="0.32215">
        <ele>126.8</ele>
        <time>2021-01-24T10:40:21.000Z</time>
      </trkpt>
      <trkpt lat="46.54129" lon="0.32215">
        <ele>126.8</ele>
        <time>2021-01-24T10:40:22.000Z</time>
      </trkpt>
      <trkpt lat="46.54132" lon="0.32214">
        <ele>126.6</ele>
        <time>2021-01-24T10:40:23.000Z</time>
      </trkpt>
      <trkpt lat="46.54136" lon="0.32214">
        <ele>126.6</ele>
        <time>2021-01-24T10:40:24.000Z</time>
      </trkpt>
      <trkpt lat="46.54141" lon="0.32214">
        <ele>126.6</ele>
        <time>2021-01-24T10:40:25.000Z</time>
      </trkpt>
      <trkpt lat="46.54145" lon="0.32214">
        <ele>126.6</ele>
        <time>2021-01-24T10:40:26.000Z</time>
      </trkpt>
      <trkpt lat="46.5415" lon="0.32214">
        <ele>126.4</ele>
        <time>2021-01-24T10:40:27.000Z</time>
      </trkpt>
      <trkpt lat="46.54154" lon="0.32214">
        <ele>126.4</ele>
        <time>2021-01-24T10:40:28.000Z</time>
      </trkpt>
      <trkpt lat="46.54157" lon="0.32214">
        <ele>126.4</ele>
        <time>2021-01-24T10:40:29.000Z</time>
      </trkpt>
      <trkpt lat="46.54161" lon="0.32214">
        <ele>126.2</ele>
        <time>2021-01-24T10:40:30.000Z</time>
      </trkpt>
      <trkpt lat="46.54165" lon="0.32214">
        <ele>126.2</ele>
        <time>2021-01-24T10:40:31.000Z</time>
      </trkpt>
      <trkpt lat="46.54169" lon="0.32215">
        <ele>126.2</ele>
        <time>2021-01-24T10:40:32.000Z</time>
      </trkpt>
      <trkpt lat="46.54173" lon="0.32215">
        <ele>126.2</ele>
        <time>2021-01-24T10:40:33.000Z</time>
      </trkpt>
      <trkpt lat="46.54177" lon="0.32216">
        <ele>126.2</ele>
        <time>2021-01-24T10:40:34.000Z</time>
      </trkpt>
      <trkpt lat="46.54182" lon="0.32217">
        <ele>126</ele>
        <time>2021-01-24T10:40:35.000Z</time>
      </trkpt>
      <trkpt lat="46.54186" lon="0.32217">
        <ele>126</ele>
        <time>2021-01-24T10:40:36.000Z</time>
      </trkpt>
      <trkpt lat="46.5419" lon="0.32218">
        <ele>126</ele>
        <time>2021-01-24T10:40:37.000Z</time>
      </trkpt>
      <trkpt lat="46.54194" lon="0.32219">
        <ele>126</ele>
        <time>2021-01-24T10:40:38.000Z</time>
      </trkpt>
      <trkpt lat="46.54198" lon="0.3222">
        <ele>126.2</ele>
        <time>2021-01-24T10:40:39.000Z</time>
      </trkpt>
      <trkpt lat="46.54204" lon="0.32222">
        <ele>126.2</ele>
        <time>2021-01-24T10:40:40.000Z</time>
      </trkpt>
      <trkpt lat="46.54208" lon="0.32223">
        <ele>126.2</ele>
        <time>2021-01-24T10:40:41.000Z</time>
      </trkpt>
      <trkpt lat="46.54212" lon="0.32226">
        <ele>126.4</ele>
        <time>2021-01-24T10:40:42.000Z</time>
      </trkpt>
      <trkpt lat="46.54215" lon="0.32229">
        <ele>126.4</ele>
        <time>2021-01-24T10:40:43.000Z</time>
      </trkpt>
      <trkpt lat="46.54217" lon="0.32232">
        <ele>126.4</ele>
        <time>2021-01-24T10:40:44.000Z</time>
      </trkpt>
      <trkpt lat="46.54218" lon="0.32234">
        <ele>126.6</ele>
        <time>2021-01-24T10:40:45.000Z</time>
      </trkpt>
      <trkpt lat="46.54218" lon="0.32234">
        <ele>126.6</ele>
        <time>2021-01-24T10:40:46.000Z</time>
      </trkpt>
      <trkpt lat="46.54219" lon="0.32239">
        <ele>126.8</ele>
        <time>2021-01-24T10:40:47.000Z</time>
      </trkpt>
      <trkpt lat="46.54219" lon="0.32242">
        <ele>126.8</ele>
        <time>2021-01-24T10:40:48.000Z</time>
      </trkpt>
      <trkpt lat="46.54219" lon="0.32245">
        <ele>127</ele>
        <time>2021-01-24T10:40:49.000Z</time>
      </trkpt>
      <trkpt lat="46.54219" lon="0.32249">
        <ele>127.2</ele>
        <time>2021-01-24T10:40:50.000Z</time>
      </trkpt>
      <trkpt lat="46.54219" lon="0.32255">
        <ele>127.2</ele>
        <time>2021-01-24T10:40:51.000Z</time>
      </trkpt>
      <trkpt lat="46.54219" lon="0.32258">
        <ele>127.4</ele>
        <time>2021-01-24T10:40:52.000Z</time>
      </trkpt>
      <trkpt lat="46.54219" lon="0.32258">
        <ele>127.4</ele>
        <time>2021-01-24T10:40:53.000Z</time>
      </trkpt>
      <trkpt lat="46.54222" lon="0.32257">
        <ele>127.6</ele>
        <time>2021-01-24T10:40:54.000Z</time>
      </trkpt>
      <trkpt lat="46.54224" lon="0.32257">
        <ele>127.8</ele>
        <time>2021-01-24T10:40:55.000Z</time>
      </trkpt>
      <trkpt lat="46.54226" lon="0.32257">
        <ele>127.8</ele>
        <time>2021-01-24T10:40:56.000Z</time>
      </trkpt>
      <trkpt lat="46.54229" lon="0.32258">
        <ele>128</ele>
        <time>2021-01-24T10:40:57.000Z</time>
      </trkpt>
      <trkpt lat="46.54232" lon="0.32259">
        <ele>128</ele>
        <time>2021-01-24T10:40:58.000Z</time>
      </trkpt>
      <trkpt lat="46.54234" lon="0.32259">
        <ele>128.2</ele>
        <time>2021-01-24T10:40:59.000Z</time>
      </trkpt>
      <trkpt lat="46.54237" lon="0.32259">
        <ele>128.2</ele>
        <time>2021-01-24T10:41:00.000Z</time>
      </trkpt>
      <trkpt lat="46.54239" lon="0.32261">
        <ele>128.2</ele>
        <time>2021-01-24T10:41:01.000Z</time>
      </trkpt>
      <trkpt lat="46.54241" lon="0.32263">
        <ele>128.2</ele>
        <time>2021-01-24T10:41:02.000Z</time>
      </trkpt>
      <trkpt lat="46.54242" lon="0.32265">
        <ele>128.2</ele>
        <time>2021-01-24T10:41:03.000Z</time>
      </trkpt>
      <trkpt lat="46.54242" lon="0.32265">
        <ele>128.2</ele>
        <time>2021-01-24T10:41:04.000Z</time>
      </trkpt>
      <trkpt lat="46.54246" lon="0.32269">
        <ele>128.2</ele>
        <time>2021-01-24T10:41:05.000Z</time>
      </trkpt>
      <trkpt lat="46.54248" lon="0.3227">
        <ele>128.4</ele>
        <time>2021-01-24T10:41:06.000Z</time>
      </trkpt>
      <trkpt lat="46.5425" lon="0.32272">
        <ele>128.4</ele>
        <time>2021-01-24T10:41:07.000Z</time>
      </trkpt>
      <trkpt lat="46.54253" lon="0.32277">
        <ele>128.4</ele>
        <time>2021-01-24T10:41:08.000Z</time>
      </trkpt>
      <trkpt lat="46.54255" lon="0.32278">
        <ele>128.4</ele>
        <time>2021-01-24T10:41:09.000Z</time>
      </trkpt>
      <trkpt lat="46.54257" lon="0.32279">
        <ele>128.6</ele>
        <time>2021-01-24T10:41:10.000Z</time>
      </trkpt>
      <trkpt lat="46.54259" lon="0.3228">
        <ele>128.6</ele>
        <time>2021-01-24T10:41:11.000Z</time>
      </trkpt>
      <trkpt lat="46.54262" lon="0.32281">
        <ele>128.6</ele>
        <time>2021-01-24T10:41:12.000Z</time>
      </trkpt>
      <trkpt lat="46.54266" lon="0.32282">
        <ele>128.6</ele>
        <time>2021-01-24T10:41:13.000Z</time>
      </trkpt>
      <trkpt lat="46.54269" lon="0.32283">
        <ele>128.6</ele>
        <time>2021-01-24T10:41:14.000Z</time>
      </trkpt>
      <trkpt lat="46.54271" lon="0.32285">
        <ele>128.6</ele>
        <time>2021-01-24T10:41:15.000Z</time>
      </trkpt>
      <trkpt lat="46.54273" lon="0.3229">
        <ele>128.8</ele>
        <time>2021-01-24T10:41:16.000Z</time>
      </trkpt>
      <trkpt lat="46.54276" lon="0.32294">
        <ele>128.8</ele>
        <time>2021-01-24T10:41:17.000Z</time>
      </trkpt>
      <trkpt lat="46.54279" lon="0.32298">
        <ele>128.8</ele>
        <time>2021-01-24T10:41:18.000Z</time>
      </trkpt>
      <trkpt lat="46.54282" lon="0.32301">
        <ele>128.8</ele>
        <time>2021-01-24T10:41:19.000Z</time>
      </trkpt>
      <trkpt lat="46.54284" lon="0.32304">
        <ele>129</ele>
        <time>2021-01-24T10:41:20.000Z</time>
      </trkpt>
      <trkpt lat="46.54287" lon="0.32308">
        <ele>129</ele>
        <time>2021-01-24T10:41:21.000Z</time>
      </trkpt>
      <trkpt lat="46.5429" lon="0.32312">
        <ele>129</ele>
        <time>2021-01-24T10:41:22.000Z</time>
      </trkpt>
      <trkpt lat="46.54293" lon="0.32315">
        <ele>129</ele>
        <time>2021-01-24T10:41:23.000Z</time>
      </trkpt>
      <trkpt lat="46.54295" lon="0.32317">
        <ele>129</ele>
        <time>2021-01-24T10:41:24.000Z</time>
      </trkpt>
      <trkpt lat="46.54297" lon="0.32318">
        <ele>129.2</ele>
        <time>2021-01-24T10:41:25.000Z</time>
      </trkpt>
      <trkpt lat="46.54299" lon="0.32319">
        <ele>129.2</ele>
        <time>2021-01-24T10:41:26.000Z</time>
      </trkpt>
      <trkpt lat="46.54299" lon="0.32319">
        <ele>129.2</ele>
        <time>2021-01-24T10:41:27.000Z</time>
      </trkpt>
      <trkpt lat="46.54302" lon="0.32323">
        <ele>129.2</ele>
        <time>2021-01-24T10:41:28.000Z</time>
      </trkpt>
      <trkpt lat="46.54303" lon="0.32326">
        <ele>129.4</ele>
        <time>2021-01-24T10:41:29.000Z</time>
      </trkpt>
      <trkpt lat="46.54304" lon="0.32329">
        <ele>129.4</ele>
        <time>2021-01-24T10:41:30.000Z</time>
      </trkpt>
      <trkpt lat="46.54304" lon="0.32329">
        <ele>129.4</ele>
        <time>2021-01-24T10:41:31.000Z</time>
      </trkpt>
      <trkpt lat="46.54307" lon="0.32329">
        <ele>129.4</ele>
        <time>2021-01-24T10:41:32.000Z</time>
      </trkpt>
      <trkpt lat="46.54309" lon="0.3233">
        <ele>129.6</ele>
        <time>2021-01-24T10:41:33.000Z</time>
      </trkpt>
      <trkpt lat="46.54311" lon="0.32332">
        <ele>129.6</ele>
        <time>2021-01-24T10:41:34.000Z</time>
      </trkpt>
      <trkpt lat="46.54312" lon="0.32335">
        <ele>129.6</ele>
        <time>2021-01-24T10:41:35.000Z</time>
      </trkpt>
      <trkpt lat="46.54312" lon="0.32335">
        <ele>129.8</ele>
        <time>2021-01-24T10:41:36.000Z</time>
      </trkpt>
      <trkpt lat="46.5431" lon="0.32337">
        <ele>129.8</ele>
        <time>2021-01-24T10:41:37.000Z</time>
      </trkpt>
      <trkpt lat="46.5431" lon="0.32337">
        <ele>129.8</ele>
        <time>2021-01-24T10:41:38.000Z</time>
      </trkpt>
      <trkpt lat="46.54307" lon="0.32338">
        <ele>130</ele>
        <time>2021-01-24T10:41:39.000Z</time>
      </trkpt>
      <trkpt lat="46.54307" lon="0.32338">
        <ele>130</ele>
        <time>2021-01-24T10:41:40.000Z</time>
      </trkpt>
      <trkpt lat="46.54305" lon="0.32339">
        <ele>130</ele>
        <time>2021-01-24T10:41:41.000Z</time>
      </trkpt>
      <trkpt lat="46.54302" lon="0.3234">
        <ele>130.2</ele>
        <time>2021-01-24T10:41:42.000Z</time>
      </trkpt>
      <trkpt lat="46.54302" lon="0.3234">
        <ele>130.2</ele>
        <time>2021-01-24T10:41:43.000Z</time>
      </trkpt>
      <trkpt lat="46.54299" lon="0.32342">
        <ele>130.2</ele>
        <time>2021-01-24T10:41:44.000Z</time>
      </trkpt>
      <trkpt lat="46.54299" lon="0.32342">
        <ele>130.4</ele>
        <time>2021-01-24T10:41:45.000Z</time>
      </trkpt>
      <trkpt lat="46.54297" lon="0.32344">
        <ele>130.4</ele>
        <time>2021-01-24T10:41:46.000Z</time>
      </trkpt>
      <trkpt lat="46.54297" lon="0.32344">
        <ele>130.4</ele>
        <time>2021-01-24T10:41:47.000Z</time>
      </trkpt>
      <trkpt lat="46.54297" lon="0.32347">
        <ele>130.4</ele>
        <time>2021-01-24T10:41:48.000Z</time>
      </trkpt>
      <trkpt lat="46.54297" lon="0.32347">
        <ele>130.4</ele>
        <time>2021-01-24T10:41:49.000Z</time>
      </trkpt>
      <trkpt lat="46.54297" lon="0.3235">
        <ele>130.4</ele>
        <time>2021-01-24T10:41:50.000Z</time>
      </trkpt>
      <trkpt lat="46.54297" lon="0.3235">
        <ele>130.4</ele>
        <time>2021-01-24T10:41:51.000Z</time>
      </trkpt>
      <trkpt lat="46.54295" lon="0.32354">
        <ele>130.4</ele>
        <time>2021-01-24T10:41:52.000Z</time>
      </trkpt>
      <trkpt lat="46.54295" lon="0.32354">
        <ele>130.4</ele>
        <time>2021-01-24T10:41:53.000Z</time>
      </trkpt>
      <trkpt lat="46.54296" lon="0.32359">
        <ele>130.4</ele>
        <time>2021-01-24T10:41:54.000Z</time>
      </trkpt>
      <trkpt lat="46.54297" lon="0.32361">
        <ele>130.4</ele>
        <time>2021-01-24T10:41:55.000Z</time>
      </trkpt>
      <trkpt lat="46.54298" lon="0.32365">
        <ele>130.6</ele>
        <time>2021-01-24T10:41:56.000Z</time>
      </trkpt>
      <trkpt lat="46.54299" lon="0.32369">
        <ele>130.6</ele>
        <time>2021-01-24T10:41:57.000Z</time>
      </trkpt>
      <trkpt lat="46.54299" lon="0.32372">
        <ele>130.6</ele>
        <time>2021-01-24T10:41:58.000Z</time>
      </trkpt>
      <trkpt lat="46.543" lon="0.32375">
        <ele>130.6</ele>
        <time>2021-01-24T10:41:59.000Z</time>
      </trkpt>
      <trkpt lat="46.543" lon="0.32375">
        <ele>130.6</ele>
        <time>2021-01-24T10:42:00.000Z</time>
      </trkpt>
      <trkpt lat="46.54301" lon="0.32378">
        <ele>130.6</ele>
        <time>2021-01-24T10:42:01.000Z</time>
      </trkpt>
      <trkpt lat="46.54303" lon="0.3238">
        <ele>130.6</ele>
        <time>2021-01-24T10:42:02.000Z</time>
      </trkpt>
      <trkpt lat="46.54305" lon="0.32382">
        <ele>130.6</ele>
        <time>2021-01-24T10:42:03.000Z</time>
      </trkpt>
      <trkpt lat="46.54308" lon="0.32384">
        <ele>130.8</ele>
        <time>2021-01-24T10:42:04.000Z</time>
      </trkpt>
      <trkpt lat="46.54309" lon="0.32387">
        <ele>130.8</ele>
        <time>2021-01-24T10:42:05.000Z</time>
      </trkpt>
      <trkpt lat="46.54309" lon="0.3239">
        <ele>130.8</ele>
        <time>2021-01-24T10:42:06.000Z</time>
      </trkpt>
      <trkpt lat="46.5431" lon="0.32394">
        <ele>130.8</ele>
        <time>2021-01-24T10:42:07.000Z</time>
      </trkpt>
      <trkpt lat="46.54311" lon="0.32397">
        <ele>130.8</ele>
        <time>2021-01-24T10:42:08.000Z</time>
      </trkpt>
      <trkpt lat="46.54312" lon="0.324">
        <ele>130.8</ele>
        <time>2021-01-24T10:42:09.000Z</time>
      </trkpt>
      <trkpt lat="46.54314" lon="0.32405">
        <ele>131</ele>
        <time>2021-01-24T10:42:10.000Z</time>
      </trkpt>
      <trkpt lat="46.54316" lon="0.32408">
        <ele>131</ele>
        <time>2021-01-24T10:42:11.000Z</time>
      </trkpt>
      <trkpt lat="46.54318" lon="0.32412">
        <ele>131</ele>
        <time>2021-01-24T10:42:12.000Z</time>
      </trkpt>
      <trkpt lat="46.5432" lon="0.32415">
        <ele>131</ele>
        <time>2021-01-24T10:42:13.000Z</time>
      </trkpt>
      <trkpt lat="46.54321" lon="0.32418">
        <ele>131</ele>
        <time>2021-01-24T10:42:14.000Z</time>
      </trkpt>
      <trkpt lat="46.54321" lon="0.32418">
        <ele>131</ele>
        <time>2021-01-24T10:42:15.000Z</time>
      </trkpt>
      <trkpt lat="46.54323" lon="0.32421">
        <ele>131</ele>
        <time>2021-01-24T10:42:16.000Z</time>
      </trkpt>
      <trkpt lat="46.54323" lon="0.32421">
        <ele>131</ele>
        <time>2021-01-24T10:42:17.000Z</time>
      </trkpt>
      <trkpt lat="46.54325" lon="0.32419">
        <ele>131.2</ele>
        <time>2021-01-24T10:42:18.000Z</time>
      </trkpt>
      <trkpt lat="46.54328" lon="0.32419">
        <ele>131.2</ele>
        <time>2021-01-24T10:42:19.000Z</time>
      </trkpt>
      <trkpt lat="46.54331" lon="0.32419">
        <ele>131.2</ele>
        <time>2021-01-24T10:42:20.000Z</time>
      </trkpt>
      <trkpt lat="46.54333" lon="0.32421">
        <ele>131.2</ele>
        <time>2021-01-24T10:42:21.000Z</time>
      </trkpt>
      <trkpt lat="46.54335" lon="0.32424">
        <ele>131.4</ele>
        <time>2021-01-24T10:42:22.000Z</time>
      </trkpt>
      <trkpt lat="46.54335" lon="0.32424">
        <ele>131.4</ele>
        <time>2021-01-24T10:42:23.000Z</time>
      </trkpt>
      <trkpt lat="46.54335" lon="0.32429">
        <ele>131.4</ele>
        <time>2021-01-24T10:42:24.000Z</time>
      </trkpt>
      <trkpt lat="46.54337" lon="0.32431">
        <ele>131.6</ele>
        <time>2021-01-24T10:42:25.000Z</time>
      </trkpt>
      <trkpt lat="46.54337" lon="0.32431">
        <ele>131.6</ele>
        <time>2021-01-24T10:42:26.000Z</time>
      </trkpt>
      <trkpt lat="46.5434" lon="0.32433">
        <ele>131.6</ele>
        <time>2021-01-24T10:42:27.000Z</time>
      </trkpt>
      <trkpt lat="46.54342" lon="0.32434">
        <ele>131.6</ele>
        <time>2021-01-24T10:42:28.000Z</time>
      </trkpt>
      <trkpt lat="46.54344" lon="0.32436">
        <ele>131.8</ele>
        <time>2021-01-24T10:42:29.000Z</time>
      </trkpt>
      <trkpt lat="46.54345" lon="0.32439">
        <ele>131.8</ele>
        <time>2021-01-24T10:42:30.000Z</time>
      </trkpt>
      <trkpt lat="46.54345" lon="0.32439">
        <ele>131.8</ele>
        <time>2021-01-24T10:42:31.000Z</time>
      </trkpt>
      <trkpt lat="46.54347" lon="0.32443">
        <ele>131.8</ele>
        <time>2021-01-24T10:42:32.000Z</time>
      </trkpt>
      <trkpt lat="46.54348" lon="0.32446">
        <ele>131.8</ele>
        <time>2021-01-24T10:42:33.000Z</time>
      </trkpt>
      <trkpt lat="46.54349" lon="0.32449">
        <ele>131.8</ele>
        <time>2021-01-24T10:42:34.000Z</time>
      </trkpt>
      <trkpt lat="46.54349" lon="0.32453">
        <ele>132</ele>
        <time>2021-01-24T10:42:35.000Z</time>
      </trkpt>
      <trkpt lat="46.54351" lon="0.32456">
        <ele>132</ele>
        <time>2021-01-24T10:42:36.000Z</time>
      </trkpt>
      <trkpt lat="46.54353" lon="0.32459">
        <ele>132</ele>
        <time>2021-01-24T10:42:37.000Z</time>
      </trkpt>
      <trkpt lat="46.54355" lon="0.32461">
        <ele>132</ele>
        <time>2021-01-24T10:42:38.000Z</time>
      </trkpt>
      <trkpt lat="46.54355" lon="0.32461">
        <ele>132</ele>
        <time>2021-01-24T10:42:39.000Z</time>
      </trkpt>
      <trkpt lat="46.54357" lon="0.32466">
        <ele>132</ele>
        <time>2021-01-24T10:42:40.000Z</time>
      </trkpt>
      <trkpt lat="46.5436" lon="0.32468">
        <ele>132</ele>
        <time>2021-01-24T10:42:41.000Z</time>
      </trkpt>
      <trkpt lat="46.54363" lon="0.3247">
        <ele>132</ele>
        <time>2021-01-24T10:42:42.000Z</time>
      </trkpt>
      <trkpt lat="46.54365" lon="0.32473">
        <ele>132</ele>
        <time>2021-01-24T10:42:43.000Z</time>
      </trkpt>
      <trkpt lat="46.54369" lon="0.32475">
        <ele>132</ele>
        <time>2021-01-24T10:42:44.000Z</time>
      </trkpt>
      <trkpt lat="46.54373" lon="0.32478">
        <ele>132</ele>
        <time>2021-01-24T10:42:45.000Z</time>
      </trkpt>
      <trkpt lat="46.54376" lon="0.3248">
        <ele>132</ele>
        <time>2021-01-24T10:42:46.000Z</time>
      </trkpt>
      <trkpt lat="46.54381" lon="0.32483">
        <ele>132</ele>
        <time>2021-01-24T10:42:47.000Z</time>
      </trkpt>
      <trkpt lat="46.54387" lon="0.32485">
        <ele>132</ele>
        <time>2021-01-24T10:42:48.000Z</time>
      </trkpt>
      <trkpt lat="46.54391" lon="0.32488">
        <ele>132</ele>
        <time>2021-01-24T10:42:49.000Z</time>
      </trkpt>
      <trkpt lat="46.54396" lon="0.3249">
        <ele>132</ele>
        <time>2021-01-24T10:42:50.000Z</time>
      </trkpt>
      <trkpt lat="46.54403" lon="0.32492">
        <ele>132</ele>
        <time>2021-01-24T10:42:51.000Z</time>
      </trkpt>
      <trkpt lat="46.54409" lon="0.32493">
        <ele>132</ele>
        <time>2021-01-24T10:42:52.000Z</time>
      </trkpt>
      <trkpt lat="46.54416" lon="0.32494">
        <ele>132</ele>
        <time>2021-01-24T10:42:53.000Z</time>
      </trkpt>
      <trkpt lat="46.54423" lon="0.32494">
        <ele>132</ele>
        <time>2021-01-24T10:42:54.000Z</time>
      </trkpt>
      <trkpt lat="46.54431" lon="0.32494">
        <ele>132</ele>
        <time>2021-01-24T10:42:55.000Z</time>
      </trkpt>
      <trkpt lat="46.54434" lon="0.32492">
        <ele>132</ele>
        <time>2021-01-24T10:42:56.000Z</time>
      </trkpt>
      <trkpt lat="46.54438" lon="0.32492">
        <ele>132</ele>
        <time>2021-01-24T10:42:57.000Z</time>
      </trkpt>
      <trkpt lat="46.54442" lon="0.32491">
        <ele>132</ele>
        <time>2021-01-24T10:42:58.000Z</time>
      </trkpt>
      <trkpt lat="46.54446" lon="0.32491">
        <ele>131.8</ele>
        <time>2021-01-24T10:42:59.000Z</time>
      </trkpt>
      <trkpt lat="46.54452" lon="0.32492">
        <ele>131.8</ele>
        <time>2021-01-24T10:43:00.000Z</time>
      </trkpt>
      <trkpt lat="46.54457" lon="0.32491">
        <ele>131.6</ele>
        <time>2021-01-24T10:43:01.000Z</time>
      </trkpt>
      <trkpt lat="46.54461" lon="0.3249">
        <ele>131.6</ele>
        <time>2021-01-24T10:43:02.000Z</time>
      </trkpt>
      <trkpt lat="46.54464" lon="0.32489">
        <ele>131.6</ele>
        <time>2021-01-24T10:43:03.000Z</time>
      </trkpt>
      <trkpt lat="46.54466" lon="0.32487">
        <ele>131.4</ele>
        <time>2021-01-24T10:43:04.000Z</time>
      </trkpt>
      <trkpt lat="46.5447" lon="0.32485">
        <ele>131.4</ele>
        <time>2021-01-24T10:43:05.000Z</time>
      </trkpt>
      <trkpt lat="46.54474" lon="0.32484">
        <ele>131.2</ele>
        <time>2021-01-24T10:43:06.000Z</time>
      </trkpt>
      <trkpt lat="46.54478" lon="0.32483">
        <ele>131.2</ele>
        <time>2021-01-24T10:43:07.000Z</time>
      </trkpt>
      <trkpt lat="46.54482" lon="0.32481">
        <ele>131.2</ele>
        <time>2021-01-24T10:43:08.000Z</time>
      </trkpt>
      <trkpt lat="46.54484" lon="0.32479">
        <ele>131</ele>
        <time>2021-01-24T10:43:09.000Z</time>
      </trkpt>
      <trkpt lat="46.54487" lon="0.32477">
        <ele>131</ele>
        <time>2021-01-24T10:43:10.000Z</time>
      </trkpt>
      <trkpt lat="46.5449" lon="0.32475">
        <ele>130.8</ele>
        <time>2021-01-24T10:43:11.000Z</time>
      </trkpt>
      <trkpt lat="46.54492" lon="0.32473">
        <ele>130.8</ele>
        <time>2021-01-24T10:43:12.000Z</time>
      </trkpt>
      <trkpt lat="46.54494" lon="0.32471">
        <ele>130.6</ele>
        <time>2021-01-24T10:43:13.000Z</time>
      </trkpt>
      <trkpt lat="46.54496" lon="0.32469">
        <ele>130.6</ele>
        <time>2021-01-24T10:43:14.000Z</time>
      </trkpt>
      <trkpt lat="46.54499" lon="0.32469">
        <ele>130.4</ele>
        <time>2021-01-24T10:43:15.000Z</time>
      </trkpt>
      <trkpt lat="46.54501" lon="0.3247">
        <ele>130.4</ele>
        <time>2021-01-24T10:43:16.000Z</time>
      </trkpt>
      <trkpt lat="46.54501" lon="0.3247">
        <ele>130.2</ele>
        <time>2021-01-24T10:43:17.000Z</time>
      </trkpt>
      <trkpt lat="46.54504" lon="0.32472">
        <ele>130</ele>
        <time>2021-01-24T10:43:18.000Z</time>
      </trkpt>
      <trkpt lat="46.54508" lon="0.32474">
        <ele>129.8</ele>
        <time>2021-01-24T10:43:19.000Z</time>
      </trkpt>
      <trkpt lat="46.5451" lon="0.32477">
        <ele>129.8</ele>
        <time>2021-01-24T10:43:20.000Z</time>
      </trkpt>
      <trkpt lat="46.54512" lon="0.32481">
        <ele>129.6</ele>
        <time>2021-01-24T10:43:21.000Z</time>
      </trkpt>
      <trkpt lat="46.54514" lon="0.32484">
        <ele>129.4</ele>
        <time>2021-01-24T10:43:22.000Z</time>
      </trkpt>
      <trkpt lat="46.54517" lon="0.32487">
        <ele>129.2</ele>
        <time>2021-01-24T10:43:23.000Z</time>
      </trkpt>
      <trkpt lat="46.54518" lon="0.32491">
        <ele>129</ele>
        <time>2021-01-24T10:43:24.000Z</time>
      </trkpt>
      <trkpt lat="46.54517" lon="0.32495">
        <ele>129</ele>
        <time>2021-01-24T10:43:25.000Z</time>
      </trkpt>
      <trkpt lat="46.54517" lon="0.32498">
        <ele>128.8</ele>
        <time>2021-01-24T10:43:26.000Z</time>
      </trkpt>
      <trkpt lat="46.54514" lon="0.32503">
        <ele>128.8</ele>
        <time>2021-01-24T10:43:27.000Z</time>
      </trkpt>
      <trkpt lat="46.54512" lon="0.32508">
        <ele>128.8</ele>
        <time>2021-01-24T10:43:28.000Z</time>
      </trkpt>
      <trkpt lat="46.5451" lon="0.32512">
        <ele>128.6</ele>
        <time>2021-01-24T10:43:29.000Z</time>
      </trkpt>
      <trkpt lat="46.54507" lon="0.32514">
        <ele>128.6</ele>
        <time>2021-01-24T10:43:30.000Z</time>
      </trkpt>
      <trkpt lat="46.54502" lon="0.32516">
        <ele>128.4</ele>
        <time>2021-01-24T10:43:31.000Z</time>
      </trkpt>
      <trkpt lat="46.54498" lon="0.32518">
        <ele>128.4</ele>
        <time>2021-01-24T10:43:32.000Z</time>
      </trkpt>
      <trkpt lat="46.54493" lon="0.32519">
        <ele>128.2</ele>
        <time>2021-01-24T10:43:33.000Z</time>
      </trkpt>
      <trkpt lat="46.5449" lon="0.3252">
        <ele>128.2</ele>
        <time>2021-01-24T10:43:34.000Z</time>
      </trkpt>
      <trkpt lat="46.54486" lon="0.32521">
        <ele>128</ele>
        <time>2021-01-24T10:43:35.000Z</time>
      </trkpt>
      <trkpt lat="46.54484" lon="0.32523">
        <ele>128</ele>
        <time>2021-01-24T10:43:36.000Z</time>
      </trkpt>
      <trkpt lat="46.54482" lon="0.32526">
        <ele>128</ele>
        <time>2021-01-24T10:43:37.000Z</time>
      </trkpt>
      <trkpt lat="46.5448" lon="0.32531">
        <ele>127.8</ele>
        <time>2021-01-24T10:43:38.000Z</time>
      </trkpt>
      <trkpt lat="46.54478" lon="0.32536">
        <ele>127.8</ele>
        <time>2021-01-24T10:43:39.000Z</time>
      </trkpt>
      <trkpt lat="46.54478" lon="0.32541">
        <ele>127.8</ele>
        <time>2021-01-24T10:43:40.000Z</time>
      </trkpt>
      <trkpt lat="46.54478" lon="0.32546">
        <ele>127.6</ele>
        <time>2021-01-24T10:43:41.000Z</time>
      </trkpt>
      <trkpt lat="46.54478" lon="0.32551">
        <ele>127.6</ele>
        <time>2021-01-24T10:43:42.000Z</time>
      </trkpt>
      <trkpt lat="46.54478" lon="0.32556">
        <ele>127.4</ele>
        <time>2021-01-24T10:43:43.000Z</time>
      </trkpt>
      <trkpt lat="46.5448" lon="0.3256">
        <ele>127.4</ele>
        <time>2021-01-24T10:43:44.000Z</time>
      </trkpt>
      <trkpt lat="46.54483" lon="0.32563">
        <ele>127.4</ele>
        <time>2021-01-24T10:43:45.000Z</time>
      </trkpt>
      <trkpt lat="46.54486" lon="0.32567">
        <ele>127.2</ele>
        <time>2021-01-24T10:43:46.000Z</time>
      </trkpt>
      <trkpt lat="46.54488" lon="0.32571">
        <ele>127.2</ele>
        <time>2021-01-24T10:43:47.000Z</time>
      </trkpt>
      <trkpt lat="46.5449" lon="0.32575">
        <ele>127</ele>
        <time>2021-01-24T10:43:48.000Z</time>
      </trkpt>
      <trkpt lat="46.54491" lon="0.32579">
        <ele>127</ele>
        <time>2021-01-24T10:43:49.000Z</time>
      </trkpt>
      <trkpt lat="46.54492" lon="0.32582">
        <ele>127</ele>
        <time>2021-01-24T10:43:50.000Z</time>
      </trkpt>
      <trkpt lat="46.54492" lon="0.32586">
        <ele>126.8</ele>
        <time>2021-01-24T10:43:51.000Z</time>
      </trkpt>
      <trkpt lat="46.54492" lon="0.32589">
        <ele>126.8</ele>
        <time>2021-01-24T10:43:52.000Z</time>
      </trkpt>
      <trkpt lat="46.54492" lon="0.32593">
        <ele>126.8</ele>
        <time>2021-01-24T10:43:53.000Z</time>
      </trkpt>
      <trkpt lat="46.54489" lon="0.32594">
        <ele>126.6</ele>
        <time>2021-01-24T10:43:54.000Z</time>
      </trkpt>
      <trkpt lat="46.54487" lon="0.32596">
        <ele>126.6</ele>
        <time>2021-01-24T10:43:55.000Z</time>
      </trkpt>
      <trkpt lat="46.54485" lon="0.32597">
        <ele>126.6</ele>
        <time>2021-01-24T10:43:56.000Z</time>
      </trkpt>
      <trkpt lat="46.54483" lon="0.32598">
        <ele>126.4</ele>
        <time>2021-01-24T10:43:57.000Z</time>
      </trkpt>
      <trkpt lat="46.54481" lon="0.32599">
        <ele>126.4</ele>
        <time>2021-01-24T10:43:58.000Z</time>
      </trkpt>
      <trkpt lat="46.54478" lon="0.326">
        <ele>126.2</ele>
        <time>2021-01-24T10:43:59.000Z</time>
      </trkpt>
      <trkpt lat="46.54475" lon="0.326">
        <ele>126.2</ele>
        <time>2021-01-24T10:44:00.000Z</time>
      </trkpt>
      <trkpt lat="46.54472" lon="0.32599">
        <ele>126</ele>
        <time>2021-01-24T10:44:01.000Z</time>
      </trkpt>
      <trkpt lat="46.5447" lon="0.32598">
        <ele>126</ele>
        <time>2021-01-24T10:44:02.000Z</time>
      </trkpt>
      <trkpt lat="46.54467" lon="0.32598">
        <ele>126</ele>
        <time>2021-01-24T10:44:03.000Z</time>
      </trkpt>
      <trkpt lat="46.54464" lon="0.32598">
        <ele>125.8</ele>
        <time>2021-01-24T10:44:04.000Z</time>
      </trkpt>
      <trkpt lat="46.54461" lon="0.32598">
        <ele>125.8</ele>
        <time>2021-01-24T10:44:05.000Z</time>
      </trkpt>
      <trkpt lat="46.54457" lon="0.32599">
        <ele>125.8</ele>
        <time>2021-01-24T10:44:06.000Z</time>
      </trkpt>
      <trkpt lat="46.54453" lon="0.32599">
        <ele>125.6</ele>
        <time>2021-01-24T10:44:07.000Z</time>
      </trkpt>
      <trkpt lat="46.54448" lon="0.326">
        <ele>125.6</ele>
        <time>2021-01-24T10:44:08.000Z</time>
      </trkpt>
      <trkpt lat="46.54445" lon="0.32602">
        <ele>125.6</ele>
        <time>2021-01-24T10:44:09.000Z</time>
      </trkpt>
      <trkpt lat="46.54441" lon="0.32603">
        <ele>125.4</ele>
        <time>2021-01-24T10:44:10.000Z</time>
      </trkpt>
      <trkpt lat="46.54437" lon="0.32607">
        <ele>125.4</ele>
        <time>2021-01-24T10:44:11.000Z</time>
      </trkpt>
      <trkpt lat="46.54435" lon="0.32611">
        <ele>125.2</ele>
        <time>2021-01-24T10:44:12.000Z</time>
      </trkpt>
      <trkpt lat="46.54431" lon="0.32614">
        <ele>125.2</ele>
        <time>2021-01-24T10:44:13.000Z</time>
      </trkpt>
      <trkpt lat="46.54429" lon="0.32618">
        <ele>125.2</ele>
        <time>2021-01-24T10:44:14.000Z</time>
      </trkpt>
      <trkpt lat="46.54426" lon="0.32621">
        <ele>125</ele>
        <time>2021-01-24T10:44:15.000Z</time>
      </trkpt>
      <trkpt lat="46.54424" lon="0.32622">
        <ele>125</ele>
        <time>2021-01-24T10:44:16.000Z</time>
      </trkpt>
      <trkpt lat="46.54421" lon="0.32624">
        <ele>124.8</ele>
        <time>2021-01-24T10:44:17.000Z</time>
      </trkpt>
      <trkpt lat="46.54419" lon="0.32627">
        <ele>124.6</ele>
        <time>2021-01-24T10:44:18.000Z</time>
      </trkpt>
      <trkpt lat="46.54416" lon="0.3263">
        <ele>124.6</ele>
        <time>2021-01-24T10:44:19.000Z</time>
      </trkpt>
      <trkpt lat="46.54413" lon="0.32633">
        <ele>124.4</ele>
        <time>2021-01-24T10:44:20.000Z</time>
      </trkpt>
      <trkpt lat="46.54409" lon="0.32636">
        <ele>124.4</ele>
        <time>2021-01-24T10:44:21.000Z</time>
      </trkpt>
      <trkpt lat="46.54406" lon="0.3264">
        <ele>124.2</ele>
        <time>2021-01-24T10:44:22.000Z</time>
      </trkpt>
      <trkpt lat="46.54402" lon="0.32644">
        <ele>124.2</ele>
        <time>2021-01-24T10:44:23.000Z</time>
      </trkpt>
      <trkpt lat="46.54398" lon="0.32648">
        <ele>124</ele>
        <time>2021-01-24T10:44:24.000Z</time>
      </trkpt>
      <trkpt lat="46.54395" lon="0.32651">
        <ele>123.8</ele>
        <time>2021-01-24T10:44:25.000Z</time>
      </trkpt>
      <trkpt lat="46.54395" lon="0.32651">
        <ele>123.8</ele>
        <time>2021-01-24T10:44:26.000Z</time>
      </trkpt>
      <trkpt lat="46.54393" lon="0.32654">
        <ele>123.6</ele>
        <time>2021-01-24T10:44:27.000Z</time>
      </trkpt>
      <trkpt lat="46.54393" lon="0.32654">
        <ele>123.4</ele>
        <time>2021-01-24T10:44:28.000Z</time>
      </trkpt>
      <trkpt lat="46.54395" lon="0.32655">
        <ele>123.4</ele>
        <time>2021-01-24T10:44:29.000Z</time>
      </trkpt>
      <trkpt lat="46.54396" lon="0.32658">
        <ele>123.2</ele>
        <time>2021-01-24T10:44:30.000Z</time>
      </trkpt>
      <trkpt lat="46.54397" lon="0.32662">
        <ele>123.2</ele>
        <time>2021-01-24T10:44:31.000Z</time>
      </trkpt>
      <trkpt lat="46.54396" lon="0.32666">
        <ele>123</ele>
        <time>2021-01-24T10:44:32.000Z</time>
      </trkpt>
      <trkpt lat="46.54394" lon="0.32668">
        <ele>122.8</ele>
        <time>2021-01-24T10:44:33.000Z</time>
      </trkpt>
      <trkpt lat="46.5439" lon="0.32671">
        <ele>122.6</ele>
        <time>2021-01-24T10:44:34.000Z</time>
      </trkpt>
      <trkpt lat="46.54387" lon="0.32672">
        <ele>122.6</ele>
        <time>2021-01-24T10:44:35.000Z</time>
      </trkpt>
      <trkpt lat="46.54385" lon="0.32673">
        <ele>122.4</ele>
        <time>2021-01-24T10:44:36.000Z</time>
      </trkpt>
      <trkpt lat="46.54382" lon="0.32674">
        <ele>122.2</ele>
        <time>2021-01-24T10:44:37.000Z</time>
      </trkpt>
      <trkpt lat="46.5438" lon="0.32678">
        <ele>122</ele>
        <time>2021-01-24T10:44:38.000Z</time>
      </trkpt>
      <trkpt lat="46.54378" lon="0.32685">
        <ele>122</ele>
        <time>2021-01-24T10:44:39.000Z</time>
      </trkpt>
      <trkpt lat="46.54376" lon="0.32691">
        <ele>121.8</ele>
        <time>2021-01-24T10:44:40.000Z</time>
      </trkpt>
      <trkpt lat="46.54374" lon="0.32695">
        <ele>121.6</ele>
        <time>2021-01-24T10:44:41.000Z</time>
      </trkpt>
      <trkpt lat="46.54373" lon="0.327">
        <ele>121.4</ele>
        <time>2021-01-24T10:44:42.000Z</time>
      </trkpt>
      <trkpt lat="46.54373" lon="0.32705">
        <ele>121.2</ele>
        <time>2021-01-24T10:44:43.000Z</time>
      </trkpt>
      <trkpt lat="46.54371" lon="0.32708">
        <ele>121</ele>
        <time>2021-01-24T10:44:44.000Z</time>
      </trkpt>
      <trkpt lat="46.54368" lon="0.32711">
        <ele>120.8</ele>
        <time>2021-01-24T10:44:45.000Z</time>
      </trkpt>
      <trkpt lat="46.54365" lon="0.32712">
        <ele>120.6</ele>
        <time>2021-01-24T10:44:46.000Z</time>
      </trkpt>
      <trkpt lat="46.54361" lon="0.32713">
        <ele>120.4</ele>
        <time>2021-01-24T10:44:47.000Z</time>
      </trkpt>
      <trkpt lat="46.54357" lon="0.32715">
        <ele>120.4</ele>
        <time>2021-01-24T10:44:48.000Z</time>
      </trkpt>
      <trkpt lat="46.54354" lon="0.32716">
        <ele>120.2</ele>
        <time>2021-01-24T10:44:49.000Z</time>
      </trkpt>
      <trkpt lat="46.54351" lon="0.32717">
        <ele>120</ele>
        <time>2021-01-24T10:44:50.000Z</time>
      </trkpt>
      <trkpt lat="46.54349" lon="0.32718">
        <ele>119.8</ele>
        <time>2021-01-24T10:44:51.000Z</time>
      </trkpt>
      <trkpt lat="46.54349" lon="0.32718">
        <ele>119.6</ele>
        <time>2021-01-24T10:44:52.000Z</time>
      </trkpt>
      <trkpt lat="46.54347" lon="0.3272">
        <ele>119.4</ele>
        <time>2021-01-24T10:44:53.000Z</time>
      </trkpt>
      <trkpt lat="46.54347" lon="0.3272">
        <ele>119.2</ele>
        <time>2021-01-24T10:44:54.000Z</time>
      </trkpt>
      <trkpt lat="46.54345" lon="0.32723">
        <ele>119.2</ele>
        <time>2021-01-24T10:44:55.000Z</time>
      </trkpt>
      <trkpt lat="46.54345" lon="0.32723">
        <ele>119</ele>
        <time>2021-01-24T10:44:56.000Z</time>
      </trkpt>
      <trkpt lat="46.54345" lon="0.32723">
        <ele>118.8</ele>
        <time>2021-01-24T10:44:57.000Z</time>
      </trkpt>
      <trkpt lat="46.54345" lon="0.32723">
        <ele>118.6</ele>
        <time>2021-01-24T10:44:58.000Z</time>
      </trkpt>
      <trkpt lat="46.54343" lon="0.32721">
        <ele>118.4</ele>
        <time>2021-01-24T10:44:59.000Z</time>
      </trkpt>
      <trkpt lat="46.54343" lon="0.32721">
        <ele>118</ele>
        <time>2021-01-24T10:45:00.000Z</time>
      </trkpt>
      <trkpt lat="46.54341" lon="0.32722">
        <ele>117.8</ele>
        <time>2021-01-24T10:45:01.000Z</time>
      </trkpt>
      <trkpt lat="46.54341" lon="0.32722">
        <ele>117.6</ele>
        <time>2021-01-24T10:45:02.000Z</time>
      </trkpt>
      <trkpt lat="46.54341" lon="0.32722">
        <ele>117.4</ele>
        <time>2021-01-24T10:45:03.000Z</time>
      </trkpt>
      <trkpt lat="46.54341" lon="0.32722">
        <ele>117.2</ele>
        <time>2021-01-24T10:45:04.000Z</time>
      </trkpt>
      <trkpt lat="46.54344" lon="0.32721">
        <ele>117.2</ele>
        <time>2021-01-24T10:45:05.000Z</time>
      </trkpt>
      <trkpt lat="46.54344" lon="0.32721">
        <ele>117</ele>
        <time>2021-01-24T10:45:06.000Z</time>
      </trkpt>
      <trkpt lat="46.54344" lon="0.32721">
        <ele>116.8</ele>
        <time>2021-01-24T10:45:07.000Z</time>
      </trkpt>
      <trkpt lat="46.54344" lon="0.32721">
        <ele>116.8</ele>
        <time>2021-01-24T10:45:08.000Z</time>
      </trkpt>
      <trkpt lat="46.54344" lon="0.32721">
        <ele>116.6</ele>
        <time>2021-01-24T10:45:09.000Z</time>
      </trkpt>
      <trkpt lat="46.54344" lon="0.32721">
        <ele>116.4</ele>
        <time>2021-01-24T10:45:10.000Z</time>
      </trkpt>
      <trkpt lat="46.54344" lon="0.32721">
        <ele>116.4</ele>
        <time>2021-01-24T10:45:11.000Z</time>
      </trkpt>
      <trkpt lat="46.54344" lon="0.32721">
        <ele>116.2</ele>
        <time>2021-01-24T10:45:12.000Z</time>
      </trkpt>
      <trkpt lat="46.54344" lon="0.32721">
        <ele>116.2</ele>
        <time>2021-01-24T10:45:13.000Z</time>
      </trkpt>
      <trkpt lat="46.54344" lon="0.32721">
        <ele>116</ele>
        <time>2021-01-24T10:45:14.000Z</time>
      </trkpt>
      <trkpt lat="46.54344" lon="0.32721">
        <ele>116</ele>
        <time>2021-01-24T10:45:15.000Z</time>
      </trkpt>
      <trkpt lat="46.54344" lon="0.32721">
        <ele>115.8</ele>
        <time>2021-01-24T10:45:16.000Z</time>
      </trkpt>
      <trkpt lat="46.54344" lon="0.32721">
        <ele>115.8</ele>
        <time>2021-01-24T10:45:17.000Z</time>
      </trkpt>
      <trkpt lat="46.54344" lon="0.32721">
        <ele>115.6</ele>
        <time>2021-01-24T10:45:18.000Z</time>
      </trkpt>
      <trkpt lat="46.54342" lon="0.32723">
        <ele>115.6</ele>
        <time>2021-01-24T10:45:19.000Z</time>
      </trkpt>
      <trkpt lat="46.54342" lon="0.32723">
        <ele>115.6</ele>
        <time>2021-01-24T10:45:20.000Z</time>
      </trkpt>
      <trkpt lat="46.54342" lon="0.32723">
        <ele>115.4</ele>
        <time>2021-01-24T10:45:21.000Z</time>
      </trkpt>
      <trkpt lat="46.5434" lon="0.32722">
        <ele>115.4</ele>
        <time>2021-01-24T10:45:22.000Z</time>
      </trkpt>
      <trkpt lat="46.5434" lon="0.32722">
        <ele>115.2</ele>
        <time>2021-01-24T10:45:23.000Z</time>
      </trkpt>
      <trkpt lat="46.5434" lon="0.32722">
        <ele>115</ele>
        <time>2021-01-24T10:45:24.000Z</time>
      </trkpt>
      <trkpt lat="46.5434" lon="0.32722">
        <ele>114.8</ele>
        <time>2021-01-24T10:45:25.000Z</time>
      </trkpt>
      <trkpt lat="46.5434" lon="0.32722">
        <ele>114.8</ele>
        <time>2021-01-24T10:45:26.000Z</time>
      </trkpt>
      <trkpt lat="46.5434" lon="0.32722">
        <ele>114.6</ele>
        <time>2021-01-24T10:45:27.000Z</time>
      </trkpt>
      <trkpt lat="46.5434" lon="0.32722">
        <ele>114.4</ele>
        <time>2021-01-24T10:45:28.000Z</time>
      </trkpt>
      <trkpt lat="46.5434" lon="0.32722">
        <ele>114.4</ele>
        <time>2021-01-24T10:45:29.000Z</time>
      </trkpt>
      <trkpt lat="46.54338" lon="0.32722">
        <ele>114.4</ele>
        <time>2021-01-24T10:45:30.000Z</time>
      </trkpt>
      <trkpt lat="46.54338" lon="0.32722">
        <ele>114.2</ele>
        <time>2021-01-24T10:45:31.000Z</time>
      </trkpt>
      <trkpt lat="46.54335" lon="0.3272">
        <ele>114.2</ele>
        <time>2021-01-24T10:45:32.000Z</time>
      </trkpt>
      <trkpt lat="46.54335" lon="0.3272">
        <ele>114</ele>
        <time>2021-01-24T10:45:33.000Z</time>
      </trkpt>
      <trkpt lat="46.54333" lon="0.32719">
        <ele>114</ele>
        <time>2021-01-24T10:45:34.000Z</time>
      </trkpt>
      <trkpt lat="46.54333" lon="0.32719">
        <ele>113.8</ele>
        <time>2021-01-24T10:45:35.000Z</time>
      </trkpt>
      <trkpt lat="46.5433" lon="0.32717">
        <ele>113.8</ele>
        <time>2021-01-24T10:45:36.000Z</time>
      </trkpt>
      <trkpt lat="46.5433" lon="0.32717">
        <ele>113.6</ele>
        <time>2021-01-24T10:45:37.000Z</time>
      </trkpt>
      <trkpt lat="46.54329" lon="0.32715">
        <ele>113.6</ele>
        <time>2021-01-24T10:45:38.000Z</time>
      </trkpt>
      <trkpt lat="46.54329" lon="0.32715">
        <ele>113.4</ele>
        <time>2021-01-24T10:45:39.000Z</time>
      </trkpt>
      <trkpt lat="46.54327" lon="0.32715">
        <ele>113.2</ele>
        <time>2021-01-24T10:45:40.000Z</time>
      </trkpt>
      <trkpt lat="46.54327" lon="0.32715">
        <ele>113.2</ele>
        <time>2021-01-24T10:45:41.000Z</time>
      </trkpt>
      <trkpt lat="46.54321" lon="0.32716">
        <ele>113</ele>
        <time>2021-01-24T10:45:42.000Z</time>
      </trkpt>
      <trkpt lat="46.54319" lon="0.32717">
        <ele>112.8</ele>
        <time>2021-01-24T10:45:43.000Z</time>
      </trkpt>
      <trkpt lat="46.54317" lon="0.32719">
        <ele>112.8</ele>
        <time>2021-01-24T10:45:44.000Z</time>
      </trkpt>
      <trkpt lat="46.54315" lon="0.32721">
        <ele>112.6</ele>
        <time>2021-01-24T10:45:45.000Z</time>
      </trkpt>
      <trkpt lat="46.54312" lon="0.32722">
        <ele>112.4</ele>
        <time>2021-01-24T10:45:46.000Z</time>
      </trkpt>
      <trkpt lat="46.54309" lon="0.32724">
        <ele>112.4</ele>
        <time>2021-01-24T10:45:47.000Z</time>
      </trkpt>
      <trkpt lat="46.54305" lon="0.32727">
        <ele>112.2</ele>
        <time>2021-01-24T10:45:48.000Z</time>
      </trkpt>
      <trkpt lat="46.54301" lon="0.32728">
        <ele>112</ele>
        <time>2021-01-24T10:45:49.000Z</time>
      </trkpt>
      <trkpt lat="46.54298" lon="0.32729">
        <ele>112</ele>
        <time>2021-01-24T10:45:50.000Z</time>
      </trkpt>
      <trkpt lat="46.54294" lon="0.32729">
        <ele>111.8</ele>
        <time>2021-01-24T10:45:51.000Z</time>
      </trkpt>
      <trkpt lat="46.5429" lon="0.32729">
        <ele>111.6</ele>
        <time>2021-01-24T10:45:52.000Z</time>
      </trkpt>
      <trkpt lat="46.54285" lon="0.32729">
        <ele>111.4</ele>
        <time>2021-01-24T10:45:53.000Z</time>
      </trkpt>
      <trkpt lat="46.54277" lon="0.32727">
        <ele>111.4</ele>
        <time>2021-01-24T10:45:54.000Z</time>
      </trkpt>
      <trkpt lat="46.54268" lon="0.32726">
        <ele>111.2</ele>
        <time>2021-01-24T10:45:55.000Z</time>
      </trkpt>
      <trkpt lat="46.5426" lon="0.32724">
        <ele>111</ele>
        <time>2021-01-24T10:45:56.000Z</time>
      </trkpt>
      <trkpt lat="46.54252" lon="0.32722">
        <ele>111</ele>
        <time>2021-01-24T10:45:57.000Z</time>
      </trkpt>
      <trkpt lat="46.54245" lon="0.32721">
        <ele>110.8</ele>
        <time>2021-01-24T10:45:58.000Z</time>
      </trkpt>
      <trkpt lat="46.54238" lon="0.32719">
        <ele>110.6</ele>
        <time>2021-01-24T10:45:59.000Z</time>
      </trkpt>
      <trkpt lat="46.54233" lon="0.32717">
        <ele>110.4</ele>
        <time>2021-01-24T10:46:00.000Z</time>
      </trkpt>
      <trkpt lat="46.54227" lon="0.32714">
        <ele>110.4</ele>
        <time>2021-01-24T10:46:01.000Z</time>
      </trkpt>
      <trkpt lat="46.54222" lon="0.32714">
        <ele>110.2</ele>
        <time>2021-01-24T10:46:02.000Z</time>
      </trkpt>
      <trkpt lat="46.54218" lon="0.32715">
        <ele>110</ele>
        <time>2021-01-24T10:46:03.000Z</time>
      </trkpt>
      <trkpt lat="46.54214" lon="0.32716">
        <ele>110</ele>
        <time>2021-01-24T10:46:04.000Z</time>
      </trkpt>
      <trkpt lat="46.54214" lon="0.32716">
        <ele>109.8</ele>
        <time>2021-01-24T10:46:05.000Z</time>
      </trkpt>
      <trkpt lat="46.54211" lon="0.32717">
        <ele>109.6</ele>
        <time>2021-01-24T10:46:06.000Z</time>
      </trkpt>
      <trkpt lat="46.54208" lon="0.32718">
        <ele>109.6</ele>
        <time>2021-01-24T10:46:07.000Z</time>
      </trkpt>
      <trkpt lat="46.54208" lon="0.32718">
        <ele>109.4</ele>
        <time>2021-01-24T10:46:08.000Z</time>
      </trkpt>
      <trkpt lat="46.54206" lon="0.3272">
        <ele>109.2</ele>
        <time>2021-01-24T10:46:09.000Z</time>
      </trkpt>
      <trkpt lat="46.54206" lon="0.3272">
        <ele>109.2</ele>
        <time>2021-01-24T10:46:10.000Z</time>
      </trkpt>
      <trkpt lat="46.54206" lon="0.3272">
        <ele>109</ele>
        <time>2021-01-24T10:46:11.000Z</time>
      </trkpt>
      <trkpt lat="46.54205" lon="0.32723">
        <ele>108.8</ele>
        <time>2021-01-24T10:46:12.000Z</time>
      </trkpt>
      <trkpt lat="46.54204" lon="0.32726">
        <ele>108.8</ele>
        <time>2021-01-24T10:46:13.000Z</time>
      </trkpt>
      <trkpt lat="46.54204" lon="0.32726">
        <ele>108.8</ele>
        <time>2021-01-24T10:46:14.000Z</time>
      </trkpt>
      <trkpt lat="46.54202" lon="0.32729">
        <ele>108.6</ele>
        <time>2021-01-24T10:46:15.000Z</time>
      </trkpt>
      <trkpt lat="46.54202" lon="0.32729">
        <ele>108.4</ele>
        <time>2021-01-24T10:46:16.000Z</time>
      </trkpt>
      <trkpt lat="46.54202" lon="0.32734">
        <ele>108.4</ele>
        <time>2021-01-24T10:46:17.000Z</time>
      </trkpt>
      <trkpt lat="46.54202" lon="0.32737">
        <ele>108.2</ele>
        <time>2021-01-24T10:46:18.000Z</time>
      </trkpt>
      <trkpt lat="46.54202" lon="0.3274">
        <ele>108</ele>
        <time>2021-01-24T10:46:19.000Z</time>
      </trkpt>
      <trkpt lat="46.54201" lon="0.32743">
        <ele>108</ele>
        <time>2021-01-24T10:46:20.000Z</time>
      </trkpt>
      <trkpt lat="46.54201" lon="0.32745">
        <ele>107.8</ele>
        <time>2021-01-24T10:46:21.000Z</time>
      </trkpt>
      <trkpt lat="46.54201" lon="0.32745">
        <ele>107.6</ele>
        <time>2021-01-24T10:46:22.000Z</time>
      </trkpt>
      <trkpt lat="46.54199" lon="0.3275">
        <ele>107.4</ele>
        <time>2021-01-24T10:46:23.000Z</time>
      </trkpt>
      <trkpt lat="46.54197" lon="0.32755">
        <ele>107</ele>
        <time>2021-01-24T10:46:24.000Z</time>
      </trkpt>
      <trkpt lat="46.54196" lon="0.32759">
        <ele>106.8</ele>
        <time>2021-01-24T10:46:25.000Z</time>
      </trkpt>
      <trkpt lat="46.54194" lon="0.32763">
        <ele>106.6</ele>
        <time>2021-01-24T10:46:26.000Z</time>
      </trkpt>
      <trkpt lat="46.54192" lon="0.32767">
        <ele>106.4</ele>
        <time>2021-01-24T10:46:27.000Z</time>
      </trkpt>
      <trkpt lat="46.5419" lon="0.32771">
        <ele>106.2</ele>
        <time>2021-01-24T10:46:28.000Z</time>
      </trkpt>
      <trkpt lat="46.54188" lon="0.32773">
        <ele>105.8</ele>
        <time>2021-01-24T10:46:29.000Z</time>
      </trkpt>
      <trkpt lat="46.54187" lon="0.32775">
        <ele>105.6</ele>
        <time>2021-01-24T10:46:30.000Z</time>
      </trkpt>
      <trkpt lat="46.54185" lon="0.32778">
        <ele>105.4</ele>
        <time>2021-01-24T10:46:31.000Z</time>
      </trkpt>
      <trkpt lat="46.54185" lon="0.32778">
        <ele>105.2</ele>
        <time>2021-01-24T10:46:32.000Z</time>
      </trkpt>
      <trkpt lat="46.54182" lon="0.32779">
        <ele>105</ele>
        <time>2021-01-24T10:46:33.000Z</time>
      </trkpt>
      <trkpt lat="46.54182" lon="0.32779">
        <ele>104.6</ele>
        <time>2021-01-24T10:46:34.000Z</time>
      </trkpt>
      <trkpt lat="46.5418" lon="0.32775">
        <ele>104.4</ele>
        <time>2021-01-24T10:46:35.000Z</time>
      </trkpt>
      <trkpt lat="46.54178" lon="0.32773">
        <ele>104.2</ele>
        <time>2021-01-24T10:46:36.000Z</time>
      </trkpt>
      <trkpt lat="46.54177" lon="0.32771">
        <ele>104</ele>
        <time>2021-01-24T10:46:37.000Z</time>
      </trkpt>
      <trkpt lat="46.54177" lon="0.32771">
        <ele>103.8</ele>
        <time>2021-01-24T10:46:38.000Z</time>
      </trkpt>
      <trkpt lat="46.54175" lon="0.32769">
        <ele>103.4</ele>
        <time>2021-01-24T10:46:39.000Z</time>
      </trkpt>
      <trkpt lat="46.54174" lon="0.32766">
        <ele>103.2</ele>
        <time>2021-01-24T10:46:40.000Z</time>
      </trkpt>
      <trkpt lat="46.54174" lon="0.32766">
        <ele>103</ele>
        <time>2021-01-24T10:46:41.000Z</time>
      </trkpt>
      <trkpt lat="46.54172" lon="0.32765">
        <ele>102.8</ele>
        <time>2021-01-24T10:46:42.000Z</time>
      </trkpt>
      <trkpt lat="46.5417" lon="0.32765">
        <ele>102.6</ele>
        <time>2021-01-24T10:46:43.000Z</time>
      </trkpt>
      <trkpt lat="46.5417" lon="0.32765">
        <ele>102.2</ele>
        <time>2021-01-24T10:46:44.000Z</time>
      </trkpt>
      <trkpt lat="46.54167" lon="0.32764">
        <ele>102</ele>
        <time>2021-01-24T10:46:45.000Z</time>
      </trkpt>
      <trkpt lat="46.54167" lon="0.32764">
        <ele>101.6</ele>
        <time>2021-01-24T10:46:46.000Z</time>
      </trkpt>
      <trkpt lat="46.54165" lon="0.32764">
        <ele>101.4</ele>
        <time>2021-01-24T10:46:47.000Z</time>
      </trkpt>
      <trkpt lat="46.54165" lon="0.32764">
        <ele>101</ele>
        <time>2021-01-24T10:46:48.000Z</time>
      </trkpt>
      <trkpt lat="46.54162" lon="0.32765">
        <ele>100.6</ele>
        <time>2021-01-24T10:46:49.000Z</time>
      </trkpt>
      <trkpt lat="46.54162" lon="0.32765">
        <ele>100.2</ele>
        <time>2021-01-24T10:46:50.000Z</time>
      </trkpt>
      <trkpt lat="46.54158" lon="0.32765">
        <ele>99.8</ele>
        <time>2021-01-24T10:46:51.000Z</time>
      </trkpt>
      <trkpt lat="46.54158" lon="0.32765">
        <ele>99.4</ele>
        <time>2021-01-24T10:46:52.000Z</time>
      </trkpt>
      <trkpt lat="46.54155" lon="0.32766">
        <ele>99</ele>
        <time>2021-01-24T10:46:53.000Z</time>
      </trkpt>
      <trkpt lat="46.54155" lon="0.32766">
        <ele>98.6</ele>
        <time>2021-01-24T10:46:54.000Z</time>
      </trkpt>
      <trkpt lat="46.54153" lon="0.32766">
        <ele>98.4</ele>
        <time>2021-01-24T10:46:55.000Z</time>
      </trkpt>
      <trkpt lat="46.54153" lon="0.32766">
        <ele>98</ele>
        <time>2021-01-24T10:46:56.000Z</time>
      </trkpt>
      <trkpt lat="46.5415" lon="0.32766">
        <ele>97.6</ele>
        <time>2021-01-24T10:46:57.000Z</time>
      </trkpt>
      <trkpt lat="46.54148" lon="0.32767">
        <ele>97.4</ele>
        <time>2021-01-24T10:46:58.000Z</time>
      </trkpt>
      <trkpt lat="46.54146" lon="0.32767">
        <ele>97</ele>
        <time>2021-01-24T10:46:59.000Z</time>
      </trkpt>
      <trkpt lat="46.54144" lon="0.32767">
        <ele>96.6</ele>
        <time>2021-01-24T10:47:00.000Z</time>
      </trkpt>
      <trkpt lat="46.54141" lon="0.32765">
        <ele>96.2</ele>
        <time>2021-01-24T10:47:01.000Z</time>
      </trkpt>
      <trkpt lat="46.54139" lon="0.32765">
        <ele>95.8</ele>
        <time>2021-01-24T10:47:02.000Z</time>
      </trkpt>
      <trkpt lat="46.54139" lon="0.32765">
        <ele>95.6</ele>
        <time>2021-01-24T10:47:03.000Z</time>
      </trkpt>
      <trkpt lat="46.54134" lon="0.32767">
        <ele>95.2</ele>
        <time>2021-01-24T10:47:04.000Z</time>
      </trkpt>
      <trkpt lat="46.54133" lon="0.32767">
        <ele>94.8</ele>
        <time>2021-01-24T10:47:05.000Z</time>
      </trkpt>
      <trkpt lat="46.54133" lon="0.32767">
        <ele>94.4</ele>
        <time>2021-01-24T10:47:06.000Z</time>
      </trkpt>
      <trkpt lat="46.5413" lon="0.32767">
        <ele>94</ele>
        <time>2021-01-24T10:47:07.000Z</time>
      </trkpt>
      <trkpt lat="46.5413" lon="0.32767">
        <ele>93.6</ele>
        <time>2021-01-24T10:47:08.000Z</time>
      </trkpt>
      <trkpt lat="46.54127" lon="0.32768">
        <ele>93.4</ele>
        <time>2021-01-24T10:47:09.000Z</time>
      </trkpt>
      <trkpt lat="46.54127" lon="0.32768">
        <ele>93</ele>
        <time>2021-01-24T10:47:10.000Z</time>
      </trkpt>
      <trkpt lat="46.54125" lon="0.32769">
        <ele>92.8</ele>
        <time>2021-01-24T10:47:11.000Z</time>
      </trkpt>
      <trkpt lat="46.54125" lon="0.32769">
        <ele>92.4</ele>
        <time>2021-01-24T10:47:12.000Z</time>
      </trkpt>
      <trkpt lat="46.54122" lon="0.32771">
        <ele>92.2</ele>
        <time>2021-01-24T10:47:13.000Z</time>
      </trkpt>
      <trkpt lat="46.54122" lon="0.32771">
        <ele>91.8</ele>
        <time>2021-01-24T10:47:14.000Z</time>
      </trkpt>
      <trkpt lat="46.5412" lon="0.32771">
        <ele>91.4</ele>
        <time>2021-01-24T10:47:15.000Z</time>
      </trkpt>
      <trkpt lat="46.5412" lon="0.32771">
        <ele>91.2</ele>
        <time>2021-01-24T10:47:16.000Z</time>
      </trkpt>
      <trkpt lat="46.5412" lon="0.32771">
        <ele>91</ele>
        <time>2021-01-24T10:47:17.000Z</time>
      </trkpt>
      <trkpt lat="46.54118" lon="0.32773">
        <ele>90.6</ele>
        <time>2021-01-24T10:47:18.000Z</time>
      </trkpt>
      <trkpt lat="46.54118" lon="0.32773">
        <ele>90.4</ele>
        <time>2021-01-24T10:47:19.000Z</time>
      </trkpt>
      <trkpt lat="46.54118" lon="0.32773">
        <ele>90.2</ele>
        <time>2021-01-24T10:47:20.000Z</time>
      </trkpt>
      <trkpt lat="46.54115" lon="0.32773">
        <ele>90</ele>
        <time>2021-01-24T10:47:21.000Z</time>
      </trkpt>
      <trkpt lat="46.54115" lon="0.32773">
        <ele>89.8</ele>
        <time>2021-01-24T10:47:22.000Z</time>
      </trkpt>
      <trkpt lat="46.54115" lon="0.32773">
        <ele>89.6</ele>
        <time>2021-01-24T10:47:23.000Z</time>
      </trkpt>
      <trkpt lat="46.54115" lon="0.32773">
        <ele>89.2</ele>
        <time>2021-01-24T10:47:24.000Z</time>
      </trkpt>
      <trkpt lat="46.54115" lon="0.32773">
        <ele>89</ele>
        <time>2021-01-24T10:47:25.000Z</time>
      </trkpt>
      <trkpt lat="46.54115" lon="0.32773">
        <ele>88.8</ele>
        <time>2021-01-24T10:47:26.000Z</time>
      </trkpt>
      <trkpt lat="46.54115" lon="0.32773">
        <ele>88.6</ele>
        <time>2021-01-24T10:47:27.000Z</time>
      </trkpt>
      <trkpt lat="46.54115" lon="0.32773">
        <ele>88.4</ele>
        <time>2021-01-24T10:47:28.000Z</time>
      </trkpt>
      <trkpt lat="46.54115" lon="0.32773">
        <ele>88.2</ele>
        <time>2021-01-24T10:47:29.000Z</time>
      </trkpt>
      <trkpt lat="46.54113" lon="0.32773">
        <ele>88</ele>
        <time>2021-01-24T10:47:30.000Z</time>
      </trkpt>
      <trkpt lat="46.54113" lon="0.32773">
        <ele>87.8</ele>
        <time>2021-01-24T10:47:31.000Z</time>
      </trkpt>
      <trkpt lat="46.54113" lon="0.32773">
        <ele>87.6</ele>
        <time>2021-01-24T10:47:32.000Z</time>
      </trkpt>
      <trkpt lat="46.54111" lon="0.32775">
        <ele>87.4</ele>
        <time>2021-01-24T10:47:33.000Z</time>
      </trkpt>
      <trkpt lat="46.54111" lon="0.32775">
        <ele>87.2</ele>
        <time>2021-01-24T10:47:34.000Z</time>
      </trkpt>
      <trkpt lat="46.54111" lon="0.32775">
        <ele>87</ele>
        <time>2021-01-24T10:47:35.000Z</time>
      </trkpt>
      <trkpt lat="46.54111" lon="0.32775">
        <ele>86.8</ele>
        <time>2021-01-24T10:47:36.000Z</time>
      </trkpt>
      <trkpt lat="46.54111" lon="0.32775">
        <ele>86.8</ele>
        <time>2021-01-24T10:47:37.000Z</time>
      </trkpt>
      <trkpt lat="46.54111" lon="0.32775">
        <ele>86.6</ele>
        <time>2021-01-24T10:47:38.000Z</time>
      </trkpt>
      <trkpt lat="46.54111" lon="0.32775">
        <ele>86.6</ele>
        <time>2021-01-24T10:47:39.000Z</time>
      </trkpt>
      <trkpt lat="46.54109" lon="0.32776">
        <ele>86.4</ele>
        <time>2021-01-24T10:47:40.000Z</time>
      </trkpt>
      <trkpt lat="46.54109" lon="0.32776">
        <ele>86.2</ele>
        <time>2021-01-24T10:47:41.000Z</time>
      </trkpt>
      <trkpt lat="46.54109" lon="0.32776">
        <ele>86</ele>
        <time>2021-01-24T10:47:42.000Z</time>
      </trkpt>
      <trkpt lat="46.54109" lon="0.32776">
        <ele>86</ele>
        <time>2021-01-24T10:47:43.000Z</time>
      </trkpt>
      <trkpt lat="46.54109" lon="0.32776">
        <ele>85.8</ele>
        <time>2021-01-24T10:47:44.000Z</time>
      </trkpt>
      <trkpt lat="46.54108" lon="0.32779">
        <ele>85.6</ele>
        <time>2021-01-24T10:47:45.000Z</time>
      </trkpt>
      <trkpt lat="46.54108" lon="0.32779">
        <ele>85.4</ele>
        <time>2021-01-24T10:47:46.000Z</time>
      </trkpt>
      <trkpt lat="46.54108" lon="0.32779">
        <ele>85.4</ele>
        <time>2021-01-24T10:47:47.000Z</time>
      </trkpt>
      <trkpt lat="46.54106" lon="0.3278">
        <ele>85.2</ele>
        <time>2021-01-24T10:47:48.000Z</time>
      </trkpt>
      <trkpt lat="46.54106" lon="0.3278">
        <ele>85</ele>
        <time>2021-01-24T10:47:49.000Z</time>
      </trkpt>
      <trkpt lat="46.54106" lon="0.3278">
        <ele>85</ele>
        <time>2021-01-24T10:47:50.000Z</time>
      </trkpt>
      <trkpt lat="46.54103" lon="0.32781">
        <ele>85</ele>
        <time>2021-01-24T10:47:51.000Z</time>
      </trkpt>
      <trkpt lat="46.54103" lon="0.32781">
        <ele>84.8</ele>
        <time>2021-01-24T10:47:52.000Z</time>
      </trkpt>
      <trkpt lat="46.54101" lon="0.3278">
        <ele>84.8</ele>
        <time>2021-01-24T10:47:53.000Z</time>
      </trkpt>
      <trkpt lat="46.54101" lon="0.3278">
        <ele>84.8</ele>
        <time>2021-01-24T10:47:54.000Z</time>
      </trkpt>
      <trkpt lat="46.54098" lon="0.32781">
        <ele>84.8</ele>
        <time>2021-01-24T10:47:55.000Z</time>
      </trkpt>
      <trkpt lat="46.54098" lon="0.32781">
        <ele>84.6</ele>
        <time>2021-01-24T10:47:56.000Z</time>
      </trkpt>
      <trkpt lat="46.54096" lon="0.32781">
        <ele>84.6</ele>
        <time>2021-01-24T10:47:57.000Z</time>
      </trkpt>
      <trkpt lat="46.54096" lon="0.32781">
        <ele>84.6</ele>
        <time>2021-01-24T10:47:58.000Z</time>
      </trkpt>
      <trkpt lat="46.54093" lon="0.32781">
        <ele>84.4</ele>
        <time>2021-01-24T10:47:59.000Z</time>
      </trkpt>
      <trkpt lat="46.54093" lon="0.32781">
        <ele>84.4</ele>
        <time>2021-01-24T10:48:00.000Z</time>
      </trkpt>
      <trkpt lat="46.54091" lon="0.32781">
        <ele>84.4</ele>
        <time>2021-01-24T10:48:01.000Z</time>
      </trkpt>
      <trkpt lat="46.54091" lon="0.32781">
        <ele>84.4</ele>
        <time>2021-01-24T10:48:02.000Z</time>
      </trkpt>
      <trkpt lat="46.54088" lon="0.32782">
        <ele>84.2</ele>
        <time>2021-01-24T10:48:03.000Z</time>
      </trkpt>
      <trkpt lat="46.54088" lon="0.32782">
        <ele>84.4</ele>
        <time>2021-01-24T10:48:04.000Z</time>
      </trkpt>
      <trkpt lat="46.54086" lon="0.32783">
        <ele>84.4</ele>
        <time>2021-01-24T10:48:05.000Z</time>
      </trkpt>
      <trkpt lat="46.54086" lon="0.32783">
        <ele>84.6</ele>
        <time>2021-01-24T10:48:06.000Z</time>
      </trkpt>
      <trkpt lat="46.54085" lon="0.32784">
        <ele>84.6</ele>
        <time>2021-01-24T10:48:07.000Z</time>
      </trkpt>
      <trkpt lat="46.54085" lon="0.32784">
        <ele>84.8</ele>
        <time>2021-01-24T10:48:08.000Z</time>
      </trkpt>
      <trkpt lat="46.54082" lon="0.32784">
        <ele>85</ele>
        <time>2021-01-24T10:48:09.000Z</time>
      </trkpt>
      <trkpt lat="46.54082" lon="0.32784">
        <ele>85</ele>
        <time>2021-01-24T10:48:10.000Z</time>
      </trkpt>
      <trkpt lat="46.5408" lon="0.32785">
        <ele>85.2</ele>
        <time>2021-01-24T10:48:11.000Z</time>
      </trkpt>
      <trkpt lat="46.5408" lon="0.32785">
        <ele>85.4</ele>
        <time>2021-01-24T10:48:12.000Z</time>
      </trkpt>
      <trkpt lat="46.54077" lon="0.32786">
        <ele>85.4</ele>
        <time>2021-01-24T10:48:13.000Z</time>
      </trkpt>
      <trkpt lat="46.54077" lon="0.32786">
        <ele>85.6</ele>
        <time>2021-01-24T10:48:14.000Z</time>
      </trkpt>
      <trkpt lat="46.54075" lon="0.32787">
        <ele>85.8</ele>
        <time>2021-01-24T10:48:15.000Z</time>
      </trkpt>
      <trkpt lat="46.54075" lon="0.32787">
        <ele>86</ele>
        <time>2021-01-24T10:48:16.000Z</time>
      </trkpt>
      <trkpt lat="46.54075" lon="0.32787">
        <ele>86.2</ele>
        <time>2021-01-24T10:48:17.000Z</time>
      </trkpt>
      <trkpt lat="46.54072" lon="0.32788">
        <ele>86.2</ele>
        <time>2021-01-24T10:48:18.000Z</time>
      </trkpt>
      <trkpt lat="46.54072" lon="0.32788">
        <ele>86.4</ele>
        <time>2021-01-24T10:48:19.000Z</time>
      </trkpt>
      <trkpt lat="46.54069" lon="0.32789">
        <ele>86.4</ele>
        <time>2021-01-24T10:48:20.000Z</time>
      </trkpt>
      <trkpt lat="46.54069" lon="0.32789">
        <ele>86.6</ele>
        <time>2021-01-24T10:48:21.000Z</time>
      </trkpt>
      <trkpt lat="46.54068" lon="0.3279">
        <ele>86.6</ele>
        <time>2021-01-24T10:48:22.000Z</time>
      </trkpt>
      <trkpt lat="46.54068" lon="0.3279">
        <ele>86.6</ele>
        <time>2021-01-24T10:48:23.000Z</time>
      </trkpt>
      <trkpt lat="46.54065" lon="0.32791">
        <ele>86.8</ele>
        <time>2021-01-24T10:48:24.000Z</time>
      </trkpt>
      <trkpt lat="46.54065" lon="0.32791">
        <ele>86.8</ele>
        <time>2021-01-24T10:48:25.000Z</time>
      </trkpt>
      <trkpt lat="46.54063" lon="0.32792">
        <ele>87</ele>
        <time>2021-01-24T10:48:26.000Z</time>
      </trkpt>
      <trkpt lat="46.54063" lon="0.32792">
        <ele>87</ele>
        <time>2021-01-24T10:48:27.000Z</time>
      </trkpt>
      <trkpt lat="46.54061" lon="0.32794">
        <ele>87.2</ele>
        <time>2021-01-24T10:48:28.000Z</time>
      </trkpt>
      <trkpt lat="46.54061" lon="0.32794">
        <ele>87.2</ele>
        <time>2021-01-24T10:48:29.000Z</time>
      </trkpt>
      <trkpt lat="46.54059" lon="0.32795">
        <ele>87.4</ele>
        <time>2021-01-24T10:48:30.000Z</time>
      </trkpt>
      <trkpt lat="46.54059" lon="0.32795">
        <ele>87.4</ele>
        <time>2021-01-24T10:48:31.000Z</time>
      </trkpt>
      <trkpt lat="46.54059" lon="0.32795">
        <ele>87.4</ele>
        <time>2021-01-24T10:48:32.000Z</time>
      </trkpt>
      <trkpt lat="46.54057" lon="0.32795">
        <ele>87.6</ele>
        <time>2021-01-24T10:48:33.000Z</time>
      </trkpt>
      <trkpt lat="46.54057" lon="0.32795">
        <ele>87.6</ele>
        <time>2021-01-24T10:48:34.000Z</time>
      </trkpt>
      <trkpt lat="46.54057" lon="0.32795">
        <ele>87.6</ele>
        <time>2021-01-24T10:48:35.000Z</time>
      </trkpt>
      <trkpt lat="46.54057" lon="0.32795">
        <ele>87.8</ele>
        <time>2021-01-24T10:48:36.000Z</time>
      </trkpt>
      <trkpt lat="46.54057" lon="0.32795">
        <ele>87.8</ele>
        <time>2021-01-24T10:48:37.000Z</time>
      </trkpt>
      <trkpt lat="46.54057" lon="0.32795">
        <ele>87.8</ele>
        <time>2021-01-24T10:48:38.000Z</time>
      </trkpt>
      <trkpt lat="46.54057" lon="0.32795">
        <ele>87.8</ele>
        <time>2021-01-24T10:48:39.000Z</time>
      </trkpt>
      <trkpt lat="46.54056" lon="0.32797">
        <ele>87.8</ele>
        <time>2021-01-24T10:48:40.000Z</time>
      </trkpt>
      <trkpt lat="46.54056" lon="0.32797">
        <ele>87.8</ele>
        <time>2021-01-24T10:48:41.000Z</time>
      </trkpt>
      <trkpt lat="46.54054" lon="0.32799">
        <ele>88</ele>
        <time>2021-01-24T10:48:42.000Z</time>
      </trkpt>
      <trkpt lat="46.54054" lon="0.32799">
        <ele>88</ele>
        <time>2021-01-24T10:48:43.000Z</time>
      </trkpt>
      <trkpt lat="46.54054" lon="0.32799">
        <ele>88</ele>
        <time>2021-01-24T10:48:44.000Z</time>
      </trkpt>
      <trkpt lat="46.54053" lon="0.32801">
        <ele>88.2</ele>
        <time>2021-01-24T10:48:45.000Z</time>
      </trkpt>
      <trkpt lat="46.54053" lon="0.32801">
        <ele>88.2</ele>
        <time>2021-01-24T10:48:46.000Z</time>
      </trkpt>
      <trkpt lat="46.54053" lon="0.32801">
        <ele>88.4</ele>
        <time>2021-01-24T10:48:47.000Z</time>
      </trkpt>
      <trkpt lat="46.54053" lon="0.32801">
        <ele>88.4</ele>
        <time>2021-01-24T10:48:48.000Z</time>
      </trkpt>
      <trkpt lat="46.54053" lon="0.32801">
        <ele>88.6</ele>
        <time>2021-01-24T10:48:49.000Z</time>
      </trkpt>
      <trkpt lat="46.54053" lon="0.32801">
        <ele>88.6</ele>
        <time>2021-01-24T10:48:50.000Z</time>
      </trkpt>
      <trkpt lat="46.54053" lon="0.32801">
        <ele>88.8</ele>
        <time>2021-01-24T10:48:51.000Z</time>
      </trkpt>
      <trkpt lat="46.54053" lon="0.32801">
        <ele>88.8</ele>
        <time>2021-01-24T10:48:52.000Z</time>
      </trkpt>
      <trkpt lat="46.54053" lon="0.32801">
        <ele>88.8</ele>
        <time>2021-01-24T10:48:53.000Z</time>
      </trkpt>
      <trkpt lat="46.54053" lon="0.32801">
        <ele>88.8</ele>
        <time>2021-01-24T10:48:54.000Z</time>
      </trkpt>
      <trkpt lat="46.54053" lon="0.32801">
        <ele>89</ele>
        <time>2021-01-24T10:48:55.000Z</time>
      </trkpt>
      <trkpt lat="46.54055" lon="0.32801">
        <ele>89</ele>
        <time>2021-01-24T10:48:56.000Z</time>
      </trkpt>
      <trkpt lat="46.54055" lon="0.32801">
        <ele>89</ele>
        <time>2021-01-24T10:48:57.000Z</time>
      </trkpt>
      <trkpt lat="46.54055" lon="0.32801">
        <ele>89</ele>
        <time>2021-01-24T10:48:58.000Z</time>
      </trkpt>
      <trkpt lat="46.54055" lon="0.32801">
        <ele>89</ele>
        <time>2021-01-24T10:48:59.000Z</time>
      </trkpt>
      <trkpt lat="46.54055" lon="0.32801">
        <ele>89</ele>
        <time>2021-01-24T10:49:00.000Z</time>
      </trkpt>
      <trkpt lat="46.54055" lon="0.32801">
        <ele>88.8</ele>
        <time>2021-01-24T10:49:01.000Z</time>
      </trkpt>
      <trkpt lat="46.54055" lon="0.32801">
        <ele>88.6</ele>
        <time>2021-01-24T10:49:02.000Z</time>
      </trkpt>
      <trkpt lat="46.54055" lon="0.32801">
        <ele>88.6</ele>
        <time>2021-01-24T10:49:03.000Z</time>
      </trkpt>
      <trkpt lat="46.54055" lon="0.32801">
        <ele>88.4</ele>
        <time>2021-01-24T10:49:04.000Z</time>
      </trkpt>
      <trkpt lat="46.54055" lon="0.32801">
        <ele>88.4</ele>
        <time>2021-01-24T10:49:05.000Z</time>
      </trkpt>
      <trkpt lat="46.54055" lon="0.32801">
        <ele>88.2</ele>
        <time>2021-01-24T10:49:07.000Z</time>
      </trkpt>
      <trkpt lat="46.54055" lon="0.32801">
        <ele>88.2</ele>
        <time>2021-01-24T10:49:08.000Z</time>
      </trkpt>
      <trkpt lat="46.54055" lon="0.32801">
        <ele>88</ele>
        <time>2021-01-24T10:49:09.000Z</time>
      </trkpt>
      <trkpt lat="46.54055" lon="0.32801">
        <ele>88</ele>
        <time>2021-01-24T10:49:10.000Z</time>
      </trkpt>
      <trkpt lat="46.54055" lon="0.32801">
        <ele>88</ele>
        <time>2021-01-24T10:49:11.000Z</time>
      </trkpt>
      <trkpt lat="46.54055" lon="0.32801">
        <ele>88</ele>
        <time>2021-01-24T10:49:12.000Z</time>
      </trkpt>
      <trkpt lat="46.54055" lon="0.32801">
        <ele>87.8</ele>
        <time>2021-01-24T10:49:13.000Z</time>
      </trkpt>
      <trkpt lat="46.54055" lon="0.32801">
        <ele>87.8</ele>
        <time>2021-01-24T10:49:14.000Z</time>
      </trkpt>
      <trkpt lat="46.54055" lon="0.32801">
        <ele>87.8</ele>
        <time>2021-01-24T10:49:15.000Z</time>
      </trkpt>
      <trkpt lat="46.54055" lon="0.32801">
        <ele>87.8</ele>
        <time>2021-01-24T10:49:16.000Z</time>
      </trkpt>
      <trkpt lat="46.54055" lon="0.32801">
        <ele>87.8</ele>
        <time>2021-01-24T10:49:17.000Z</time>
      </trkpt>
      <trkpt lat="46.54055" lon="0.32801">
        <ele>87.6</ele>
        <time>2021-01-24T10:49:18.000Z</time>
      </trkpt>
      <trkpt lat="46.54055" lon="0.32801">
        <ele>87.6</ele>
        <time>2021-01-24T10:49:19.000Z</time>
      </trkpt>
      <trkpt lat="46.54055" lon="0.32801">
        <ele>87.6</ele>
        <time>2021-01-24T10:49:20.000Z</time>
      </trkpt>
      <trkpt lat="46.54055" lon="0.32801">
        <ele>87.6</ele>
        <time>2021-01-24T10:49:21.000Z</time>
      </trkpt>
      <trkpt lat="46.54055" lon="0.32801">
        <ele>87.6</ele>
        <time>2021-01-24T10:49:22.000Z</time>
      </trkpt>
      <trkpt lat="46.54055" lon="0.32801">
        <ele>87.6</ele>
        <time>2021-01-24T10:49:23.000Z</time>
      </trkpt>
      <trkpt lat="46.54055" lon="0.32801">
        <ele>87.6</ele>
        <time>2021-01-24T10:49:24.000Z</time>
      </trkpt>
      <trkpt lat="46.54055" lon="0.32801">
        <ele>87.4</ele>
        <time>2021-01-24T10:49:25.000Z</time>
      </trkpt>
      <trkpt lat="46.54055" lon="0.32801">
        <ele>87.4</ele>
        <time>2021-01-24T10:49:26.000Z</time>
      </trkpt>
      <trkpt lat="46.54055" lon="0.32801">
        <ele>87.4</ele>
        <time>2021-01-24T10:49:27.000Z</time>
      </trkpt>
      <trkpt lat="46.54055" lon="0.32801">
        <ele>87.4</ele>
        <time>2021-01-24T10:49:28.000Z</time>
      </trkpt>
      <trkpt lat="46.54055" lon="0.32801">
        <ele>87.4</ele>
        <time>2021-01-24T10:49:29.000Z</time>
      </trkpt>
      <trkpt lat="46.54055" lon="0.32801">
        <ele>87.4</ele>
        <time>2021-01-24T10:49:30.000Z</time>
      </trkpt>
      <trkpt lat="46.54055" lon="0.32801">
        <ele>87.4</ele>
        <time>2021-01-24T10:49:31.000Z</time>
      </trkpt>
      <trkpt lat="46.54055" lon="0.32801">
        <ele>87.4</ele>
        <time>2021-01-24T10:49:32.000Z</time>
      </trkpt>
      <trkpt lat="46.54055" lon="0.32801">
        <ele>87.2</ele>
        <time>2021-01-24T10:49:33.000Z</time>
      </trkpt>
      <trkpt lat="46.54055" lon="0.32801">
        <ele>87.2</ele>
        <time>2021-01-24T10:49:34.000Z</time>
      </trkpt>
      <trkpt lat="46.54055" lon="0.32801">
        <ele>87.2</ele>
        <time>2021-01-24T10:49:35.000Z</time>
      </trkpt>
      <trkpt lat="46.54055" lon="0.32801">
        <ele>87.2</ele>
        <time>2021-01-24T10:49:36.000Z</time>
      </trkpt>
      <trkpt lat="46.54055" lon="0.32801">
        <ele>87.2</ele>
        <time>2021-01-24T10:49:37.000Z</time>
      </trkpt>
      <trkpt lat="46.54055" lon="0.32801">
        <ele>87.2</ele>
        <time>2021-01-24T10:49:38.000Z</time>
      </trkpt>
      <trkpt lat="46.54055" lon="0.32801">
        <ele>87.2</ele>
        <time>2021-01-24T10:49:39.000Z</time>
      </trkpt>
      <trkpt lat="46.54055" lon="0.32801">
        <ele>87.2</ele>
        <time>2021-01-24T10:49:40.000Z</time>
      </trkpt>
      <trkpt lat="46.54055" lon="0.32801">
        <ele>87.2</ele>
        <time>2021-01-24T10:49:41.000Z</time>
      </trkpt>
      <trkpt lat="46.54055" lon="0.32801">
        <ele>87.2</ele>
        <time>2021-01-24T10:49:42.000Z</time>
      </trkpt>
      <trkpt lat="46.54055" lon="0.32801">
        <ele>87</ele>
        <time>2021-01-24T10:49:43.000Z</time>
      </trkpt>
      <trkpt lat="46.54055" lon="0.32801">
        <ele>87</ele>
        <time>2021-01-24T10:49:44.000Z</time>
      </trkpt>
      <trkpt lat="46.54055" lon="0.32801">
        <ele>87</ele>
        <time>2021-01-24T10:49:45.000Z</time>
      </trkpt>
      <trkpt lat="46.54055" lon="0.32801">
        <ele>87</ele>
        <time>2021-01-24T10:49:46.000Z</time>
      </trkpt>
      <trkpt lat="46.54055" lon="0.32801">
        <ele>87</ele>
        <time>2021-01-24T10:49:47.000Z</time>
      </trkpt>
      <trkpt lat="46.54055" lon="0.32801">
        <ele>87</ele>
        <time>2021-01-24T10:49:48.000Z</time>
      </trkpt>
      <trkpt lat="46.54055" lon="0.32801">
        <ele>87</ele>
        <time>2021-01-24T10:49:49.000Z</time>
      </trkpt>
      <trkpt lat="46.54055" lon="0.32801">
        <ele>87</ele>
        <time>2021-01-24T10:49:50.000Z</time>
      </trkpt>
      <trkpt lat="46.54055" lon="0.32801">
        <ele>87</ele>
        <time>2021-01-24T10:49:51.000Z</time>
      </trkpt>
      <trkpt lat="46.54055" lon="0.32801">
        <ele>87</ele>
        <time>2021-01-24T10:49:52.000Z</time>
      </trkpt>
      <trkpt lat="46.54055" lon="0.32801">
        <ele>87</ele>
        <time>2021-01-24T10:49:53.000Z</time>
      </trkpt>
      <trkpt lat="46.54055" lon="0.32801">
        <ele>87</ele>
        <time>2021-01-24T10:49:54.000Z</time>
      </trkpt>
      <trkpt lat="46.54055" lon="0.32801">
        <ele>87</ele>
        <time>2021-01-24T10:49:55.000Z</time>
      </trkpt>
      <trkpt lat="46.54055" lon="0.32801">
        <ele>87</ele>
        <time>2021-01-24T10:49:56.000Z</time>
      </trkpt>
      <trkpt lat="46.54055" lon="0.32801">
        <ele>87</ele>
        <time>2021-01-24T10:49:57.000Z</time>
      </trkpt>
      <trkpt lat="46.54055" lon="0.32801">
        <ele>86.8</ele>
        <time>2021-01-24T10:49:58.000Z</time>
      </trkpt>
      <trkpt lat="46.54055" lon="0.32801">
        <ele>86.8</ele>
        <time>2021-01-24T10:49:59.000Z</time>
      </trkpt>
      <trkpt lat="46.54055" lon="0.32801">
        <ele>86.8</ele>
        <time>2021-01-24T10:50:00.000Z</time>
      </trkpt>
      <trkpt lat="46.54055" lon="0.32801">
        <ele>86.8</ele>
        <time>2021-01-24T10:50:01.000Z</time>
      </trkpt>
      <trkpt lat="46.54055" lon="0.32801">
        <ele>86.8</ele>
        <time>2021-01-24T10:50:02.000Z</time>
      </trkpt>
      <trkpt lat="46.54055" lon="0.32801">
        <ele>86.8</ele>
        <time>2021-01-24T10:50:03.000Z</time>
      </trkpt>
      <trkpt lat="46.54055" lon="0.32801">
        <ele>86.8</ele>
        <time>2021-01-24T10:50:04.000Z</time>
      </trkpt>
      <trkpt lat="46.54055" lon="0.32801">
        <ele>86.8</ele>
        <time>2021-01-24T10:50:05.000Z</time>
      </trkpt>
      <trkpt lat="46.54055" lon="0.32801">
        <ele>86.8</ele>
        <time>2021-01-24T10:50:06.000Z</time>
      </trkpt>
      <trkpt lat="46.54055" lon="0.32801">
        <ele>86.8</ele>
        <time>2021-01-24T10:50:07.000Z</time>
      </trkpt>
      <trkpt lat="46.54055" lon="0.32801">
        <ele>86.8</ele>
        <time>2021-01-24T10:50:08.000Z</time>
      </trkpt>
      <trkpt lat="46.54055" lon="0.32801">
        <ele>86.8</ele>
        <time>2021-01-24T10:50:09.000Z</time>
      </trkpt>
      <trkpt lat="46.54057" lon="0.32801">
        <ele>86.8</ele>
        <time>2021-01-24T10:50:10.000Z</time>
      </trkpt>
      <trkpt lat="46.54057" lon="0.32801">
        <ele>86.8</ele>
        <time>2021-01-24T10:50:11.000Z</time>
      </trkpt>
      <trkpt lat="46.54057" lon="0.32801">
        <ele>86.8</ele>
        <time>2021-01-24T10:50:12.000Z</time>
      </trkpt>
      <trkpt lat="46.54059" lon="0.328">
        <ele>86.8</ele>
        <time>2021-01-24T10:50:13.000Z</time>
      </trkpt>
      <trkpt lat="46.54059" lon="0.328">
        <ele>87</ele>
        <time>2021-01-24T10:50:14.000Z</time>
      </trkpt>
      <trkpt lat="46.54061" lon="0.328">
        <ele>87</ele>
        <time>2021-01-24T10:50:15.000Z</time>
      </trkpt>
      <trkpt lat="46.54061" lon="0.328">
        <ele>87</ele>
        <time>2021-01-24T10:50:16.000Z</time>
      </trkpt>
      <trkpt lat="46.54064" lon="0.32801">
        <ele>87.2</ele>
        <time>2021-01-24T10:50:17.000Z</time>
      </trkpt>
      <trkpt lat="46.54064" lon="0.32801">
        <ele>87.2</ele>
        <time>2021-01-24T10:50:18.000Z</time>
      </trkpt>
      <trkpt lat="46.54067" lon="0.328">
        <ele>87.2</ele>
        <time>2021-01-24T10:50:19.000Z</time>
      </trkpt>
      <trkpt lat="46.54069" lon="0.32799">
        <ele>87.4</ele>
        <time>2021-01-24T10:50:20.000Z</time>
      </trkpt>
      <trkpt lat="46.54069" lon="0.32799">
        <ele>87.4</ele>
        <time>2021-01-24T10:50:21.000Z</time>
      </trkpt>
      <trkpt lat="46.54071" lon="0.32797">
        <ele>87.6</ele>
        <time>2021-01-24T10:50:22.000Z</time>
      </trkpt>
      <trkpt lat="46.54071" lon="0.32797">
        <ele>87.6</ele>
        <time>2021-01-24T10:50:23.000Z</time>
      </trkpt>
      <trkpt lat="46.54074" lon="0.32793">
        <ele>87.6</ele>
        <time>2021-01-24T10:50:24.000Z</time>
      </trkpt>
      <trkpt lat="46.54074" lon="0.32793">
        <ele>87.8</ele>
        <time>2021-01-24T10:50:25.000Z</time>
      </trkpt>
      <trkpt lat="46.54076" lon="0.32791">
        <ele>87.8</ele>
        <time>2021-01-24T10:50:26.000Z</time>
      </trkpt>
      <trkpt lat="46.54076" lon="0.32791">
        <ele>88</ele>
        <time>2021-01-24T10:50:27.000Z</time>
      </trkpt>
      <trkpt lat="46.54078" lon="0.32789">
        <ele>88</ele>
        <time>2021-01-24T10:50:28.000Z</time>
      </trkpt>
      <trkpt lat="46.54078" lon="0.32789">
        <ele>88</ele>
        <time>2021-01-24T10:50:29.000Z</time>
      </trkpt>
      <trkpt lat="46.54081" lon="0.32788">
        <ele>88.2</ele>
        <time>2021-01-24T10:50:30.000Z</time>
      </trkpt>
      <trkpt lat="46.54081" lon="0.32788">
        <ele>88.2</ele>
        <time>2021-01-24T10:50:31.000Z</time>
      </trkpt>
      <trkpt lat="46.54084" lon="0.32787">
        <ele>88.2</ele>
        <time>2021-01-24T10:50:32.000Z</time>
      </trkpt>
      <trkpt lat="46.54084" lon="0.32787">
        <ele>88.2</ele>
        <time>2021-01-24T10:50:33.000Z</time>
      </trkpt>
      <trkpt lat="46.54084" lon="0.32787">
        <ele>88.2</ele>
        <time>2021-01-24T10:50:34.000Z</time>
      </trkpt>
      <trkpt lat="46.54084" lon="0.32787">
        <ele>88.4</ele>
        <time>2021-01-24T10:50:35.000Z</time>
      </trkpt>
      <trkpt lat="46.54084" lon="0.32787">
        <ele>88.4</ele>
        <time>2021-01-24T10:50:36.000Z</time>
      </trkpt>
      <trkpt lat="46.54084" lon="0.32787">
        <ele>88.4</ele>
        <time>2021-01-24T10:50:37.000Z</time>
      </trkpt>
      <trkpt lat="46.54084" lon="0.32787">
        <ele>88.4</ele>
        <time>2021-01-24T10:50:38.000Z</time>
      </trkpt>
      <trkpt lat="46.54084" lon="0.32787">
        <ele>88.6</ele>
        <time>2021-01-24T10:50:39.000Z</time>
      </trkpt>
      <trkpt lat="46.54084" lon="0.32787">
        <ele>88.6</ele>
        <time>2021-01-24T10:50:40.000Z</time>
      </trkpt>
      <trkpt lat="46.54084" lon="0.32787">
        <ele>88.6</ele>
        <time>2021-01-24T10:50:41.000Z</time>
      </trkpt>
      <trkpt lat="46.54084" lon="0.32787">
        <ele>88.8</ele>
        <time>2021-01-24T10:50:42.000Z</time>
      </trkpt>
      <trkpt lat="46.54084" lon="0.32787">
        <ele>88.8</ele>
        <time>2021-01-24T10:50:43.000Z</time>
      </trkpt>
      <trkpt lat="46.54084" lon="0.32787">
        <ele>88.8</ele>
        <time>2021-01-24T10:50:44.000Z</time>
      </trkpt>
      <trkpt lat="46.54084" lon="0.32787">
        <ele>89</ele>
        <time>2021-01-24T10:50:45.000Z</time>
      </trkpt>
      <trkpt lat="46.54084" lon="0.32787">
        <ele>89</ele>
        <time>2021-01-24T10:50:46.000Z</time>
      </trkpt>
      <trkpt lat="46.54084" lon="0.32787">
        <ele>89.2</ele>
        <time>2021-01-24T10:50:47.000Z</time>
      </trkpt>
      <trkpt lat="46.54084" lon="0.32787">
        <ele>89.2</ele>
        <time>2021-01-24T10:50:48.000Z</time>
      </trkpt>
      <trkpt lat="46.54084" lon="0.32787">
        <ele>89.2</ele>
        <time>2021-01-24T10:50:49.000Z</time>
      </trkpt>
      <trkpt lat="46.54084" lon="0.32787">
        <ele>89.4</ele>
        <time>2021-01-24T10:50:50.000Z</time>
      </trkpt>
      <trkpt lat="46.54084" lon="0.32787">
        <ele>89.4</ele>
        <time>2021-01-24T10:50:51.000Z</time>
      </trkpt>
      <trkpt lat="46.54084" lon="0.32787">
        <ele>89.4</ele>
        <time>2021-01-24T10:50:52.000Z</time>
      </trkpt>
      <trkpt lat="46.54084" lon="0.32787">
        <ele>89.4</ele>
        <time>2021-01-24T10:50:53.000Z</time>
      </trkpt>
      <trkpt lat="46.54084" lon="0.32787">
        <ele>89.4</ele>
        <time>2021-01-24T10:50:54.000Z</time>
      </trkpt>
      <trkpt lat="46.54084" lon="0.32787">
        <ele>89.4</ele>
        <time>2021-01-24T10:50:55.000Z</time>
      </trkpt>
      <trkpt lat="46.54084" lon="0.32787">
        <ele>89.4</ele>
        <time>2021-01-24T10:50:56.000Z</time>
      </trkpt>
      <trkpt lat="46.54084" lon="0.32787">
        <ele>89.4</ele>
        <time>2021-01-24T10:50:57.000Z</time>
      </trkpt>
      <trkpt lat="46.54084" lon="0.32787">
        <ele>89.6</ele>
        <time>2021-01-24T10:50:58.000Z</time>
      </trkpt>
      <trkpt lat="46.54084" lon="0.32787">
        <ele>89.6</ele>
        <time>2021-01-24T10:50:59.000Z</time>
      </trkpt>
      <trkpt lat="46.54084" lon="0.32787">
        <ele>89.6</ele>
        <time>2021-01-24T10:51:00.000Z</time>
      </trkpt>
      <trkpt lat="46.54084" lon="0.32787">
        <ele>89.8</ele>
        <time>2021-01-24T10:51:01.000Z</time>
      </trkpt>
      <trkpt lat="46.54084" lon="0.32787">
        <ele>89.8</ele>
        <time>2021-01-24T10:51:02.000Z</time>
      </trkpt>
      <trkpt lat="46.54084" lon="0.32787">
        <ele>89.8</ele>
        <time>2021-01-24T10:51:03.000Z</time>
      </trkpt>
      <trkpt lat="46.54084" lon="0.32787">
        <ele>89.8</ele>
        <time>2021-01-24T10:51:04.000Z</time>
      </trkpt>
      <trkpt lat="46.54084" lon="0.32787">
        <ele>90</ele>
        <time>2021-01-24T10:51:05.000Z</time>
      </trkpt>
      <trkpt lat="46.54084" lon="0.32787">
        <ele>90</ele>
        <time>2021-01-24T10:51:06.000Z</time>
      </trkpt>
      <trkpt lat="46.54084" lon="0.32787">
        <ele>90</ele>
        <time>2021-01-24T10:51:07.000Z</time>
      </trkpt>
      <trkpt lat="46.54084" lon="0.32787">
        <ele>90</ele>
        <time>2021-01-24T10:51:08.000Z</time>
      </trkpt>
      <trkpt lat="46.54084" lon="0.32787">
        <ele>90</ele>
        <time>2021-01-24T10:51:09.000Z</time>
      </trkpt>
      <trkpt lat="46.54084" lon="0.32787">
        <ele>90</ele>
        <time>2021-01-24T10:51:10.000Z</time>
      </trkpt>
      <trkpt lat="46.54084" lon="0.32787">
        <ele>90.2</ele>
        <time>2021-01-24T10:51:11.000Z</time>
      </trkpt>
      <trkpt lat="46.54084" lon="0.32787">
        <ele>90.2</ele>
        <time>2021-01-24T10:51:12.000Z</time>
      </trkpt>
      <trkpt lat="46.54084" lon="0.32787">
        <ele>90.2</ele>
        <time>2021-01-24T10:51:13.000Z</time>
      </trkpt>
      <trkpt lat="46.54084" lon="0.32787">
        <ele>90.2</ele>
        <time>2021-01-24T10:51:14.000Z</time>
      </trkpt>
      <trkpt lat="46.54084" lon="0.32787">
        <ele>90.2</ele>
        <time>2021-01-24T10:51:15.000Z</time>
      </trkpt>
      <trkpt lat="46.54084" lon="0.32787">
        <ele>90.2</ele>
        <time>2021-01-24T10:51:16.000Z</time>
      </trkpt>
      <trkpt lat="46.54084" lon="0.32787">
        <ele>90.2</ele>
        <time>2021-01-24T10:51:17.000Z</time>
      </trkpt>
      <trkpt lat="46.54084" lon="0.32787">
        <ele>90.2</ele>
        <time>2021-01-24T10:51:18.000Z</time>
      </trkpt>
      <trkpt lat="46.54084" lon="0.32787">
        <ele>90.2</ele>
        <time>2021-01-24T10:51:19.000Z</time>
      </trkpt>
      <trkpt lat="46.54084" lon="0.32787">
        <ele>90.2</ele>
        <time>2021-01-24T10:51:20.000Z</time>
      </trkpt>
      <trkpt lat="46.54084" lon="0.32787">
        <ele>90.4</ele>
        <time>2021-01-24T10:51:21.000Z</time>
      </trkpt>
      <trkpt lat="46.54084" lon="0.32787">
        <ele>90.4</ele>
        <time>2021-01-24T10:51:22.000Z</time>
      </trkpt>
      <trkpt lat="46.54084" lon="0.32787">
        <ele>90.4</ele>
        <time>2021-01-24T10:51:23.000Z</time>
      </trkpt>
      <trkpt lat="46.54084" lon="0.32787">
        <ele>90.4</ele>
        <time>2021-01-24T10:51:24.000Z</time>
      </trkpt>
      <trkpt lat="46.54084" lon="0.32787">
        <ele>90.4</ele>
        <time>2021-01-24T10:51:25.000Z</time>
      </trkpt>
      <trkpt lat="46.54084" lon="0.32787">
        <ele>90.4</ele>
        <time>2021-01-24T10:51:26.000Z</time>
      </trkpt>
      <trkpt lat="46.54084" lon="0.32787">
        <ele>90.4</ele>
        <time>2021-01-24T10:51:27.000Z</time>
      </trkpt>
      <trkpt lat="46.54084" lon="0.32787">
        <ele>90.4</ele>
        <time>2021-01-24T10:51:28.000Z</time>
      </trkpt>
      <trkpt lat="46.54084" lon="0.32787">
        <ele>90.4</ele>
        <time>2021-01-24T10:51:29.000Z</time>
      </trkpt>
      <trkpt lat="46.54084" lon="0.32787">
        <ele>90.4</ele>
        <time>2021-01-24T10:51:30.000Z</time>
      </trkpt>
      <trkpt lat="46.54084" lon="0.32787">
        <ele>90.4</ele>
        <time>2021-01-24T10:51:31.000Z</time>
      </trkpt>
      <trkpt lat="46.54084" lon="0.32787">
        <ele>90.4</ele>
        <time>2021-01-24T10:51:32.000Z</time>
      </trkpt>
      <trkpt lat="46.54084" lon="0.32787">
        <ele>90.4</ele>
        <time>2021-01-24T10:51:33.000Z</time>
      </trkpt>
      <trkpt lat="46.54084" lon="0.32787">
        <ele>90.6</ele>
        <time>2021-01-24T10:51:34.000Z</time>
      </trkpt>
      <trkpt lat="46.54084" lon="0.32787">
        <ele>90.6</ele>
        <time>2021-01-24T10:51:35.000Z</time>
      </trkpt>
      <trkpt lat="46.54084" lon="0.32787">
        <ele>90.6</ele>
        <time>2021-01-24T10:51:36.000Z</time>
      </trkpt>
      <trkpt lat="46.54084" lon="0.32787">
        <ele>90.6</ele>
        <time>2021-01-24T10:51:37.000Z</time>
      </trkpt>
      <trkpt lat="46.54084" lon="0.32787">
        <ele>90.6</ele>
        <time>2021-01-24T10:51:38.000Z</time>
      </trkpt>
      <trkpt lat="46.54084" lon="0.32787">
        <ele>90.6</ele>
        <time>2021-01-24T10:51:39.000Z</time>
      </trkpt>
      <trkpt lat="46.54084" lon="0.32787">
        <ele>90.6</ele>
        <time>2021-01-24T10:51:40.000Z</time>
      </trkpt>
      <trkpt lat="46.54084" lon="0.32787">
        <ele>90.6</ele>
        <time>2021-01-24T10:51:41.000Z</time>
      </trkpt>
      <trkpt lat="46.54084" lon="0.32787">
        <ele>90.6</ele>
        <time>2021-01-24T10:51:42.000Z</time>
      </trkpt>
      <trkpt lat="46.54084" lon="0.32787">
        <ele>90.6</ele>
        <time>2021-01-24T10:51:43.000Z</time>
      </trkpt>
      <trkpt lat="46.54084" lon="0.32787">
        <ele>90.6</ele>
        <time>2021-01-24T10:51:44.000Z</time>
      </trkpt>
      <trkpt lat="46.54084" lon="0.32787">
        <ele>90.6</ele>
        <time>2021-01-24T10:51:45.000Z</time>
      </trkpt>
      <trkpt lat="46.54084" lon="0.32787">
        <ele>90.6</ele>
        <time>2021-01-24T10:51:46.000Z</time>
      </trkpt>
      <trkpt lat="46.54084" lon="0.32787">
        <ele>90.6</ele>
        <time>2021-01-24T10:51:47.000Z</time>
      </trkpt>
      <trkpt lat="46.54084" lon="0.32787">
        <ele>90.6</ele>
        <time>2021-01-24T10:51:48.000Z</time>
      </trkpt>
      <trkpt lat="46.54084" lon="0.32787">
        <ele>90.8</ele>
        <time>2021-01-24T10:51:49.000Z</time>
      </trkpt>
      <trkpt lat="46.54084" lon="0.32787">
        <ele>90.8</ele>
        <time>2021-01-24T10:51:50.000Z</time>
      </trkpt>
      <trkpt lat="46.54084" lon="0.32787">
        <ele>90.8</ele>
        <time>2021-01-24T10:51:51.000Z</time>
      </trkpt>
      <trkpt lat="46.54084" lon="0.32787">
        <ele>90.8</ele>
        <time>2021-01-24T10:51:52.000Z</time>
      </trkpt>
      <trkpt lat="46.54084" lon="0.32787">
        <ele>90.8</ele>
        <time>2021-01-24T10:51:53.000Z</time>
      </trkpt>
      <trkpt lat="46.54084" lon="0.32787">
        <ele>90.8</ele>
        <time>2021-01-24T10:51:54.000Z</time>
      </trkpt>
      <trkpt lat="46.54084" lon="0.32787">
        <ele>90.8</ele>
        <time>2021-01-24T10:51:55.000Z</time>
      </trkpt>
      <trkpt lat="46.54084" lon="0.32787">
        <ele>90.8</ele>
        <time>2021-01-24T10:51:56.000Z</time>
      </trkpt>
      <trkpt lat="46.54084" lon="0.32787">
        <ele>90.8</ele>
        <time>2021-01-24T10:51:57.000Z</time>
      </trkpt>
      <trkpt lat="46.54084" lon="0.32787">
        <ele>90.8</ele>
        <time>2021-01-24T10:51:58.000Z</time>
      </trkpt>
      <trkpt lat="46.54084" lon="0.32787">
        <ele>90.8</ele>
        <time>2021-01-24T10:51:59.000Z</time>
      </trkpt>
      <trkpt lat="46.54084" lon="0.32787">
        <ele>90.8</ele>
        <time>2021-01-24T10:52:00.000Z</time>
      </trkpt>
      <trkpt lat="46.54084" lon="0.32787">
        <ele>90.8</ele>
        <time>2021-01-24T10:52:01.000Z</time>
      </trkpt>
      <trkpt lat="46.54084" lon="0.32787">
        <ele>90.8</ele>
        <time>2021-01-24T10:52:02.000Z</time>
      </trkpt>
      <trkpt lat="46.54084" lon="0.32787">
        <ele>91</ele>
        <time>2021-01-24T10:52:03.000Z</time>
      </trkpt>
      <trkpt lat="46.54084" lon="0.32787">
        <ele>91</ele>
        <time>2021-01-24T10:52:04.000Z</time>
      </trkpt>
      <trkpt lat="46.54084" lon="0.32787">
        <ele>91</ele>
        <time>2021-01-24T10:52:05.000Z</time>
      </trkpt>
      <trkpt lat="46.54084" lon="0.32787">
        <ele>91</ele>
        <time>2021-01-24T10:52:06.000Z</time>
      </trkpt>
      <trkpt lat="46.54084" lon="0.32787">
        <ele>91</ele>
        <time>2021-01-24T10:52:07.000Z</time>
      </trkpt>
      <trkpt lat="46.54084" lon="0.32787">
        <ele>91</ele>
        <time>2021-01-24T10:52:08.000Z</time>
      </trkpt>
      <trkpt lat="46.54084" lon="0.32787">
        <ele>91</ele>
        <time>2021-01-24T10:52:09.000Z</time>
      </trkpt>
      <trkpt lat="46.54084" lon="0.32787">
        <ele>91</ele>
        <time>2021-01-24T10:52:10.000Z</time>
      </trkpt>
      <trkpt lat="46.54084" lon="0.32787">
        <ele>91</ele>
        <time>2021-01-24T10:52:11.000Z</time>
      </trkpt>
      <trkpt lat="46.54084" lon="0.32787">
        <ele>91</ele>
        <time>2021-01-24T10:52:12.000Z</time>
      </trkpt>
      <trkpt lat="46.54084" lon="0.32787">
        <ele>91.2</ele>
        <time>2021-01-24T10:52:13.000Z</time>
      </trkpt>
      <trkpt lat="46.54084" lon="0.32787">
        <ele>91.2</ele>
        <time>2021-01-24T10:52:14.000Z</time>
      </trkpt>
      <trkpt lat="46.54084" lon="0.32787">
        <ele>91.2</ele>
        <time>2021-01-24T10:52:15.000Z</time>
      </trkpt>
      <trkpt lat="46.54084" lon="0.32787">
        <ele>91.2</ele>
        <time>2021-01-24T10:52:16.000Z</time>
      </trkpt>
      <trkpt lat="46.54088" lon="0.32786">
        <ele>91.2</ele>
        <time>2021-01-24T10:52:17.000Z</time>
      </trkpt>
      <trkpt lat="46.5409" lon="0.32787">
        <ele>91.2</ele>
        <time>2021-01-24T10:52:18.000Z</time>
      </trkpt>
      <trkpt lat="46.54092" lon="0.32788">
        <ele>91.2</ele>
        <time>2021-01-24T10:52:19.000Z</time>
      </trkpt>
      <trkpt lat="46.54092" lon="0.32788">
        <ele>91.2</ele>
        <time>2021-01-24T10:52:20.000Z</time>
      </trkpt>
      <trkpt lat="46.54095" lon="0.3279">
        <ele>91.2</ele>
        <time>2021-01-24T10:52:21.000Z</time>
      </trkpt>
      <trkpt lat="46.54097" lon="0.3279">
        <ele>91.2</ele>
        <time>2021-01-24T10:52:22.000Z</time>
      </trkpt>
      <trkpt lat="46.541" lon="0.32792">
        <ele>91.2</ele>
        <time>2021-01-24T10:52:23.000Z</time>
      </trkpt>
      <trkpt lat="46.54104" lon="0.32794">
        <ele>91.2</ele>
        <time>2021-01-24T10:52:24.000Z</time>
      </trkpt>
      <trkpt lat="46.54104" lon="0.32794">
        <ele>91.2</ele>
        <time>2021-01-24T10:52:25.000Z</time>
      </trkpt>
      <trkpt lat="46.54107" lon="0.32795">
        <ele>91.2</ele>
        <time>2021-01-24T10:52:26.000Z</time>
      </trkpt>
      <trkpt lat="46.54107" lon="0.32795">
        <ele>91.2</ele>
        <time>2021-01-24T10:52:27.000Z</time>
      </trkpt>
      <trkpt lat="46.54107" lon="0.32795">
        <ele>91.2</ele>
        <time>2021-01-24T10:52:28.000Z</time>
      </trkpt>
      <trkpt lat="46.54107" lon="0.32795">
        <ele>91.2</ele>
        <time>2021-01-24T10:52:29.000Z</time>
      </trkpt>
      <trkpt lat="46.54107" lon="0.32795">
        <ele>91.2</ele>
        <time>2021-01-24T10:52:30.000Z</time>
      </trkpt>
      <trkpt lat="46.54107" lon="0.32795">
        <ele>91.2</ele>
        <time>2021-01-24T10:52:31.000Z</time>
      </trkpt>
      <trkpt lat="46.54107" lon="0.32795">
        <ele>91.2</ele>
        <time>2021-01-24T10:52:32.000Z</time>
      </trkpt>
      <trkpt lat="46.54107" lon="0.32795">
        <ele>91.2</ele>
        <time>2021-01-24T10:52:33.000Z</time>
      </trkpt>
      <trkpt lat="46.54107" lon="0.32795">
        <ele>91.2</ele>
        <time>2021-01-24T10:52:34.000Z</time>
      </trkpt>
      <trkpt lat="46.54107" lon="0.32795">
        <ele>91.2</ele>
        <time>2021-01-24T10:52:35.000Z</time>
      </trkpt>
      <trkpt lat="46.54107" lon="0.32795">
        <ele>91.2</ele>
        <time>2021-01-24T10:52:36.000Z</time>
      </trkpt>
      <trkpt lat="46.54107" lon="0.32795">
        <ele>91.2</ele>
        <time>2021-01-24T10:52:37.000Z</time>
      </trkpt>
      <trkpt lat="46.54107" lon="0.32795">
        <ele>91.2</ele>
        <time>2021-01-24T10:52:38.000Z</time>
      </trkpt>
      <trkpt lat="46.54107" lon="0.32795">
        <ele>91.2</ele>
        <time>2021-01-24T10:52:39.000Z</time>
      </trkpt>
      <trkpt lat="46.54107" lon="0.32795">
        <ele>91.2</ele>
        <time>2021-01-24T10:52:40.000Z</time>
      </trkpt>
      <trkpt lat="46.54107" lon="0.32795">
        <ele>91.2</ele>
        <time>2021-01-24T10:52:41.000Z</time>
      </trkpt>
      <trkpt lat="46.54107" lon="0.32795">
        <ele>91.4</ele>
        <time>2021-01-24T10:52:42.000Z</time>
      </trkpt>
      <trkpt lat="46.54107" lon="0.32795">
        <ele>91.4</ele>
        <time>2021-01-24T10:52:43.000Z</time>
      </trkpt>
      <trkpt lat="46.54107" lon="0.32795">
        <ele>91.6</ele>
        <time>2021-01-24T10:52:44.000Z</time>
      </trkpt>
      <trkpt lat="46.54107" lon="0.32795">
        <ele>91.6</ele>
        <time>2021-01-24T10:52:45.000Z</time>
      </trkpt>
      <trkpt lat="46.54107" lon="0.32795">
        <ele>91.8</ele>
        <time>2021-01-24T10:52:46.000Z</time>
      </trkpt>
      <trkpt lat="46.54107" lon="0.32795">
        <ele>92</ele>
        <time>2021-01-24T10:52:47.000Z</time>
      </trkpt>
      <trkpt lat="46.54107" lon="0.32795">
        <ele>92.4</ele>
        <time>2021-01-24T10:52:48.000Z</time>
      </trkpt>
      <trkpt lat="46.54107" lon="0.32795">
        <ele>92.6</ele>
        <time>2021-01-24T10:52:49.000Z</time>
      </trkpt>
      <trkpt lat="46.54107" lon="0.32795">
        <ele>92.8</ele>
        <time>2021-01-24T10:52:50.000Z</time>
      </trkpt>
      <trkpt lat="46.54107" lon="0.32795">
        <ele>93.2</ele>
        <time>2021-01-24T10:52:51.000Z</time>
      </trkpt>
      <trkpt lat="46.54107" lon="0.32795">
        <ele>93.4</ele>
        <time>2021-01-24T10:52:52.000Z</time>
      </trkpt>
      <trkpt lat="46.54107" lon="0.32795">
        <ele>93.6</ele>
        <time>2021-01-24T10:52:53.000Z</time>
      </trkpt>
      <trkpt lat="46.54107" lon="0.32795">
        <ele>93.8</ele>
        <time>2021-01-24T10:52:54.000Z</time>
      </trkpt>
      <trkpt lat="46.54107" lon="0.32795">
        <ele>94</ele>
        <time>2021-01-24T10:52:55.000Z</time>
      </trkpt>
      <trkpt lat="46.54107" lon="0.32795">
        <ele>94.2</ele>
        <time>2021-01-24T10:52:56.000Z</time>
      </trkpt>
      <trkpt lat="46.54107" lon="0.32795">
        <ele>94.4</ele>
        <time>2021-01-24T10:52:57.000Z</time>
      </trkpt>
      <trkpt lat="46.54107" lon="0.32795">
        <ele>94.6</ele>
        <time>2021-01-24T10:52:58.000Z</time>
      </trkpt>
      <trkpt lat="46.54107" lon="0.32795">
        <ele>94.8</ele>
        <time>2021-01-24T10:52:59.000Z</time>
      </trkpt>
      <trkpt lat="46.54107" lon="0.32795">
        <ele>95</ele>
        <time>2021-01-24T10:53:00.000Z</time>
      </trkpt>
      <trkpt lat="46.54107" lon="0.32795">
        <ele>95.2</ele>
        <time>2021-01-24T10:53:01.000Z</time>
      </trkpt>
      <trkpt lat="46.54107" lon="0.32795">
        <ele>95.4</ele>
        <time>2021-01-24T10:53:02.000Z</time>
      </trkpt>
      <trkpt lat="46.54107" lon="0.32795">
        <ele>95.6</ele>
        <time>2021-01-24T10:53:03.000Z</time>
      </trkpt>
      <trkpt lat="46.54107" lon="0.32795">
        <ele>95.8</ele>
        <time>2021-01-24T10:53:04.000Z</time>
      </trkpt>
      <trkpt lat="46.54107" lon="0.32795">
        <ele>95.8</ele>
        <time>2021-01-24T10:53:05.000Z</time>
      </trkpt>
      <trkpt lat="46.54107" lon="0.32795">
        <ele>96</ele>
        <time>2021-01-24T10:53:06.000Z</time>
      </trkpt>
      <trkpt lat="46.54107" lon="0.32795">
        <ele>96.2</ele>
        <time>2021-01-24T10:53:07.000Z</time>
      </trkpt>
      <trkpt lat="46.54107" lon="0.32795">
        <ele>96.4</ele>
        <time>2021-01-24T10:53:08.000Z</time>
      </trkpt>
      <trkpt lat="46.54107" lon="0.32795">
        <ele>96.4</ele>
        <time>2021-01-24T10:53:09.000Z</time>
      </trkpt>
      <trkpt lat="46.54107" lon="0.32795">
        <ele>96.6</ele>
        <time>2021-01-24T10:53:10.000Z</time>
      </trkpt>
      <trkpt lat="46.54107" lon="0.32795">
        <ele>96.8</ele>
        <time>2021-01-24T10:53:11.000Z</time>
      </trkpt>
      <trkpt lat="46.54107" lon="0.32795">
        <ele>96.8</ele>
        <time>2021-01-24T10:53:12.000Z</time>
      </trkpt>
      <trkpt lat="46.54107" lon="0.32795">
        <ele>97</ele>
        <time>2021-01-24T10:53:13.000Z</time>
      </trkpt>
      <trkpt lat="46.54107" lon="0.32795">
        <ele>97.2</ele>
        <time>2021-01-24T10:53:14.000Z</time>
      </trkpt>
      <trkpt lat="46.54107" lon="0.32795">
        <ele>97.2</ele>
        <time>2021-01-24T10:53:15.000Z</time>
      </trkpt>
      <trkpt lat="46.54107" lon="0.32795">
        <ele>97.4</ele>
        <time>2021-01-24T10:53:16.000Z</time>
      </trkpt>
      <trkpt lat="46.54107" lon="0.32795">
        <ele>97.6</ele>
        <time>2021-01-24T10:53:17.000Z</time>
      </trkpt>
      <trkpt lat="46.54107" lon="0.32795">
        <ele>97.6</ele>
        <time>2021-01-24T10:53:18.000Z</time>
      </trkpt>
      <trkpt lat="46.54107" lon="0.32795">
        <ele>97.8</ele>
        <time>2021-01-24T10:53:19.000Z</time>
      </trkpt>
      <trkpt lat="46.54107" lon="0.32795">
        <ele>97.8</ele>
        <time>2021-01-24T10:53:20.000Z</time>
      </trkpt>
      <trkpt lat="46.54107" lon="0.32795">
        <ele>98</ele>
        <time>2021-01-24T10:53:21.000Z</time>
      </trkpt>
      <trkpt lat="46.54107" lon="0.32795">
        <ele>98</ele>
        <time>2021-01-24T10:53:22.000Z</time>
      </trkpt>
      <trkpt lat="46.54107" lon="0.32795">
        <ele>98.2</ele>
        <time>2021-01-24T10:53:23.000Z</time>
      </trkpt>
      <trkpt lat="46.54107" lon="0.32795">
        <ele>98.2</ele>
        <time>2021-01-24T10:53:24.000Z</time>
      </trkpt>
      <trkpt lat="46.54107" lon="0.32795">
        <ele>98.4</ele>
        <time>2021-01-24T10:53:25.000Z</time>
      </trkpt>
      <trkpt lat="46.54107" lon="0.32795">
        <ele>98.4</ele>
        <time>2021-01-24T10:53:26.000Z</time>
      </trkpt>
      <trkpt lat="46.54107" lon="0.32795">
        <ele>98.4</ele>
        <time>2021-01-24T10:53:27.000Z</time>
      </trkpt>
      <trkpt lat="46.54107" lon="0.32795">
        <ele>98.6</ele>
        <time>2021-01-24T10:53:28.000Z</time>
      </trkpt>
      <trkpt lat="46.54107" lon="0.32795">
        <ele>98.6</ele>
        <time>2021-01-24T10:53:29.000Z</time>
      </trkpt>
      <trkpt lat="46.54107" lon="0.32795">
        <ele>98.8</ele>
        <time>2021-01-24T10:53:30.000Z</time>
      </trkpt>
      <trkpt lat="46.54107" lon="0.32795">
        <ele>98.8</ele>
        <time>2021-01-24T10:53:31.000Z</time>
      </trkpt>
      <trkpt lat="46.54107" lon="0.32795">
        <ele>98.8</ele>
        <time>2021-01-24T10:53:32.000Z</time>
      </trkpt>
      <trkpt lat="46.54107" lon="0.32795">
        <ele>99</ele>
        <time>2021-01-24T10:53:33.000Z</time>
      </trkpt>
      <trkpt lat="46.54107" lon="0.32795">
        <ele>99</ele>
        <time>2021-01-24T10:53:34.000Z</time>
      </trkpt>
      <trkpt lat="46.54107" lon="0.32795">
        <ele>99</ele>
        <time>2021-01-24T10:53:35.000Z</time>
      </trkpt>
      <trkpt lat="46.54107" lon="0.32795">
        <ele>99.2</ele>
        <time>2021-01-24T10:53:36.000Z</time>
      </trkpt>
      <trkpt lat="46.54107" lon="0.32795">
        <ele>99.2</ele>
        <time>2021-01-24T10:53:37.000Z</time>
      </trkpt>
      <trkpt lat="46.54107" lon="0.32795">
        <ele>99.2</ele>
        <time>2021-01-24T10:53:38.000Z</time>
      </trkpt>
      <trkpt lat="46.54107" lon="0.32795">
        <ele>99.4</ele>
        <time>2021-01-24T10:53:39.000Z</time>
      </trkpt>
      <trkpt lat="46.54107" lon="0.32795">
        <ele>99.4</ele>
        <time>2021-01-24T10:53:40.000Z</time>
      </trkpt>
      <trkpt lat="46.54107" lon="0.32795">
        <ele>99.4</ele>
        <time>2021-01-24T10:53:41.000Z</time>
      </trkpt>
      <trkpt lat="46.54107" lon="0.32795">
        <ele>99.6</ele>
        <time>2021-01-24T10:53:42.000Z</time>
      </trkpt>
      <trkpt lat="46.54107" lon="0.32795">
        <ele>99.6</ele>
        <time>2021-01-24T10:53:43.000Z</time>
      </trkpt>
      <trkpt lat="46.54107" lon="0.32795">
        <ele>99.6</ele>
        <time>2021-01-24T10:53:44.000Z</time>
      </trkpt>
      <trkpt lat="46.54107" lon="0.32795">
        <ele>99.6</ele>
        <time>2021-01-24T10:53:45.000Z</time>
      </trkpt>
      <trkpt lat="46.54107" lon="0.32795">
        <ele>99.8</ele>
        <time>2021-01-24T10:53:46.000Z</time>
      </trkpt>
      <trkpt lat="46.54107" lon="0.32795">
        <ele>99.8</ele>
        <time>2021-01-24T10:53:47.000Z</time>
      </trkpt>
      <trkpt lat="46.54107" lon="0.32795">
        <ele>99.8</ele>
        <time>2021-01-24T10:53:48.000Z</time>
      </trkpt>
      <trkpt lat="46.54107" lon="0.32795">
        <ele>99.8</ele>
        <time>2021-01-24T10:53:49.000Z</time>
      </trkpt>
      <trkpt lat="46.54107" lon="0.32795">
        <ele>100</ele>
        <time>2021-01-24T10:53:50.000Z</time>
      </trkpt>
      <trkpt lat="46.54107" lon="0.32795">
        <ele>100</ele>
        <time>2021-01-24T10:53:51.000Z</time>
      </trkpt>
      <trkpt lat="46.54107" lon="0.32795">
        <ele>100</ele>
        <time>2021-01-24T10:53:52.000Z</time>
      </trkpt>
      <trkpt lat="46.54107" lon="0.32795">
        <ele>100</ele>
        <time>2021-01-24T10:53:53.000Z</time>
      </trkpt>
      <trkpt lat="46.54107" lon="0.32795">
        <ele>100</ele>
        <time>2021-01-24T10:53:54.000Z</time>
      </trkpt>
      <trkpt lat="46.54107" lon="0.32795">
        <ele>100</ele>
        <time>2021-01-24T10:53:55.000Z</time>
      </trkpt>
      <trkpt lat="46.54107" lon="0.32795">
        <ele>100.2</ele>
        <time>2021-01-24T10:53:56.000Z</time>
      </trkpt>
      <trkpt lat="46.54107" lon="0.32795">
        <ele>100.2</ele>
        <time>2021-01-24T10:53:57.000Z</time>
      </trkpt>
      <trkpt lat="46.54107" lon="0.32795">
        <ele>100.2</ele>
        <time>2021-01-24T10:53:58.000Z</time>
      </trkpt>
      <trkpt lat="46.54107" lon="0.32795">
        <ele>100.2</ele>
        <time>2021-01-24T10:53:59.000Z</time>
      </trkpt>
      <trkpt lat="46.54107" lon="0.32795">
        <ele>100.2</ele>
        <time>2021-01-24T10:54:00.000Z</time>
      </trkpt>
      <trkpt lat="46.54107" lon="0.32795">
        <ele>100.4</ele>
        <time>2021-01-24T10:54:01.000Z</time>
      </trkpt>
      <trkpt lat="46.54107" lon="0.32795">
        <ele>100.4</ele>
        <time>2021-01-24T10:54:02.000Z</time>
      </trkpt>
      <trkpt lat="46.54107" lon="0.32795">
        <ele>100.4</ele>
        <time>2021-01-24T10:54:03.000Z</time>
      </trkpt>
      <trkpt lat="46.54107" lon="0.32795">
        <ele>100.4</ele>
        <time>2021-01-24T10:54:04.000Z</time>
      </trkpt>
      <trkpt lat="46.54107" lon="0.32795">
        <ele>100.4</ele>
        <time>2021-01-24T10:54:05.000Z</time>
      </trkpt>
      <trkpt lat="46.54107" lon="0.32795">
        <ele>100.4</ele>
        <time>2021-01-24T10:54:06.000Z</time>
      </trkpt>
      <trkpt lat="46.54107" lon="0.32795">
        <ele>100.4</ele>
        <time>2021-01-24T10:54:07.000Z</time>
      </trkpt>
      <trkpt lat="46.54107" lon="0.32795">
        <ele>100.6</ele>
        <time>2021-01-24T10:54:08.000Z</time>
      </trkpt>
      <trkpt lat="46.54107" lon="0.32795">
        <ele>100.6</ele>
        <time>2021-01-24T10:54:09.000Z</time>
      </trkpt>
      <trkpt lat="46.54107" lon="0.32795">
        <ele>100.6</ele>
        <time>2021-01-24T10:54:10.000Z</time>
      </trkpt>
      <trkpt lat="46.54107" lon="0.32795">
        <ele>100.6</ele>
        <time>2021-01-24T10:54:11.000Z</time>
      </trkpt>
      <trkpt lat="46.54107" lon="0.32795">
        <ele>100.6</ele>
        <time>2021-01-24T10:54:12.000Z</time>
      </trkpt>
      <trkpt lat="46.54107" lon="0.32795">
        <ele>100.6</ele>
        <time>2021-01-24T10:54:13.000Z</time>
      </trkpt>
      <trkpt lat="46.54107" lon="0.32795">
        <ele>100.6</ele>
        <time>2021-01-24T10:54:14.000Z</time>
      </trkpt>
      <trkpt lat="46.54107" lon="0.32795">
        <ele>100.6</ele>
        <time>2021-01-24T10:54:15.000Z</time>
      </trkpt>
      <trkpt lat="46.54107" lon="0.32795">
        <ele>100.6</ele>
        <time>2021-01-24T10:54:16.000Z</time>
      </trkpt>
      <trkpt lat="46.54107" lon="0.32795">
        <ele>100.8</ele>
        <time>2021-01-24T10:54:17.000Z</time>
      </trkpt>
      <trkpt lat="46.54107" lon="0.32795">
        <ele>100.8</ele>
        <time>2021-01-24T10:54:18.000Z</time>
      </trkpt>
      <trkpt lat="46.54107" lon="0.32795">
        <ele>100.8</ele>
        <time>2021-01-24T10:54:19.000Z</time>
      </trkpt>
      <trkpt lat="46.54107" lon="0.32795">
        <ele>100.8</ele>
        <time>2021-01-24T10:54:20.000Z</time>
      </trkpt>
      <trkpt lat="46.54107" lon="0.32795">
        <ele>100.8</ele>
        <time>2021-01-24T10:54:21.000Z</time>
      </trkpt>
      <trkpt lat="46.54107" lon="0.32795">
        <ele>100.8</ele>
        <time>2021-01-24T10:54:22.000Z</time>
      </trkpt>
      <trkpt lat="46.54107" lon="0.32795">
        <ele>100.8</ele>
        <time>2021-01-24T10:54:23.000Z</time>
      </trkpt>
      <trkpt lat="46.54107" lon="0.32795">
        <ele>100.8</ele>
        <time>2021-01-24T10:54:24.000Z</time>
      </trkpt>
      <trkpt lat="46.54107" lon="0.32795">
        <ele>100.8</ele>
        <time>2021-01-24T10:54:25.000Z</time>
      </trkpt>
      <trkpt lat="46.54107" lon="0.32795">
        <ele>100.8</ele>
        <time>2021-01-24T10:54:26.000Z</time>
      </trkpt>
      <trkpt lat="46.54107" lon="0.32795">
        <ele>100.8</ele>
        <time>2021-01-24T10:54:27.000Z</time>
      </trkpt>
      <trkpt lat="46.54107" lon="0.32795">
        <ele>100.8</ele>
        <time>2021-01-24T10:54:28.000Z</time>
      </trkpt>
      <trkpt lat="46.54107" lon="0.32795">
        <ele>100.8</ele>
        <time>2021-01-24T10:54:29.000Z</time>
      </trkpt>
      <trkpt lat="46.54107" lon="0.32795">
        <ele>101</ele>
        <time>2021-01-24T10:54:30.000Z</time>
      </trkpt>
      <trkpt lat="46.54107" lon="0.32795">
        <ele>101</ele>
        <time>2021-01-24T10:54:31.000Z</time>
      </trkpt>
      <trkpt lat="46.54107" lon="0.32795">
        <ele>101</ele>
        <time>2021-01-24T10:54:32.000Z</time>
      </trkpt>
      <trkpt lat="46.54107" lon="0.32795">
        <ele>101</ele>
        <time>2021-01-24T10:54:33.000Z</time>
      </trkpt>
      <trkpt lat="46.54107" lon="0.32795">
        <ele>101</ele>
        <time>2021-01-24T10:54:34.000Z</time>
      </trkpt>
      <trkpt lat="46.54107" lon="0.32795">
        <ele>101</ele>
        <time>2021-01-24T10:54:35.000Z</time>
      </trkpt>
      <trkpt lat="46.54107" lon="0.32795">
        <ele>101</ele>
        <time>2021-01-24T10:54:36.000Z</time>
      </trkpt>
      <trkpt lat="46.54107" lon="0.32795">
        <ele>101</ele>
        <time>2021-01-24T10:54:37.000Z</time>
      </trkpt>
      <trkpt lat="46.54107" lon="0.32795">
        <ele>101</ele>
        <time>2021-01-24T10:54:38.000Z</time>
      </trkpt>
      <trkpt lat="46.54107" lon="0.32795">
        <ele>101</ele>
        <time>2021-01-24T10:54:39.000Z</time>
      </trkpt>
      <trkpt lat="46.54107" lon="0.32795">
        <ele>101</ele>
        <time>2021-01-24T10:54:40.000Z</time>
      </trkpt>
      <trkpt lat="46.54107" lon="0.32795">
        <ele>101</ele>
        <time>2021-01-24T10:54:41.000Z</time>
      </trkpt>
      <trkpt lat="46.54107" lon="0.32795">
        <ele>101</ele>
        <time>2021-01-24T10:54:42.000Z</time>
      </trkpt>
      <trkpt lat="46.54107" lon="0.32795">
        <ele>101</ele>
        <time>2021-01-24T10:54:43.000Z</time>
      </trkpt>
      <trkpt lat="46.54107" lon="0.32795">
        <ele>101</ele>
        <time>2021-01-24T10:54:44.000Z</time>
      </trkpt>
      <trkpt lat="46.54107" lon="0.32795">
        <ele>101</ele>
        <time>2021-01-24T10:54:45.000Z</time>
      </trkpt>
      <trkpt lat="46.54107" lon="0.32795">
        <ele>101</ele>
        <time>2021-01-24T10:54:46.000Z</time>
      </trkpt>
      <trkpt lat="46.54107" lon="0.32795">
        <ele>101</ele>
        <time>2021-01-24T10:54:47.000Z</time>
      </trkpt>
      <trkpt lat="46.54107" lon="0.32795">
        <ele>101</ele>
        <time>2021-01-24T10:54:48.000Z</time>
      </trkpt>
      <trkpt lat="46.54107" lon="0.32795">
        <ele>101</ele>
        <time>2021-01-24T10:54:49.000Z</time>
      </trkpt>
      <trkpt lat="46.54107" lon="0.32795">
        <ele>101</ele>
        <time>2021-01-24T10:54:50.000Z</time>
      </trkpt>
      <trkpt lat="46.54107" lon="0.32795">
        <ele>101</ele>
        <time>2021-01-24T10:54:51.000Z</time>
      </trkpt>
      <trkpt lat="46.54107" lon="0.32795">
        <ele>101</ele>
        <time>2021-01-24T10:54:52.000Z</time>
      </trkpt>
      <trkpt lat="46.54107" lon="0.32795">
        <ele>101</ele>
        <time>2021-01-24T10:54:53.000Z</time>
      </trkpt>
      <trkpt lat="46.54107" lon="0.32795">
        <ele>101</ele>
        <time>2021-01-24T10:54:54.000Z</time>
      </trkpt>
      <trkpt lat="46.54107" lon="0.32795">
        <ele>101</ele>
        <time>2021-01-24T10:54:55.000Z</time>
      </trkpt>
      <trkpt lat="46.54107" lon="0.32795">
        <ele>101</ele>
        <time>2021-01-24T10:54:56.000Z</time>
      </trkpt>
      <trkpt lat="46.54107" lon="0.32795">
        <ele>101</ele>
        <time>2021-01-24T10:54:57.000Z</time>
      </trkpt>
      <trkpt lat="46.54107" lon="0.32795">
        <ele>101</ele>
        <time>2021-01-24T10:54:58.000Z</time>
      </trkpt>
      <trkpt lat="46.54107" lon="0.32795">
        <ele>101</ele>
        <time>2021-01-24T10:54:59.000Z</time>
      </trkpt>
      <trkpt lat="46.54107" lon="0.32795">
        <ele>101</ele>
        <time>2021-01-24T10:55:00.000Z</time>
      </trkpt>
      <trkpt lat="46.54107" lon="0.32795">
        <ele>101</ele>
        <time>2021-01-24T10:55:01.000Z</time>
      </trkpt>
      <trkpt lat="46.54107" lon="0.32795">
        <ele>101</ele>
        <time>2021-01-24T10:55:02.000Z</time>
      </trkpt>
      <trkpt lat="46.54107" lon="0.32795">
        <ele>101</ele>
        <time>2021-01-24T10:55:03.000Z</time>
      </trkpt>
      <trkpt lat="46.54107" lon="0.32795">
        <ele>101</ele>
        <time>2021-01-24T10:55:04.000Z</time>
      </trkpt>
      <trkpt lat="46.54107" lon="0.32795">
        <ele>101</ele>
        <time>2021-01-24T10:55:05.000Z</time>
      </trkpt>
      <trkpt lat="46.54107" lon="0.32795">
        <ele>101</ele>
        <time>2021-01-24T10:55:06.000Z</time>
      </trkpt>
      <trkpt lat="46.54107" lon="0.32795">
        <ele>101</ele>
        <time>2021-01-24T10:55:07.000Z</time>
      </trkpt>
      <trkpt lat="46.54107" lon="0.32795">
        <ele>101</ele>
        <time>2021-01-24T10:55:08.000Z</time>
      </trkpt>
      <trkpt lat="46.54107" lon="0.32795">
        <ele>101</ele>
        <time>2021-01-24T10:55:09.000Z</time>
      </trkpt>
      <trkpt lat="46.54107" lon="0.32795">
        <ele>101</ele>
        <time>2021-01-24T10:55:10.000Z</time>
      </trkpt>
      <trkpt lat="46.54107" lon="0.32795">
        <ele>101</ele>
        <time>2021-01-24T10:55:11.000Z</time>
      </trkpt>
      <trkpt lat="46.54107" lon="0.32795">
        <ele>101</ele>
        <time>2021-01-24T10:55:12.000Z</time>
      </trkpt>
      <trkpt lat="46.54109" lon="0.32793">
        <ele>101</ele>
        <time>2021-01-24T10:55:13.000Z</time>
      </trkpt>
      <trkpt lat="46.54111" lon="0.32794">
        <ele>101</ele>
        <time>2021-01-24T10:55:14.000Z</time>
      </trkpt>
      <trkpt lat="46.54114" lon="0.32793">
        <ele>100.8</ele>
        <time>2021-01-24T10:55:15.000Z</time>
      </trkpt>
      <trkpt lat="46.54114" lon="0.32793">
        <ele>100.8</ele>
        <time>2021-01-24T10:55:16.000Z</time>
      </trkpt>
      <trkpt lat="46.54115" lon="0.32809">
        <ele>75.2</ele>
        <time>2021-01-24T10:55:27.607Z</time>
      </trkpt>
      <trkpt lat="46.54099" lon="0.32818">
        <ele>74.7</ele>
        <time>2021-01-24T10:55:35.397Z</time>
      </trkpt>
      <trkpt lat="46.54064" lon="0.32873">
        <ele>76.2</ele>
        <time>2021-01-24T10:55:58.703Z</time>
      </trkpt>
      <trkpt lat="46.54045" lon="0.32873">
        <ele>77.1</ele>
        <time>2021-01-24T10:56:07.485Z</time>
      </trkpt>
      <trkpt lat="46.54015" lon="0.32888">
        <ele>78.2</ele>
        <time>2021-01-24T10:56:22.189Z</time>
      </trkpt>
      <trkpt lat="46.53944" lon="0.32951">
        <ele>78.8</ele>
        <time>2021-01-24T10:56:59.999Z</time>
      </trkpt>
      <trkpt lat="46.539" lon="0.33019">
        <ele>77.7</ele>
        <time>2021-01-24T10:57:29.422Z</time>
      </trkpt>
      <trkpt lat="46.53877" lon="0.33081">
        <ele>78.5</ele>
        <time>2021-01-24T10:57:51.686Z</time>
      </trkpt>
      <trkpt lat="46.53867" lon="0.33097">
        <ele>78.9</ele>
        <time>2021-01-24T10:57:58.351Z</time>
      </trkpt>
      <trkpt lat="46.53848" lon="0.33097">
        <ele>79.8</ele>
        <time>2021-01-24T10:58:07.419Z</time>
      </trkpt>
      <trkpt lat="46.53828" lon="0.33113">
        <ele>81.6</ele>
        <time>2021-01-24T10:58:17.808Z</time>
      </trkpt>
      <trkpt lat="46.53822" lon="0.33137">
        <ele>82.4</ele>
        <time>2021-01-24T10:58:25.672Z</time>
      </trkpt>
      <trkpt lat="46.5376" lon="0.33179">
        <ele>98.8</ele>
        <time>2021-01-24T10:58:57.615Z</time>
      </trkpt>
      <trkpt lat="46.53746" lon="0.33152">
        <ele>103.4</ele>
        <time>2021-01-24T10:59:08.584Z</time>
      </trkpt>
      <trkpt lat="46.53725" lon="0.33194">
        <ele>106.4</ele>
        <time>2021-01-24T10:59:25.176Z</time>
      </trkpt>
      <trkpt lat="46.53736" lon="0.33205">
        <ele>103.9</ele>
        <time>2021-01-24T10:59:31.744Z</time>
      </trkpt>
      <trkpt lat="46.53736" lon="0.3322">
        <ele>103.6</ele>
        <time>2021-01-24T10:59:36.289Z</time>
      </trkpt>
      <trkpt lat="46.53744" lon="0.33225">
        <ele>101.9</ele>
        <time>2021-01-24T10:59:40.119Z</time>
      </trkpt>
      <trkpt lat="46.53759" lon="0.33219">
        <ele>98.3</ele>
        <time>2021-01-24T10:59:47.631Z</time>
      </trkpt>
      <trkpt lat="46.53767" lon="0.33207">
        <ele>96.5</ele>
        <time>2021-01-24T10:59:52.985Z</time>
      </trkpt>
      <trkpt lat="46.53786" lon="0.33207">
        <ele>91.6</ele>
        <time>2021-01-24T11:00:01.642Z</time>
      </trkpt>
      <trkpt lat="46.53832" lon="0.3324">
        <ele>80.1</ele>
        <time>2021-01-24T11:00:25.736Z</time>
      </trkpt>
      <trkpt lat="46.53853" lon="0.33215">
        <ele>79</ele>
        <time>2021-01-24T11:00:38.291Z</time>
      </trkpt>
      <trkpt lat="46.53871" lon="0.33123">
        <ele>78.6</ele>
        <time>2021-01-24T11:01:08.096Z</time>
      </trkpt>
      <trkpt lat="46.53884" lon="0.33181">
        <ele>78.6</ele>
        <time>2021-01-24T11:01:27.205Z</time>
      </trkpt>
      <trkpt lat="46.53934" lon="0.33177">
        <ele>79.8</ele>
        <time>2021-01-24T11:01:50.102Z</time>
      </trkpt>
      <trkpt lat="46.53927" lon="0.33106">
        <ele>77.3</ele>
        <time>2021-01-24T11:02:12.701Z</time>
      </trkpt>
      <trkpt lat="46.53941" lon="0.33035">
        <ele>76.4</ele>
        <time>2021-01-24T11:02:35.897Z</time>
      </trkpt>
      <trkpt lat="46.53953" lon="0.33033">
        <ele>76.9</ele>
        <time>2021-01-24T11:02:41.425Z</time>
      </trkpt>
      <trkpt lat="46.53958" lon="0.33056">
        <ele>77.5</ele>
        <time>2021-01-24T11:02:48.869Z</time>
      </trkpt>
      <trkpt lat="46.53983" lon="0.33054">
        <ele>78.5</ele>
        <time>2021-01-24T11:03:00.516Z</time>
      </trkpt>
      <trkpt lat="46.53996" lon="0.33036">
        <ele>78.7</ele>
        <time>2021-01-24T11:03:08.642Z</time>
      </trkpt>
      <trkpt lat="46.54008" lon="0.3303">
        <ele>78.8</ele>
        <time>2021-01-24T11:03:14.645Z</time>
      </trkpt>
      <trkpt lat="46.5404" lon="0.33073">
        <ele>80.1</ele>
        <time>2021-01-24T11:03:34.339Z</time>
      </trkpt>
      <trkpt lat="46.54046" lon="0.33104">
        <ele>81</ele>
        <time>2021-01-24T11:03:44.432Z</time>
      </trkpt>
      <trkpt lat="46.54037" lon="0.33116">
        <ele>78.8</ele>
        <time>2021-01-24T11:03:50.050Z</time>
      </trkpt>
      <trkpt lat="46.54036" lon="0.33119">
        <ele>78.8</ele>
        <time>2021-01-24T11:03:51.195Z</time>
      </trkpt>
    </trkseg>
  </trk>
</gpx>